<?xml version="1.0" encoding="UTF-8" standalone="no" ?>
<gpx xmlns="http://www.topografix.com/GPX/1/1" xmlns:xsi="http://www.w3.org/2001/XMLSchema-instance" xsi:schemaLocation="http://www.topografix.com/GPX/1/1 http://www.topografix.com/GPX/1/1/gpx.xsd" version="1.1" creator="VisuGPX - https://www.visugpx.com">
  <metadata>
    <name>Saint-Clair-du-Rhône Trail</name>
    <desc><![CDATA[
Mont Monnet mont Ministre départ gare de St Clair les Roches]]></desc>
  </metadata>
  <trk>
    <name><![CDATA[Saint-Clair-du-Rhône Trail]]></name>
    <trkseg>
      <trkpt lat="45.44821" lon="4.76918">
        <ele>156.19999694824</ele>
        <time>2020-03-10T07:13:09.000Z</time>
      </trkpt>
      <trkpt lat="45.44819" lon="4.76914">
        <ele>155.80000305176</ele>
        <time>2020-03-10T07:13:10.000Z</time>
      </trkpt>
      <trkpt lat="45.44816" lon="4.76906">
        <ele>155.60000610352</ele>
        <time>2020-03-10T07:13:12.000Z</time>
      </trkpt>
      <trkpt lat="45.44813" lon="4.76899">
        <ele>155.80000305176</ele>
        <time>2020-03-10T07:13:15.000Z</time>
      </trkpt>
      <trkpt lat="45.44811" lon="4.76897">
        <ele>155.80000305176</ele>
        <time>2020-03-10T07:13:16.000Z</time>
      </trkpt>
      <trkpt lat="45.4481" lon="4.76896">
        <ele>156</ele>
        <time>2020-03-10T07:13:17.000Z</time>
      </trkpt>
      <trkpt lat="45.44807" lon="4.76896">
        <ele>156</ele>
        <time>2020-03-10T07:13:18.000Z</time>
      </trkpt>
      <trkpt lat="45.44805" lon="4.76895">
        <ele>156.19999694824</ele>
        <time>2020-03-10T07:13:19.000Z</time>
      </trkpt>
      <trkpt lat="45.44801" lon="4.76894">
        <ele>156.39999389648</ele>
        <time>2020-03-10T07:13:21.000Z</time>
      </trkpt>
      <trkpt lat="45.44799" lon="4.76893">
        <ele>156.60000610352</ele>
        <time>2020-03-10T07:13:22.000Z</time>
      </trkpt>
      <trkpt lat="45.44797" lon="4.76893">
        <ele>156.80000305176</ele>
        <time>2020-03-10T07:13:23.000Z</time>
      </trkpt>
      <trkpt lat="45.44791" lon="4.76894">
        <ele>157.39999389648</ele>
        <time>2020-03-10T07:13:25.000Z</time>
      </trkpt>
      <trkpt lat="45.44784" lon="4.76894">
        <ele>158</ele>
        <time>2020-03-10T07:13:28.000Z</time>
      </trkpt>
      <trkpt lat="45.44782" lon="4.76894">
        <ele>158.19999694824</ele>
        <time>2020-03-10T07:13:29.000Z</time>
      </trkpt>
      <trkpt lat="45.44776" lon="4.76891">
        <ele>158.19999694824</ele>
        <time>2020-03-10T07:13:32.000Z</time>
      </trkpt>
      <trkpt lat="45.44775" lon="4.76888">
        <ele>158.19999694824</ele>
        <time>2020-03-10T07:13:33.000Z</time>
      </trkpt>
      <trkpt lat="45.44781" lon="4.76872">
        <ele>156.80000305176</ele>
        <time>2020-03-10T07:13:39.000Z</time>
      </trkpt>
      <trkpt lat="45.44784" lon="4.76866">
        <ele>156.39999389648</ele>
        <time>2020-03-10T07:13:41.000Z</time>
      </trkpt>
      <trkpt lat="45.44785" lon="4.76863">
        <ele>156</ele>
        <time>2020-03-10T07:13:42.000Z</time>
      </trkpt>
      <trkpt lat="45.4479" lon="4.76846">
        <ele>155.19999694824</ele>
        <time>2020-03-10T07:13:46.000Z</time>
      </trkpt>
      <trkpt lat="45.4479" lon="4.7684">
        <ele>154.80000305176</ele>
        <time>2020-03-10T07:13:47.000Z</time>
      </trkpt>
      <trkpt lat="45.44795" lon="4.76828">
        <ele>154</ele>
        <time>2020-03-10T07:13:51.000Z</time>
      </trkpt>
      <trkpt lat="45.44796" lon="4.76825">
        <ele>153.39999389648</ele>
        <time>2020-03-10T07:13:52.000Z</time>
      </trkpt>
      <trkpt lat="45.44797" lon="4.76822">
        <ele>153</ele>
        <time>2020-03-10T07:13:53.000Z</time>
      </trkpt>
      <trkpt lat="45.44798" lon="4.76819">
        <ele>152.80000305176</ele>
        <time>2020-03-10T07:13:54.000Z</time>
      </trkpt>
      <trkpt lat="45.44796" lon="4.76802">
        <ele>152.19999694824</ele>
        <time>2020-03-10T07:13:58.000Z</time>
      </trkpt>
      <trkpt lat="45.44796" lon="4.76794">
        <ele>151.80000305176</ele>
        <time>2020-03-10T07:14:01.000Z</time>
      </trkpt>
      <trkpt lat="45.44798" lon="4.7679">
        <ele>151.80000305176</ele>
        <time>2020-03-10T07:14:02.000Z</time>
      </trkpt>
      <trkpt lat="45.44805" lon="4.76781">
        <ele>151.80000305176</ele>
        <time>2020-03-10T07:14:05.000Z</time>
      </trkpt>
      <trkpt lat="45.44807" lon="4.76777">
        <ele>151.60000610352</ele>
        <time>2020-03-10T07:14:06.000Z</time>
      </trkpt>
      <trkpt lat="45.4481" lon="4.76769">
        <ele>150.60000610352</ele>
        <time>2020-03-10T07:14:09.000Z</time>
      </trkpt>
      <trkpt lat="45.44811" lon="4.76767">
        <ele>150.39999389648</ele>
        <time>2020-03-10T07:14:10.000Z</time>
      </trkpt>
      <trkpt lat="45.44813" lon="4.76766">
        <ele>150.39999389648</ele>
        <time>2020-03-10T07:14:11.000Z</time>
      </trkpt>
      <trkpt lat="45.44815" lon="4.76766">
        <ele>150.19999694824</ele>
        <time>2020-03-10T07:14:12.000Z</time>
      </trkpt>
      <trkpt lat="45.44827" lon="4.76769">
        <ele>150</ele>
        <time>2020-03-10T07:14:17.000Z</time>
      </trkpt>
      <trkpt lat="45.44829" lon="4.7677">
        <ele>150</ele>
        <time>2020-03-10T07:14:18.000Z</time>
      </trkpt>
      <trkpt lat="45.44833" lon="4.76771">
        <ele>149.39999389648</ele>
        <time>2020-03-10T07:14:20.000Z</time>
      </trkpt>
      <trkpt lat="45.44837" lon="4.76772">
        <ele>149.19999694824</ele>
        <time>2020-03-10T07:14:22.000Z</time>
      </trkpt>
      <trkpt lat="45.44843" lon="4.76775">
        <ele>149</ele>
        <time>2020-03-10T07:14:24.000Z</time>
      </trkpt>
      <trkpt lat="45.44861" lon="4.7678">
        <ele>148.60000610352</ele>
        <time>2020-03-10T07:14:32.000Z</time>
      </trkpt>
      <trkpt lat="45.4487" lon="4.76781">
        <ele>149</ele>
        <time>2020-03-10T07:14:38.000Z</time>
      </trkpt>
      <trkpt lat="45.44879" lon="4.76782">
        <ele>149</ele>
        <time>2020-03-10T07:14:42.000Z</time>
      </trkpt>
      <trkpt lat="45.44886" lon="4.76782">
        <ele>148.39999389648</ele>
        <time>2020-03-10T07:14:45.000Z</time>
      </trkpt>
      <trkpt lat="45.44889" lon="4.76782">
        <ele>148.39999389648</ele>
        <time>2020-03-10T07:14:46.000Z</time>
      </trkpt>
      <trkpt lat="45.44905" lon="4.76786">
        <ele>148.39999389648</ele>
        <time>2020-03-10T07:14:52.000Z</time>
      </trkpt>
      <trkpt lat="45.4491" lon="4.76788">
        <ele>148.19999694824</ele>
        <time>2020-03-10T07:14:54.000Z</time>
      </trkpt>
      <trkpt lat="45.44923" lon="4.7679">
        <ele>148.60000610352</ele>
        <time>2020-03-10T07:15:01.000Z</time>
      </trkpt>
      <trkpt lat="45.44925" lon="4.76791">
        <ele>148.60000610352</ele>
        <time>2020-03-10T07:15:02.000Z</time>
      </trkpt>
      <trkpt lat="45.44939" lon="4.76793">
        <ele>148.80000305176</ele>
        <time>2020-03-10T07:15:09.000Z</time>
      </trkpt>
      <trkpt lat="45.44944" lon="4.76794">
        <ele>148.80000305176</ele>
        <time>2020-03-10T07:15:12.000Z</time>
      </trkpt>
      <trkpt lat="45.4496" lon="4.76794">
        <ele>148.39999389648</ele>
        <time>2020-03-10T07:15:17.000Z</time>
      </trkpt>
      <trkpt lat="45.44973" lon="4.76797">
        <ele>148.39999389648</ele>
        <time>2020-03-10T07:15:22.000Z</time>
      </trkpt>
      <trkpt lat="45.4498" lon="4.76801">
        <ele>148.80000305176</ele>
        <time>2020-03-10T07:15:24.000Z</time>
      </trkpt>
      <trkpt lat="45.45" lon="4.768">
        <ele>149</ele>
        <time>2020-03-10T07:15:30.000Z</time>
      </trkpt>
      <trkpt lat="45.45004" lon="4.768">
        <ele>149</ele>
        <time>2020-03-10T07:15:32.000Z</time>
      </trkpt>
      <trkpt lat="45.4502" lon="4.76801">
        <ele>149</ele>
        <time>2020-03-10T07:15:38.000Z</time>
      </trkpt>
      <trkpt lat="45.4503" lon="4.768">
        <ele>149.19999694824</ele>
        <time>2020-03-10T07:15:42.000Z</time>
      </trkpt>
      <trkpt lat="45.45038" lon="4.76799">
        <ele>149</ele>
        <time>2020-03-10T07:15:45.000Z</time>
      </trkpt>
      <trkpt lat="45.45055" lon="4.76795">
        <ele>149.39999389648</ele>
        <time>2020-03-10T07:15:52.000Z</time>
      </trkpt>
      <trkpt lat="45.4507" lon="4.76789">
        <ele>148.80000305176</ele>
        <time>2020-03-10T07:15:58.000Z</time>
      </trkpt>
      <trkpt lat="45.45078" lon="4.76786">
        <ele>148.80000305176</ele>
        <time>2020-03-10T07:16:02.000Z</time>
      </trkpt>
      <trkpt lat="45.45082" lon="4.76784">
        <ele>149</ele>
        <time>2020-03-10T07:16:04.000Z</time>
      </trkpt>
      <trkpt lat="45.4509" lon="4.76783">
        <ele>149.39999389648</ele>
        <time>2020-03-10T07:16:07.000Z</time>
      </trkpt>
      <trkpt lat="45.45096" lon="4.76781">
        <ele>149.39999389648</ele>
        <time>2020-03-10T07:16:10.000Z</time>
      </trkpt>
      <trkpt lat="45.45101" lon="4.76779">
        <ele>149.39999389648</ele>
        <time>2020-03-10T07:16:12.000Z</time>
      </trkpt>
      <trkpt lat="45.45111" lon="4.76775">
        <ele>149</ele>
        <time>2020-03-10T07:16:16.000Z</time>
      </trkpt>
      <trkpt lat="45.45123" lon="4.76768">
        <ele>149.19999694824</ele>
        <time>2020-03-10T07:16:22.000Z</time>
      </trkpt>
      <trkpt lat="45.45126" lon="4.76767">
        <ele>149</ele>
        <time>2020-03-10T07:16:23.000Z</time>
      </trkpt>
      <trkpt lat="45.45144" lon="4.76759">
        <ele>149</ele>
        <time>2020-03-10T07:16:30.000Z</time>
      </trkpt>
      <trkpt lat="45.45149" lon="4.76758">
        <ele>149</ele>
        <time>2020-03-10T07:16:32.000Z</time>
      </trkpt>
      <trkpt lat="45.4516" lon="4.76756">
        <ele>149.19999694824</ele>
        <time>2020-03-10T07:16:37.000Z</time>
      </trkpt>
      <trkpt lat="45.45164" lon="4.76757">
        <ele>149</ele>
        <time>2020-03-10T07:16:39.000Z</time>
      </trkpt>
      <trkpt lat="45.45171" lon="4.76758">
        <ele>149</ele>
        <time>2020-03-10T07:16:42.000Z</time>
      </trkpt>
      <trkpt lat="45.45174" lon="4.76758">
        <ele>148.80000305176</ele>
        <time>2020-03-10T07:16:43.000Z</time>
      </trkpt>
      <trkpt lat="45.45185" lon="4.76759">
        <ele>149</ele>
        <time>2020-03-10T07:16:49.000Z</time>
      </trkpt>
      <trkpt lat="45.45191" lon="4.76763">
        <ele>149.19999694824</ele>
        <time>2020-03-10T07:16:52.000Z</time>
      </trkpt>
      <trkpt lat="45.45196" lon="4.76767">
        <ele>149.19999694824</ele>
        <time>2020-03-10T07:16:55.000Z</time>
      </trkpt>
      <trkpt lat="45.4521" lon="4.76771">
        <ele>148.80000305176</ele>
        <time>2020-03-10T07:17:02.000Z</time>
      </trkpt>
      <trkpt lat="45.45227" lon="4.76769">
        <ele>149.19999694824</ele>
        <time>2020-03-10T07:17:07.000Z</time>
      </trkpt>
      <trkpt lat="45.45233" lon="4.7677">
        <ele>148.80000305176</ele>
        <time>2020-03-10T07:17:09.000Z</time>
      </trkpt>
      <trkpt lat="45.45241" lon="4.76772">
        <ele>148.80000305176</ele>
        <time>2020-03-10T07:17:12.000Z</time>
      </trkpt>
      <trkpt lat="45.4525" lon="4.76774">
        <ele>148.80000305176</ele>
        <time>2020-03-10T07:17:16.000Z</time>
      </trkpt>
      <trkpt lat="45.45262" lon="4.76777">
        <ele>149</ele>
        <time>2020-03-10T07:17:22.000Z</time>
      </trkpt>
      <trkpt lat="45.45265" lon="4.76778">
        <ele>149</ele>
        <time>2020-03-10T07:17:23.000Z</time>
      </trkpt>
      <trkpt lat="45.45273" lon="4.76779">
        <ele>148.80000305176</ele>
        <time>2020-03-10T07:17:26.000Z</time>
      </trkpt>
      <trkpt lat="45.45285" lon="4.7678">
        <ele>149</ele>
        <time>2020-03-10T07:17:30.000Z</time>
      </trkpt>
      <trkpt lat="45.45288" lon="4.76781">
        <ele>149</ele>
        <time>2020-03-10T07:17:31.000Z</time>
      </trkpt>
      <trkpt lat="45.4529" lon="4.76782">
        <ele>149</ele>
        <time>2020-03-10T07:17:32.000Z</time>
      </trkpt>
      <trkpt lat="45.45293" lon="4.76783">
        <ele>149</ele>
        <time>2020-03-10T07:17:34.000Z</time>
      </trkpt>
      <trkpt lat="45.45307" lon="4.76788">
        <ele>149.19999694824</ele>
        <time>2020-03-10T07:17:41.000Z</time>
      </trkpt>
      <trkpt lat="45.45311" lon="4.76785">
        <ele>149.19999694824</ele>
        <time>2020-03-10T07:17:42.000Z</time>
      </trkpt>
      <trkpt lat="45.45322" lon="4.76785">
        <ele>148.60000610352</ele>
        <time>2020-03-10T07:17:48.000Z</time>
      </trkpt>
      <trkpt lat="45.45324" lon="4.76786">
        <ele>148.39999389648</ele>
        <time>2020-03-10T07:17:49.000Z</time>
      </trkpt>
      <trkpt lat="45.45331" lon="4.76787">
        <ele>148.39999389648</ele>
        <time>2020-03-10T07:17:52.000Z</time>
      </trkpt>
      <trkpt lat="45.45337" lon="4.76788">
        <ele>148.60000610352</ele>
        <time>2020-03-10T07:17:54.000Z</time>
      </trkpt>
      <trkpt lat="45.45355" lon="4.76793">
        <ele>148.60000610352</ele>
        <time>2020-03-10T07:17:59.000Z</time>
      </trkpt>
      <trkpt lat="45.45362" lon="4.76798">
        <ele>148.39999389648</ele>
        <time>2020-03-10T07:18:02.000Z</time>
      </trkpt>
      <trkpt lat="45.4537" lon="4.76801">
        <ele>148.60000610352</ele>
        <time>2020-03-10T07:18:06.000Z</time>
      </trkpt>
      <trkpt lat="45.45388" lon="4.76803">
        <ele>148.80000305176</ele>
        <time>2020-03-10T07:18:12.000Z</time>
      </trkpt>
      <trkpt lat="45.4539" lon="4.76803">
        <ele>148.80000305176</ele>
        <time>2020-03-10T07:18:13.000Z</time>
      </trkpt>
      <trkpt lat="45.45402" lon="4.76804">
        <ele>149.19999694824</ele>
        <time>2020-03-10T07:18:20.000Z</time>
      </trkpt>
      <trkpt lat="45.45406" lon="4.76806">
        <ele>149.19999694824</ele>
        <time>2020-03-10T07:18:22.000Z</time>
      </trkpt>
      <trkpt lat="45.45422" lon="4.76808">
        <ele>149.19999694824</ele>
        <time>2020-03-10T07:18:28.000Z</time>
      </trkpt>
      <trkpt lat="45.45432" lon="4.76811">
        <ele>149.60000610352</ele>
        <time>2020-03-10T07:18:31.000Z</time>
      </trkpt>
      <trkpt lat="45.45435" lon="4.76812">
        <ele>149.39999389648</ele>
        <time>2020-03-10T07:18:32.000Z</time>
      </trkpt>
      <trkpt lat="45.45443" lon="4.76816">
        <ele>148.80000305176</ele>
        <time>2020-03-10T07:18:35.000Z</time>
      </trkpt>
      <trkpt lat="45.45457" lon="4.76821">
        <ele>148.39999389648</ele>
        <time>2020-03-10T07:18:40.000Z</time>
      </trkpt>
      <trkpt lat="45.45463" lon="4.76822">
        <ele>148.39999389648</ele>
        <time>2020-03-10T07:18:42.000Z</time>
      </trkpt>
      <trkpt lat="45.4547" lon="4.76826">
        <ele>147.60000610352</ele>
        <time>2020-03-10T07:18:46.000Z</time>
      </trkpt>
      <trkpt lat="45.45471" lon="4.76824">
        <ele>147.39999389648</ele>
        <time>2020-03-10T07:18:47.000Z</time>
      </trkpt>
      <trkpt lat="45.45475" lon="4.76822">
        <ele>147.19999694824</ele>
        <time>2020-03-10T07:18:49.000Z</time>
      </trkpt>
      <trkpt lat="45.45477" lon="4.76822">
        <ele>147</ele>
        <time>2020-03-10T07:18:50.000Z</time>
      </trkpt>
      <trkpt lat="45.45482" lon="4.76823">
        <ele>147</ele>
        <time>2020-03-10T07:18:52.000Z</time>
      </trkpt>
      <trkpt lat="45.45489" lon="4.76828">
        <ele>146.60000610352</ele>
        <time>2020-03-10T07:18:56.000Z</time>
      </trkpt>
      <trkpt lat="45.45492" lon="4.76829">
        <ele>146.19999694824</ele>
        <time>2020-03-10T07:18:58.000Z</time>
      </trkpt>
      <trkpt lat="45.45506" lon="4.76829">
        <ele>145.39999389648</ele>
        <time>2020-03-10T07:19:02.000Z</time>
      </trkpt>
      <trkpt lat="45.45509" lon="4.7683">
        <ele>145.39999389648</ele>
        <time>2020-03-10T07:19:03.000Z</time>
      </trkpt>
      <trkpt lat="45.45513" lon="4.76831">
        <ele>145.19999694824</ele>
        <time>2020-03-10T07:19:04.000Z</time>
      </trkpt>
      <trkpt lat="45.45527" lon="4.76834">
        <ele>144</ele>
        <time>2020-03-10T07:19:08.000Z</time>
      </trkpt>
      <trkpt lat="45.45531" lon="4.76834">
        <ele>143.80000305176</ele>
        <time>2020-03-10T07:19:09.000Z</time>
      </trkpt>
      <trkpt lat="45.45539" lon="4.76836">
        <ele>143.60000610352</ele>
        <time>2020-03-10T07:19:12.000Z</time>
      </trkpt>
      <trkpt lat="45.45538" lon="4.76838">
        <ele>143.39999389648</ele>
        <time>2020-03-10T07:19:13.000Z</time>
      </trkpt>
      <trkpt lat="45.45539" lon="4.7684">
        <ele>143</ele>
        <time>2020-03-10T07:19:15.000Z</time>
      </trkpt>
      <trkpt lat="45.45547" lon="4.76844">
        <ele>143</ele>
        <time>2020-03-10T07:19:17.000Z</time>
      </trkpt>
      <trkpt lat="45.45557" lon="4.76843">
        <ele>142.60000610352</ele>
        <time>2020-03-10T07:19:19.000Z</time>
      </trkpt>
      <trkpt lat="45.45565" lon="4.76844">
        <ele>142.60000610352</ele>
        <time>2020-03-10T07:19:22.000Z</time>
      </trkpt>
      <trkpt lat="45.45566" lon="4.76844">
        <ele>142.60000610352</ele>
        <time>2020-03-10T07:19:23.000Z</time>
      </trkpt>
      <trkpt lat="45.45573" lon="4.76852">
        <ele>143.39999389648</ele>
        <time>2020-03-10T07:19:28.000Z</time>
      </trkpt>
      <trkpt lat="45.45576" lon="4.76852">
        <ele>143.39999389648</ele>
        <time>2020-03-10T07:19:29.000Z</time>
      </trkpt>
      <trkpt lat="45.45583" lon="4.76852">
        <ele>143.80000305176</ele>
        <time>2020-03-10T07:19:32.000Z</time>
      </trkpt>
      <trkpt lat="45.45587" lon="4.76852">
        <ele>144</ele>
        <time>2020-03-10T07:19:34.000Z</time>
      </trkpt>
      <trkpt lat="45.45589" lon="4.76852">
        <ele>144.19999694824</ele>
        <time>2020-03-10T07:19:35.000Z</time>
      </trkpt>
      <trkpt lat="45.45602" lon="4.76851">
        <ele>145</ele>
        <time>2020-03-10T07:19:39.000Z</time>
      </trkpt>
      <trkpt lat="45.45606" lon="4.76851">
        <ele>145.19999694824</ele>
        <time>2020-03-10T07:19:41.000Z</time>
      </trkpt>
      <trkpt lat="45.45608" lon="4.76851">
        <ele>145.19999694824</ele>
        <time>2020-03-10T07:19:42.000Z</time>
      </trkpt>
      <trkpt lat="45.45612" lon="4.76853">
        <ele>145.80000305176</ele>
        <time>2020-03-10T07:19:45.000Z</time>
      </trkpt>
      <trkpt lat="45.45613" lon="4.76854">
        <ele>145.80000305176</ele>
        <time>2020-03-10T07:19:46.000Z</time>
      </trkpt>
      <trkpt lat="45.45618" lon="4.76855">
        <ele>146.19999694824</ele>
        <time>2020-03-10T07:19:49.000Z</time>
      </trkpt>
      <trkpt lat="45.45619" lon="4.76855">
        <ele>146.39999389648</ele>
        <time>2020-03-10T07:19:50.000Z</time>
      </trkpt>
      <trkpt lat="45.45621" lon="4.76856">
        <ele>146.39999389648</ele>
        <time>2020-03-10T07:19:51.000Z</time>
      </trkpt>
      <trkpt lat="45.45622" lon="4.76856">
        <ele>146.39999389648</ele>
        <time>2020-03-10T07:19:52.000Z</time>
      </trkpt>
      <trkpt lat="45.45628" lon="4.76858">
        <ele>146.39999389648</ele>
        <time>2020-03-10T07:19:55.000Z</time>
      </trkpt>
      <trkpt lat="45.45638" lon="4.76858">
        <ele>146.39999389648</ele>
        <time>2020-03-10T07:20:00.000Z</time>
      </trkpt>
      <trkpt lat="45.4564" lon="4.76858">
        <ele>146.60000610352</ele>
        <time>2020-03-10T07:20:01.000Z</time>
      </trkpt>
      <trkpt lat="45.45642" lon="4.76858">
        <ele>146.39999389648</ele>
        <time>2020-03-10T07:20:02.000Z</time>
      </trkpt>
      <trkpt lat="45.45643" lon="4.76858">
        <ele>146.80000305176</ele>
        <time>2020-03-10T07:20:03.000Z</time>
      </trkpt>
      <trkpt lat="45.45652" lon="4.76858">
        <ele>147.39999389648</ele>
        <time>2020-03-10T07:20:07.000Z</time>
      </trkpt>
      <trkpt lat="45.45661" lon="4.7686">
        <ele>147.80000305176</ele>
        <time>2020-03-10T07:20:12.000Z</time>
      </trkpt>
      <trkpt lat="45.45671" lon="4.76861">
        <ele>148</ele>
        <time>2020-03-10T07:20:17.000Z</time>
      </trkpt>
      <trkpt lat="45.45682" lon="4.76862">
        <ele>148</ele>
        <time>2020-03-10T07:20:22.000Z</time>
      </trkpt>
      <trkpt lat="45.45687" lon="4.76862">
        <ele>148.19999694824</ele>
        <time>2020-03-10T07:20:24.000Z</time>
      </trkpt>
      <trkpt lat="45.45689" lon="4.76862">
        <ele>148.39999389648</ele>
        <time>2020-03-10T07:20:25.000Z</time>
      </trkpt>
      <trkpt lat="45.45701" lon="4.76863">
        <ele>148.39999389648</ele>
        <time>2020-03-10T07:20:29.000Z</time>
      </trkpt>
      <trkpt lat="45.45709" lon="4.76864">
        <ele>148.39999389648</ele>
        <time>2020-03-10T07:20:32.000Z</time>
      </trkpt>
      <trkpt lat="45.45717" lon="4.76865">
        <ele>148.19999694824</ele>
        <time>2020-03-10T07:20:35.000Z</time>
      </trkpt>
      <trkpt lat="45.45721" lon="4.76865">
        <ele>148</ele>
        <time>2020-03-10T07:20:37.000Z</time>
      </trkpt>
      <trkpt lat="45.45731" lon="4.76865">
        <ele>147.80000305176</ele>
        <time>2020-03-10T07:20:41.000Z</time>
      </trkpt>
      <trkpt lat="45.45734" lon="4.76866">
        <ele>147.80000305176</ele>
        <time>2020-03-10T07:20:42.000Z</time>
      </trkpt>
      <trkpt lat="45.4574" lon="4.76866">
        <ele>147.60000610352</ele>
        <time>2020-03-10T07:20:45.000Z</time>
      </trkpt>
      <trkpt lat="45.45745" lon="4.76866">
        <ele>147.39999389648</ele>
        <time>2020-03-10T07:20:48.000Z</time>
      </trkpt>
      <trkpt lat="45.45749" lon="4.76866">
        <ele>147</ele>
        <time>2020-03-10T07:20:50.000Z</time>
      </trkpt>
      <trkpt lat="45.4575" lon="4.76866">
        <ele>146.80000305176</ele>
        <time>2020-03-10T07:20:51.000Z</time>
      </trkpt>
      <trkpt lat="45.45752" lon="4.76867">
        <ele>146.80000305176</ele>
        <time>2020-03-10T07:20:52.000Z</time>
      </trkpt>
      <trkpt lat="45.45759" lon="4.76868">
        <ele>146.19999694824</ele>
        <time>2020-03-10T07:20:55.000Z</time>
      </trkpt>
      <trkpt lat="45.45764" lon="4.76868">
        <ele>146.19999694824</ele>
        <time>2020-03-10T07:20:57.000Z</time>
      </trkpt>
      <trkpt lat="45.45775" lon="4.76869">
        <ele>145.39999389648</ele>
        <time>2020-03-10T07:21:02.000Z</time>
      </trkpt>
      <trkpt lat="45.45778" lon="4.76869">
        <ele>145.39999389648</ele>
        <time>2020-03-10T07:21:03.000Z</time>
      </trkpt>
      <trkpt lat="45.45784" lon="4.76869">
        <ele>145.19999694824</ele>
        <time>2020-03-10T07:21:05.000Z</time>
      </trkpt>
      <trkpt lat="45.45795" lon="4.76869">
        <ele>144.80000305176</ele>
        <time>2020-03-10T07:21:09.000Z</time>
      </trkpt>
      <trkpt lat="45.45804" lon="4.76866">
        <ele>144.39999389648</ele>
        <time>2020-03-10T07:21:12.000Z</time>
      </trkpt>
      <trkpt lat="45.4581" lon="4.76864">
        <ele>144</ele>
        <time>2020-03-10T07:21:14.000Z</time>
      </trkpt>
      <trkpt lat="45.45823" lon="4.76857">
        <ele>142.80000305176</ele>
        <time>2020-03-10T07:21:21.000Z</time>
      </trkpt>
      <trkpt lat="45.45826" lon="4.76855">
        <ele>142.60000610352</ele>
        <time>2020-03-10T07:21:22.000Z</time>
      </trkpt>
      <trkpt lat="45.45836" lon="4.76848">
        <ele>142.19999694824</ele>
        <time>2020-03-10T07:21:25.000Z</time>
      </trkpt>
      <trkpt lat="45.45845" lon="4.76843">
        <ele>142</ele>
        <time>2020-03-10T07:21:28.000Z</time>
      </trkpt>
      <trkpt lat="45.45857" lon="4.76838">
        <ele>142.19999694824</ele>
        <time>2020-03-10T07:21:32.000Z</time>
      </trkpt>
      <trkpt lat="45.4587" lon="4.76833">
        <ele>142</ele>
        <time>2020-03-10T07:21:36.000Z</time>
      </trkpt>
      <trkpt lat="45.45885" lon="4.76826">
        <ele>142.19999694824</ele>
        <time>2020-03-10T07:21:42.000Z</time>
      </trkpt>
      <trkpt lat="45.45903" lon="4.76821">
        <ele>142</ele>
        <time>2020-03-10T07:21:49.000Z</time>
      </trkpt>
      <trkpt lat="45.45907" lon="4.76822">
        <ele>142.19999694824</ele>
        <time>2020-03-10T07:21:51.000Z</time>
      </trkpt>
      <trkpt lat="45.4591" lon="4.76822">
        <ele>142.19999694824</ele>
        <time>2020-03-10T07:21:52.000Z</time>
      </trkpt>
      <trkpt lat="45.45915" lon="4.76823">
        <ele>142</ele>
        <time>2020-03-10T07:21:54.000Z</time>
      </trkpt>
      <trkpt lat="45.45931" lon="4.76822">
        <ele>142.19999694824</ele>
        <time>2020-03-10T07:21:59.000Z</time>
      </trkpt>
      <trkpt lat="45.4594" lon="4.76824">
        <ele>142</ele>
        <time>2020-03-10T07:22:02.000Z</time>
      </trkpt>
      <trkpt lat="45.45948" lon="4.76826">
        <ele>141.60000610352</ele>
        <time>2020-03-10T07:22:05.000Z</time>
      </trkpt>
      <trkpt lat="45.45951" lon="4.76827">
        <ele>141.60000610352</ele>
        <time>2020-03-10T07:22:06.000Z</time>
      </trkpt>
      <trkpt lat="45.45963" lon="4.76838">
        <ele>141.60000610352</ele>
        <time>2020-03-10T07:22:12.000Z</time>
      </trkpt>
      <trkpt lat="45.45964" lon="4.7684">
        <ele>141.60000610352</ele>
        <time>2020-03-10T07:22:13.000Z</time>
      </trkpt>
      <trkpt lat="45.45976" lon="4.76852">
        <ele>141.80000305176</ele>
        <time>2020-03-10T07:22:20.000Z</time>
      </trkpt>
      <trkpt lat="45.4598" lon="4.76856">
        <ele>141.80000305176</ele>
        <time>2020-03-10T07:22:22.000Z</time>
      </trkpt>
      <trkpt lat="45.45987" lon="4.76866">
        <ele>141.60000610352</ele>
        <time>2020-03-10T07:22:26.000Z</time>
      </trkpt>
      <trkpt lat="45.45993" lon="4.76881">
        <ele>141.80000305176</ele>
        <time>2020-03-10T07:22:32.000Z</time>
      </trkpt>
      <trkpt lat="45.46" lon="4.76889">
        <ele>141.80000305176</ele>
        <time>2020-03-10T07:22:37.000Z</time>
      </trkpt>
      <trkpt lat="45.46014" lon="4.7689">
        <ele>141.80000305176</ele>
        <time>2020-03-10T07:22:42.000Z</time>
      </trkpt>
      <trkpt lat="45.46028" lon="4.76887">
        <ele>141.60000610352</ele>
        <time>2020-03-10T07:22:47.000Z</time>
      </trkpt>
      <trkpt lat="45.46042" lon="4.76882">
        <ele>141.19999694824</ele>
        <time>2020-03-10T07:22:52.000Z</time>
      </trkpt>
      <trkpt lat="45.46044" lon="4.76881">
        <ele>141.19999694824</ele>
        <time>2020-03-10T07:22:53.000Z</time>
      </trkpt>
      <trkpt lat="45.46051" lon="4.76883">
        <ele>141.19999694824</ele>
        <time>2020-03-10T07:22:57.000Z</time>
      </trkpt>
      <trkpt lat="45.46053" lon="4.76883">
        <ele>141.19999694824</ele>
        <time>2020-03-10T07:22:58.000Z</time>
      </trkpt>
      <trkpt lat="45.46057" lon="4.7688">
        <ele>141</ele>
        <time>2020-03-10T07:23:02.000Z</time>
      </trkpt>
      <trkpt lat="45.46058" lon="4.76878">
        <ele>141.19999694824</ele>
        <time>2020-03-10T07:23:03.000Z</time>
      </trkpt>
      <trkpt lat="45.46077" lon="4.7688">
        <ele>141</ele>
        <time>2020-03-10T07:23:06.000Z</time>
      </trkpt>
      <trkpt lat="45.46082" lon="4.76877">
        <ele>141</ele>
        <time>2020-03-10T07:23:07.000Z</time>
      </trkpt>
      <trkpt lat="45.46098" lon="4.76872">
        <ele>141.39999389648</ele>
        <time>2020-03-10T07:23:11.000Z</time>
      </trkpt>
      <trkpt lat="45.461" lon="4.7687">
        <ele>141.19999694824</ele>
        <time>2020-03-10T07:23:12.000Z</time>
      </trkpt>
      <trkpt lat="45.4611" lon="4.76866">
        <ele>142.19999694824</ele>
        <time>2020-03-10T07:23:17.000Z</time>
      </trkpt>
      <trkpt lat="45.46116" lon="4.76856">
        <ele>142.39999389648</ele>
        <time>2020-03-10T07:23:22.000Z</time>
      </trkpt>
      <trkpt lat="45.46117" lon="4.76854">
        <ele>142.60000610352</ele>
        <time>2020-03-10T07:23:23.000Z</time>
      </trkpt>
      <trkpt lat="45.46124" lon="4.76853">
        <ele>142.60000610352</ele>
        <time>2020-03-10T07:23:26.000Z</time>
      </trkpt>
      <trkpt lat="45.46126" lon="4.76854">
        <ele>142.60000610352</ele>
        <time>2020-03-10T07:23:27.000Z</time>
      </trkpt>
      <trkpt lat="45.46133" lon="4.76864">
        <ele>143</ele>
        <time>2020-03-10T07:23:31.000Z</time>
      </trkpt>
      <trkpt lat="45.46135" lon="4.76864">
        <ele>143.19999694824</ele>
        <time>2020-03-10T07:23:32.000Z</time>
      </trkpt>
      <trkpt lat="45.46144" lon="4.76856">
        <ele>143.19999694824</ele>
        <time>2020-03-10T07:23:37.000Z</time>
      </trkpt>
      <trkpt lat="45.46145" lon="4.76854">
        <ele>143</ele>
        <time>2020-03-10T07:23:38.000Z</time>
      </trkpt>
      <trkpt lat="45.46152" lon="4.76845">
        <ele>143</ele>
        <time>2020-03-10T07:23:42.000Z</time>
      </trkpt>
      <trkpt lat="45.46153" lon="4.76843">
        <ele>143</ele>
        <time>2020-03-10T07:23:43.000Z</time>
      </trkpt>
      <trkpt lat="45.46164" lon="4.76836">
        <ele>142.80000305176</ele>
        <time>2020-03-10T07:23:49.000Z</time>
      </trkpt>
      <trkpt lat="45.46171" lon="4.76836">
        <ele>143.19999694824</ele>
        <time>2020-03-10T07:23:52.000Z</time>
      </trkpt>
      <trkpt lat="45.46176" lon="4.76831">
        <ele>143.39999389648</ele>
        <time>2020-03-10T07:23:56.000Z</time>
      </trkpt>
      <trkpt lat="45.46176" lon="4.76829">
        <ele>143.39999389648</ele>
        <time>2020-03-10T07:23:57.000Z</time>
      </trkpt>
      <trkpt lat="45.46177" lon="4.7683">
        <ele>143</ele>
        <time>2020-03-10T07:23:59.000Z</time>
      </trkpt>
      <trkpt lat="45.46178" lon="4.76834">
        <ele>143</ele>
        <time>2020-03-10T07:24:01.000Z</time>
      </trkpt>
      <trkpt lat="45.4618" lon="4.76836">
        <ele>143</ele>
        <time>2020-03-10T07:24:02.000Z</time>
      </trkpt>
      <trkpt lat="45.46189" lon="4.76847">
        <ele>142.80000305176</ele>
        <time>2020-03-10T07:24:07.000Z</time>
      </trkpt>
      <trkpt lat="45.46191" lon="4.76851">
        <ele>142.80000305176</ele>
        <time>2020-03-10T07:24:09.000Z</time>
      </trkpt>
      <trkpt lat="45.46196" lon="4.76856">
        <ele>142.60000610352</ele>
        <time>2020-03-10T07:24:12.000Z</time>
      </trkpt>
      <trkpt lat="45.46198" lon="4.76857">
        <ele>142.39999389648</ele>
        <time>2020-03-10T07:24:13.000Z</time>
      </trkpt>
      <trkpt lat="45.46205" lon="4.76863">
        <ele>142.19999694824</ele>
        <time>2020-03-10T07:24:16.000Z</time>
      </trkpt>
      <trkpt lat="45.46207" lon="4.76867">
        <ele>142</ele>
        <time>2020-03-10T07:24:17.000Z</time>
      </trkpt>
      <trkpt lat="45.46217" lon="4.76875">
        <ele>141.80000305176</ele>
        <time>2020-03-10T07:24:22.000Z</time>
      </trkpt>
      <trkpt lat="45.46232" lon="4.7688">
        <ele>142.19999694824</ele>
        <time>2020-03-10T07:24:27.000Z</time>
      </trkpt>
      <trkpt lat="45.46241" lon="4.76884">
        <ele>141.80000305176</ele>
        <time>2020-03-10T07:24:30.000Z</time>
      </trkpt>
      <trkpt lat="45.46243" lon="4.76885">
        <ele>141.60000610352</ele>
        <time>2020-03-10T07:24:32.000Z</time>
      </trkpt>
      <trkpt lat="45.46239" lon="4.76882">
        <ele>141.80000305176</ele>
        <time>2020-03-10T07:24:37.000Z</time>
      </trkpt>
      <trkpt lat="45.46243" lon="4.7688">
        <ele>141.80000305176</ele>
        <time>2020-03-10T07:24:40.000Z</time>
      </trkpt>
      <trkpt lat="45.46245" lon="4.76882">
        <ele>141.80000305176</ele>
        <time>2020-03-10T07:24:42.000Z</time>
      </trkpt>
      <trkpt lat="45.46247" lon="4.76885">
        <ele>142</ele>
        <time>2020-03-10T07:24:44.000Z</time>
      </trkpt>
      <trkpt lat="45.46255" lon="4.76888">
        <ele>141.19999694824</ele>
        <time>2020-03-10T07:24:47.000Z</time>
      </trkpt>
      <trkpt lat="45.4627" lon="4.76895">
        <ele>141.39999389648</ele>
        <time>2020-03-10T07:24:52.000Z</time>
      </trkpt>
      <trkpt lat="45.46271" lon="4.76898">
        <ele>141.19999694824</ele>
        <time>2020-03-10T07:24:53.000Z</time>
      </trkpt>
      <trkpt lat="45.4628" lon="4.76904">
        <ele>141.19999694824</ele>
        <time>2020-03-10T07:24:56.000Z</time>
      </trkpt>
      <trkpt lat="45.46299" lon="4.76898">
        <ele>141</ele>
        <time>2020-03-10T07:24:58.000Z</time>
      </trkpt>
      <trkpt lat="45.46297" lon="4.76905">
        <ele>140.80000305176</ele>
        <time>2020-03-10T07:24:59.000Z</time>
      </trkpt>
      <trkpt lat="45.46301" lon="4.7691">
        <ele>141</ele>
        <time>2020-03-10T07:25:01.000Z</time>
      </trkpt>
      <trkpt lat="45.46299" lon="4.76913">
        <ele>141</ele>
        <time>2020-03-10T07:25:02.000Z</time>
      </trkpt>
      <trkpt lat="45.46296" lon="4.76921">
        <ele>141.19999694824</ele>
        <time>2020-03-10T07:25:04.000Z</time>
      </trkpt>
      <trkpt lat="45.46299" lon="4.76921">
        <ele>141.19999694824</ele>
        <time>2020-03-10T07:25:05.000Z</time>
      </trkpt>
      <trkpt lat="45.46311" lon="4.7692">
        <ele>141.19999694824</ele>
        <time>2020-03-10T07:25:10.000Z</time>
      </trkpt>
      <trkpt lat="45.46316" lon="4.76917">
        <ele>141</ele>
        <time>2020-03-10T07:25:12.000Z</time>
      </trkpt>
      <trkpt lat="45.4632" lon="4.76917">
        <ele>140.80000305176</ele>
        <time>2020-03-10T07:25:14.000Z</time>
      </trkpt>
      <trkpt lat="45.46329" lon="4.76908">
        <ele>141</ele>
        <time>2020-03-10T07:25:19.000Z</time>
      </trkpt>
      <trkpt lat="45.46331" lon="4.76902">
        <ele>141.39999389648</ele>
        <time>2020-03-10T07:25:22.000Z</time>
      </trkpt>
      <trkpt lat="45.46335" lon="4.76893">
        <ele>141.39999389648</ele>
        <time>2020-03-10T07:25:26.000Z</time>
      </trkpt>
      <trkpt lat="45.46337" lon="4.76885">
        <ele>141.80000305176</ele>
        <time>2020-03-10T07:25:29.000Z</time>
      </trkpt>
      <trkpt lat="45.46341" lon="4.76878">
        <ele>141.39999389648</ele>
        <time>2020-03-10T07:25:32.000Z</time>
      </trkpt>
      <trkpt lat="45.46343" lon="4.76875">
        <ele>141.60000610352</ele>
        <time>2020-03-10T07:25:33.000Z</time>
      </trkpt>
      <trkpt lat="45.46349" lon="4.76863">
        <ele>141.39999389648</ele>
        <time>2020-03-10T07:25:37.000Z</time>
      </trkpt>
      <trkpt lat="45.4635" lon="4.76858">
        <ele>141.39999389648</ele>
        <time>2020-03-10T07:25:39.000Z</time>
      </trkpt>
      <trkpt lat="45.46349" lon="4.76851">
        <ele>141.39999389648</ele>
        <time>2020-03-10T07:25:41.000Z</time>
      </trkpt>
      <trkpt lat="45.46348" lon="4.76847">
        <ele>141.60000610352</ele>
        <time>2020-03-10T07:25:42.000Z</time>
      </trkpt>
      <trkpt lat="45.46348" lon="4.76828">
        <ele>141.80000305176</ele>
        <time>2020-03-10T07:25:47.000Z</time>
      </trkpt>
      <trkpt lat="45.46356" lon="4.76816">
        <ele>142</ele>
        <time>2020-03-10T07:25:52.000Z</time>
      </trkpt>
      <trkpt lat="45.46361" lon="4.76805">
        <ele>142.80000305176</ele>
        <time>2020-03-10T07:25:57.000Z</time>
      </trkpt>
      <trkpt lat="45.46363" lon="4.76802">
        <ele>142.80000305176</ele>
        <time>2020-03-10T07:25:58.000Z</time>
      </trkpt>
      <trkpt lat="45.46364" lon="4.76793">
        <ele>143.19999694824</ele>
        <time>2020-03-10T07:26:02.000Z</time>
      </trkpt>
      <trkpt lat="45.46366" lon="4.76791">
        <ele>143.19999694824</ele>
        <time>2020-03-10T07:26:03.000Z</time>
      </trkpt>
      <trkpt lat="45.46364" lon="4.76789">
        <ele>143.39999389648</ele>
        <time>2020-03-10T07:26:05.000Z</time>
      </trkpt>
      <trkpt lat="45.46362" lon="4.76784">
        <ele>144</ele>
        <time>2020-03-10T07:26:07.000Z</time>
      </trkpt>
      <trkpt lat="45.4636" lon="4.76784">
        <ele>144</ele>
        <time>2020-03-10T07:26:08.000Z</time>
      </trkpt>
      <trkpt lat="45.4636" lon="4.76778">
        <ele>144.19999694824</ele>
        <time>2020-03-10T07:26:11.000Z</time>
      </trkpt>
      <trkpt lat="45.46361" lon="4.76776">
        <ele>144.39999389648</ele>
        <time>2020-03-10T07:26:12.000Z</time>
      </trkpt>
      <trkpt lat="45.46361" lon="4.76773">
        <ele>144.39999389648</ele>
        <time>2020-03-10T07:26:13.000Z</time>
      </trkpt>
      <trkpt lat="45.46385" lon="4.76761">
        <ele>144.80000305176</ele>
        <time>2020-03-10T07:26:16.000Z</time>
      </trkpt>
      <trkpt lat="45.46389" lon="4.76758">
        <ele>144.80000305176</ele>
        <time>2020-03-10T07:26:17.000Z</time>
      </trkpt>
      <trkpt lat="45.46394" lon="4.76755">
        <ele>145</ele>
        <time>2020-03-10T07:26:18.000Z</time>
      </trkpt>
      <trkpt lat="45.46397" lon="4.76747">
        <ele>145.80000305176</ele>
        <time>2020-03-10T07:26:22.000Z</time>
      </trkpt>
      <trkpt lat="45.46398" lon="4.76744">
        <ele>145.80000305176</ele>
        <time>2020-03-10T07:26:23.000Z</time>
      </trkpt>
      <trkpt lat="45.46397" lon="4.7674">
        <ele>146</ele>
        <time>2020-03-10T07:26:26.000Z</time>
      </trkpt>
      <trkpt lat="45.46402" lon="4.76731">
        <ele>146.60000610352</ele>
        <time>2020-03-10T07:26:28.000Z</time>
      </trkpt>
      <trkpt lat="45.46401" lon="4.76728">
        <ele>146.80000305176</ele>
        <time>2020-03-10T07:26:29.000Z</time>
      </trkpt>
      <trkpt lat="45.46402" lon="4.76725">
        <ele>147.19999694824</ele>
        <time>2020-03-10T07:26:30.000Z</time>
      </trkpt>
      <trkpt lat="45.46402" lon="4.76721">
        <ele>147.39999389648</ele>
        <time>2020-03-10T07:26:32.000Z</time>
      </trkpt>
      <trkpt lat="45.46396" lon="4.76713">
        <ele>148.19999694824</ele>
        <time>2020-03-10T07:26:37.000Z</time>
      </trkpt>
      <trkpt lat="45.46395" lon="4.7671">
        <ele>148.39999389648</ele>
        <time>2020-03-10T07:26:38.000Z</time>
      </trkpt>
      <trkpt lat="45.46392" lon="4.76703">
        <ele>149.39999389648</ele>
        <time>2020-03-10T07:26:41.000Z</time>
      </trkpt>
      <trkpt lat="45.46392" lon="4.76703">
        <ele>149.60000610352</ele>
        <time>2020-03-10T07:26:42.000Z</time>
      </trkpt>
      <trkpt lat="45.46391" lon="4.76702">
        <ele>149.80000305176</ele>
        <time>2020-03-10T07:26:43.000Z</time>
      </trkpt>
      <trkpt lat="45.46391" lon="4.76699">
        <ele>149.80000305176</ele>
        <time>2020-03-10T07:26:44.000Z</time>
      </trkpt>
      <trkpt lat="45.46387" lon="4.76688">
        <ele>150.19999694824</ele>
        <time>2020-03-10T07:26:48.000Z</time>
      </trkpt>
      <trkpt lat="45.46387" lon="4.76685">
        <ele>150.60000610352</ele>
        <time>2020-03-10T07:26:49.000Z</time>
      </trkpt>
      <trkpt lat="45.46388" lon="4.76679">
        <ele>150.80000305176</ele>
        <time>2020-03-10T07:26:52.000Z</time>
      </trkpt>
      <trkpt lat="45.46393" lon="4.7667">
        <ele>151.19999694824</ele>
        <time>2020-03-10T07:26:56.000Z</time>
      </trkpt>
      <trkpt lat="45.46396" lon="4.76664">
        <ele>151.80000305176</ele>
        <time>2020-03-10T07:26:58.000Z</time>
      </trkpt>
      <trkpt lat="45.464" lon="4.7666">
        <ele>152.19999694824</ele>
        <time>2020-03-10T07:27:00.000Z</time>
      </trkpt>
      <trkpt lat="45.46404" lon="4.76655">
        <ele>152.80000305176</ele>
        <time>2020-03-10T07:27:02.000Z</time>
      </trkpt>
      <trkpt lat="45.46406" lon="4.76653">
        <ele>153</ele>
        <time>2020-03-10T07:27:03.000Z</time>
      </trkpt>
      <trkpt lat="45.46415" lon="4.76643">
        <ele>153.80000305176</ele>
        <time>2020-03-10T07:27:07.000Z</time>
      </trkpt>
      <trkpt lat="45.46419" lon="4.7664">
        <ele>154.19999694824</ele>
        <time>2020-03-10T07:27:09.000Z</time>
      </trkpt>
      <trkpt lat="45.46422" lon="4.76632">
        <ele>155</ele>
        <time>2020-03-10T07:27:12.000Z</time>
      </trkpt>
      <trkpt lat="45.46427" lon="4.76625">
        <ele>155.60000610352</ele>
        <time>2020-03-10T07:27:15.000Z</time>
      </trkpt>
      <trkpt lat="45.46424" lon="4.76621">
        <ele>155.60000610352</ele>
        <time>2020-03-10T07:27:16.000Z</time>
      </trkpt>
      <trkpt lat="45.46425" lon="4.766">
        <ele>154.39999389648</ele>
        <time>2020-03-10T07:27:22.000Z</time>
      </trkpt>
      <trkpt lat="45.46425" lon="4.76596">
        <ele>154</ele>
        <time>2020-03-10T07:27:23.000Z</time>
      </trkpt>
      <trkpt lat="45.46428" lon="4.7659">
        <ele>153.39999389648</ele>
        <time>2020-03-10T07:27:25.000Z</time>
      </trkpt>
      <trkpt lat="45.4643" lon="4.76582">
        <ele>152.80000305176</ele>
        <time>2020-03-10T07:27:27.000Z</time>
      </trkpt>
      <trkpt lat="45.46431" lon="4.7658">
        <ele>152.39999389648</ele>
        <time>2020-03-10T07:27:28.000Z</time>
      </trkpt>
      <trkpt lat="45.46435" lon="4.76571">
        <ele>151.60000610352</ele>
        <time>2020-03-10T07:27:31.000Z</time>
      </trkpt>
      <trkpt lat="45.46436" lon="4.76568">
        <ele>151.39999389648</ele>
        <time>2020-03-10T07:27:32.000Z</time>
      </trkpt>
      <trkpt lat="45.46439" lon="4.76561">
        <ele>151.19999694824</ele>
        <time>2020-03-10T07:27:35.000Z</time>
      </trkpt>
      <trkpt lat="45.46446" lon="4.76546">
        <ele>151.19999694824</ele>
        <time>2020-03-10T07:27:41.000Z</time>
      </trkpt>
      <trkpt lat="45.46448" lon="4.76544">
        <ele>151.39999389648</ele>
        <time>2020-03-10T07:27:42.000Z</time>
      </trkpt>
      <trkpt lat="45.46454" lon="4.76537">
        <ele>151.80000305176</ele>
        <time>2020-03-10T07:27:46.000Z</time>
      </trkpt>
      <trkpt lat="45.46458" lon="4.76528">
        <ele>152.19999694824</ele>
        <time>2020-03-10T07:27:50.000Z</time>
      </trkpt>
      <trkpt lat="45.46457" lon="4.76522">
        <ele>152.19999694824</ele>
        <time>2020-03-10T07:27:51.000Z</time>
      </trkpt>
      <trkpt lat="45.46458" lon="4.76518">
        <ele>152</ele>
        <time>2020-03-10T07:27:52.000Z</time>
      </trkpt>
      <trkpt lat="45.46468" lon="4.76499">
        <ele>152.19999694824</ele>
        <time>2020-03-10T07:27:56.000Z</time>
      </trkpt>
      <trkpt lat="45.46471" lon="4.76494">
        <ele>152.19999694824</ele>
        <time>2020-03-10T07:27:57.000Z</time>
      </trkpt>
      <trkpt lat="45.46476" lon="4.76479">
        <ele>152.60000610352</ele>
        <time>2020-03-10T07:28:01.000Z</time>
      </trkpt>
      <trkpt lat="45.46477" lon="4.76477">
        <ele>152.60000610352</ele>
        <time>2020-03-10T07:28:02.000Z</time>
      </trkpt>
      <trkpt lat="45.46485" lon="4.7647">
        <ele>152.80000305176</ele>
        <time>2020-03-10T07:28:06.000Z</time>
      </trkpt>
      <trkpt lat="45.46487" lon="4.76469">
        <ele>152.80000305176</ele>
        <time>2020-03-10T07:28:07.000Z</time>
      </trkpt>
      <trkpt lat="45.46496" lon="4.76461">
        <ele>153.19999694824</ele>
        <time>2020-03-10T07:28:12.000Z</time>
      </trkpt>
      <trkpt lat="45.46505" lon="4.76454">
        <ele>153.80000305176</ele>
        <time>2020-03-10T07:28:17.000Z</time>
      </trkpt>
      <trkpt lat="45.46507" lon="4.76453">
        <ele>153.80000305176</ele>
        <time>2020-03-10T07:28:18.000Z</time>
      </trkpt>
      <trkpt lat="45.46515" lon="4.76447">
        <ele>153.80000305176</ele>
        <time>2020-03-10T07:28:22.000Z</time>
      </trkpt>
      <trkpt lat="45.46524" lon="4.76443">
        <ele>154</ele>
        <time>2020-03-10T07:28:26.000Z</time>
      </trkpt>
      <trkpt lat="45.46538" lon="4.76437">
        <ele>154.80000305176</ele>
        <time>2020-03-10T07:28:32.000Z</time>
      </trkpt>
      <trkpt lat="45.4654" lon="4.76436">
        <ele>154.80000305176</ele>
        <time>2020-03-10T07:28:33.000Z</time>
      </trkpt>
      <trkpt lat="45.46546" lon="4.76433">
        <ele>155</ele>
        <time>2020-03-10T07:28:35.000Z</time>
      </trkpt>
      <trkpt lat="45.46556" lon="4.76428">
        <ele>155.39999389648</ele>
        <time>2020-03-10T07:28:39.000Z</time>
      </trkpt>
      <trkpt lat="45.4656" lon="4.76423">
        <ele>156</ele>
        <time>2020-03-10T07:28:42.000Z</time>
      </trkpt>
      <trkpt lat="45.46563" lon="4.76419">
        <ele>156.19999694824</ele>
        <time>2020-03-10T07:28:45.000Z</time>
      </trkpt>
      <trkpt lat="45.46571" lon="4.76415">
        <ele>156.39999389648</ele>
        <time>2020-03-10T07:28:50.000Z</time>
      </trkpt>
      <trkpt lat="45.46573" lon="4.76413">
        <ele>156.60000610352</ele>
        <time>2020-03-10T07:28:52.000Z</time>
      </trkpt>
      <trkpt lat="45.46575" lon="4.76413">
        <ele>157</ele>
        <time>2020-03-10T07:28:54.000Z</time>
      </trkpt>
      <trkpt lat="45.46576" lon="4.76412">
        <ele>157</ele>
        <time>2020-03-10T07:28:55.000Z</time>
      </trkpt>
      <trkpt lat="45.46576" lon="4.76411">
        <ele>157.19999694824</ele>
        <time>2020-03-10T07:28:56.000Z</time>
      </trkpt>
      <trkpt lat="45.4659" lon="4.7641">
        <ele>158.19999694824</ele>
        <time>2020-03-10T07:29:01.000Z</time>
      </trkpt>
      <trkpt lat="45.46594" lon="4.76411">
        <ele>158.39999389648</ele>
        <time>2020-03-10T07:29:02.000Z</time>
      </trkpt>
      <trkpt lat="45.46602" lon="4.76415">
        <ele>158.80000305176</ele>
        <time>2020-03-10T07:29:07.000Z</time>
      </trkpt>
      <trkpt lat="45.46606" lon="4.76416">
        <ele>159.19999694824</ele>
        <time>2020-03-10T07:29:09.000Z</time>
      </trkpt>
      <trkpt lat="45.46612" lon="4.76421">
        <ele>159.19999694824</ele>
        <time>2020-03-10T07:29:12.000Z</time>
      </trkpt>
      <trkpt lat="45.46615" lon="4.76422">
        <ele>159.39999389648</ele>
        <time>2020-03-10T07:29:13.000Z</time>
      </trkpt>
      <trkpt lat="45.4663" lon="4.76437">
        <ele>159.60000610352</ele>
        <time>2020-03-10T07:29:19.000Z</time>
      </trkpt>
      <trkpt lat="45.46629" lon="4.76441">
        <ele>159.60000610352</ele>
        <time>2020-03-10T07:29:20.000Z</time>
      </trkpt>
      <trkpt lat="45.46631" lon="4.76446">
        <ele>159.60000610352</ele>
        <time>2020-03-10T07:29:22.000Z</time>
      </trkpt>
      <trkpt lat="45.46623" lon="4.76461">
        <ele>159.80000305176</ele>
        <time>2020-03-10T07:29:26.000Z</time>
      </trkpt>
      <trkpt lat="45.46622" lon="4.76464">
        <ele>159.80000305176</ele>
        <time>2020-03-10T07:29:27.000Z</time>
      </trkpt>
      <trkpt lat="45.46617" lon="4.76477">
        <ele>160.19999694824</ele>
        <time>2020-03-10T07:29:30.000Z</time>
      </trkpt>
      <trkpt lat="45.46617" lon="4.7648">
        <ele>160.19999694824</ele>
        <time>2020-03-10T07:29:31.000Z</time>
      </trkpt>
      <trkpt lat="45.46616" lon="4.76484">
        <ele>160.19999694824</ele>
        <time>2020-03-10T07:29:32.000Z</time>
      </trkpt>
      <trkpt lat="45.46615" lon="4.76496">
        <ele>160.60000610352</ele>
        <time>2020-03-10T07:29:36.000Z</time>
      </trkpt>
      <trkpt lat="45.46621" lon="4.76509">
        <ele>160.80000305176</ele>
        <time>2020-03-10T07:29:41.000Z</time>
      </trkpt>
      <trkpt lat="45.46627" lon="4.76512">
        <ele>161</ele>
        <time>2020-03-10T07:29:42.000Z</time>
      </trkpt>
      <trkpt lat="45.4663" lon="4.76517">
        <ele>161.19999694824</ele>
        <time>2020-03-10T07:29:44.000Z</time>
      </trkpt>
      <trkpt lat="45.46632" lon="4.76518">
        <ele>161.19999694824</ele>
        <time>2020-03-10T07:29:45.000Z</time>
      </trkpt>
      <trkpt lat="45.46644" lon="4.7652">
        <ele>161.60000610352</ele>
        <time>2020-03-10T07:29:50.000Z</time>
      </trkpt>
      <trkpt lat="45.4665" lon="4.76519">
        <ele>161.60000610352</ele>
        <time>2020-03-10T07:29:52.000Z</time>
      </trkpt>
      <trkpt lat="45.4666" lon="4.76512">
        <ele>162</ele>
        <time>2020-03-10T07:29:58.000Z</time>
      </trkpt>
      <trkpt lat="45.46664" lon="4.76507">
        <ele>162.39999389648</ele>
        <time>2020-03-10T07:30:01.000Z</time>
      </trkpt>
      <trkpt lat="45.46665" lon="4.76506">
        <ele>162.60000610352</ele>
        <time>2020-03-10T07:30:02.000Z</time>
      </trkpt>
      <trkpt lat="45.4667" lon="4.76503">
        <ele>163</ele>
        <time>2020-03-10T07:30:05.000Z</time>
      </trkpt>
      <trkpt lat="45.46677" lon="4.76507">
        <ele>163.19999694824</ele>
        <time>2020-03-10T07:30:09.000Z</time>
      </trkpt>
      <trkpt lat="45.46682" lon="4.76503">
        <ele>162.80000305176</ele>
        <time>2020-03-10T07:30:12.000Z</time>
      </trkpt>
      <trkpt lat="45.46687" lon="4.76501">
        <ele>163</ele>
        <time>2020-03-10T07:30:14.000Z</time>
      </trkpt>
      <trkpt lat="45.46703" lon="4.76497">
        <ele>163.39999389648</ele>
        <time>2020-03-10T07:30:21.000Z</time>
      </trkpt>
      <trkpt lat="45.46707" lon="4.76495">
        <ele>163.60000610352</ele>
        <time>2020-03-10T07:30:22.000Z</time>
      </trkpt>
      <trkpt lat="45.46716" lon="4.76492">
        <ele>163.80000305176</ele>
        <time>2020-03-10T07:30:26.000Z</time>
      </trkpt>
      <trkpt lat="45.46721" lon="4.7649">
        <ele>164.19999694824</ele>
        <time>2020-03-10T07:30:29.000Z</time>
      </trkpt>
      <trkpt lat="45.46725" lon="4.76489">
        <ele>164.60000610352</ele>
        <time>2020-03-10T07:30:31.000Z</time>
      </trkpt>
      <trkpt lat="45.46727" lon="4.76487">
        <ele>164.80000305176</ele>
        <time>2020-03-10T07:30:32.000Z</time>
      </trkpt>
      <trkpt lat="45.46732" lon="4.76486">
        <ele>164.80000305176</ele>
        <time>2020-03-10T07:30:35.000Z</time>
      </trkpt>
      <trkpt lat="45.46738" lon="4.76485">
        <ele>165</ele>
        <time>2020-03-10T07:30:37.000Z</time>
      </trkpt>
      <trkpt lat="45.46742" lon="4.76482">
        <ele>165.19999694824</ele>
        <time>2020-03-10T07:30:39.000Z</time>
      </trkpt>
      <trkpt lat="45.46746" lon="4.76479">
        <ele>165.80000305176</ele>
        <time>2020-03-10T07:30:41.000Z</time>
      </trkpt>
      <trkpt lat="45.46748" lon="4.76477">
        <ele>166</ele>
        <time>2020-03-10T07:30:42.000Z</time>
      </trkpt>
      <trkpt lat="45.46753" lon="4.76474">
        <ele>166.39999389648</ele>
        <time>2020-03-10T07:30:45.000Z</time>
      </trkpt>
      <trkpt lat="45.46755" lon="4.76472">
        <ele>166.39999389648</ele>
        <time>2020-03-10T07:30:46.000Z</time>
      </trkpt>
      <trkpt lat="45.46757" lon="4.76472">
        <ele>166.60000610352</ele>
        <time>2020-03-10T07:30:47.000Z</time>
      </trkpt>
      <trkpt lat="45.46757" lon="4.76471">
        <ele>167</ele>
        <time>2020-03-10T07:30:48.000Z</time>
      </trkpt>
      <trkpt lat="45.46763" lon="4.76467">
        <ele>167.80000305176</ele>
        <time>2020-03-10T07:30:52.000Z</time>
      </trkpt>
      <trkpt lat="45.46767" lon="4.76466">
        <ele>168</ele>
        <time>2020-03-10T07:30:53.000Z</time>
      </trkpt>
      <trkpt lat="45.46773" lon="4.76462">
        <ele>168.60000610352</ele>
        <time>2020-03-10T07:30:57.000Z</time>
      </trkpt>
      <trkpt lat="45.46779" lon="4.76458">
        <ele>169.19999694824</ele>
        <time>2020-03-10T07:31:01.000Z</time>
      </trkpt>
      <trkpt lat="45.46781" lon="4.76457">
        <ele>169.60000610352</ele>
        <time>2020-03-10T07:31:02.000Z</time>
      </trkpt>
      <trkpt lat="45.46784" lon="4.76456">
        <ele>169.60000610352</ele>
        <time>2020-03-10T07:31:03.000Z</time>
      </trkpt>
      <trkpt lat="45.46789" lon="4.76451">
        <ele>170.39999389648</ele>
        <time>2020-03-10T07:31:06.000Z</time>
      </trkpt>
      <trkpt lat="45.46797" lon="4.76446">
        <ele>171</ele>
        <time>2020-03-10T07:31:10.000Z</time>
      </trkpt>
      <trkpt lat="45.46797" lon="4.7644">
        <ele>171.39999389648</ele>
        <time>2020-03-10T07:31:12.000Z</time>
      </trkpt>
      <trkpt lat="45.46803" lon="4.7643">
        <ele>171.80000305176</ele>
        <time>2020-03-10T07:31:17.000Z</time>
      </trkpt>
      <trkpt lat="45.46804" lon="4.76427">
        <ele>171.80000305176</ele>
        <time>2020-03-10T07:31:18.000Z</time>
      </trkpt>
      <trkpt lat="45.46809" lon="4.76417">
        <ele>171.80000305176</ele>
        <time>2020-03-10T07:31:22.000Z</time>
      </trkpt>
      <trkpt lat="45.46812" lon="4.7641">
        <ele>172.19999694824</ele>
        <time>2020-03-10T07:31:25.000Z</time>
      </trkpt>
      <trkpt lat="45.46815" lon="4.76407">
        <ele>172.39999389648</ele>
        <time>2020-03-10T07:31:27.000Z</time>
      </trkpt>
      <trkpt lat="45.46816" lon="4.76405">
        <ele>172.39999389648</ele>
        <time>2020-03-10T07:31:28.000Z</time>
      </trkpt>
      <trkpt lat="45.46823" lon="4.76393">
        <ele>172.80000305176</ele>
        <time>2020-03-10T07:31:32.000Z</time>
      </trkpt>
      <trkpt lat="45.46835" lon="4.76384">
        <ele>173.39999389648</ele>
        <time>2020-03-10T07:31:40.000Z</time>
      </trkpt>
      <trkpt lat="45.46836" lon="4.76383">
        <ele>173.80000305176</ele>
        <time>2020-03-10T07:31:41.000Z</time>
      </trkpt>
      <trkpt lat="45.46839" lon="4.76382">
        <ele>174</ele>
        <time>2020-03-10T07:31:42.000Z</time>
      </trkpt>
      <trkpt lat="45.46844" lon="4.76378">
        <ele>174.19999694824</ele>
        <time>2020-03-10T07:31:45.000Z</time>
      </trkpt>
      <trkpt lat="45.46848" lon="4.76368">
        <ele>174</ele>
        <time>2020-03-10T07:31:48.000Z</time>
      </trkpt>
      <trkpt lat="45.46853" lon="4.7636">
        <ele>174</ele>
        <time>2020-03-10T07:31:51.000Z</time>
      </trkpt>
      <trkpt lat="45.46854" lon="4.76357">
        <ele>174.19999694824</ele>
        <time>2020-03-10T07:31:52.000Z</time>
      </trkpt>
      <trkpt lat="45.4686" lon="4.76351">
        <ele>174.39999389648</ele>
        <time>2020-03-10T07:31:56.000Z</time>
      </trkpt>
      <trkpt lat="45.46861" lon="4.76349">
        <ele>174.39999389648</ele>
        <time>2020-03-10T07:31:57.000Z</time>
      </trkpt>
      <trkpt lat="45.46871" lon="4.76341">
        <ele>174.60000610352</ele>
        <time>2020-03-10T07:32:02.000Z</time>
      </trkpt>
      <trkpt lat="45.46872" lon="4.76339">
        <ele>174.80000305176</ele>
        <time>2020-03-10T07:32:03.000Z</time>
      </trkpt>
      <trkpt lat="45.46877" lon="4.76331">
        <ele>175.80000305176</ele>
        <time>2020-03-10T07:32:09.000Z</time>
      </trkpt>
      <trkpt lat="45.46881" lon="4.76327">
        <ele>176.80000305176</ele>
        <time>2020-03-10T07:32:12.000Z</time>
      </trkpt>
      <trkpt lat="45.46882" lon="4.76325">
        <ele>177</ele>
        <time>2020-03-10T07:32:13.000Z</time>
      </trkpt>
      <trkpt lat="45.46885" lon="4.76321">
        <ele>177.39999389648</ele>
        <time>2020-03-10T07:32:15.000Z</time>
      </trkpt>
      <trkpt lat="45.4689" lon="4.76317">
        <ele>177.60000610352</ele>
        <time>2020-03-10T07:32:18.000Z</time>
      </trkpt>
      <trkpt lat="45.46895" lon="4.7631">
        <ele>178</ele>
        <time>2020-03-10T07:32:22.000Z</time>
      </trkpt>
      <trkpt lat="45.46896" lon="4.76307">
        <ele>178.19999694824</ele>
        <time>2020-03-10T07:32:23.000Z</time>
      </trkpt>
      <trkpt lat="45.46904" lon="4.76297">
        <ele>177.39999389648</ele>
        <time>2020-03-10T07:32:27.000Z</time>
      </trkpt>
      <trkpt lat="45.46909" lon="4.7629">
        <ele>177.19999694824</ele>
        <time>2020-03-10T07:32:30.000Z</time>
      </trkpt>
      <trkpt lat="45.46909" lon="4.76288">
        <ele>177</ele>
        <time>2020-03-10T07:32:31.000Z</time>
      </trkpt>
      <trkpt lat="45.46911" lon="4.76286">
        <ele>176.80000305176</ele>
        <time>2020-03-10T07:32:32.000Z</time>
      </trkpt>
      <trkpt lat="45.46913" lon="4.76283">
        <ele>176.80000305176</ele>
        <time>2020-03-10T07:32:33.000Z</time>
      </trkpt>
      <trkpt lat="45.46921" lon="4.76268">
        <ele>176.60000610352</ele>
        <time>2020-03-10T07:32:39.000Z</time>
      </trkpt>
      <trkpt lat="45.46924" lon="4.7626">
        <ele>176.60000610352</ele>
        <time>2020-03-10T07:32:42.000Z</time>
      </trkpt>
      <trkpt lat="45.46926" lon="4.76255">
        <ele>176.60000610352</ele>
        <time>2020-03-10T07:32:44.000Z</time>
      </trkpt>
      <trkpt lat="45.46929" lon="4.76238">
        <ele>175.80000305176</ele>
        <time>2020-03-10T07:32:50.000Z</time>
      </trkpt>
      <trkpt lat="45.46932" lon="4.7623">
        <ele>176</ele>
        <time>2020-03-10T07:32:52.000Z</time>
      </trkpt>
      <trkpt lat="45.46936" lon="4.76224">
        <ele>176</ele>
        <time>2020-03-10T07:32:55.000Z</time>
      </trkpt>
      <trkpt lat="45.46938" lon="4.76218">
        <ele>176.19999694824</ele>
        <time>2020-03-10T07:32:58.000Z</time>
      </trkpt>
      <trkpt lat="45.46932" lon="4.76191">
        <ele>175</ele>
        <time>2020-03-10T07:36:21.000Z</time>
      </trkpt>
      <trkpt lat="45.46933" lon="4.76189">
        <ele>175</ele>
        <time>2020-03-10T07:36:22.000Z</time>
      </trkpt>
      <trkpt lat="45.46943" lon="4.76183">
        <ele>174.80000305176</ele>
        <time>2020-03-10T07:36:26.000Z</time>
      </trkpt>
      <trkpt lat="45.46945" lon="4.76183">
        <ele>174.80000305176</ele>
        <time>2020-03-10T07:36:27.000Z</time>
      </trkpt>
      <trkpt lat="45.46948" lon="4.76182">
        <ele>174.80000305176</ele>
        <time>2020-03-10T07:36:28.000Z</time>
      </trkpt>
      <trkpt lat="45.46952" lon="4.76178">
        <ele>175</ele>
        <time>2020-03-10T07:36:30.000Z</time>
      </trkpt>
      <trkpt lat="45.46955" lon="4.76174">
        <ele>174.80000305176</ele>
        <time>2020-03-10T07:36:32.000Z</time>
      </trkpt>
      <trkpt lat="45.46959" lon="4.76168">
        <ele>175.39999389648</ele>
        <time>2020-03-10T07:36:36.000Z</time>
      </trkpt>
      <trkpt lat="45.46961" lon="4.76167">
        <ele>175.60000610352</ele>
        <time>2020-03-10T07:36:37.000Z</time>
      </trkpt>
      <trkpt lat="45.46964" lon="4.76165">
        <ele>175.80000305176</ele>
        <time>2020-03-10T07:36:39.000Z</time>
      </trkpt>
      <trkpt lat="45.4697" lon="4.76163">
        <ele>176</ele>
        <time>2020-03-10T07:36:41.000Z</time>
      </trkpt>
      <trkpt lat="45.46974" lon="4.76161">
        <ele>176.19999694824</ele>
        <time>2020-03-10T07:36:42.000Z</time>
      </trkpt>
      <trkpt lat="45.46982" lon="4.76152">
        <ele>176.60000610352</ele>
        <time>2020-03-10T07:36:47.000Z</time>
      </trkpt>
      <trkpt lat="45.46983" lon="4.7615">
        <ele>176.80000305176</ele>
        <time>2020-03-10T07:36:48.000Z</time>
      </trkpt>
      <trkpt lat="45.46987" lon="4.76143">
        <ele>177</ele>
        <time>2020-03-10T07:36:51.000Z</time>
      </trkpt>
      <trkpt lat="45.46988" lon="4.76141">
        <ele>177.39999389648</ele>
        <time>2020-03-10T07:36:52.000Z</time>
      </trkpt>
      <trkpt lat="45.46991" lon="4.76138">
        <ele>178</ele>
        <time>2020-03-10T07:36:54.000Z</time>
      </trkpt>
      <trkpt lat="45.46993" lon="4.76133">
        <ele>179.19999694824</ele>
        <time>2020-03-10T07:36:58.000Z</time>
      </trkpt>
      <trkpt lat="45.46996" lon="4.76125">
        <ele>180.19999694824</ele>
        <time>2020-03-10T07:37:01.000Z</time>
      </trkpt>
      <trkpt lat="45.46999" lon="4.76124">
        <ele>180.60000610352</ele>
        <time>2020-03-10T07:37:02.000Z</time>
      </trkpt>
      <trkpt lat="45.47002" lon="4.76118">
        <ele>181.39999389648</ele>
        <time>2020-03-10T07:37:05.000Z</time>
      </trkpt>
      <trkpt lat="45.47003" lon="4.76114">
        <ele>181.39999389648</ele>
        <time>2020-03-10T07:37:06.000Z</time>
      </trkpt>
      <trkpt lat="45.47004" lon="4.76106">
        <ele>181.60000610352</ele>
        <time>2020-03-10T07:37:08.000Z</time>
      </trkpt>
      <trkpt lat="45.47008" lon="4.761">
        <ele>181.80000305176</ele>
        <time>2020-03-10T07:37:12.000Z</time>
      </trkpt>
      <trkpt lat="45.47008" lon="4.76099">
        <ele>182</ele>
        <time>2020-03-10T07:37:13.000Z</time>
      </trkpt>
      <trkpt lat="45.4701" lon="4.76094">
        <ele>182.39999389648</ele>
        <time>2020-03-10T07:37:15.000Z</time>
      </trkpt>
      <trkpt lat="45.47012" lon="4.76081">
        <ele>183</ele>
        <time>2020-03-10T07:37:19.000Z</time>
      </trkpt>
      <trkpt lat="45.47014" lon="4.76077">
        <ele>183.39999389648</ele>
        <time>2020-03-10T07:37:21.000Z</time>
      </trkpt>
      <trkpt lat="45.47015" lon="4.76073">
        <ele>183.80000305176</ele>
        <time>2020-03-10T07:37:22.000Z</time>
      </trkpt>
      <trkpt lat="45.47021" lon="4.76063">
        <ele>184.80000305176</ele>
        <time>2020-03-10T07:37:26.000Z</time>
      </trkpt>
      <trkpt lat="45.47027" lon="4.76054">
        <ele>186</ele>
        <time>2020-03-10T07:37:31.000Z</time>
      </trkpt>
      <trkpt lat="45.47028" lon="4.76052">
        <ele>186.19999694824</ele>
        <time>2020-03-10T07:37:32.000Z</time>
      </trkpt>
      <trkpt lat="45.4703" lon="4.76049">
        <ele>186.60000610352</ele>
        <time>2020-03-10T07:37:34.000Z</time>
      </trkpt>
      <trkpt lat="45.47031" lon="4.76047">
        <ele>186.80000305176</ele>
        <time>2020-03-10T07:37:35.000Z</time>
      </trkpt>
      <trkpt lat="45.47033" lon="4.76046">
        <ele>187.39999389648</ele>
        <time>2020-03-10T07:37:36.000Z</time>
      </trkpt>
      <trkpt lat="45.47034" lon="4.76044">
        <ele>188</ele>
        <time>2020-03-10T07:37:38.000Z</time>
      </trkpt>
      <trkpt lat="45.47034" lon="4.76042">
        <ele>188.19999694824</ele>
        <time>2020-03-10T07:37:39.000Z</time>
      </trkpt>
      <trkpt lat="45.47035" lon="4.7604">
        <ele>188.39999389648</ele>
        <time>2020-03-10T07:37:40.000Z</time>
      </trkpt>
      <trkpt lat="45.47038" lon="4.76037">
        <ele>189</ele>
        <time>2020-03-10T07:37:42.000Z</time>
      </trkpt>
      <trkpt lat="45.4704" lon="4.76035">
        <ele>189.19999694824</ele>
        <time>2020-03-10T07:37:43.000Z</time>
      </trkpt>
      <trkpt lat="45.4704" lon="4.76032">
        <ele>189.39999389648</ele>
        <time>2020-03-10T07:37:44.000Z</time>
      </trkpt>
      <trkpt lat="45.47045" lon="4.76023">
        <ele>190.60000610352</ele>
        <time>2020-03-10T07:37:49.000Z</time>
      </trkpt>
      <trkpt lat="45.47046" lon="4.76022">
        <ele>190.80000305176</ele>
        <time>2020-03-10T07:37:50.000Z</time>
      </trkpt>
      <trkpt lat="45.47046" lon="4.76018">
        <ele>191.39999389648</ele>
        <time>2020-03-10T07:37:52.000Z</time>
      </trkpt>
      <trkpt lat="45.47047" lon="4.76016">
        <ele>191.60000610352</ele>
        <time>2020-03-10T07:37:53.000Z</time>
      </trkpt>
      <trkpt lat="45.47047" lon="4.76013">
        <ele>192.19999694824</ele>
        <time>2020-03-10T07:37:55.000Z</time>
      </trkpt>
      <trkpt lat="45.47048" lon="4.7601">
        <ele>192.60000610352</ele>
        <time>2020-03-10T07:37:57.000Z</time>
      </trkpt>
      <trkpt lat="45.47051" lon="4.76009">
        <ele>193</ele>
        <time>2020-03-10T07:37:58.000Z</time>
      </trkpt>
      <trkpt lat="45.47052" lon="4.76007">
        <ele>193.60000610352</ele>
        <time>2020-03-10T07:38:00.000Z</time>
      </trkpt>
      <trkpt lat="45.47053" lon="4.76006">
        <ele>194</ele>
        <time>2020-03-10T07:38:01.000Z</time>
      </trkpt>
      <trkpt lat="45.47054" lon="4.76004">
        <ele>194.39999389648</ele>
        <time>2020-03-10T07:38:02.000Z</time>
      </trkpt>
      <trkpt lat="45.47058" lon="4.76">
        <ele>195.39999389648</ele>
        <time>2020-03-10T07:38:05.000Z</time>
      </trkpt>
      <trkpt lat="45.47063" lon="4.76">
        <ele>196</ele>
        <time>2020-03-10T07:38:08.000Z</time>
      </trkpt>
      <trkpt lat="45.47065" lon="4.75997">
        <ele>196.80000305176</ele>
        <time>2020-03-10T07:38:10.000Z</time>
      </trkpt>
      <trkpt lat="45.47067" lon="4.75996">
        <ele>197.80000305176</ele>
        <time>2020-03-10T07:38:12.000Z</time>
      </trkpt>
      <trkpt lat="45.47068" lon="4.75995">
        <ele>198</ele>
        <time>2020-03-10T07:38:13.000Z</time>
      </trkpt>
      <trkpt lat="45.47074" lon="4.75992">
        <ele>199</ele>
        <time>2020-03-10T07:38:17.000Z</time>
      </trkpt>
      <trkpt lat="45.4708" lon="4.75985">
        <ele>200.19999694824</ele>
        <time>2020-03-10T07:38:22.000Z</time>
      </trkpt>
      <trkpt lat="45.47082" lon="4.7598">
        <ele>200.80000305176</ele>
        <time>2020-03-10T07:38:24.000Z</time>
      </trkpt>
      <trkpt lat="45.47083" lon="4.75978">
        <ele>201.39999389648</ele>
        <time>2020-03-10T07:38:26.000Z</time>
      </trkpt>
      <trkpt lat="45.47089" lon="4.75969">
        <ele>202.60000610352</ele>
        <time>2020-03-10T07:38:31.000Z</time>
      </trkpt>
      <trkpt lat="45.4709" lon="4.75968">
        <ele>203</ele>
        <time>2020-03-10T07:38:32.000Z</time>
      </trkpt>
      <trkpt lat="45.47092" lon="4.75966">
        <ele>203.80000305176</ele>
        <time>2020-03-10T07:38:35.000Z</time>
      </trkpt>
      <trkpt lat="45.47095" lon="4.75964">
        <ele>204.60000610352</ele>
        <time>2020-03-10T07:38:38.000Z</time>
      </trkpt>
      <trkpt lat="45.47096" lon="4.75965">
        <ele>205</ele>
        <time>2020-03-10T07:38:39.000Z</time>
      </trkpt>
      <trkpt lat="45.47098" lon="4.7596">
        <ele>205.80000305176</ele>
        <time>2020-03-10T07:38:42.000Z</time>
      </trkpt>
      <trkpt lat="45.471" lon="4.75956">
        <ele>206.39999389648</ele>
        <time>2020-03-10T07:38:44.000Z</time>
      </trkpt>
      <trkpt lat="45.47105" lon="4.75953">
        <ele>207.39999389648</ele>
        <time>2020-03-10T07:38:48.000Z</time>
      </trkpt>
      <trkpt lat="45.47107" lon="4.75949">
        <ele>207.60000610352</ele>
        <time>2020-03-10T07:38:51.000Z</time>
      </trkpt>
      <trkpt lat="45.47109" lon="4.75949">
        <ele>207.60000610352</ele>
        <time>2020-03-10T07:38:52.000Z</time>
      </trkpt>
      <trkpt lat="45.47112" lon="4.75947">
        <ele>208.60000610352</ele>
        <time>2020-03-10T07:38:55.000Z</time>
      </trkpt>
      <trkpt lat="45.47114" lon="4.75946">
        <ele>208.80000305176</ele>
        <time>2020-03-10T07:38:56.000Z</time>
      </trkpt>
      <trkpt lat="45.47116" lon="4.75946">
        <ele>209</ele>
        <time>2020-03-10T07:38:57.000Z</time>
      </trkpt>
      <trkpt lat="45.47119" lon="4.75944">
        <ele>209.19999694824</ele>
        <time>2020-03-10T07:38:59.000Z</time>
      </trkpt>
      <trkpt lat="45.47122" lon="4.75937">
        <ele>208.80000305176</ele>
        <time>2020-03-10T07:39:02.000Z</time>
      </trkpt>
      <trkpt lat="45.47122" lon="4.75932">
        <ele>208.60000610352</ele>
        <time>2020-03-10T07:39:05.000Z</time>
      </trkpt>
      <trkpt lat="45.47124" lon="4.7593">
        <ele>209</ele>
        <time>2020-03-10T07:39:07.000Z</time>
      </trkpt>
      <trkpt lat="45.47127" lon="4.75926">
        <ele>209.60000610352</ele>
        <time>2020-03-10T07:39:10.000Z</time>
      </trkpt>
      <trkpt lat="45.4713" lon="4.75925">
        <ele>210.19999694824</ele>
        <time>2020-03-10T07:39:12.000Z</time>
      </trkpt>
      <trkpt lat="45.47133" lon="4.75921">
        <ele>210.60000610352</ele>
        <time>2020-03-10T07:39:15.000Z</time>
      </trkpt>
      <trkpt lat="45.47135" lon="4.7592">
        <ele>210.60000610352</ele>
        <time>2020-03-10T07:39:16.000Z</time>
      </trkpt>
      <trkpt lat="45.47138" lon="4.75917">
        <ele>211.19999694824</ele>
        <time>2020-03-10T07:39:18.000Z</time>
      </trkpt>
      <trkpt lat="45.47141" lon="4.75914">
        <ele>211.60000610352</ele>
        <time>2020-03-10T07:39:20.000Z</time>
      </trkpt>
      <trkpt lat="45.47142" lon="4.75913">
        <ele>211.60000610352</ele>
        <time>2020-03-10T07:39:21.000Z</time>
      </trkpt>
      <trkpt lat="45.47144" lon="4.75912">
        <ele>211.39999389648</ele>
        <time>2020-03-10T07:39:22.000Z</time>
      </trkpt>
      <trkpt lat="45.47153" lon="4.75905">
        <ele>211.19999694824</ele>
        <time>2020-03-10T07:39:27.000Z</time>
      </trkpt>
      <trkpt lat="45.47157" lon="4.75898">
        <ele>212</ele>
        <time>2020-03-10T07:39:31.000Z</time>
      </trkpt>
      <trkpt lat="45.47158" lon="4.75896">
        <ele>212.39999389648</ele>
        <time>2020-03-10T07:39:32.000Z</time>
      </trkpt>
      <trkpt lat="45.47159" lon="4.75893">
        <ele>213</ele>
        <time>2020-03-10T07:39:33.000Z</time>
      </trkpt>
      <trkpt lat="45.47159" lon="4.75892">
        <ele>213.39999389648</ele>
        <time>2020-03-10T07:39:34.000Z</time>
      </trkpt>
      <trkpt lat="45.47159" lon="4.75889">
        <ele>214.19999694824</ele>
        <time>2020-03-10T07:39:36.000Z</time>
      </trkpt>
      <trkpt lat="45.47159" lon="4.75882">
        <ele>215.39999389648</ele>
        <time>2020-03-10T07:39:40.000Z</time>
      </trkpt>
      <trkpt lat="45.47159" lon="4.7588">
        <ele>215.60000610352</ele>
        <time>2020-03-10T07:39:41.000Z</time>
      </trkpt>
      <trkpt lat="45.47159" lon="4.75878">
        <ele>215.80000305176</ele>
        <time>2020-03-10T07:39:42.000Z</time>
      </trkpt>
      <trkpt lat="45.47159" lon="4.75877">
        <ele>216</ele>
        <time>2020-03-10T07:39:43.000Z</time>
      </trkpt>
      <trkpt lat="45.47161" lon="4.75872">
        <ele>216.60000610352</ele>
        <time>2020-03-10T07:39:46.000Z</time>
      </trkpt>
      <trkpt lat="45.47161" lon="4.75871">
        <ele>216.80000305176</ele>
        <time>2020-03-10T07:39:47.000Z</time>
      </trkpt>
      <trkpt lat="45.47163" lon="4.75865">
        <ele>217.80000305176</ele>
        <time>2020-03-10T07:39:50.000Z</time>
      </trkpt>
      <trkpt lat="45.47165" lon="4.75861">
        <ele>218.39999389648</ele>
        <time>2020-03-10T07:39:52.000Z</time>
      </trkpt>
      <trkpt lat="45.4717" lon="4.75852">
        <ele>218.80000305176</ele>
        <time>2020-03-10T07:39:56.000Z</time>
      </trkpt>
      <trkpt lat="45.47175" lon="4.75839">
        <ele>219.19999694824</ele>
        <time>2020-03-10T07:40:02.000Z</time>
      </trkpt>
      <trkpt lat="45.47176" lon="4.75837">
        <ele>219.39999389648</ele>
        <time>2020-03-10T07:40:03.000Z</time>
      </trkpt>
      <trkpt lat="45.47176" lon="4.75835">
        <ele>219.60000610352</ele>
        <time>2020-03-10T07:40:04.000Z</time>
      </trkpt>
      <trkpt lat="45.47177" lon="4.75833">
        <ele>219.80000305176</ele>
        <time>2020-03-10T07:40:05.000Z</time>
      </trkpt>
      <trkpt lat="45.47181" lon="4.75827">
        <ele>220.39999389648</ele>
        <time>2020-03-10T07:40:08.000Z</time>
      </trkpt>
      <trkpt lat="45.47183" lon="4.75821">
        <ele>221</ele>
        <time>2020-03-10T07:40:11.000Z</time>
      </trkpt>
      <trkpt lat="45.47184" lon="4.75819">
        <ele>221.19999694824</ele>
        <time>2020-03-10T07:40:12.000Z</time>
      </trkpt>
      <trkpt lat="45.47186" lon="4.75807">
        <ele>222.39999389648</ele>
        <time>2020-03-10T07:40:15.000Z</time>
      </trkpt>
      <trkpt lat="45.47187" lon="4.75806">
        <ele>222.39999389648</ele>
        <time>2020-03-10T07:40:16.000Z</time>
      </trkpt>
      <trkpt lat="45.47188" lon="4.75803">
        <ele>222.80000305176</ele>
        <time>2020-03-10T07:40:17.000Z</time>
      </trkpt>
      <trkpt lat="45.47191" lon="4.75793">
        <ele>223</ele>
        <time>2020-03-10T07:40:20.000Z</time>
      </trkpt>
      <trkpt lat="45.47192" lon="4.75789">
        <ele>223.19999694824</ele>
        <time>2020-03-10T07:40:22.000Z</time>
      </trkpt>
      <trkpt lat="45.47193" lon="4.75785">
        <ele>223.19999694824</ele>
        <time>2020-03-10T07:40:24.000Z</time>
      </trkpt>
      <trkpt lat="45.47193" lon="4.75781">
        <ele>223.19999694824</ele>
        <time>2020-03-10T07:40:25.000Z</time>
      </trkpt>
      <trkpt lat="45.47194" lon="4.7578">
        <ele>223</ele>
        <time>2020-03-10T07:40:26.000Z</time>
      </trkpt>
      <trkpt lat="45.472" lon="4.75765">
        <ele>223</ele>
        <time>2020-03-10T07:40:30.000Z</time>
      </trkpt>
      <trkpt lat="45.47204" lon="4.75762">
        <ele>223</ele>
        <time>2020-03-10T07:40:32.000Z</time>
      </trkpt>
      <trkpt lat="45.4721" lon="4.75748">
        <ele>223.19999694824</ele>
        <time>2020-03-10T07:40:37.000Z</time>
      </trkpt>
      <trkpt lat="45.4721" lon="4.75746">
        <ele>223.39999389648</ele>
        <time>2020-03-10T07:40:38.000Z</time>
      </trkpt>
      <trkpt lat="45.47215" lon="4.75736">
        <ele>224.19999694824</ele>
        <time>2020-03-10T07:40:42.000Z</time>
      </trkpt>
      <trkpt lat="45.47218" lon="4.75729">
        <ele>224.39999389648</ele>
        <time>2020-03-10T07:40:44.000Z</time>
      </trkpt>
      <trkpt lat="45.4722" lon="4.75727">
        <ele>224.60000610352</ele>
        <time>2020-03-10T07:40:45.000Z</time>
      </trkpt>
      <trkpt lat="45.47226" lon="4.75722">
        <ele>225.80000305176</ele>
        <time>2020-03-10T07:40:49.000Z</time>
      </trkpt>
      <trkpt lat="45.47227" lon="4.75721">
        <ele>226.39999389648</ele>
        <time>2020-03-10T07:40:51.000Z</time>
      </trkpt>
      <trkpt lat="45.4723" lon="4.7572">
        <ele>226.60000610352</ele>
        <time>2020-03-10T07:40:52.000Z</time>
      </trkpt>
      <trkpt lat="45.47231" lon="4.75718">
        <ele>226.80000305176</ele>
        <time>2020-03-10T07:40:53.000Z</time>
      </trkpt>
      <trkpt lat="45.47233" lon="4.75716">
        <ele>227.19999694824</ele>
        <time>2020-03-10T07:40:54.000Z</time>
      </trkpt>
      <trkpt lat="45.47237" lon="4.75715">
        <ele>228</ele>
        <time>2020-03-10T07:40:56.000Z</time>
      </trkpt>
      <trkpt lat="45.47238" lon="4.75714">
        <ele>228.19999694824</ele>
        <time>2020-03-10T07:40:57.000Z</time>
      </trkpt>
      <trkpt lat="45.47241" lon="4.75713">
        <ele>228.60000610352</ele>
        <time>2020-03-10T07:40:59.000Z</time>
      </trkpt>
      <trkpt lat="45.47243" lon="4.7571">
        <ele>228.80000305176</ele>
        <time>2020-03-10T07:41:02.000Z</time>
      </trkpt>
      <trkpt lat="45.47243" lon="4.75706">
        <ele>228.60000610352</ele>
        <time>2020-03-10T07:41:04.000Z</time>
      </trkpt>
      <trkpt lat="45.47245" lon="4.75689">
        <ele>226.80000305176</ele>
        <time>2020-03-10T07:41:10.000Z</time>
      </trkpt>
      <trkpt lat="45.47247" lon="4.75686">
        <ele>226.19999694824</ele>
        <time>2020-03-10T07:41:12.000Z</time>
      </trkpt>
      <trkpt lat="45.4725" lon="4.75681">
        <ele>225.60000610352</ele>
        <time>2020-03-10T07:41:15.000Z</time>
      </trkpt>
      <trkpt lat="45.47253" lon="4.75676">
        <ele>224.19999694824</ele>
        <time>2020-03-10T07:41:18.000Z</time>
      </trkpt>
      <trkpt lat="45.47256" lon="4.75673">
        <ele>223.39999389648</ele>
        <time>2020-03-10T07:41:20.000Z</time>
      </trkpt>
      <trkpt lat="45.47258" lon="4.75671">
        <ele>223.19999694824</ele>
        <time>2020-03-10T07:41:21.000Z</time>
      </trkpt>
      <trkpt lat="45.47259" lon="4.75669">
        <ele>223</ele>
        <time>2020-03-10T07:41:22.000Z</time>
      </trkpt>
      <trkpt lat="45.47265" lon="4.75659">
        <ele>222</ele>
        <time>2020-03-10T07:41:26.000Z</time>
      </trkpt>
      <trkpt lat="45.47267" lon="4.75655">
        <ele>221.80000305176</ele>
        <time>2020-03-10T07:41:27.000Z</time>
      </trkpt>
      <trkpt lat="45.47276" lon="4.75639">
        <ele>220.80000305176</ele>
        <time>2020-03-10T07:41:32.000Z</time>
      </trkpt>
      <trkpt lat="45.47279" lon="4.75633">
        <ele>220.39999389648</ele>
        <time>2020-03-10T07:41:34.000Z</time>
      </trkpt>
      <trkpt lat="45.47287" lon="4.7562">
        <ele>221.19999694824</ele>
        <time>2020-03-10T07:41:40.000Z</time>
      </trkpt>
      <trkpt lat="45.47289" lon="4.75616">
        <ele>221.60000610352</ele>
        <time>2020-03-10T07:41:42.000Z</time>
      </trkpt>
      <trkpt lat="45.4729" lon="4.75615">
        <ele>221.80000305176</ele>
        <time>2020-03-10T07:41:43.000Z</time>
      </trkpt>
      <trkpt lat="45.47293" lon="4.75609">
        <ele>223</ele>
        <time>2020-03-10T07:41:46.000Z</time>
      </trkpt>
      <trkpt lat="45.47296" lon="4.75602">
        <ele>224</ele>
        <time>2020-03-10T07:41:49.000Z</time>
      </trkpt>
      <trkpt lat="45.47297" lon="4.75598">
        <ele>224.39999389648</ele>
        <time>2020-03-10T07:41:50.000Z</time>
      </trkpt>
      <trkpt lat="45.47298" lon="4.75593">
        <ele>224.80000305176</ele>
        <time>2020-03-10T07:41:52.000Z</time>
      </trkpt>
      <trkpt lat="45.47303" lon="4.7558">
        <ele>224.80000305176</ele>
        <time>2020-03-10T07:41:56.000Z</time>
      </trkpt>
      <trkpt lat="45.47306" lon="4.75572">
        <ele>224.80000305176</ele>
        <time>2020-03-10T07:41:58.000Z</time>
      </trkpt>
      <trkpt lat="45.47312" lon="4.75563">
        <ele>224.80000305176</ele>
        <time>2020-03-10T07:42:02.000Z</time>
      </trkpt>
      <trkpt lat="45.47315" lon="4.75558">
        <ele>225.19999694824</ele>
        <time>2020-03-10T07:42:04.000Z</time>
      </trkpt>
      <trkpt lat="45.47318" lon="4.75555">
        <ele>225.39999389648</ele>
        <time>2020-03-10T07:42:06.000Z</time>
      </trkpt>
      <trkpt lat="45.47323" lon="4.7555">
        <ele>226.39999389648</ele>
        <time>2020-03-10T07:42:10.000Z</time>
      </trkpt>
      <trkpt lat="45.47324" lon="4.75549">
        <ele>226.39999389648</ele>
        <time>2020-03-10T07:42:11.000Z</time>
      </trkpt>
      <trkpt lat="45.47325" lon="4.75548">
        <ele>226.80000305176</ele>
        <time>2020-03-10T07:42:12.000Z</time>
      </trkpt>
      <trkpt lat="45.4733" lon="4.75543">
        <ele>227.19999694824</ele>
        <time>2020-03-10T07:42:15.000Z</time>
      </trkpt>
      <trkpt lat="45.47331" lon="4.75539">
        <ele>227.80000305176</ele>
        <time>2020-03-10T07:42:17.000Z</time>
      </trkpt>
      <trkpt lat="45.47337" lon="4.75533">
        <ele>228.80000305176</ele>
        <time>2020-03-10T07:42:22.000Z</time>
      </trkpt>
      <trkpt lat="45.4734" lon="4.7553">
        <ele>229.39999389648</ele>
        <time>2020-03-10T07:42:24.000Z</time>
      </trkpt>
      <trkpt lat="45.47342" lon="4.75528">
        <ele>230</ele>
        <time>2020-03-10T07:42:26.000Z</time>
      </trkpt>
      <trkpt lat="45.47346" lon="4.75522">
        <ele>231.19999694824</ele>
        <time>2020-03-10T07:42:29.000Z</time>
      </trkpt>
      <trkpt lat="45.47347" lon="4.7552">
        <ele>231.39999389648</ele>
        <time>2020-03-10T07:42:30.000Z</time>
      </trkpt>
      <trkpt lat="45.47349" lon="4.75518">
        <ele>231.60000610352</ele>
        <time>2020-03-10T07:42:32.000Z</time>
      </trkpt>
      <trkpt lat="45.47352" lon="4.75514">
        <ele>232.19999694824</ele>
        <time>2020-03-10T07:42:35.000Z</time>
      </trkpt>
      <trkpt lat="45.47358" lon="4.75505">
        <ele>233</ele>
        <time>2020-03-10T07:42:40.000Z</time>
      </trkpt>
      <trkpt lat="45.47361" lon="4.755">
        <ele>233</ele>
        <time>2020-03-10T07:42:42.000Z</time>
      </trkpt>
      <trkpt lat="45.47365" lon="4.75495">
        <ele>232.60000610352</ele>
        <time>2020-03-10T07:42:44.000Z</time>
      </trkpt>
      <trkpt lat="45.47366" lon="4.75491">
        <ele>232.19999694824</ele>
        <time>2020-03-10T07:42:46.000Z</time>
      </trkpt>
      <trkpt lat="45.47366" lon="4.75481">
        <ele>231.19999694824</ele>
        <time>2020-03-10T07:42:50.000Z</time>
      </trkpt>
      <trkpt lat="45.47368" lon="4.75479">
        <ele>231.19999694824</ele>
        <time>2020-03-10T07:42:51.000Z</time>
      </trkpt>
      <trkpt lat="45.4737" lon="4.75476">
        <ele>231</ele>
        <time>2020-03-10T07:42:52.000Z</time>
      </trkpt>
      <trkpt lat="45.47372" lon="4.75471">
        <ele>230.80000305176</ele>
        <time>2020-03-10T07:42:53.000Z</time>
      </trkpt>
      <trkpt lat="45.47373" lon="4.75455">
        <ele>230.19999694824</ele>
        <time>2020-03-10T07:42:57.000Z</time>
      </trkpt>
      <trkpt lat="45.47374" lon="4.75452">
        <ele>230.19999694824</ele>
        <time>2020-03-10T07:42:58.000Z</time>
      </trkpt>
      <trkpt lat="45.47375" lon="4.7545">
        <ele>230</ele>
        <time>2020-03-10T07:42:59.000Z</time>
      </trkpt>
      <trkpt lat="45.47377" lon="4.75444">
        <ele>230</ele>
        <time>2020-03-10T07:43:01.000Z</time>
      </trkpt>
      <trkpt lat="45.47379" lon="4.7544">
        <ele>230.19999694824</ele>
        <time>2020-03-10T07:43:02.000Z</time>
      </trkpt>
      <trkpt lat="45.47382" lon="4.75431">
        <ele>230.39999389648</ele>
        <time>2020-03-10T07:43:05.000Z</time>
      </trkpt>
      <trkpt lat="45.47384" lon="4.75427">
        <ele>230.60000610352</ele>
        <time>2020-03-10T07:43:07.000Z</time>
      </trkpt>
      <trkpt lat="45.4739" lon="4.75417">
        <ele>231.19999694824</ele>
        <time>2020-03-10T07:43:12.000Z</time>
      </trkpt>
      <trkpt lat="45.47394" lon="4.75412">
        <ele>232.19999694824</ele>
        <time>2020-03-10T07:43:15.000Z</time>
      </trkpt>
      <trkpt lat="45.47399" lon="4.75407">
        <ele>233.19999694824</ele>
        <time>2020-03-10T07:43:18.000Z</time>
      </trkpt>
      <trkpt lat="45.474" lon="4.75406">
        <ele>233.39999389648</ele>
        <time>2020-03-10T07:43:19.000Z</time>
      </trkpt>
      <trkpt lat="45.47404" lon="4.75404">
        <ele>234.39999389648</ele>
        <time>2020-03-10T07:43:22.000Z</time>
      </trkpt>
      <trkpt lat="45.47406" lon="4.75403">
        <ele>234.60000610352</ele>
        <time>2020-03-10T07:43:23.000Z</time>
      </trkpt>
      <trkpt lat="45.47411" lon="4.75401">
        <ele>235.60000610352</ele>
        <time>2020-03-10T07:43:26.000Z</time>
      </trkpt>
      <trkpt lat="45.47416" lon="4.75399">
        <ele>237</ele>
        <time>2020-03-10T07:43:30.000Z</time>
      </trkpt>
      <trkpt lat="45.47419" lon="4.75397">
        <ele>238</ele>
        <time>2020-03-10T07:43:32.000Z</time>
      </trkpt>
      <trkpt lat="45.47424" lon="4.75389">
        <ele>239</ele>
        <time>2020-03-10T07:43:37.000Z</time>
      </trkpt>
      <trkpt lat="45.47427" lon="4.75383">
        <ele>239.19999694824</ele>
        <time>2020-03-10T07:43:38.000Z</time>
      </trkpt>
      <trkpt lat="45.47433" lon="4.75378">
        <ele>240.19999694824</ele>
        <time>2020-03-10T07:43:41.000Z</time>
      </trkpt>
      <trkpt lat="45.47434" lon="4.75377">
        <ele>240.39999389648</ele>
        <time>2020-03-10T07:43:42.000Z</time>
      </trkpt>
      <trkpt lat="45.47435" lon="4.75375">
        <ele>240.60000610352</ele>
        <time>2020-03-10T07:43:43.000Z</time>
      </trkpt>
      <trkpt lat="45.4744" lon="4.75363">
        <ele>241.39999389648</ele>
        <time>2020-03-10T07:43:48.000Z</time>
      </trkpt>
      <trkpt lat="45.47441" lon="4.75362">
        <ele>241.60000610352</ele>
        <time>2020-03-10T07:43:49.000Z</time>
      </trkpt>
      <trkpt lat="45.47443" lon="4.75358">
        <ele>242.19999694824</ele>
        <time>2020-03-10T07:43:51.000Z</time>
      </trkpt>
      <trkpt lat="45.47444" lon="4.75356">
        <ele>242.60000610352</ele>
        <time>2020-03-10T07:43:52.000Z</time>
      </trkpt>
      <trkpt lat="45.47447" lon="4.75352">
        <ele>243.39999389648</ele>
        <time>2020-03-10T07:43:56.000Z</time>
      </trkpt>
      <trkpt lat="45.4745" lon="4.75348">
        <ele>243.60000610352</ele>
        <time>2020-03-10T07:43:58.000Z</time>
      </trkpt>
      <trkpt lat="45.47451" lon="4.75342">
        <ele>243.80000305176</ele>
        <time>2020-03-10T07:44:00.000Z</time>
      </trkpt>
      <trkpt lat="45.47454" lon="4.75339">
        <ele>244</ele>
        <time>2020-03-10T07:44:02.000Z</time>
      </trkpt>
      <trkpt lat="45.47456" lon="4.75333">
        <ele>244.19999694824</ele>
        <time>2020-03-10T07:44:05.000Z</time>
      </trkpt>
      <trkpt lat="45.47461" lon="4.75322">
        <ele>244.19999694824</ele>
        <time>2020-03-10T07:44:09.000Z</time>
      </trkpt>
      <trkpt lat="45.47462" lon="4.75321">
        <ele>244.19999694824</ele>
        <time>2020-03-10T07:44:10.000Z</time>
      </trkpt>
      <trkpt lat="45.47466" lon="4.75319">
        <ele>244.19999694824</ele>
        <time>2020-03-10T07:44:12.000Z</time>
      </trkpt>
      <trkpt lat="45.47472" lon="4.75314">
        <ele>244.60000610352</ele>
        <time>2020-03-10T07:44:16.000Z</time>
      </trkpt>
      <trkpt lat="45.47474" lon="4.75312">
        <ele>244.80000305176</ele>
        <time>2020-03-10T07:44:17.000Z</time>
      </trkpt>
      <trkpt lat="45.4748" lon="4.75303">
        <ele>244.80000305176</ele>
        <time>2020-03-10T07:44:22.000Z</time>
      </trkpt>
      <trkpt lat="45.47484" lon="4.75297">
        <ele>245.19999694824</ele>
        <time>2020-03-10T07:44:25.000Z</time>
      </trkpt>
      <trkpt lat="45.47486" lon="4.75294">
        <ele>246</ele>
        <time>2020-03-10T07:44:27.000Z</time>
      </trkpt>
      <trkpt lat="45.47495" lon="4.7529">
        <ele>246.60000610352</ele>
        <time>2020-03-10T07:44:32.000Z</time>
      </trkpt>
      <trkpt lat="45.47498" lon="4.75288">
        <ele>247</ele>
        <time>2020-03-10T07:44:34.000Z</time>
      </trkpt>
      <trkpt lat="45.47505" lon="4.75285">
        <ele>247.60000610352</ele>
        <time>2020-03-10T07:44:39.000Z</time>
      </trkpt>
      <trkpt lat="45.47509" lon="4.75284">
        <ele>248.19999694824</ele>
        <time>2020-03-10T07:44:41.000Z</time>
      </trkpt>
      <trkpt lat="45.47511" lon="4.75283">
        <ele>248.39999389648</ele>
        <time>2020-03-10T07:44:42.000Z</time>
      </trkpt>
      <trkpt lat="45.47513" lon="4.75281">
        <ele>249</ele>
        <time>2020-03-10T07:44:44.000Z</time>
      </trkpt>
      <trkpt lat="45.47515" lon="4.75279">
        <ele>249.39999389648</ele>
        <time>2020-03-10T07:44:46.000Z</time>
      </trkpt>
      <trkpt lat="45.47522" lon="4.75275">
        <ele>250.60000610352</ele>
        <time>2020-03-10T07:44:52.000Z</time>
      </trkpt>
      <trkpt lat="45.47528" lon="4.75266">
        <ele>251.60000610352</ele>
        <time>2020-03-10T07:44:57.000Z</time>
      </trkpt>
      <trkpt lat="45.47534" lon="4.75262">
        <ele>252.19999694824</ele>
        <time>2020-03-10T07:45:00.000Z</time>
      </trkpt>
      <trkpt lat="45.47535" lon="4.75261">
        <ele>252.39999389648</ele>
        <time>2020-03-10T07:45:01.000Z</time>
      </trkpt>
      <trkpt lat="45.47536" lon="4.75259">
        <ele>252.80000305176</ele>
        <time>2020-03-10T07:45:02.000Z</time>
      </trkpt>
      <trkpt lat="45.47543" lon="4.75252">
        <ele>253.80000305176</ele>
        <time>2020-03-10T07:45:08.000Z</time>
      </trkpt>
      <trkpt lat="45.47545" lon="4.7525">
        <ele>254</ele>
        <time>2020-03-10T07:45:09.000Z</time>
      </trkpt>
      <trkpt lat="45.4755" lon="4.75248">
        <ele>254.60000610352</ele>
        <time>2020-03-10T07:45:12.000Z</time>
      </trkpt>
      <trkpt lat="45.47554" lon="4.75248">
        <ele>255.19999694824</ele>
        <time>2020-03-10T07:45:14.000Z</time>
      </trkpt>
      <trkpt lat="45.47562" lon="4.75245">
        <ele>256.20001220703</ele>
        <time>2020-03-10T07:45:19.000Z</time>
      </trkpt>
      <trkpt lat="45.47563" lon="4.75244">
        <ele>256.39999389648</ele>
        <time>2020-03-10T07:45:21.000Z</time>
      </trkpt>
      <trkpt lat="45.47564" lon="4.75244">
        <ele>256.79998779297</ele>
        <time>2020-03-10T07:45:22.000Z</time>
      </trkpt>
      <trkpt lat="45.47566" lon="4.75241">
        <ele>257.39999389648</ele>
        <time>2020-03-10T07:45:24.000Z</time>
      </trkpt>
      <trkpt lat="45.47569" lon="4.7524">
        <ele>257.79998779297</ele>
        <time>2020-03-10T07:45:26.000Z</time>
      </trkpt>
      <trkpt lat="45.47575" lon="4.75233">
        <ele>258.60000610352</ele>
        <time>2020-03-10T07:45:31.000Z</time>
      </trkpt>
      <trkpt lat="45.47576" lon="4.75231">
        <ele>258.79998779297</ele>
        <time>2020-03-10T07:45:32.000Z</time>
      </trkpt>
      <trkpt lat="45.47577" lon="4.75228">
        <ele>259.60000610352</ele>
        <time>2020-03-10T07:45:34.000Z</time>
      </trkpt>
      <trkpt lat="45.47579" lon="4.75227">
        <ele>259.79998779297</ele>
        <time>2020-03-10T07:45:35.000Z</time>
      </trkpt>
      <trkpt lat="45.47583" lon="4.75223">
        <ele>260.20001220703</ele>
        <time>2020-03-10T07:45:38.000Z</time>
      </trkpt>
      <trkpt lat="45.47584" lon="4.75222">
        <ele>260.39999389648</ele>
        <time>2020-03-10T07:45:39.000Z</time>
      </trkpt>
      <trkpt lat="45.47586" lon="4.75218">
        <ele>260.79998779297</ele>
        <time>2020-03-10T07:45:42.000Z</time>
      </trkpt>
      <trkpt lat="45.47591" lon="4.75211">
        <ele>262</ele>
        <time>2020-03-10T07:45:46.000Z</time>
      </trkpt>
      <trkpt lat="45.47596" lon="4.75209">
        <ele>262.20001220703</ele>
        <time>2020-03-10T07:45:49.000Z</time>
      </trkpt>
      <trkpt lat="45.476" lon="4.75207">
        <ele>262.39999389648</ele>
        <time>2020-03-10T07:45:51.000Z</time>
      </trkpt>
      <trkpt lat="45.47602" lon="4.75205">
        <ele>262.39999389648</ele>
        <time>2020-03-10T07:45:52.000Z</time>
      </trkpt>
      <trkpt lat="45.47609" lon="4.75202">
        <ele>262.60000610352</ele>
        <time>2020-03-10T07:45:55.000Z</time>
      </trkpt>
      <trkpt lat="45.47612" lon="4.75202">
        <ele>262.79998779297</ele>
        <time>2020-03-10T07:45:57.000Z</time>
      </trkpt>
      <trkpt lat="45.47613" lon="4.75201">
        <ele>263</ele>
        <time>2020-03-10T07:45:58.000Z</time>
      </trkpt>
      <trkpt lat="45.47619" lon="4.75198">
        <ele>263.79998779297</ele>
        <time>2020-03-10T07:46:02.000Z</time>
      </trkpt>
      <trkpt lat="45.47616" lon="4.75197">
        <ele>264</ele>
        <time>2020-03-10T07:46:04.000Z</time>
      </trkpt>
      <trkpt lat="45.47622" lon="4.75196">
        <ele>264.60000610352</ele>
        <time>2020-03-10T07:46:07.000Z</time>
      </trkpt>
      <trkpt lat="45.47624" lon="4.75196">
        <ele>264.79998779297</ele>
        <time>2020-03-10T07:46:08.000Z</time>
      </trkpt>
      <trkpt lat="45.47628" lon="4.75193">
        <ele>265.20001220703</ele>
        <time>2020-03-10T07:46:11.000Z</time>
      </trkpt>
      <trkpt lat="45.4763" lon="4.75191">
        <ele>265.20001220703</ele>
        <time>2020-03-10T07:46:12.000Z</time>
      </trkpt>
      <trkpt lat="45.47632" lon="4.75188">
        <ele>266</ele>
        <time>2020-03-10T07:46:14.000Z</time>
      </trkpt>
      <trkpt lat="45.47634" lon="4.75187">
        <ele>266.20001220703</ele>
        <time>2020-03-10T07:46:15.000Z</time>
      </trkpt>
      <trkpt lat="45.47636" lon="4.75185">
        <ele>266.79998779297</ele>
        <time>2020-03-10T07:46:17.000Z</time>
      </trkpt>
      <trkpt lat="45.47638" lon="4.75184">
        <ele>267</ele>
        <time>2020-03-10T07:46:18.000Z</time>
      </trkpt>
      <trkpt lat="45.47641" lon="4.75183">
        <ele>267.39999389648</ele>
        <time>2020-03-10T07:46:20.000Z</time>
      </trkpt>
      <trkpt lat="45.47645" lon="4.75181">
        <ele>267.60000610352</ele>
        <time>2020-03-10T07:46:22.000Z</time>
      </trkpt>
      <trkpt lat="45.47648" lon="4.75179">
        <ele>268</ele>
        <time>2020-03-10T07:46:24.000Z</time>
      </trkpt>
      <trkpt lat="45.47652" lon="4.75179">
        <ele>268.39999389648</ele>
        <time>2020-03-10T07:46:26.000Z</time>
      </trkpt>
      <trkpt lat="45.4766" lon="4.7518">
        <ele>269.60000610352</ele>
        <time>2020-03-10T07:46:31.000Z</time>
      </trkpt>
      <trkpt lat="45.47661" lon="4.75181">
        <ele>269.60000610352</ele>
        <time>2020-03-10T07:46:32.000Z</time>
      </trkpt>
      <trkpt lat="45.47666" lon="4.75181">
        <ele>270.20001220703</ele>
        <time>2020-03-10T07:46:35.000Z</time>
      </trkpt>
      <trkpt lat="45.47667" lon="4.7518">
        <ele>270.60000610352</ele>
        <time>2020-03-10T07:46:36.000Z</time>
      </trkpt>
      <trkpt lat="45.47667" lon="4.7518">
        <ele>271.60000610352</ele>
        <time>2020-03-10T07:46:38.000Z</time>
      </trkpt>
      <trkpt lat="45.47668" lon="4.7518">
        <ele>271.79998779297</ele>
        <time>2020-03-10T07:46:39.000Z</time>
      </trkpt>
      <trkpt lat="45.47671" lon="4.7518">
        <ele>272.39999389648</ele>
        <time>2020-03-10T07:46:41.000Z</time>
      </trkpt>
      <trkpt lat="45.47672" lon="4.7518">
        <ele>272.60000610352</ele>
        <time>2020-03-10T07:46:42.000Z</time>
      </trkpt>
      <trkpt lat="45.47674" lon="4.7518">
        <ele>273</ele>
        <time>2020-03-10T07:46:43.000Z</time>
      </trkpt>
      <trkpt lat="45.47678" lon="4.7518">
        <ele>274</ele>
        <time>2020-03-10T07:46:46.000Z</time>
      </trkpt>
      <trkpt lat="45.47679" lon="4.7518">
        <ele>274</ele>
        <time>2020-03-10T07:46:47.000Z</time>
      </trkpt>
      <trkpt lat="45.47685" lon="4.75179">
        <ele>275</ele>
        <time>2020-03-10T07:46:52.000Z</time>
      </trkpt>
      <trkpt lat="45.47685" lon="4.75178">
        <ele>275.39999389648</ele>
        <time>2020-03-10T07:46:53.000Z</time>
      </trkpt>
      <trkpt lat="45.47686" lon="4.75177">
        <ele>275.60000610352</ele>
        <time>2020-03-10T07:46:54.000Z</time>
      </trkpt>
      <trkpt lat="45.47689" lon="4.75174">
        <ele>276.39999389648</ele>
        <time>2020-03-10T07:46:57.000Z</time>
      </trkpt>
      <trkpt lat="45.47693" lon="4.75172">
        <ele>276.79998779297</ele>
        <time>2020-03-10T07:46:59.000Z</time>
      </trkpt>
      <trkpt lat="45.47699" lon="4.75168">
        <ele>277.39999389648</ele>
        <time>2020-03-10T07:47:02.000Z</time>
      </trkpt>
      <trkpt lat="45.47702" lon="4.75164">
        <ele>278.60000610352</ele>
        <time>2020-03-10T07:47:05.000Z</time>
      </trkpt>
      <trkpt lat="45.47704" lon="4.75159">
        <ele>279.60000610352</ele>
        <time>2020-03-10T07:47:10.000Z</time>
      </trkpt>
      <trkpt lat="45.47704" lon="4.75157">
        <ele>279.79998779297</ele>
        <time>2020-03-10T07:47:11.000Z</time>
      </trkpt>
      <trkpt lat="45.47704" lon="4.75156">
        <ele>280.20001220703</ele>
        <time>2020-03-10T07:47:12.000Z</time>
      </trkpt>
      <trkpt lat="45.47703" lon="4.75154">
        <ele>281</ele>
        <time>2020-03-10T07:47:14.000Z</time>
      </trkpt>
      <trkpt lat="45.47703" lon="4.75152">
        <ele>281.79998779297</ele>
        <time>2020-03-10T07:47:17.000Z</time>
      </trkpt>
      <trkpt lat="45.47702" lon="4.75151">
        <ele>282</ele>
        <time>2020-03-10T07:47:18.000Z</time>
      </trkpt>
      <trkpt lat="45.47702" lon="4.7515">
        <ele>282.20001220703</ele>
        <time>2020-03-10T07:47:19.000Z</time>
      </trkpt>
      <trkpt lat="45.47701" lon="4.75149">
        <ele>282.79998779297</ele>
        <time>2020-03-10T07:47:21.000Z</time>
      </trkpt>
      <trkpt lat="45.477" lon="4.75148">
        <ele>283</ele>
        <time>2020-03-10T07:47:22.000Z</time>
      </trkpt>
      <trkpt lat="45.47699" lon="4.75147">
        <ele>283.39999389648</ele>
        <time>2020-03-10T07:47:23.000Z</time>
      </trkpt>
      <trkpt lat="45.477" lon="4.75144">
        <ele>284.39999389648</ele>
        <time>2020-03-10T07:47:25.000Z</time>
      </trkpt>
      <trkpt lat="45.47701" lon="4.75143">
        <ele>284.79998779297</ele>
        <time>2020-03-10T07:47:26.000Z</time>
      </trkpt>
      <trkpt lat="45.47703" lon="4.75141">
        <ele>285.39999389648</ele>
        <time>2020-03-10T07:47:28.000Z</time>
      </trkpt>
      <trkpt lat="45.47704" lon="4.75139">
        <ele>285.79998779297</ele>
        <time>2020-03-10T07:47:29.000Z</time>
      </trkpt>
      <trkpt lat="45.47705" lon="4.75138">
        <ele>286</ele>
        <time>2020-03-10T07:47:30.000Z</time>
      </trkpt>
      <trkpt lat="45.47707" lon="4.75136">
        <ele>286.79998779297</ele>
        <time>2020-03-10T07:47:32.000Z</time>
      </trkpt>
      <trkpt lat="45.47709" lon="4.75131">
        <ele>287.60000610352</ele>
        <time>2020-03-10T07:47:35.000Z</time>
      </trkpt>
      <trkpt lat="45.47709" lon="4.75129">
        <ele>287.79998779297</ele>
        <time>2020-03-10T07:47:37.000Z</time>
      </trkpt>
      <trkpt lat="45.47713" lon="4.75127">
        <ele>289</ele>
        <time>2020-03-10T07:47:40.000Z</time>
      </trkpt>
      <trkpt lat="45.47716" lon="4.75126">
        <ele>289.79998779297</ele>
        <time>2020-03-10T07:47:42.000Z</time>
      </trkpt>
      <trkpt lat="45.47717" lon="4.75127">
        <ele>290.20001220703</ele>
        <time>2020-03-10T07:47:43.000Z</time>
      </trkpt>
      <trkpt lat="45.47724" lon="4.75129">
        <ele>291.20001220703</ele>
        <time>2020-03-10T07:47:48.000Z</time>
      </trkpt>
      <trkpt lat="45.47726" lon="4.75129">
        <ele>291.60000610352</ele>
        <time>2020-03-10T07:47:49.000Z</time>
      </trkpt>
      <trkpt lat="45.4773" lon="4.7513">
        <ele>292.39999389648</ele>
        <time>2020-03-10T07:47:51.000Z</time>
      </trkpt>
      <trkpt lat="45.47732" lon="4.7513">
        <ele>292.60000610352</ele>
        <time>2020-03-10T07:47:52.000Z</time>
      </trkpt>
      <trkpt lat="45.47737" lon="4.75131">
        <ele>293</ele>
        <time>2020-03-10T07:47:55.000Z</time>
      </trkpt>
      <trkpt lat="45.4774" lon="4.75134">
        <ele>293.79998779297</ele>
        <time>2020-03-10T07:47:57.000Z</time>
      </trkpt>
      <trkpt lat="45.47746" lon="4.75137">
        <ele>294.79998779297</ele>
        <time>2020-03-10T07:48:02.000Z</time>
      </trkpt>
      <trkpt lat="45.47758" lon="4.75136">
        <ele>295.79998779297</ele>
        <time>2020-03-10T07:48:08.000Z</time>
      </trkpt>
      <trkpt lat="45.4776" lon="4.75136">
        <ele>296</ele>
        <time>2020-03-10T07:48:09.000Z</time>
      </trkpt>
      <trkpt lat="45.47765" lon="4.75136">
        <ele>296.20001220703</ele>
        <time>2020-03-10T07:48:12.000Z</time>
      </trkpt>
      <trkpt lat="45.47768" lon="4.75137">
        <ele>296.39999389648</ele>
        <time>2020-03-10T07:48:14.000Z</time>
      </trkpt>
      <trkpt lat="45.4777" lon="4.75138">
        <ele>296.60000610352</ele>
        <time>2020-03-10T07:48:16.000Z</time>
      </trkpt>
      <trkpt lat="45.47772" lon="4.75138">
        <ele>296.79998779297</ele>
        <time>2020-03-10T07:48:17.000Z</time>
      </trkpt>
      <trkpt lat="45.47774" lon="4.75138">
        <ele>297.20001220703</ele>
        <time>2020-03-10T07:48:18.000Z</time>
      </trkpt>
      <trkpt lat="45.47776" lon="4.75138">
        <ele>297.20001220703</ele>
        <time>2020-03-10T07:48:19.000Z</time>
      </trkpt>
      <trkpt lat="45.47778" lon="4.75139">
        <ele>297.39999389648</ele>
        <time>2020-03-10T07:48:20.000Z</time>
      </trkpt>
      <trkpt lat="45.47781" lon="4.75139">
        <ele>297.39999389648</ele>
        <time>2020-03-10T07:48:22.000Z</time>
      </trkpt>
      <trkpt lat="45.47784" lon="4.75139">
        <ele>298</ele>
        <time>2020-03-10T07:48:24.000Z</time>
      </trkpt>
      <trkpt lat="45.47789" lon="4.75141">
        <ele>298.39999389648</ele>
        <time>2020-03-10T07:48:26.000Z</time>
      </trkpt>
      <trkpt lat="45.47799" lon="4.75146">
        <ele>298.79998779297</ele>
        <time>2020-03-10T07:48:32.000Z</time>
      </trkpt>
      <trkpt lat="45.47802" lon="4.75148">
        <ele>299.20001220703</ele>
        <time>2020-03-10T07:48:34.000Z</time>
      </trkpt>
      <trkpt lat="45.47804" lon="4.75148">
        <ele>299.39999389648</ele>
        <time>2020-03-10T07:48:35.000Z</time>
      </trkpt>
      <trkpt lat="45.47808" lon="4.7515">
        <ele>300</ele>
        <time>2020-03-10T07:48:38.000Z</time>
      </trkpt>
      <trkpt lat="45.4781" lon="4.7515">
        <ele>300</ele>
        <time>2020-03-10T07:48:39.000Z</time>
      </trkpt>
      <trkpt lat="45.47816" lon="4.75152">
        <ele>299.79998779297</ele>
        <time>2020-03-10T07:48:42.000Z</time>
      </trkpt>
      <trkpt lat="45.47817" lon="4.75152">
        <ele>300</ele>
        <time>2020-03-10T07:48:43.000Z</time>
      </trkpt>
      <trkpt lat="45.4782" lon="4.75152">
        <ele>300</ele>
        <time>2020-03-10T07:48:45.000Z</time>
      </trkpt>
      <trkpt lat="45.47828" lon="4.75151">
        <ele>300</ele>
        <time>2020-03-10T07:48:49.000Z</time>
      </trkpt>
      <trkpt lat="45.47833" lon="4.7515">
        <ele>299.79998779297</ele>
        <time>2020-03-10T07:48:52.000Z</time>
      </trkpt>
      <trkpt lat="45.47846" lon="4.75146">
        <ele>300</ele>
        <time>2020-03-10T07:48:58.000Z</time>
      </trkpt>
      <trkpt lat="45.47853" lon="4.75143">
        <ele>300.20001220703</ele>
        <time>2020-03-10T07:49:02.000Z</time>
      </trkpt>
      <trkpt lat="45.47854" lon="4.75142">
        <ele>300.20001220703</ele>
        <time>2020-03-10T07:49:03.000Z</time>
      </trkpt>
      <trkpt lat="45.4786" lon="4.7514">
        <ele>300.39999389648</ele>
        <time>2020-03-10T07:49:06.000Z</time>
      </trkpt>
      <trkpt lat="45.47865" lon="4.7514">
        <ele>300.60000610352</ele>
        <time>2020-03-10T07:49:09.000Z</time>
      </trkpt>
      <trkpt lat="45.4787" lon="4.75143">
        <ele>300.79998779297</ele>
        <time>2020-03-10T07:49:12.000Z</time>
      </trkpt>
      <trkpt lat="45.47875" lon="4.75148">
        <ele>300.79998779297</ele>
        <time>2020-03-10T07:49:15.000Z</time>
      </trkpt>
      <trkpt lat="45.47889" lon="4.75155">
        <ele>300</ele>
        <time>2020-03-10T07:49:20.000Z</time>
      </trkpt>
      <trkpt lat="45.47894" lon="4.75159">
        <ele>299.20001220703</ele>
        <time>2020-03-10T07:49:22.000Z</time>
      </trkpt>
      <trkpt lat="45.47901" lon="4.75162">
        <ele>298</ele>
        <time>2020-03-10T07:49:25.000Z</time>
      </trkpt>
      <trkpt lat="45.47905" lon="4.7516">
        <ele>297.60000610352</ele>
        <time>2020-03-10T07:49:27.000Z</time>
      </trkpt>
      <trkpt lat="45.4791" lon="4.75158">
        <ele>297.20001220703</ele>
        <time>2020-03-10T07:49:29.000Z</time>
      </trkpt>
      <trkpt lat="45.47916" lon="4.75155">
        <ele>297.39999389648</ele>
        <time>2020-03-10T07:49:32.000Z</time>
      </trkpt>
      <trkpt lat="45.4792" lon="4.75152">
        <ele>297.60000610352</ele>
        <time>2020-03-10T07:49:34.000Z</time>
      </trkpt>
      <trkpt lat="45.47925" lon="4.7515">
        <ele>297.60000610352</ele>
        <time>2020-03-10T07:49:36.000Z</time>
      </trkpt>
      <trkpt lat="45.47927" lon="4.75149">
        <ele>297.60000610352</ele>
        <time>2020-03-10T07:49:37.000Z</time>
      </trkpt>
      <trkpt lat="45.47929" lon="4.75149">
        <ele>297.60000610352</ele>
        <time>2020-03-10T07:49:38.000Z</time>
      </trkpt>
      <trkpt lat="45.47931" lon="4.75147">
        <ele>297.79998779297</ele>
        <time>2020-03-10T07:49:40.000Z</time>
      </trkpt>
      <trkpt lat="45.47934" lon="4.75146">
        <ele>298.20001220703</ele>
        <time>2020-03-10T07:49:42.000Z</time>
      </trkpt>
      <trkpt lat="45.47942" lon="4.75143">
        <ele>299</ele>
        <time>2020-03-10T07:49:46.000Z</time>
      </trkpt>
      <trkpt lat="45.47954" lon="4.75135">
        <ele>298.79998779297</ele>
        <time>2020-03-10T07:49:52.000Z</time>
      </trkpt>
      <trkpt lat="45.47958" lon="4.75132">
        <ele>299.20001220703</ele>
        <time>2020-03-10T07:49:56.000Z</time>
      </trkpt>
      <trkpt lat="45.4796" lon="4.75131">
        <ele>300</ele>
        <time>2020-03-10T07:49:58.000Z</time>
      </trkpt>
      <trkpt lat="45.47962" lon="4.7513">
        <ele>300.39999389648</ele>
        <time>2020-03-10T07:49:59.000Z</time>
      </trkpt>
      <trkpt lat="45.47968" lon="4.75128">
        <ele>300.79998779297</ele>
        <time>2020-03-10T07:50:02.000Z</time>
      </trkpt>
      <trkpt lat="45.47971" lon="4.75124">
        <ele>300.60000610352</ele>
        <time>2020-03-10T07:50:04.000Z</time>
      </trkpt>
      <trkpt lat="45.47976" lon="4.75119">
        <ele>299.79998779297</ele>
        <time>2020-03-10T07:50:07.000Z</time>
      </trkpt>
      <trkpt lat="45.47978" lon="4.75118">
        <ele>299.20001220703</ele>
        <time>2020-03-10T07:50:08.000Z</time>
      </trkpt>
      <trkpt lat="45.4798" lon="4.75117">
        <ele>298.79998779297</ele>
        <time>2020-03-10T07:50:09.000Z</time>
      </trkpt>
      <trkpt lat="45.47984" lon="4.75114">
        <ele>298</ele>
        <time>2020-03-10T07:50:11.000Z</time>
      </trkpt>
      <trkpt lat="45.47987" lon="4.75112">
        <ele>297.39999389648</ele>
        <time>2020-03-10T07:50:12.000Z</time>
      </trkpt>
      <trkpt lat="45.47989" lon="4.7511">
        <ele>296.79998779297</ele>
        <time>2020-03-10T07:50:13.000Z</time>
      </trkpt>
      <trkpt lat="45.47993" lon="4.75107">
        <ele>295.79998779297</ele>
        <time>2020-03-10T07:50:15.000Z</time>
      </trkpt>
      <trkpt lat="45.47996" lon="4.75105">
        <ele>295.20001220703</ele>
        <time>2020-03-10T07:50:16.000Z</time>
      </trkpt>
      <trkpt lat="45.47999" lon="4.75102">
        <ele>294.79998779297</ele>
        <time>2020-03-10T07:50:17.000Z</time>
      </trkpt>
      <trkpt lat="45.48007" lon="4.75097">
        <ele>293.20001220703</ele>
        <time>2020-03-10T07:50:20.000Z</time>
      </trkpt>
      <trkpt lat="45.48011" lon="4.75094">
        <ele>292.20001220703</ele>
        <time>2020-03-10T07:50:22.000Z</time>
      </trkpt>
      <trkpt lat="45.48014" lon="4.75092">
        <ele>291.60000610352</ele>
        <time>2020-03-10T07:50:23.000Z</time>
      </trkpt>
      <trkpt lat="45.48016" lon="4.7509">
        <ele>291</ele>
        <time>2020-03-10T07:50:24.000Z</time>
      </trkpt>
      <trkpt lat="45.48021" lon="4.75085">
        <ele>290</ele>
        <time>2020-03-10T07:50:28.000Z</time>
      </trkpt>
      <trkpt lat="45.48023" lon="4.75083">
        <ele>290</ele>
        <time>2020-03-10T07:50:29.000Z</time>
      </trkpt>
      <trkpt lat="45.48026" lon="4.7508">
        <ele>289.79998779297</ele>
        <time>2020-03-10T07:50:31.000Z</time>
      </trkpt>
      <trkpt lat="45.48029" lon="4.75078">
        <ele>289.79998779297</ele>
        <time>2020-03-10T07:50:32.000Z</time>
      </trkpt>
      <trkpt lat="45.48042" lon="4.7507">
        <ele>289.20001220703</ele>
        <time>2020-03-10T07:50:36.000Z</time>
      </trkpt>
      <trkpt lat="45.48051" lon="4.75061">
        <ele>288.79998779297</ele>
        <time>2020-03-10T07:50:41.000Z</time>
      </trkpt>
      <trkpt lat="45.48052" lon="4.75059">
        <ele>288.60000610352</ele>
        <time>2020-03-10T07:50:42.000Z</time>
      </trkpt>
      <trkpt lat="45.48055" lon="4.75057">
        <ele>288.39999389648</ele>
        <time>2020-03-10T07:50:43.000Z</time>
      </trkpt>
      <trkpt lat="45.4806" lon="4.75052">
        <ele>287.60000610352</ele>
        <time>2020-03-10T07:50:46.000Z</time>
      </trkpt>
      <trkpt lat="45.48067" lon="4.75043">
        <ele>286.79998779297</ele>
        <time>2020-03-10T07:50:49.000Z</time>
      </trkpt>
      <trkpt lat="45.48069" lon="4.75041">
        <ele>286.39999389648</ele>
        <time>2020-03-10T07:50:50.000Z</time>
      </trkpt>
      <trkpt lat="45.48073" lon="4.75036">
        <ele>285.20001220703</ele>
        <time>2020-03-10T07:50:52.000Z</time>
      </trkpt>
      <trkpt lat="45.48078" lon="4.75032">
        <ele>284</ele>
        <time>2020-03-10T07:50:54.000Z</time>
      </trkpt>
      <trkpt lat="45.48086" lon="4.75028">
        <ele>282.60000610352</ele>
        <time>2020-03-10T07:50:57.000Z</time>
      </trkpt>
      <trkpt lat="45.48089" lon="4.75024">
        <ele>281.60000610352</ele>
        <time>2020-03-10T07:50:59.000Z</time>
      </trkpt>
      <trkpt lat="45.48089" lon="4.75022">
        <ele>281.20001220703</ele>
        <time>2020-03-10T07:51:00.000Z</time>
      </trkpt>
      <trkpt lat="45.48087" lon="4.75019">
        <ele>280.39999389648</ele>
        <time>2020-03-10T07:51:02.000Z</time>
      </trkpt>
      <trkpt lat="45.48086" lon="4.75017">
        <ele>280</ele>
        <time>2020-03-10T07:51:03.000Z</time>
      </trkpt>
      <trkpt lat="45.48082" lon="4.75013">
        <ele>278.79998779297</ele>
        <time>2020-03-10T07:51:06.000Z</time>
      </trkpt>
      <trkpt lat="45.48078" lon="4.75008">
        <ele>278</ele>
        <time>2020-03-10T07:51:08.000Z</time>
      </trkpt>
      <trkpt lat="45.48076" lon="4.75005">
        <ele>277.60000610352</ele>
        <time>2020-03-10T07:51:09.000Z</time>
      </trkpt>
      <trkpt lat="45.4807" lon="4.74999">
        <ele>277</ele>
        <time>2020-03-10T07:51:12.000Z</time>
      </trkpt>
      <trkpt lat="45.48069" lon="4.74996">
        <ele>276.79998779297</ele>
        <time>2020-03-10T07:51:13.000Z</time>
      </trkpt>
      <trkpt lat="45.48069" lon="4.74994">
        <ele>276.60000610352</ele>
        <time>2020-03-10T07:51:14.000Z</time>
      </trkpt>
      <trkpt lat="45.48069" lon="4.7499">
        <ele>276.39999389648</ele>
        <time>2020-03-10T07:51:17.000Z</time>
      </trkpt>
      <trkpt lat="45.48069" lon="4.74987">
        <ele>276.60000610352</ele>
        <time>2020-03-10T07:51:19.000Z</time>
      </trkpt>
      <trkpt lat="45.48066" lon="4.74983">
        <ele>277.39999389648</ele>
        <time>2020-03-10T07:51:22.000Z</time>
      </trkpt>
      <trkpt lat="45.48067" lon="4.74978">
        <ele>277.79998779297</ele>
        <time>2020-03-10T07:51:23.000Z</time>
      </trkpt>
      <trkpt lat="45.48063" lon="4.74972">
        <ele>279</ele>
        <time>2020-03-10T07:51:26.000Z</time>
      </trkpt>
      <trkpt lat="45.48061" lon="4.74968">
        <ele>279.79998779297</ele>
        <time>2020-03-10T07:51:28.000Z</time>
      </trkpt>
      <trkpt lat="45.48059" lon="4.74967">
        <ele>280</ele>
        <time>2020-03-10T07:51:29.000Z</time>
      </trkpt>
      <trkpt lat="45.48057" lon="4.74963">
        <ele>281.20001220703</ele>
        <time>2020-03-10T07:51:32.000Z</time>
      </trkpt>
      <trkpt lat="45.48054" lon="4.74957">
        <ele>282</ele>
        <time>2020-03-10T07:51:35.000Z</time>
      </trkpt>
      <trkpt lat="45.48053" lon="4.74956">
        <ele>282.20001220703</ele>
        <time>2020-03-10T07:51:36.000Z</time>
      </trkpt>
      <trkpt lat="45.48052" lon="4.74954">
        <ele>282.39999389648</ele>
        <time>2020-03-10T07:51:37.000Z</time>
      </trkpt>
      <trkpt lat="45.4805" lon="4.74948">
        <ele>283.39999389648</ele>
        <time>2020-03-10T07:51:40.000Z</time>
      </trkpt>
      <trkpt lat="45.4805" lon="4.74945">
        <ele>283.79998779297</ele>
        <time>2020-03-10T07:51:41.000Z</time>
      </trkpt>
      <trkpt lat="45.48049" lon="4.74944">
        <ele>284</ele>
        <time>2020-03-10T07:51:42.000Z</time>
      </trkpt>
      <trkpt lat="45.4805" lon="4.74941">
        <ele>284.39999389648</ele>
        <time>2020-03-10T07:51:44.000Z</time>
      </trkpt>
      <trkpt lat="45.48053" lon="4.74934">
        <ele>285</ele>
        <time>2020-03-10T07:51:47.000Z</time>
      </trkpt>
      <trkpt lat="45.48056" lon="4.74929">
        <ele>285.60000610352</ele>
        <time>2020-03-10T07:51:49.000Z</time>
      </trkpt>
      <trkpt lat="45.48055" lon="4.74926">
        <ele>286.39999389648</ele>
        <time>2020-03-10T07:51:51.000Z</time>
      </trkpt>
      <trkpt lat="45.48055" lon="4.74925">
        <ele>286.60000610352</ele>
        <time>2020-03-10T07:51:52.000Z</time>
      </trkpt>
      <trkpt lat="45.48056" lon="4.74924">
        <ele>286.79998779297</ele>
        <time>2020-03-10T07:51:53.000Z</time>
      </trkpt>
      <trkpt lat="45.48056" lon="4.74923">
        <ele>286.79998779297</ele>
        <time>2020-03-10T07:51:54.000Z</time>
      </trkpt>
      <trkpt lat="45.48056" lon="4.74917">
        <ele>288</ele>
        <time>2020-03-10T07:51:57.000Z</time>
      </trkpt>
      <trkpt lat="45.48056" lon="4.74913">
        <ele>288.39999389648</ele>
        <time>2020-03-10T07:51:59.000Z</time>
      </trkpt>
      <trkpt lat="45.48056" lon="4.74905">
        <ele>289.20001220703</ele>
        <time>2020-03-10T07:52:02.000Z</time>
      </trkpt>
      <trkpt lat="45.48057" lon="4.74898">
        <ele>290</ele>
        <time>2020-03-10T07:52:05.000Z</time>
      </trkpt>
      <trkpt lat="45.48057" lon="4.74895">
        <ele>290.20001220703</ele>
        <time>2020-03-10T07:52:06.000Z</time>
      </trkpt>
      <trkpt lat="45.48057" lon="4.74895">
        <ele>290.60000610352</ele>
        <time>2020-03-10T07:52:07.000Z</time>
      </trkpt>
      <trkpt lat="45.4806" lon="4.7489">
        <ele>291.20001220703</ele>
        <time>2020-03-10T07:52:10.000Z</time>
      </trkpt>
      <trkpt lat="45.48062" lon="4.74888">
        <ele>291.39999389648</ele>
        <time>2020-03-10T07:52:11.000Z</time>
      </trkpt>
      <trkpt lat="45.48063" lon="4.74888">
        <ele>291.60000610352</ele>
        <time>2020-03-10T07:52:12.000Z</time>
      </trkpt>
      <trkpt lat="45.48063" lon="4.74885">
        <ele>292</ele>
        <time>2020-03-10T07:52:14.000Z</time>
      </trkpt>
      <trkpt lat="45.48064" lon="4.74883">
        <ele>292.20001220703</ele>
        <time>2020-03-10T07:52:16.000Z</time>
      </trkpt>
      <trkpt lat="45.48064" lon="4.7488">
        <ele>292.60000610352</ele>
        <time>2020-03-10T07:52:17.000Z</time>
      </trkpt>
      <trkpt lat="45.48064" lon="4.74878">
        <ele>293</ele>
        <time>2020-03-10T07:52:18.000Z</time>
      </trkpt>
      <trkpt lat="45.48066" lon="4.74874">
        <ele>293.79998779297</ele>
        <time>2020-03-10T07:52:20.000Z</time>
      </trkpt>
      <trkpt lat="45.48066" lon="4.74872">
        <ele>294.20001220703</ele>
        <time>2020-03-10T07:52:21.000Z</time>
      </trkpt>
      <trkpt lat="45.48067" lon="4.74869">
        <ele>294.60000610352</ele>
        <time>2020-03-10T07:52:22.000Z</time>
      </trkpt>
      <trkpt lat="45.48067" lon="4.74864">
        <ele>295</ele>
        <time>2020-03-10T07:52:24.000Z</time>
      </trkpt>
      <trkpt lat="45.48067" lon="4.74861">
        <ele>295.39999389648</ele>
        <time>2020-03-10T07:52:25.000Z</time>
      </trkpt>
      <trkpt lat="45.48068" lon="4.74856">
        <ele>295.60000610352</ele>
        <time>2020-03-10T07:52:27.000Z</time>
      </trkpt>
      <trkpt lat="45.48068" lon="4.74855">
        <ele>296</ele>
        <time>2020-03-10T07:52:28.000Z</time>
      </trkpt>
      <trkpt lat="45.48066" lon="4.7485">
        <ele>296.39999389648</ele>
        <time>2020-03-10T07:52:29.000Z</time>
      </trkpt>
      <trkpt lat="45.48067" lon="4.74843">
        <ele>297.20001220703</ele>
        <time>2020-03-10T07:52:32.000Z</time>
      </trkpt>
      <trkpt lat="45.48067" lon="4.74841">
        <ele>297.39999389648</ele>
        <time>2020-03-10T07:52:34.000Z</time>
      </trkpt>
      <trkpt lat="45.48068" lon="4.74838">
        <ele>297.60000610352</ele>
        <time>2020-03-10T07:52:36.000Z</time>
      </trkpt>
      <trkpt lat="45.48067" lon="4.74837">
        <ele>298</ele>
        <time>2020-03-10T07:52:37.000Z</time>
      </trkpt>
      <trkpt lat="45.48069" lon="4.74835">
        <ele>298.60000610352</ele>
        <time>2020-03-10T07:52:39.000Z</time>
      </trkpt>
      <trkpt lat="45.48069" lon="4.74834">
        <ele>298.79998779297</ele>
        <time>2020-03-10T07:52:40.000Z</time>
      </trkpt>
      <trkpt lat="45.48069" lon="4.74832">
        <ele>299.20001220703</ele>
        <time>2020-03-10T07:52:41.000Z</time>
      </trkpt>
      <trkpt lat="45.4807" lon="4.74831">
        <ele>299.60000610352</ele>
        <time>2020-03-10T07:52:42.000Z</time>
      </trkpt>
      <trkpt lat="45.4807" lon="4.74828">
        <ele>299.79998779297</ele>
        <time>2020-03-10T07:52:43.000Z</time>
      </trkpt>
      <trkpt lat="45.4807" lon="4.74827">
        <ele>300</ele>
        <time>2020-03-10T07:52:44.000Z</time>
      </trkpt>
      <trkpt lat="45.48071" lon="4.74826">
        <ele>300.39999389648</ele>
        <time>2020-03-10T07:52:45.000Z</time>
      </trkpt>
      <trkpt lat="45.48071" lon="4.74825">
        <ele>300.79998779297</ele>
        <time>2020-03-10T07:52:46.000Z</time>
      </trkpt>
      <trkpt lat="45.48072" lon="4.74824">
        <ele>301.20001220703</ele>
        <time>2020-03-10T07:52:47.000Z</time>
      </trkpt>
      <trkpt lat="45.48071" lon="4.74821">
        <ele>301.60000610352</ele>
        <time>2020-03-10T07:52:48.000Z</time>
      </trkpt>
      <trkpt lat="45.48071" lon="4.74821">
        <ele>301.79998779297</ele>
        <time>2020-03-10T07:52:49.000Z</time>
      </trkpt>
      <trkpt lat="45.48071" lon="4.7482">
        <ele>302.20001220703</ele>
        <time>2020-03-10T07:52:50.000Z</time>
      </trkpt>
      <trkpt lat="45.48072" lon="4.74816">
        <ele>302.60000610352</ele>
        <time>2020-03-10T07:52:52.000Z</time>
      </trkpt>
      <trkpt lat="45.48073" lon="4.74812">
        <ele>303.39999389648</ele>
        <time>2020-03-10T07:52:55.000Z</time>
      </trkpt>
      <trkpt lat="45.48073" lon="4.7481">
        <ele>303.60000610352</ele>
        <time>2020-03-10T07:52:56.000Z</time>
      </trkpt>
      <trkpt lat="45.48072" lon="4.74792">
        <ele>304.20001220703</ele>
        <time>2020-03-10T07:53:02.000Z</time>
      </trkpt>
      <trkpt lat="45.48073" lon="4.74786">
        <ele>304.39999389648</ele>
        <time>2020-03-10T07:53:04.000Z</time>
      </trkpt>
      <trkpt lat="45.48074" lon="4.74784">
        <ele>304.60000610352</ele>
        <time>2020-03-10T07:53:05.000Z</time>
      </trkpt>
      <trkpt lat="45.48076" lon="4.74781">
        <ele>305</ele>
        <time>2020-03-10T07:53:07.000Z</time>
      </trkpt>
      <trkpt lat="45.48076" lon="4.74779">
        <ele>305.20001220703</ele>
        <time>2020-03-10T07:53:08.000Z</time>
      </trkpt>
      <trkpt lat="45.48076" lon="4.74777">
        <ele>305.39999389648</ele>
        <time>2020-03-10T07:53:09.000Z</time>
      </trkpt>
      <trkpt lat="45.48075" lon="4.74773">
        <ele>305.39999389648</ele>
        <time>2020-03-10T07:53:10.000Z</time>
      </trkpt>
      <trkpt lat="45.48074" lon="4.74767">
        <ele>305.60000610352</ele>
        <time>2020-03-10T07:53:12.000Z</time>
      </trkpt>
      <trkpt lat="45.4807" lon="4.7476">
        <ele>305.79998779297</ele>
        <time>2020-03-10T07:53:13.000Z</time>
      </trkpt>
      <trkpt lat="45.48062" lon="4.74752">
        <ele>305.20001220703</ele>
        <time>2020-03-10T07:53:16.000Z</time>
      </trkpt>
      <trkpt lat="45.4806" lon="4.74751">
        <ele>305.39999389648</ele>
        <time>2020-03-10T07:53:17.000Z</time>
      </trkpt>
      <trkpt lat="45.48059" lon="4.74752">
        <ele>305.39999389648</ele>
        <time>2020-03-10T07:53:18.000Z</time>
      </trkpt>
      <trkpt lat="45.48054" lon="4.74752">
        <ele>306.20001220703</ele>
        <time>2020-03-10T07:53:22.000Z</time>
      </trkpt>
      <trkpt lat="45.48053" lon="4.74752">
        <ele>306.39999389648</ele>
        <time>2020-03-10T07:53:23.000Z</time>
      </trkpt>
      <trkpt lat="45.48052" lon="4.74751">
        <ele>306.79998779297</ele>
        <time>2020-03-10T07:53:24.000Z</time>
      </trkpt>
      <trkpt lat="45.48052" lon="4.74751">
        <ele>307</ele>
        <time>2020-03-10T07:53:25.000Z</time>
      </trkpt>
      <trkpt lat="45.48051" lon="4.74754">
        <ele>308</ele>
        <time>2020-03-10T07:53:29.000Z</time>
      </trkpt>
      <trkpt lat="45.4805" lon="4.74756">
        <ele>308.20001220703</ele>
        <time>2020-03-10T07:53:30.000Z</time>
      </trkpt>
      <trkpt lat="45.48049" lon="4.74759">
        <ele>309</ele>
        <time>2020-03-10T07:53:32.000Z</time>
      </trkpt>
      <trkpt lat="45.48048" lon="4.74761">
        <ele>309.20001220703</ele>
        <time>2020-03-10T07:53:33.000Z</time>
      </trkpt>
      <trkpt lat="45.48048" lon="4.74765">
        <ele>309.79998779297</ele>
        <time>2020-03-10T07:53:35.000Z</time>
      </trkpt>
      <trkpt lat="45.48046" lon="4.7477">
        <ele>310.39999389648</ele>
        <time>2020-03-10T07:53:37.000Z</time>
      </trkpt>
      <trkpt lat="45.48044" lon="4.74777">
        <ele>311.20001220703</ele>
        <time>2020-03-10T07:53:40.000Z</time>
      </trkpt>
      <trkpt lat="45.48043" lon="4.74781">
        <ele>311.60000610352</ele>
        <time>2020-03-10T07:53:42.000Z</time>
      </trkpt>
      <trkpt lat="45.48042" lon="4.74785">
        <ele>312.20001220703</ele>
        <time>2020-03-10T07:53:44.000Z</time>
      </trkpt>
      <trkpt lat="45.48042" lon="4.74792">
        <ele>312.79998779297</ele>
        <time>2020-03-10T07:53:48.000Z</time>
      </trkpt>
      <trkpt lat="45.48041" lon="4.74794">
        <ele>313</ele>
        <time>2020-03-10T07:53:49.000Z</time>
      </trkpt>
      <trkpt lat="45.48041" lon="4.74796">
        <ele>313</ele>
        <time>2020-03-10T07:53:50.000Z</time>
      </trkpt>
      <trkpt lat="45.48041" lon="4.74798">
        <ele>313.20001220703</ele>
        <time>2020-03-10T07:53:51.000Z</time>
      </trkpt>
      <trkpt lat="45.4804" lon="4.748">
        <ele>313.39999389648</ele>
        <time>2020-03-10T07:53:52.000Z</time>
      </trkpt>
      <trkpt lat="45.4804" lon="4.74802">
        <ele>313.79998779297</ele>
        <time>2020-03-10T07:53:54.000Z</time>
      </trkpt>
      <trkpt lat="45.48039" lon="4.74802">
        <ele>314</ele>
        <time>2020-03-10T07:53:55.000Z</time>
      </trkpt>
      <trkpt lat="45.48037" lon="4.74802">
        <ele>314.39999389648</ele>
        <time>2020-03-10T07:53:56.000Z</time>
      </trkpt>
      <trkpt lat="45.48032" lon="4.748">
        <ele>315.20001220703</ele>
        <time>2020-03-10T07:53:59.000Z</time>
      </trkpt>
      <trkpt lat="45.48031" lon="4.74798">
        <ele>315.39999389648</ele>
        <time>2020-03-10T07:54:00.000Z</time>
      </trkpt>
      <trkpt lat="45.4803" lon="4.74796">
        <ele>315.60000610352</ele>
        <time>2020-03-10T07:54:01.000Z</time>
      </trkpt>
      <trkpt lat="45.48029" lon="4.74794">
        <ele>315.79998779297</ele>
        <time>2020-03-10T07:54:02.000Z</time>
      </trkpt>
      <trkpt lat="45.48028" lon="4.74792">
        <ele>316.20001220703</ele>
        <time>2020-03-10T07:54:04.000Z</time>
      </trkpt>
      <trkpt lat="45.48028" lon="4.7479">
        <ele>316.39999389648</ele>
        <time>2020-03-10T07:54:05.000Z</time>
      </trkpt>
      <trkpt lat="45.48028" lon="4.74789">
        <ele>316.60000610352</ele>
        <time>2020-03-10T07:54:06.000Z</time>
      </trkpt>
      <trkpt lat="45.48029" lon="4.74781">
        <ele>317.20001220703</ele>
        <time>2020-03-10T07:54:10.000Z</time>
      </trkpt>
      <trkpt lat="45.48028" lon="4.7478">
        <ele>317.39999389648</ele>
        <time>2020-03-10T07:54:11.000Z</time>
      </trkpt>
      <trkpt lat="45.48028" lon="4.74779">
        <ele>317.79998779297</ele>
        <time>2020-03-10T07:54:12.000Z</time>
      </trkpt>
      <trkpt lat="45.48025" lon="4.74776">
        <ele>318.39999389648</ele>
        <time>2020-03-10T07:54:14.000Z</time>
      </trkpt>
      <trkpt lat="45.4802" lon="4.74772">
        <ele>318.79998779297</ele>
        <time>2020-03-10T07:54:17.000Z</time>
      </trkpt>
      <trkpt lat="45.4801" lon="4.74768">
        <ele>319</ele>
        <time>2020-03-10T07:54:22.000Z</time>
      </trkpt>
      <trkpt lat="45.48007" lon="4.74767">
        <ele>319.20001220703</ele>
        <time>2020-03-10T07:54:23.000Z</time>
      </trkpt>
      <trkpt lat="45.47991" lon="4.74765">
        <ele>319</ele>
        <time>2020-03-10T07:54:31.000Z</time>
      </trkpt>
      <trkpt lat="45.47989" lon="4.74765">
        <ele>319</ele>
        <time>2020-03-10T07:54:32.000Z</time>
      </trkpt>
      <trkpt lat="45.47973" lon="4.74764">
        <ele>318.79998779297</ele>
        <time>2020-03-10T07:54:39.000Z</time>
      </trkpt>
      <trkpt lat="45.47967" lon="4.74762">
        <ele>318.39999389648</ele>
        <time>2020-03-10T07:54:42.000Z</time>
      </trkpt>
      <trkpt lat="45.47962" lon="4.74759">
        <ele>318.39999389648</ele>
        <time>2020-03-10T07:54:45.000Z</time>
      </trkpt>
      <trkpt lat="45.47951" lon="4.74751">
        <ele>318.60000610352</ele>
        <time>2020-03-10T07:54:52.000Z</time>
      </trkpt>
      <trkpt lat="45.47934" lon="4.74756">
        <ele>319.60000610352</ele>
        <time>2020-03-10T07:54:59.000Z</time>
      </trkpt>
      <trkpt lat="45.47927" lon="4.74757">
        <ele>320.60000610352</ele>
        <time>2020-03-10T07:55:02.000Z</time>
      </trkpt>
      <trkpt lat="45.47922" lon="4.74755">
        <ele>321.79998779297</ele>
        <time>2020-03-10T07:55:05.000Z</time>
      </trkpt>
      <trkpt lat="45.47912" lon="4.74754">
        <ele>323</ele>
        <time>2020-03-10T07:55:10.000Z</time>
      </trkpt>
      <trkpt lat="45.4791" lon="4.74753">
        <ele>323.20001220703</ele>
        <time>2020-03-10T07:55:11.000Z</time>
      </trkpt>
      <trkpt lat="45.47909" lon="4.74753">
        <ele>323.39999389648</ele>
        <time>2020-03-10T07:55:12.000Z</time>
      </trkpt>
      <trkpt lat="45.47906" lon="4.74751">
        <ele>323.60000610352</ele>
        <time>2020-03-10T07:55:14.000Z</time>
      </trkpt>
      <trkpt lat="45.47902" lon="4.74751">
        <ele>324</ele>
        <time>2020-03-10T07:55:16.000Z</time>
      </trkpt>
      <trkpt lat="45.47901" lon="4.74751">
        <ele>324</ele>
        <time>2020-03-10T07:55:17.000Z</time>
      </trkpt>
      <trkpt lat="45.47894" lon="4.74749">
        <ele>325.20001220703</ele>
        <time>2020-03-10T07:55:21.000Z</time>
      </trkpt>
      <trkpt lat="45.47892" lon="4.74749">
        <ele>325.39999389648</ele>
        <time>2020-03-10T07:55:22.000Z</time>
      </trkpt>
      <trkpt lat="45.47891" lon="4.74749">
        <ele>325.39999389648</ele>
        <time>2020-03-10T07:55:23.000Z</time>
      </trkpt>
      <trkpt lat="45.47883" lon="4.74745">
        <ele>326.39999389648</ele>
        <time>2020-03-10T07:55:28.000Z</time>
      </trkpt>
      <trkpt lat="45.4788" lon="4.74743">
        <ele>326.79998779297</ele>
        <time>2020-03-10T07:55:30.000Z</time>
      </trkpt>
      <trkpt lat="45.47877" lon="4.7474">
        <ele>327</ele>
        <time>2020-03-10T07:55:32.000Z</time>
      </trkpt>
      <trkpt lat="45.47872" lon="4.74737">
        <ele>327.39999389648</ele>
        <time>2020-03-10T07:55:35.000Z</time>
      </trkpt>
      <trkpt lat="45.4787" lon="4.74736">
        <ele>327.60000610352</ele>
        <time>2020-03-10T07:55:36.000Z</time>
      </trkpt>
      <trkpt lat="45.47858" lon="4.74728">
        <ele>328.20001220703</ele>
        <time>2020-03-10T07:55:42.000Z</time>
      </trkpt>
      <trkpt lat="45.47856" lon="4.74727">
        <ele>328.39999389648</ele>
        <time>2020-03-10T07:55:43.000Z</time>
      </trkpt>
      <trkpt lat="45.47854" lon="4.74725">
        <ele>328.79998779297</ele>
        <time>2020-03-10T07:55:44.000Z</time>
      </trkpt>
      <trkpt lat="45.47843" lon="4.74718">
        <ele>329</ele>
        <time>2020-03-10T07:55:50.000Z</time>
      </trkpt>
      <trkpt lat="45.47839" lon="4.74715">
        <ele>329.20001220703</ele>
        <time>2020-03-10T07:55:52.000Z</time>
      </trkpt>
      <trkpt lat="45.47829" lon="4.74709">
        <ele>330</ele>
        <time>2020-03-10T07:55:58.000Z</time>
      </trkpt>
      <trkpt lat="45.47827" lon="4.74708">
        <ele>330</ele>
        <time>2020-03-10T07:55:59.000Z</time>
      </trkpt>
      <trkpt lat="45.47822" lon="4.74705">
        <ele>330.39999389648</ele>
        <time>2020-03-10T07:56:02.000Z</time>
      </trkpt>
      <trkpt lat="45.47814" lon="4.74698">
        <ele>330.39999389648</ele>
        <time>2020-03-10T07:56:06.000Z</time>
      </trkpt>
      <trkpt lat="45.47804" lon="4.74688">
        <ele>331</ele>
        <time>2020-03-10T07:56:12.000Z</time>
      </trkpt>
      <trkpt lat="45.47803" lon="4.74687">
        <ele>331</ele>
        <time>2020-03-10T07:56:13.000Z</time>
      </trkpt>
      <trkpt lat="45.47799" lon="4.74684">
        <ele>331.20001220703</ele>
        <time>2020-03-10T07:56:15.000Z</time>
      </trkpt>
      <trkpt lat="45.47788" lon="4.74675">
        <ele>331.39999389648</ele>
        <time>2020-03-10T07:56:21.000Z</time>
      </trkpt>
      <trkpt lat="45.47786" lon="4.74673">
        <ele>331.79998779297</ele>
        <time>2020-03-10T07:56:22.000Z</time>
      </trkpt>
      <trkpt lat="45.47774" lon="4.74664">
        <ele>332</ele>
        <time>2020-03-10T07:56:29.000Z</time>
      </trkpt>
      <trkpt lat="45.47772" lon="4.74662">
        <ele>332.39999389648</ele>
        <time>2020-03-10T07:56:30.000Z</time>
      </trkpt>
      <trkpt lat="45.47768" lon="4.74659">
        <ele>332.60000610352</ele>
        <time>2020-03-10T07:56:32.000Z</time>
      </trkpt>
      <trkpt lat="45.47759" lon="4.74651">
        <ele>333</ele>
        <time>2020-03-10T07:56:37.000Z</time>
      </trkpt>
      <trkpt lat="45.4775" lon="4.74641">
        <ele>333</ele>
        <time>2020-03-10T07:56:42.000Z</time>
      </trkpt>
      <trkpt lat="45.47747" lon="4.74636">
        <ele>333</ele>
        <time>2020-03-10T07:56:44.000Z</time>
      </trkpt>
      <trkpt lat="45.47732" lon="4.74623">
        <ele>333</ele>
        <time>2020-03-10T07:56:52.000Z</time>
      </trkpt>
      <trkpt lat="45.47727" lon="4.74619">
        <ele>333.39999389648</ele>
        <time>2020-03-10T07:56:55.000Z</time>
      </trkpt>
      <trkpt lat="45.47721" lon="4.74613">
        <ele>334</ele>
        <time>2020-03-10T07:56:59.000Z</time>
      </trkpt>
      <trkpt lat="45.47715" lon="4.74608">
        <ele>334.39999389648</ele>
        <time>2020-03-10T07:57:02.000Z</time>
      </trkpt>
      <trkpt lat="45.47711" lon="4.74605">
        <ele>334.39999389648</ele>
        <time>2020-03-10T07:57:04.000Z</time>
      </trkpt>
      <trkpt lat="45.47707" lon="4.74601">
        <ele>334.60000610352</ele>
        <time>2020-03-10T07:57:06.000Z</time>
      </trkpt>
      <trkpt lat="45.47696" lon="4.74589">
        <ele>334.39999389648</ele>
        <time>2020-03-10T07:57:12.000Z</time>
      </trkpt>
      <trkpt lat="45.47684" lon="4.74578">
        <ele>335.20001220703</ele>
        <time>2020-03-10T07:57:19.000Z</time>
      </trkpt>
      <trkpt lat="45.47679" lon="4.74573">
        <ele>335.39999389648</ele>
        <time>2020-03-10T07:57:22.000Z</time>
      </trkpt>
      <trkpt lat="45.47673" lon="4.74568">
        <ele>335.60000610352</ele>
        <time>2020-03-10T07:57:25.000Z</time>
      </trkpt>
      <trkpt lat="45.47663" lon="4.74557">
        <ele>335.60000610352</ele>
        <time>2020-03-10T07:57:31.000Z</time>
      </trkpt>
      <trkpt lat="45.47661" lon="4.74555">
        <ele>335.60000610352</ele>
        <time>2020-03-10T07:57:32.000Z</time>
      </trkpt>
      <trkpt lat="45.47655" lon="4.74549">
        <ele>335.60000610352</ele>
        <time>2020-03-10T07:57:35.000Z</time>
      </trkpt>
      <trkpt lat="45.47648" lon="4.74543">
        <ele>335.79998779297</ele>
        <time>2020-03-10T07:57:38.000Z</time>
      </trkpt>
      <trkpt lat="45.47645" lon="4.7454">
        <ele>336</ele>
        <time>2020-03-10T07:57:39.000Z</time>
      </trkpt>
      <trkpt lat="45.47637" lon="4.74534">
        <ele>336</ele>
        <time>2020-03-10T07:57:42.000Z</time>
      </trkpt>
      <trkpt lat="45.47632" lon="4.74529">
        <ele>335.79998779297</ele>
        <time>2020-03-10T07:57:44.000Z</time>
      </trkpt>
      <trkpt lat="45.47622" lon="4.74519">
        <ele>334.79998779297</ele>
        <time>2020-03-10T07:57:49.000Z</time>
      </trkpt>
      <trkpt lat="45.47619" lon="4.74515">
        <ele>334.39999389648</ele>
        <time>2020-03-10T07:57:51.000Z</time>
      </trkpt>
      <trkpt lat="45.47617" lon="4.74513">
        <ele>334.39999389648</ele>
        <time>2020-03-10T07:57:52.000Z</time>
      </trkpt>
      <trkpt lat="45.4761" lon="4.74504">
        <ele>333.60000610352</ele>
        <time>2020-03-10T07:57:56.000Z</time>
      </trkpt>
      <trkpt lat="45.47598" lon="4.74491">
        <ele>333.39999389648</ele>
        <time>2020-03-10T07:58:02.000Z</time>
      </trkpt>
      <trkpt lat="45.47596" lon="4.74489">
        <ele>333.39999389648</ele>
        <time>2020-03-10T07:58:03.000Z</time>
      </trkpt>
      <trkpt lat="45.47584" lon="4.74477">
        <ele>332.20001220703</ele>
        <time>2020-03-10T07:58:09.000Z</time>
      </trkpt>
      <trkpt lat="45.47582" lon="4.74474">
        <ele>332</ele>
        <time>2020-03-10T07:58:10.000Z</time>
      </trkpt>
      <trkpt lat="45.47579" lon="4.7447">
        <ele>331.79998779297</ele>
        <time>2020-03-10T07:58:12.000Z</time>
      </trkpt>
      <trkpt lat="45.47569" lon="4.74459">
        <ele>331.39999389648</ele>
        <time>2020-03-10T07:58:17.000Z</time>
      </trkpt>
      <trkpt lat="45.47561" lon="4.74454">
        <ele>331.20001220703</ele>
        <time>2020-03-10T07:58:20.000Z</time>
      </trkpt>
      <trkpt lat="45.47556" lon="4.74453">
        <ele>331.20001220703</ele>
        <time>2020-03-10T07:58:22.000Z</time>
      </trkpt>
      <trkpt lat="45.47554" lon="4.74453">
        <ele>331.20001220703</ele>
        <time>2020-03-10T07:58:23.000Z</time>
      </trkpt>
      <trkpt lat="45.47542" lon="4.74452">
        <ele>330.39999389648</ele>
        <time>2020-03-10T07:58:28.000Z</time>
      </trkpt>
      <trkpt lat="45.4754" lon="4.74451">
        <ele>330.20001220703</ele>
        <time>2020-03-10T07:58:29.000Z</time>
      </trkpt>
      <trkpt lat="45.47532" lon="4.74446">
        <ele>329.60000610352</ele>
        <time>2020-03-10T07:58:32.000Z</time>
      </trkpt>
      <trkpt lat="45.47528" lon="4.74443">
        <ele>329</ele>
        <time>2020-03-10T07:58:34.000Z</time>
      </trkpt>
      <trkpt lat="45.47518" lon="4.74437">
        <ele>328</ele>
        <time>2020-03-10T07:58:38.000Z</time>
      </trkpt>
      <trkpt lat="45.47516" lon="4.74435">
        <ele>327.79998779297</ele>
        <time>2020-03-10T07:58:39.000Z</time>
      </trkpt>
      <trkpt lat="45.47511" lon="4.74431">
        <ele>327.20001220703</ele>
        <time>2020-03-10T07:58:41.000Z</time>
      </trkpt>
      <trkpt lat="45.47509" lon="4.74429">
        <ele>326.79998779297</ele>
        <time>2020-03-10T07:58:42.000Z</time>
      </trkpt>
      <trkpt lat="45.475" lon="4.74421">
        <ele>325.60000610352</ele>
        <time>2020-03-10T07:58:46.000Z</time>
      </trkpt>
      <trkpt lat="45.47495" lon="4.74418">
        <ele>325</ele>
        <time>2020-03-10T07:58:48.000Z</time>
      </trkpt>
      <trkpt lat="45.47493" lon="4.74416">
        <ele>324.39999389648</ele>
        <time>2020-03-10T07:58:49.000Z</time>
      </trkpt>
      <trkpt lat="45.47486" lon="4.74411">
        <ele>323.60000610352</ele>
        <time>2020-03-10T07:58:52.000Z</time>
      </trkpt>
      <trkpt lat="45.47482" lon="4.74407">
        <ele>323.39999389648</ele>
        <time>2020-03-10T07:58:54.000Z</time>
      </trkpt>
      <trkpt lat="45.47478" lon="4.74403">
        <ele>322.60000610352</ele>
        <time>2020-03-10T07:58:56.000Z</time>
      </trkpt>
      <trkpt lat="45.47474" lon="4.744">
        <ele>322.20001220703</ele>
        <time>2020-03-10T07:58:58.000Z</time>
      </trkpt>
      <trkpt lat="45.47468" lon="4.74392">
        <ele>320.79998779297</ele>
        <time>2020-03-10T07:59:01.000Z</time>
      </trkpt>
      <trkpt lat="45.47466" lon="4.74389">
        <ele>320.39999389648</ele>
        <time>2020-03-10T07:59:02.000Z</time>
      </trkpt>
      <trkpt lat="45.47461" lon="4.7438">
        <ele>319.60000610352</ele>
        <time>2020-03-10T07:59:05.000Z</time>
      </trkpt>
      <trkpt lat="45.47456" lon="4.74372">
        <ele>318.39999389648</ele>
        <time>2020-03-10T07:59:08.000Z</time>
      </trkpt>
      <trkpt lat="45.4745" lon="4.74365">
        <ele>317.20001220703</ele>
        <time>2020-03-10T07:59:11.000Z</time>
      </trkpt>
      <trkpt lat="45.47447" lon="4.74363">
        <ele>316.60000610352</ele>
        <time>2020-03-10T07:59:12.000Z</time>
      </trkpt>
      <trkpt lat="45.47442" lon="4.74361">
        <ele>315.79998779297</ele>
        <time>2020-03-10T07:59:14.000Z</time>
      </trkpt>
      <trkpt lat="45.47431" lon="4.74362">
        <ele>314.39999389648</ele>
        <time>2020-03-10T07:59:18.000Z</time>
      </trkpt>
      <trkpt lat="45.47426" lon="4.74362">
        <ele>313.20001220703</ele>
        <time>2020-03-10T07:59:20.000Z</time>
      </trkpt>
      <trkpt lat="45.47423" lon="4.74362">
        <ele>313</ele>
        <time>2020-03-10T07:59:21.000Z</time>
      </trkpt>
      <trkpt lat="45.4742" lon="4.74361">
        <ele>312.60000610352</ele>
        <time>2020-03-10T07:59:22.000Z</time>
      </trkpt>
      <trkpt lat="45.47418" lon="4.74359">
        <ele>312</ele>
        <time>2020-03-10T07:59:23.000Z</time>
      </trkpt>
      <trkpt lat="45.47415" lon="4.74357">
        <ele>311.60000610352</ele>
        <time>2020-03-10T07:59:24.000Z</time>
      </trkpt>
      <trkpt lat="45.47411" lon="4.74351">
        <ele>311.39999389648</ele>
        <time>2020-03-10T07:59:26.000Z</time>
      </trkpt>
      <trkpt lat="45.47407" lon="4.74346">
        <ele>310.79998779297</ele>
        <time>2020-03-10T07:59:28.000Z</time>
      </trkpt>
      <trkpt lat="45.47401" lon="4.74335">
        <ele>310.39999389648</ele>
        <time>2020-03-10T07:59:32.000Z</time>
      </trkpt>
      <trkpt lat="45.47399" lon="4.74323">
        <ele>310</ele>
        <time>2020-03-10T07:59:37.000Z</time>
      </trkpt>
      <trkpt lat="45.47408" lon="4.74315">
        <ele>311</ele>
        <time>2020-03-10T07:59:42.000Z</time>
      </trkpt>
      <trkpt lat="45.47411" lon="4.74314">
        <ele>311.20001220703</ele>
        <time>2020-03-10T07:59:43.000Z</time>
      </trkpt>
      <trkpt lat="45.47415" lon="4.7431">
        <ele>312</ele>
        <time>2020-03-10T07:59:46.000Z</time>
      </trkpt>
      <trkpt lat="45.47421" lon="4.74305">
        <ele>312.79998779297</ele>
        <time>2020-03-10T07:59:49.000Z</time>
      </trkpt>
      <trkpt lat="45.47423" lon="4.74303">
        <ele>313</ele>
        <time>2020-03-10T07:59:50.000Z</time>
      </trkpt>
      <trkpt lat="45.47425" lon="4.74302">
        <ele>313.20001220703</ele>
        <time>2020-03-10T07:59:51.000Z</time>
      </trkpt>
      <trkpt lat="45.47427" lon="4.743">
        <ele>313.79998779297</ele>
        <time>2020-03-10T07:59:52.000Z</time>
      </trkpt>
      <trkpt lat="45.47429" lon="4.74299">
        <ele>314</ele>
        <time>2020-03-10T07:59:53.000Z</time>
      </trkpt>
      <trkpt lat="45.47436" lon="4.74295">
        <ele>315</ele>
        <time>2020-03-10T07:59:57.000Z</time>
      </trkpt>
      <trkpt lat="45.47438" lon="4.74294">
        <ele>315.39999389648</ele>
        <time>2020-03-10T07:59:58.000Z</time>
      </trkpt>
      <trkpt lat="45.47439" lon="4.74293">
        <ele>315.79998779297</ele>
        <time>2020-03-10T07:59:59.000Z</time>
      </trkpt>
      <trkpt lat="45.4744" lon="4.7429">
        <ele>316</ele>
        <time>2020-03-10T08:00:00.000Z</time>
      </trkpt>
      <trkpt lat="45.47443" lon="4.74288">
        <ele>316.39999389648</ele>
        <time>2020-03-10T08:00:02.000Z</time>
      </trkpt>
      <trkpt lat="45.47448" lon="4.74284">
        <ele>317</ele>
        <time>2020-03-10T08:00:05.000Z</time>
      </trkpt>
      <trkpt lat="45.4745" lon="4.74283">
        <ele>317.20001220703</ele>
        <time>2020-03-10T08:00:06.000Z</time>
      </trkpt>
      <trkpt lat="45.47453" lon="4.7428">
        <ele>317.79998779297</ele>
        <time>2020-03-10T08:00:08.000Z</time>
      </trkpt>
      <trkpt lat="45.47455" lon="4.74278">
        <ele>317.79998779297</ele>
        <time>2020-03-10T08:00:09.000Z</time>
      </trkpt>
      <trkpt lat="45.47457" lon="4.74275">
        <ele>318.39999389648</ele>
        <time>2020-03-10T08:00:11.000Z</time>
      </trkpt>
      <trkpt lat="45.47459" lon="4.74274">
        <ele>318.39999389648</ele>
        <time>2020-03-10T08:00:12.000Z</time>
      </trkpt>
      <trkpt lat="45.47463" lon="4.7427">
        <ele>318.79998779297</ele>
        <time>2020-03-10T08:00:15.000Z</time>
      </trkpt>
      <trkpt lat="45.47468" lon="4.74266">
        <ele>319.39999389648</ele>
        <time>2020-03-10T08:00:18.000Z</time>
      </trkpt>
      <trkpt lat="45.47473" lon="4.7426">
        <ele>320.20001220703</ele>
        <time>2020-03-10T08:00:22.000Z</time>
      </trkpt>
      <trkpt lat="45.47476" lon="4.74257">
        <ele>320.79998779297</ele>
        <time>2020-03-10T08:00:24.000Z</time>
      </trkpt>
      <trkpt lat="45.47477" lon="4.74256">
        <ele>321.20001220703</ele>
        <time>2020-03-10T08:00:25.000Z</time>
      </trkpt>
      <trkpt lat="45.47481" lon="4.74251">
        <ele>321.79998779297</ele>
        <time>2020-03-10T08:00:28.000Z</time>
      </trkpt>
      <trkpt lat="45.47481" lon="4.74249">
        <ele>322</ele>
        <time>2020-03-10T08:00:29.000Z</time>
      </trkpt>
      <trkpt lat="45.47483" lon="4.74242">
        <ele>322.60000610352</ele>
        <time>2020-03-10T08:00:32.000Z</time>
      </trkpt>
      <trkpt lat="45.47483" lon="4.74234">
        <ele>322.79998779297</ele>
        <time>2020-03-10T08:00:35.000Z</time>
      </trkpt>
      <trkpt lat="45.47482" lon="4.74232">
        <ele>323</ele>
        <time>2020-03-10T08:00:36.000Z</time>
      </trkpt>
      <trkpt lat="45.47477" lon="4.74216">
        <ele>324.20001220703</ele>
        <time>2020-03-10T08:00:42.000Z</time>
      </trkpt>
      <trkpt lat="45.47477" lon="4.74214">
        <ele>324.39999389648</ele>
        <time>2020-03-10T08:00:43.000Z</time>
      </trkpt>
      <trkpt lat="45.47471" lon="4.74208">
        <ele>325</ele>
        <time>2020-03-10T08:00:46.000Z</time>
      </trkpt>
      <trkpt lat="45.47459" lon="4.74196">
        <ele>324.79998779297</ele>
        <time>2020-03-10T08:00:52.000Z</time>
      </trkpt>
      <trkpt lat="45.47457" lon="4.74193">
        <ele>324.60000610352</ele>
        <time>2020-03-10T08:00:53.000Z</time>
      </trkpt>
      <trkpt lat="45.47445" lon="4.74172">
        <ele>324.20001220703</ele>
        <time>2020-03-10T08:01:01.000Z</time>
      </trkpt>
      <trkpt lat="45.47444" lon="4.74169">
        <ele>324.20001220703</ele>
        <time>2020-03-10T08:01:02.000Z</time>
      </trkpt>
      <trkpt lat="45.47434" lon="4.74149">
        <ele>323.79998779297</ele>
        <time>2020-03-10T08:01:09.000Z</time>
      </trkpt>
      <trkpt lat="45.47431" lon="4.74141">
        <ele>323.60000610352</ele>
        <time>2020-03-10T08:01:12.000Z</time>
      </trkpt>
      <trkpt lat="45.47428" lon="4.74135">
        <ele>323.60000610352</ele>
        <time>2020-03-10T08:01:14.000Z</time>
      </trkpt>
      <trkpt lat="45.47419" lon="4.74114">
        <ele>323.20001220703</ele>
        <time>2020-03-10T08:01:21.000Z</time>
      </trkpt>
      <trkpt lat="45.47418" lon="4.74111">
        <ele>322.79998779297</ele>
        <time>2020-03-10T08:01:22.000Z</time>
      </trkpt>
      <trkpt lat="45.47407" lon="4.74094">
        <ele>322.20001220703</ele>
        <time>2020-03-10T08:01:28.000Z</time>
      </trkpt>
      <trkpt lat="45.47403" lon="4.74089">
        <ele>322</ele>
        <time>2020-03-10T08:01:30.000Z</time>
      </trkpt>
      <trkpt lat="45.474" lon="4.74083">
        <ele>322.20001220703</ele>
        <time>2020-03-10T08:01:32.000Z</time>
      </trkpt>
      <trkpt lat="45.47397" lon="4.74072">
        <ele>322.39999389648</ele>
        <time>2020-03-10T08:01:36.000Z</time>
      </trkpt>
      <trkpt lat="45.47399" lon="4.74054">
        <ele>323</ele>
        <time>2020-03-10T08:01:42.000Z</time>
      </trkpt>
      <trkpt lat="45.474" lon="4.74051">
        <ele>323.39999389648</ele>
        <time>2020-03-10T08:01:43.000Z</time>
      </trkpt>
      <trkpt lat="45.474" lon="4.74028">
        <ele>324.20001220703</ele>
        <time>2020-03-10T08:01:51.000Z</time>
      </trkpt>
      <trkpt lat="45.474" lon="4.74025">
        <ele>324.39999389648</ele>
        <time>2020-03-10T08:01:52.000Z</time>
      </trkpt>
      <trkpt lat="45.47398" lon="4.74012">
        <ele>325.20001220703</ele>
        <time>2020-03-10T08:01:57.000Z</time>
      </trkpt>
      <trkpt lat="45.47396" lon="4.74003">
        <ele>325.39999389648</ele>
        <time>2020-03-10T08:02:00.000Z</time>
      </trkpt>
      <trkpt lat="45.47396" lon="4.73997">
        <ele>325.60000610352</ele>
        <time>2020-03-10T08:02:02.000Z</time>
      </trkpt>
      <trkpt lat="45.47398" lon="4.73991">
        <ele>325.79998779297</ele>
        <time>2020-03-10T08:02:04.000Z</time>
      </trkpt>
      <trkpt lat="45.47399" lon="4.73989">
        <ele>325.79998779297</ele>
        <time>2020-03-10T08:02:05.000Z</time>
      </trkpt>
      <trkpt lat="45.47405" lon="4.73982">
        <ele>326.39999389648</ele>
        <time>2020-03-10T08:02:09.000Z</time>
      </trkpt>
      <trkpt lat="45.4741" lon="4.73975">
        <ele>326.79998779297</ele>
        <time>2020-03-10T08:02:12.000Z</time>
      </trkpt>
      <trkpt lat="45.47417" lon="4.7397">
        <ele>327</ele>
        <time>2020-03-10T08:02:15.000Z</time>
      </trkpt>
      <trkpt lat="45.47421" lon="4.73965">
        <ele>327.60000610352</ele>
        <time>2020-03-10T08:02:18.000Z</time>
      </trkpt>
      <trkpt lat="45.47422" lon="4.73963">
        <ele>327.79998779297</ele>
        <time>2020-03-10T08:02:19.000Z</time>
      </trkpt>
      <trkpt lat="45.47424" lon="4.73962">
        <ele>328</ele>
        <time>2020-03-10T08:02:20.000Z</time>
      </trkpt>
      <trkpt lat="45.47427" lon="4.73958">
        <ele>328.20001220703</ele>
        <time>2020-03-10T08:02:22.000Z</time>
      </trkpt>
      <trkpt lat="45.47432" lon="4.73951">
        <ele>328.39999389648</ele>
        <time>2020-03-10T08:02:25.000Z</time>
      </trkpt>
      <trkpt lat="45.47437" lon="4.73943">
        <ele>328.60000610352</ele>
        <time>2020-03-10T08:02:29.000Z</time>
      </trkpt>
      <trkpt lat="45.47441" lon="4.73936">
        <ele>329</ele>
        <time>2020-03-10T08:02:32.000Z</time>
      </trkpt>
      <trkpt lat="45.47449" lon="4.73929">
        <ele>329.60000610352</ele>
        <time>2020-03-10T08:02:37.000Z</time>
      </trkpt>
      <trkpt lat="45.4745" lon="4.73927">
        <ele>329.60000610352</ele>
        <time>2020-03-10T08:02:38.000Z</time>
      </trkpt>
      <trkpt lat="45.47455" lon="4.7392">
        <ele>329.79998779297</ele>
        <time>2020-03-10T08:02:42.000Z</time>
      </trkpt>
      <trkpt lat="45.47457" lon="4.73917">
        <ele>329.79998779297</ele>
        <time>2020-03-10T08:02:44.000Z</time>
      </trkpt>
      <trkpt lat="45.47461" lon="4.73911">
        <ele>330.79998779297</ele>
        <time>2020-03-10T08:02:47.000Z</time>
      </trkpt>
      <trkpt lat="45.47463" lon="4.73909">
        <ele>330.79998779297</ele>
        <time>2020-03-10T08:02:48.000Z</time>
      </trkpt>
      <trkpt lat="45.47467" lon="4.73903">
        <ele>331.39999389648</ele>
        <time>2020-03-10T08:02:51.000Z</time>
      </trkpt>
      <trkpt lat="45.47468" lon="4.73901">
        <ele>331.39999389648</ele>
        <time>2020-03-10T08:02:52.000Z</time>
      </trkpt>
      <trkpt lat="45.4747" lon="4.739">
        <ele>331.60000610352</ele>
        <time>2020-03-10T08:02:53.000Z</time>
      </trkpt>
      <trkpt lat="45.47474" lon="4.73891">
        <ele>331.79998779297</ele>
        <time>2020-03-10T08:02:57.000Z</time>
      </trkpt>
      <trkpt lat="45.4748" lon="4.73883">
        <ele>332.20001220703</ele>
        <time>2020-03-10T08:03:01.000Z</time>
      </trkpt>
      <trkpt lat="45.47481" lon="4.73881">
        <ele>332.60000610352</ele>
        <time>2020-03-10T08:03:02.000Z</time>
      </trkpt>
      <trkpt lat="45.47484" lon="4.73876">
        <ele>332.79998779297</ele>
        <time>2020-03-10T08:03:04.000Z</time>
      </trkpt>
      <trkpt lat="45.47488" lon="4.73871">
        <ele>333.60000610352</ele>
        <time>2020-03-10T08:03:07.000Z</time>
      </trkpt>
      <trkpt lat="45.47495" lon="4.73863">
        <ele>333.79998779297</ele>
        <time>2020-03-10T08:03:11.000Z</time>
      </trkpt>
      <trkpt lat="45.47497" lon="4.7386">
        <ele>334</ele>
        <time>2020-03-10T08:03:12.000Z</time>
      </trkpt>
      <trkpt lat="45.47504" lon="4.73848">
        <ele>334.60000610352</ele>
        <time>2020-03-10T08:03:17.000Z</time>
      </trkpt>
      <trkpt lat="45.47508" lon="4.73844">
        <ele>334.79998779297</ele>
        <time>2020-03-10T08:03:19.000Z</time>
      </trkpt>
      <trkpt lat="45.47511" lon="4.7384">
        <ele>335</ele>
        <time>2020-03-10T08:03:21.000Z</time>
      </trkpt>
      <trkpt lat="45.47512" lon="4.73838">
        <ele>335.20001220703</ele>
        <time>2020-03-10T08:03:22.000Z</time>
      </trkpt>
      <trkpt lat="45.47519" lon="4.73828">
        <ele>335.60000610352</ele>
        <time>2020-03-10T08:03:27.000Z</time>
      </trkpt>
      <trkpt lat="45.47526" lon="4.73817">
        <ele>335.79998779297</ele>
        <time>2020-03-10T08:03:32.000Z</time>
      </trkpt>
      <trkpt lat="45.47527" lon="4.73815">
        <ele>335.79998779297</ele>
        <time>2020-03-10T08:03:33.000Z</time>
      </trkpt>
      <trkpt lat="45.47533" lon="4.73809">
        <ele>336.20001220703</ele>
        <time>2020-03-10T08:03:36.000Z</time>
      </trkpt>
      <trkpt lat="45.4754" lon="4.738">
        <ele>336.79998779297</ele>
        <time>2020-03-10T08:03:41.000Z</time>
      </trkpt>
      <trkpt lat="45.47541" lon="4.73798">
        <ele>336.79998779297</ele>
        <time>2020-03-10T08:03:42.000Z</time>
      </trkpt>
      <trkpt lat="45.47547" lon="4.7379">
        <ele>337.39999389648</ele>
        <time>2020-03-10T08:03:46.000Z</time>
      </trkpt>
      <trkpt lat="45.4755" lon="4.73786">
        <ele>337.79998779297</ele>
        <time>2020-03-10T08:03:48.000Z</time>
      </trkpt>
      <trkpt lat="45.47556" lon="4.73777">
        <ele>338.20001220703</ele>
        <time>2020-03-10T08:03:52.000Z</time>
      </trkpt>
      <trkpt lat="45.4756" lon="4.73772">
        <ele>338.39999389648</ele>
        <time>2020-03-10T08:03:55.000Z</time>
      </trkpt>
      <trkpt lat="45.47561" lon="4.7377">
        <ele>338.39999389648</ele>
        <time>2020-03-10T08:03:56.000Z</time>
      </trkpt>
      <trkpt lat="45.47571" lon="4.73759">
        <ele>339</ele>
        <time>2020-03-10T08:04:02.000Z</time>
      </trkpt>
      <trkpt lat="45.47572" lon="4.73757">
        <ele>339.20001220703</ele>
        <time>2020-03-10T08:04:03.000Z</time>
      </trkpt>
      <trkpt lat="45.47576" lon="4.73752">
        <ele>339.39999389648</ele>
        <time>2020-03-10T08:04:06.000Z</time>
      </trkpt>
      <trkpt lat="45.4758" lon="4.73743">
        <ele>340.20001220703</ele>
        <time>2020-03-10T08:04:10.000Z</time>
      </trkpt>
      <trkpt lat="45.4758" lon="4.73741">
        <ele>340.39999389648</ele>
        <time>2020-03-10T08:04:11.000Z</time>
      </trkpt>
      <trkpt lat="45.47581" lon="4.73739">
        <ele>340.60000610352</ele>
        <time>2020-03-10T08:04:12.000Z</time>
      </trkpt>
      <trkpt lat="45.47589" lon="4.73729">
        <ele>341.20001220703</ele>
        <time>2020-03-10T08:04:17.000Z</time>
      </trkpt>
      <trkpt lat="45.47594" lon="4.73722">
        <ele>341.39999389648</ele>
        <time>2020-03-10T08:04:20.000Z</time>
      </trkpt>
      <trkpt lat="45.47597" lon="4.73718">
        <ele>342</ele>
        <time>2020-03-10T08:04:22.000Z</time>
      </trkpt>
      <trkpt lat="45.47601" lon="4.73713">
        <ele>342.39999389648</ele>
        <time>2020-03-10T08:04:25.000Z</time>
      </trkpt>
      <trkpt lat="45.47603" lon="4.73711">
        <ele>342.60000610352</ele>
        <time>2020-03-10T08:04:26.000Z</time>
      </trkpt>
      <trkpt lat="45.47604" lon="4.73709">
        <ele>342.79998779297</ele>
        <time>2020-03-10T08:04:27.000Z</time>
      </trkpt>
      <trkpt lat="45.47612" lon="4.737">
        <ele>343.39999389648</ele>
        <time>2020-03-10T08:04:32.000Z</time>
      </trkpt>
      <trkpt lat="45.47617" lon="4.73694">
        <ele>343.79998779297</ele>
        <time>2020-03-10T08:04:36.000Z</time>
      </trkpt>
      <trkpt lat="45.47619" lon="4.73691">
        <ele>344</ele>
        <time>2020-03-10T08:04:38.000Z</time>
      </trkpt>
      <trkpt lat="45.47622" lon="4.73686">
        <ele>344.39999389648</ele>
        <time>2020-03-10T08:04:40.000Z</time>
      </trkpt>
      <trkpt lat="45.47623" lon="4.73683">
        <ele>344.79998779297</ele>
        <time>2020-03-10T08:04:41.000Z</time>
      </trkpt>
      <trkpt lat="45.47624" lon="4.73681">
        <ele>345.20001220703</ele>
        <time>2020-03-10T08:04:42.000Z</time>
      </trkpt>
      <trkpt lat="45.47628" lon="4.73676">
        <ele>345.60000610352</ele>
        <time>2020-03-10T08:04:45.000Z</time>
      </trkpt>
      <trkpt lat="45.47629" lon="4.73674">
        <ele>345.60000610352</ele>
        <time>2020-03-10T08:04:46.000Z</time>
      </trkpt>
      <trkpt lat="45.47634" lon="4.73667">
        <ele>345.79998779297</ele>
        <time>2020-03-10T08:04:50.000Z</time>
      </trkpt>
      <trkpt lat="45.47636" lon="4.73665">
        <ele>346</ele>
        <time>2020-03-10T08:04:51.000Z</time>
      </trkpt>
      <trkpt lat="45.47638" lon="4.73664">
        <ele>346.20001220703</ele>
        <time>2020-03-10T08:04:52.000Z</time>
      </trkpt>
      <trkpt lat="45.47644" lon="4.73657">
        <ele>347</ele>
        <time>2020-03-10T08:04:56.000Z</time>
      </trkpt>
      <trkpt lat="45.47646" lon="4.73655">
        <ele>347.20001220703</ele>
        <time>2020-03-10T08:04:57.000Z</time>
      </trkpt>
      <trkpt lat="45.47649" lon="4.73653">
        <ele>347.79998779297</ele>
        <time>2020-03-10T08:04:59.000Z</time>
      </trkpt>
      <trkpt lat="45.4765" lon="4.73652">
        <ele>348</ele>
        <time>2020-03-10T08:05:00.000Z</time>
      </trkpt>
      <trkpt lat="45.47651" lon="4.7365">
        <ele>348.20001220703</ele>
        <time>2020-03-10T08:05:01.000Z</time>
      </trkpt>
      <trkpt lat="45.47653" lon="4.73648">
        <ele>348.20001220703</ele>
        <time>2020-03-10T08:05:02.000Z</time>
      </trkpt>
      <trkpt lat="45.47655" lon="4.73646">
        <ele>348.39999389648</ele>
        <time>2020-03-10T08:05:03.000Z</time>
      </trkpt>
      <trkpt lat="45.47662" lon="4.73636">
        <ele>349</ele>
        <time>2020-03-10T08:05:09.000Z</time>
      </trkpt>
      <trkpt lat="45.47665" lon="4.73633">
        <ele>349.39999389648</ele>
        <time>2020-03-10T08:05:11.000Z</time>
      </trkpt>
      <trkpt lat="45.47666" lon="4.73631">
        <ele>349.79998779297</ele>
        <time>2020-03-10T08:05:12.000Z</time>
      </trkpt>
      <trkpt lat="45.4767" lon="4.73626">
        <ele>350.20001220703</ele>
        <time>2020-03-10T08:05:15.000Z</time>
      </trkpt>
      <trkpt lat="45.47674" lon="4.73621">
        <ele>350.79998779297</ele>
        <time>2020-03-10T08:05:18.000Z</time>
      </trkpt>
      <trkpt lat="45.47677" lon="4.73619">
        <ele>351.20001220703</ele>
        <time>2020-03-10T08:05:20.000Z</time>
      </trkpt>
      <trkpt lat="45.47681" lon="4.73615">
        <ele>351.79998779297</ele>
        <time>2020-03-10T08:05:22.000Z</time>
      </trkpt>
      <trkpt lat="45.47685" lon="4.73609">
        <ele>352.20001220703</ele>
        <time>2020-03-10T08:05:25.000Z</time>
      </trkpt>
      <trkpt lat="45.47687" lon="4.73607">
        <ele>352.39999389648</ele>
        <time>2020-03-10T08:05:26.000Z</time>
      </trkpt>
      <trkpt lat="45.47695" lon="4.73594">
        <ele>353</ele>
        <time>2020-03-10T08:05:32.000Z</time>
      </trkpt>
      <trkpt lat="45.47696" lon="4.73592">
        <ele>353.20001220703</ele>
        <time>2020-03-10T08:05:33.000Z</time>
      </trkpt>
      <trkpt lat="45.477" lon="4.73588">
        <ele>353.60000610352</ele>
        <time>2020-03-10T08:05:36.000Z</time>
      </trkpt>
      <trkpt lat="45.47703" lon="4.73583">
        <ele>354.39999389648</ele>
        <time>2020-03-10T08:05:39.000Z</time>
      </trkpt>
      <trkpt lat="45.47704" lon="4.73582">
        <ele>354.60000610352</ele>
        <time>2020-03-10T08:05:40.000Z</time>
      </trkpt>
      <trkpt lat="45.47705" lon="4.7358">
        <ele>354.79998779297</ele>
        <time>2020-03-10T08:05:41.000Z</time>
      </trkpt>
      <trkpt lat="45.47706" lon="4.73578">
        <ele>355</ele>
        <time>2020-03-10T08:05:42.000Z</time>
      </trkpt>
      <trkpt lat="45.47713" lon="4.7357">
        <ele>355.79998779297</ele>
        <time>2020-03-10T08:05:47.000Z</time>
      </trkpt>
      <trkpt lat="45.47722" lon="4.73561">
        <ele>356.79998779297</ele>
        <time>2020-03-10T08:05:52.000Z</time>
      </trkpt>
      <trkpt lat="45.47723" lon="4.73559">
        <ele>357</ele>
        <time>2020-03-10T08:05:53.000Z</time>
      </trkpt>
      <trkpt lat="45.47727" lon="4.73551">
        <ele>357.60000610352</ele>
        <time>2020-03-10T08:05:57.000Z</time>
      </trkpt>
      <trkpt lat="45.47729" lon="4.73546">
        <ele>358</ele>
        <time>2020-03-10T08:05:59.000Z</time>
      </trkpt>
      <trkpt lat="45.4773" lon="4.73545">
        <ele>358.20001220703</ele>
        <time>2020-03-10T08:06:00.000Z</time>
      </trkpt>
      <trkpt lat="45.47733" lon="4.73541">
        <ele>358.60000610352</ele>
        <time>2020-03-10T08:06:02.000Z</time>
      </trkpt>
      <trkpt lat="45.47735" lon="4.73539">
        <ele>358.79998779297</ele>
        <time>2020-03-10T08:06:04.000Z</time>
      </trkpt>
      <trkpt lat="45.47738" lon="4.73535">
        <ele>359</ele>
        <time>2020-03-10T08:06:06.000Z</time>
      </trkpt>
      <trkpt lat="45.4774" lon="4.73533">
        <ele>359.20001220703</ele>
        <time>2020-03-10T08:06:07.000Z</time>
      </trkpt>
      <trkpt lat="45.47747" lon="4.73524">
        <ele>360</ele>
        <time>2020-03-10T08:06:12.000Z</time>
      </trkpt>
      <trkpt lat="45.47749" lon="4.73522">
        <ele>360.20001220703</ele>
        <time>2020-03-10T08:06:13.000Z</time>
      </trkpt>
      <trkpt lat="45.4775" lon="4.73521">
        <ele>360.20001220703</ele>
        <time>2020-03-10T08:06:14.000Z</time>
      </trkpt>
      <trkpt lat="45.47753" lon="4.73518">
        <ele>360.60000610352</ele>
        <time>2020-03-10T08:06:16.000Z</time>
      </trkpt>
      <trkpt lat="45.47758" lon="4.73509">
        <ele>361</ele>
        <time>2020-03-10T08:06:20.000Z</time>
      </trkpt>
      <trkpt lat="45.47761" lon="4.73506">
        <ele>361.20001220703</ele>
        <time>2020-03-10T08:06:22.000Z</time>
      </trkpt>
      <trkpt lat="45.47762" lon="4.73504">
        <ele>361.39999389648</ele>
        <time>2020-03-10T08:06:23.000Z</time>
      </trkpt>
      <trkpt lat="45.47765" lon="4.735">
        <ele>361.60000610352</ele>
        <time>2020-03-10T08:06:25.000Z</time>
      </trkpt>
      <trkpt lat="45.47773" lon="4.73489">
        <ele>362.39999389648</ele>
        <time>2020-03-10T08:06:31.000Z</time>
      </trkpt>
      <trkpt lat="45.47774" lon="4.73487">
        <ele>362.60000610352</ele>
        <time>2020-03-10T08:06:32.000Z</time>
      </trkpt>
      <trkpt lat="45.47777" lon="4.73483">
        <ele>363</ele>
        <time>2020-03-10T08:06:34.000Z</time>
      </trkpt>
      <trkpt lat="45.47779" lon="4.73476">
        <ele>363.79998779297</ele>
        <time>2020-03-10T08:06:37.000Z</time>
      </trkpt>
      <trkpt lat="45.47783" lon="4.73469">
        <ele>364.39999389648</ele>
        <time>2020-03-10T08:06:40.000Z</time>
      </trkpt>
      <trkpt lat="45.47785" lon="4.73465">
        <ele>364.60000610352</ele>
        <time>2020-03-10T08:06:42.000Z</time>
      </trkpt>
      <trkpt lat="45.47791" lon="4.73456">
        <ele>364.79998779297</ele>
        <time>2020-03-10T08:06:46.000Z</time>
      </trkpt>
      <trkpt lat="45.47792" lon="4.73453">
        <ele>365</ele>
        <time>2020-03-10T08:06:47.000Z</time>
      </trkpt>
      <trkpt lat="45.47797" lon="4.73443">
        <ele>365.79998779297</ele>
        <time>2020-03-10T08:06:52.000Z</time>
      </trkpt>
      <trkpt lat="45.47798" lon="4.73442">
        <ele>366</ele>
        <time>2020-03-10T08:06:53.000Z</time>
      </trkpt>
      <trkpt lat="45.47799" lon="4.7344">
        <ele>366.39999389648</ele>
        <time>2020-03-10T08:06:54.000Z</time>
      </trkpt>
      <trkpt lat="45.47802" lon="4.73438">
        <ele>367.20001220703</ele>
        <time>2020-03-10T08:06:56.000Z</time>
      </trkpt>
      <trkpt lat="45.47807" lon="4.73432">
        <ele>367.79998779297</ele>
        <time>2020-03-10T08:06:59.000Z</time>
      </trkpt>
      <trkpt lat="45.47812" lon="4.73427">
        <ele>368.20001220703</ele>
        <time>2020-03-10T08:07:02.000Z</time>
      </trkpt>
      <trkpt lat="45.47814" lon="4.73422">
        <ele>368.39999389648</ele>
        <time>2020-03-10T08:07:04.000Z</time>
      </trkpt>
      <trkpt lat="45.47819" lon="4.73417">
        <ele>368.79998779297</ele>
        <time>2020-03-10T08:07:07.000Z</time>
      </trkpt>
      <trkpt lat="45.47826" lon="4.73409">
        <ele>369.20001220703</ele>
        <time>2020-03-10T08:07:12.000Z</time>
      </trkpt>
      <trkpt lat="45.47828" lon="4.73407">
        <ele>369.60000610352</ele>
        <time>2020-03-10T08:07:13.000Z</time>
      </trkpt>
      <trkpt lat="45.4783" lon="4.73405">
        <ele>369.60000610352</ele>
        <time>2020-03-10T08:07:14.000Z</time>
      </trkpt>
      <trkpt lat="45.47839" lon="4.73394">
        <ele>370.20001220703</ele>
        <time>2020-03-10T08:07:20.000Z</time>
      </trkpt>
      <trkpt lat="45.47841" lon="4.7339">
        <ele>370.60000610352</ele>
        <time>2020-03-10T08:07:22.000Z</time>
      </trkpt>
      <trkpt lat="45.47847" lon="4.73382">
        <ele>371</ele>
        <time>2020-03-10T08:07:27.000Z</time>
      </trkpt>
      <trkpt lat="45.47849" lon="4.73375">
        <ele>371.60000610352</ele>
        <time>2020-03-10T08:07:30.000Z</time>
      </trkpt>
      <trkpt lat="45.4785" lon="4.73372">
        <ele>372</ele>
        <time>2020-03-10T08:07:31.000Z</time>
      </trkpt>
      <trkpt lat="45.47851" lon="4.7337">
        <ele>372.20001220703</ele>
        <time>2020-03-10T08:07:32.000Z</time>
      </trkpt>
      <trkpt lat="45.47852" lon="4.73368">
        <ele>372.20001220703</ele>
        <time>2020-03-10T08:07:33.000Z</time>
      </trkpt>
      <trkpt lat="45.47858" lon="4.73361">
        <ele>371.79998779297</ele>
        <time>2020-03-10T08:07:58.000Z</time>
      </trkpt>
      <trkpt lat="45.47859" lon="4.73355">
        <ele>371.79998779297</ele>
        <time>2020-03-10T08:08:02.000Z</time>
      </trkpt>
      <trkpt lat="45.47858" lon="4.73353">
        <ele>372</ele>
        <time>2020-03-10T08:08:03.000Z</time>
      </trkpt>
      <trkpt lat="45.47854" lon="4.73339">
        <ele>372.79998779297</ele>
        <time>2020-03-10T08:08:08.000Z</time>
      </trkpt>
      <trkpt lat="45.47853" lon="4.73335">
        <ele>372.79998779297</ele>
        <time>2020-03-10T08:08:10.000Z</time>
      </trkpt>
      <trkpt lat="45.47853" lon="4.73332">
        <ele>373.20001220703</ele>
        <time>2020-03-10T08:08:11.000Z</time>
      </trkpt>
      <trkpt lat="45.47852" lon="4.7333">
        <ele>373.79998779297</ele>
        <time>2020-03-10T08:08:12.000Z</time>
      </trkpt>
      <trkpt lat="45.47849" lon="4.73318">
        <ele>374.79998779297</ele>
        <time>2020-03-10T08:08:17.000Z</time>
      </trkpt>
      <trkpt lat="45.47848" lon="4.73316">
        <ele>374.79998779297</ele>
        <time>2020-03-10T08:08:18.000Z</time>
      </trkpt>
      <trkpt lat="45.47847" lon="4.73306">
        <ele>375.60000610352</ele>
        <time>2020-03-10T08:08:22.000Z</time>
      </trkpt>
      <trkpt lat="45.47846" lon="4.73303">
        <ele>376</ele>
        <time>2020-03-10T08:08:23.000Z</time>
      </trkpt>
      <trkpt lat="45.47845" lon="4.7329">
        <ele>377</ele>
        <time>2020-03-10T08:08:28.000Z</time>
      </trkpt>
      <trkpt lat="45.47844" lon="4.73282">
        <ele>377.60000610352</ele>
        <time>2020-03-10T08:08:31.000Z</time>
      </trkpt>
      <trkpt lat="45.47843" lon="4.73279">
        <ele>377.79998779297</ele>
        <time>2020-03-10T08:08:32.000Z</time>
      </trkpt>
      <trkpt lat="45.47842" lon="4.73275">
        <ele>378.20001220703</ele>
        <time>2020-03-10T08:08:34.000Z</time>
      </trkpt>
      <trkpt lat="45.4784" lon="4.73267">
        <ele>379.20001220703</ele>
        <time>2020-03-10T08:08:37.000Z</time>
      </trkpt>
      <trkpt lat="45.47837" lon="4.73257">
        <ele>379.79998779297</ele>
        <time>2020-03-10T08:08:42.000Z</time>
      </trkpt>
      <trkpt lat="45.47836" lon="4.73253">
        <ele>380.20001220703</ele>
        <time>2020-03-10T08:08:44.000Z</time>
      </trkpt>
      <trkpt lat="45.47836" lon="4.7325">
        <ele>380.39999389648</ele>
        <time>2020-03-10T08:08:45.000Z</time>
      </trkpt>
      <trkpt lat="45.47834" lon="4.73243">
        <ele>381.39999389648</ele>
        <time>2020-03-10T08:08:48.000Z</time>
      </trkpt>
      <trkpt lat="45.47833" lon="4.73234">
        <ele>382.39999389648</ele>
        <time>2020-03-10T08:08:52.000Z</time>
      </trkpt>
      <trkpt lat="45.47833" lon="4.73232">
        <ele>382.60000610352</ele>
        <time>2020-03-10T08:08:53.000Z</time>
      </trkpt>
      <trkpt lat="45.47832" lon="4.73231">
        <ele>382.79998779297</ele>
        <time>2020-03-10T08:08:54.000Z</time>
      </trkpt>
      <trkpt lat="45.47829" lon="4.73224">
        <ele>383.39999389648</ele>
        <time>2020-03-10T08:08:58.000Z</time>
      </trkpt>
      <trkpt lat="45.47828" lon="4.73219">
        <ele>383.60000610352</ele>
        <time>2020-03-10T08:09:00.000Z</time>
      </trkpt>
      <trkpt lat="45.47827" lon="4.73217">
        <ele>384</ele>
        <time>2020-03-10T08:09:01.000Z</time>
      </trkpt>
      <trkpt lat="45.47826" lon="4.73214">
        <ele>384</ele>
        <time>2020-03-10T08:09:02.000Z</time>
      </trkpt>
      <trkpt lat="45.47825" lon="4.73207">
        <ele>384.60000610352</ele>
        <time>2020-03-10T08:09:05.000Z</time>
      </trkpt>
      <trkpt lat="45.47825" lon="4.732">
        <ele>385.20001220703</ele>
        <time>2020-03-10T08:09:08.000Z</time>
      </trkpt>
      <trkpt lat="45.47823" lon="4.73196">
        <ele>385.60000610352</ele>
        <time>2020-03-10T08:09:10.000Z</time>
      </trkpt>
      <trkpt lat="45.47822" lon="4.73191">
        <ele>386.39999389648</ele>
        <time>2020-03-10T08:09:12.000Z</time>
      </trkpt>
      <trkpt lat="45.47822" lon="4.73189">
        <ele>386.60000610352</ele>
        <time>2020-03-10T08:09:13.000Z</time>
      </trkpt>
      <trkpt lat="45.4782" lon="4.73185">
        <ele>387</ele>
        <time>2020-03-10T08:09:15.000Z</time>
      </trkpt>
      <trkpt lat="45.47817" lon="4.73175">
        <ele>387.79998779297</ele>
        <time>2020-03-10T08:09:19.000Z</time>
      </trkpt>
      <trkpt lat="45.47816" lon="4.73171">
        <ele>388.39999389648</ele>
        <time>2020-03-10T08:09:21.000Z</time>
      </trkpt>
      <trkpt lat="45.47816" lon="4.73169">
        <ele>388.79998779297</ele>
        <time>2020-03-10T08:09:22.000Z</time>
      </trkpt>
      <trkpt lat="45.47814" lon="4.73167">
        <ele>389</ele>
        <time>2020-03-10T08:09:23.000Z</time>
      </trkpt>
      <trkpt lat="45.47814" lon="4.73165">
        <ele>389.39999389648</ele>
        <time>2020-03-10T08:09:24.000Z</time>
      </trkpt>
      <trkpt lat="45.47812" lon="4.73161">
        <ele>390.20001220703</ele>
        <time>2020-03-10T08:09:26.000Z</time>
      </trkpt>
      <trkpt lat="45.47811" lon="4.73156">
        <ele>390.39999389648</ele>
        <time>2020-03-10T08:09:28.000Z</time>
      </trkpt>
      <trkpt lat="45.47809" lon="4.7315">
        <ele>391.20001220703</ele>
        <time>2020-03-10T08:09:31.000Z</time>
      </trkpt>
      <trkpt lat="45.47808" lon="4.73148">
        <ele>391.39999389648</ele>
        <time>2020-03-10T08:09:32.000Z</time>
      </trkpt>
      <trkpt lat="45.47806" lon="4.73142">
        <ele>392</ele>
        <time>2020-03-10T08:09:34.000Z</time>
      </trkpt>
      <trkpt lat="45.47805" lon="4.73138">
        <ele>392.20001220703</ele>
        <time>2020-03-10T08:09:36.000Z</time>
      </trkpt>
      <trkpt lat="45.47803" lon="4.73129">
        <ele>393.20001220703</ele>
        <time>2020-03-10T08:09:40.000Z</time>
      </trkpt>
      <trkpt lat="45.47803" lon="4.73127">
        <ele>393.39999389648</ele>
        <time>2020-03-10T08:09:41.000Z</time>
      </trkpt>
      <trkpt lat="45.47802" lon="4.73125">
        <ele>393.60000610352</ele>
        <time>2020-03-10T08:09:42.000Z</time>
      </trkpt>
      <trkpt lat="45.478" lon="4.73119">
        <ele>394.60000610352</ele>
        <time>2020-03-10T08:09:45.000Z</time>
      </trkpt>
      <trkpt lat="45.47796" lon="4.7311">
        <ele>395.20001220703</ele>
        <time>2020-03-10T08:09:49.000Z</time>
      </trkpt>
      <trkpt lat="45.47794" lon="4.73105">
        <ele>395.79998779297</ele>
        <time>2020-03-10T08:09:51.000Z</time>
      </trkpt>
      <trkpt lat="45.47793" lon="4.73103">
        <ele>396.20001220703</ele>
        <time>2020-03-10T08:09:52.000Z</time>
      </trkpt>
      <trkpt lat="45.4779" lon="4.73099">
        <ele>397</ele>
        <time>2020-03-10T08:09:54.000Z</time>
      </trkpt>
      <trkpt lat="45.47788" lon="4.73096">
        <ele>397.60000610352</ele>
        <time>2020-03-10T08:09:56.000Z</time>
      </trkpt>
      <trkpt lat="45.47787" lon="4.73094">
        <ele>398.20001220703</ele>
        <time>2020-03-10T08:09:58.000Z</time>
      </trkpt>
      <trkpt lat="45.47783" lon="4.7309">
        <ele>399.39999389648</ele>
        <time>2020-03-10T08:10:02.000Z</time>
      </trkpt>
      <trkpt lat="45.47781" lon="4.73087">
        <ele>400</ele>
        <time>2020-03-10T08:10:04.000Z</time>
      </trkpt>
      <trkpt lat="45.47779" lon="4.73085">
        <ele>400.20001220703</ele>
        <time>2020-03-10T08:10:05.000Z</time>
      </trkpt>
      <trkpt lat="45.47778" lon="4.73083">
        <ele>400.60000610352</ele>
        <time>2020-03-10T08:10:06.000Z</time>
      </trkpt>
      <trkpt lat="45.47777" lon="4.73079">
        <ele>401</ele>
        <time>2020-03-10T08:10:08.000Z</time>
      </trkpt>
      <trkpt lat="45.47775" lon="4.73075">
        <ele>401.60000610352</ele>
        <time>2020-03-10T08:10:10.000Z</time>
      </trkpt>
      <trkpt lat="45.47773" lon="4.73071">
        <ele>402.20001220703</ele>
        <time>2020-03-10T08:10:12.000Z</time>
      </trkpt>
      <trkpt lat="45.4777" lon="4.73065">
        <ele>402.39999389648</ele>
        <time>2020-03-10T08:10:15.000Z</time>
      </trkpt>
      <trkpt lat="45.47768" lon="4.73059">
        <ele>402.79998779297</ele>
        <time>2020-03-10T08:10:18.000Z</time>
      </trkpt>
      <trkpt lat="45.47766" lon="4.73049">
        <ele>403</ele>
        <time>2020-03-10T08:10:22.000Z</time>
      </trkpt>
      <trkpt lat="45.47766" lon="4.73046">
        <ele>403</ele>
        <time>2020-03-10T08:10:23.000Z</time>
      </trkpt>
      <trkpt lat="45.47765" lon="4.73035">
        <ele>404</ele>
        <time>2020-03-10T08:10:27.000Z</time>
      </trkpt>
      <trkpt lat="45.47765" lon="4.73033">
        <ele>404.20001220703</ele>
        <time>2020-03-10T08:10:28.000Z</time>
      </trkpt>
      <trkpt lat="45.47764" lon="4.73028">
        <ele>405</ele>
        <time>2020-03-10T08:10:30.000Z</time>
      </trkpt>
      <trkpt lat="45.47764" lon="4.73024">
        <ele>405.20001220703</ele>
        <time>2020-03-10T08:10:31.000Z</time>
      </trkpt>
      <trkpt lat="45.47764" lon="4.73022">
        <ele>405.20001220703</ele>
        <time>2020-03-10T08:10:32.000Z</time>
      </trkpt>
      <trkpt lat="45.47763" lon="4.73018">
        <ele>405.60000610352</ele>
        <time>2020-03-10T08:10:34.000Z</time>
      </trkpt>
      <trkpt lat="45.47762" lon="4.73013">
        <ele>405.79998779297</ele>
        <time>2020-03-10T08:10:36.000Z</time>
      </trkpt>
      <trkpt lat="45.47761" lon="4.73008">
        <ele>406</ele>
        <time>2020-03-10T08:10:38.000Z</time>
      </trkpt>
      <trkpt lat="45.47761" lon="4.73006">
        <ele>406.39999389648</ele>
        <time>2020-03-10T08:10:39.000Z</time>
      </trkpt>
      <trkpt lat="45.4776" lon="4.73001">
        <ele>407.39999389648</ele>
        <time>2020-03-10T08:10:41.000Z</time>
      </trkpt>
      <trkpt lat="45.47759" lon="4.72998">
        <ele>407.79998779297</ele>
        <time>2020-03-10T08:10:42.000Z</time>
      </trkpt>
      <trkpt lat="45.47759" lon="4.7299">
        <ele>408.39999389648</ele>
        <time>2020-03-10T08:10:45.000Z</time>
      </trkpt>
      <trkpt lat="45.47758" lon="4.72985">
        <ele>409</ele>
        <time>2020-03-10T08:10:47.000Z</time>
      </trkpt>
      <trkpt lat="45.47758" lon="4.72977">
        <ele>409.60000610352</ele>
        <time>2020-03-10T08:10:50.000Z</time>
      </trkpt>
      <trkpt lat="45.47757" lon="4.7297">
        <ele>409.79998779297</ele>
        <time>2020-03-10T08:10:52.000Z</time>
      </trkpt>
      <trkpt lat="45.47757" lon="4.72965">
        <ele>410.20001220703</ele>
        <time>2020-03-10T08:10:54.000Z</time>
      </trkpt>
      <trkpt lat="45.47756" lon="4.72954">
        <ele>410.39999389648</ele>
        <time>2020-03-10T08:10:58.000Z</time>
      </trkpt>
      <trkpt lat="45.47755" lon="4.7295">
        <ele>410.39999389648</ele>
        <time>2020-03-10T08:11:00.000Z</time>
      </trkpt>
      <trkpt lat="45.47754" lon="4.72947">
        <ele>410.60000610352</ele>
        <time>2020-03-10T08:11:01.000Z</time>
      </trkpt>
      <trkpt lat="45.47754" lon="4.72945">
        <ele>410.60000610352</ele>
        <time>2020-03-10T08:11:02.000Z</time>
      </trkpt>
      <trkpt lat="45.4775" lon="4.72924">
        <ele>411</ele>
        <time>2020-03-10T08:11:09.000Z</time>
      </trkpt>
      <trkpt lat="45.47748" lon="4.72914">
        <ele>411.20001220703</ele>
        <time>2020-03-10T08:11:12.000Z</time>
      </trkpt>
      <trkpt lat="45.47746" lon="4.72905">
        <ele>411.39999389648</ele>
        <time>2020-03-10T08:11:15.000Z</time>
      </trkpt>
      <trkpt lat="45.47745" lon="4.72902">
        <ele>411.60000610352</ele>
        <time>2020-03-10T08:11:16.000Z</time>
      </trkpt>
      <trkpt lat="45.47745" lon="4.72899">
        <ele>411.60000610352</ele>
        <time>2020-03-10T08:11:17.000Z</time>
      </trkpt>
      <trkpt lat="45.47741" lon="4.72885">
        <ele>412</ele>
        <time>2020-03-10T08:11:22.000Z</time>
      </trkpt>
      <trkpt lat="45.47741" lon="4.72882">
        <ele>412</ele>
        <time>2020-03-10T08:11:23.000Z</time>
      </trkpt>
      <trkpt lat="45.47737" lon="4.72862">
        <ele>412</ele>
        <time>2020-03-10T08:11:30.000Z</time>
      </trkpt>
      <trkpt lat="45.47735" lon="4.72856">
        <ele>412</ele>
        <time>2020-03-10T08:11:32.000Z</time>
      </trkpt>
      <trkpt lat="45.47733" lon="4.72839">
        <ele>412</ele>
        <time>2020-03-10T08:11:38.000Z</time>
      </trkpt>
      <trkpt lat="45.47731" lon="4.72827">
        <ele>412.20001220703</ele>
        <time>2020-03-10T08:11:42.000Z</time>
      </trkpt>
      <trkpt lat="45.4773" lon="4.72815">
        <ele>412.60000610352</ele>
        <time>2020-03-10T08:11:46.000Z</time>
      </trkpt>
      <trkpt lat="45.47729" lon="4.72803">
        <ele>412.60000610352</ele>
        <time>2020-03-10T08:11:50.000Z</time>
      </trkpt>
      <trkpt lat="45.47728" lon="4.72797">
        <ele>412.79998779297</ele>
        <time>2020-03-10T08:11:52.000Z</time>
      </trkpt>
      <trkpt lat="45.47728" lon="4.72791">
        <ele>412.79998779297</ele>
        <time>2020-03-10T08:11:54.000Z</time>
      </trkpt>
      <trkpt lat="45.47725" lon="4.72767">
        <ele>413.20001220703</ele>
        <time>2020-03-10T08:12:02.000Z</time>
      </trkpt>
      <trkpt lat="45.47721" lon="4.72743">
        <ele>413.79998779297</ele>
        <time>2020-03-10T08:12:10.000Z</time>
      </trkpt>
      <trkpt lat="45.4772" lon="4.72737">
        <ele>413.79998779297</ele>
        <time>2020-03-10T08:12:12.000Z</time>
      </trkpt>
      <trkpt lat="45.47718" lon="4.72719">
        <ele>413.79998779297</ele>
        <time>2020-03-10T08:12:18.000Z</time>
      </trkpt>
      <trkpt lat="45.47715" lon="4.72707">
        <ele>413.60000610352</ele>
        <time>2020-03-10T08:12:22.000Z</time>
      </trkpt>
      <trkpt lat="45.47714" lon="4.72701">
        <ele>413.79998779297</ele>
        <time>2020-03-10T08:12:24.000Z</time>
      </trkpt>
      <trkpt lat="45.47713" lon="4.72695">
        <ele>414</ele>
        <time>2020-03-10T08:12:26.000Z</time>
      </trkpt>
      <trkpt lat="45.47712" lon="4.72688">
        <ele>414</ele>
        <time>2020-03-10T08:12:28.000Z</time>
      </trkpt>
      <trkpt lat="45.4771" lon="4.72683">
        <ele>414.39999389648</ele>
        <time>2020-03-10T08:12:30.000Z</time>
      </trkpt>
      <trkpt lat="45.4771" lon="4.72677">
        <ele>414.79998779297</ele>
        <time>2020-03-10T08:12:32.000Z</time>
      </trkpt>
      <trkpt lat="45.47707" lon="4.72666">
        <ele>415</ele>
        <time>2020-03-10T08:12:36.000Z</time>
      </trkpt>
      <trkpt lat="45.47703" lon="4.72651">
        <ele>416</ele>
        <time>2020-03-10T08:12:42.000Z</time>
      </trkpt>
      <trkpt lat="45.47701" lon="4.72634">
        <ele>417</ele>
        <time>2020-03-10T08:12:49.000Z</time>
      </trkpt>
      <trkpt lat="45.477" lon="4.72626">
        <ele>417.60000610352</ele>
        <time>2020-03-10T08:12:52.000Z</time>
      </trkpt>
      <trkpt lat="45.47698" lon="4.72615">
        <ele>418</ele>
        <time>2020-03-10T08:12:56.000Z</time>
      </trkpt>
      <trkpt lat="45.47694" lon="4.72602">
        <ele>418.60000610352</ele>
        <time>2020-03-10T08:13:01.000Z</time>
      </trkpt>
      <trkpt lat="45.47692" lon="4.72599">
        <ele>418.79998779297</ele>
        <time>2020-03-10T08:13:02.000Z</time>
      </trkpt>
      <trkpt lat="45.47689" lon="4.72593">
        <ele>419</ele>
        <time>2020-03-10T08:13:04.000Z</time>
      </trkpt>
      <trkpt lat="45.47684" lon="4.72585">
        <ele>419.20001220703</ele>
        <time>2020-03-10T08:13:07.000Z</time>
      </trkpt>
      <trkpt lat="45.47674" lon="4.72574">
        <ele>419.39999389648</ele>
        <time>2020-03-10T08:13:12.000Z</time>
      </trkpt>
      <trkpt lat="45.47672" lon="4.72573">
        <ele>419.60000610352</ele>
        <time>2020-03-10T08:13:13.000Z</time>
      </trkpt>
      <trkpt lat="45.47661" lon="4.7257">
        <ele>420.20001220703</ele>
        <time>2020-03-10T08:13:18.000Z</time>
      </trkpt>
      <trkpt lat="45.47659" lon="4.72571">
        <ele>420.20001220703</ele>
        <time>2020-03-10T08:13:19.000Z</time>
      </trkpt>
      <trkpt lat="45.47652" lon="4.72572">
        <ele>419.79998779297</ele>
        <time>2020-03-10T08:13:22.000Z</time>
      </trkpt>
      <trkpt lat="45.47645" lon="4.72573">
        <ele>419</ele>
        <time>2020-03-10T08:13:25.000Z</time>
      </trkpt>
      <trkpt lat="45.47638" lon="4.72574">
        <ele>418.60000610352</ele>
        <time>2020-03-10T08:13:28.000Z</time>
      </trkpt>
      <trkpt lat="45.4763" lon="4.72575">
        <ele>417.79998779297</ele>
        <time>2020-03-10T08:13:31.000Z</time>
      </trkpt>
      <trkpt lat="45.47628" lon="4.72576">
        <ele>417.60000610352</ele>
        <time>2020-03-10T08:13:32.000Z</time>
      </trkpt>
      <trkpt lat="45.47618" lon="4.72579">
        <ele>416.79998779297</ele>
        <time>2020-03-10T08:13:36.000Z</time>
      </trkpt>
      <trkpt lat="45.47611" lon="4.7258">
        <ele>416</ele>
        <time>2020-03-10T08:13:39.000Z</time>
      </trkpt>
      <trkpt lat="45.47609" lon="4.72581">
        <ele>415.39999389648</ele>
        <time>2020-03-10T08:13:40.000Z</time>
      </trkpt>
      <trkpt lat="45.47604" lon="4.72582">
        <ele>414.60000610352</ele>
        <time>2020-03-10T08:13:42.000Z</time>
      </trkpt>
      <trkpt lat="45.47601" lon="4.72584">
        <ele>414.39999389648</ele>
        <time>2020-03-10T08:13:43.000Z</time>
      </trkpt>
      <trkpt lat="45.47596" lon="4.72586">
        <ele>414.20001220703</ele>
        <time>2020-03-10T08:13:45.000Z</time>
      </trkpt>
      <trkpt lat="45.47584" lon="4.72598">
        <ele>413.39999389648</ele>
        <time>2020-03-10T08:13:51.000Z</time>
      </trkpt>
      <trkpt lat="45.47582" lon="4.726">
        <ele>413.20001220703</ele>
        <time>2020-03-10T08:13:52.000Z</time>
      </trkpt>
      <trkpt lat="45.4757" lon="4.72612">
        <ele>412.60000610352</ele>
        <time>2020-03-10T08:13:58.000Z</time>
      </trkpt>
      <trkpt lat="45.47564" lon="4.72617">
        <ele>412</ele>
        <time>2020-03-10T08:14:01.000Z</time>
      </trkpt>
      <trkpt lat="45.47561" lon="4.72618">
        <ele>411.60000610352</ele>
        <time>2020-03-10T08:14:02.000Z</time>
      </trkpt>
      <trkpt lat="45.47557" lon="4.72619">
        <ele>411.39999389648</ele>
        <time>2020-03-10T08:14:04.000Z</time>
      </trkpt>
      <trkpt lat="45.47552" lon="4.72622">
        <ele>411.20001220703</ele>
        <time>2020-03-10T08:14:09.000Z</time>
      </trkpt>
      <trkpt lat="45.47549" lon="4.72627">
        <ele>410.79998779297</ele>
        <time>2020-03-10T08:14:12.000Z</time>
      </trkpt>
      <trkpt lat="45.47546" lon="4.72628">
        <ele>410.60000610352</ele>
        <time>2020-03-10T08:14:14.000Z</time>
      </trkpt>
      <trkpt lat="45.47532" lon="4.72634">
        <ele>411.20001220703</ele>
        <time>2020-03-10T08:14:20.000Z</time>
      </trkpt>
      <trkpt lat="45.47527" lon="4.72637">
        <ele>411.39999389648</ele>
        <time>2020-03-10T08:14:22.000Z</time>
      </trkpt>
      <trkpt lat="45.47513" lon="4.72645">
        <ele>411</ele>
        <time>2020-03-10T08:14:28.000Z</time>
      </trkpt>
      <trkpt lat="45.47503" lon="4.7265">
        <ele>410.39999389648</ele>
        <time>2020-03-10T08:14:32.000Z</time>
      </trkpt>
      <trkpt lat="45.475" lon="4.7265">
        <ele>410.39999389648</ele>
        <time>2020-03-10T08:14:33.000Z</time>
      </trkpt>
      <trkpt lat="45.47496" lon="4.72648">
        <ele>409.79998779297</ele>
        <time>2020-03-10T08:14:35.000Z</time>
      </trkpt>
      <trkpt lat="45.47496" lon="4.72647">
        <ele>409.79998779297</ele>
        <time>2020-03-10T08:14:36.000Z</time>
      </trkpt>
      <trkpt lat="45.47496" lon="4.72639">
        <ele>410.20001220703</ele>
        <time>2020-03-10T08:14:40.000Z</time>
      </trkpt>
      <trkpt lat="45.47496" lon="4.72635">
        <ele>410.60000610352</ele>
        <time>2020-03-10T08:14:42.000Z</time>
      </trkpt>
      <trkpt lat="45.47497" lon="4.72633">
        <ele>411</ele>
        <time>2020-03-10T08:14:43.000Z</time>
      </trkpt>
      <trkpt lat="45.47496" lon="4.72628">
        <ele>411.39999389648</ele>
        <time>2020-03-10T08:14:45.000Z</time>
      </trkpt>
      <trkpt lat="45.47496" lon="4.72626">
        <ele>411.60000610352</ele>
        <time>2020-03-10T08:14:46.000Z</time>
      </trkpt>
      <trkpt lat="45.47495" lon="4.72621">
        <ele>412.20001220703</ele>
        <time>2020-03-10T08:14:48.000Z</time>
      </trkpt>
      <trkpt lat="45.47495" lon="4.72613">
        <ele>413.39999389648</ele>
        <time>2020-03-10T08:14:51.000Z</time>
      </trkpt>
      <trkpt lat="45.47495" lon="4.7261">
        <ele>413.39999389648</ele>
        <time>2020-03-10T08:14:52.000Z</time>
      </trkpt>
      <trkpt lat="45.47497" lon="4.72599">
        <ele>414.39999389648</ele>
        <time>2020-03-10T08:14:57.000Z</time>
      </trkpt>
      <trkpt lat="45.47498" lon="4.72592">
        <ele>414.79998779297</ele>
        <time>2020-03-10T08:15:00.000Z</time>
      </trkpt>
      <trkpt lat="45.47498" lon="4.72587">
        <ele>415.20001220703</ele>
        <time>2020-03-10T08:15:02.000Z</time>
      </trkpt>
      <trkpt lat="45.47497" lon="4.72584">
        <ele>415.39999389648</ele>
        <time>2020-03-10T08:15:04.000Z</time>
      </trkpt>
      <trkpt lat="45.47497" lon="4.72582">
        <ele>415.60000610352</ele>
        <time>2020-03-10T08:15:05.000Z</time>
      </trkpt>
      <trkpt lat="45.47497" lon="4.72573">
        <ele>416.60000610352</ele>
        <time>2020-03-10T08:15:10.000Z</time>
      </trkpt>
      <trkpt lat="45.47496" lon="4.72571">
        <ele>416.60000610352</ele>
        <time>2020-03-10T08:15:11.000Z</time>
      </trkpt>
      <trkpt lat="45.47496" lon="4.72568">
        <ele>417</ele>
        <time>2020-03-10T08:15:12.000Z</time>
      </trkpt>
      <trkpt lat="45.47495" lon="4.72561">
        <ele>417.39999389648</ele>
        <time>2020-03-10T08:15:15.000Z</time>
      </trkpt>
      <trkpt lat="45.47495" lon="4.72548">
        <ele>417.79998779297</ele>
        <time>2020-03-10T08:15:19.000Z</time>
      </trkpt>
      <trkpt lat="45.47494" lon="4.72541">
        <ele>418</ele>
        <time>2020-03-10T08:15:21.000Z</time>
      </trkpt>
      <trkpt lat="45.47493" lon="4.72537">
        <ele>418.20001220703</ele>
        <time>2020-03-10T08:15:22.000Z</time>
      </trkpt>
      <trkpt lat="45.47492" lon="4.72519">
        <ele>418.79998779297</ele>
        <time>2020-03-10T08:15:27.000Z</time>
      </trkpt>
      <trkpt lat="45.47492" lon="4.72516">
        <ele>419</ele>
        <time>2020-03-10T08:15:28.000Z</time>
      </trkpt>
      <trkpt lat="45.47493" lon="4.72503">
        <ele>419.60000610352</ele>
        <time>2020-03-10T08:15:32.000Z</time>
      </trkpt>
      <trkpt lat="45.47493" lon="4.72499">
        <ele>419.79998779297</ele>
        <time>2020-03-10T08:15:33.000Z</time>
      </trkpt>
      <trkpt lat="45.47493" lon="4.72496">
        <ele>419.60000610352</ele>
        <time>2020-03-10T08:15:34.000Z</time>
      </trkpt>
      <trkpt lat="45.475" lon="4.72485">
        <ele>420</ele>
        <time>2020-03-10T08:15:38.000Z</time>
      </trkpt>
      <trkpt lat="45.47502" lon="4.72483">
        <ele>420.39999389648</ele>
        <time>2020-03-10T08:15:39.000Z</time>
      </trkpt>
      <trkpt lat="45.47507" lon="4.72477">
        <ele>420.79998779297</ele>
        <time>2020-03-10T08:15:42.000Z</time>
      </trkpt>
      <trkpt lat="45.47509" lon="4.72473">
        <ele>421.20001220703</ele>
        <time>2020-03-10T08:15:44.000Z</time>
      </trkpt>
      <trkpt lat="45.47513" lon="4.72471">
        <ele>421.60000610352</ele>
        <time>2020-03-10T08:15:46.000Z</time>
      </trkpt>
      <trkpt lat="45.47518" lon="4.72469">
        <ele>421.79998779297</ele>
        <time>2020-03-10T08:15:49.000Z</time>
      </trkpt>
      <trkpt lat="45.47523" lon="4.72464">
        <ele>422</ele>
        <time>2020-03-10T08:15:52.000Z</time>
      </trkpt>
      <trkpt lat="45.47527" lon="4.72459">
        <ele>422.20001220703</ele>
        <time>2020-03-10T08:15:55.000Z</time>
      </trkpt>
      <trkpt lat="45.47532" lon="4.72454">
        <ele>422.39999389648</ele>
        <time>2020-03-10T08:15:58.000Z</time>
      </trkpt>
      <trkpt lat="45.47534" lon="4.72449">
        <ele>422.60000610352</ele>
        <time>2020-03-10T08:16:00.000Z</time>
      </trkpt>
      <trkpt lat="45.47537" lon="4.72445">
        <ele>423</ele>
        <time>2020-03-10T08:16:02.000Z</time>
      </trkpt>
      <trkpt lat="45.47539" lon="4.72439">
        <ele>423.20001220703</ele>
        <time>2020-03-10T08:16:04.000Z</time>
      </trkpt>
      <trkpt lat="45.47545" lon="4.72427">
        <ele>423.60000610352</ele>
        <time>2020-03-10T08:16:09.000Z</time>
      </trkpt>
      <trkpt lat="45.47547" lon="4.72423">
        <ele>423.79998779297</ele>
        <time>2020-03-10T08:16:11.000Z</time>
      </trkpt>
      <trkpt lat="45.47548" lon="4.72421">
        <ele>424</ele>
        <time>2020-03-10T08:16:12.000Z</time>
      </trkpt>
      <trkpt lat="45.47551" lon="4.72413">
        <ele>424.60000610352</ele>
        <time>2020-03-10T08:16:15.000Z</time>
      </trkpt>
      <trkpt lat="45.47553" lon="4.72409">
        <ele>425</ele>
        <time>2020-03-10T08:16:17.000Z</time>
      </trkpt>
      <trkpt lat="45.4756" lon="4.724">
        <ele>426</ele>
        <time>2020-03-10T08:16:22.000Z</time>
      </trkpt>
      <trkpt lat="45.47561" lon="4.72398">
        <ele>426.20001220703</ele>
        <time>2020-03-10T08:16:23.000Z</time>
      </trkpt>
      <trkpt lat="45.47572" lon="4.72387">
        <ele>427.39999389648</ele>
        <time>2020-03-10T08:16:30.000Z</time>
      </trkpt>
      <trkpt lat="45.47575" lon="4.72383">
        <ele>427.60000610352</ele>
        <time>2020-03-10T08:16:32.000Z</time>
      </trkpt>
      <trkpt lat="45.47582" lon="4.72371">
        <ele>427.79998779297</ele>
        <time>2020-03-10T08:16:38.000Z</time>
      </trkpt>
      <trkpt lat="45.47587" lon="4.72363">
        <ele>428.39999389648</ele>
        <time>2020-03-10T08:16:42.000Z</time>
      </trkpt>
      <trkpt lat="45.47591" lon="4.72353">
        <ele>429.20001220703</ele>
        <time>2020-03-10T08:16:46.000Z</time>
      </trkpt>
      <trkpt lat="45.47593" lon="4.72349">
        <ele>429.60000610352</ele>
        <time>2020-03-10T08:16:48.000Z</time>
      </trkpt>
      <trkpt lat="45.47598" lon="4.72342">
        <ele>430</ele>
        <time>2020-03-10T08:16:52.000Z</time>
      </trkpt>
      <trkpt lat="45.47604" lon="4.72332">
        <ele>431</ele>
        <time>2020-03-10T08:16:57.000Z</time>
      </trkpt>
      <trkpt lat="45.47608" lon="4.72325">
        <ele>431.60000610352</ele>
        <time>2020-03-10T08:17:00.000Z</time>
      </trkpt>
      <trkpt lat="45.47611" lon="4.7232">
        <ele>431.60000610352</ele>
        <time>2020-03-10T08:17:02.000Z</time>
      </trkpt>
      <trkpt lat="45.47613" lon="4.72315">
        <ele>432.20001220703</ele>
        <time>2020-03-10T08:17:04.000Z</time>
      </trkpt>
      <trkpt lat="45.47616" lon="4.72311">
        <ele>432.79998779297</ele>
        <time>2020-03-10T08:17:06.000Z</time>
      </trkpt>
      <trkpt lat="45.47622" lon="4.72304">
        <ele>433.39999389648</ele>
        <time>2020-03-10T08:17:10.000Z</time>
      </trkpt>
      <trkpt lat="45.47624" lon="4.723">
        <ele>434.20001220703</ele>
        <time>2020-03-10T08:17:12.000Z</time>
      </trkpt>
      <trkpt lat="45.47625" lon="4.72298">
        <ele>434.20001220703</ele>
        <time>2020-03-10T08:17:13.000Z</time>
      </trkpt>
      <trkpt lat="45.47627" lon="4.72296">
        <ele>434.60000610352</ele>
        <time>2020-03-10T08:17:15.000Z</time>
      </trkpt>
      <trkpt lat="45.47629" lon="4.72292">
        <ele>435</ele>
        <time>2020-03-10T08:17:17.000Z</time>
      </trkpt>
      <trkpt lat="45.47634" lon="4.72285">
        <ele>435.60000610352</ele>
        <time>2020-03-10T08:17:21.000Z</time>
      </trkpt>
      <trkpt lat="45.47635" lon="4.72284">
        <ele>436</ele>
        <time>2020-03-10T08:17:22.000Z</time>
      </trkpt>
      <trkpt lat="45.47639" lon="4.72279">
        <ele>436.79998779297</ele>
        <time>2020-03-10T08:17:25.000Z</time>
      </trkpt>
      <trkpt lat="45.47641" lon="4.72275">
        <ele>436.79998779297</ele>
        <time>2020-03-10T08:17:27.000Z</time>
      </trkpt>
      <trkpt lat="45.47642" lon="4.72274">
        <ele>437.20001220703</ele>
        <time>2020-03-10T08:17:28.000Z</time>
      </trkpt>
      <trkpt lat="45.47645" lon="4.72269">
        <ele>437.79998779297</ele>
        <time>2020-03-10T08:17:31.000Z</time>
      </trkpt>
      <trkpt lat="45.47646" lon="4.72268">
        <ele>438</ele>
        <time>2020-03-10T08:17:32.000Z</time>
      </trkpt>
      <trkpt lat="45.47648" lon="4.72264">
        <ele>438.20001220703</ele>
        <time>2020-03-10T08:17:34.000Z</time>
      </trkpt>
      <trkpt lat="45.47652" lon="4.7226">
        <ele>439</ele>
        <time>2020-03-10T08:17:37.000Z</time>
      </trkpt>
      <trkpt lat="45.47658" lon="4.72251">
        <ele>440</ele>
        <time>2020-03-10T08:17:42.000Z</time>
      </trkpt>
      <trkpt lat="45.4766" lon="4.7225">
        <ele>440.20001220703</ele>
        <time>2020-03-10T08:17:43.000Z</time>
      </trkpt>
      <trkpt lat="45.47665" lon="4.72245">
        <ele>441.20001220703</ele>
        <time>2020-03-10T08:17:47.000Z</time>
      </trkpt>
      <trkpt lat="45.47667" lon="4.72243">
        <ele>441.60000610352</ele>
        <time>2020-03-10T08:17:49.000Z</time>
      </trkpt>
      <trkpt lat="45.4767" lon="4.72241">
        <ele>442.60000610352</ele>
        <time>2020-03-10T08:17:51.000Z</time>
      </trkpt>
      <trkpt lat="45.47672" lon="4.7224">
        <ele>442.79998779297</ele>
        <time>2020-03-10T08:17:52.000Z</time>
      </trkpt>
      <trkpt lat="45.47676" lon="4.72238">
        <ele>443.39999389648</ele>
        <time>2020-03-10T08:17:55.000Z</time>
      </trkpt>
      <trkpt lat="45.47677" lon="4.72238">
        <ele>443.60000610352</ele>
        <time>2020-03-10T08:17:56.000Z</time>
      </trkpt>
      <trkpt lat="45.47684" lon="4.72242">
        <ele>444.79998779297</ele>
        <time>2020-03-10T08:18:02.000Z</time>
      </trkpt>
      <trkpt lat="45.47684" lon="4.72243">
        <ele>445</ele>
        <time>2020-03-10T08:18:03.000Z</time>
      </trkpt>
      <trkpt lat="45.47685" lon="4.72244">
        <ele>445.39999389648</ele>
        <time>2020-03-10T08:18:04.000Z</time>
      </trkpt>
      <trkpt lat="45.47687" lon="4.72247">
        <ele>445.79998779297</ele>
        <time>2020-03-10T08:18:06.000Z</time>
      </trkpt>
      <trkpt lat="45.47692" lon="4.7225">
        <ele>446.39999389648</ele>
        <time>2020-03-10T08:18:10.000Z</time>
      </trkpt>
      <trkpt lat="45.47695" lon="4.72253">
        <ele>446.79998779297</ele>
        <time>2020-03-10T08:18:12.000Z</time>
      </trkpt>
      <trkpt lat="45.47702" lon="4.72255">
        <ele>447.60000610352</ele>
        <time>2020-03-10T08:18:16.000Z</time>
      </trkpt>
      <trkpt lat="45.47704" lon="4.72255">
        <ele>448</ele>
        <time>2020-03-10T08:18:17.000Z</time>
      </trkpt>
      <trkpt lat="45.4771" lon="4.72253">
        <ele>449</ele>
        <time>2020-03-10T08:18:21.000Z</time>
      </trkpt>
      <trkpt lat="45.47712" lon="4.72252">
        <ele>449.20001220703</ele>
        <time>2020-03-10T08:18:22.000Z</time>
      </trkpt>
      <trkpt lat="45.47717" lon="4.7225">
        <ele>449.79998779297</ele>
        <time>2020-03-10T08:18:25.000Z</time>
      </trkpt>
      <trkpt lat="45.4772" lon="4.7225">
        <ele>450.20001220703</ele>
        <time>2020-03-10T08:18:27.000Z</time>
      </trkpt>
      <trkpt lat="45.47723" lon="4.72248">
        <ele>450.79998779297</ele>
        <time>2020-03-10T08:18:30.000Z</time>
      </trkpt>
      <trkpt lat="45.47725" lon="4.72247">
        <ele>451</ele>
        <time>2020-03-10T08:18:32.000Z</time>
      </trkpt>
      <trkpt lat="45.47726" lon="4.72247">
        <ele>451.39999389648</ele>
        <time>2020-03-10T08:18:33.000Z</time>
      </trkpt>
      <trkpt lat="45.47731" lon="4.72243">
        <ele>452</ele>
        <time>2020-03-10T08:18:37.000Z</time>
      </trkpt>
      <trkpt lat="45.47731" lon="4.72241">
        <ele>452.20001220703</ele>
        <time>2020-03-10T08:18:38.000Z</time>
      </trkpt>
      <trkpt lat="45.47731" lon="4.72238">
        <ele>452.39999389648</ele>
        <time>2020-03-10T08:18:39.000Z</time>
      </trkpt>
      <trkpt lat="45.47731" lon="4.72231">
        <ele>453.20001220703</ele>
        <time>2020-03-10T08:18:42.000Z</time>
      </trkpt>
      <trkpt lat="45.47731" lon="4.72229">
        <ele>453.39999389648</ele>
        <time>2020-03-10T08:18:43.000Z</time>
      </trkpt>
      <trkpt lat="45.47732" lon="4.72226">
        <ele>453.60000610352</ele>
        <time>2020-03-10T08:18:44.000Z</time>
      </trkpt>
      <trkpt lat="45.47732" lon="4.7222">
        <ele>454.20001220703</ele>
        <time>2020-03-10T08:18:47.000Z</time>
      </trkpt>
      <trkpt lat="45.47732" lon="4.72218">
        <ele>454.60000610352</ele>
        <time>2020-03-10T08:18:48.000Z</time>
      </trkpt>
      <trkpt lat="45.47732" lon="4.72216">
        <ele>454.79998779297</ele>
        <time>2020-03-10T08:18:49.000Z</time>
      </trkpt>
      <trkpt lat="45.47731" lon="4.72209">
        <ele>455.20001220703</ele>
        <time>2020-03-10T08:18:52.000Z</time>
      </trkpt>
      <trkpt lat="45.47731" lon="4.72206">
        <ele>455.20001220703</ele>
        <time>2020-03-10T08:18:53.000Z</time>
      </trkpt>
      <trkpt lat="45.4773" lon="4.72201">
        <ele>455.60000610352</ele>
        <time>2020-03-10T08:18:55.000Z</time>
      </trkpt>
      <trkpt lat="45.47731" lon="4.72188">
        <ele>456.60000610352</ele>
        <time>2020-03-10T08:19:01.000Z</time>
      </trkpt>
      <trkpt lat="45.47731" lon="4.72186">
        <ele>456.60000610352</ele>
        <time>2020-03-10T08:19:02.000Z</time>
      </trkpt>
      <trkpt lat="45.47732" lon="4.72184">
        <ele>456.79998779297</ele>
        <time>2020-03-10T08:19:03.000Z</time>
      </trkpt>
      <trkpt lat="45.47733" lon="4.72174">
        <ele>457.39999389648</ele>
        <time>2020-03-10T08:19:07.000Z</time>
      </trkpt>
      <trkpt lat="45.47733" lon="4.72171">
        <ele>457.60000610352</ele>
        <time>2020-03-10T08:19:08.000Z</time>
      </trkpt>
      <trkpt lat="45.47734" lon="4.72158">
        <ele>458.20001220703</ele>
        <time>2020-03-10T08:19:12.000Z</time>
      </trkpt>
      <trkpt lat="45.47735" lon="4.72148">
        <ele>458.20001220703</ele>
        <time>2020-03-10T08:19:15.000Z</time>
      </trkpt>
      <trkpt lat="45.47736" lon="4.7214">
        <ele>458.20001220703</ele>
        <time>2020-03-10T08:19:18.000Z</time>
      </trkpt>
      <trkpt lat="45.47737" lon="4.72136">
        <ele>458.60000610352</ele>
        <time>2020-03-10T08:19:19.000Z</time>
      </trkpt>
      <trkpt lat="45.47738" lon="4.72133">
        <ele>459</ele>
        <time>2020-03-10T08:19:20.000Z</time>
      </trkpt>
      <trkpt lat="45.47739" lon="4.72128">
        <ele>459.39999389648</ele>
        <time>2020-03-10T08:19:22.000Z</time>
      </trkpt>
      <trkpt lat="45.4774" lon="4.72121">
        <ele>459.79998779297</ele>
        <time>2020-03-10T08:19:25.000Z</time>
      </trkpt>
      <trkpt lat="45.47741" lon="4.72119">
        <ele>460</ele>
        <time>2020-03-10T08:19:26.000Z</time>
      </trkpt>
      <trkpt lat="45.47743" lon="4.72102">
        <ele>460.79998779297</ele>
        <time>2020-03-10T08:19:32.000Z</time>
      </trkpt>
      <trkpt lat="45.47744" lon="4.72091">
        <ele>461.20001220703</ele>
        <time>2020-03-10T08:19:36.000Z</time>
      </trkpt>
      <trkpt lat="45.47745" lon="4.72082">
        <ele>461.79998779297</ele>
        <time>2020-03-10T08:19:39.000Z</time>
      </trkpt>
      <trkpt lat="45.47746" lon="4.72075">
        <ele>462</ele>
        <time>2020-03-10T08:19:42.000Z</time>
      </trkpt>
      <trkpt lat="45.47747" lon="4.72068">
        <ele>462</ele>
        <time>2020-03-10T08:19:45.000Z</time>
      </trkpt>
      <trkpt lat="45.47747" lon="4.72065">
        <ele>462.20001220703</ele>
        <time>2020-03-10T08:19:46.000Z</time>
      </trkpt>
      <trkpt lat="45.47748" lon="4.72059">
        <ele>462.39999389648</ele>
        <time>2020-03-10T08:19:48.000Z</time>
      </trkpt>
      <trkpt lat="45.47749" lon="4.72051">
        <ele>462.60000610352</ele>
        <time>2020-03-10T08:19:51.000Z</time>
      </trkpt>
      <trkpt lat="45.47749" lon="4.72048">
        <ele>462.60000610352</ele>
        <time>2020-03-10T08:19:52.000Z</time>
      </trkpt>
      <trkpt lat="45.47749" lon="4.72037">
        <ele>463.39999389648</ele>
        <time>2020-03-10T08:19:56.000Z</time>
      </trkpt>
      <trkpt lat="45.4775" lon="4.72032">
        <ele>463.79998779297</ele>
        <time>2020-03-10T08:19:58.000Z</time>
      </trkpt>
      <trkpt lat="45.47752" lon="4.72021">
        <ele>464.39999389648</ele>
        <time>2020-03-10T08:20:02.000Z</time>
      </trkpt>
      <trkpt lat="45.47752" lon="4.72018">
        <ele>464.60000610352</ele>
        <time>2020-03-10T08:20:03.000Z</time>
      </trkpt>
      <trkpt lat="45.47752" lon="4.7201">
        <ele>465</ele>
        <time>2020-03-10T08:20:06.000Z</time>
      </trkpt>
      <trkpt lat="45.47753" lon="4.72002">
        <ele>465.60000610352</ele>
        <time>2020-03-10T08:20:09.000Z</time>
      </trkpt>
      <trkpt lat="45.47753" lon="4.71994">
        <ele>466.79998779297</ele>
        <time>2020-03-10T08:20:12.000Z</time>
      </trkpt>
      <trkpt lat="45.47753" lon="4.71992">
        <ele>467</ele>
        <time>2020-03-10T08:20:13.000Z</time>
      </trkpt>
      <trkpt lat="45.47754" lon="4.71983">
        <ele>468</ele>
        <time>2020-03-10T08:20:17.000Z</time>
      </trkpt>
      <trkpt lat="45.47755" lon="4.71979">
        <ele>468.20001220703</ele>
        <time>2020-03-10T08:20:19.000Z</time>
      </trkpt>
      <trkpt lat="45.47757" lon="4.71971">
        <ele>469</ele>
        <time>2020-03-10T08:20:22.000Z</time>
      </trkpt>
      <trkpt lat="45.47757" lon="4.71969">
        <ele>469</ele>
        <time>2020-03-10T08:20:23.000Z</time>
      </trkpt>
      <trkpt lat="45.47758" lon="4.71963">
        <ele>469.39999389648</ele>
        <time>2020-03-10T08:20:26.000Z</time>
      </trkpt>
      <trkpt lat="45.47759" lon="4.71954">
        <ele>470.39999389648</ele>
        <time>2020-03-10T08:20:30.000Z</time>
      </trkpt>
      <trkpt lat="45.47759" lon="4.7195">
        <ele>471</ele>
        <time>2020-03-10T08:20:32.000Z</time>
      </trkpt>
      <trkpt lat="45.4776" lon="4.71945">
        <ele>471.39999389648</ele>
        <time>2020-03-10T08:20:34.000Z</time>
      </trkpt>
      <trkpt lat="45.4776" lon="4.71942">
        <ele>471.60000610352</ele>
        <time>2020-03-10T08:20:35.000Z</time>
      </trkpt>
      <trkpt lat="45.47762" lon="4.71934">
        <ele>472.20001220703</ele>
        <time>2020-03-10T08:20:38.000Z</time>
      </trkpt>
      <trkpt lat="45.47765" lon="4.71927">
        <ele>472.60000610352</ele>
        <time>2020-03-10T08:20:41.000Z</time>
      </trkpt>
      <trkpt lat="45.47767" lon="4.71925">
        <ele>473</ele>
        <time>2020-03-10T08:20:42.000Z</time>
      </trkpt>
      <trkpt lat="45.4777" lon="4.71923">
        <ele>473.39999389648</ele>
        <time>2020-03-10T08:20:44.000Z</time>
      </trkpt>
      <trkpt lat="45.4777" lon="4.71921">
        <ele>473.60000610352</ele>
        <time>2020-03-10T08:20:45.000Z</time>
      </trkpt>
      <trkpt lat="45.47778" lon="4.71921">
        <ele>474.79998779297</ele>
        <time>2020-03-10T08:20:49.000Z</time>
      </trkpt>
      <trkpt lat="45.4778" lon="4.71921">
        <ele>475.20001220703</ele>
        <time>2020-03-10T08:20:50.000Z</time>
      </trkpt>
      <trkpt lat="45.47783" lon="4.71921">
        <ele>475.79998779297</ele>
        <time>2020-03-10T08:20:52.000Z</time>
      </trkpt>
      <trkpt lat="45.47785" lon="4.7192">
        <ele>476</ele>
        <time>2020-03-10T08:20:53.000Z</time>
      </trkpt>
      <trkpt lat="45.47792" lon="4.71921">
        <ele>476.79998779297</ele>
        <time>2020-03-10T08:20:57.000Z</time>
      </trkpt>
      <trkpt lat="45.47795" lon="4.71922">
        <ele>477.20001220703</ele>
        <time>2020-03-10T08:20:59.000Z</time>
      </trkpt>
      <trkpt lat="45.478" lon="4.71923">
        <ele>477.79998779297</ele>
        <time>2020-03-10T08:21:02.000Z</time>
      </trkpt>
      <trkpt lat="45.47802" lon="4.71923">
        <ele>477.79998779297</ele>
        <time>2020-03-10T08:21:03.000Z</time>
      </trkpt>
      <trkpt lat="45.47806" lon="4.71922">
        <ele>478.20001220703</ele>
        <time>2020-03-10T08:21:06.000Z</time>
      </trkpt>
      <trkpt lat="45.47808" lon="4.71923">
        <ele>478.60000610352</ele>
        <time>2020-03-10T08:21:08.000Z</time>
      </trkpt>
      <trkpt lat="45.47811" lon="4.71923">
        <ele>479.20001220703</ele>
        <time>2020-03-10T08:21:10.000Z</time>
      </trkpt>
      <trkpt lat="45.47814" lon="4.71923">
        <ele>479.60000610352</ele>
        <time>2020-03-10T08:21:12.000Z</time>
      </trkpt>
      <trkpt lat="45.47821" lon="4.71923">
        <ele>480.20001220703</ele>
        <time>2020-03-10T08:21:16.000Z</time>
      </trkpt>
      <trkpt lat="45.47822" lon="4.71923">
        <ele>480.20001220703</ele>
        <time>2020-03-10T08:21:17.000Z</time>
      </trkpt>
      <trkpt lat="45.47826" lon="4.71923">
        <ele>480.20001220703</ele>
        <time>2020-03-10T08:21:19.000Z</time>
      </trkpt>
      <trkpt lat="45.47829" lon="4.71922">
        <ele>480.39999389648</ele>
        <time>2020-03-10T08:21:21.000Z</time>
      </trkpt>
      <trkpt lat="45.47831" lon="4.71922">
        <ele>480.39999389648</ele>
        <time>2020-03-10T08:21:22.000Z</time>
      </trkpt>
      <trkpt lat="45.47836" lon="4.71922">
        <ele>481</ele>
        <time>2020-03-10T08:21:24.000Z</time>
      </trkpt>
      <trkpt lat="45.4784" lon="4.7192">
        <ele>481.20001220703</ele>
        <time>2020-03-10T08:21:26.000Z</time>
      </trkpt>
      <trkpt lat="45.47845" lon="4.71918">
        <ele>481.60000610352</ele>
        <time>2020-03-10T08:21:29.000Z</time>
      </trkpt>
      <trkpt lat="45.47851" lon="4.71916">
        <ele>481.79998779297</ele>
        <time>2020-03-10T08:21:32.000Z</time>
      </trkpt>
      <trkpt lat="45.47857" lon="4.71914">
        <ele>482.39999389648</ele>
        <time>2020-03-10T08:21:35.000Z</time>
      </trkpt>
      <trkpt lat="45.47859" lon="4.71913">
        <ele>482.60000610352</ele>
        <time>2020-03-10T08:21:36.000Z</time>
      </trkpt>
      <trkpt lat="45.4787" lon="4.71907">
        <ele>483.39999389648</ele>
        <time>2020-03-10T08:21:42.000Z</time>
      </trkpt>
      <trkpt lat="45.47871" lon="4.71906">
        <ele>483.60000610352</ele>
        <time>2020-03-10T08:21:43.000Z</time>
      </trkpt>
      <trkpt lat="45.47884" lon="4.71902">
        <ele>484.79998779297</ele>
        <time>2020-03-10T08:21:50.000Z</time>
      </trkpt>
      <trkpt lat="45.47887" lon="4.71901">
        <ele>485.20001220703</ele>
        <time>2020-03-10T08:21:52.000Z</time>
      </trkpt>
      <trkpt lat="45.47893" lon="4.71899">
        <ele>486</ele>
        <time>2020-03-10T08:21:55.000Z</time>
      </trkpt>
      <trkpt lat="45.47899" lon="4.71897">
        <ele>486.39999389648</ele>
        <time>2020-03-10T08:21:58.000Z</time>
      </trkpt>
      <trkpt lat="45.47907" lon="4.71896">
        <ele>487</ele>
        <time>2020-03-10T08:22:02.000Z</time>
      </trkpt>
      <trkpt lat="45.47909" lon="4.71895">
        <ele>487</ele>
        <time>2020-03-10T08:22:03.000Z</time>
      </trkpt>
      <trkpt lat="45.47913" lon="4.71893">
        <ele>487.20001220703</ele>
        <time>2020-03-10T08:22:05.000Z</time>
      </trkpt>
      <trkpt lat="45.47925" lon="4.71889">
        <ele>488</ele>
        <time>2020-03-10T08:22:11.000Z</time>
      </trkpt>
      <trkpt lat="45.47927" lon="4.71888">
        <ele>488</ele>
        <time>2020-03-10T08:22:12.000Z</time>
      </trkpt>
      <trkpt lat="45.47939" lon="4.71881">
        <ele>489</ele>
        <time>2020-03-10T08:22:19.000Z</time>
      </trkpt>
      <trkpt lat="45.47942" lon="4.71881">
        <ele>489.20001220703</ele>
        <time>2020-03-10T08:22:20.000Z</time>
      </trkpt>
      <trkpt lat="45.47945" lon="4.71879">
        <ele>489.79998779297</ele>
        <time>2020-03-10T08:22:22.000Z</time>
      </trkpt>
      <trkpt lat="45.47951" lon="4.71877">
        <ele>490.39999389648</ele>
        <time>2020-03-10T08:22:26.000Z</time>
      </trkpt>
      <trkpt lat="45.47962" lon="4.71875">
        <ele>491.60000610352</ele>
        <time>2020-03-10T08:22:32.000Z</time>
      </trkpt>
      <trkpt lat="45.47965" lon="4.71875">
        <ele>491.79998779297</ele>
        <time>2020-03-10T08:22:34.000Z</time>
      </trkpt>
      <trkpt lat="45.47972" lon="4.71872">
        <ele>492.79998779297</ele>
        <time>2020-03-10T08:22:38.000Z</time>
      </trkpt>
      <trkpt lat="45.47978" lon="4.71869">
        <ele>493.39999389648</ele>
        <time>2020-03-10T08:22:41.000Z</time>
      </trkpt>
      <trkpt lat="45.4798" lon="4.71869">
        <ele>493.60000610352</ele>
        <time>2020-03-10T08:22:42.000Z</time>
      </trkpt>
      <trkpt lat="45.47983" lon="4.71869">
        <ele>493.79998779297</ele>
        <time>2020-03-10T08:22:43.000Z</time>
      </trkpt>
      <trkpt lat="45.47991" lon="4.71865">
        <ele>494.79998779297</ele>
        <time>2020-03-10T08:22:48.000Z</time>
      </trkpt>
      <trkpt lat="45.47993" lon="4.71864">
        <ele>495</ele>
        <time>2020-03-10T08:22:49.000Z</time>
      </trkpt>
      <trkpt lat="45.47997" lon="4.71862">
        <ele>495.20001220703</ele>
        <time>2020-03-10T08:22:52.000Z</time>
      </trkpt>
      <trkpt lat="45.48002" lon="4.71858">
        <ele>495.60000610352</ele>
        <time>2020-03-10T08:22:55.000Z</time>
      </trkpt>
      <trkpt lat="45.48005" lon="4.71856">
        <ele>495.79998779297</ele>
        <time>2020-03-10T08:22:57.000Z</time>
      </trkpt>
      <trkpt lat="45.48007" lon="4.71855">
        <ele>496</ele>
        <time>2020-03-10T08:22:58.000Z</time>
      </trkpt>
      <trkpt lat="45.48011" lon="4.71851">
        <ele>496.79998779297</ele>
        <time>2020-03-10T08:23:01.000Z</time>
      </trkpt>
      <trkpt lat="45.48013" lon="4.71849">
        <ele>496.79998779297</ele>
        <time>2020-03-10T08:23:02.000Z</time>
      </trkpt>
      <trkpt lat="45.48018" lon="4.71845">
        <ele>497.20001220703</ele>
        <time>2020-03-10T08:23:05.000Z</time>
      </trkpt>
      <trkpt lat="45.48022" lon="4.71843">
        <ele>497.39999389648</ele>
        <time>2020-03-10T08:23:07.000Z</time>
      </trkpt>
      <trkpt lat="45.48032" lon="4.71841">
        <ele>498</ele>
        <time>2020-03-10T08:23:12.000Z</time>
      </trkpt>
      <trkpt lat="45.48034" lon="4.71841">
        <ele>498</ele>
        <time>2020-03-10T08:23:13.000Z</time>
      </trkpt>
      <trkpt lat="45.48046" lon="4.71842">
        <ele>498.39999389648</ele>
        <time>2020-03-10T08:23:18.000Z</time>
      </trkpt>
      <trkpt lat="45.48053" lon="4.71841">
        <ele>498.39999389648</ele>
        <time>2020-03-10T08:23:21.000Z</time>
      </trkpt>
      <trkpt lat="45.48055" lon="4.71841">
        <ele>498.39999389648</ele>
        <time>2020-03-10T08:23:22.000Z</time>
      </trkpt>
      <trkpt lat="45.4806" lon="4.71842">
        <ele>498.79998779297</ele>
        <time>2020-03-10T08:23:26.000Z</time>
      </trkpt>
      <trkpt lat="45.48067" lon="4.71843">
        <ele>499.39999389648</ele>
        <time>2020-03-10T08:23:31.000Z</time>
      </trkpt>
      <trkpt lat="45.48068" lon="4.71842">
        <ele>499.60000610352</ele>
        <time>2020-03-10T08:23:32.000Z</time>
      </trkpt>
      <trkpt lat="45.48067" lon="4.71838">
        <ele>500.20001220703</ele>
        <time>2020-03-10T08:23:34.000Z</time>
      </trkpt>
      <trkpt lat="45.48067" lon="4.71836">
        <ele>500.20001220703</ele>
        <time>2020-03-10T08:23:35.000Z</time>
      </trkpt>
      <trkpt lat="45.48066" lon="4.71835">
        <ele>500.39999389648</ele>
        <time>2020-03-10T08:23:36.000Z</time>
      </trkpt>
      <trkpt lat="45.48064" lon="4.71833">
        <ele>500.79998779297</ele>
        <time>2020-03-10T08:23:37.000Z</time>
      </trkpt>
      <trkpt lat="45.48062" lon="4.71829">
        <ele>501.20001220703</ele>
        <time>2020-03-10T08:23:39.000Z</time>
      </trkpt>
      <trkpt lat="45.48058" lon="4.71824">
        <ele>501.79998779297</ele>
        <time>2020-03-10T08:23:42.000Z</time>
      </trkpt>
      <trkpt lat="45.48057" lon="4.71822">
        <ele>502.20001220703</ele>
        <time>2020-03-10T08:23:43.000Z</time>
      </trkpt>
      <trkpt lat="45.48054" lon="4.71817">
        <ele>502.60000610352</ele>
        <time>2020-03-10T08:23:46.000Z</time>
      </trkpt>
      <trkpt lat="45.48049" lon="4.71809">
        <ele>503.20001220703</ele>
        <time>2020-03-10T08:23:50.000Z</time>
      </trkpt>
      <trkpt lat="45.48047" lon="4.71806">
        <ele>503.60000610352</ele>
        <time>2020-03-10T08:23:52.000Z</time>
      </trkpt>
      <trkpt lat="45.48045" lon="4.71805">
        <ele>503.79998779297</ele>
        <time>2020-03-10T08:23:53.000Z</time>
      </trkpt>
      <trkpt lat="45.48043" lon="4.71803">
        <ele>504.20001220703</ele>
        <time>2020-03-10T08:23:54.000Z</time>
      </trkpt>
      <trkpt lat="45.48042" lon="4.71802">
        <ele>504.39999389648</ele>
        <time>2020-03-10T08:23:55.000Z</time>
      </trkpt>
      <trkpt lat="45.48038" lon="4.71797">
        <ele>505.20001220703</ele>
        <time>2020-03-10T08:23:58.000Z</time>
      </trkpt>
      <trkpt lat="45.48036" lon="4.71795">
        <ele>505.39999389648</ele>
        <time>2020-03-10T08:23:59.000Z</time>
      </trkpt>
      <trkpt lat="45.48035" lon="4.71793">
        <ele>505.60000610352</ele>
        <time>2020-03-10T08:24:00.000Z</time>
      </trkpt>
      <trkpt lat="45.48033" lon="4.71789">
        <ele>506.39999389648</ele>
        <time>2020-03-10T08:24:02.000Z</time>
      </trkpt>
      <trkpt lat="45.48032" lon="4.71785">
        <ele>506.60000610352</ele>
        <time>2020-03-10T08:24:04.000Z</time>
      </trkpt>
      <trkpt lat="45.48033" lon="4.71784">
        <ele>507</ele>
        <time>2020-03-10T08:24:05.000Z</time>
      </trkpt>
      <trkpt lat="45.48034" lon="4.71783">
        <ele>507</ele>
        <time>2020-03-10T08:24:06.000Z</time>
      </trkpt>
      <trkpt lat="45.48036" lon="4.71783">
        <ele>507.39999389648</ele>
        <time>2020-03-10T08:24:07.000Z</time>
      </trkpt>
      <trkpt lat="45.48041" lon="4.71782">
        <ele>508.39999389648</ele>
        <time>2020-03-10T08:24:10.000Z</time>
      </trkpt>
      <trkpt lat="45.48044" lon="4.71782">
        <ele>509</ele>
        <time>2020-03-10T08:24:12.000Z</time>
      </trkpt>
      <trkpt lat="45.48051" lon="4.7178">
        <ele>509.39999389648</ele>
        <time>2020-03-10T08:24:16.000Z</time>
      </trkpt>
      <trkpt lat="45.48056" lon="4.71779">
        <ele>509.79998779297</ele>
        <time>2020-03-10T08:24:18.000Z</time>
      </trkpt>
      <trkpt lat="45.48063" lon="4.71781">
        <ele>510.20001220703</ele>
        <time>2020-03-10T08:24:21.000Z</time>
      </trkpt>
      <trkpt lat="45.48065" lon="4.7178">
        <ele>510.39999389648</ele>
        <time>2020-03-10T08:24:22.000Z</time>
      </trkpt>
      <trkpt lat="45.48069" lon="4.7178">
        <ele>510.60000610352</ele>
        <time>2020-03-10T08:24:24.000Z</time>
      </trkpt>
      <trkpt lat="45.48071" lon="4.71781">
        <ele>510.79998779297</ele>
        <time>2020-03-10T08:24:25.000Z</time>
      </trkpt>
      <trkpt lat="45.48076" lon="4.71782">
        <ele>511.20001220703</ele>
        <time>2020-03-10T08:24:28.000Z</time>
      </trkpt>
      <trkpt lat="45.48079" lon="4.71782">
        <ele>511.39999389648</ele>
        <time>2020-03-10T08:24:30.000Z</time>
      </trkpt>
      <trkpt lat="45.48083" lon="4.71782">
        <ele>511.60000610352</ele>
        <time>2020-03-10T08:24:32.000Z</time>
      </trkpt>
      <trkpt lat="45.48087" lon="4.71783">
        <ele>512</ele>
        <time>2020-03-10T08:24:35.000Z</time>
      </trkpt>
      <trkpt lat="45.48088" lon="4.71782">
        <ele>512</ele>
        <time>2020-03-10T08:24:36.000Z</time>
      </trkpt>
      <trkpt lat="45.48094" lon="4.71781">
        <ele>512.40002441406</ele>
        <time>2020-03-10T08:24:40.000Z</time>
      </trkpt>
      <trkpt lat="45.48096" lon="4.7178">
        <ele>512.79998779297</ele>
        <time>2020-03-10T08:24:42.000Z</time>
      </trkpt>
      <trkpt lat="45.48097" lon="4.71779">
        <ele>513.20001220703</ele>
        <time>2020-03-10T08:24:43.000Z</time>
      </trkpt>
      <trkpt lat="45.48099" lon="4.71778">
        <ele>513.40002441406</ele>
        <time>2020-03-10T08:24:45.000Z</time>
      </trkpt>
      <trkpt lat="45.48105" lon="4.71773">
        <ele>513.79998779297</ele>
        <time>2020-03-10T08:24:49.000Z</time>
      </trkpt>
      <trkpt lat="45.48104" lon="4.71772">
        <ele>514.20001220703</ele>
        <time>2020-03-10T08:24:50.000Z</time>
      </trkpt>
      <trkpt lat="45.48103" lon="4.71769">
        <ele>515</ele>
        <time>2020-03-10T08:24:52.000Z</time>
      </trkpt>
      <trkpt lat="45.48098" lon="4.71765">
        <ele>516.20001220703</ele>
        <time>2020-03-10T08:24:56.000Z</time>
      </trkpt>
      <trkpt lat="45.48095" lon="4.71761">
        <ele>517.20001220703</ele>
        <time>2020-03-10T08:24:59.000Z</time>
      </trkpt>
      <trkpt lat="45.48094" lon="4.7176">
        <ele>517.40002441406</ele>
        <time>2020-03-10T08:25:00.000Z</time>
      </trkpt>
      <trkpt lat="45.48093" lon="4.7176">
        <ele>517.59997558594</ele>
        <time>2020-03-10T08:25:01.000Z</time>
      </trkpt>
      <trkpt lat="45.48093" lon="4.71758">
        <ele>518</ele>
        <time>2020-03-10T08:25:02.000Z</time>
      </trkpt>
      <trkpt lat="45.48092" lon="4.71755">
        <ele>518.59997558594</ele>
        <time>2020-03-10T08:25:04.000Z</time>
      </trkpt>
      <trkpt lat="45.4809" lon="4.71752">
        <ele>519.59997558594</ele>
        <time>2020-03-10T08:25:07.000Z</time>
      </trkpt>
      <trkpt lat="45.48088" lon="4.71748">
        <ele>520</ele>
        <time>2020-03-10T08:25:09.000Z</time>
      </trkpt>
      <trkpt lat="45.48085" lon="4.71742">
        <ele>520.79998779297</ele>
        <time>2020-03-10T08:25:12.000Z</time>
      </trkpt>
      <trkpt lat="45.48085" lon="4.71741">
        <ele>521</ele>
        <time>2020-03-10T08:25:13.000Z</time>
      </trkpt>
      <trkpt lat="45.48082" lon="4.71735">
        <ele>522</ele>
        <time>2020-03-10T08:25:17.000Z</time>
      </trkpt>
      <trkpt lat="45.4808" lon="4.71731">
        <ele>522.59997558594</ele>
        <time>2020-03-10T08:25:19.000Z</time>
      </trkpt>
      <trkpt lat="45.48079" lon="4.7173">
        <ele>523</ele>
        <time>2020-03-10T08:25:20.000Z</time>
      </trkpt>
      <trkpt lat="45.48079" lon="4.71727">
        <ele>523.59997558594</ele>
        <time>2020-03-10T08:25:22.000Z</time>
      </trkpt>
      <trkpt lat="45.48078" lon="4.71723">
        <ele>524</ele>
        <time>2020-03-10T08:25:24.000Z</time>
      </trkpt>
      <trkpt lat="45.48078" lon="4.71721">
        <ele>524.20001220703</ele>
        <time>2020-03-10T08:25:25.000Z</time>
      </trkpt>
      <trkpt lat="45.48079" lon="4.71716">
        <ele>524.59997558594</ele>
        <time>2020-03-10T08:25:27.000Z</time>
      </trkpt>
      <trkpt lat="45.4808" lon="4.71715">
        <ele>525</ele>
        <time>2020-03-10T08:25:28.000Z</time>
      </trkpt>
      <trkpt lat="45.48081" lon="4.71714">
        <ele>525.20001220703</ele>
        <time>2020-03-10T08:25:29.000Z</time>
      </trkpt>
      <trkpt lat="45.48082" lon="4.71714">
        <ele>525.40002441406</ele>
        <time>2020-03-10T08:25:30.000Z</time>
      </trkpt>
      <trkpt lat="45.48085" lon="4.71712">
        <ele>526.20001220703</ele>
        <time>2020-03-10T08:25:32.000Z</time>
      </trkpt>
      <trkpt lat="45.48089" lon="4.7171">
        <ele>527.20001220703</ele>
        <time>2020-03-10T08:25:35.000Z</time>
      </trkpt>
      <trkpt lat="45.4809" lon="4.71709">
        <ele>527.40002441406</ele>
        <time>2020-03-10T08:25:36.000Z</time>
      </trkpt>
      <trkpt lat="45.4809" lon="4.71707">
        <ele>527.79998779297</ele>
        <time>2020-03-10T08:25:38.000Z</time>
      </trkpt>
      <trkpt lat="45.48091" lon="4.71704">
        <ele>528.40002441406</ele>
        <time>2020-03-10T08:25:40.000Z</time>
      </trkpt>
      <trkpt lat="45.48093" lon="4.717">
        <ele>528.79998779297</ele>
        <time>2020-03-10T08:25:42.000Z</time>
      </trkpt>
      <trkpt lat="45.48094" lon="4.71699">
        <ele>529.20001220703</ele>
        <time>2020-03-10T08:25:43.000Z</time>
      </trkpt>
      <trkpt lat="45.48095" lon="4.71698">
        <ele>529.40002441406</ele>
        <time>2020-03-10T08:25:44.000Z</time>
      </trkpt>
      <trkpt lat="45.48099" lon="4.71692">
        <ele>530.59997558594</ele>
        <time>2020-03-10T08:25:48.000Z</time>
      </trkpt>
      <trkpt lat="45.48104" lon="4.71685">
        <ele>531.20001220703</ele>
        <time>2020-03-10T08:25:52.000Z</time>
      </trkpt>
      <trkpt lat="45.48105" lon="4.71684">
        <ele>531.40002441406</ele>
        <time>2020-03-10T08:25:53.000Z</time>
      </trkpt>
      <trkpt lat="45.48106" lon="4.71683">
        <ele>531.59997558594</ele>
        <time>2020-03-10T08:25:54.000Z</time>
      </trkpt>
      <trkpt lat="45.48107" lon="4.71682">
        <ele>531.79998779297</ele>
        <time>2020-03-10T08:25:55.000Z</time>
      </trkpt>
      <trkpt lat="45.48108" lon="4.7168">
        <ele>532</ele>
        <time>2020-03-10T08:25:57.000Z</time>
      </trkpt>
      <trkpt lat="45.48108" lon="4.71679">
        <ele>532.40002441406</ele>
        <time>2020-03-10T08:25:58.000Z</time>
      </trkpt>
      <trkpt lat="45.48108" lon="4.71678">
        <ele>532.59997558594</ele>
        <time>2020-03-10T08:25:59.000Z</time>
      </trkpt>
      <trkpt lat="45.48109" lon="4.71674">
        <ele>533.59997558594</ele>
        <time>2020-03-10T08:26:02.000Z</time>
      </trkpt>
      <trkpt lat="45.48109" lon="4.71672">
        <ele>533.79998779297</ele>
        <time>2020-03-10T08:26:03.000Z</time>
      </trkpt>
      <trkpt lat="45.4811" lon="4.71666">
        <ele>534.40002441406</ele>
        <time>2020-03-10T08:26:06.000Z</time>
      </trkpt>
      <trkpt lat="45.48112" lon="4.71664">
        <ele>535</ele>
        <time>2020-03-10T08:26:08.000Z</time>
      </trkpt>
      <trkpt lat="45.48112" lon="4.71659">
        <ele>536</ele>
        <time>2020-03-10T08:26:10.000Z</time>
      </trkpt>
      <trkpt lat="45.48113" lon="4.71655">
        <ele>536.20001220703</ele>
        <time>2020-03-10T08:26:11.000Z</time>
      </trkpt>
      <trkpt lat="45.48113" lon="4.71653">
        <ele>536.40002441406</ele>
        <time>2020-03-10T08:26:12.000Z</time>
      </trkpt>
      <trkpt lat="45.48115" lon="4.71646">
        <ele>537.20001220703</ele>
        <time>2020-03-10T08:26:15.000Z</time>
      </trkpt>
      <trkpt lat="45.48116" lon="4.71644">
        <ele>537.40002441406</ele>
        <time>2020-03-10T08:26:16.000Z</time>
      </trkpt>
      <trkpt lat="45.48117" lon="4.71641">
        <ele>537.79998779297</ele>
        <time>2020-03-10T08:26:18.000Z</time>
      </trkpt>
      <trkpt lat="45.4812" lon="4.71638">
        <ele>538.79998779297</ele>
        <time>2020-03-10T08:26:21.000Z</time>
      </trkpt>
      <trkpt lat="45.48122" lon="4.71638">
        <ele>539</ele>
        <time>2020-03-10T08:26:22.000Z</time>
      </trkpt>
      <trkpt lat="45.48124" lon="4.71637">
        <ele>539.59997558594</ele>
        <time>2020-03-10T08:26:24.000Z</time>
      </trkpt>
      <trkpt lat="45.48125" lon="4.71636">
        <ele>539.79998779297</ele>
        <time>2020-03-10T08:26:25.000Z</time>
      </trkpt>
      <trkpt lat="45.4813" lon="4.7163">
        <ele>541</ele>
        <time>2020-03-10T08:26:30.000Z</time>
      </trkpt>
      <trkpt lat="45.48133" lon="4.71629">
        <ele>541.79998779297</ele>
        <time>2020-03-10T08:26:32.000Z</time>
      </trkpt>
      <trkpt lat="45.48134" lon="4.71628">
        <ele>542.20001220703</ele>
        <time>2020-03-10T08:26:33.000Z</time>
      </trkpt>
      <trkpt lat="45.48137" lon="4.71622">
        <ele>543.20001220703</ele>
        <time>2020-03-10T08:26:38.000Z</time>
      </trkpt>
      <trkpt lat="45.48141" lon="4.7162">
        <ele>544.59997558594</ele>
        <time>2020-03-10T08:26:41.000Z</time>
      </trkpt>
      <trkpt lat="45.48142" lon="4.71618">
        <ele>544.79998779297</ele>
        <time>2020-03-10T08:26:42.000Z</time>
      </trkpt>
      <trkpt lat="45.48144" lon="4.71615">
        <ele>545.59997558594</ele>
        <time>2020-03-10T08:26:44.000Z</time>
      </trkpt>
      <trkpt lat="45.48144" lon="4.71614">
        <ele>546</ele>
        <time>2020-03-10T08:26:45.000Z</time>
      </trkpt>
      <trkpt lat="45.48149" lon="4.71608">
        <ele>546.79998779297</ele>
        <time>2020-03-10T08:26:50.000Z</time>
      </trkpt>
      <trkpt lat="45.48151" lon="4.71608">
        <ele>547.40002441406</ele>
        <time>2020-03-10T08:26:52.000Z</time>
      </trkpt>
      <trkpt lat="45.48152" lon="4.71608">
        <ele>547.79998779297</ele>
        <time>2020-03-10T08:26:53.000Z</time>
      </trkpt>
      <trkpt lat="45.48153" lon="4.71609">
        <ele>548.79998779297</ele>
        <time>2020-03-10T08:26:55.000Z</time>
      </trkpt>
      <trkpt lat="45.48154" lon="4.71609">
        <ele>549</ele>
        <time>2020-03-10T08:26:56.000Z</time>
      </trkpt>
      <trkpt lat="45.48157" lon="4.7161">
        <ele>549.59997558594</ele>
        <time>2020-03-10T08:26:58.000Z</time>
      </trkpt>
      <trkpt lat="45.48159" lon="4.71611">
        <ele>550.40002441406</ele>
        <time>2020-03-10T08:27:00.000Z</time>
      </trkpt>
      <trkpt lat="45.4816" lon="4.71612">
        <ele>550.59997558594</ele>
        <time>2020-03-10T08:27:01.000Z</time>
      </trkpt>
      <trkpt lat="45.48161" lon="4.71612">
        <ele>551</ele>
        <time>2020-03-10T08:27:02.000Z</time>
      </trkpt>
      <trkpt lat="45.48163" lon="4.71613">
        <ele>551.20001220703</ele>
        <time>2020-03-10T08:27:03.000Z</time>
      </trkpt>
      <trkpt lat="45.48164" lon="4.71613">
        <ele>551.40002441406</ele>
        <time>2020-03-10T08:27:04.000Z</time>
      </trkpt>
      <trkpt lat="45.4817" lon="4.71613">
        <ele>552.20001220703</ele>
        <time>2020-03-10T08:27:08.000Z</time>
      </trkpt>
      <trkpt lat="45.48172" lon="4.71613">
        <ele>552.59997558594</ele>
        <time>2020-03-10T08:27:09.000Z</time>
      </trkpt>
      <trkpt lat="45.48172" lon="4.71612">
        <ele>552.79998779297</ele>
        <time>2020-03-10T08:27:10.000Z</time>
      </trkpt>
      <trkpt lat="45.48174" lon="4.7161">
        <ele>553.40002441406</ele>
        <time>2020-03-10T08:27:12.000Z</time>
      </trkpt>
      <trkpt lat="45.48175" lon="4.7161">
        <ele>553.59997558594</ele>
        <time>2020-03-10T08:27:13.000Z</time>
      </trkpt>
      <trkpt lat="45.48177" lon="4.7161">
        <ele>554</ele>
        <time>2020-03-10T08:27:14.000Z</time>
      </trkpt>
      <trkpt lat="45.48178" lon="4.71611">
        <ele>554.20001220703</ele>
        <time>2020-03-10T08:27:15.000Z</time>
      </trkpt>
      <trkpt lat="45.4818" lon="4.71613">
        <ele>554.79998779297</ele>
        <time>2020-03-10T08:27:17.000Z</time>
      </trkpt>
      <trkpt lat="45.48186" lon="4.71617">
        <ele>555.79998779297</ele>
        <time>2020-03-10T08:27:22.000Z</time>
      </trkpt>
      <trkpt lat="45.48189" lon="4.71619">
        <ele>556</ele>
        <time>2020-03-10T08:27:24.000Z</time>
      </trkpt>
      <trkpt lat="45.48197" lon="4.71622">
        <ele>557</ele>
        <time>2020-03-10T08:27:30.000Z</time>
      </trkpt>
      <trkpt lat="45.48198" lon="4.71623">
        <ele>557.20001220703</ele>
        <time>2020-03-10T08:27:31.000Z</time>
      </trkpt>
      <trkpt lat="45.482" lon="4.71623">
        <ele>557.20001220703</ele>
        <time>2020-03-10T08:27:32.000Z</time>
      </trkpt>
      <trkpt lat="45.48202" lon="4.71623">
        <ele>558</ele>
        <time>2020-03-10T08:27:34.000Z</time>
      </trkpt>
      <trkpt lat="45.48203" lon="4.71622">
        <ele>559</ele>
        <time>2020-03-10T08:27:36.000Z</time>
      </trkpt>
      <trkpt lat="45.48203" lon="4.71621">
        <ele>559.40002441406</ele>
        <time>2020-03-10T08:27:37.000Z</time>
      </trkpt>
      <trkpt lat="45.48203" lon="4.71619">
        <ele>560</ele>
        <time>2020-03-10T08:27:39.000Z</time>
      </trkpt>
      <trkpt lat="45.48203" lon="4.71618">
        <ele>560.40002441406</ele>
        <time>2020-03-10T08:27:40.000Z</time>
      </trkpt>
      <trkpt lat="45.48203" lon="4.71615">
        <ele>561.40002441406</ele>
        <time>2020-03-10T08:27:42.000Z</time>
      </trkpt>
      <trkpt lat="45.48203" lon="4.71614">
        <ele>561.79998779297</ele>
        <time>2020-03-10T08:27:43.000Z</time>
      </trkpt>
      <trkpt lat="45.48203" lon="4.7161">
        <ele>563</ele>
        <time>2020-03-10T08:27:47.000Z</time>
      </trkpt>
      <trkpt lat="45.48203" lon="4.71609">
        <ele>563.59997558594</ele>
        <time>2020-03-10T08:27:49.000Z</time>
      </trkpt>
      <trkpt lat="45.48203" lon="4.71608">
        <ele>563.79998779297</ele>
        <time>2020-03-10T08:27:50.000Z</time>
      </trkpt>
      <trkpt lat="45.48203" lon="4.71608">
        <ele>564.20001220703</ele>
        <time>2020-03-10T08:27:51.000Z</time>
      </trkpt>
      <trkpt lat="45.48202" lon="4.71607">
        <ele>564.59997558594</ele>
        <time>2020-03-10T08:27:52.000Z</time>
      </trkpt>
      <trkpt lat="45.48202" lon="4.71607">
        <ele>565.20001220703</ele>
        <time>2020-03-10T08:27:53.000Z</time>
      </trkpt>
      <trkpt lat="45.48201" lon="4.71605">
        <ele>565.79998779297</ele>
        <time>2020-03-10T08:27:55.000Z</time>
      </trkpt>
      <trkpt lat="45.482" lon="4.71603">
        <ele>566</ele>
        <time>2020-03-10T08:27:56.000Z</time>
      </trkpt>
      <trkpt lat="45.48201" lon="4.71601">
        <ele>566.40002441406</ele>
        <time>2020-03-10T08:27:57.000Z</time>
      </trkpt>
      <trkpt lat="45.482" lon="4.71599">
        <ele>567</ele>
        <time>2020-03-10T08:27:59.000Z</time>
      </trkpt>
      <trkpt lat="45.48198" lon="4.71597">
        <ele>567.59997558594</ele>
        <time>2020-03-10T08:28:01.000Z</time>
      </trkpt>
      <trkpt lat="45.48197" lon="4.71594">
        <ele>567.79998779297</ele>
        <time>2020-03-10T08:28:02.000Z</time>
      </trkpt>
      <trkpt lat="45.48195" lon="4.7159">
        <ele>568.40002441406</ele>
        <time>2020-03-10T08:28:05.000Z</time>
      </trkpt>
      <trkpt lat="45.48192" lon="4.71591">
        <ele>568.59997558594</ele>
        <time>2020-03-10T08:28:07.000Z</time>
      </trkpt>
      <trkpt lat="45.4819" lon="4.71591">
        <ele>569.20001220703</ele>
        <time>2020-03-10T08:28:09.000Z</time>
      </trkpt>
      <trkpt lat="45.48189" lon="4.7159">
        <ele>569.79998779297</ele>
        <time>2020-03-10T08:28:10.000Z</time>
      </trkpt>
      <trkpt lat="45.48189" lon="4.71588">
        <ele>570.40002441406</ele>
        <time>2020-03-10T08:28:12.000Z</time>
      </trkpt>
      <trkpt lat="45.48188" lon="4.71587">
        <ele>570.79998779297</ele>
        <time>2020-03-10T08:28:13.000Z</time>
      </trkpt>
      <trkpt lat="45.48189" lon="4.71583">
        <ele>571.59997558594</ele>
        <time>2020-03-10T08:28:16.000Z</time>
      </trkpt>
      <trkpt lat="45.4819" lon="4.7158">
        <ele>572</ele>
        <time>2020-03-10T08:28:18.000Z</time>
      </trkpt>
      <trkpt lat="45.48191" lon="4.71579">
        <ele>572.20001220703</ele>
        <time>2020-03-10T08:28:19.000Z</time>
      </trkpt>
      <trkpt lat="45.48193" lon="4.71578">
        <ele>573.20001220703</ele>
        <time>2020-03-10T08:28:22.000Z</time>
      </trkpt>
      <trkpt lat="45.48202" lon="4.7158">
        <ele>574.20001220703</ele>
        <time>2020-03-10T08:28:27.000Z</time>
      </trkpt>
      <trkpt lat="45.48203" lon="4.71581">
        <ele>574.40002441406</ele>
        <time>2020-03-10T08:28:28.000Z</time>
      </trkpt>
      <trkpt lat="45.48213" lon="4.71579">
        <ele>575.40002441406</ele>
        <time>2020-03-10T08:28:32.000Z</time>
      </trkpt>
      <trkpt lat="45.48215" lon="4.71579">
        <ele>575.40002441406</ele>
        <time>2020-03-10T08:28:33.000Z</time>
      </trkpt>
      <trkpt lat="45.48223" lon="4.71581">
        <ele>576.40002441406</ele>
        <time>2020-03-10T08:28:39.000Z</time>
      </trkpt>
      <trkpt lat="45.48228" lon="4.71582">
        <ele>577</ele>
        <time>2020-03-10T08:28:42.000Z</time>
      </trkpt>
      <trkpt lat="45.48235" lon="4.71584">
        <ele>577.59997558594</ele>
        <time>2020-03-10T08:28:46.000Z</time>
      </trkpt>
      <trkpt lat="45.48245" lon="4.71587">
        <ele>578.59997558594</ele>
        <time>2020-03-10T08:28:51.000Z</time>
      </trkpt>
      <trkpt lat="45.48248" lon="4.71588">
        <ele>578.59997558594</ele>
        <time>2020-03-10T08:28:52.000Z</time>
      </trkpt>
      <trkpt lat="45.48249" lon="4.71589">
        <ele>578.79998779297</ele>
        <time>2020-03-10T08:28:53.000Z</time>
      </trkpt>
      <trkpt lat="45.48251" lon="4.71589">
        <ele>578.79998779297</ele>
        <time>2020-03-10T08:28:54.000Z</time>
      </trkpt>
      <trkpt lat="45.48256" lon="4.71593">
        <ele>579.20001220703</ele>
        <time>2020-03-10T08:28:57.000Z</time>
      </trkpt>
      <trkpt lat="45.4826" lon="4.71593">
        <ele>579.59997558594</ele>
        <time>2020-03-10T08:28:59.000Z</time>
      </trkpt>
      <trkpt lat="45.48262" lon="4.71594">
        <ele>579.79998779297</ele>
        <time>2020-03-10T08:29:00.000Z</time>
      </trkpt>
      <trkpt lat="45.48266" lon="4.71595">
        <ele>580.20001220703</ele>
        <time>2020-03-10T08:29:02.000Z</time>
      </trkpt>
      <trkpt lat="45.48272" lon="4.71597">
        <ele>580.40002441406</ele>
        <time>2020-03-10T08:29:05.000Z</time>
      </trkpt>
      <trkpt lat="45.48277" lon="4.71599">
        <ele>581</ele>
        <time>2020-03-10T08:29:08.000Z</time>
      </trkpt>
      <trkpt lat="45.4828" lon="4.71603">
        <ele>581.20001220703</ele>
        <time>2020-03-10T08:29:11.000Z</time>
      </trkpt>
      <trkpt lat="45.48282" lon="4.71605">
        <ele>581.20001220703</ele>
        <time>2020-03-10T08:29:12.000Z</time>
      </trkpt>
      <trkpt lat="45.48286" lon="4.71613">
        <ele>581.40002441406</ele>
        <time>2020-03-10T08:29:16.000Z</time>
      </trkpt>
      <trkpt lat="45.48298" lon="4.71621">
        <ele>582.20001220703</ele>
        <time>2020-03-10T08:29:22.000Z</time>
      </trkpt>
      <trkpt lat="45.48311" lon="4.71626">
        <ele>582.79998779297</ele>
        <time>2020-03-10T08:29:28.000Z</time>
      </trkpt>
      <trkpt lat="45.48314" lon="4.71627">
        <ele>583.20001220703</ele>
        <time>2020-03-10T08:29:30.000Z</time>
      </trkpt>
      <trkpt lat="45.48317" lon="4.71629">
        <ele>583.40002441406</ele>
        <time>2020-03-10T08:29:32.000Z</time>
      </trkpt>
      <trkpt lat="45.48324" lon="4.71632">
        <ele>584.40002441406</ele>
        <time>2020-03-10T08:29:36.000Z</time>
      </trkpt>
      <trkpt lat="45.48335" lon="4.71634">
        <ele>585.40002441406</ele>
        <time>2020-03-10T08:29:42.000Z</time>
      </trkpt>
      <trkpt lat="45.48337" lon="4.71635">
        <ele>585.59997558594</ele>
        <time>2020-03-10T08:29:43.000Z</time>
      </trkpt>
      <trkpt lat="45.48348" lon="4.71638">
        <ele>586.40002441406</ele>
        <time>2020-03-10T08:29:50.000Z</time>
      </trkpt>
      <trkpt lat="45.48349" lon="4.71638">
        <ele>586.59997558594</ele>
        <time>2020-03-10T08:29:51.000Z</time>
      </trkpt>
      <trkpt lat="45.48352" lon="4.71637">
        <ele>586.79998779297</ele>
        <time>2020-03-10T08:29:52.000Z</time>
      </trkpt>
      <trkpt lat="45.48358" lon="4.71637">
        <ele>587.40002441406</ele>
        <time>2020-03-10T08:29:55.000Z</time>
      </trkpt>
      <trkpt lat="45.48359" lon="4.71636">
        <ele>587.59997558594</ele>
        <time>2020-03-10T08:29:56.000Z</time>
      </trkpt>
      <trkpt lat="45.48361" lon="4.71636">
        <ele>588</ele>
        <time>2020-03-10T08:29:57.000Z</time>
      </trkpt>
      <trkpt lat="45.48367" lon="4.71634">
        <ele>589.20001220703</ele>
        <time>2020-03-10T08:30:01.000Z</time>
      </trkpt>
      <trkpt lat="45.48369" lon="4.71633">
        <ele>589.40002441406</ele>
        <time>2020-03-10T08:30:02.000Z</time>
      </trkpt>
      <trkpt lat="45.48374" lon="4.71631">
        <ele>590.20001220703</ele>
        <time>2020-03-10T08:30:06.000Z</time>
      </trkpt>
      <trkpt lat="45.48377" lon="4.71629">
        <ele>591.20001220703</ele>
        <time>2020-03-10T08:30:08.000Z</time>
      </trkpt>
      <trkpt lat="45.48379" lon="4.71628">
        <ele>591.40002441406</ele>
        <time>2020-03-10T08:30:09.000Z</time>
      </trkpt>
      <trkpt lat="45.48382" lon="4.71625">
        <ele>592</ele>
        <time>2020-03-10T08:30:12.000Z</time>
      </trkpt>
      <trkpt lat="45.48385" lon="4.71623">
        <ele>592.59997558594</ele>
        <time>2020-03-10T08:30:14.000Z</time>
      </trkpt>
      <trkpt lat="45.48386" lon="4.71621">
        <ele>592.79998779297</ele>
        <time>2020-03-10T08:30:15.000Z</time>
      </trkpt>
      <trkpt lat="45.48391" lon="4.71616">
        <ele>593.59997558594</ele>
        <time>2020-03-10T08:30:19.000Z</time>
      </trkpt>
      <trkpt lat="45.48393" lon="4.71613">
        <ele>594</ele>
        <time>2020-03-10T08:30:21.000Z</time>
      </trkpt>
      <trkpt lat="45.48394" lon="4.71611">
        <ele>594.20001220703</ele>
        <time>2020-03-10T08:30:22.000Z</time>
      </trkpt>
      <trkpt lat="45.48396" lon="4.71609">
        <ele>594.79998779297</ele>
        <time>2020-03-10T08:30:24.000Z</time>
      </trkpt>
      <trkpt lat="45.48398" lon="4.71603">
        <ele>596</ele>
        <time>2020-03-10T08:30:28.000Z</time>
      </trkpt>
      <trkpt lat="45.48399" lon="4.71601">
        <ele>596.20001220703</ele>
        <time>2020-03-10T08:30:29.000Z</time>
      </trkpt>
      <trkpt lat="45.48399" lon="4.716">
        <ele>596.40002441406</ele>
        <time>2020-03-10T08:30:30.000Z</time>
      </trkpt>
      <trkpt lat="45.48401" lon="4.71597">
        <ele>596.59997558594</ele>
        <time>2020-03-10T08:30:32.000Z</time>
      </trkpt>
      <trkpt lat="45.48402" lon="4.71595">
        <ele>597</ele>
        <time>2020-03-10T08:30:34.000Z</time>
      </trkpt>
      <trkpt lat="45.48402" lon="4.71593">
        <ele>597.40002441406</ele>
        <time>2020-03-10T08:30:35.000Z</time>
      </trkpt>
      <trkpt lat="45.48403" lon="4.71588">
        <ele>598.20001220703</ele>
        <time>2020-03-10T08:30:38.000Z</time>
      </trkpt>
      <trkpt lat="45.48405" lon="4.7158">
        <ele>598.59997558594</ele>
        <time>2020-03-10T08:30:42.000Z</time>
      </trkpt>
      <trkpt lat="45.48407" lon="4.71578">
        <ele>598.79998779297</ele>
        <time>2020-03-10T08:30:43.000Z</time>
      </trkpt>
      <trkpt lat="45.48408" lon="4.71573">
        <ele>599.40002441406</ele>
        <time>2020-03-10T08:30:45.000Z</time>
      </trkpt>
      <trkpt lat="45.4841" lon="4.71567">
        <ele>600</ele>
        <time>2020-03-10T08:30:48.000Z</time>
      </trkpt>
      <trkpt lat="45.48412" lon="4.71563">
        <ele>600.59997558594</ele>
        <time>2020-03-10T08:30:50.000Z</time>
      </trkpt>
      <trkpt lat="45.48415" lon="4.71559">
        <ele>601</ele>
        <time>2020-03-10T08:30:52.000Z</time>
      </trkpt>
      <trkpt lat="45.48419" lon="4.71549">
        <ele>601.79998779297</ele>
        <time>2020-03-10T08:30:57.000Z</time>
      </trkpt>
      <trkpt lat="45.48424" lon="4.71539">
        <ele>602.59997558594</ele>
        <time>2020-03-10T08:31:02.000Z</time>
      </trkpt>
      <trkpt lat="45.48426" lon="4.71533">
        <ele>603</ele>
        <time>2020-03-10T08:31:05.000Z</time>
      </trkpt>
      <trkpt lat="45.48428" lon="4.71527">
        <ele>603.59997558594</ele>
        <time>2020-03-10T08:31:09.000Z</time>
      </trkpt>
      <trkpt lat="45.48429" lon="4.71523">
        <ele>604.20001220703</ele>
        <time>2020-03-10T08:31:11.000Z</time>
      </trkpt>
      <trkpt lat="45.48429" lon="4.7152">
        <ele>604.59997558594</ele>
        <time>2020-03-10T08:31:12.000Z</time>
      </trkpt>
      <trkpt lat="45.48432" lon="4.71514">
        <ele>605.40002441406</ele>
        <time>2020-03-10T08:31:15.000Z</time>
      </trkpt>
      <trkpt lat="45.48435" lon="4.71506">
        <ele>606.20001220703</ele>
        <time>2020-03-10T08:31:19.000Z</time>
      </trkpt>
      <trkpt lat="45.48436" lon="4.71504">
        <ele>606.40002441406</ele>
        <time>2020-03-10T08:31:20.000Z</time>
      </trkpt>
      <trkpt lat="45.48438" lon="4.71501">
        <ele>606.79998779297</ele>
        <time>2020-03-10T08:31:22.000Z</time>
      </trkpt>
      <trkpt lat="45.4844" lon="4.71495">
        <ele>607.59997558594</ele>
        <time>2020-03-10T08:31:25.000Z</time>
      </trkpt>
      <trkpt lat="45.48441" lon="4.71494">
        <ele>607.59997558594</ele>
        <time>2020-03-10T08:31:26.000Z</time>
      </trkpt>
      <trkpt lat="45.48446" lon="4.71487">
        <ele>608.59997558594</ele>
        <time>2020-03-10T08:31:30.000Z</time>
      </trkpt>
      <trkpt lat="45.48448" lon="4.71483">
        <ele>608.79998779297</ele>
        <time>2020-03-10T08:31:32.000Z</time>
      </trkpt>
      <trkpt lat="45.48456" lon="4.71475">
        <ele>609.79998779297</ele>
        <time>2020-03-10T08:31:37.000Z</time>
      </trkpt>
      <trkpt lat="45.48462" lon="4.71467">
        <ele>610.20001220703</ele>
        <time>2020-03-10T08:31:41.000Z</time>
      </trkpt>
      <trkpt lat="45.48463" lon="4.71465">
        <ele>610.40002441406</ele>
        <time>2020-03-10T08:31:42.000Z</time>
      </trkpt>
      <trkpt lat="45.48471" lon="4.71457">
        <ele>611</ele>
        <time>2020-03-10T08:31:47.000Z</time>
      </trkpt>
      <trkpt lat="45.48477" lon="4.71446">
        <ele>612</ele>
        <time>2020-03-10T08:31:52.000Z</time>
      </trkpt>
      <trkpt lat="45.48478" lon="4.71444">
        <ele>612.20001220703</ele>
        <time>2020-03-10T08:31:53.000Z</time>
      </trkpt>
      <trkpt lat="45.48482" lon="4.71441">
        <ele>612.40002441406</ele>
        <time>2020-03-10T08:31:55.000Z</time>
      </trkpt>
      <trkpt lat="45.48486" lon="4.71437">
        <ele>612.40002441406</ele>
        <time>2020-03-10T08:31:58.000Z</time>
      </trkpt>
      <trkpt lat="45.48487" lon="4.71435">
        <ele>612.59997558594</ele>
        <time>2020-03-10T08:31:59.000Z</time>
      </trkpt>
      <trkpt lat="45.4849" lon="4.71432">
        <ele>613.20001220703</ele>
        <time>2020-03-10T08:32:01.000Z</time>
      </trkpt>
      <trkpt lat="45.48492" lon="4.7143">
        <ele>613.20001220703</ele>
        <time>2020-03-10T08:32:02.000Z</time>
      </trkpt>
      <trkpt lat="45.48495" lon="4.71425">
        <ele>613.59997558594</ele>
        <time>2020-03-10T08:32:05.000Z</time>
      </trkpt>
      <trkpt lat="45.48497" lon="4.71423">
        <ele>613.79998779297</ele>
        <time>2020-03-10T08:32:06.000Z</time>
      </trkpt>
      <trkpt lat="45.48501" lon="4.71419">
        <ele>614.40002441406</ele>
        <time>2020-03-10T08:32:09.000Z</time>
      </trkpt>
      <trkpt lat="45.48505" lon="4.71412">
        <ele>615</ele>
        <time>2020-03-10T08:32:12.000Z</time>
      </trkpt>
      <trkpt lat="45.4851" lon="4.71407">
        <ele>615.40002441406</ele>
        <time>2020-03-10T08:32:15.000Z</time>
      </trkpt>
      <trkpt lat="45.48513" lon="4.71401">
        <ele>615.79998779297</ele>
        <time>2020-03-10T08:32:18.000Z</time>
      </trkpt>
      <trkpt lat="45.48517" lon="4.71396">
        <ele>616.40002441406</ele>
        <time>2020-03-10T08:32:21.000Z</time>
      </trkpt>
      <trkpt lat="45.48518" lon="4.71394">
        <ele>616.59997558594</ele>
        <time>2020-03-10T08:32:22.000Z</time>
      </trkpt>
      <trkpt lat="45.48519" lon="4.71392">
        <ele>616.79998779297</ele>
        <time>2020-03-10T08:32:23.000Z</time>
      </trkpt>
      <trkpt lat="45.48522" lon="4.71386">
        <ele>617.59997558594</ele>
        <time>2020-03-10T08:32:26.000Z</time>
      </trkpt>
      <trkpt lat="45.48523" lon="4.71384">
        <ele>618</ele>
        <time>2020-03-10T08:32:27.000Z</time>
      </trkpt>
      <trkpt lat="45.48524" lon="4.71381">
        <ele>618.40002441406</ele>
        <time>2020-03-10T08:32:29.000Z</time>
      </trkpt>
      <trkpt lat="45.48525" lon="4.71377">
        <ele>619</ele>
        <time>2020-03-10T08:32:31.000Z</time>
      </trkpt>
      <trkpt lat="45.48525" lon="4.71375">
        <ele>619.20001220703</ele>
        <time>2020-03-10T08:32:32.000Z</time>
      </trkpt>
      <trkpt lat="45.48526" lon="4.71374">
        <ele>619.40002441406</ele>
        <time>2020-03-10T08:32:33.000Z</time>
      </trkpt>
      <trkpt lat="45.48528" lon="4.71371">
        <ele>619.59997558594</ele>
        <time>2020-03-10T08:32:35.000Z</time>
      </trkpt>
      <trkpt lat="45.48529" lon="4.71367">
        <ele>620.20001220703</ele>
        <time>2020-03-10T08:32:37.000Z</time>
      </trkpt>
      <trkpt lat="45.48533" lon="4.71361">
        <ele>621</ele>
        <time>2020-03-10T08:32:41.000Z</time>
      </trkpt>
      <trkpt lat="45.48534" lon="4.71359">
        <ele>621.20001220703</ele>
        <time>2020-03-10T08:32:42.000Z</time>
      </trkpt>
      <trkpt lat="45.48538" lon="4.71352">
        <ele>622.40002441406</ele>
        <time>2020-03-10T08:32:46.000Z</time>
      </trkpt>
      <trkpt lat="45.48539" lon="4.7135">
        <ele>622.59997558594</ele>
        <time>2020-03-10T08:32:47.000Z</time>
      </trkpt>
      <trkpt lat="45.48543" lon="4.71341">
        <ele>623.59997558594</ele>
        <time>2020-03-10T08:32:51.000Z</time>
      </trkpt>
      <trkpt lat="45.48544" lon="4.7134">
        <ele>623.79998779297</ele>
        <time>2020-03-10T08:32:52.000Z</time>
      </trkpt>
      <trkpt lat="45.48545" lon="4.71338">
        <ele>624</ele>
        <time>2020-03-10T08:32:53.000Z</time>
      </trkpt>
      <trkpt lat="45.48548" lon="4.71336">
        <ele>624.79998779297</ele>
        <time>2020-03-10T08:32:55.000Z</time>
      </trkpt>
      <trkpt lat="45.48552" lon="4.71333">
        <ele>625.59997558594</ele>
        <time>2020-03-10T08:32:58.000Z</time>
      </trkpt>
      <trkpt lat="45.48554" lon="4.71332">
        <ele>625.79998779297</ele>
        <time>2020-03-10T08:32:59.000Z</time>
      </trkpt>
      <trkpt lat="45.48554" lon="4.7133">
        <ele>626</ele>
        <time>2020-03-10T08:33:00.000Z</time>
      </trkpt>
      <trkpt lat="45.48555" lon="4.71329">
        <ele>626</ele>
        <time>2020-03-10T08:33:01.000Z</time>
      </trkpt>
      <trkpt lat="45.48556" lon="4.71327">
        <ele>626.20001220703</ele>
        <time>2020-03-10T08:33:02.000Z</time>
      </trkpt>
      <trkpt lat="45.48559" lon="4.71325">
        <ele>626.40002441406</ele>
        <time>2020-03-10T08:33:04.000Z</time>
      </trkpt>
      <trkpt lat="45.48561" lon="4.71323">
        <ele>627.40002441406</ele>
        <time>2020-03-10T08:33:06.000Z</time>
      </trkpt>
      <trkpt lat="45.48562" lon="4.71322">
        <ele>627.59997558594</ele>
        <time>2020-03-10T08:33:07.000Z</time>
      </trkpt>
      <trkpt lat="45.48563" lon="4.7132">
        <ele>628.20001220703</ele>
        <time>2020-03-10T08:33:09.000Z</time>
      </trkpt>
      <trkpt lat="45.48566" lon="4.71317">
        <ele>628.40002441406</ele>
        <time>2020-03-10T08:33:11.000Z</time>
      </trkpt>
      <trkpt lat="45.48568" lon="4.71316">
        <ele>628.59997558594</ele>
        <time>2020-03-10T08:33:12.000Z</time>
      </trkpt>
      <trkpt lat="45.48573" lon="4.71313">
        <ele>629.79998779297</ele>
        <time>2020-03-10T08:33:15.000Z</time>
      </trkpt>
      <trkpt lat="45.48575" lon="4.71312">
        <ele>630.20001220703</ele>
        <time>2020-03-10T08:33:17.000Z</time>
      </trkpt>
      <trkpt lat="45.48576" lon="4.71312">
        <ele>630.59997558594</ele>
        <time>2020-03-10T08:33:18.000Z</time>
      </trkpt>
      <trkpt lat="45.48577" lon="4.71311">
        <ele>631</ele>
        <time>2020-03-10T08:33:19.000Z</time>
      </trkpt>
      <trkpt lat="45.48579" lon="4.71308">
        <ele>631.40002441406</ele>
        <time>2020-03-10T08:33:21.000Z</time>
      </trkpt>
      <trkpt lat="45.48581" lon="4.71308">
        <ele>631.59997558594</ele>
        <time>2020-03-10T08:33:22.000Z</time>
      </trkpt>
      <trkpt lat="45.48583" lon="4.71307">
        <ele>631.79998779297</ele>
        <time>2020-03-10T08:33:24.000Z</time>
      </trkpt>
      <trkpt lat="45.48584" lon="4.71307">
        <ele>632</ele>
        <time>2020-03-10T08:33:25.000Z</time>
      </trkpt>
      <trkpt lat="45.48585" lon="4.71306">
        <ele>632.20001220703</ele>
        <time>2020-03-10T08:33:26.000Z</time>
      </trkpt>
      <trkpt lat="45.48588" lon="4.71306">
        <ele>633.20001220703</ele>
        <time>2020-03-10T08:33:28.000Z</time>
      </trkpt>
      <trkpt lat="45.48593" lon="4.71302">
        <ele>634.20001220703</ele>
        <time>2020-03-10T08:33:32.000Z</time>
      </trkpt>
      <trkpt lat="45.48594" lon="4.71301">
        <ele>634.40002441406</ele>
        <time>2020-03-10T08:33:33.000Z</time>
      </trkpt>
      <trkpt lat="45.48598" lon="4.713">
        <ele>635.20001220703</ele>
        <time>2020-03-10T08:33:36.000Z</time>
      </trkpt>
      <trkpt lat="45.486" lon="4.71299">
        <ele>636</ele>
        <time>2020-03-10T08:33:38.000Z</time>
      </trkpt>
      <trkpt lat="45.48602" lon="4.71299">
        <ele>636.40002441406</ele>
        <time>2020-03-10T08:33:39.000Z</time>
      </trkpt>
      <trkpt lat="45.48602" lon="4.71299">
        <ele>636.59997558594</ele>
        <time>2020-03-10T08:33:40.000Z</time>
      </trkpt>
      <trkpt lat="45.48603" lon="4.71298">
        <ele>636.79998779297</ele>
        <time>2020-03-10T08:33:41.000Z</time>
      </trkpt>
      <trkpt lat="45.48603" lon="4.71297">
        <ele>637.40002441406</ele>
        <time>2020-03-10T08:33:42.000Z</time>
      </trkpt>
      <trkpt lat="45.48604" lon="4.71296">
        <ele>637.79998779297</ele>
        <time>2020-03-10T08:33:43.000Z</time>
      </trkpt>
      <trkpt lat="45.48609" lon="4.71294">
        <ele>638.59997558594</ele>
        <time>2020-03-10T08:33:46.000Z</time>
      </trkpt>
      <trkpt lat="45.48611" lon="4.71294">
        <ele>638.79998779297</ele>
        <time>2020-03-10T08:33:48.000Z</time>
      </trkpt>
      <trkpt lat="45.48614" lon="4.71295">
        <ele>639</ele>
        <time>2020-03-10T08:33:50.000Z</time>
      </trkpt>
      <trkpt lat="45.48617" lon="4.71296">
        <ele>639.79998779297</ele>
        <time>2020-03-10T08:33:52.000Z</time>
      </trkpt>
      <trkpt lat="45.48618" lon="4.71296">
        <ele>640.40002441406</ele>
        <time>2020-03-10T08:33:53.000Z</time>
      </trkpt>
      <trkpt lat="45.48621" lon="4.71295">
        <ele>641.59997558594</ele>
        <time>2020-03-10T08:33:56.000Z</time>
      </trkpt>
      <trkpt lat="45.48623" lon="4.71294">
        <ele>641.79998779297</ele>
        <time>2020-03-10T08:33:58.000Z</time>
      </trkpt>
      <trkpt lat="45.48624" lon="4.71292">
        <ele>642.20001220703</ele>
        <time>2020-03-10T08:33:59.000Z</time>
      </trkpt>
      <trkpt lat="45.48629" lon="4.71291">
        <ele>642.79998779297</ele>
        <time>2020-03-10T08:34:02.000Z</time>
      </trkpt>
      <trkpt lat="45.4863" lon="4.7129">
        <ele>643.59997558594</ele>
        <time>2020-03-10T08:34:04.000Z</time>
      </trkpt>
      <trkpt lat="45.48631" lon="4.7129">
        <ele>643.79998779297</ele>
        <time>2020-03-10T08:34:05.000Z</time>
      </trkpt>
      <trkpt lat="45.48632" lon="4.7129">
        <ele>644</ele>
        <time>2020-03-10T08:34:06.000Z</time>
      </trkpt>
      <trkpt lat="45.48635" lon="4.7129">
        <ele>644.59997558594</ele>
        <time>2020-03-10T08:34:08.000Z</time>
      </trkpt>
      <trkpt lat="45.48639" lon="4.71289">
        <ele>645.20001220703</ele>
        <time>2020-03-10T08:34:10.000Z</time>
      </trkpt>
      <trkpt lat="45.48643" lon="4.71288">
        <ele>645.79998779297</ele>
        <time>2020-03-10T08:34:12.000Z</time>
      </trkpt>
      <trkpt lat="45.48648" lon="4.71288">
        <ele>646.20001220703</ele>
        <time>2020-03-10T08:34:15.000Z</time>
      </trkpt>
      <trkpt lat="45.4865" lon="4.71289">
        <ele>646.59997558594</ele>
        <time>2020-03-10T08:34:16.000Z</time>
      </trkpt>
      <trkpt lat="45.48654" lon="4.71291">
        <ele>647.59997558594</ele>
        <time>2020-03-10T08:34:19.000Z</time>
      </trkpt>
      <trkpt lat="45.48655" lon="4.71291">
        <ele>647.79998779297</ele>
        <time>2020-03-10T08:34:20.000Z</time>
      </trkpt>
      <trkpt lat="45.48657" lon="4.71291">
        <ele>647.79998779297</ele>
        <time>2020-03-10T08:34:21.000Z</time>
      </trkpt>
      <trkpt lat="45.48659" lon="4.71291">
        <ele>648</ele>
        <time>2020-03-10T08:34:22.000Z</time>
      </trkpt>
      <trkpt lat="45.48662" lon="4.7129">
        <ele>648.79998779297</ele>
        <time>2020-03-10T08:34:24.000Z</time>
      </trkpt>
      <trkpt lat="45.48665" lon="4.7129">
        <ele>649.59997558594</ele>
        <time>2020-03-10T08:34:27.000Z</time>
      </trkpt>
      <trkpt lat="45.48666" lon="4.71289">
        <ele>650</ele>
        <time>2020-03-10T08:34:28.000Z</time>
      </trkpt>
      <trkpt lat="45.48673" lon="4.71289">
        <ele>651</ele>
        <time>2020-03-10T08:34:32.000Z</time>
      </trkpt>
      <trkpt lat="45.48676" lon="4.71289">
        <ele>651.79998779297</ele>
        <time>2020-03-10T08:34:34.000Z</time>
      </trkpt>
      <trkpt lat="45.48679" lon="4.7129">
        <ele>652.20001220703</ele>
        <time>2020-03-10T08:34:36.000Z</time>
      </trkpt>
      <trkpt lat="45.48683" lon="4.71291">
        <ele>653.20001220703</ele>
        <time>2020-03-10T08:34:40.000Z</time>
      </trkpt>
      <trkpt lat="45.48685" lon="4.71292">
        <ele>653.79998779297</ele>
        <time>2020-03-10T08:34:42.000Z</time>
      </trkpt>
      <trkpt lat="45.48686" lon="4.71292">
        <ele>654</ele>
        <time>2020-03-10T08:34:43.000Z</time>
      </trkpt>
      <trkpt lat="45.48689" lon="4.71293">
        <ele>654.40002441406</ele>
        <time>2020-03-10T08:34:44.000Z</time>
      </trkpt>
      <trkpt lat="45.48693" lon="4.71294">
        <ele>655</ele>
        <time>2020-03-10T08:34:46.000Z</time>
      </trkpt>
      <trkpt lat="45.48702" lon="4.71293">
        <ele>655.79998779297</ele>
        <time>2020-03-10T08:34:50.000Z</time>
      </trkpt>
      <trkpt lat="45.48704" lon="4.71292">
        <ele>656.40002441406</ele>
        <time>2020-03-10T08:34:51.000Z</time>
      </trkpt>
      <trkpt lat="45.48706" lon="4.71291">
        <ele>656.59997558594</ele>
        <time>2020-03-10T08:34:52.000Z</time>
      </trkpt>
      <trkpt lat="45.48709" lon="4.7129">
        <ele>656.79998779297</ele>
        <time>2020-03-10T08:34:54.000Z</time>
      </trkpt>
      <trkpt lat="45.48714" lon="4.71288">
        <ele>657.59997558594</ele>
        <time>2020-03-10T08:34:57.000Z</time>
      </trkpt>
      <trkpt lat="45.48717" lon="4.71287">
        <ele>657.59997558594</ele>
        <time>2020-03-10T08:34:58.000Z</time>
      </trkpt>
      <trkpt lat="45.48723" lon="4.71287">
        <ele>658</ele>
        <time>2020-03-10T08:35:01.000Z</time>
      </trkpt>
      <trkpt lat="45.48725" lon="4.71288">
        <ele>658.20001220703</ele>
        <time>2020-03-10T08:35:02.000Z</time>
      </trkpt>
      <trkpt lat="45.4873" lon="4.7129">
        <ele>658.20001220703</ele>
        <time>2020-03-10T08:35:04.000Z</time>
      </trkpt>
      <trkpt lat="45.48739" lon="4.7129">
        <ele>659</ele>
        <time>2020-03-10T08:35:08.000Z</time>
      </trkpt>
      <trkpt lat="45.48743" lon="4.71288">
        <ele>659</ele>
        <time>2020-03-10T08:35:10.000Z</time>
      </trkpt>
      <trkpt lat="45.48745" lon="4.71287">
        <ele>659</ele>
        <time>2020-03-10T08:35:11.000Z</time>
      </trkpt>
      <trkpt lat="45.48747" lon="4.71285">
        <ele>659</ele>
        <time>2020-03-10T08:35:12.000Z</time>
      </trkpt>
      <trkpt lat="45.4875" lon="4.7128">
        <ele>659.20001220703</ele>
        <time>2020-03-10T08:35:15.000Z</time>
      </trkpt>
      <trkpt lat="45.48751" lon="4.71275">
        <ele>659.59997558594</ele>
        <time>2020-03-10T08:35:17.000Z</time>
      </trkpt>
      <trkpt lat="45.48749" lon="4.7127">
        <ele>660.20001220703</ele>
        <time>2020-03-10T08:35:20.000Z</time>
      </trkpt>
      <trkpt lat="45.48747" lon="4.71266">
        <ele>660.79998779297</ele>
        <time>2020-03-10T08:35:22.000Z</time>
      </trkpt>
      <trkpt lat="45.48746" lon="4.71263">
        <ele>661.20001220703</ele>
        <time>2020-03-10T08:35:24.000Z</time>
      </trkpt>
      <trkpt lat="45.48743" lon="4.71261">
        <ele>661.59997558594</ele>
        <time>2020-03-10T08:35:26.000Z</time>
      </trkpt>
      <trkpt lat="45.4874" lon="4.71257">
        <ele>662.20001220703</ele>
        <time>2020-03-10T08:35:29.000Z</time>
      </trkpt>
      <trkpt lat="45.48739" lon="4.71255">
        <ele>662.40002441406</ele>
        <time>2020-03-10T08:35:30.000Z</time>
      </trkpt>
      <trkpt lat="45.48737" lon="4.71253">
        <ele>663.20001220703</ele>
        <time>2020-03-10T08:35:32.000Z</time>
      </trkpt>
      <trkpt lat="45.48736" lon="4.71251">
        <ele>663.79998779297</ele>
        <time>2020-03-10T08:35:34.000Z</time>
      </trkpt>
      <trkpt lat="45.48735" lon="4.7125">
        <ele>664.20001220703</ele>
        <time>2020-03-10T08:35:35.000Z</time>
      </trkpt>
      <trkpt lat="45.48734" lon="4.71248">
        <ele>664.79998779297</ele>
        <time>2020-03-10T08:35:36.000Z</time>
      </trkpt>
      <trkpt lat="45.48733" lon="4.71245">
        <ele>665.59997558594</ele>
        <time>2020-03-10T08:35:38.000Z</time>
      </trkpt>
      <trkpt lat="45.48733" lon="4.71242">
        <ele>666</ele>
        <time>2020-03-10T08:35:40.000Z</time>
      </trkpt>
      <trkpt lat="45.48731" lon="4.7124">
        <ele>666.40002441406</ele>
        <time>2020-03-10T08:35:42.000Z</time>
      </trkpt>
      <trkpt lat="45.48727" lon="4.71236">
        <ele>667</ele>
        <time>2020-03-10T08:35:46.000Z</time>
      </trkpt>
      <trkpt lat="45.48726" lon="4.71234">
        <ele>668</ele>
        <time>2020-03-10T08:35:49.000Z</time>
      </trkpt>
      <trkpt lat="45.48724" lon="4.71233">
        <ele>668.20001220703</ele>
        <time>2020-03-10T08:35:50.000Z</time>
      </trkpt>
      <trkpt lat="45.48721" lon="4.71231">
        <ele>668.79998779297</ele>
        <time>2020-03-10T08:35:52.000Z</time>
      </trkpt>
      <trkpt lat="45.4872" lon="4.71229">
        <ele>669.20001220703</ele>
        <time>2020-03-10T08:35:53.000Z</time>
      </trkpt>
      <trkpt lat="45.4872" lon="4.71227">
        <ele>669.59997558594</ele>
        <time>2020-03-10T08:35:54.000Z</time>
      </trkpt>
      <trkpt lat="45.48719" lon="4.71226">
        <ele>670</ele>
        <time>2020-03-10T08:35:55.000Z</time>
      </trkpt>
      <trkpt lat="45.48717" lon="4.71222">
        <ele>670.59997558594</ele>
        <time>2020-03-10T08:35:58.000Z</time>
      </trkpt>
      <trkpt lat="45.48715" lon="4.71219">
        <ele>670.79998779297</ele>
        <time>2020-03-10T08:36:00.000Z</time>
      </trkpt>
      <trkpt lat="45.48714" lon="4.71218">
        <ele>671.20001220703</ele>
        <time>2020-03-10T08:36:01.000Z</time>
      </trkpt>
      <trkpt lat="45.48713" lon="4.71217">
        <ele>671.59997558594</ele>
        <time>2020-03-10T08:36:02.000Z</time>
      </trkpt>
      <trkpt lat="45.48713" lon="4.71215">
        <ele>672</ele>
        <time>2020-03-10T08:36:03.000Z</time>
      </trkpt>
      <trkpt lat="45.48711" lon="4.71209">
        <ele>673</ele>
        <time>2020-03-10T08:36:07.000Z</time>
      </trkpt>
      <trkpt lat="45.48711" lon="4.71208">
        <ele>673.20001220703</ele>
        <time>2020-03-10T08:36:08.000Z</time>
      </trkpt>
      <trkpt lat="45.48713" lon="4.712">
        <ele>674.20001220703</ele>
        <time>2020-03-10T08:36:12.000Z</time>
      </trkpt>
      <trkpt lat="45.48713" lon="4.71196">
        <ele>674.59997558594</ele>
        <time>2020-03-10T08:36:14.000Z</time>
      </trkpt>
      <trkpt lat="45.48714" lon="4.71193">
        <ele>675.20001220703</ele>
        <time>2020-03-10T08:36:16.000Z</time>
      </trkpt>
      <trkpt lat="45.48715" lon="4.7119">
        <ele>675.79998779297</ele>
        <time>2020-03-10T08:36:18.000Z</time>
      </trkpt>
      <trkpt lat="45.48716" lon="4.71183">
        <ele>676.40002441406</ele>
        <time>2020-03-10T08:36:21.000Z</time>
      </trkpt>
      <trkpt lat="45.48715" lon="4.7118">
        <ele>676.40002441406</ele>
        <time>2020-03-10T08:36:22.000Z</time>
      </trkpt>
      <trkpt lat="45.48719" lon="4.71172">
        <ele>677</ele>
        <time>2020-03-10T08:36:26.000Z</time>
      </trkpt>
      <trkpt lat="45.48719" lon="4.71169">
        <ele>677.40002441406</ele>
        <time>2020-03-10T08:36:27.000Z</time>
      </trkpt>
      <trkpt lat="45.48723" lon="4.71163">
        <ele>678.79998779297</ele>
        <time>2020-03-10T08:36:32.000Z</time>
      </trkpt>
      <trkpt lat="45.48723" lon="4.71161">
        <ele>679</ele>
        <time>2020-03-10T08:36:33.000Z</time>
      </trkpt>
      <trkpt lat="45.48723" lon="4.71154">
        <ele>679.79998779297</ele>
        <time>2020-03-10T08:36:35.000Z</time>
      </trkpt>
      <trkpt lat="45.48726" lon="4.71145">
        <ele>680.40002441406</ele>
        <time>2020-03-10T08:36:40.000Z</time>
      </trkpt>
      <trkpt lat="45.48726" lon="4.71142">
        <ele>681.20001220703</ele>
        <time>2020-03-10T08:36:42.000Z</time>
      </trkpt>
      <trkpt lat="45.48727" lon="4.71141">
        <ele>681.40002441406</ele>
        <time>2020-03-10T08:36:43.000Z</time>
      </trkpt>
      <trkpt lat="45.48729" lon="4.71136">
        <ele>682.40002441406</ele>
        <time>2020-03-10T08:36:47.000Z</time>
      </trkpt>
      <trkpt lat="45.4873" lon="4.71129">
        <ele>683.20001220703</ele>
        <time>2020-03-10T08:36:52.000Z</time>
      </trkpt>
      <trkpt lat="45.4873" lon="4.71128">
        <ele>683.40002441406</ele>
        <time>2020-03-10T08:36:53.000Z</time>
      </trkpt>
      <trkpt lat="45.48731" lon="4.71126">
        <ele>683.79998779297</ele>
        <time>2020-03-10T08:36:54.000Z</time>
      </trkpt>
      <trkpt lat="45.48731" lon="4.71125">
        <ele>684.20001220703</ele>
        <time>2020-03-10T08:36:55.000Z</time>
      </trkpt>
      <trkpt lat="45.48731" lon="4.71122">
        <ele>685</ele>
        <time>2020-03-10T08:36:57.000Z</time>
      </trkpt>
      <trkpt lat="45.48732" lon="4.71119">
        <ele>685.79998779297</ele>
        <time>2020-03-10T08:37:00.000Z</time>
      </trkpt>
      <trkpt lat="45.48733" lon="4.71118">
        <ele>686.20001220703</ele>
        <time>2020-03-10T08:37:01.000Z</time>
      </trkpt>
      <trkpt lat="45.48734" lon="4.71116">
        <ele>686.59997558594</ele>
        <time>2020-03-10T08:37:02.000Z</time>
      </trkpt>
      <trkpt lat="45.48737" lon="4.71111">
        <ele>687.20001220703</ele>
        <time>2020-03-10T08:37:04.000Z</time>
      </trkpt>
      <trkpt lat="45.48738" lon="4.71108">
        <ele>687.59997558594</ele>
        <time>2020-03-10T08:37:06.000Z</time>
      </trkpt>
      <trkpt lat="45.48738" lon="4.71104">
        <ele>688</ele>
        <time>2020-03-10T08:37:08.000Z</time>
      </trkpt>
      <trkpt lat="45.48739" lon="4.71101">
        <ele>688.20001220703</ele>
        <time>2020-03-10T08:37:09.000Z</time>
      </trkpt>
      <trkpt lat="45.48739" lon="4.71096">
        <ele>688.40002441406</ele>
        <time>2020-03-10T08:37:10.000Z</time>
      </trkpt>
      <trkpt lat="45.4874" lon="4.71091">
        <ele>689</ele>
        <time>2020-03-10T08:37:12.000Z</time>
      </trkpt>
      <trkpt lat="45.48741" lon="4.71085">
        <ele>689.40002441406</ele>
        <time>2020-03-10T08:37:14.000Z</time>
      </trkpt>
      <trkpt lat="45.48741" lon="4.71081">
        <ele>689.59997558594</ele>
        <time>2020-03-10T08:37:15.000Z</time>
      </trkpt>
      <trkpt lat="45.48742" lon="4.7107">
        <ele>690.40002441406</ele>
        <time>2020-03-10T08:37:18.000Z</time>
      </trkpt>
      <trkpt lat="45.48744" lon="4.71061">
        <ele>691.20001220703</ele>
        <time>2020-03-10T08:37:22.000Z</time>
      </trkpt>
      <trkpt lat="45.48746" lon="4.71057">
        <ele>691.59997558594</ele>
        <time>2020-03-10T08:37:24.000Z</time>
      </trkpt>
      <trkpt lat="45.48748" lon="4.71048">
        <ele>692.20001220703</ele>
        <time>2020-03-10T08:37:28.000Z</time>
      </trkpt>
      <trkpt lat="45.48749" lon="4.71043">
        <ele>693</ele>
        <time>2020-03-10T08:37:31.000Z</time>
      </trkpt>
      <trkpt lat="45.4875" lon="4.71041">
        <ele>693.20001220703</ele>
        <time>2020-03-10T08:37:32.000Z</time>
      </trkpt>
      <trkpt lat="45.48752" lon="4.71032">
        <ele>694</ele>
        <time>2020-03-10T08:37:37.000Z</time>
      </trkpt>
      <trkpt lat="45.48755" lon="4.71023">
        <ele>695.20001220703</ele>
        <time>2020-03-10T08:37:41.000Z</time>
      </trkpt>
      <trkpt lat="45.48755" lon="4.71022">
        <ele>695.20001220703</ele>
        <time>2020-03-10T08:37:42.000Z</time>
      </trkpt>
      <trkpt lat="45.48756" lon="4.7102">
        <ele>695.40002441406</ele>
        <time>2020-03-10T08:37:43.000Z</time>
      </trkpt>
      <trkpt lat="45.48757" lon="4.71015">
        <ele>696.59997558594</ele>
        <time>2020-03-10T08:37:46.000Z</time>
      </trkpt>
      <trkpt lat="45.48757" lon="4.71015">
        <ele>696.79998779297</ele>
        <time>2020-03-10T08:37:47.000Z</time>
      </trkpt>
      <trkpt lat="45.48758" lon="4.71012">
        <ele>697.40002441406</ele>
        <time>2020-03-10T08:37:50.000Z</time>
      </trkpt>
      <trkpt lat="45.48758" lon="4.7101">
        <ele>697.59997558594</ele>
        <time>2020-03-10T08:37:51.000Z</time>
      </trkpt>
      <trkpt lat="45.48758" lon="4.71008">
        <ele>697.79998779297</ele>
        <time>2020-03-10T08:37:52.000Z</time>
      </trkpt>
      <trkpt lat="45.48757" lon="4.71003">
        <ele>698.59997558594</ele>
        <time>2020-03-10T08:37:55.000Z</time>
      </trkpt>
      <trkpt lat="45.48757" lon="4.71001">
        <ele>699.40002441406</ele>
        <time>2020-03-10T08:37:57.000Z</time>
      </trkpt>
      <trkpt lat="45.48757" lon="4.70997">
        <ele>699.79998779297</ele>
        <time>2020-03-10T08:37:59.000Z</time>
      </trkpt>
      <trkpt lat="45.48757" lon="4.70996">
        <ele>700.20001220703</ele>
        <time>2020-03-10T08:38:01.000Z</time>
      </trkpt>
      <trkpt lat="45.48757" lon="4.70995">
        <ele>700.40002441406</ele>
        <time>2020-03-10T08:38:02.000Z</time>
      </trkpt>
      <trkpt lat="45.48757" lon="4.70992">
        <ele>700.79998779297</ele>
        <time>2020-03-10T08:38:04.000Z</time>
      </trkpt>
      <trkpt lat="45.48756" lon="4.70989">
        <ele>701</ele>
        <time>2020-03-10T08:38:05.000Z</time>
      </trkpt>
      <trkpt lat="45.48756" lon="4.70979">
        <ele>702</ele>
        <time>2020-03-10T08:38:09.000Z</time>
      </trkpt>
      <trkpt lat="45.48755" lon="4.70973">
        <ele>702.79998779297</ele>
        <time>2020-03-10T08:38:11.000Z</time>
      </trkpt>
      <trkpt lat="45.48754" lon="4.70971">
        <ele>703</ele>
        <time>2020-03-10T08:38:12.000Z</time>
      </trkpt>
      <trkpt lat="45.48753" lon="4.70969">
        <ele>703.20001220703</ele>
        <time>2020-03-10T08:38:13.000Z</time>
      </trkpt>
      <trkpt lat="45.48752" lon="4.70966">
        <ele>703.59997558594</ele>
        <time>2020-03-10T08:38:15.000Z</time>
      </trkpt>
      <trkpt lat="45.48749" lon="4.70961">
        <ele>704.40002441406</ele>
        <time>2020-03-10T08:38:18.000Z</time>
      </trkpt>
      <trkpt lat="45.4875" lon="4.70959">
        <ele>704.79998779297</ele>
        <time>2020-03-10T08:38:19.000Z</time>
      </trkpt>
      <trkpt lat="45.48749" lon="4.70955">
        <ele>705.40002441406</ele>
        <time>2020-03-10T08:38:21.000Z</time>
      </trkpt>
      <trkpt lat="45.48748" lon="4.70954">
        <ele>705.59997558594</ele>
        <time>2020-03-10T08:38:22.000Z</time>
      </trkpt>
      <trkpt lat="45.48747" lon="4.70945">
        <ele>706.20001220703</ele>
        <time>2020-03-10T08:38:26.000Z</time>
      </trkpt>
      <trkpt lat="45.48747" lon="4.70943">
        <ele>706.59997558594</ele>
        <time>2020-03-10T08:38:27.000Z</time>
      </trkpt>
      <trkpt lat="45.48747" lon="4.70941">
        <ele>707</ele>
        <time>2020-03-10T08:38:29.000Z</time>
      </trkpt>
      <trkpt lat="45.48747" lon="4.70938">
        <ele>707.59997558594</ele>
        <time>2020-03-10T08:38:31.000Z</time>
      </trkpt>
      <trkpt lat="45.48747" lon="4.70936">
        <ele>707.79998779297</ele>
        <time>2020-03-10T08:38:32.000Z</time>
      </trkpt>
      <trkpt lat="45.48747" lon="4.70932">
        <ele>708.79998779297</ele>
        <time>2020-03-10T08:38:35.000Z</time>
      </trkpt>
      <trkpt lat="45.48746" lon="4.70927">
        <ele>709.20001220703</ele>
        <time>2020-03-10T08:38:37.000Z</time>
      </trkpt>
      <trkpt lat="45.48745" lon="4.70921">
        <ele>709.79998779297</ele>
        <time>2020-03-10T08:38:40.000Z</time>
      </trkpt>
      <trkpt lat="45.48745" lon="4.70919">
        <ele>710.20001220703</ele>
        <time>2020-03-10T08:38:41.000Z</time>
      </trkpt>
      <trkpt lat="45.48745" lon="4.70917">
        <ele>710.59997558594</ele>
        <time>2020-03-10T08:38:42.000Z</time>
      </trkpt>
      <trkpt lat="45.48743" lon="4.70911">
        <ele>711.59997558594</ele>
        <time>2020-03-10T08:38:45.000Z</time>
      </trkpt>
      <trkpt lat="45.48742" lon="4.70906">
        <ele>712.20001220703</ele>
        <time>2020-03-10T08:38:47.000Z</time>
      </trkpt>
      <trkpt lat="45.4874" lon="4.70902">
        <ele>712.59997558594</ele>
        <time>2020-03-10T08:38:49.000Z</time>
      </trkpt>
      <trkpt lat="45.4874" lon="4.70899">
        <ele>713.40002441406</ele>
        <time>2020-03-10T08:38:52.000Z</time>
      </trkpt>
      <trkpt lat="45.4874" lon="4.70898">
        <ele>714</ele>
        <time>2020-03-10T08:38:53.000Z</time>
      </trkpt>
      <trkpt lat="45.48739" lon="4.70892">
        <ele>714.79998779297</ele>
        <time>2020-03-10T08:38:56.000Z</time>
      </trkpt>
      <trkpt lat="45.48739" lon="4.70891">
        <ele>715</ele>
        <time>2020-03-10T08:38:57.000Z</time>
      </trkpt>
      <trkpt lat="45.48738" lon="4.70889">
        <ele>715.20001220703</ele>
        <time>2020-03-10T08:38:58.000Z</time>
      </trkpt>
      <trkpt lat="45.48735" lon="4.70881">
        <ele>716.20001220703</ele>
        <time>2020-03-10T08:39:02.000Z</time>
      </trkpt>
      <trkpt lat="45.48734" lon="4.70874">
        <ele>717</ele>
        <time>2020-03-10T08:39:05.000Z</time>
      </trkpt>
      <trkpt lat="45.48733" lon="4.70865">
        <ele>717.20001220703</ele>
        <time>2020-03-10T08:39:09.000Z</time>
      </trkpt>
      <trkpt lat="45.48733" lon="4.70862">
        <ele>717.40002441406</ele>
        <time>2020-03-10T08:39:10.000Z</time>
      </trkpt>
      <trkpt lat="45.48731" lon="4.70857">
        <ele>717.40002441406</ele>
        <time>2020-03-10T08:39:12.000Z</time>
      </trkpt>
      <trkpt lat="45.48724" lon="4.70844">
        <ele>718.59997558594</ele>
        <time>2020-03-10T08:39:16.000Z</time>
      </trkpt>
      <trkpt lat="45.48722" lon="4.7084">
        <ele>719</ele>
        <time>2020-03-10T08:39:18.000Z</time>
      </trkpt>
      <trkpt lat="45.4872" lon="4.70837">
        <ele>719.59997558594</ele>
        <time>2020-03-10T08:39:20.000Z</time>
      </trkpt>
      <trkpt lat="45.48719" lon="4.70836">
        <ele>719.59997558594</ele>
        <time>2020-03-10T08:39:21.000Z</time>
      </trkpt>
      <trkpt lat="45.48717" lon="4.70835">
        <ele>719.79998779297</ele>
        <time>2020-03-10T08:39:22.000Z</time>
      </trkpt>
      <trkpt lat="45.48712" lon="4.70833">
        <ele>720.20001220703</ele>
        <time>2020-03-10T08:39:25.000Z</time>
      </trkpt>
      <trkpt lat="45.48708" lon="4.70832">
        <ele>720.79998779297</ele>
        <time>2020-03-10T08:39:28.000Z</time>
      </trkpt>
      <trkpt lat="45.48705" lon="4.70834">
        <ele>721.20001220703</ele>
        <time>2020-03-10T08:39:30.000Z</time>
      </trkpt>
      <trkpt lat="45.48702" lon="4.70833">
        <ele>721.20001220703</ele>
        <time>2020-03-10T08:39:32.000Z</time>
      </trkpt>
      <trkpt lat="45.48699" lon="4.70832">
        <ele>721.40002441406</ele>
        <time>2020-03-10T08:39:34.000Z</time>
      </trkpt>
      <trkpt lat="45.48695" lon="4.70828">
        <ele>722</ele>
        <time>2020-03-10T08:39:37.000Z</time>
      </trkpt>
      <trkpt lat="45.48691" lon="4.70825">
        <ele>722.59997558594</ele>
        <time>2020-03-10T08:39:40.000Z</time>
      </trkpt>
      <trkpt lat="45.48688" lon="4.70823">
        <ele>723</ele>
        <time>2020-03-10T08:39:42.000Z</time>
      </trkpt>
      <trkpt lat="45.48685" lon="4.70822">
        <ele>723.40002441406</ele>
        <time>2020-03-10T08:39:44.000Z</time>
      </trkpt>
      <trkpt lat="45.48679" lon="4.70823">
        <ele>724</ele>
        <time>2020-03-10T08:39:47.000Z</time>
      </trkpt>
      <trkpt lat="45.4867" lon="4.70821">
        <ele>724.59997558594</ele>
        <time>2020-03-10T08:39:52.000Z</time>
      </trkpt>
      <trkpt lat="45.48668" lon="4.70819">
        <ele>724.59997558594</ele>
        <time>2020-03-10T08:39:53.000Z</time>
      </trkpt>
      <trkpt lat="45.48664" lon="4.70816">
        <ele>725.20001220703</ele>
        <time>2020-03-10T08:39:56.000Z</time>
      </trkpt>
      <trkpt lat="45.48661" lon="4.70814">
        <ele>725.79998779297</ele>
        <time>2020-03-10T08:39:59.000Z</time>
      </trkpt>
      <trkpt lat="45.48658" lon="4.70812">
        <ele>726.20001220703</ele>
        <time>2020-03-10T08:40:01.000Z</time>
      </trkpt>
      <trkpt lat="45.48656" lon="4.70811">
        <ele>726.40002441406</ele>
        <time>2020-03-10T08:40:02.000Z</time>
      </trkpt>
      <trkpt lat="45.48649" lon="4.70811">
        <ele>726.79998779297</ele>
        <time>2020-03-10T08:40:06.000Z</time>
      </trkpt>
      <trkpt lat="45.48645" lon="4.70813">
        <ele>727.59997558594</ele>
        <time>2020-03-10T08:40:09.000Z</time>
      </trkpt>
      <trkpt lat="45.48642" lon="4.70814">
        <ele>728.40002441406</ele>
        <time>2020-03-10T08:40:12.000Z</time>
      </trkpt>
      <trkpt lat="45.4864" lon="4.70813">
        <ele>728.59997558594</ele>
        <time>2020-03-10T08:40:13.000Z</time>
      </trkpt>
      <trkpt lat="45.48632" lon="4.70815">
        <ele>729.40002441406</ele>
        <time>2020-03-10T08:40:19.000Z</time>
      </trkpt>
      <trkpt lat="45.4863" lon="4.70817">
        <ele>729.59997558594</ele>
        <time>2020-03-10T08:40:20.000Z</time>
      </trkpt>
      <trkpt lat="45.48627" lon="4.70819">
        <ele>729.79998779297</ele>
        <time>2020-03-10T08:40:22.000Z</time>
      </trkpt>
      <trkpt lat="45.48619" lon="4.70817">
        <ele>730.79998779297</ele>
        <time>2020-03-10T08:40:26.000Z</time>
      </trkpt>
      <trkpt lat="45.48617" lon="4.70817">
        <ele>731.20001220703</ele>
        <time>2020-03-10T08:40:27.000Z</time>
      </trkpt>
      <trkpt lat="45.48609" lon="4.70816">
        <ele>732.40002441406</ele>
        <time>2020-03-10T08:40:31.000Z</time>
      </trkpt>
      <trkpt lat="45.48607" lon="4.70816">
        <ele>732.40002441406</ele>
        <time>2020-03-10T08:40:32.000Z</time>
      </trkpt>
      <trkpt lat="45.48606" lon="4.70816">
        <ele>732.59997558594</ele>
        <time>2020-03-10T08:40:33.000Z</time>
      </trkpt>
      <trkpt lat="45.48601" lon="4.70815">
        <ele>733.40002441406</ele>
        <time>2020-03-10T08:40:36.000Z</time>
      </trkpt>
      <trkpt lat="45.48598" lon="4.70816">
        <ele>734</ele>
        <time>2020-03-10T08:40:38.000Z</time>
      </trkpt>
      <trkpt lat="45.48595" lon="4.70817">
        <ele>734.59997558594</ele>
        <time>2020-03-10T08:40:40.000Z</time>
      </trkpt>
      <trkpt lat="45.48592" lon="4.70818">
        <ele>735.20001220703</ele>
        <time>2020-03-10T08:40:42.000Z</time>
      </trkpt>
      <trkpt lat="45.4859" lon="4.70819">
        <ele>735.79998779297</ele>
        <time>2020-03-10T08:40:44.000Z</time>
      </trkpt>
      <trkpt lat="45.48587" lon="4.70819">
        <ele>736</ele>
        <time>2020-03-10T08:40:46.000Z</time>
      </trkpt>
      <trkpt lat="45.48584" lon="4.7082">
        <ele>736.59997558594</ele>
        <time>2020-03-10T08:40:48.000Z</time>
      </trkpt>
      <trkpt lat="45.48582" lon="4.70819">
        <ele>736.79998779297</ele>
        <time>2020-03-10T08:40:49.000Z</time>
      </trkpt>
      <trkpt lat="45.4858" lon="4.7082">
        <ele>737.40002441406</ele>
        <time>2020-03-10T08:40:51.000Z</time>
      </trkpt>
      <trkpt lat="45.48578" lon="4.7082">
        <ele>737.59997558594</ele>
        <time>2020-03-10T08:40:52.000Z</time>
      </trkpt>
      <trkpt lat="45.48577" lon="4.70821">
        <ele>737.79998779297</ele>
        <time>2020-03-10T08:40:53.000Z</time>
      </trkpt>
      <trkpt lat="45.48576" lon="4.70822">
        <ele>738</ele>
        <time>2020-03-10T08:40:54.000Z</time>
      </trkpt>
      <trkpt lat="45.48572" lon="4.70826">
        <ele>738.59997558594</ele>
        <time>2020-03-10T08:40:56.000Z</time>
      </trkpt>
      <trkpt lat="45.4857" lon="4.70827">
        <ele>739</ele>
        <time>2020-03-10T08:40:58.000Z</time>
      </trkpt>
      <trkpt lat="45.48569" lon="4.70827">
        <ele>739.20001220703</ele>
        <time>2020-03-10T08:40:59.000Z</time>
      </trkpt>
      <trkpt lat="45.48565" lon="4.70829">
        <ele>740</ele>
        <time>2020-03-10T08:41:02.000Z</time>
      </trkpt>
      <trkpt lat="45.48564" lon="4.7083">
        <ele>740.20001220703</ele>
        <time>2020-03-10T08:41:03.000Z</time>
      </trkpt>
      <trkpt lat="45.48564" lon="4.7083">
        <ele>740.40002441406</ele>
        <time>2020-03-10T08:41:04.000Z</time>
      </trkpt>
      <trkpt lat="45.48562" lon="4.70831">
        <ele>740.79998779297</ele>
        <time>2020-03-10T08:41:06.000Z</time>
      </trkpt>
      <trkpt lat="45.48561" lon="4.70833">
        <ele>741.40002441406</ele>
        <time>2020-03-10T08:41:08.000Z</time>
      </trkpt>
      <trkpt lat="45.48554" lon="4.70838">
        <ele>742.59997558594</ele>
        <time>2020-03-10T08:41:12.000Z</time>
      </trkpt>
      <trkpt lat="45.48549" lon="4.70846">
        <ele>743.79998779297</ele>
        <time>2020-03-10T08:41:17.000Z</time>
      </trkpt>
      <trkpt lat="45.48545" lon="4.70851">
        <ele>744.59997558594</ele>
        <time>2020-03-10T08:41:20.000Z</time>
      </trkpt>
      <trkpt lat="45.48542" lon="4.70853">
        <ele>745</ele>
        <time>2020-03-10T08:41:22.000Z</time>
      </trkpt>
      <trkpt lat="45.48536" lon="4.70856">
        <ele>746</ele>
        <time>2020-03-10T08:41:27.000Z</time>
      </trkpt>
      <trkpt lat="45.48534" lon="4.70858">
        <ele>747</ele>
        <time>2020-03-10T08:41:30.000Z</time>
      </trkpt>
      <trkpt lat="45.48532" lon="4.70858">
        <ele>747.40002441406</ele>
        <time>2020-03-10T08:41:31.000Z</time>
      </trkpt>
      <trkpt lat="45.4853" lon="4.70857">
        <ele>747.79998779297</ele>
        <time>2020-03-10T08:41:32.000Z</time>
      </trkpt>
      <trkpt lat="45.48528" lon="4.70859">
        <ele>748</ele>
        <time>2020-03-10T08:41:33.000Z</time>
      </trkpt>
      <trkpt lat="45.48524" lon="4.70862">
        <ele>748.59997558594</ele>
        <time>2020-03-10T08:41:36.000Z</time>
      </trkpt>
      <trkpt lat="45.48517" lon="4.70868">
        <ele>749.40002441406</ele>
        <time>2020-03-10T08:41:40.000Z</time>
      </trkpt>
      <trkpt lat="45.48515" lon="4.7087">
        <ele>749.59997558594</ele>
        <time>2020-03-10T08:41:41.000Z</time>
      </trkpt>
      <trkpt lat="45.48513" lon="4.70871">
        <ele>749.79998779297</ele>
        <time>2020-03-10T08:41:42.000Z</time>
      </trkpt>
      <trkpt lat="45.48507" lon="4.70875">
        <ele>750.40002441406</ele>
        <time>2020-03-10T08:41:46.000Z</time>
      </trkpt>
      <trkpt lat="45.48503" lon="4.70878">
        <ele>750.79998779297</ele>
        <time>2020-03-10T08:41:48.000Z</time>
      </trkpt>
      <trkpt lat="45.48502" lon="4.70879">
        <ele>750.79998779297</ele>
        <time>2020-03-10T08:41:49.000Z</time>
      </trkpt>
      <trkpt lat="45.48499" lon="4.7088">
        <ele>751.20001220703</ele>
        <time>2020-03-10T08:41:51.000Z</time>
      </trkpt>
      <trkpt lat="45.48497" lon="4.70881">
        <ele>751.20001220703</ele>
        <time>2020-03-10T08:41:52.000Z</time>
      </trkpt>
      <trkpt lat="45.48493" lon="4.70884">
        <ele>751.59997558594</ele>
        <time>2020-03-10T08:41:55.000Z</time>
      </trkpt>
      <trkpt lat="45.48492" lon="4.70884">
        <ele>752</ele>
        <time>2020-03-10T08:41:56.000Z</time>
      </trkpt>
      <trkpt lat="45.48491" lon="4.70884">
        <ele>752.40002441406</ele>
        <time>2020-03-10T08:41:57.000Z</time>
      </trkpt>
      <trkpt lat="45.48487" lon="4.70887">
        <ele>753</ele>
        <time>2020-03-10T08:42:00.000Z</time>
      </trkpt>
      <trkpt lat="45.48485" lon="4.70889">
        <ele>753.40002441406</ele>
        <time>2020-03-10T08:42:02.000Z</time>
      </trkpt>
      <trkpt lat="45.48484" lon="4.7089">
        <ele>753.59997558594</ele>
        <time>2020-03-10T08:42:03.000Z</time>
      </trkpt>
      <trkpt lat="45.48483" lon="4.70892">
        <ele>754</ele>
        <time>2020-03-10T08:42:05.000Z</time>
      </trkpt>
      <trkpt lat="45.48481" lon="4.70896">
        <ele>754.40002441406</ele>
        <time>2020-03-10T08:42:08.000Z</time>
      </trkpt>
      <trkpt lat="45.48481" lon="4.70898">
        <ele>754.59997558594</ele>
        <time>2020-03-10T08:42:09.000Z</time>
      </trkpt>
      <trkpt lat="45.48478" lon="4.70899">
        <ele>755.20001220703</ele>
        <time>2020-03-10T08:42:11.000Z</time>
      </trkpt>
      <trkpt lat="45.48477" lon="4.709">
        <ele>755.40002441406</ele>
        <time>2020-03-10T08:42:12.000Z</time>
      </trkpt>
      <trkpt lat="45.48474" lon="4.709">
        <ele>755.79998779297</ele>
        <time>2020-03-10T08:42:14.000Z</time>
      </trkpt>
      <trkpt lat="45.48472" lon="4.70901">
        <ele>756</ele>
        <time>2020-03-10T08:42:15.000Z</time>
      </trkpt>
      <trkpt lat="45.48471" lon="4.70901">
        <ele>756.20001220703</ele>
        <time>2020-03-10T08:42:16.000Z</time>
      </trkpt>
      <trkpt lat="45.48469" lon="4.70903">
        <ele>756.79998779297</ele>
        <time>2020-03-10T08:42:18.000Z</time>
      </trkpt>
      <trkpt lat="45.48467" lon="4.70906">
        <ele>757</ele>
        <time>2020-03-10T08:42:20.000Z</time>
      </trkpt>
      <trkpt lat="45.48465" lon="4.70908">
        <ele>757.40002441406</ele>
        <time>2020-03-10T08:42:21.000Z</time>
      </trkpt>
      <trkpt lat="45.48464" lon="4.70909">
        <ele>757.59997558594</ele>
        <time>2020-03-10T08:42:22.000Z</time>
      </trkpt>
      <trkpt lat="45.48461" lon="4.7091">
        <ele>758.40002441406</ele>
        <time>2020-03-10T08:42:24.000Z</time>
      </trkpt>
      <trkpt lat="45.48458" lon="4.70912">
        <ele>759</ele>
        <time>2020-03-10T08:42:27.000Z</time>
      </trkpt>
      <trkpt lat="45.48455" lon="4.70914">
        <ele>759</ele>
        <time>2020-03-10T08:42:29.000Z</time>
      </trkpt>
      <trkpt lat="45.48451" lon="4.70916">
        <ele>759.79998779297</ele>
        <time>2020-03-10T08:42:31.000Z</time>
      </trkpt>
      <trkpt lat="45.4845" lon="4.70917">
        <ele>760.59997558594</ele>
        <time>2020-03-10T08:42:32.000Z</time>
      </trkpt>
      <trkpt lat="45.48448" lon="4.70918">
        <ele>761.20001220703</ele>
        <time>2020-03-10T08:42:33.000Z</time>
      </trkpt>
      <trkpt lat="45.48443" lon="4.7092">
        <ele>761.59997558594</ele>
        <time>2020-03-10T08:42:36.000Z</time>
      </trkpt>
      <trkpt lat="45.48439" lon="4.70922">
        <ele>762.40002441406</ele>
        <time>2020-03-10T08:42:39.000Z</time>
      </trkpt>
      <trkpt lat="45.48437" lon="4.70922">
        <ele>762.59997558594</ele>
        <time>2020-03-10T08:42:40.000Z</time>
      </trkpt>
      <trkpt lat="45.48434" lon="4.70921">
        <ele>763.20001220703</ele>
        <time>2020-03-10T08:42:42.000Z</time>
      </trkpt>
      <trkpt lat="45.48433" lon="4.70922">
        <ele>763</ele>
        <time>2020-03-10T08:42:44.000Z</time>
      </trkpt>
      <trkpt lat="45.48431" lon="4.70922">
        <ele>763.40002441406</ele>
        <time>2020-03-10T08:42:45.000Z</time>
      </trkpt>
      <trkpt lat="45.4843" lon="4.70923">
        <ele>763.79998779297</ele>
        <time>2020-03-10T08:42:46.000Z</time>
      </trkpt>
      <trkpt lat="45.48429" lon="4.70924">
        <ele>764.40002441406</ele>
        <time>2020-03-10T08:42:48.000Z</time>
      </trkpt>
      <trkpt lat="45.48427" lon="4.70925">
        <ele>764.59997558594</ele>
        <time>2020-03-10T08:42:49.000Z</time>
      </trkpt>
      <trkpt lat="45.48424" lon="4.70927">
        <ele>765.20001220703</ele>
        <time>2020-03-10T08:42:52.000Z</time>
      </trkpt>
      <trkpt lat="45.48423" lon="4.70929">
        <ele>765.40002441406</ele>
        <time>2020-03-10T08:42:53.000Z</time>
      </trkpt>
      <trkpt lat="45.48421" lon="4.70931">
        <ele>765.79998779297</ele>
        <time>2020-03-10T08:42:54.000Z</time>
      </trkpt>
      <trkpt lat="45.48417" lon="4.70932">
        <ele>766.79998779297</ele>
        <time>2020-03-10T08:42:57.000Z</time>
      </trkpt>
      <trkpt lat="45.48411" lon="4.70934">
        <ele>768</ele>
        <time>2020-03-10T08:43:01.000Z</time>
      </trkpt>
      <trkpt lat="45.48409" lon="4.70934">
        <ele>768.40002441406</ele>
        <time>2020-03-10T08:43:02.000Z</time>
      </trkpt>
      <trkpt lat="45.48404" lon="4.70934">
        <ele>769.20001220703</ele>
        <time>2020-03-10T08:43:05.000Z</time>
      </trkpt>
      <trkpt lat="45.48398" lon="4.70937">
        <ele>769.79998779297</ele>
        <time>2020-03-10T08:43:09.000Z</time>
      </trkpt>
      <trkpt lat="45.48397" lon="4.70939">
        <ele>770.40002441406</ele>
        <time>2020-03-10T08:43:11.000Z</time>
      </trkpt>
      <trkpt lat="45.48396" lon="4.70939">
        <ele>770.79998779297</ele>
        <time>2020-03-10T08:43:12.000Z</time>
      </trkpt>
      <trkpt lat="45.48395" lon="4.7094">
        <ele>771.20001220703</ele>
        <time>2020-03-10T08:43:13.000Z</time>
      </trkpt>
      <trkpt lat="45.48394" lon="4.7094">
        <ele>771.59997558594</ele>
        <time>2020-03-10T08:43:14.000Z</time>
      </trkpt>
      <trkpt lat="45.4839" lon="4.70941">
        <ele>772.40002441406</ele>
        <time>2020-03-10T08:43:17.000Z</time>
      </trkpt>
      <trkpt lat="45.48386" lon="4.70942">
        <ele>772.79998779297</ele>
        <time>2020-03-10T08:43:19.000Z</time>
      </trkpt>
      <trkpt lat="45.48382" lon="4.70942">
        <ele>773.79998779297</ele>
        <time>2020-03-10T08:43:22.000Z</time>
      </trkpt>
      <trkpt lat="45.48381" lon="4.70943">
        <ele>774</ele>
        <time>2020-03-10T08:43:23.000Z</time>
      </trkpt>
      <trkpt lat="45.48376" lon="4.70946">
        <ele>775</ele>
        <time>2020-03-10T08:43:27.000Z</time>
      </trkpt>
      <trkpt lat="45.48374" lon="4.70946">
        <ele>775.79998779297</ele>
        <time>2020-03-10T08:43:29.000Z</time>
      </trkpt>
      <trkpt lat="45.4837" lon="4.70947">
        <ele>776.20001220703</ele>
        <time>2020-03-10T08:43:31.000Z</time>
      </trkpt>
      <trkpt lat="45.48369" lon="4.70947">
        <ele>776.20001220703</ele>
        <time>2020-03-10T08:43:32.000Z</time>
      </trkpt>
      <trkpt lat="45.48364" lon="4.70947">
        <ele>777.20001220703</ele>
        <time>2020-03-10T08:43:35.000Z</time>
      </trkpt>
      <trkpt lat="45.48363" lon="4.70947">
        <ele>777.79998779297</ele>
        <time>2020-03-10T08:43:36.000Z</time>
      </trkpt>
      <trkpt lat="45.4836" lon="4.70949">
        <ele>778.40002441406</ele>
        <time>2020-03-10T08:43:38.000Z</time>
      </trkpt>
      <trkpt lat="45.48354" lon="4.70951">
        <ele>779.20001220703</ele>
        <time>2020-03-10T08:43:42.000Z</time>
      </trkpt>
      <trkpt lat="45.48352" lon="4.70951">
        <ele>779.40002441406</ele>
        <time>2020-03-10T08:43:43.000Z</time>
      </trkpt>
      <trkpt lat="45.48351" lon="4.70951">
        <ele>779.59997558594</ele>
        <time>2020-03-10T08:43:44.000Z</time>
      </trkpt>
      <trkpt lat="45.48346" lon="4.70955">
        <ele>780.59997558594</ele>
        <time>2020-03-10T08:43:47.000Z</time>
      </trkpt>
      <trkpt lat="45.48339" lon="4.70957">
        <ele>781.59997558594</ele>
        <time>2020-03-10T08:43:51.000Z</time>
      </trkpt>
      <trkpt lat="45.48338" lon="4.70957">
        <ele>781.79998779297</ele>
        <time>2020-03-10T08:43:52.000Z</time>
      </trkpt>
      <trkpt lat="45.4833" lon="4.70961">
        <ele>783</ele>
        <time>2020-03-10T08:43:57.000Z</time>
      </trkpt>
      <trkpt lat="45.48327" lon="4.70962">
        <ele>783.20001220703</ele>
        <time>2020-03-10T08:43:59.000Z</time>
      </trkpt>
      <trkpt lat="45.48322" lon="4.70962">
        <ele>783.59997558594</ele>
        <time>2020-03-10T08:44:02.000Z</time>
      </trkpt>
      <trkpt lat="45.48319" lon="4.7096">
        <ele>784</ele>
        <time>2020-03-10T08:44:04.000Z</time>
      </trkpt>
      <trkpt lat="45.48318" lon="4.70959">
        <ele>784.40002441406</ele>
        <time>2020-03-10T08:44:05.000Z</time>
      </trkpt>
      <trkpt lat="45.48316" lon="4.70956">
        <ele>785</ele>
        <time>2020-03-10T08:44:07.000Z</time>
      </trkpt>
      <trkpt lat="45.48316" lon="4.70955">
        <ele>785.20001220703</ele>
        <time>2020-03-10T08:44:08.000Z</time>
      </trkpt>
      <trkpt lat="45.48316" lon="4.70952">
        <ele>785.40002441406</ele>
        <time>2020-03-10T08:44:10.000Z</time>
      </trkpt>
      <trkpt lat="45.48315" lon="4.70949">
        <ele>785.79998779297</ele>
        <time>2020-03-10T08:44:12.000Z</time>
      </trkpt>
      <trkpt lat="45.48315" lon="4.70945">
        <ele>786.20001220703</ele>
        <time>2020-03-10T08:44:14.000Z</time>
      </trkpt>
      <trkpt lat="45.48314" lon="4.70941">
        <ele>787</ele>
        <time>2020-03-10T08:44:16.000Z</time>
      </trkpt>
      <trkpt lat="45.48313" lon="4.70939">
        <ele>787.40002441406</ele>
        <time>2020-03-10T08:44:17.000Z</time>
      </trkpt>
      <trkpt lat="45.48311" lon="4.70935">
        <ele>787.79998779297</ele>
        <time>2020-03-10T08:44:19.000Z</time>
      </trkpt>
      <trkpt lat="45.48309" lon="4.70932">
        <ele>787.79998779297</ele>
        <time>2020-03-10T08:44:20.000Z</time>
      </trkpt>
      <trkpt lat="45.48306" lon="4.70929">
        <ele>788</ele>
        <time>2020-03-10T08:44:22.000Z</time>
      </trkpt>
      <trkpt lat="45.483" lon="4.70922">
        <ele>788.40002441406</ele>
        <time>2020-03-10T08:44:26.000Z</time>
      </trkpt>
      <trkpt lat="45.48296" lon="4.70918">
        <ele>788.79998779297</ele>
        <time>2020-03-10T08:44:29.000Z</time>
      </trkpt>
      <trkpt lat="45.48293" lon="4.70916">
        <ele>789.40002441406</ele>
        <time>2020-03-10T08:44:31.000Z</time>
      </trkpt>
      <trkpt lat="45.48291" lon="4.70916">
        <ele>789.40002441406</ele>
        <time>2020-03-10T08:44:32.000Z</time>
      </trkpt>
      <trkpt lat="45.48285" lon="4.70914">
        <ele>789.40002441406</ele>
        <time>2020-03-10T08:44:35.000Z</time>
      </trkpt>
      <trkpt lat="45.48276" lon="4.70912">
        <ele>789.40002441406</ele>
        <time>2020-03-10T08:44:39.000Z</time>
      </trkpt>
      <trkpt lat="45.48272" lon="4.70912">
        <ele>789.59997558594</ele>
        <time>2020-03-10T08:44:41.000Z</time>
      </trkpt>
      <trkpt lat="45.4827" lon="4.70912">
        <ele>789.59997558594</ele>
        <time>2020-03-10T08:44:42.000Z</time>
      </trkpt>
      <trkpt lat="45.48256" lon="4.70912">
        <ele>789.40002441406</ele>
        <time>2020-03-10T08:44:48.000Z</time>
      </trkpt>
      <trkpt lat="45.48248" lon="4.70909">
        <ele>789.20001220703</ele>
        <time>2020-03-10T08:44:52.000Z</time>
      </trkpt>
      <trkpt lat="45.48242" lon="4.70907">
        <ele>789.20001220703</ele>
        <time>2020-03-10T08:44:55.000Z</time>
      </trkpt>
      <trkpt lat="45.48229" lon="4.70903">
        <ele>789.59997558594</ele>
        <time>2020-03-10T08:45:02.000Z</time>
      </trkpt>
      <trkpt lat="45.48225" lon="4.70903">
        <ele>789.59997558594</ele>
        <time>2020-03-10T08:45:04.000Z</time>
      </trkpt>
      <trkpt lat="45.48219" lon="4.70906">
        <ele>790</ele>
        <time>2020-03-10T08:45:07.000Z</time>
      </trkpt>
      <trkpt lat="45.48209" lon="4.70899">
        <ele>790.59997558594</ele>
        <time>2020-03-10T08:46:29.000Z</time>
      </trkpt>
      <trkpt lat="45.48206" lon="4.70894">
        <ele>790.20001220703</ele>
        <time>2020-03-10T08:46:32.000Z</time>
      </trkpt>
      <trkpt lat="45.48202" lon="4.70887">
        <ele>789</ele>
        <time>2020-03-10T08:46:35.000Z</time>
      </trkpt>
      <trkpt lat="45.482" lon="4.70885">
        <ele>788.59997558594</ele>
        <time>2020-03-10T08:46:36.000Z</time>
      </trkpt>
      <trkpt lat="45.48199" lon="4.70882">
        <ele>788.59997558594</ele>
        <time>2020-03-10T08:46:37.000Z</time>
      </trkpt>
      <trkpt lat="45.48194" lon="4.70876">
        <ele>787.59997558594</ele>
        <time>2020-03-10T08:46:40.000Z</time>
      </trkpt>
      <trkpt lat="45.48189" lon="4.70873">
        <ele>787.59997558594</ele>
        <time>2020-03-10T08:46:42.000Z</time>
      </trkpt>
      <trkpt lat="45.48187" lon="4.70872">
        <ele>787.59997558594</ele>
        <time>2020-03-10T08:46:43.000Z</time>
      </trkpt>
      <trkpt lat="45.48182" lon="4.7087">
        <ele>787.59997558594</ele>
        <time>2020-03-10T08:46:45.000Z</time>
      </trkpt>
      <trkpt lat="45.48176" lon="4.70864">
        <ele>787.20001220703</ele>
        <time>2020-03-10T08:46:48.000Z</time>
      </trkpt>
      <trkpt lat="45.48174" lon="4.70862">
        <ele>787</ele>
        <time>2020-03-10T08:46:49.000Z</time>
      </trkpt>
      <trkpt lat="45.48171" lon="4.70857">
        <ele>786.40002441406</ele>
        <time>2020-03-10T08:46:51.000Z</time>
      </trkpt>
      <trkpt lat="45.48169" lon="4.70855">
        <ele>786.20001220703</ele>
        <time>2020-03-10T08:46:52.000Z</time>
      </trkpt>
      <trkpt lat="45.48165" lon="4.70848">
        <ele>786</ele>
        <time>2020-03-10T08:46:55.000Z</time>
      </trkpt>
      <trkpt lat="45.48155" lon="4.70838">
        <ele>785.20001220703</ele>
        <time>2020-03-10T08:47:01.000Z</time>
      </trkpt>
      <trkpt lat="45.48153" lon="4.70837">
        <ele>785.40002441406</ele>
        <time>2020-03-10T08:47:02.000Z</time>
      </trkpt>
      <trkpt lat="45.48144" lon="4.70834">
        <ele>786</ele>
        <time>2020-03-10T08:47:06.000Z</time>
      </trkpt>
      <trkpt lat="45.48142" lon="4.70834">
        <ele>786</ele>
        <time>2020-03-10T08:47:07.000Z</time>
      </trkpt>
      <trkpt lat="45.48138" lon="4.70833">
        <ele>786.59997558594</ele>
        <time>2020-03-10T08:47:09.000Z</time>
      </trkpt>
      <trkpt lat="45.48135" lon="4.70828">
        <ele>787.20001220703</ele>
        <time>2020-03-10T08:47:11.000Z</time>
      </trkpt>
      <trkpt lat="45.48133" lon="4.70826">
        <ele>787.59997558594</ele>
        <time>2020-03-10T08:47:12.000Z</time>
      </trkpt>
      <trkpt lat="45.48131" lon="4.70813">
        <ele>787.59997558594</ele>
        <time>2020-03-10T08:47:16.000Z</time>
      </trkpt>
      <trkpt lat="45.48128" lon="4.70804">
        <ele>786.40002441406</ele>
        <time>2020-03-10T08:47:19.000Z</time>
      </trkpt>
      <trkpt lat="45.48124" lon="4.70799">
        <ele>786</ele>
        <time>2020-03-10T08:47:21.000Z</time>
      </trkpt>
      <trkpt lat="45.48122" lon="4.70798">
        <ele>786</ele>
        <time>2020-03-10T08:47:22.000Z</time>
      </trkpt>
      <trkpt lat="45.48119" lon="4.70794">
        <ele>785.40002441406</ele>
        <time>2020-03-10T08:47:24.000Z</time>
      </trkpt>
      <trkpt lat="45.48116" lon="4.7079">
        <ele>784.79998779297</ele>
        <time>2020-03-10T08:47:26.000Z</time>
      </trkpt>
      <trkpt lat="45.48114" lon="4.70785">
        <ele>784.59997558594</ele>
        <time>2020-03-10T08:47:28.000Z</time>
      </trkpt>
      <trkpt lat="45.48113" lon="4.70783">
        <ele>784.40002441406</ele>
        <time>2020-03-10T08:47:29.000Z</time>
      </trkpt>
      <trkpt lat="45.48112" lon="4.70776">
        <ele>783.59997558594</ele>
        <time>2020-03-10T08:47:32.000Z</time>
      </trkpt>
      <trkpt lat="45.48112" lon="4.70773">
        <ele>782.79998779297</ele>
        <time>2020-03-10T08:47:33.000Z</time>
      </trkpt>
      <trkpt lat="45.48111" lon="4.70767">
        <ele>781.79998779297</ele>
        <time>2020-03-10T08:47:35.000Z</time>
      </trkpt>
      <trkpt lat="45.4811" lon="4.70765">
        <ele>781.20001220703</ele>
        <time>2020-03-10T08:47:36.000Z</time>
      </trkpt>
      <trkpt lat="45.48109" lon="4.70763">
        <ele>780.59997558594</ele>
        <time>2020-03-10T08:47:37.000Z</time>
      </trkpt>
      <trkpt lat="45.48109" lon="4.7076">
        <ele>780.20001220703</ele>
        <time>2020-03-10T08:47:38.000Z</time>
      </trkpt>
      <trkpt lat="45.48109" lon="4.70755">
        <ele>779.20001220703</ele>
        <time>2020-03-10T08:47:40.000Z</time>
      </trkpt>
      <trkpt lat="45.48107" lon="4.7075">
        <ele>778.40002441406</ele>
        <time>2020-03-10T08:47:42.000Z</time>
      </trkpt>
      <trkpt lat="45.48106" lon="4.70748">
        <ele>778</ele>
        <time>2020-03-10T08:47:43.000Z</time>
      </trkpt>
      <trkpt lat="45.481" lon="4.70739">
        <ele>777</ele>
        <time>2020-03-10T08:47:47.000Z</time>
      </trkpt>
      <trkpt lat="45.48098" lon="4.7073">
        <ele>776.59997558594</ele>
        <time>2020-03-10T08:47:50.000Z</time>
      </trkpt>
      <trkpt lat="45.48097" lon="4.70725">
        <ele>775.79998779297</ele>
        <time>2020-03-10T08:47:52.000Z</time>
      </trkpt>
      <trkpt lat="45.48095" lon="4.70717">
        <ele>774.59997558594</ele>
        <time>2020-03-10T08:47:55.000Z</time>
      </trkpt>
      <trkpt lat="45.48091" lon="4.70708">
        <ele>773.40002441406</ele>
        <time>2020-03-10T08:47:58.000Z</time>
      </trkpt>
      <trkpt lat="45.48088" lon="4.70697">
        <ele>772.59997558594</ele>
        <time>2020-03-10T08:48:02.000Z</time>
      </trkpt>
      <trkpt lat="45.48086" lon="4.7069">
        <ele>772</ele>
        <time>2020-03-10T08:48:05.000Z</time>
      </trkpt>
      <trkpt lat="45.48086" lon="4.70687">
        <ele>771.59997558594</ele>
        <time>2020-03-10T08:48:06.000Z</time>
      </trkpt>
      <trkpt lat="45.48087" lon="4.70685">
        <ele>771.40002441406</ele>
        <time>2020-03-10T08:48:07.000Z</time>
      </trkpt>
      <trkpt lat="45.48087" lon="4.70681">
        <ele>770.79998779297</ele>
        <time>2020-03-10T08:48:09.000Z</time>
      </trkpt>
      <trkpt lat="45.48088" lon="4.70676">
        <ele>770</ele>
        <time>2020-03-10T08:48:11.000Z</time>
      </trkpt>
      <trkpt lat="45.48089" lon="4.70674">
        <ele>769.59997558594</ele>
        <time>2020-03-10T08:48:12.000Z</time>
      </trkpt>
      <trkpt lat="45.48089" lon="4.70672">
        <ele>769</ele>
        <time>2020-03-10T08:48:13.000Z</time>
      </trkpt>
      <trkpt lat="45.48088" lon="4.7067">
        <ele>768.40002441406</ele>
        <time>2020-03-10T08:48:14.000Z</time>
      </trkpt>
      <trkpt lat="45.48087" lon="4.70661">
        <ele>767.20001220703</ele>
        <time>2020-03-10T08:48:18.000Z</time>
      </trkpt>
      <trkpt lat="45.48087" lon="4.70658">
        <ele>766.79998779297</ele>
        <time>2020-03-10T08:48:19.000Z</time>
      </trkpt>
      <trkpt lat="45.48088" lon="4.70654">
        <ele>765.79998779297</ele>
        <time>2020-03-10T08:48:21.000Z</time>
      </trkpt>
      <trkpt lat="45.48088" lon="4.70652">
        <ele>765.20001220703</ele>
        <time>2020-03-10T08:48:22.000Z</time>
      </trkpt>
      <trkpt lat="45.48087" lon="4.70649">
        <ele>764.79998779297</ele>
        <time>2020-03-10T08:48:23.000Z</time>
      </trkpt>
      <trkpt lat="45.48084" lon="4.7064">
        <ele>763.40002441406</ele>
        <time>2020-03-10T08:48:26.000Z</time>
      </trkpt>
      <trkpt lat="45.48079" lon="4.70636">
        <ele>762.20001220703</ele>
        <time>2020-03-10T08:48:29.000Z</time>
      </trkpt>
      <trkpt lat="45.48075" lon="4.70633">
        <ele>761.40002441406</ele>
        <time>2020-03-10T08:48:31.000Z</time>
      </trkpt>
      <trkpt lat="45.48074" lon="4.70631">
        <ele>760.79998779297</ele>
        <time>2020-03-10T08:48:32.000Z</time>
      </trkpt>
      <trkpt lat="45.48073" lon="4.70625">
        <ele>759.40002441406</ele>
        <time>2020-03-10T08:48:34.000Z</time>
      </trkpt>
      <trkpt lat="45.48072" lon="4.70619">
        <ele>758.20001220703</ele>
        <time>2020-03-10T08:48:36.000Z</time>
      </trkpt>
      <trkpt lat="45.48072" lon="4.70611">
        <ele>757.20001220703</ele>
        <time>2020-03-10T08:48:39.000Z</time>
      </trkpt>
      <trkpt lat="45.48072" lon="4.70609">
        <ele>756.59997558594</ele>
        <time>2020-03-10T08:48:40.000Z</time>
      </trkpt>
      <trkpt lat="45.48072" lon="4.70607">
        <ele>756.20001220703</ele>
        <time>2020-03-10T08:48:41.000Z</time>
      </trkpt>
      <trkpt lat="45.48072" lon="4.70605">
        <ele>755.79998779297</ele>
        <time>2020-03-10T08:48:42.000Z</time>
      </trkpt>
      <trkpt lat="45.48069" lon="4.70597">
        <ele>754.59997558594</ele>
        <time>2020-03-10T08:48:45.000Z</time>
      </trkpt>
      <trkpt lat="45.48067" lon="4.70591">
        <ele>753.40002441406</ele>
        <time>2020-03-10T08:48:47.000Z</time>
      </trkpt>
      <trkpt lat="45.48065" lon="4.70585">
        <ele>752.20001220703</ele>
        <time>2020-03-10T08:48:49.000Z</time>
      </trkpt>
      <trkpt lat="45.48063" lon="4.70579">
        <ele>751</ele>
        <time>2020-03-10T08:48:51.000Z</time>
      </trkpt>
      <trkpt lat="45.48062" lon="4.70576">
        <ele>750.79998779297</ele>
        <time>2020-03-10T08:48:52.000Z</time>
      </trkpt>
      <trkpt lat="45.48061" lon="4.7057">
        <ele>749.79998779297</ele>
        <time>2020-03-10T08:48:54.000Z</time>
      </trkpt>
      <trkpt lat="45.48058" lon="4.70561">
        <ele>748.40002441406</ele>
        <time>2020-03-10T08:48:57.000Z</time>
      </trkpt>
      <trkpt lat="45.48055" lon="4.70549">
        <ele>747.20001220703</ele>
        <time>2020-03-10T08:49:00.000Z</time>
      </trkpt>
      <trkpt lat="45.48053" lon="4.70543">
        <ele>746</ele>
        <time>2020-03-10T08:49:02.000Z</time>
      </trkpt>
      <trkpt lat="45.48053" lon="4.70533">
        <ele>744.59997558594</ele>
        <time>2020-03-10T08:49:05.000Z</time>
      </trkpt>
      <trkpt lat="45.48053" lon="4.70528">
        <ele>743.59997558594</ele>
        <time>2020-03-10T08:49:07.000Z</time>
      </trkpt>
      <trkpt lat="45.48054" lon="4.70526">
        <ele>743</ele>
        <time>2020-03-10T08:49:08.000Z</time>
      </trkpt>
      <trkpt lat="45.48055" lon="4.70521">
        <ele>742.20001220703</ele>
        <time>2020-03-10T08:49:10.000Z</time>
      </trkpt>
      <trkpt lat="45.48056" lon="4.70517">
        <ele>741.40002441406</ele>
        <time>2020-03-10T08:49:12.000Z</time>
      </trkpt>
      <trkpt lat="45.48056" lon="4.70516">
        <ele>741</ele>
        <time>2020-03-10T08:49:13.000Z</time>
      </trkpt>
      <trkpt lat="45.48055" lon="4.70511">
        <ele>740.40002441406</ele>
        <time>2020-03-10T08:49:15.000Z</time>
      </trkpt>
      <trkpt lat="45.48055" lon="4.70509">
        <ele>740</ele>
        <time>2020-03-10T08:49:16.000Z</time>
      </trkpt>
      <trkpt lat="45.48055" lon="4.70503">
        <ele>738.79998779297</ele>
        <time>2020-03-10T08:49:18.000Z</time>
      </trkpt>
      <trkpt lat="45.48053" lon="4.70495">
        <ele>737.59997558594</ele>
        <time>2020-03-10T08:49:21.000Z</time>
      </trkpt>
      <trkpt lat="45.48053" lon="4.70492">
        <ele>737.20001220703</ele>
        <time>2020-03-10T08:49:22.000Z</time>
      </trkpt>
      <trkpt lat="45.48051" lon="4.70487">
        <ele>736.20001220703</ele>
        <time>2020-03-10T08:49:24.000Z</time>
      </trkpt>
      <trkpt lat="45.48049" lon="4.70481">
        <ele>735.79998779297</ele>
        <time>2020-03-10T08:49:26.000Z</time>
      </trkpt>
      <trkpt lat="45.48047" lon="4.70478">
        <ele>735.59997558594</ele>
        <time>2020-03-10T08:49:27.000Z</time>
      </trkpt>
      <trkpt lat="45.48045" lon="4.70474">
        <ele>734.79998779297</ele>
        <time>2020-03-10T08:49:29.000Z</time>
      </trkpt>
      <trkpt lat="45.48043" lon="4.70469">
        <ele>733.59997558594</ele>
        <time>2020-03-10T08:49:31.000Z</time>
      </trkpt>
      <trkpt lat="45.48042" lon="4.70467">
        <ele>733.20001220703</ele>
        <time>2020-03-10T08:49:32.000Z</time>
      </trkpt>
      <trkpt lat="45.48039" lon="4.70463">
        <ele>732</ele>
        <time>2020-03-10T08:49:34.000Z</time>
      </trkpt>
      <trkpt lat="45.48035" lon="4.70458">
        <ele>730.59997558594</ele>
        <time>2020-03-10T08:49:37.000Z</time>
      </trkpt>
      <trkpt lat="45.48032" lon="4.70455">
        <ele>729.40002441406</ele>
        <time>2020-03-10T08:49:39.000Z</time>
      </trkpt>
      <trkpt lat="45.4803" lon="4.70454">
        <ele>729</ele>
        <time>2020-03-10T08:49:40.000Z</time>
      </trkpt>
      <trkpt lat="45.48029" lon="4.70452">
        <ele>728.40002441406</ele>
        <time>2020-03-10T08:49:41.000Z</time>
      </trkpt>
      <trkpt lat="45.48028" lon="4.70451">
        <ele>727.79998779297</ele>
        <time>2020-03-10T08:49:42.000Z</time>
      </trkpt>
      <trkpt lat="45.48027" lon="4.70448">
        <ele>727.20001220703</ele>
        <time>2020-03-10T08:49:43.000Z</time>
      </trkpt>
      <trkpt lat="45.48025" lon="4.70444">
        <ele>726</ele>
        <time>2020-03-10T08:49:45.000Z</time>
      </trkpt>
      <trkpt lat="45.4802" lon="4.7044">
        <ele>724.59997558594</ele>
        <time>2020-03-10T08:49:49.000Z</time>
      </trkpt>
      <trkpt lat="45.48016" lon="4.70438">
        <ele>723.20001220703</ele>
        <time>2020-03-10T08:49:51.000Z</time>
      </trkpt>
      <trkpt lat="45.48015" lon="4.70437">
        <ele>722.40002441406</ele>
        <time>2020-03-10T08:49:52.000Z</time>
      </trkpt>
      <trkpt lat="45.48014" lon="4.70435">
        <ele>721.79998779297</ele>
        <time>2020-03-10T08:49:53.000Z</time>
      </trkpt>
      <trkpt lat="45.48013" lon="4.70433">
        <ele>721.20001220703</ele>
        <time>2020-03-10T08:49:54.000Z</time>
      </trkpt>
      <trkpt lat="45.48013" lon="4.70431">
        <ele>720.79998779297</ele>
        <time>2020-03-10T08:49:55.000Z</time>
      </trkpt>
      <trkpt lat="45.48011" lon="4.70427">
        <ele>720</ele>
        <time>2020-03-10T08:49:57.000Z</time>
      </trkpt>
      <trkpt lat="45.48011" lon="4.70425">
        <ele>719.59997558594</ele>
        <time>2020-03-10T08:49:58.000Z</time>
      </trkpt>
      <trkpt lat="45.4801" lon="4.70422">
        <ele>719.20001220703</ele>
        <time>2020-03-10T08:49:59.000Z</time>
      </trkpt>
      <trkpt lat="45.48009" lon="4.70421">
        <ele>718.79998779297</ele>
        <time>2020-03-10T08:50:00.000Z</time>
      </trkpt>
      <trkpt lat="45.48008" lon="4.70419">
        <ele>718.59997558594</ele>
        <time>2020-03-10T08:50:01.000Z</time>
      </trkpt>
      <trkpt lat="45.48007" lon="4.70417">
        <ele>718</ele>
        <time>2020-03-10T08:50:02.000Z</time>
      </trkpt>
      <trkpt lat="45.48006" lon="4.70414">
        <ele>717.40002441406</ele>
        <time>2020-03-10T08:50:03.000Z</time>
      </trkpt>
      <trkpt lat="45.48005" lon="4.70409">
        <ele>716.20001220703</ele>
        <time>2020-03-10T08:50:05.000Z</time>
      </trkpt>
      <trkpt lat="45.48004" lon="4.70402">
        <ele>715.20001220703</ele>
        <time>2020-03-10T08:50:07.000Z</time>
      </trkpt>
      <trkpt lat="45.48003" lon="4.70399">
        <ele>714.59997558594</ele>
        <time>2020-03-10T08:50:08.000Z</time>
      </trkpt>
      <trkpt lat="45.48003" lon="4.70391">
        <ele>713.59997558594</ele>
        <time>2020-03-10T08:50:11.000Z</time>
      </trkpt>
      <trkpt lat="45.48001" lon="4.70388">
        <ele>713.20001220703</ele>
        <time>2020-03-10T08:50:12.000Z</time>
      </trkpt>
      <trkpt lat="45.48" lon="4.70385">
        <ele>712.79998779297</ele>
        <time>2020-03-10T08:50:13.000Z</time>
      </trkpt>
      <trkpt lat="45.48" lon="4.70382">
        <ele>712.40002441406</ele>
        <time>2020-03-10T08:50:14.000Z</time>
      </trkpt>
      <trkpt lat="45.47999" lon="4.70375">
        <ele>711.40002441406</ele>
        <time>2020-03-10T08:50:16.000Z</time>
      </trkpt>
      <trkpt lat="45.47998" lon="4.70369">
        <ele>710.20001220703</ele>
        <time>2020-03-10T08:50:18.000Z</time>
      </trkpt>
      <trkpt lat="45.47997" lon="4.7036">
        <ele>709.20001220703</ele>
        <time>2020-03-10T08:50:21.000Z</time>
      </trkpt>
      <trkpt lat="45.47997" lon="4.70357">
        <ele>709</ele>
        <time>2020-03-10T08:50:22.000Z</time>
      </trkpt>
      <trkpt lat="45.47996" lon="4.70351">
        <ele>708</ele>
        <time>2020-03-10T08:50:24.000Z</time>
      </trkpt>
      <trkpt lat="45.47995" lon="4.70339">
        <ele>706.40002441406</ele>
        <time>2020-03-10T08:50:27.000Z</time>
      </trkpt>
      <trkpt lat="45.47992" lon="4.70329">
        <ele>705.40002441406</ele>
        <time>2020-03-10T08:50:30.000Z</time>
      </trkpt>
      <trkpt lat="45.4799" lon="4.70326">
        <ele>705</ele>
        <time>2020-03-10T08:50:31.000Z</time>
      </trkpt>
      <trkpt lat="45.47988" lon="4.70324">
        <ele>704.79998779297</ele>
        <time>2020-03-10T08:50:32.000Z</time>
      </trkpt>
      <trkpt lat="45.47984" lon="4.70319">
        <ele>704.20001220703</ele>
        <time>2020-03-10T08:50:34.000Z</time>
      </trkpt>
      <trkpt lat="45.47983" lon="4.70315">
        <ele>703.79998779297</ele>
        <time>2020-03-10T08:50:35.000Z</time>
      </trkpt>
      <trkpt lat="45.4798" lon="4.70308">
        <ele>703</ele>
        <time>2020-03-10T08:50:37.000Z</time>
      </trkpt>
      <trkpt lat="45.47976" lon="4.70303">
        <ele>702</ele>
        <time>2020-03-10T08:50:39.000Z</time>
      </trkpt>
      <trkpt lat="45.47974" lon="4.703">
        <ele>701.40002441406</ele>
        <time>2020-03-10T08:50:40.000Z</time>
      </trkpt>
      <trkpt lat="45.47972" lon="4.70297">
        <ele>700.59997558594</ele>
        <time>2020-03-10T08:50:41.000Z</time>
      </trkpt>
      <trkpt lat="45.47971" lon="4.70294">
        <ele>700</ele>
        <time>2020-03-10T08:50:42.000Z</time>
      </trkpt>
      <trkpt lat="45.47969" lon="4.70291">
        <ele>699.40002441406</ele>
        <time>2020-03-10T08:50:43.000Z</time>
      </trkpt>
      <trkpt lat="45.47966" lon="4.70282">
        <ele>698.40002441406</ele>
        <time>2020-03-10T08:50:46.000Z</time>
      </trkpt>
      <trkpt lat="45.47963" lon="4.7027">
        <ele>697</ele>
        <time>2020-03-10T08:50:50.000Z</time>
      </trkpt>
      <trkpt lat="45.47961" lon="4.70265">
        <ele>696.20001220703</ele>
        <time>2020-03-10T08:50:52.000Z</time>
      </trkpt>
      <trkpt lat="45.4796" lon="4.70261">
        <ele>696</ele>
        <time>2020-03-10T08:50:53.000Z</time>
      </trkpt>
      <trkpt lat="45.47954" lon="4.7025">
        <ele>695.40002441406</ele>
        <time>2020-03-10T08:50:57.000Z</time>
      </trkpt>
      <trkpt lat="45.47952" lon="4.70246">
        <ele>694.59997558594</ele>
        <time>2020-03-10T08:50:59.000Z</time>
      </trkpt>
      <trkpt lat="45.47948" lon="4.7024">
        <ele>693</ele>
        <time>2020-03-10T08:51:02.000Z</time>
      </trkpt>
      <trkpt lat="45.47943" lon="4.70234">
        <ele>692</ele>
        <time>2020-03-10T08:51:05.000Z</time>
      </trkpt>
      <trkpt lat="45.4794" lon="4.7023">
        <ele>691.59997558594</ele>
        <time>2020-03-10T08:51:07.000Z</time>
      </trkpt>
      <trkpt lat="45.47939" lon="4.70228">
        <ele>691</ele>
        <time>2020-03-10T08:51:08.000Z</time>
      </trkpt>
      <trkpt lat="45.47938" lon="4.70225">
        <ele>690.59997558594</ele>
        <time>2020-03-10T08:51:09.000Z</time>
      </trkpt>
      <trkpt lat="45.47934" lon="4.70215">
        <ele>689.59997558594</ele>
        <time>2020-03-10T08:51:12.000Z</time>
      </trkpt>
      <trkpt lat="45.47932" lon="4.70212">
        <ele>689.20001220703</ele>
        <time>2020-03-10T08:51:13.000Z</time>
      </trkpt>
      <trkpt lat="45.47929" lon="4.70206">
        <ele>688.40002441406</ele>
        <time>2020-03-10T08:51:15.000Z</time>
      </trkpt>
      <trkpt lat="45.47925" lon="4.70198">
        <ele>687.20001220703</ele>
        <time>2020-03-10T08:51:18.000Z</time>
      </trkpt>
      <trkpt lat="45.47922" lon="4.70192">
        <ele>686.59997558594</ele>
        <time>2020-03-10T08:51:20.000Z</time>
      </trkpt>
      <trkpt lat="45.47919" lon="4.70187">
        <ele>686</ele>
        <time>2020-03-10T08:51:22.000Z</time>
      </trkpt>
      <trkpt lat="45.47915" lon="4.70178">
        <ele>684.79998779297</ele>
        <time>2020-03-10T08:51:26.000Z</time>
      </trkpt>
      <trkpt lat="45.47915" lon="4.70177">
        <ele>684.40002441406</ele>
        <time>2020-03-10T08:51:27.000Z</time>
      </trkpt>
      <trkpt lat="45.47915" lon="4.70177">
        <ele>683.79998779297</ele>
        <time>2020-03-10T08:51:28.000Z</time>
      </trkpt>
      <trkpt lat="45.47915" lon="4.70175">
        <ele>683.20001220703</ele>
        <time>2020-03-10T08:51:30.000Z</time>
      </trkpt>
      <trkpt lat="45.47915" lon="4.70174">
        <ele>683.20001220703</ele>
        <time>2020-03-10T08:51:32.000Z</time>
      </trkpt>
      <trkpt lat="45.47913" lon="4.70174">
        <ele>683.20001220703</ele>
        <time>2020-03-10T08:51:34.000Z</time>
      </trkpt>
      <trkpt lat="45.47907" lon="4.70169">
        <ele>682.40002441406</ele>
        <time>2020-03-10T08:51:37.000Z</time>
      </trkpt>
      <trkpt lat="45.47903" lon="4.70162">
        <ele>681</ele>
        <time>2020-03-10T08:51:40.000Z</time>
      </trkpt>
      <trkpt lat="45.47899" lon="4.70156">
        <ele>680.40002441406</ele>
        <time>2020-03-10T08:51:42.000Z</time>
      </trkpt>
      <trkpt lat="45.47896" lon="4.70151">
        <ele>679.59997558594</ele>
        <time>2020-03-10T08:51:44.000Z</time>
      </trkpt>
      <trkpt lat="45.47892" lon="4.70149">
        <ele>678.59997558594</ele>
        <time>2020-03-10T08:51:46.000Z</time>
      </trkpt>
      <trkpt lat="45.47887" lon="4.70146">
        <ele>677.59997558594</ele>
        <time>2020-03-10T08:51:48.000Z</time>
      </trkpt>
      <trkpt lat="45.47886" lon="4.70142">
        <ele>677</ele>
        <time>2020-03-10T08:51:49.000Z</time>
      </trkpt>
      <trkpt lat="45.47885" lon="4.70138">
        <ele>676.59997558594</ele>
        <time>2020-03-10T08:51:50.000Z</time>
      </trkpt>
      <trkpt lat="45.47884" lon="4.70135">
        <ele>676.40002441406</ele>
        <time>2020-03-10T08:51:51.000Z</time>
      </trkpt>
      <trkpt lat="45.47883" lon="4.70132">
        <ele>676.20001220703</ele>
        <time>2020-03-10T08:51:52.000Z</time>
      </trkpt>
      <trkpt lat="45.47875" lon="4.70116">
        <ele>675.40002441406</ele>
        <time>2020-03-10T08:51:57.000Z</time>
      </trkpt>
      <trkpt lat="45.47872" lon="4.70111">
        <ele>675.20001220703</ele>
        <time>2020-03-10T08:51:59.000Z</time>
      </trkpt>
      <trkpt lat="45.47867" lon="4.70103">
        <ele>675</ele>
        <time>2020-03-10T08:52:02.000Z</time>
      </trkpt>
      <trkpt lat="45.47866" lon="4.701">
        <ele>674.79998779297</ele>
        <time>2020-03-10T08:52:03.000Z</time>
      </trkpt>
      <trkpt lat="45.47857" lon="4.70085">
        <ele>674.40002441406</ele>
        <time>2020-03-10T08:52:08.000Z</time>
      </trkpt>
      <trkpt lat="45.47856" lon="4.70083">
        <ele>674.40002441406</ele>
        <time>2020-03-10T08:52:09.000Z</time>
      </trkpt>
      <trkpt lat="45.4785" lon="4.70074">
        <ele>674.20001220703</ele>
        <time>2020-03-10T08:52:12.000Z</time>
      </trkpt>
      <trkpt lat="45.47848" lon="4.70071">
        <ele>674</ele>
        <time>2020-03-10T08:52:13.000Z</time>
      </trkpt>
      <trkpt lat="45.47845" lon="4.70064">
        <ele>674</ele>
        <time>2020-03-10T08:52:15.000Z</time>
      </trkpt>
      <trkpt lat="45.4784" lon="4.70054">
        <ele>672.79998779297</ele>
        <time>2020-03-10T08:52:18.000Z</time>
      </trkpt>
      <trkpt lat="45.47835" lon="4.70045">
        <ele>672.40002441406</ele>
        <time>2020-03-10T08:52:21.000Z</time>
      </trkpt>
      <trkpt lat="45.47833" lon="4.70042">
        <ele>672.20001220703</ele>
        <time>2020-03-10T08:52:22.000Z</time>
      </trkpt>
      <trkpt lat="45.4783" lon="4.70037">
        <ele>671.20001220703</ele>
        <time>2020-03-10T08:52:24.000Z</time>
      </trkpt>
      <trkpt lat="45.47825" lon="4.70029">
        <ele>670.20001220703</ele>
        <time>2020-03-10T08:52:27.000Z</time>
      </trkpt>
      <trkpt lat="45.47822" lon="4.70023">
        <ele>669.40002441406</ele>
        <time>2020-03-10T08:52:29.000Z</time>
      </trkpt>
      <trkpt lat="45.4782" lon="4.7002">
        <ele>669</ele>
        <time>2020-03-10T08:52:30.000Z</time>
      </trkpt>
      <trkpt lat="45.47817" lon="4.70015">
        <ele>668.79998779297</ele>
        <time>2020-03-10T08:52:32.000Z</time>
      </trkpt>
      <trkpt lat="45.47814" lon="4.7001">
        <ele>667.79998779297</ele>
        <time>2020-03-10T08:52:34.000Z</time>
      </trkpt>
      <trkpt lat="45.47812" lon="4.70005">
        <ele>667.20001220703</ele>
        <time>2020-03-10T08:52:36.000Z</time>
      </trkpt>
      <trkpt lat="45.4781" lon="4.69999">
        <ele>666.59997558594</ele>
        <time>2020-03-10T08:52:38.000Z</time>
      </trkpt>
      <trkpt lat="45.47806" lon="4.69993">
        <ele>666.20001220703</ele>
        <time>2020-03-10T08:52:40.000Z</time>
      </trkpt>
      <trkpt lat="45.47802" lon="4.69988">
        <ele>665</ele>
        <time>2020-03-10T08:52:42.000Z</time>
      </trkpt>
      <trkpt lat="45.47797" lon="4.69981">
        <ele>663.79998779297</ele>
        <time>2020-03-10T08:52:45.000Z</time>
      </trkpt>
      <trkpt lat="45.47792" lon="4.69974">
        <ele>663</ele>
        <time>2020-03-10T08:52:48.000Z</time>
      </trkpt>
      <trkpt lat="45.47791" lon="4.69971">
        <ele>662.79998779297</ele>
        <time>2020-03-10T08:52:49.000Z</time>
      </trkpt>
      <trkpt lat="45.47787" lon="4.69964">
        <ele>661.40002441406</ele>
        <time>2020-03-10T08:52:52.000Z</time>
      </trkpt>
      <trkpt lat="45.47783" lon="4.69958">
        <ele>660.59997558594</ele>
        <time>2020-03-10T08:52:54.000Z</time>
      </trkpt>
      <trkpt lat="45.47781" lon="4.69956">
        <ele>660.20001220703</ele>
        <time>2020-03-10T08:52:55.000Z</time>
      </trkpt>
      <trkpt lat="45.47776" lon="4.6995">
        <ele>659.40002441406</ele>
        <time>2020-03-10T08:52:57.000Z</time>
      </trkpt>
      <trkpt lat="45.47774" lon="4.69949">
        <ele>659</ele>
        <time>2020-03-10T08:52:58.000Z</time>
      </trkpt>
      <trkpt lat="45.4777" lon="4.69948">
        <ele>658.40002441406</ele>
        <time>2020-03-10T08:53:00.000Z</time>
      </trkpt>
      <trkpt lat="45.47768" lon="4.69948">
        <ele>657.79998779297</ele>
        <time>2020-03-10T08:53:01.000Z</time>
      </trkpt>
      <trkpt lat="45.47766" lon="4.69949">
        <ele>657</ele>
        <time>2020-03-10T08:53:02.000Z</time>
      </trkpt>
      <trkpt lat="45.47765" lon="4.6995">
        <ele>656.40002441406</ele>
        <time>2020-03-10T08:53:03.000Z</time>
      </trkpt>
      <trkpt lat="45.47761" lon="4.69953">
        <ele>655.40002441406</ele>
        <time>2020-03-10T08:53:05.000Z</time>
      </trkpt>
      <trkpt lat="45.47754" lon="4.69956">
        <ele>654</ele>
        <time>2020-03-10T08:53:08.000Z</time>
      </trkpt>
      <trkpt lat="45.47748" lon="4.69955">
        <ele>653.59997558594</ele>
        <time>2020-03-10T08:53:10.000Z</time>
      </trkpt>
      <trkpt lat="45.47742" lon="4.69951">
        <ele>652.79998779297</ele>
        <time>2020-03-10T08:53:12.000Z</time>
      </trkpt>
      <trkpt lat="45.47738" lon="4.69945">
        <ele>651.59997558594</ele>
        <time>2020-03-10T08:53:14.000Z</time>
      </trkpt>
      <trkpt lat="45.47736" lon="4.69942">
        <ele>651.20001220703</ele>
        <time>2020-03-10T08:53:15.000Z</time>
      </trkpt>
      <trkpt lat="45.47734" lon="4.69935">
        <ele>650.59997558594</ele>
        <time>2020-03-10T08:53:17.000Z</time>
      </trkpt>
      <trkpt lat="45.47733" lon="4.69928">
        <ele>649.59997558594</ele>
        <time>2020-03-10T08:53:19.000Z</time>
      </trkpt>
      <trkpt lat="45.47733" lon="4.69924">
        <ele>649</ele>
        <time>2020-03-10T08:53:20.000Z</time>
      </trkpt>
      <trkpt lat="45.47733" lon="4.69921">
        <ele>648.59997558594</ele>
        <time>2020-03-10T08:53:21.000Z</time>
      </trkpt>
      <trkpt lat="45.47733" lon="4.69917">
        <ele>648.20001220703</ele>
        <time>2020-03-10T08:53:22.000Z</time>
      </trkpt>
      <trkpt lat="45.47732" lon="4.6991">
        <ele>648</ele>
        <time>2020-03-10T08:53:24.000Z</time>
      </trkpt>
      <trkpt lat="45.47732" lon="4.69895">
        <ele>647</ele>
        <time>2020-03-10T08:53:28.000Z</time>
      </trkpt>
      <trkpt lat="45.47733" lon="4.69892">
        <ele>646.59997558594</ele>
        <time>2020-03-10T08:53:29.000Z</time>
      </trkpt>
      <trkpt lat="45.47733" lon="4.69884">
        <ele>645.79998779297</ele>
        <time>2020-03-10T08:53:31.000Z</time>
      </trkpt>
      <trkpt lat="45.47732" lon="4.6988">
        <ele>645.20001220703</ele>
        <time>2020-03-10T08:53:32.000Z</time>
      </trkpt>
      <trkpt lat="45.47732" lon="4.69871">
        <ele>644.20001220703</ele>
        <time>2020-03-10T08:53:34.000Z</time>
      </trkpt>
      <trkpt lat="45.47731" lon="4.69862">
        <ele>643</ele>
        <time>2020-03-10T08:53:36.000Z</time>
      </trkpt>
      <trkpt lat="45.47729" lon="4.69848">
        <ele>641.59997558594</ele>
        <time>2020-03-10T08:53:39.000Z</time>
      </trkpt>
      <trkpt lat="45.47727" lon="4.69836">
        <ele>640.40002441406</ele>
        <time>2020-03-10T08:53:42.000Z</time>
      </trkpt>
      <trkpt lat="45.47725" lon="4.69833">
        <ele>640.40002441406</ele>
        <time>2020-03-10T08:53:43.000Z</time>
      </trkpt>
      <trkpt lat="45.47722" lon="4.69826">
        <ele>639.20001220703</ele>
        <time>2020-03-10T08:53:45.000Z</time>
      </trkpt>
      <trkpt lat="45.47716" lon="4.69816">
        <ele>638.20001220703</ele>
        <time>2020-03-10T08:53:48.000Z</time>
      </trkpt>
      <trkpt lat="45.47711" lon="4.69805">
        <ele>637</ele>
        <time>2020-03-10T08:53:51.000Z</time>
      </trkpt>
      <trkpt lat="45.4771" lon="4.69801">
        <ele>636.79998779297</ele>
        <time>2020-03-10T08:53:52.000Z</time>
      </trkpt>
      <trkpt lat="45.47705" lon="4.69791">
        <ele>635.79998779297</ele>
        <time>2020-03-10T08:53:55.000Z</time>
      </trkpt>
      <trkpt lat="45.477" lon="4.69781">
        <ele>634.59997558594</ele>
        <time>2020-03-10T08:53:58.000Z</time>
      </trkpt>
      <trkpt lat="45.47696" lon="4.69775">
        <ele>633.79998779297</ele>
        <time>2020-03-10T08:54:00.000Z</time>
      </trkpt>
      <trkpt lat="45.47695" lon="4.69771">
        <ele>633.40002441406</ele>
        <time>2020-03-10T08:54:01.000Z</time>
      </trkpt>
      <trkpt lat="45.47693" lon="4.69768">
        <ele>633.20001220703</ele>
        <time>2020-03-10T08:54:02.000Z</time>
      </trkpt>
      <trkpt lat="45.47689" lon="4.69757">
        <ele>632.20001220703</ele>
        <time>2020-03-10T08:54:05.000Z</time>
      </trkpt>
      <trkpt lat="45.47684" lon="4.69746">
        <ele>632</ele>
        <time>2020-03-10T08:54:08.000Z</time>
      </trkpt>
      <trkpt lat="45.47676" lon="4.69734">
        <ele>631.20001220703</ele>
        <time>2020-03-10T08:54:12.000Z</time>
      </trkpt>
      <trkpt lat="45.47668" lon="4.69728">
        <ele>630.40002441406</ele>
        <time>2020-03-10T08:54:15.000Z</time>
      </trkpt>
      <trkpt lat="45.47656" lon="4.69721">
        <ele>630.20001220703</ele>
        <time>2020-03-10T08:54:20.000Z</time>
      </trkpt>
      <trkpt lat="45.47651" lon="4.69717">
        <ele>630.20001220703</ele>
        <time>2020-03-10T08:54:22.000Z</time>
      </trkpt>
      <trkpt lat="45.47649" lon="4.69715">
        <ele>630</ele>
        <time>2020-03-10T08:54:23.000Z</time>
      </trkpt>
      <trkpt lat="45.47647" lon="4.69714">
        <ele>629.79998779297</ele>
        <time>2020-03-10T08:54:24.000Z</time>
      </trkpt>
      <trkpt lat="45.47634" lon="4.69702">
        <ele>630</ele>
        <time>2020-03-10T08:54:30.000Z</time>
      </trkpt>
      <trkpt lat="45.4763" lon="4.69698">
        <ele>630.40002441406</ele>
        <time>2020-03-10T08:54:32.000Z</time>
      </trkpt>
      <trkpt lat="45.47623" lon="4.69689">
        <ele>631.20001220703</ele>
        <time>2020-03-10T08:54:36.000Z</time>
      </trkpt>
      <trkpt lat="45.47621" lon="4.69687">
        <ele>631.20001220703</ele>
        <time>2020-03-10T08:54:37.000Z</time>
      </trkpt>
      <trkpt lat="45.47612" lon="4.69678">
        <ele>631.59997558594</ele>
        <time>2020-03-10T08:54:42.000Z</time>
      </trkpt>
      <trkpt lat="45.47608" lon="4.69674">
        <ele>632</ele>
        <time>2020-03-10T08:54:44.000Z</time>
      </trkpt>
      <trkpt lat="45.47604" lon="4.69667">
        <ele>632.20001220703</ele>
        <time>2020-03-10T08:54:47.000Z</time>
      </trkpt>
      <trkpt lat="45.47597" lon="4.69658">
        <ele>633</ele>
        <time>2020-03-10T08:54:52.000Z</time>
      </trkpt>
      <trkpt lat="45.47596" lon="4.69656">
        <ele>633.40002441406</ele>
        <time>2020-03-10T08:54:53.000Z</time>
      </trkpt>
      <trkpt lat="45.47592" lon="4.69648">
        <ele>634.59997558594</ele>
        <time>2020-03-10T08:54:57.000Z</time>
      </trkpt>
      <trkpt lat="45.47591" lon="4.69646">
        <ele>635</ele>
        <time>2020-03-10T08:54:58.000Z</time>
      </trkpt>
      <trkpt lat="45.4759" lon="4.69642">
        <ele>635.20001220703</ele>
        <time>2020-03-10T08:55:00.000Z</time>
      </trkpt>
      <trkpt lat="45.47589" lon="4.69637">
        <ele>635.59997558594</ele>
        <time>2020-03-10T08:55:02.000Z</time>
      </trkpt>
      <trkpt lat="45.47588" lon="4.69635">
        <ele>635.79998779297</ele>
        <time>2020-03-10T08:55:03.000Z</time>
      </trkpt>
      <trkpt lat="45.47585" lon="4.69626">
        <ele>637</ele>
        <time>2020-03-10T08:55:07.000Z</time>
      </trkpt>
      <trkpt lat="45.47585" lon="4.69624">
        <ele>637.20001220703</ele>
        <time>2020-03-10T08:55:08.000Z</time>
      </trkpt>
      <trkpt lat="45.47582" lon="4.69617">
        <ele>637.79998779297</ele>
        <time>2020-03-10T08:55:12.000Z</time>
      </trkpt>
      <trkpt lat="45.47581" lon="4.69615">
        <ele>638</ele>
        <time>2020-03-10T08:55:13.000Z</time>
      </trkpt>
      <trkpt lat="45.47581" lon="4.69613">
        <ele>638.20001220703</ele>
        <time>2020-03-10T08:55:14.000Z</time>
      </trkpt>
      <trkpt lat="45.47573" lon="4.696">
        <ele>639.40002441406</ele>
        <time>2020-03-10T08:55:20.000Z</time>
      </trkpt>
      <trkpt lat="45.47572" lon="4.69599">
        <ele>639.40002441406</ele>
        <time>2020-03-10T08:55:21.000Z</time>
      </trkpt>
      <trkpt lat="45.47571" lon="4.69598">
        <ele>639.59997558594</ele>
        <time>2020-03-10T08:55:22.000Z</time>
      </trkpt>
      <trkpt lat="45.4757" lon="4.69596">
        <ele>640</ele>
        <time>2020-03-10T08:55:23.000Z</time>
      </trkpt>
      <trkpt lat="45.47569" lon="4.69593">
        <ele>640.40002441406</ele>
        <time>2020-03-10T08:55:25.000Z</time>
      </trkpt>
      <trkpt lat="45.47568" lon="4.69591">
        <ele>640.40002441406</ele>
        <time>2020-03-10T08:55:26.000Z</time>
      </trkpt>
      <trkpt lat="45.47568" lon="4.6959">
        <ele>640.59997558594</ele>
        <time>2020-03-10T08:55:27.000Z</time>
      </trkpt>
      <trkpt lat="45.47568" lon="4.6958">
        <ele>641.59997558594</ele>
        <time>2020-03-10T08:55:31.000Z</time>
      </trkpt>
      <trkpt lat="45.47567" lon="4.69577">
        <ele>641.59997558594</ele>
        <time>2020-03-10T08:55:32.000Z</time>
      </trkpt>
      <trkpt lat="45.47566" lon="4.69574">
        <ele>641.79998779297</ele>
        <time>2020-03-10T08:55:33.000Z</time>
      </trkpt>
      <trkpt lat="45.47565" lon="4.69572">
        <ele>642.20001220703</ele>
        <time>2020-03-10T08:55:34.000Z</time>
      </trkpt>
      <trkpt lat="45.47565" lon="4.69568">
        <ele>642.59997558594</ele>
        <time>2020-03-10T08:55:36.000Z</time>
      </trkpt>
      <trkpt lat="45.47563" lon="4.69562">
        <ele>643.20001220703</ele>
        <time>2020-03-10T08:55:39.000Z</time>
      </trkpt>
      <trkpt lat="45.47561" lon="4.69558">
        <ele>644</ele>
        <time>2020-03-10T08:55:41.000Z</time>
      </trkpt>
      <trkpt lat="45.47561" lon="4.69555">
        <ele>644</ele>
        <time>2020-03-10T08:55:42.000Z</time>
      </trkpt>
      <trkpt lat="45.4756" lon="4.69549">
        <ele>644.79998779297</ele>
        <time>2020-03-10T08:55:45.000Z</time>
      </trkpt>
      <trkpt lat="45.47559" lon="4.69546">
        <ele>645.20001220703</ele>
        <time>2020-03-10T08:55:46.000Z</time>
      </trkpt>
      <trkpt lat="45.47559" lon="4.69544">
        <ele>645.59997558594</ele>
        <time>2020-03-10T08:55:47.000Z</time>
      </trkpt>
      <trkpt lat="45.47558" lon="4.69538">
        <ele>646.20001220703</ele>
        <time>2020-03-10T08:55:50.000Z</time>
      </trkpt>
      <trkpt lat="45.47557" lon="4.69536">
        <ele>646.40002441406</ele>
        <time>2020-03-10T08:55:51.000Z</time>
      </trkpt>
      <trkpt lat="45.47557" lon="4.69534">
        <ele>646.59997558594</ele>
        <time>2020-03-10T08:55:52.000Z</time>
      </trkpt>
      <trkpt lat="45.47556" lon="4.69531">
        <ele>646.59997558594</ele>
        <time>2020-03-10T08:55:53.000Z</time>
      </trkpt>
      <trkpt lat="45.47555" lon="4.69521">
        <ele>647.40002441406</ele>
        <time>2020-03-10T08:55:57.000Z</time>
      </trkpt>
      <trkpt lat="45.47554" lon="4.69511">
        <ele>647.79998779297</ele>
        <time>2020-03-10T08:56:01.000Z</time>
      </trkpt>
      <trkpt lat="45.47553" lon="4.69509">
        <ele>648</ele>
        <time>2020-03-10T08:56:02.000Z</time>
      </trkpt>
      <trkpt lat="45.47553" lon="4.69507">
        <ele>648.40002441406</ele>
        <time>2020-03-10T08:56:03.000Z</time>
      </trkpt>
      <trkpt lat="45.47552" lon="4.69506">
        <ele>648.59997558594</ele>
        <time>2020-03-10T08:56:04.000Z</time>
      </trkpt>
      <trkpt lat="45.47552" lon="4.69502">
        <ele>649.40002441406</ele>
        <time>2020-03-10T08:56:06.000Z</time>
      </trkpt>
      <trkpt lat="45.47552" lon="4.69499">
        <ele>649.59997558594</ele>
        <time>2020-03-10T08:56:07.000Z</time>
      </trkpt>
      <trkpt lat="45.47551" lon="4.69497">
        <ele>649.79998779297</ele>
        <time>2020-03-10T08:56:08.000Z</time>
      </trkpt>
      <trkpt lat="45.47551" lon="4.69487">
        <ele>650.20001220703</ele>
        <time>2020-03-10T08:56:12.000Z</time>
      </trkpt>
      <trkpt lat="45.47551" lon="4.69484">
        <ele>650.40002441406</ele>
        <time>2020-03-10T08:56:13.000Z</time>
      </trkpt>
      <trkpt lat="45.47552" lon="4.69482">
        <ele>650.79998779297</ele>
        <time>2020-03-10T08:56:14.000Z</time>
      </trkpt>
      <trkpt lat="45.47553" lon="4.69473">
        <ele>651.79998779297</ele>
        <time>2020-03-10T08:56:18.000Z</time>
      </trkpt>
      <trkpt lat="45.47553" lon="4.69471">
        <ele>652.20001220703</ele>
        <time>2020-03-10T08:56:19.000Z</time>
      </trkpt>
      <trkpt lat="45.47553" lon="4.69466">
        <ele>652.59997558594</ele>
        <time>2020-03-10T08:56:22.000Z</time>
      </trkpt>
      <trkpt lat="45.47554" lon="4.69465">
        <ele>653</ele>
        <time>2020-03-10T08:56:23.000Z</time>
      </trkpt>
      <trkpt lat="45.47555" lon="4.6946">
        <ele>653.59997558594</ele>
        <time>2020-03-10T08:56:25.000Z</time>
      </trkpt>
      <trkpt lat="45.47557" lon="4.69458">
        <ele>654</ele>
        <time>2020-03-10T08:56:26.000Z</time>
      </trkpt>
      <trkpt lat="45.47557" lon="4.69452">
        <ele>654.79998779297</ele>
        <time>2020-03-10T08:56:29.000Z</time>
      </trkpt>
      <trkpt lat="45.47558" lon="4.69442">
        <ele>655.20001220703</ele>
        <time>2020-03-10T08:56:32.000Z</time>
      </trkpt>
      <trkpt lat="45.47558" lon="4.69437">
        <ele>655.79998779297</ele>
        <time>2020-03-10T08:56:34.000Z</time>
      </trkpt>
      <trkpt lat="45.47557" lon="4.6943">
        <ele>656.40002441406</ele>
        <time>2020-03-10T08:56:37.000Z</time>
      </trkpt>
      <trkpt lat="45.47555" lon="4.69422">
        <ele>657.40002441406</ele>
        <time>2020-03-10T08:56:40.000Z</time>
      </trkpt>
      <trkpt lat="45.47554" lon="4.69418">
        <ele>657.79998779297</ele>
        <time>2020-03-10T08:56:42.000Z</time>
      </trkpt>
      <trkpt lat="45.47556" lon="4.69415">
        <ele>658.40002441406</ele>
        <time>2020-03-10T08:56:45.000Z</time>
      </trkpt>
      <trkpt lat="45.47554" lon="4.69407">
        <ele>659.59997558594</ele>
        <time>2020-03-10T08:56:49.000Z</time>
      </trkpt>
      <trkpt lat="45.47553" lon="4.69403">
        <ele>660.40002441406</ele>
        <time>2020-03-10T08:56:51.000Z</time>
      </trkpt>
      <trkpt lat="45.47552" lon="4.69401">
        <ele>660.59997558594</ele>
        <time>2020-03-10T08:56:52.000Z</time>
      </trkpt>
      <trkpt lat="45.47552" lon="4.694">
        <ele>660.79998779297</ele>
        <time>2020-03-10T08:56:53.000Z</time>
      </trkpt>
      <trkpt lat="45.47551" lon="4.69393">
        <ele>661.20001220703</ele>
        <time>2020-03-10T08:56:56.000Z</time>
      </trkpt>
      <trkpt lat="45.47551" lon="4.69391">
        <ele>661.59997558594</ele>
        <time>2020-03-10T08:56:57.000Z</time>
      </trkpt>
      <trkpt lat="45.47547" lon="4.69385">
        <ele>662</ele>
        <time>2020-03-10T08:56:59.000Z</time>
      </trkpt>
      <trkpt lat="45.47542" lon="4.69378">
        <ele>662.59997558594</ele>
        <time>2020-03-10T08:57:02.000Z</time>
      </trkpt>
      <trkpt lat="45.47541" lon="4.69376">
        <ele>662.59997558594</ele>
        <time>2020-03-10T08:57:03.000Z</time>
      </trkpt>
      <trkpt lat="45.47537" lon="4.69373">
        <ele>663</ele>
        <time>2020-03-10T08:57:05.000Z</time>
      </trkpt>
      <trkpt lat="45.47532" lon="4.69368">
        <ele>664.20001220703</ele>
        <time>2020-03-10T08:57:08.000Z</time>
      </trkpt>
      <trkpt lat="45.47529" lon="4.69365">
        <ele>664.59997558594</ele>
        <time>2020-03-10T08:57:10.000Z</time>
      </trkpt>
      <trkpt lat="45.47525" lon="4.6936">
        <ele>665</ele>
        <time>2020-03-10T08:57:12.000Z</time>
      </trkpt>
      <trkpt lat="45.47523" lon="4.69359">
        <ele>665.20001220703</ele>
        <time>2020-03-10T08:57:13.000Z</time>
      </trkpt>
      <trkpt lat="45.47517" lon="4.69355">
        <ele>665.59997558594</ele>
        <time>2020-03-10T08:57:17.000Z</time>
      </trkpt>
      <trkpt lat="45.47507" lon="4.69348">
        <ele>666</ele>
        <time>2020-03-10T08:57:22.000Z</time>
      </trkpt>
      <trkpt lat="45.475" lon="4.69344">
        <ele>666.20001220703</ele>
        <time>2020-03-10T08:57:25.000Z</time>
      </trkpt>
      <trkpt lat="45.47497" lon="4.69343">
        <ele>666.40002441406</ele>
        <time>2020-03-10T08:57:26.000Z</time>
      </trkpt>
      <trkpt lat="45.47485" lon="4.69336">
        <ele>666.59997558594</ele>
        <time>2020-03-10T08:57:31.000Z</time>
      </trkpt>
      <trkpt lat="45.47483" lon="4.69335">
        <ele>666.59997558594</ele>
        <time>2020-03-10T08:57:32.000Z</time>
      </trkpt>
      <trkpt lat="45.47469" lon="4.6933">
        <ele>666.79998779297</ele>
        <time>2020-03-10T08:57:38.000Z</time>
      </trkpt>
      <trkpt lat="45.47467" lon="4.6933">
        <ele>667</ele>
        <time>2020-03-10T08:57:39.000Z</time>
      </trkpt>
      <trkpt lat="45.47461" lon="4.69328">
        <ele>666.40002441406</ele>
        <time>2020-03-10T08:57:42.000Z</time>
      </trkpt>
      <trkpt lat="45.47458" lon="4.69327">
        <ele>667</ele>
        <time>2020-03-10T08:57:45.000Z</time>
      </trkpt>
      <trkpt lat="45.47449" lon="4.69322">
        <ele>667</ele>
        <time>2020-03-10T08:57:51.000Z</time>
      </trkpt>
      <trkpt lat="45.47447" lon="4.69321">
        <ele>667</ele>
        <time>2020-03-10T08:57:52.000Z</time>
      </trkpt>
      <trkpt lat="45.47443" lon="4.69319">
        <ele>667.40002441406</ele>
        <time>2020-03-10T08:57:54.000Z</time>
      </trkpt>
      <trkpt lat="45.47433" lon="4.69317">
        <ele>668.20001220703</ele>
        <time>2020-03-10T08:57:58.000Z</time>
      </trkpt>
      <trkpt lat="45.47431" lon="4.69317">
        <ele>668.40002441406</ele>
        <time>2020-03-10T08:57:59.000Z</time>
      </trkpt>
      <trkpt lat="45.47424" lon="4.69316">
        <ele>668.79998779297</ele>
        <time>2020-03-10T08:58:02.000Z</time>
      </trkpt>
      <trkpt lat="45.47414" lon="4.6931">
        <ele>669.20001220703</ele>
        <time>2020-03-10T08:58:06.000Z</time>
      </trkpt>
      <trkpt lat="45.47411" lon="4.69308">
        <ele>669.20001220703</ele>
        <time>2020-03-10T08:58:08.000Z</time>
      </trkpt>
      <trkpt lat="45.47409" lon="4.69306">
        <ele>669.40002441406</ele>
        <time>2020-03-10T08:58:09.000Z</time>
      </trkpt>
      <trkpt lat="45.47406" lon="4.69303">
        <ele>669.40002441406</ele>
        <time>2020-03-10T08:58:11.000Z</time>
      </trkpt>
      <trkpt lat="45.47404" lon="4.69303">
        <ele>669.20001220703</ele>
        <time>2020-03-10T08:58:12.000Z</time>
      </trkpt>
      <trkpt lat="45.47397" lon="4.69298">
        <ele>669.40002441406</ele>
        <time>2020-03-10T08:58:16.000Z</time>
      </trkpt>
      <trkpt lat="45.47394" lon="4.69298">
        <ele>669.59997558594</ele>
        <time>2020-03-10T08:58:17.000Z</time>
      </trkpt>
      <trkpt lat="45.47388" lon="4.69292">
        <ele>670</ele>
        <time>2020-03-10T08:58:20.000Z</time>
      </trkpt>
      <trkpt lat="45.47382" lon="4.6929">
        <ele>670.20001220703</ele>
        <time>2020-03-10T08:58:22.000Z</time>
      </trkpt>
      <trkpt lat="45.47373" lon="4.69283">
        <ele>670.40002441406</ele>
        <time>2020-03-10T08:58:28.000Z</time>
      </trkpt>
      <trkpt lat="45.47367" lon="4.69282">
        <ele>670.40002441406</ele>
        <time>2020-03-10T08:58:32.000Z</time>
      </trkpt>
      <trkpt lat="45.47363" lon="4.6928">
        <ele>670.40002441406</ele>
        <time>2020-03-10T08:58:34.000Z</time>
      </trkpt>
      <trkpt lat="45.4736" lon="4.69278">
        <ele>670.59997558594</ele>
        <time>2020-03-10T08:58:36.000Z</time>
      </trkpt>
      <trkpt lat="45.47358" lon="4.69276">
        <ele>670.59997558594</ele>
        <time>2020-03-10T08:58:37.000Z</time>
      </trkpt>
      <trkpt lat="45.47352" lon="4.69275">
        <ele>670.79998779297</ele>
        <time>2020-03-10T08:58:40.000Z</time>
      </trkpt>
      <trkpt lat="45.4735" lon="4.69275">
        <ele>671</ele>
        <time>2020-03-10T08:58:41.000Z</time>
      </trkpt>
      <trkpt lat="45.47345" lon="4.6927">
        <ele>671.59997558594</ele>
        <time>2020-03-10T08:58:44.000Z</time>
      </trkpt>
      <trkpt lat="45.47343" lon="4.69269">
        <ele>671.79998779297</ele>
        <time>2020-03-10T08:58:45.000Z</time>
      </trkpt>
      <trkpt lat="45.4734" lon="4.69266">
        <ele>672</ele>
        <time>2020-03-10T08:58:46.000Z</time>
      </trkpt>
      <trkpt lat="45.47331" lon="4.6925">
        <ele>672.40002441406</ele>
        <time>2020-03-10T08:58:51.000Z</time>
      </trkpt>
      <trkpt lat="45.47328" lon="4.69242">
        <ele>672.40002441406</ele>
        <time>2020-03-10T08:58:53.000Z</time>
      </trkpt>
      <trkpt lat="45.47322" lon="4.69225">
        <ele>672</ele>
        <time>2020-03-10T08:58:59.000Z</time>
      </trkpt>
      <trkpt lat="45.47319" lon="4.69223">
        <ele>672</ele>
        <time>2020-03-10T08:59:01.000Z</time>
      </trkpt>
      <trkpt lat="45.47314" lon="4.69214">
        <ele>672.20001220703</ele>
        <time>2020-03-10T08:59:04.000Z</time>
      </trkpt>
      <trkpt lat="45.47305" lon="4.69198">
        <ele>672.59997558594</ele>
        <time>2020-03-10T08:59:10.000Z</time>
      </trkpt>
      <trkpt lat="45.47304" lon="4.69195">
        <ele>672.59997558594</ele>
        <time>2020-03-10T08:59:11.000Z</time>
      </trkpt>
      <trkpt lat="45.47302" lon="4.69187">
        <ele>672.79998779297</ele>
        <time>2020-03-10T08:59:13.000Z</time>
      </trkpt>
      <trkpt lat="45.473" lon="4.6918">
        <ele>672.79998779297</ele>
        <time>2020-03-10T08:59:15.000Z</time>
      </trkpt>
      <trkpt lat="45.47295" lon="4.69166">
        <ele>672.79998779297</ele>
        <time>2020-03-10T08:59:19.000Z</time>
      </trkpt>
      <trkpt lat="45.47294" lon="4.6916">
        <ele>673</ele>
        <time>2020-03-10T08:59:21.000Z</time>
      </trkpt>
      <trkpt lat="45.47291" lon="4.6915">
        <ele>673.59997558594</ele>
        <time>2020-03-10T08:59:24.000Z</time>
      </trkpt>
      <trkpt lat="45.47289" lon="4.69144">
        <ele>674</ele>
        <time>2020-03-10T08:59:26.000Z</time>
      </trkpt>
      <trkpt lat="45.47286" lon="4.69136">
        <ele>674.20001220703</ele>
        <time>2020-03-10T08:59:29.000Z</time>
      </trkpt>
      <trkpt lat="45.47285" lon="4.69129">
        <ele>674.40002441406</ele>
        <time>2020-03-10T08:59:31.000Z</time>
      </trkpt>
      <trkpt lat="45.47284" lon="4.69125">
        <ele>674.40002441406</ele>
        <time>2020-03-10T08:59:32.000Z</time>
      </trkpt>
      <trkpt lat="45.47283" lon="4.69122">
        <ele>674.40002441406</ele>
        <time>2020-03-10T08:59:33.000Z</time>
      </trkpt>
      <trkpt lat="45.47279" lon="4.69107">
        <ele>674.59997558594</ele>
        <time>2020-03-10T08:59:38.000Z</time>
      </trkpt>
      <trkpt lat="45.47277" lon="4.69095">
        <ele>674.79998779297</ele>
        <time>2020-03-10T08:59:41.000Z</time>
      </trkpt>
      <trkpt lat="45.47274" lon="4.69083">
        <ele>674.79998779297</ele>
        <time>2020-03-10T08:59:44.000Z</time>
      </trkpt>
      <trkpt lat="45.47268" lon="4.69067">
        <ele>674.59997558594</ele>
        <time>2020-03-10T08:59:49.000Z</time>
      </trkpt>
      <trkpt lat="45.47267" lon="4.69061">
        <ele>674.79998779297</ele>
        <time>2020-03-10T08:59:51.000Z</time>
      </trkpt>
      <trkpt lat="45.47261" lon="4.69043">
        <ele>675</ele>
        <time>2020-03-10T08:59:56.000Z</time>
      </trkpt>
      <trkpt lat="45.47258" lon="4.69026">
        <ele>675</ele>
        <time>2020-03-10T09:00:01.000Z</time>
      </trkpt>
      <trkpt lat="45.47253" lon="4.69012">
        <ele>675.59997558594</ele>
        <time>2020-03-10T09:00:06.000Z</time>
      </trkpt>
      <trkpt lat="45.47251" lon="4.69005">
        <ele>675.79998779297</ele>
        <time>2020-03-10T09:00:08.000Z</time>
      </trkpt>
      <trkpt lat="45.47248" lon="4.68999">
        <ele>675</ele>
        <time>2020-03-10T09:00:11.000Z</time>
      </trkpt>
      <trkpt lat="45.47246" lon="4.68997">
        <ele>675.20001220703</ele>
        <time>2020-03-10T09:00:12.000Z</time>
      </trkpt>
      <trkpt lat="45.4724" lon="4.68988">
        <ele>676.40002441406</ele>
        <time>2020-03-10T09:00:18.000Z</time>
      </trkpt>
      <trkpt lat="45.47236" lon="4.68983">
        <ele>676.59997558594</ele>
        <time>2020-03-10T09:00:21.000Z</time>
      </trkpt>
      <trkpt lat="45.47234" lon="4.6898">
        <ele>676.59997558594</ele>
        <time>2020-03-10T09:00:23.000Z</time>
      </trkpt>
      <trkpt lat="45.47231" lon="4.68977">
        <ele>676.79998779297</ele>
        <time>2020-03-10T09:00:25.000Z</time>
      </trkpt>
      <trkpt lat="45.47224" lon="4.68969">
        <ele>677.40002441406</ele>
        <time>2020-03-10T09:00:29.000Z</time>
      </trkpt>
      <trkpt lat="45.4722" lon="4.68966">
        <ele>677.59997558594</ele>
        <time>2020-03-10T09:00:31.000Z</time>
      </trkpt>
      <trkpt lat="45.47212" lon="4.68962">
        <ele>677.59997558594</ele>
        <time>2020-03-10T09:00:35.000Z</time>
      </trkpt>
      <trkpt lat="45.47208" lon="4.68959">
        <ele>678</ele>
        <time>2020-03-10T09:00:38.000Z</time>
      </trkpt>
      <trkpt lat="45.47202" lon="4.68955">
        <ele>678.40002441406</ele>
        <time>2020-03-10T09:00:41.000Z</time>
      </trkpt>
      <trkpt lat="45.47199" lon="4.68953">
        <ele>678.79998779297</ele>
        <time>2020-03-10T09:00:43.000Z</time>
      </trkpt>
      <trkpt lat="45.47192" lon="4.6895">
        <ele>679.20001220703</ele>
        <time>2020-03-10T09:00:47.000Z</time>
      </trkpt>
      <trkpt lat="45.47189" lon="4.68949">
        <ele>679.40002441406</ele>
        <time>2020-03-10T09:00:49.000Z</time>
      </trkpt>
      <trkpt lat="45.47185" lon="4.68948">
        <ele>679.79998779297</ele>
        <time>2020-03-10T09:00:51.000Z</time>
      </trkpt>
      <trkpt lat="45.47181" lon="4.68946">
        <ele>680.40002441406</ele>
        <time>2020-03-10T09:00:53.000Z</time>
      </trkpt>
      <trkpt lat="45.47179" lon="4.68945">
        <ele>680.40002441406</ele>
        <time>2020-03-10T09:00:55.000Z</time>
      </trkpt>
      <trkpt lat="45.47168" lon="4.68937">
        <ele>680.20001220703</ele>
        <time>2020-03-10T09:01:01.000Z</time>
      </trkpt>
      <trkpt lat="45.47165" lon="4.68935">
        <ele>679.79998779297</ele>
        <time>2020-03-10T09:01:03.000Z</time>
      </trkpt>
      <trkpt lat="45.47161" lon="4.6893">
        <ele>679.40002441406</ele>
        <time>2020-03-10T09:01:05.000Z</time>
      </trkpt>
      <trkpt lat="45.4716" lon="4.68928">
        <ele>679.20001220703</ele>
        <time>2020-03-10T09:01:06.000Z</time>
      </trkpt>
      <trkpt lat="45.47157" lon="4.68928">
        <ele>679</ele>
        <time>2020-03-10T09:01:08.000Z</time>
      </trkpt>
      <trkpt lat="45.47153" lon="4.68923">
        <ele>678.59997558594</ele>
        <time>2020-03-10T09:01:11.000Z</time>
      </trkpt>
      <trkpt lat="45.47152" lon="4.68922">
        <ele>678.59997558594</ele>
        <time>2020-03-10T09:01:12.000Z</time>
      </trkpt>
      <trkpt lat="45.47147" lon="4.68919">
        <ele>679.20001220703</ele>
        <time>2020-03-10T09:01:16.000Z</time>
      </trkpt>
      <trkpt lat="45.47146" lon="4.68915">
        <ele>679</ele>
        <time>2020-03-10T09:01:17.000Z</time>
      </trkpt>
      <trkpt lat="45.47136" lon="4.68895">
        <ele>679.59997558594</ele>
        <time>2020-03-10T09:01:21.000Z</time>
      </trkpt>
      <trkpt lat="45.47129" lon="4.68876">
        <ele>679.20001220703</ele>
        <time>2020-03-10T09:01:27.000Z</time>
      </trkpt>
      <trkpt lat="45.47127" lon="4.68874">
        <ele>679.20001220703</ele>
        <time>2020-03-10T09:01:28.000Z</time>
      </trkpt>
      <trkpt lat="45.47123" lon="4.68869">
        <ele>679.79998779297</ele>
        <time>2020-03-10T09:01:31.000Z</time>
      </trkpt>
      <trkpt lat="45.47118" lon="4.68865">
        <ele>680</ele>
        <time>2020-03-10T09:01:32.000Z</time>
      </trkpt>
      <trkpt lat="45.47114" lon="4.68861">
        <ele>680.40002441406</ele>
        <time>2020-03-10T09:01:33.000Z</time>
      </trkpt>
      <trkpt lat="45.47097" lon="4.68845">
        <ele>681.40002441406</ele>
        <time>2020-03-10T09:01:38.000Z</time>
      </trkpt>
      <trkpt lat="45.47095" lon="4.68843">
        <ele>681.40002441406</ele>
        <time>2020-03-10T09:01:39.000Z</time>
      </trkpt>
      <trkpt lat="45.47091" lon="4.68839">
        <ele>681.79998779297</ele>
        <time>2020-03-10T09:01:41.000Z</time>
      </trkpt>
      <trkpt lat="45.47085" lon="4.68831">
        <ele>682.40002441406</ele>
        <time>2020-03-10T09:01:45.000Z</time>
      </trkpt>
      <trkpt lat="45.47084" lon="4.68829">
        <ele>682.59997558594</ele>
        <time>2020-03-10T09:01:46.000Z</time>
      </trkpt>
      <trkpt lat="45.47081" lon="4.68821">
        <ele>682.59997558594</ele>
        <time>2020-03-10T09:01:50.000Z</time>
      </trkpt>
      <trkpt lat="45.47081" lon="4.68819">
        <ele>682.59997558594</ele>
        <time>2020-03-10T09:01:51.000Z</time>
      </trkpt>
      <trkpt lat="45.47078" lon="4.68798">
        <ele>683</ele>
        <time>2020-03-10T09:01:58.000Z</time>
      </trkpt>
      <trkpt lat="45.47078" lon="4.68787">
        <ele>683</ele>
        <time>2020-03-10T09:02:01.000Z</time>
      </trkpt>
      <trkpt lat="45.47074" lon="4.68771">
        <ele>682.79998779297</ele>
        <time>2020-03-10T09:02:05.000Z</time>
      </trkpt>
      <trkpt lat="45.47068" lon="4.68755">
        <ele>683.59997558594</ele>
        <time>2020-03-10T09:02:10.000Z</time>
      </trkpt>
      <trkpt lat="45.47068" lon="4.68752">
        <ele>683.59997558594</ele>
        <time>2020-03-10T09:02:11.000Z</time>
      </trkpt>
      <trkpt lat="45.47065" lon="4.6874">
        <ele>683.59997558594</ele>
        <time>2020-03-10T09:02:16.000Z</time>
      </trkpt>
      <trkpt lat="45.47064" lon="4.68735">
        <ele>683.59997558594</ele>
        <time>2020-03-10T09:02:18.000Z</time>
      </trkpt>
      <trkpt lat="45.47064" lon="4.68724">
        <ele>683.79998779297</ele>
        <time>2020-03-10T09:02:21.000Z</time>
      </trkpt>
      <trkpt lat="45.47064" lon="4.68713">
        <ele>684</ele>
        <time>2020-03-10T09:02:24.000Z</time>
      </trkpt>
      <trkpt lat="45.47065" lon="4.68707">
        <ele>684.20001220703</ele>
        <time>2020-03-10T09:02:26.000Z</time>
      </trkpt>
      <trkpt lat="45.47066" lon="4.68695">
        <ele>684.20001220703</ele>
        <time>2020-03-10T09:02:29.000Z</time>
      </trkpt>
      <trkpt lat="45.47065" lon="4.68688">
        <ele>684.40002441406</ele>
        <time>2020-03-10T09:02:31.000Z</time>
      </trkpt>
      <trkpt lat="45.47066" lon="4.68677">
        <ele>684.59997558594</ele>
        <time>2020-03-10T09:02:34.000Z</time>
      </trkpt>
      <trkpt lat="45.47068" lon="4.6867">
        <ele>684.59997558594</ele>
        <time>2020-03-10T09:02:36.000Z</time>
      </trkpt>
      <trkpt lat="45.47071" lon="4.68657">
        <ele>684.79998779297</ele>
        <time>2020-03-10T09:02:40.000Z</time>
      </trkpt>
      <trkpt lat="45.4707" lon="4.68654">
        <ele>684.59997558594</ele>
        <time>2020-03-10T09:02:41.000Z</time>
      </trkpt>
      <trkpt lat="45.47072" lon="4.68632">
        <ele>685.40002441406</ele>
        <time>2020-03-10T09:02:47.000Z</time>
      </trkpt>
      <trkpt lat="45.47073" lon="4.68628">
        <ele>685.79998779297</ele>
        <time>2020-03-10T09:02:48.000Z</time>
      </trkpt>
      <trkpt lat="45.47072" lon="4.68617">
        <ele>686</ele>
        <time>2020-03-10T09:02:51.000Z</time>
      </trkpt>
      <trkpt lat="45.47074" lon="4.68615">
        <ele>686</ele>
        <time>2020-03-10T09:02:52.000Z</time>
      </trkpt>
      <trkpt lat="45.47077" lon="4.68609">
        <ele>686.20001220703</ele>
        <time>2020-03-10T09:02:54.000Z</time>
      </trkpt>
      <trkpt lat="45.47076" lon="4.68604">
        <ele>686.20001220703</ele>
        <time>2020-03-10T09:02:55.000Z</time>
      </trkpt>
      <trkpt lat="45.47075" lon="4.68595">
        <ele>686.59997558594</ele>
        <time>2020-03-10T09:02:59.000Z</time>
      </trkpt>
      <trkpt lat="45.47076" lon="4.68593">
        <ele>686.59997558594</ele>
        <time>2020-03-10T09:03:01.000Z</time>
      </trkpt>
      <trkpt lat="45.47074" lon="4.68577">
        <ele>687</ele>
        <time>2020-03-10T09:03:06.000Z</time>
      </trkpt>
      <trkpt lat="45.47074" lon="4.68572">
        <ele>687</ele>
        <time>2020-03-10T09:03:07.000Z</time>
      </trkpt>
      <trkpt lat="45.47072" lon="4.68563">
        <ele>687.79998779297</ele>
        <time>2020-03-10T09:03:11.000Z</time>
      </trkpt>
      <trkpt lat="45.4707" lon="4.68553">
        <ele>688</ele>
        <time>2020-03-10T09:03:14.000Z</time>
      </trkpt>
      <trkpt lat="45.47063" lon="4.68537">
        <ele>688.40002441406</ele>
        <time>2020-03-10T09:03:20.000Z</time>
      </trkpt>
      <trkpt lat="45.47062" lon="4.68534">
        <ele>688.59997558594</ele>
        <time>2020-03-10T09:03:21.000Z</time>
      </trkpt>
      <trkpt lat="45.47059" lon="4.68524">
        <ele>689.20001220703</ele>
        <time>2020-03-10T09:03:24.000Z</time>
      </trkpt>
      <trkpt lat="45.47056" lon="4.68513">
        <ele>689.59997558594</ele>
        <time>2020-03-10T09:03:27.000Z</time>
      </trkpt>
      <trkpt lat="45.47052" lon="4.68499">
        <ele>690</ele>
        <time>2020-03-10T09:03:31.000Z</time>
      </trkpt>
      <trkpt lat="45.47048" lon="4.68486">
        <ele>690</ele>
        <time>2020-03-10T09:03:34.000Z</time>
      </trkpt>
      <trkpt lat="45.47047" lon="4.68482">
        <ele>690.40002441406</ele>
        <time>2020-03-10T09:03:35.000Z</time>
      </trkpt>
      <trkpt lat="45.47044" lon="4.68465">
        <ele>691</ele>
        <time>2020-03-10T09:03:40.000Z</time>
      </trkpt>
      <trkpt lat="45.47042" lon="4.68463">
        <ele>690.79998779297</ele>
        <time>2020-03-10T09:03:41.000Z</time>
      </trkpt>
      <trkpt lat="45.47036" lon="4.68438">
        <ele>691.20001220703</ele>
        <time>2020-03-10T09:03:47.000Z</time>
      </trkpt>
      <trkpt lat="45.47035" lon="4.68433">
        <ele>691.40002441406</ele>
        <time>2020-03-10T09:03:48.000Z</time>
      </trkpt>
      <trkpt lat="45.47033" lon="4.68422">
        <ele>691.79998779297</ele>
        <time>2020-03-10T09:03:51.000Z</time>
      </trkpt>
      <trkpt lat="45.47032" lon="4.68414">
        <ele>692.20001220703</ele>
        <time>2020-03-10T09:03:55.000Z</time>
      </trkpt>
      <trkpt lat="45.47031" lon="4.68411">
        <ele>692.40002441406</ele>
        <time>2020-03-10T09:03:56.000Z</time>
      </trkpt>
      <trkpt lat="45.47031" lon="4.68404">
        <ele>693.59997558594</ele>
        <time>2020-03-10T09:04:00.000Z</time>
      </trkpt>
      <trkpt lat="45.47031" lon="4.68403">
        <ele>694</ele>
        <time>2020-03-10T09:04:01.000Z</time>
      </trkpt>
      <trkpt lat="45.47031" lon="4.68401">
        <ele>694</ele>
        <time>2020-03-10T09:04:02.000Z</time>
      </trkpt>
      <trkpt lat="45.47031" lon="4.68381">
        <ele>694.79998779297</ele>
        <time>2020-03-10T09:04:10.000Z</time>
      </trkpt>
      <trkpt lat="45.47032" lon="4.68378">
        <ele>695</ele>
        <time>2020-03-10T09:04:11.000Z</time>
      </trkpt>
      <trkpt lat="45.47033" lon="4.68372">
        <ele>695.40002441406</ele>
        <time>2020-03-10T09:04:15.000Z</time>
      </trkpt>
      <trkpt lat="45.47033" lon="4.68369">
        <ele>695.59997558594</ele>
        <time>2020-03-10T09:04:16.000Z</time>
      </trkpt>
      <trkpt lat="45.47033" lon="4.68365">
        <ele>695.79998779297</ele>
        <time>2020-03-10T09:04:17.000Z</time>
      </trkpt>
      <trkpt lat="45.47032" lon="4.68361">
        <ele>696</ele>
        <time>2020-03-10T09:04:18.000Z</time>
      </trkpt>
      <trkpt lat="45.47032" lon="4.68359">
        <ele>696.20001220703</ele>
        <time>2020-03-10T09:04:19.000Z</time>
      </trkpt>
      <trkpt lat="45.47034" lon="4.68354">
        <ele>697.20001220703</ele>
        <time>2020-03-10T09:04:21.000Z</time>
      </trkpt>
      <trkpt lat="45.47033" lon="4.68352">
        <ele>697.40002441406</ele>
        <time>2020-03-10T09:04:22.000Z</time>
      </trkpt>
      <trkpt lat="45.47032" lon="4.6834">
        <ele>698.59997558594</ele>
        <time>2020-03-10T09:04:25.000Z</time>
      </trkpt>
      <trkpt lat="45.47032" lon="4.6833">
        <ele>699.20001220703</ele>
        <time>2020-03-10T09:04:28.000Z</time>
      </trkpt>
      <trkpt lat="45.47032" lon="4.68327">
        <ele>699.59997558594</ele>
        <time>2020-03-10T09:04:29.000Z</time>
      </trkpt>
      <trkpt lat="45.47033" lon="4.68322">
        <ele>700</ele>
        <time>2020-03-10T09:04:31.000Z</time>
      </trkpt>
      <trkpt lat="45.47032" lon="4.68314">
        <ele>700.59997558594</ele>
        <time>2020-03-10T09:04:33.000Z</time>
      </trkpt>
      <trkpt lat="45.47032" lon="4.68311">
        <ele>701</ele>
        <time>2020-03-10T09:04:34.000Z</time>
      </trkpt>
      <trkpt lat="45.47034" lon="4.68294">
        <ele>701.59997558594</ele>
        <time>2020-03-10T09:04:40.000Z</time>
      </trkpt>
      <trkpt lat="45.47034" lon="4.68292">
        <ele>701.59997558594</ele>
        <time>2020-03-10T09:04:41.000Z</time>
      </trkpt>
      <trkpt lat="45.47034" lon="4.68289">
        <ele>701.79998779297</ele>
        <time>2020-03-10T09:04:42.000Z</time>
      </trkpt>
      <trkpt lat="45.47035" lon="4.68283">
        <ele>702.20001220703</ele>
        <time>2020-03-10T09:04:44.000Z</time>
      </trkpt>
      <trkpt lat="45.47035" lon="4.68273">
        <ele>702.59997558594</ele>
        <time>2020-03-10T09:04:47.000Z</time>
      </trkpt>
      <trkpt lat="45.47034" lon="4.68268">
        <ele>702.79998779297</ele>
        <time>2020-03-10T09:04:49.000Z</time>
      </trkpt>
      <trkpt lat="45.47033" lon="4.68263">
        <ele>703.20001220703</ele>
        <time>2020-03-10T09:04:51.000Z</time>
      </trkpt>
      <trkpt lat="45.47032" lon="4.68257">
        <ele>703.40002441406</ele>
        <time>2020-03-10T09:04:53.000Z</time>
      </trkpt>
      <trkpt lat="45.47028" lon="4.68237">
        <ele>703.20001220703</ele>
        <time>2020-03-10T09:04:59.000Z</time>
      </trkpt>
      <trkpt lat="45.47028" lon="4.68228">
        <ele>703.20001220703</ele>
        <time>2020-03-10T09:05:01.000Z</time>
      </trkpt>
      <trkpt lat="45.47028" lon="4.6822">
        <ele>703</ele>
        <time>2020-03-10T09:05:03.000Z</time>
      </trkpt>
      <trkpt lat="45.47027" lon="4.68212">
        <ele>703.20001220703</ele>
        <time>2020-03-10T09:05:05.000Z</time>
      </trkpt>
      <trkpt lat="45.47025" lon="4.68188">
        <ele>703</ele>
        <time>2020-03-10T09:05:11.000Z</time>
      </trkpt>
      <trkpt lat="45.47023" lon="4.68177">
        <ele>702.79998779297</ele>
        <time>2020-03-10T09:05:14.000Z</time>
      </trkpt>
      <trkpt lat="45.4702" lon="4.68156">
        <ele>703</ele>
        <time>2020-03-10T09:05:20.000Z</time>
      </trkpt>
      <trkpt lat="45.47019" lon="4.68154">
        <ele>703.20001220703</ele>
        <time>2020-03-10T09:05:21.000Z</time>
      </trkpt>
      <trkpt lat="45.47014" lon="4.68128">
        <ele>703.79998779297</ele>
        <time>2020-03-10T09:05:29.000Z</time>
      </trkpt>
      <trkpt lat="45.47013" lon="4.68124">
        <ele>704</ele>
        <time>2020-03-10T09:05:30.000Z</time>
      </trkpt>
      <trkpt lat="45.47012" lon="4.68121">
        <ele>704.20001220703</ele>
        <time>2020-03-10T09:05:31.000Z</time>
      </trkpt>
      <trkpt lat="45.4701" lon="4.68103">
        <ele>704.40002441406</ele>
        <time>2020-03-10T09:05:36.000Z</time>
      </trkpt>
      <trkpt lat="45.47006" lon="4.68086">
        <ele>703.79998779297</ele>
        <time>2020-03-10T09:05:41.000Z</time>
      </trkpt>
      <trkpt lat="45.47006" lon="4.68082">
        <ele>704</ele>
        <time>2020-03-10T09:05:42.000Z</time>
      </trkpt>
      <trkpt lat="45.47004" lon="4.68062">
        <ele>704.59997558594</ele>
        <time>2020-03-10T09:05:48.000Z</time>
      </trkpt>
      <trkpt lat="45.47003" lon="4.68052">
        <ele>704.59997558594</ele>
        <time>2020-03-10T09:05:51.000Z</time>
      </trkpt>
      <trkpt lat="45.47001" lon="4.68038">
        <ele>704.59997558594</ele>
        <time>2020-03-10T09:05:55.000Z</time>
      </trkpt>
      <trkpt lat="45.46998" lon="4.68019">
        <ele>704.20001220703</ele>
        <time>2020-03-10T09:06:01.000Z</time>
      </trkpt>
      <trkpt lat="45.46998" lon="4.68016">
        <ele>704.40002441406</ele>
        <time>2020-03-10T09:06:02.000Z</time>
      </trkpt>
      <trkpt lat="45.46996" lon="4.68003">
        <ele>704.20001220703</ele>
        <time>2020-03-10T09:06:07.000Z</time>
      </trkpt>
      <trkpt lat="45.46996" lon="4.67999">
        <ele>704.40002441406</ele>
        <time>2020-03-10T09:06:08.000Z</time>
      </trkpt>
      <trkpt lat="45.46994" lon="4.67989">
        <ele>704.20001220703</ele>
        <time>2020-03-10T09:06:11.000Z</time>
      </trkpt>
      <trkpt lat="45.46994" lon="4.67986">
        <ele>704.20001220703</ele>
        <time>2020-03-10T09:06:12.000Z</time>
      </trkpt>
      <trkpt lat="45.46993" lon="4.67963">
        <ele>703.79998779297</ele>
        <time>2020-03-10T09:06:18.000Z</time>
      </trkpt>
      <trkpt lat="45.46992" lon="4.67952">
        <ele>703.59997558594</ele>
        <time>2020-03-10T09:06:21.000Z</time>
      </trkpt>
      <trkpt lat="45.46992" lon="4.67943">
        <ele>703.40002441406</ele>
        <time>2020-03-10T09:06:24.000Z</time>
      </trkpt>
      <trkpt lat="45.4699" lon="4.67922">
        <ele>704</ele>
        <time>2020-03-10T09:06:30.000Z</time>
      </trkpt>
      <trkpt lat="45.46989" lon="4.67919">
        <ele>704.20001220703</ele>
        <time>2020-03-10T09:06:31.000Z</time>
      </trkpt>
      <trkpt lat="45.46989" lon="4.67902">
        <ele>704.20001220703</ele>
        <time>2020-03-10T09:06:36.000Z</time>
      </trkpt>
      <trkpt lat="45.46991" lon="4.67885">
        <ele>704.20001220703</ele>
        <time>2020-03-10T09:06:41.000Z</time>
      </trkpt>
      <trkpt lat="45.46991" lon="4.67882">
        <ele>704.59997558594</ele>
        <time>2020-03-10T09:06:42.000Z</time>
      </trkpt>
      <trkpt lat="45.46991" lon="4.67875">
        <ele>705</ele>
        <time>2020-03-10T09:06:44.000Z</time>
      </trkpt>
      <trkpt lat="45.46986" lon="4.6786">
        <ele>705.40002441406</ele>
        <time>2020-03-10T09:06:48.000Z</time>
      </trkpt>
      <trkpt lat="45.46982" lon="4.6785">
        <ele>705.79998779297</ele>
        <time>2020-03-10T09:06:51.000Z</time>
      </trkpt>
      <trkpt lat="45.46978" lon="4.6784">
        <ele>706</ele>
        <time>2020-03-10T09:06:54.000Z</time>
      </trkpt>
      <trkpt lat="45.46976" lon="4.67836">
        <ele>706.40002441406</ele>
        <time>2020-03-10T09:06:55.000Z</time>
      </trkpt>
      <trkpt lat="45.46972" lon="4.67827">
        <ele>706.79998779297</ele>
        <time>2020-03-10T09:06:58.000Z</time>
      </trkpt>
      <trkpt lat="45.46969" lon="4.67822">
        <ele>707</ele>
        <time>2020-03-10T09:07:00.000Z</time>
      </trkpt>
      <trkpt lat="45.46968" lon="4.67819">
        <ele>707</ele>
        <time>2020-03-10T09:07:01.000Z</time>
      </trkpt>
      <trkpt lat="45.46963" lon="4.67811">
        <ele>707</ele>
        <time>2020-03-10T09:07:04.000Z</time>
      </trkpt>
      <trkpt lat="45.46957" lon="4.67804">
        <ele>707.40002441406</ele>
        <time>2020-03-10T09:07:07.000Z</time>
      </trkpt>
      <trkpt lat="45.46951" lon="4.678">
        <ele>707.59997558594</ele>
        <time>2020-03-10T09:07:11.000Z</time>
      </trkpt>
      <trkpt lat="45.46949" lon="4.67798">
        <ele>707.59997558594</ele>
        <time>2020-03-10T09:07:12.000Z</time>
      </trkpt>
      <trkpt lat="45.4694" lon="4.67791">
        <ele>707.20001220703</ele>
        <time>2020-03-10T09:07:17.000Z</time>
      </trkpt>
      <trkpt lat="45.46937" lon="4.67791">
        <ele>707.20001220703</ele>
        <time>2020-03-10T09:07:18.000Z</time>
      </trkpt>
      <trkpt lat="45.46933" lon="4.67789">
        <ele>706.79998779297</ele>
        <time>2020-03-10T09:07:20.000Z</time>
      </trkpt>
      <trkpt lat="45.46931" lon="4.67787">
        <ele>706.79998779297</ele>
        <time>2020-03-10T09:07:21.000Z</time>
      </trkpt>
      <trkpt lat="45.46923" lon="4.67784">
        <ele>706.20001220703</ele>
        <time>2020-03-10T09:07:25.000Z</time>
      </trkpt>
      <trkpt lat="45.46921" lon="4.67783">
        <ele>706</ele>
        <time>2020-03-10T09:07:26.000Z</time>
      </trkpt>
      <trkpt lat="45.46915" lon="4.6778">
        <ele>704.79998779297</ele>
        <time>2020-03-10T09:07:30.000Z</time>
      </trkpt>
      <trkpt lat="45.46915" lon="4.6778">
        <ele>704.40002441406</ele>
        <time>2020-03-10T09:07:31.000Z</time>
      </trkpt>
      <trkpt lat="45.46914" lon="4.67779">
        <ele>704.40002441406</ele>
        <time>2020-03-10T09:07:32.000Z</time>
      </trkpt>
      <trkpt lat="45.46905" lon="4.67774">
        <ele>703.20001220703</ele>
        <time>2020-03-10T09:07:37.000Z</time>
      </trkpt>
      <trkpt lat="45.469" lon="4.67773">
        <ele>702.20001220703</ele>
        <time>2020-03-10T09:07:39.000Z</time>
      </trkpt>
      <trkpt lat="45.46896" lon="4.67772">
        <ele>702</ele>
        <time>2020-03-10T09:07:40.000Z</time>
      </trkpt>
      <trkpt lat="45.46893" lon="4.67772">
        <ele>701.79998779297</ele>
        <time>2020-03-10T09:07:41.000Z</time>
      </trkpt>
      <trkpt lat="45.46891" lon="4.67772">
        <ele>701.79998779297</ele>
        <time>2020-03-10T09:07:42.000Z</time>
      </trkpt>
      <trkpt lat="45.46879" lon="4.67771">
        <ele>700.79998779297</ele>
        <time>2020-03-10T09:07:45.000Z</time>
      </trkpt>
      <trkpt lat="45.46873" lon="4.67772">
        <ele>699.59997558594</ele>
        <time>2020-03-10T09:07:47.000Z</time>
      </trkpt>
      <trkpt lat="45.46869" lon="4.67771">
        <ele>699.20001220703</ele>
        <time>2020-03-10T09:07:48.000Z</time>
      </trkpt>
      <trkpt lat="45.46863" lon="4.67769">
        <ele>698</ele>
        <time>2020-03-10T09:07:50.000Z</time>
      </trkpt>
      <trkpt lat="45.46861" lon="4.67767">
        <ele>697.59997558594</ele>
        <time>2020-03-10T09:07:51.000Z</time>
      </trkpt>
      <trkpt lat="45.46854" lon="4.67763">
        <ele>696.79998779297</ele>
        <time>2020-03-10T09:07:54.000Z</time>
      </trkpt>
      <trkpt lat="45.46841" lon="4.67759">
        <ele>696</ele>
        <time>2020-03-10T09:08:00.000Z</time>
      </trkpt>
      <trkpt lat="45.46838" lon="4.67759">
        <ele>696</ele>
        <time>2020-03-10T09:08:01.000Z</time>
      </trkpt>
      <trkpt lat="45.46834" lon="4.67759">
        <ele>695.59997558594</ele>
        <time>2020-03-10T09:08:03.000Z</time>
      </trkpt>
      <trkpt lat="45.46827" lon="4.67759">
        <ele>694.79998779297</ele>
        <time>2020-03-10T09:08:06.000Z</time>
      </trkpt>
      <trkpt lat="45.46821" lon="4.67759">
        <ele>694.59997558594</ele>
        <time>2020-03-10T09:08:08.000Z</time>
      </trkpt>
      <trkpt lat="45.46813" lon="4.6776">
        <ele>694</ele>
        <time>2020-03-10T09:08:11.000Z</time>
      </trkpt>
      <trkpt lat="45.46808" lon="4.67761">
        <ele>693.59997558594</ele>
        <time>2020-03-10T09:08:13.000Z</time>
      </trkpt>
      <trkpt lat="45.46805" lon="4.67761">
        <ele>693.79998779297</ele>
        <time>2020-03-10T09:08:14.000Z</time>
      </trkpt>
      <trkpt lat="45.46802" lon="4.67762">
        <ele>693.40002441406</ele>
        <time>2020-03-10T09:08:15.000Z</time>
      </trkpt>
      <trkpt lat="45.46795" lon="4.6776">
        <ele>691.79998779297</ele>
        <time>2020-03-10T09:08:18.000Z</time>
      </trkpt>
      <trkpt lat="45.46792" lon="4.67759">
        <ele>691.20001220703</ele>
        <time>2020-03-10T09:08:19.000Z</time>
      </trkpt>
      <trkpt lat="45.4679" lon="4.67758">
        <ele>690.79998779297</ele>
        <time>2020-03-10T09:08:20.000Z</time>
      </trkpt>
      <trkpt lat="45.46788" lon="4.67759">
        <ele>690.59997558594</ele>
        <time>2020-03-10T09:08:21.000Z</time>
      </trkpt>
      <trkpt lat="45.46784" lon="4.67759">
        <ele>689.79998779297</ele>
        <time>2020-03-10T09:08:23.000Z</time>
      </trkpt>
      <trkpt lat="45.46783" lon="4.6776">
        <ele>689.20001220703</ele>
        <time>2020-03-10T09:08:24.000Z</time>
      </trkpt>
      <trkpt lat="45.46781" lon="4.67761">
        <ele>688.79998779297</ele>
        <time>2020-03-10T09:08:25.000Z</time>
      </trkpt>
      <trkpt lat="45.46773" lon="4.67759">
        <ele>687.59997558594</ele>
        <time>2020-03-10T09:08:29.000Z</time>
      </trkpt>
      <trkpt lat="45.46771" lon="4.67758">
        <ele>687.40002441406</ele>
        <time>2020-03-10T09:08:30.000Z</time>
      </trkpt>
      <trkpt lat="45.46768" lon="4.67757">
        <ele>687</ele>
        <time>2020-03-10T09:08:31.000Z</time>
      </trkpt>
      <trkpt lat="45.46763" lon="4.67756">
        <ele>686.40002441406</ele>
        <time>2020-03-10T09:08:33.000Z</time>
      </trkpt>
      <trkpt lat="45.46756" lon="4.67754">
        <ele>685.59997558594</ele>
        <time>2020-03-10T09:08:36.000Z</time>
      </trkpt>
      <trkpt lat="45.46751" lon="4.67753">
        <ele>685.20001220703</ele>
        <time>2020-03-10T09:08:38.000Z</time>
      </trkpt>
      <trkpt lat="45.46743" lon="4.67752">
        <ele>684.20001220703</ele>
        <time>2020-03-10T09:08:41.000Z</time>
      </trkpt>
      <trkpt lat="45.4674" lon="4.67752">
        <ele>683.79998779297</ele>
        <time>2020-03-10T09:08:42.000Z</time>
      </trkpt>
      <trkpt lat="45.46731" lon="4.67753">
        <ele>683</ele>
        <time>2020-03-10T09:08:47.000Z</time>
      </trkpt>
      <trkpt lat="45.46723" lon="4.67754">
        <ele>682.40002441406</ele>
        <time>2020-03-10T09:08:51.000Z</time>
      </trkpt>
      <trkpt lat="45.46718" lon="4.67752">
        <ele>681.79998779297</ele>
        <time>2020-03-10T09:08:53.000Z</time>
      </trkpt>
      <trkpt lat="45.46703" lon="4.67744">
        <ele>680.79998779297</ele>
        <time>2020-03-10T09:09:00.000Z</time>
      </trkpt>
      <trkpt lat="45.46701" lon="4.67743">
        <ele>680.40002441406</ele>
        <time>2020-03-10T09:09:01.000Z</time>
      </trkpt>
      <trkpt lat="45.46695" lon="4.6774">
        <ele>679.59997558594</ele>
        <time>2020-03-10T09:09:04.000Z</time>
      </trkpt>
      <trkpt lat="45.46691" lon="4.67738">
        <ele>679</ele>
        <time>2020-03-10T09:09:06.000Z</time>
      </trkpt>
      <trkpt lat="45.46689" lon="4.67738">
        <ele>678.59997558594</ele>
        <time>2020-03-10T09:09:07.000Z</time>
      </trkpt>
      <trkpt lat="45.46684" lon="4.67739">
        <ele>677.79998779297</ele>
        <time>2020-03-10T09:09:09.000Z</time>
      </trkpt>
      <trkpt lat="45.46683" lon="4.67738">
        <ele>677.40002441406</ele>
        <time>2020-03-10T09:09:10.000Z</time>
      </trkpt>
      <trkpt lat="45.46681" lon="4.67738">
        <ele>676.79998779297</ele>
        <time>2020-03-10T09:09:11.000Z</time>
      </trkpt>
      <trkpt lat="45.46678" lon="4.67739">
        <ele>676.20001220703</ele>
        <time>2020-03-10T09:09:12.000Z</time>
      </trkpt>
      <trkpt lat="45.46676" lon="4.67739">
        <ele>675.79998779297</ele>
        <time>2020-03-10T09:09:13.000Z</time>
      </trkpt>
      <trkpt lat="45.46674" lon="4.67738">
        <ele>675.20001220703</ele>
        <time>2020-03-10T09:09:14.000Z</time>
      </trkpt>
      <trkpt lat="45.46671" lon="4.67737">
        <ele>674.20001220703</ele>
        <time>2020-03-10T09:09:16.000Z</time>
      </trkpt>
      <trkpt lat="45.46669" lon="4.67737">
        <ele>673.59997558594</ele>
        <time>2020-03-10T09:09:17.000Z</time>
      </trkpt>
      <trkpt lat="45.46668" lon="4.67737">
        <ele>673</ele>
        <time>2020-03-10T09:09:18.000Z</time>
      </trkpt>
      <trkpt lat="45.46664" lon="4.67736">
        <ele>671.79998779297</ele>
        <time>2020-03-10T09:09:21.000Z</time>
      </trkpt>
      <trkpt lat="45.46662" lon="4.67736">
        <ele>671.40002441406</ele>
        <time>2020-03-10T09:09:22.000Z</time>
      </trkpt>
      <trkpt lat="45.4666" lon="4.67738">
        <ele>671</ele>
        <time>2020-03-10T09:09:23.000Z</time>
      </trkpt>
      <trkpt lat="45.46658" lon="4.6774">
        <ele>670.79998779297</ele>
        <time>2020-03-10T09:09:24.000Z</time>
      </trkpt>
      <trkpt lat="45.46654" lon="4.67741">
        <ele>670.40002441406</ele>
        <time>2020-03-10T09:09:26.000Z</time>
      </trkpt>
      <trkpt lat="45.46651" lon="4.67742">
        <ele>670.20001220703</ele>
        <time>2020-03-10T09:09:28.000Z</time>
      </trkpt>
      <trkpt lat="45.46644" lon="4.67744">
        <ele>670</ele>
        <time>2020-03-10T09:09:31.000Z</time>
      </trkpt>
      <trkpt lat="45.46638" lon="4.6775">
        <ele>669.59997558594</ele>
        <time>2020-03-10T09:09:34.000Z</time>
      </trkpt>
      <trkpt lat="45.46629" lon="4.67755">
        <ele>669.59997558594</ele>
        <time>2020-03-10T09:09:37.000Z</time>
      </trkpt>
      <trkpt lat="45.4662" lon="4.6776">
        <ele>669.40002441406</ele>
        <time>2020-03-10T09:09:41.000Z</time>
      </trkpt>
      <trkpt lat="45.46616" lon="4.67762">
        <ele>669.40002441406</ele>
        <time>2020-03-10T09:09:42.000Z</time>
      </trkpt>
      <trkpt lat="45.46611" lon="4.67764">
        <ele>669.40002441406</ele>
        <time>2020-03-10T09:09:44.000Z</time>
      </trkpt>
      <trkpt lat="45.46601" lon="4.67769">
        <ele>669</ele>
        <time>2020-03-10T09:09:48.000Z</time>
      </trkpt>
      <trkpt lat="45.46599" lon="4.6777">
        <ele>669</ele>
        <time>2020-03-10T09:09:49.000Z</time>
      </trkpt>
      <trkpt lat="45.46595" lon="4.67773">
        <ele>669</ele>
        <time>2020-03-10T09:09:51.000Z</time>
      </trkpt>
      <trkpt lat="45.46588" lon="4.67782">
        <ele>668.59997558594</ele>
        <time>2020-03-10T09:09:54.000Z</time>
      </trkpt>
      <trkpt lat="45.46586" lon="4.67785">
        <ele>668.59997558594</ele>
        <time>2020-03-10T09:09:55.000Z</time>
      </trkpt>
      <trkpt lat="45.46578" lon="4.67792">
        <ele>667.79998779297</ele>
        <time>2020-03-10T09:09:59.000Z</time>
      </trkpt>
      <trkpt lat="45.46577" lon="4.67793">
        <ele>667.59997558594</ele>
        <time>2020-03-10T09:10:00.000Z</time>
      </trkpt>
      <trkpt lat="45.46575" lon="4.67793">
        <ele>667.40002441406</ele>
        <time>2020-03-10T09:10:01.000Z</time>
      </trkpt>
      <trkpt lat="45.46569" lon="4.67802">
        <ele>667.40002441406</ele>
        <time>2020-03-10T09:10:05.000Z</time>
      </trkpt>
      <trkpt lat="45.46565" lon="4.67809">
        <ele>667.59997558594</ele>
        <time>2020-03-10T09:10:07.000Z</time>
      </trkpt>
      <trkpt lat="45.46553" lon="4.6782">
        <ele>667.59997558594</ele>
        <time>2020-03-10T09:10:11.000Z</time>
      </trkpt>
      <trkpt lat="45.46539" lon="4.67837">
        <ele>667</ele>
        <time>2020-03-10T09:10:14.000Z</time>
      </trkpt>
      <trkpt lat="45.46533" lon="4.67844">
        <ele>666.59997558594</ele>
        <time>2020-03-10T09:10:16.000Z</time>
      </trkpt>
      <trkpt lat="45.4653" lon="4.67847">
        <ele>666.59997558594</ele>
        <time>2020-03-10T09:10:17.000Z</time>
      </trkpt>
      <trkpt lat="45.46528" lon="4.6785">
        <ele>666.40002441406</ele>
        <time>2020-03-10T09:10:18.000Z</time>
      </trkpt>
      <trkpt lat="45.46522" lon="4.67858">
        <ele>666</ele>
        <time>2020-03-10T09:10:21.000Z</time>
      </trkpt>
      <trkpt lat="45.46519" lon="4.6786">
        <ele>665.79998779297</ele>
        <time>2020-03-10T09:10:22.000Z</time>
      </trkpt>
      <trkpt lat="45.46516" lon="4.67863">
        <ele>665.20001220703</ele>
        <time>2020-03-10T09:10:24.000Z</time>
      </trkpt>
      <trkpt lat="45.46511" lon="4.67871">
        <ele>664.20001220703</ele>
        <time>2020-03-10T09:10:27.000Z</time>
      </trkpt>
      <trkpt lat="45.46509" lon="4.67876">
        <ele>663.40002441406</ele>
        <time>2020-03-10T09:10:29.000Z</time>
      </trkpt>
      <trkpt lat="45.46505" lon="4.67882">
        <ele>663.20001220703</ele>
        <time>2020-03-10T09:10:31.000Z</time>
      </trkpt>
      <trkpt lat="45.46504" lon="4.67884">
        <ele>663.20001220703</ele>
        <time>2020-03-10T09:10:32.000Z</time>
      </trkpt>
      <trkpt lat="45.46501" lon="4.67889">
        <ele>662.59997558594</ele>
        <time>2020-03-10T09:10:34.000Z</time>
      </trkpt>
      <trkpt lat="45.46498" lon="4.67893">
        <ele>661.79998779297</ele>
        <time>2020-03-10T09:10:36.000Z</time>
      </trkpt>
      <trkpt lat="45.46495" lon="4.67897">
        <ele>661</ele>
        <time>2020-03-10T09:10:38.000Z</time>
      </trkpt>
      <trkpt lat="45.46494" lon="4.679">
        <ele>660.59997558594</ele>
        <time>2020-03-10T09:10:39.000Z</time>
      </trkpt>
      <trkpt lat="45.46494" lon="4.67904">
        <ele>660.20001220703</ele>
        <time>2020-03-10T09:10:41.000Z</time>
      </trkpt>
      <trkpt lat="45.46493" lon="4.67914">
        <ele>660.40002441406</ele>
        <time>2020-03-10T09:10:44.000Z</time>
      </trkpt>
      <trkpt lat="45.46491" lon="4.6793">
        <ele>661.79998779297</ele>
        <time>2020-03-10T09:10:49.000Z</time>
      </trkpt>
      <trkpt lat="45.46492" lon="4.67932">
        <ele>662</ele>
        <time>2020-03-10T09:10:50.000Z</time>
      </trkpt>
      <trkpt lat="45.46493" lon="4.67934">
        <ele>662.20001220703</ele>
        <time>2020-03-10T09:10:51.000Z</time>
      </trkpt>
      <trkpt lat="45.46497" lon="4.67944">
        <ele>662.79998779297</ele>
        <time>2020-03-10T09:10:55.000Z</time>
      </trkpt>
      <trkpt lat="45.46497" lon="4.67947">
        <ele>663</ele>
        <time>2020-03-10T09:10:56.000Z</time>
      </trkpt>
      <trkpt lat="45.46502" lon="4.67958">
        <ele>663.59997558594</ele>
        <time>2020-03-10T09:11:01.000Z</time>
      </trkpt>
      <trkpt lat="45.46503" lon="4.6796">
        <ele>663.79998779297</ele>
        <time>2020-03-10T09:11:02.000Z</time>
      </trkpt>
      <trkpt lat="45.46504" lon="4.67962">
        <ele>664.20001220703</ele>
        <time>2020-03-10T09:11:03.000Z</time>
      </trkpt>
      <trkpt lat="45.46508" lon="4.67975">
        <ele>665.20001220703</ele>
        <time>2020-03-10T09:11:08.000Z</time>
      </trkpt>
      <trkpt lat="45.46509" lon="4.67976">
        <ele>665.40002441406</ele>
        <time>2020-03-10T09:11:09.000Z</time>
      </trkpt>
      <trkpt lat="45.46512" lon="4.67978">
        <ele>665.79998779297</ele>
        <time>2020-03-10T09:11:11.000Z</time>
      </trkpt>
      <trkpt lat="45.46514" lon="4.67983">
        <ele>666</ele>
        <time>2020-03-10T09:11:13.000Z</time>
      </trkpt>
      <trkpt lat="45.46515" lon="4.6799">
        <ele>666.20001220703</ele>
        <time>2020-03-10T09:11:15.000Z</time>
      </trkpt>
      <trkpt lat="45.46514" lon="4.68004">
        <ele>666.79998779297</ele>
        <time>2020-03-10T09:11:19.000Z</time>
      </trkpt>
      <trkpt lat="45.46515" lon="4.6801">
        <ele>667.20001220703</ele>
        <time>2020-03-10T09:11:21.000Z</time>
      </trkpt>
      <trkpt lat="45.46516" lon="4.68016">
        <ele>667.40002441406</ele>
        <time>2020-03-10T09:11:23.000Z</time>
      </trkpt>
      <trkpt lat="45.46516" lon="4.6802">
        <ele>667.40002441406</ele>
        <time>2020-03-10T09:11:24.000Z</time>
      </trkpt>
      <trkpt lat="45.46516" lon="4.68024">
        <ele>667.59997558594</ele>
        <time>2020-03-10T09:11:25.000Z</time>
      </trkpt>
      <trkpt lat="45.46516" lon="4.68036">
        <ele>668.40002441406</ele>
        <time>2020-03-10T09:11:29.000Z</time>
      </trkpt>
      <trkpt lat="45.46516" lon="4.68041">
        <ele>669</ele>
        <time>2020-03-10T09:11:31.000Z</time>
      </trkpt>
      <trkpt lat="45.46517" lon="4.68046">
        <ele>669.59997558594</ele>
        <time>2020-03-10T09:11:33.000Z</time>
      </trkpt>
      <trkpt lat="45.46517" lon="4.68048">
        <ele>669.79998779297</ele>
        <time>2020-03-10T09:11:34.000Z</time>
      </trkpt>
      <trkpt lat="45.46518" lon="4.68051">
        <ele>670</ele>
        <time>2020-03-10T09:11:36.000Z</time>
      </trkpt>
      <trkpt lat="45.4652" lon="4.68053">
        <ele>670.20001220703</ele>
        <time>2020-03-10T09:11:37.000Z</time>
      </trkpt>
      <trkpt lat="45.46521" lon="4.68056">
        <ele>670.40002441406</ele>
        <time>2020-03-10T09:11:38.000Z</time>
      </trkpt>
      <trkpt lat="45.46523" lon="4.68057">
        <ele>670.79998779297</ele>
        <time>2020-03-10T09:11:39.000Z</time>
      </trkpt>
      <trkpt lat="45.46527" lon="4.6806">
        <ele>671.40002441406</ele>
        <time>2020-03-10T09:11:41.000Z</time>
      </trkpt>
      <trkpt lat="45.4653" lon="4.68063">
        <ele>671.79998779297</ele>
        <time>2020-03-10T09:11:43.000Z</time>
      </trkpt>
      <trkpt lat="45.46531" lon="4.68064">
        <ele>672</ele>
        <time>2020-03-10T09:11:44.000Z</time>
      </trkpt>
      <trkpt lat="45.46532" lon="4.68067">
        <ele>672.20001220703</ele>
        <time>2020-03-10T09:11:45.000Z</time>
      </trkpt>
      <trkpt lat="45.46535" lon="4.68077">
        <ele>672.59997558594</ele>
        <time>2020-03-10T09:11:49.000Z</time>
      </trkpt>
      <trkpt lat="45.46536" lon="4.68079">
        <ele>673</ele>
        <time>2020-03-10T09:11:50.000Z</time>
      </trkpt>
      <trkpt lat="45.46536" lon="4.68082">
        <ele>673.40002441406</ele>
        <time>2020-03-10T09:11:51.000Z</time>
      </trkpt>
      <trkpt lat="45.46539" lon="4.68096">
        <ele>673.79998779297</ele>
        <time>2020-03-10T09:11:56.000Z</time>
      </trkpt>
      <trkpt lat="45.46543" lon="4.68111">
        <ele>674.40002441406</ele>
        <time>2020-03-10T09:12:01.000Z</time>
      </trkpt>
      <trkpt lat="45.46544" lon="4.68114">
        <ele>674.40002441406</ele>
        <time>2020-03-10T09:12:02.000Z</time>
      </trkpt>
      <trkpt lat="45.46546" lon="4.68124">
        <ele>674.59997558594</ele>
        <time>2020-03-10T09:12:06.000Z</time>
      </trkpt>
      <trkpt lat="45.46551" lon="4.68145">
        <ele>674</ele>
        <time>2020-03-10T09:12:11.000Z</time>
      </trkpt>
      <trkpt lat="45.46551" lon="4.68148">
        <ele>673.79998779297</ele>
        <time>2020-03-10T09:12:12.000Z</time>
      </trkpt>
      <trkpt lat="45.46551" lon="4.68165">
        <ele>673.40002441406</ele>
        <time>2020-03-10T09:12:17.000Z</time>
      </trkpt>
      <trkpt lat="45.46552" lon="4.68168">
        <ele>673.20001220703</ele>
        <time>2020-03-10T09:12:18.000Z</time>
      </trkpt>
      <trkpt lat="45.46554" lon="4.68177">
        <ele>672.79998779297</ele>
        <time>2020-03-10T09:12:21.000Z</time>
      </trkpt>
      <trkpt lat="45.46555" lon="4.68183">
        <ele>672.40002441406</ele>
        <time>2020-03-10T09:12:23.000Z</time>
      </trkpt>
      <trkpt lat="45.46556" lon="4.68191">
        <ele>672.40002441406</ele>
        <time>2020-03-10T09:12:26.000Z</time>
      </trkpt>
      <trkpt lat="45.46557" lon="4.68197">
        <ele>672.59997558594</ele>
        <time>2020-03-10T09:12:28.000Z</time>
      </trkpt>
      <trkpt lat="45.46557" lon="4.68207">
        <ele>672.79998779297</ele>
        <time>2020-03-10T09:12:31.000Z</time>
      </trkpt>
      <trkpt lat="45.46558" lon="4.68214">
        <ele>672.79998779297</ele>
        <time>2020-03-10T09:12:33.000Z</time>
      </trkpt>
      <trkpt lat="45.46559" lon="4.68221">
        <ele>672.79998779297</ele>
        <time>2020-03-10T09:12:35.000Z</time>
      </trkpt>
      <trkpt lat="45.46556" lon="4.68239">
        <ele>672.79998779297</ele>
        <time>2020-03-10T09:12:39.000Z</time>
      </trkpt>
      <trkpt lat="45.46556" lon="4.68244">
        <ele>672.40002441406</ele>
        <time>2020-03-10T09:12:41.000Z</time>
      </trkpt>
      <trkpt lat="45.46557" lon="4.68246">
        <ele>672.40002441406</ele>
        <time>2020-03-10T09:12:42.000Z</time>
      </trkpt>
      <trkpt lat="45.46558" lon="4.68252">
        <ele>672.40002441406</ele>
        <time>2020-03-10T09:12:44.000Z</time>
      </trkpt>
      <trkpt lat="45.46558" lon="4.68256">
        <ele>672.20001220703</ele>
        <time>2020-03-10T09:12:45.000Z</time>
      </trkpt>
      <trkpt lat="45.4656" lon="4.6828">
        <ele>672.79998779297</ele>
        <time>2020-03-10T09:12:51.000Z</time>
      </trkpt>
      <trkpt lat="45.46561" lon="4.68296">
        <ele>673.40002441406</ele>
        <time>2020-03-10T09:12:55.000Z</time>
      </trkpt>
      <trkpt lat="45.46561" lon="4.683">
        <ele>673.40002441406</ele>
        <time>2020-03-10T09:12:56.000Z</time>
      </trkpt>
      <trkpt lat="45.46561" lon="4.68304">
        <ele>673.40002441406</ele>
        <time>2020-03-10T09:12:57.000Z</time>
      </trkpt>
      <trkpt lat="45.46561" lon="4.68318">
        <ele>673.20001220703</ele>
        <time>2020-03-10T09:13:01.000Z</time>
      </trkpt>
      <trkpt lat="45.46561" lon="4.68334">
        <ele>672.20001220703</ele>
        <time>2020-03-10T09:13:05.000Z</time>
      </trkpt>
      <trkpt lat="45.46558" lon="4.68357">
        <ele>672</ele>
        <time>2020-03-10T09:13:11.000Z</time>
      </trkpt>
      <trkpt lat="45.46557" lon="4.68377">
        <ele>671.79998779297</ele>
        <time>2020-03-10T09:13:17.000Z</time>
      </trkpt>
      <trkpt lat="45.46558" lon="4.6839">
        <ele>672</ele>
        <time>2020-03-10T09:13:21.000Z</time>
      </trkpt>
      <trkpt lat="45.46561" lon="4.68397">
        <ele>672</ele>
        <time>2020-03-10T09:13:23.000Z</time>
      </trkpt>
      <trkpt lat="45.46562" lon="4.68413">
        <ele>672.20001220703</ele>
        <time>2020-03-10T09:13:28.000Z</time>
      </trkpt>
      <trkpt lat="45.46561" lon="4.68423">
        <ele>672.59997558594</ele>
        <time>2020-03-10T09:13:31.000Z</time>
      </trkpt>
      <trkpt lat="45.4656" lon="4.68437">
        <ele>672.59997558594</ele>
        <time>2020-03-10T09:13:35.000Z</time>
      </trkpt>
      <trkpt lat="45.46559" lon="4.68457">
        <ele>672.79998779297</ele>
        <time>2020-03-10T09:13:41.000Z</time>
      </trkpt>
      <trkpt lat="45.46559" lon="4.68461">
        <ele>672.79998779297</ele>
        <time>2020-03-10T09:13:42.000Z</time>
      </trkpt>
      <trkpt lat="45.46564" lon="4.68481">
        <ele>673</ele>
        <time>2020-03-10T09:13:48.000Z</time>
      </trkpt>
      <trkpt lat="45.46566" lon="4.68491">
        <ele>673.20001220703</ele>
        <time>2020-03-10T09:13:51.000Z</time>
      </trkpt>
      <trkpt lat="45.46567" lon="4.68494">
        <ele>673.40002441406</ele>
        <time>2020-03-10T09:13:52.000Z</time>
      </trkpt>
      <trkpt lat="45.46568" lon="4.685">
        <ele>673.59997558594</ele>
        <time>2020-03-10T09:13:54.000Z</time>
      </trkpt>
      <trkpt lat="45.4657" lon="4.68512">
        <ele>674.40002441406</ele>
        <time>2020-03-10T09:13:58.000Z</time>
      </trkpt>
      <trkpt lat="45.4657" lon="4.68518">
        <ele>674.59997558594</ele>
        <time>2020-03-10T09:14:00.000Z</time>
      </trkpt>
      <trkpt lat="45.46569" lon="4.68521">
        <ele>674.59997558594</ele>
        <time>2020-03-10T09:14:01.000Z</time>
      </trkpt>
      <trkpt lat="45.46569" lon="4.68542">
        <ele>675.40002441406</ele>
        <time>2020-03-10T09:14:08.000Z</time>
      </trkpt>
      <trkpt lat="45.46572" lon="4.6855">
        <ele>676.20001220703</ele>
        <time>2020-03-10T09:14:11.000Z</time>
      </trkpt>
      <trkpt lat="45.46574" lon="4.68555">
        <ele>676.59997558594</ele>
        <time>2020-03-10T09:14:13.000Z</time>
      </trkpt>
      <trkpt lat="45.46574" lon="4.68557">
        <ele>676.79998779297</ele>
        <time>2020-03-10T09:14:14.000Z</time>
      </trkpt>
      <trkpt lat="45.46576" lon="4.6857">
        <ele>677.59997558594</ele>
        <time>2020-03-10T09:14:19.000Z</time>
      </trkpt>
      <trkpt lat="45.46577" lon="4.68577">
        <ele>677.79998779297</ele>
        <time>2020-03-10T09:14:21.000Z</time>
      </trkpt>
      <trkpt lat="45.46577" lon="4.68593">
        <ele>678.40002441406</ele>
        <time>2020-03-10T09:14:26.000Z</time>
      </trkpt>
      <trkpt lat="45.46576" lon="4.68597">
        <ele>678.79998779297</ele>
        <time>2020-03-10T09:14:27.000Z</time>
      </trkpt>
      <trkpt lat="45.46577" lon="4.68608">
        <ele>679.40002441406</ele>
        <time>2020-03-10T09:14:31.000Z</time>
      </trkpt>
      <trkpt lat="45.46577" lon="4.68612">
        <ele>679.79998779297</ele>
        <time>2020-03-10T09:14:32.000Z</time>
      </trkpt>
      <trkpt lat="45.46578" lon="4.6863">
        <ele>680.79998779297</ele>
        <time>2020-03-10T09:14:38.000Z</time>
      </trkpt>
      <trkpt lat="45.46578" lon="4.68633">
        <ele>681</ele>
        <time>2020-03-10T09:14:39.000Z</time>
      </trkpt>
      <trkpt lat="45.46578" lon="4.68639">
        <ele>681</ele>
        <time>2020-03-10T09:14:41.000Z</time>
      </trkpt>
      <trkpt lat="45.46579" lon="4.68645">
        <ele>681.40002441406</ele>
        <time>2020-03-10T09:14:43.000Z</time>
      </trkpt>
      <trkpt lat="45.46582" lon="4.68656">
        <ele>682</ele>
        <time>2020-03-10T09:14:48.000Z</time>
      </trkpt>
      <trkpt lat="45.46583" lon="4.68658">
        <ele>682</ele>
        <time>2020-03-10T09:14:49.000Z</time>
      </trkpt>
      <trkpt lat="45.46585" lon="4.68662">
        <ele>682.20001220703</ele>
        <time>2020-03-10T09:14:51.000Z</time>
      </trkpt>
      <trkpt lat="45.46585" lon="4.68667">
        <ele>682.59997558594</ele>
        <time>2020-03-10T09:14:53.000Z</time>
      </trkpt>
      <trkpt lat="45.46587" lon="4.68672">
        <ele>683</ele>
        <time>2020-03-10T09:14:55.000Z</time>
      </trkpt>
      <trkpt lat="45.46588" lon="4.68685">
        <ele>683.79998779297</ele>
        <time>2020-03-10T09:14:59.000Z</time>
      </trkpt>
      <trkpt lat="45.46589" lon="4.68688">
        <ele>684</ele>
        <time>2020-03-10T09:15:00.000Z</time>
      </trkpt>
      <trkpt lat="45.46589" lon="4.68691">
        <ele>684</ele>
        <time>2020-03-10T09:15:01.000Z</time>
      </trkpt>
      <trkpt lat="45.46591" lon="4.68703">
        <ele>685</ele>
        <time>2020-03-10T09:15:05.000Z</time>
      </trkpt>
      <trkpt lat="45.46592" lon="4.68708">
        <ele>685.59997558594</ele>
        <time>2020-03-10T09:15:07.000Z</time>
      </trkpt>
      <trkpt lat="45.46593" lon="4.68719">
        <ele>686.40002441406</ele>
        <time>2020-03-10T09:15:11.000Z</time>
      </trkpt>
      <trkpt lat="45.46593" lon="4.68722">
        <ele>686.40002441406</ele>
        <time>2020-03-10T09:15:12.000Z</time>
      </trkpt>
      <trkpt lat="45.46594" lon="4.68725">
        <ele>686.59997558594</ele>
        <time>2020-03-10T09:15:13.000Z</time>
      </trkpt>
      <trkpt lat="45.46597" lon="4.6874">
        <ele>687.79998779297</ele>
        <time>2020-03-10T09:15:18.000Z</time>
      </trkpt>
      <trkpt lat="45.46596" lon="4.68743">
        <ele>687.79998779297</ele>
        <time>2020-03-10T09:15:19.000Z</time>
      </trkpt>
      <trkpt lat="45.46597" lon="4.68749">
        <ele>688.20001220703</ele>
        <time>2020-03-10T09:15:21.000Z</time>
      </trkpt>
      <trkpt lat="45.46598" lon="4.68755">
        <ele>688.79998779297</ele>
        <time>2020-03-10T09:15:23.000Z</time>
      </trkpt>
      <trkpt lat="45.46598" lon="4.68757">
        <ele>689.20001220703</ele>
        <time>2020-03-10T09:15:24.000Z</time>
      </trkpt>
      <trkpt lat="45.46599" lon="4.68765">
        <ele>690</ele>
        <time>2020-03-10T09:15:27.000Z</time>
      </trkpt>
      <trkpt lat="45.466" lon="4.68775">
        <ele>690.79998779297</ele>
        <time>2020-03-10T09:15:31.000Z</time>
      </trkpt>
      <trkpt lat="45.466" lon="4.68777">
        <ele>691</ele>
        <time>2020-03-10T09:15:32.000Z</time>
      </trkpt>
      <trkpt lat="45.46601" lon="4.68782">
        <ele>691.59997558594</ele>
        <time>2020-03-10T09:15:34.000Z</time>
      </trkpt>
      <trkpt lat="45.46602" lon="4.68791">
        <ele>692.20001220703</ele>
        <time>2020-03-10T09:15:37.000Z</time>
      </trkpt>
      <trkpt lat="45.46603" lon="4.68796">
        <ele>692.40002441406</ele>
        <time>2020-03-10T09:15:39.000Z</time>
      </trkpt>
      <trkpt lat="45.46603" lon="4.68802">
        <ele>692.59997558594</ele>
        <time>2020-03-10T09:15:41.000Z</time>
      </trkpt>
      <trkpt lat="45.46604" lon="4.68807">
        <ele>693.20001220703</ele>
        <time>2020-03-10T09:15:43.000Z</time>
      </trkpt>
      <trkpt lat="45.46603" lon="4.68815">
        <ele>693.59997558594</ele>
        <time>2020-03-10T09:15:46.000Z</time>
      </trkpt>
      <trkpt lat="45.46603" lon="4.68825">
        <ele>694.20001220703</ele>
        <time>2020-03-10T09:15:49.000Z</time>
      </trkpt>
      <trkpt lat="45.46604" lon="4.6883">
        <ele>694.40002441406</ele>
        <time>2020-03-10T09:15:51.000Z</time>
      </trkpt>
      <trkpt lat="45.46605" lon="4.68833">
        <ele>694.59997558594</ele>
        <time>2020-03-10T09:15:52.000Z</time>
      </trkpt>
      <trkpt lat="45.4661" lon="4.68845">
        <ele>695</ele>
        <time>2020-03-10T09:15:57.000Z</time>
      </trkpt>
      <trkpt lat="45.46611" lon="4.68851">
        <ele>695.40002441406</ele>
        <time>2020-03-10T09:15:59.000Z</time>
      </trkpt>
      <trkpt lat="45.4661" lon="4.68856">
        <ele>695.59997558594</ele>
        <time>2020-03-10T09:16:01.000Z</time>
      </trkpt>
      <trkpt lat="45.46608" lon="4.6886">
        <ele>695.79998779297</ele>
        <time>2020-03-10T09:16:03.000Z</time>
      </trkpt>
      <trkpt lat="45.46607" lon="4.68867">
        <ele>696.40002441406</ele>
        <time>2020-03-10T09:16:06.000Z</time>
      </trkpt>
      <trkpt lat="45.46608" lon="4.68874">
        <ele>697</ele>
        <time>2020-03-10T09:16:09.000Z</time>
      </trkpt>
      <trkpt lat="45.46607" lon="4.6888">
        <ele>697.20001220703</ele>
        <time>2020-03-10T09:16:11.000Z</time>
      </trkpt>
      <trkpt lat="45.46608" lon="4.68888">
        <ele>697.40002441406</ele>
        <time>2020-03-10T09:16:14.000Z</time>
      </trkpt>
      <trkpt lat="45.46609" lon="4.6889">
        <ele>697.59997558594</ele>
        <time>2020-03-10T09:16:15.000Z</time>
      </trkpt>
      <trkpt lat="45.46612" lon="4.68902">
        <ele>698.20001220703</ele>
        <time>2020-03-10T09:16:19.000Z</time>
      </trkpt>
      <trkpt lat="45.46612" lon="4.68906">
        <ele>698.59997558594</ele>
        <time>2020-03-10T09:16:20.000Z</time>
      </trkpt>
      <trkpt lat="45.46612" lon="4.6891">
        <ele>698.79998779297</ele>
        <time>2020-03-10T09:16:21.000Z</time>
      </trkpt>
      <trkpt lat="45.46613" lon="4.68924">
        <ele>699.59997558594</ele>
        <time>2020-03-10T09:16:25.000Z</time>
      </trkpt>
      <trkpt lat="45.46613" lon="4.68927">
        <ele>699.79998779297</ele>
        <time>2020-03-10T09:16:26.000Z</time>
      </trkpt>
      <trkpt lat="45.46615" lon="4.68936">
        <ele>700.40002441406</ele>
        <time>2020-03-10T09:16:30.000Z</time>
      </trkpt>
      <trkpt lat="45.46615" lon="4.68939">
        <ele>700.59997558594</ele>
        <time>2020-03-10T09:16:31.000Z</time>
      </trkpt>
      <trkpt lat="45.46612" lon="4.68945">
        <ele>700.79998779297</ele>
        <time>2020-03-10T09:16:33.000Z</time>
      </trkpt>
      <trkpt lat="45.46609" lon="4.68953">
        <ele>701.40002441406</ele>
        <time>2020-03-10T09:16:36.000Z</time>
      </trkpt>
      <trkpt lat="45.46606" lon="4.6896">
        <ele>702</ele>
        <time>2020-03-10T09:16:39.000Z</time>
      </trkpt>
      <trkpt lat="45.46606" lon="4.68966">
        <ele>702.79998779297</ele>
        <time>2020-03-10T09:16:41.000Z</time>
      </trkpt>
      <trkpt lat="45.46605" lon="4.68968">
        <ele>703.20001220703</ele>
        <time>2020-03-10T09:16:42.000Z</time>
      </trkpt>
      <trkpt lat="45.46605" lon="4.68971">
        <ele>703.40002441406</ele>
        <time>2020-03-10T09:16:43.000Z</time>
      </trkpt>
      <trkpt lat="45.46603" lon="4.68982">
        <ele>704.20001220703</ele>
        <time>2020-03-10T09:16:47.000Z</time>
      </trkpt>
      <trkpt lat="45.46602" lon="4.68992">
        <ele>704.79998779297</ele>
        <time>2020-03-10T09:16:51.000Z</time>
      </trkpt>
      <trkpt lat="45.46603" lon="4.68996">
        <ele>705.40002441406</ele>
        <time>2020-03-10T09:16:53.000Z</time>
      </trkpt>
      <trkpt lat="45.46605" lon="4.69005">
        <ele>706.40002441406</ele>
        <time>2020-03-10T09:16:57.000Z</time>
      </trkpt>
      <trkpt lat="45.46606" lon="4.69007">
        <ele>706.79998779297</ele>
        <time>2020-03-10T09:16:58.000Z</time>
      </trkpt>
      <trkpt lat="45.46607" lon="4.69015">
        <ele>707.40002441406</ele>
        <time>2020-03-10T09:17:01.000Z</time>
      </trkpt>
      <trkpt lat="45.46607" lon="4.69019">
        <ele>708</ele>
        <time>2020-03-10T09:17:03.000Z</time>
      </trkpt>
      <trkpt lat="45.46607" lon="4.69022">
        <ele>708.20001220703</ele>
        <time>2020-03-10T09:17:04.000Z</time>
      </trkpt>
      <trkpt lat="45.4661" lon="4.69037">
        <ele>709</ele>
        <time>2020-03-10T09:17:10.000Z</time>
      </trkpt>
      <trkpt lat="45.4661" lon="4.6904">
        <ele>709.40002441406</ele>
        <time>2020-03-10T09:17:11.000Z</time>
      </trkpt>
      <trkpt lat="45.4661" lon="4.69049">
        <ele>710.20001220703</ele>
        <time>2020-03-10T09:17:14.000Z</time>
      </trkpt>
      <trkpt lat="45.4661" lon="4.69052">
        <ele>710.40002441406</ele>
        <time>2020-03-10T09:17:15.000Z</time>
      </trkpt>
      <trkpt lat="45.46608" lon="4.6907">
        <ele>711.20001220703</ele>
        <time>2020-03-10T09:17:21.000Z</time>
      </trkpt>
      <trkpt lat="45.46613" lon="4.69084">
        <ele>712.20001220703</ele>
        <time>2020-03-10T09:17:27.000Z</time>
      </trkpt>
      <trkpt lat="45.46615" lon="4.69093">
        <ele>712.20001220703</ele>
        <time>2020-03-10T09:17:30.000Z</time>
      </trkpt>
      <trkpt lat="45.46615" lon="4.69096">
        <ele>712.20001220703</ele>
        <time>2020-03-10T09:17:31.000Z</time>
      </trkpt>
      <trkpt lat="45.46614" lon="4.69098">
        <ele>712.40002441406</ele>
        <time>2020-03-10T09:17:32.000Z</time>
      </trkpt>
      <trkpt lat="45.46615" lon="4.69104">
        <ele>712.40002441406</ele>
        <time>2020-03-10T09:17:34.000Z</time>
      </trkpt>
      <trkpt lat="45.46622" lon="4.69117">
        <ele>713.20001220703</ele>
        <time>2020-03-10T09:17:39.000Z</time>
      </trkpt>
      <trkpt lat="45.46626" lon="4.6912">
        <ele>713.40002441406</ele>
        <time>2020-03-10T09:17:40.000Z</time>
      </trkpt>
      <trkpt lat="45.46628" lon="4.69123">
        <ele>713.40002441406</ele>
        <time>2020-03-10T09:17:41.000Z</time>
      </trkpt>
      <trkpt lat="45.46632" lon="4.69136">
        <ele>713.79998779297</ele>
        <time>2020-03-10T09:17:45.000Z</time>
      </trkpt>
      <trkpt lat="45.46635" lon="4.69139">
        <ele>713.79998779297</ele>
        <time>2020-03-10T09:17:46.000Z</time>
      </trkpt>
      <trkpt lat="45.46646" lon="4.69149">
        <ele>712.79998779297</ele>
        <time>2020-03-10T09:17:50.000Z</time>
      </trkpt>
      <trkpt lat="45.46648" lon="4.69151">
        <ele>712.59997558594</ele>
        <time>2020-03-10T09:17:51.000Z</time>
      </trkpt>
      <trkpt lat="45.46651" lon="4.69157">
        <ele>712.40002441406</ele>
        <time>2020-03-10T09:17:53.000Z</time>
      </trkpt>
      <trkpt lat="45.46655" lon="4.69162">
        <ele>712</ele>
        <time>2020-03-10T09:17:55.000Z</time>
      </trkpt>
      <trkpt lat="45.46661" lon="4.69173">
        <ele>711.20001220703</ele>
        <time>2020-03-10T09:17:59.000Z</time>
      </trkpt>
      <trkpt lat="45.46662" lon="4.69179">
        <ele>711</ele>
        <time>2020-03-10T09:18:01.000Z</time>
      </trkpt>
      <trkpt lat="45.46669" lon="4.69193">
        <ele>710</ele>
        <time>2020-03-10T09:18:05.000Z</time>
      </trkpt>
      <trkpt lat="45.4667" lon="4.69196">
        <ele>709.79998779297</ele>
        <time>2020-03-10T09:18:06.000Z</time>
      </trkpt>
      <trkpt lat="45.46677" lon="4.6921">
        <ele>709.20001220703</ele>
        <time>2020-03-10T09:18:11.000Z</time>
      </trkpt>
      <trkpt lat="45.46679" lon="4.69213">
        <ele>709.20001220703</ele>
        <time>2020-03-10T09:18:12.000Z</time>
      </trkpt>
      <trkpt lat="45.46686" lon="4.6922">
        <ele>709.20001220703</ele>
        <time>2020-03-10T09:18:16.000Z</time>
      </trkpt>
      <trkpt lat="45.46689" lon="4.69226">
        <ele>709.40002441406</ele>
        <time>2020-03-10T09:18:19.000Z</time>
      </trkpt>
      <trkpt lat="45.4669" lon="4.69232">
        <ele>709.79998779297</ele>
        <time>2020-03-10T09:18:21.000Z</time>
      </trkpt>
      <trkpt lat="45.46691" lon="4.69238">
        <ele>710.79998779297</ele>
        <time>2020-03-10T09:18:24.000Z</time>
      </trkpt>
      <trkpt lat="45.46693" lon="4.69241">
        <ele>711</ele>
        <time>2020-03-10T09:18:26.000Z</time>
      </trkpt>
      <trkpt lat="45.46693" lon="4.69243">
        <ele>711.20001220703</ele>
        <time>2020-03-10T09:18:27.000Z</time>
      </trkpt>
      <trkpt lat="45.46693" lon="4.69247">
        <ele>712.20001220703</ele>
        <time>2020-03-10T09:18:30.000Z</time>
      </trkpt>
      <trkpt lat="45.46693" lon="4.69249">
        <ele>712.59997558594</ele>
        <time>2020-03-10T09:18:31.000Z</time>
      </trkpt>
      <trkpt lat="45.46695" lon="4.6925">
        <ele>713.40002441406</ele>
        <time>2020-03-10T09:18:33.000Z</time>
      </trkpt>
      <trkpt lat="45.46695" lon="4.6925">
        <ele>713.59997558594</ele>
        <time>2020-03-10T09:18:34.000Z</time>
      </trkpt>
      <trkpt lat="45.46699" lon="4.69252">
        <ele>714</ele>
        <time>2020-03-10T09:18:37.000Z</time>
      </trkpt>
      <trkpt lat="45.46703" lon="4.69255">
        <ele>714.59997558594</ele>
        <time>2020-03-10T09:18:39.000Z</time>
      </trkpt>
      <trkpt lat="45.46706" lon="4.69258">
        <ele>715</ele>
        <time>2020-03-10T09:18:41.000Z</time>
      </trkpt>
      <trkpt lat="45.46707" lon="4.69259">
        <ele>715.20001220703</ele>
        <time>2020-03-10T09:18:42.000Z</time>
      </trkpt>
      <trkpt lat="45.46709" lon="4.69263">
        <ele>715.59997558594</ele>
        <time>2020-03-10T09:18:44.000Z</time>
      </trkpt>
      <trkpt lat="45.46711" lon="4.69265">
        <ele>715.79998779297</ele>
        <time>2020-03-10T09:18:45.000Z</time>
      </trkpt>
      <trkpt lat="45.46714" lon="4.69272">
        <ele>716.40002441406</ele>
        <time>2020-03-10T09:18:48.000Z</time>
      </trkpt>
      <trkpt lat="45.46719" lon="4.69278">
        <ele>717</ele>
        <time>2020-03-10T09:18:50.000Z</time>
      </trkpt>
      <trkpt lat="45.46722" lon="4.6928">
        <ele>717</ele>
        <time>2020-03-10T09:18:51.000Z</time>
      </trkpt>
      <trkpt lat="45.46727" lon="4.69284">
        <ele>717.40002441406</ele>
        <time>2020-03-10T09:18:53.000Z</time>
      </trkpt>
      <trkpt lat="45.46731" lon="4.69287">
        <ele>717.59997558594</ele>
        <time>2020-03-10T09:18:54.000Z</time>
      </trkpt>
      <trkpt lat="45.46737" lon="4.69294">
        <ele>718</ele>
        <time>2020-03-10T09:18:57.000Z</time>
      </trkpt>
      <trkpt lat="45.46737" lon="4.69296">
        <ele>718.20001220703</ele>
        <time>2020-03-10T09:18:58.000Z</time>
      </trkpt>
      <trkpt lat="45.46738" lon="4.69299">
        <ele>718.20001220703</ele>
        <time>2020-03-10T09:18:59.000Z</time>
      </trkpt>
      <trkpt lat="45.4674" lon="4.693">
        <ele>718.40002441406</ele>
        <time>2020-03-10T09:19:01.000Z</time>
      </trkpt>
      <trkpt lat="45.46741" lon="4.69304">
        <ele>718.59997558594</ele>
        <time>2020-03-10T09:19:03.000Z</time>
      </trkpt>
      <trkpt lat="45.46745" lon="4.69314">
        <ele>719</ele>
        <time>2020-03-10T09:19:07.000Z</time>
      </trkpt>
      <trkpt lat="45.46745" lon="4.69317">
        <ele>719</ele>
        <time>2020-03-10T09:19:08.000Z</time>
      </trkpt>
      <trkpt lat="45.46745" lon="4.69319">
        <ele>719.20001220703</ele>
        <time>2020-03-10T09:19:09.000Z</time>
      </trkpt>
      <trkpt lat="45.46746" lon="4.69322">
        <ele>719.40002441406</ele>
        <time>2020-03-10T09:19:11.000Z</time>
      </trkpt>
      <trkpt lat="45.46749" lon="4.69325">
        <ele>720.20001220703</ele>
        <time>2020-03-10T09:19:14.000Z</time>
      </trkpt>
      <trkpt lat="45.46751" lon="4.69327">
        <ele>720.40002441406</ele>
        <time>2020-03-10T09:19:15.000Z</time>
      </trkpt>
      <trkpt lat="45.46759" lon="4.69339">
        <ele>721.40002441406</ele>
        <time>2020-03-10T09:19:20.000Z</time>
      </trkpt>
      <trkpt lat="45.4676" lon="4.69341">
        <ele>721.40002441406</ele>
        <time>2020-03-10T09:19:21.000Z</time>
      </trkpt>
      <trkpt lat="45.46778" lon="4.69354">
        <ele>721.79998779297</ele>
        <time>2020-03-10T09:19:27.000Z</time>
      </trkpt>
      <trkpt lat="45.4678" lon="4.69356">
        <ele>722</ele>
        <time>2020-03-10T09:19:28.000Z</time>
      </trkpt>
      <trkpt lat="45.46782" lon="4.69358">
        <ele>722.40002441406</ele>
        <time>2020-03-10T09:19:29.000Z</time>
      </trkpt>
      <trkpt lat="45.46786" lon="4.69362">
        <ele>722.40002441406</ele>
        <time>2020-03-10T09:19:31.000Z</time>
      </trkpt>
      <trkpt lat="45.46789" lon="4.69366">
        <ele>722.40002441406</ele>
        <time>2020-03-10T09:19:34.000Z</time>
      </trkpt>
      <trkpt lat="45.4679" lon="4.69367">
        <ele>722.40002441406</ele>
        <time>2020-03-10T09:19:36.000Z</time>
      </trkpt>
      <trkpt lat="45.4679" lon="4.69371">
        <ele>722.79998779297</ele>
        <time>2020-03-10T09:19:38.000Z</time>
      </trkpt>
      <trkpt lat="45.46792" lon="4.69374">
        <ele>722.79998779297</ele>
        <time>2020-03-10T09:19:40.000Z</time>
      </trkpt>
      <trkpt lat="45.46793" lon="4.69375">
        <ele>722.79998779297</ele>
        <time>2020-03-10T09:19:41.000Z</time>
      </trkpt>
      <trkpt lat="45.46799" lon="4.69385">
        <ele>723.20001220703</ele>
        <time>2020-03-10T09:19:45.000Z</time>
      </trkpt>
      <trkpt lat="45.46805" lon="4.6939">
        <ele>723.40002441406</ele>
        <time>2020-03-10T09:19:50.000Z</time>
      </trkpt>
      <trkpt lat="45.46805" lon="4.69391">
        <ele>723.59997558594</ele>
        <time>2020-03-10T09:19:51.000Z</time>
      </trkpt>
      <trkpt lat="45.46808" lon="4.69394">
        <ele>723.79998779297</ele>
        <time>2020-03-10T09:19:52.000Z</time>
      </trkpt>
      <trkpt lat="45.46812" lon="4.69398">
        <ele>724</ele>
        <time>2020-03-10T09:19:53.000Z</time>
      </trkpt>
      <trkpt lat="45.4682" lon="4.69407">
        <ele>724.20001220703</ele>
        <time>2020-03-10T09:19:56.000Z</time>
      </trkpt>
      <trkpt lat="45.46824" lon="4.69412">
        <ele>724.20001220703</ele>
        <time>2020-03-10T09:19:58.000Z</time>
      </trkpt>
      <trkpt lat="45.46826" lon="4.69416">
        <ele>724.40002441406</ele>
        <time>2020-03-10T09:20:00.000Z</time>
      </trkpt>
      <trkpt lat="45.46826" lon="4.69418">
        <ele>724.59997558594</ele>
        <time>2020-03-10T09:20:01.000Z</time>
      </trkpt>
      <trkpt lat="45.46827" lon="4.69423">
        <ele>725</ele>
        <time>2020-03-10T09:20:03.000Z</time>
      </trkpt>
      <trkpt lat="45.46829" lon="4.69435">
        <ele>725.59997558594</ele>
        <time>2020-03-10T09:20:08.000Z</time>
      </trkpt>
      <trkpt lat="45.4683" lon="4.69437">
        <ele>725.79998779297</ele>
        <time>2020-03-10T09:20:09.000Z</time>
      </trkpt>
      <trkpt lat="45.46832" lon="4.69442">
        <ele>726.40002441406</ele>
        <time>2020-03-10T09:20:11.000Z</time>
      </trkpt>
      <trkpt lat="45.46838" lon="4.69449">
        <ele>726.79998779297</ele>
        <time>2020-03-10T09:20:14.000Z</time>
      </trkpt>
      <trkpt lat="45.46839" lon="4.69452">
        <ele>726.79998779297</ele>
        <time>2020-03-10T09:20:15.000Z</time>
      </trkpt>
      <trkpt lat="45.46839" lon="4.69454">
        <ele>727</ele>
        <time>2020-03-10T09:20:16.000Z</time>
      </trkpt>
      <trkpt lat="45.46843" lon="4.69458">
        <ele>727.20001220703</ele>
        <time>2020-03-10T09:20:18.000Z</time>
      </trkpt>
      <trkpt lat="45.46848" lon="4.6946">
        <ele>727.40002441406</ele>
        <time>2020-03-10T09:20:19.000Z</time>
      </trkpt>
      <trkpt lat="45.46854" lon="4.69462">
        <ele>727.79998779297</ele>
        <time>2020-03-10T09:20:21.000Z</time>
      </trkpt>
      <trkpt lat="45.46855" lon="4.69466">
        <ele>728</ele>
        <time>2020-03-10T09:20:22.000Z</time>
      </trkpt>
      <trkpt lat="45.46858" lon="4.69471">
        <ele>728.20001220703</ele>
        <time>2020-03-10T09:20:24.000Z</time>
      </trkpt>
      <trkpt lat="45.46864" lon="4.6948">
        <ele>729</ele>
        <time>2020-03-10T09:20:28.000Z</time>
      </trkpt>
      <trkpt lat="45.46867" lon="4.69482">
        <ele>729</ele>
        <time>2020-03-10T09:20:29.000Z</time>
      </trkpt>
      <trkpt lat="45.46869" lon="4.69486">
        <ele>729.40002441406</ele>
        <time>2020-03-10T09:20:31.000Z</time>
      </trkpt>
      <trkpt lat="45.46868" lon="4.69487">
        <ele>729.59997558594</ele>
        <time>2020-03-10T09:20:32.000Z</time>
      </trkpt>
      <trkpt lat="45.46871" lon="4.69491">
        <ele>729.79998779297</ele>
        <time>2020-03-10T09:20:34.000Z</time>
      </trkpt>
      <trkpt lat="45.46872" lon="4.69493">
        <ele>730</ele>
        <time>2020-03-10T09:20:35.000Z</time>
      </trkpt>
      <trkpt lat="45.46876" lon="4.69506">
        <ele>731</ele>
        <time>2020-03-10T09:20:40.000Z</time>
      </trkpt>
      <trkpt lat="45.46877" lon="4.69508">
        <ele>731</ele>
        <time>2020-03-10T09:20:41.000Z</time>
      </trkpt>
      <trkpt lat="45.4688" lon="4.69515">
        <ele>731</ele>
        <time>2020-03-10T09:20:44.000Z</time>
      </trkpt>
      <trkpt lat="45.46887" lon="4.69526">
        <ele>731.59997558594</ele>
        <time>2020-03-10T09:20:49.000Z</time>
      </trkpt>
      <trkpt lat="45.46891" lon="4.6953">
        <ele>731.79998779297</ele>
        <time>2020-03-10T09:20:51.000Z</time>
      </trkpt>
      <trkpt lat="45.46895" lon="4.69537">
        <ele>731.79998779297</ele>
        <time>2020-03-10T09:20:54.000Z</time>
      </trkpt>
      <trkpt lat="45.46899" lon="4.69546">
        <ele>732.20001220703</ele>
        <time>2020-03-10T09:20:57.000Z</time>
      </trkpt>
      <trkpt lat="45.46901" lon="4.69551">
        <ele>732.59997558594</ele>
        <time>2020-03-10T09:20:59.000Z</time>
      </trkpt>
      <trkpt lat="45.46904" lon="4.69555">
        <ele>732.79998779297</ele>
        <time>2020-03-10T09:21:01.000Z</time>
      </trkpt>
      <trkpt lat="45.46908" lon="4.69568">
        <ele>733.20001220703</ele>
        <time>2020-03-10T09:21:05.000Z</time>
      </trkpt>
      <trkpt lat="45.46909" lon="4.69573">
        <ele>733.40002441406</ele>
        <time>2020-03-10T09:21:06.000Z</time>
      </trkpt>
      <trkpt lat="45.46914" lon="4.69591">
        <ele>734.20001220703</ele>
        <time>2020-03-10T09:21:11.000Z</time>
      </trkpt>
      <trkpt lat="45.46914" lon="4.69595">
        <ele>734.59997558594</ele>
        <time>2020-03-10T09:21:12.000Z</time>
      </trkpt>
      <trkpt lat="45.4692" lon="4.6961">
        <ele>735.20001220703</ele>
        <time>2020-03-10T09:21:19.000Z</time>
      </trkpt>
      <trkpt lat="45.46921" lon="4.69612">
        <ele>735.59997558594</ele>
        <time>2020-03-10T09:21:20.000Z</time>
      </trkpt>
      <trkpt lat="45.46921" lon="4.69614">
        <ele>735.79998779297</ele>
        <time>2020-03-10T09:21:21.000Z</time>
      </trkpt>
      <trkpt lat="45.46922" lon="4.69616">
        <ele>736.20001220703</ele>
        <time>2020-03-10T09:21:22.000Z</time>
      </trkpt>
      <trkpt lat="45.46928" lon="4.69626">
        <ele>737</ele>
        <time>2020-03-10T09:21:26.000Z</time>
      </trkpt>
      <trkpt lat="45.4693" lon="4.6963">
        <ele>737.40002441406</ele>
        <time>2020-03-10T09:21:28.000Z</time>
      </trkpt>
      <trkpt lat="45.46936" lon="4.69633">
        <ele>737.79998779297</ele>
        <time>2020-03-10T09:21:31.000Z</time>
      </trkpt>
      <trkpt lat="45.46938" lon="4.69634">
        <ele>737.79998779297</ele>
        <time>2020-03-10T09:21:32.000Z</time>
      </trkpt>
      <trkpt lat="45.46939" lon="4.69635">
        <ele>738.20001220703</ele>
        <time>2020-03-10T09:21:33.000Z</time>
      </trkpt>
      <trkpt lat="45.46945" lon="4.6964">
        <ele>739.40002441406</ele>
        <time>2020-03-10T09:21:37.000Z</time>
      </trkpt>
      <trkpt lat="45.46949" lon="4.69644">
        <ele>740</ele>
        <time>2020-03-10T09:21:40.000Z</time>
      </trkpt>
      <trkpt lat="45.46951" lon="4.69645">
        <ele>740</ele>
        <time>2020-03-10T09:21:41.000Z</time>
      </trkpt>
      <trkpt lat="45.46954" lon="4.69647">
        <ele>740.59997558594</ele>
        <time>2020-03-10T09:21:43.000Z</time>
      </trkpt>
      <trkpt lat="45.46957" lon="4.69651">
        <ele>741.40002441406</ele>
        <time>2020-03-10T09:21:46.000Z</time>
      </trkpt>
      <trkpt lat="45.46961" lon="4.69654">
        <ele>741.79998779297</ele>
        <time>2020-03-10T09:21:49.000Z</time>
      </trkpt>
      <trkpt lat="45.46964" lon="4.69656">
        <ele>742.40002441406</ele>
        <time>2020-03-10T09:21:51.000Z</time>
      </trkpt>
      <trkpt lat="45.46965" lon="4.69656">
        <ele>742.59997558594</ele>
        <time>2020-03-10T09:21:52.000Z</time>
      </trkpt>
      <trkpt lat="45.46967" lon="4.69656">
        <ele>742.79998779297</ele>
        <time>2020-03-10T09:21:53.000Z</time>
      </trkpt>
      <trkpt lat="45.46969" lon="4.69656">
        <ele>743.40002441406</ele>
        <time>2020-03-10T09:21:55.000Z</time>
      </trkpt>
      <trkpt lat="45.46975" lon="4.69652">
        <ele>743.79998779297</ele>
        <time>2020-03-10T09:21:58.000Z</time>
      </trkpt>
      <trkpt lat="45.46978" lon="4.6965">
        <ele>744</ele>
        <time>2020-03-10T09:22:00.000Z</time>
      </trkpt>
      <trkpt lat="45.46979" lon="4.69649">
        <ele>744.40002441406</ele>
        <time>2020-03-10T09:22:01.000Z</time>
      </trkpt>
      <trkpt lat="45.46978" lon="4.69647">
        <ele>745.20001220703</ele>
        <time>2020-03-10T09:22:03.000Z</time>
      </trkpt>
      <trkpt lat="45.46974" lon="4.69641">
        <ele>746.20001220703</ele>
        <time>2020-03-10T09:22:07.000Z</time>
      </trkpt>
      <trkpt lat="45.46974" lon="4.69639">
        <ele>746.40002441406</ele>
        <time>2020-03-10T09:22:09.000Z</time>
      </trkpt>
      <trkpt lat="45.46974" lon="4.69636">
        <ele>747</ele>
        <time>2020-03-10T09:22:11.000Z</time>
      </trkpt>
      <trkpt lat="45.46975" lon="4.69634">
        <ele>747.20001220703</ele>
        <time>2020-03-10T09:22:12.000Z</time>
      </trkpt>
      <trkpt lat="45.46978" lon="4.69629">
        <ele>747.79998779297</ele>
        <time>2020-03-10T09:22:14.000Z</time>
      </trkpt>
      <trkpt lat="45.46979" lon="4.69626">
        <ele>748.20001220703</ele>
        <time>2020-03-10T09:22:15.000Z</time>
      </trkpt>
      <trkpt lat="45.46978" lon="4.69624">
        <ele>748.40002441406</ele>
        <time>2020-03-10T09:22:16.000Z</time>
      </trkpt>
      <trkpt lat="45.46977" lon="4.69618">
        <ele>749</ele>
        <time>2020-03-10T09:22:19.000Z</time>
      </trkpt>
      <trkpt lat="45.46976" lon="4.69616">
        <ele>749.40002441406</ele>
        <time>2020-03-10T09:22:20.000Z</time>
      </trkpt>
      <trkpt lat="45.46975" lon="4.69614">
        <ele>749.59997558594</ele>
        <time>2020-03-10T09:22:21.000Z</time>
      </trkpt>
      <trkpt lat="45.46974" lon="4.69605">
        <ele>750.40002441406</ele>
        <time>2020-03-10T09:22:25.000Z</time>
      </trkpt>
      <trkpt lat="45.46974" lon="4.69603">
        <ele>750.59997558594</ele>
        <time>2020-03-10T09:22:26.000Z</time>
      </trkpt>
      <trkpt lat="45.46971" lon="4.69598">
        <ele>751</ele>
        <time>2020-03-10T09:22:28.000Z</time>
      </trkpt>
      <trkpt lat="45.46969" lon="4.69592">
        <ele>751.20001220703</ele>
        <time>2020-03-10T09:22:31.000Z</time>
      </trkpt>
      <trkpt lat="45.46967" lon="4.69587">
        <ele>751.59997558594</ele>
        <time>2020-03-10T09:22:33.000Z</time>
      </trkpt>
      <trkpt lat="45.46967" lon="4.69585">
        <ele>751.79998779297</ele>
        <time>2020-03-10T09:22:34.000Z</time>
      </trkpt>
      <trkpt lat="45.46968" lon="4.69575">
        <ele>752.79998779297</ele>
        <time>2020-03-10T09:22:38.000Z</time>
      </trkpt>
      <trkpt lat="45.4697" lon="4.69569">
        <ele>753.40002441406</ele>
        <time>2020-03-10T09:22:41.000Z</time>
      </trkpt>
      <trkpt lat="45.4697" lon="4.69566">
        <ele>754</ele>
        <time>2020-03-10T09:22:43.000Z</time>
      </trkpt>
      <trkpt lat="45.4697" lon="4.69564">
        <ele>754.20001220703</ele>
        <time>2020-03-10T09:22:44.000Z</time>
      </trkpt>
      <trkpt lat="45.4697" lon="4.69561">
        <ele>754.59997558594</ele>
        <time>2020-03-10T09:22:46.000Z</time>
      </trkpt>
      <trkpt lat="45.46973" lon="4.69558">
        <ele>755.40002441406</ele>
        <time>2020-03-10T09:22:48.000Z</time>
      </trkpt>
      <trkpt lat="45.46975" lon="4.69551">
        <ele>756.40002441406</ele>
        <time>2020-03-10T09:22:51.000Z</time>
      </trkpt>
      <trkpt lat="45.46975" lon="4.69549">
        <ele>756.59997558594</ele>
        <time>2020-03-10T09:22:52.000Z</time>
      </trkpt>
      <trkpt lat="45.46974" lon="4.69539">
        <ele>757.59997558594</ele>
        <time>2020-03-10T09:22:56.000Z</time>
      </trkpt>
      <trkpt lat="45.46976" lon="4.69534">
        <ele>758.20001220703</ele>
        <time>2020-03-10T09:22:59.000Z</time>
      </trkpt>
      <trkpt lat="45.46976" lon="4.6953">
        <ele>758.59997558594</ele>
        <time>2020-03-10T09:23:01.000Z</time>
      </trkpt>
      <trkpt lat="45.46976" lon="4.69528">
        <ele>758.79998779297</ele>
        <time>2020-03-10T09:23:03.000Z</time>
      </trkpt>
      <trkpt lat="45.46976" lon="4.69525">
        <ele>759</ele>
        <time>2020-03-10T09:23:04.000Z</time>
      </trkpt>
      <trkpt lat="45.46975" lon="4.69523">
        <ele>759.40002441406</ele>
        <time>2020-03-10T09:23:05.000Z</time>
      </trkpt>
      <trkpt lat="45.46975" lon="4.69521">
        <ele>759.79998779297</ele>
        <time>2020-03-10T09:23:06.000Z</time>
      </trkpt>
      <trkpt lat="45.46976" lon="4.69514">
        <ele>760.40002441406</ele>
        <time>2020-03-10T09:23:08.000Z</time>
      </trkpt>
      <trkpt lat="45.46977" lon="4.69508">
        <ele>761</ele>
        <time>2020-03-10T09:23:10.000Z</time>
      </trkpt>
      <trkpt lat="45.46977" lon="4.69506">
        <ele>761.20001220703</ele>
        <time>2020-03-10T09:23:11.000Z</time>
      </trkpt>
      <trkpt lat="45.46977" lon="4.695">
        <ele>762.20001220703</ele>
        <time>2020-03-10T09:23:14.000Z</time>
      </trkpt>
      <trkpt lat="45.46975" lon="4.69496">
        <ele>762.79998779297</ele>
        <time>2020-03-10T09:23:16.000Z</time>
      </trkpt>
      <trkpt lat="45.46975" lon="4.69495">
        <ele>763</ele>
        <time>2020-03-10T09:23:17.000Z</time>
      </trkpt>
      <trkpt lat="45.46974" lon="4.69493">
        <ele>763.20001220703</ele>
        <time>2020-03-10T09:23:18.000Z</time>
      </trkpt>
      <trkpt lat="45.46973" lon="4.69491">
        <ele>763.59997558594</ele>
        <time>2020-03-10T09:23:19.000Z</time>
      </trkpt>
      <trkpt lat="45.46972" lon="4.69488">
        <ele>764</ele>
        <time>2020-03-10T09:23:21.000Z</time>
      </trkpt>
      <trkpt lat="45.46973" lon="4.69485">
        <ele>764.40002441406</ele>
        <time>2020-03-10T09:23:23.000Z</time>
      </trkpt>
      <trkpt lat="45.46974" lon="4.6948">
        <ele>765.20001220703</ele>
        <time>2020-03-10T09:23:26.000Z</time>
      </trkpt>
      <trkpt lat="45.46975" lon="4.69479">
        <ele>765.59997558594</ele>
        <time>2020-03-10T09:23:27.000Z</time>
      </trkpt>
      <trkpt lat="45.46977" lon="4.69474">
        <ele>765.79998779297</ele>
        <time>2020-03-10T09:23:30.000Z</time>
      </trkpt>
      <trkpt lat="45.46978" lon="4.69472">
        <ele>765.79998779297</ele>
        <time>2020-03-10T09:23:31.000Z</time>
      </trkpt>
      <trkpt lat="45.4698" lon="4.69466">
        <ele>766.40002441406</ele>
        <time>2020-03-10T09:23:34.000Z</time>
      </trkpt>
      <trkpt lat="45.4698" lon="4.69464">
        <ele>766.79998779297</ele>
        <time>2020-03-10T09:23:35.000Z</time>
      </trkpt>
      <trkpt lat="45.4698" lon="4.69462">
        <ele>767</ele>
        <time>2020-03-10T09:23:36.000Z</time>
      </trkpt>
      <trkpt lat="45.46981" lon="4.6946">
        <ele>767</ele>
        <time>2020-03-10T09:23:37.000Z</time>
      </trkpt>
      <trkpt lat="45.46983" lon="4.69455">
        <ele>767.20001220703</ele>
        <time>2020-03-10T09:23:39.000Z</time>
      </trkpt>
      <trkpt lat="45.46985" lon="4.6945">
        <ele>767.40002441406</ele>
        <time>2020-03-10T09:23:41.000Z</time>
      </trkpt>
      <trkpt lat="45.46983" lon="4.6944">
        <ele>767.59997558594</ele>
        <time>2020-03-10T09:23:43.000Z</time>
      </trkpt>
      <trkpt lat="45.46981" lon="4.69435">
        <ele>767.79998779297</ele>
        <time>2020-03-10T09:23:44.000Z</time>
      </trkpt>
      <trkpt lat="45.46981" lon="4.6943">
        <ele>767.79998779297</ele>
        <time>2020-03-10T09:23:46.000Z</time>
      </trkpt>
      <trkpt lat="45.46979" lon="4.69428">
        <ele>768</ele>
        <time>2020-03-10T09:23:47.000Z</time>
      </trkpt>
      <trkpt lat="45.46975" lon="4.69424">
        <ele>768.20001220703</ele>
        <time>2020-03-10T09:23:48.000Z</time>
      </trkpt>
      <trkpt lat="45.46975" lon="4.69424">
        <ele>768.40002441406</ele>
        <time>2020-03-10T09:23:49.000Z</time>
      </trkpt>
      <trkpt lat="45.46976" lon="4.69427">
        <ele>768.79998779297</ele>
        <time>2020-03-10T09:23:51.000Z</time>
      </trkpt>
      <trkpt lat="45.46978" lon="4.69429">
        <ele>769</ele>
        <time>2020-03-10T09:23:52.000Z</time>
      </trkpt>
      <trkpt lat="45.4698" lon="4.6943">
        <ele>769.20001220703</ele>
        <time>2020-03-10T09:23:53.000Z</time>
      </trkpt>
      <trkpt lat="45.46987" lon="4.69433">
        <ele>769.59997558594</ele>
        <time>2020-03-10T09:23:56.000Z</time>
      </trkpt>
      <trkpt lat="45.46991" lon="4.69436">
        <ele>770.20001220703</ele>
        <time>2020-03-10T09:23:58.000Z</time>
      </trkpt>
      <trkpt lat="45.46992" lon="4.69438">
        <ele>770.40002441406</ele>
        <time>2020-03-10T09:23:59.000Z</time>
      </trkpt>
      <trkpt lat="45.46994" lon="4.6944">
        <ele>770.59997558594</ele>
        <time>2020-03-10T09:24:00.000Z</time>
      </trkpt>
      <trkpt lat="45.46997" lon="4.69441">
        <ele>770.59997558594</ele>
        <time>2020-03-10T09:24:01.000Z</time>
      </trkpt>
      <trkpt lat="45.47001" lon="4.69446">
        <ele>771.40002441406</ele>
        <time>2020-03-10T09:24:04.000Z</time>
      </trkpt>
      <trkpt lat="45.47006" lon="4.69453">
        <ele>771.79998779297</ele>
        <time>2020-03-10T09:24:07.000Z</time>
      </trkpt>
      <trkpt lat="45.47009" lon="4.6946">
        <ele>772.79998779297</ele>
        <time>2020-03-10T09:24:10.000Z</time>
      </trkpt>
      <trkpt lat="45.4701" lon="4.69462">
        <ele>773</ele>
        <time>2020-03-10T09:24:11.000Z</time>
      </trkpt>
      <trkpt lat="45.47013" lon="4.69473">
        <ele>773.79998779297</ele>
        <time>2020-03-10T09:24:15.000Z</time>
      </trkpt>
      <trkpt lat="45.47014" lon="4.69475">
        <ele>773.79998779297</ele>
        <time>2020-03-10T09:24:16.000Z</time>
      </trkpt>
      <trkpt lat="45.47015" lon="4.69476">
        <ele>773.79998779297</ele>
        <time>2020-03-10T09:24:17.000Z</time>
      </trkpt>
      <trkpt lat="45.47014" lon="4.69475">
        <ele>774.20001220703</ele>
        <time>2020-03-10T09:24:19.000Z</time>
      </trkpt>
      <trkpt lat="45.47012" lon="4.69473">
        <ele>774.40002441406</ele>
        <time>2020-03-10T09:24:20.000Z</time>
      </trkpt>
      <trkpt lat="45.47012" lon="4.69471">
        <ele>774.59997558594</ele>
        <time>2020-03-10T09:24:21.000Z</time>
      </trkpt>
      <trkpt lat="45.47011" lon="4.69464">
        <ele>774.40002441406</ele>
        <time>2020-03-10T09:24:23.000Z</time>
      </trkpt>
      <trkpt lat="45.4701" lon="4.69463">
        <ele>774.20001220703</ele>
        <time>2020-03-10T09:24:24.000Z</time>
      </trkpt>
      <trkpt lat="45.47002" lon="4.69449">
        <ele>773.20001220703</ele>
        <time>2020-03-10T09:24:30.000Z</time>
      </trkpt>
      <trkpt lat="45.47001" lon="4.69447">
        <ele>773</ele>
        <time>2020-03-10T09:24:31.000Z</time>
      </trkpt>
      <trkpt lat="45.47001" lon="4.69445">
        <ele>772.79998779297</ele>
        <time>2020-03-10T09:24:32.000Z</time>
      </trkpt>
      <trkpt lat="45.46999" lon="4.69439">
        <ele>771.40002441406</ele>
        <time>2020-03-10T09:24:35.000Z</time>
      </trkpt>
      <trkpt lat="45.46999" lon="4.69438">
        <ele>771</ele>
        <time>2020-03-10T09:24:36.000Z</time>
      </trkpt>
      <trkpt lat="45.46999" lon="4.69435">
        <ele>770.40002441406</ele>
        <time>2020-03-10T09:24:39.000Z</time>
      </trkpt>
      <trkpt lat="45.46998" lon="4.69431">
        <ele>769.59997558594</ele>
        <time>2020-03-10T09:24:41.000Z</time>
      </trkpt>
      <trkpt lat="45.46991" lon="4.69422">
        <ele>769.20001220703</ele>
        <time>2020-03-10T09:24:44.000Z</time>
      </trkpt>
      <trkpt lat="45.46986" lon="4.69418">
        <ele>768.20001220703</ele>
        <time>2020-03-10T09:24:47.000Z</time>
      </trkpt>
      <trkpt lat="45.46984" lon="4.69415">
        <ele>768</ele>
        <time>2020-03-10T09:24:48.000Z</time>
      </trkpt>
      <trkpt lat="45.46983" lon="4.69413">
        <ele>767.59997558594</ele>
        <time>2020-03-10T09:24:49.000Z</time>
      </trkpt>
      <trkpt lat="45.46978" lon="4.69402">
        <ele>767.40002441406</ele>
        <time>2020-03-10T09:24:51.000Z</time>
      </trkpt>
      <trkpt lat="45.46977" lon="4.69397">
        <ele>767.40002441406</ele>
        <time>2020-03-10T09:24:52.000Z</time>
      </trkpt>
      <trkpt lat="45.46971" lon="4.69377">
        <ele>767.20001220703</ele>
        <time>2020-03-10T09:24:58.000Z</time>
      </trkpt>
      <trkpt lat="45.46968" lon="4.69369">
        <ele>767</ele>
        <time>2020-03-10T09:25:01.000Z</time>
      </trkpt>
      <trkpt lat="45.46966" lon="4.69363">
        <ele>767</ele>
        <time>2020-03-10T09:25:03.000Z</time>
      </trkpt>
      <trkpt lat="45.46957" lon="4.69348">
        <ele>767.20001220703</ele>
        <time>2020-03-10T09:25:08.000Z</time>
      </trkpt>
      <trkpt lat="45.46951" lon="4.69343">
        <ele>767.20001220703</ele>
        <time>2020-03-10T09:25:11.000Z</time>
      </trkpt>
      <trkpt lat="45.4695" lon="4.69339">
        <ele>767.40002441406</ele>
        <time>2020-03-10T09:25:13.000Z</time>
      </trkpt>
      <trkpt lat="45.46946" lon="4.69333">
        <ele>768.20001220703</ele>
        <time>2020-03-10T09:25:17.000Z</time>
      </trkpt>
      <trkpt lat="45.46944" lon="4.6933">
        <ele>768.40002441406</ele>
        <time>2020-03-10T09:25:18.000Z</time>
      </trkpt>
      <trkpt lat="45.46938" lon="4.69322">
        <ele>768.40002441406</ele>
        <time>2020-03-10T09:25:21.000Z</time>
      </trkpt>
      <trkpt lat="45.46933" lon="4.69314">
        <ele>768</ele>
        <time>2020-03-10T09:25:24.000Z</time>
      </trkpt>
      <trkpt lat="45.4692" lon="4.69296">
        <ele>767.20001220703</ele>
        <time>2020-03-10T09:25:30.000Z</time>
      </trkpt>
      <trkpt lat="45.46918" lon="4.69292">
        <ele>767.20001220703</ele>
        <time>2020-03-10T09:25:31.000Z</time>
      </trkpt>
      <trkpt lat="45.46903" lon="4.69275">
        <ele>767.20001220703</ele>
        <time>2020-03-10T09:25:37.000Z</time>
      </trkpt>
      <trkpt lat="45.46897" lon="4.69265">
        <ele>767.40002441406</ele>
        <time>2020-03-10T09:25:41.000Z</time>
      </trkpt>
      <trkpt lat="45.46894" lon="4.69261">
        <ele>767.59997558594</ele>
        <time>2020-03-10T09:25:43.000Z</time>
      </trkpt>
      <trkpt lat="45.46882" lon="4.6925">
        <ele>766.79998779297</ele>
        <time>2020-03-10T09:25:49.000Z</time>
      </trkpt>
      <trkpt lat="45.46879" lon="4.69245">
        <ele>766.40002441406</ele>
        <time>2020-03-10T09:25:51.000Z</time>
      </trkpt>
      <trkpt lat="45.46875" lon="4.69236">
        <ele>766.20001220703</ele>
        <time>2020-03-10T09:25:54.000Z</time>
      </trkpt>
      <trkpt lat="45.46873" lon="4.6923">
        <ele>765.79998779297</ele>
        <time>2020-03-10T09:25:56.000Z</time>
      </trkpt>
      <trkpt lat="45.46871" lon="4.69219">
        <ele>765</ele>
        <time>2020-03-10T09:25:59.000Z</time>
      </trkpt>
      <trkpt lat="45.46869" lon="4.69211">
        <ele>764.59997558594</ele>
        <time>2020-03-10T09:26:01.000Z</time>
      </trkpt>
      <trkpt lat="45.46866" lon="4.69197">
        <ele>763.79998779297</ele>
        <time>2020-03-10T09:26:06.000Z</time>
      </trkpt>
      <trkpt lat="45.46865" lon="4.69194">
        <ele>763.40002441406</ele>
        <time>2020-03-10T09:26:07.000Z</time>
      </trkpt>
      <trkpt lat="45.46864" lon="4.69185">
        <ele>762.40002441406</ele>
        <time>2020-03-10T09:26:10.000Z</time>
      </trkpt>
      <trkpt lat="45.46863" lon="4.69182">
        <ele>761.59997558594</ele>
        <time>2020-03-10T09:26:11.000Z</time>
      </trkpt>
      <trkpt lat="45.46862" lon="4.69179">
        <ele>760.79998779297</ele>
        <time>2020-03-10T09:26:12.000Z</time>
      </trkpt>
      <trkpt lat="45.46862" lon="4.69176">
        <ele>760.59997558594</ele>
        <time>2020-03-10T09:26:13.000Z</time>
      </trkpt>
      <trkpt lat="45.46862" lon="4.6917">
        <ele>759.59997558594</ele>
        <time>2020-03-10T09:26:15.000Z</time>
      </trkpt>
      <trkpt lat="45.46861" lon="4.69166">
        <ele>758.59997558594</ele>
        <time>2020-03-10T09:26:17.000Z</time>
      </trkpt>
      <trkpt lat="45.46861" lon="4.69159">
        <ele>757.79998779297</ele>
        <time>2020-03-10T09:26:20.000Z</time>
      </trkpt>
      <trkpt lat="45.46862" lon="4.69156">
        <ele>757.59997558594</ele>
        <time>2020-03-10T09:26:21.000Z</time>
      </trkpt>
      <trkpt lat="45.46862" lon="4.69153">
        <ele>757.40002441406</ele>
        <time>2020-03-10T09:26:22.000Z</time>
      </trkpt>
      <trkpt lat="45.46862" lon="4.69138">
        <ele>756.40002441406</ele>
        <time>2020-03-10T09:26:26.000Z</time>
      </trkpt>
      <trkpt lat="45.46861" lon="4.69136">
        <ele>756</ele>
        <time>2020-03-10T09:26:27.000Z</time>
      </trkpt>
      <trkpt lat="45.46857" lon="4.6912">
        <ele>755.20001220703</ele>
        <time>2020-03-10T09:26:31.000Z</time>
      </trkpt>
      <trkpt lat="45.46855" lon="4.69112">
        <ele>755.20001220703</ele>
        <time>2020-03-10T09:26:33.000Z</time>
      </trkpt>
      <trkpt lat="45.46854" lon="4.69108">
        <ele>754.79998779297</ele>
        <time>2020-03-10T09:26:34.000Z</time>
      </trkpt>
      <trkpt lat="45.46849" lon="4.69085">
        <ele>753.59997558594</ele>
        <time>2020-03-10T09:26:40.000Z</time>
      </trkpt>
      <trkpt lat="45.46849" lon="4.69082">
        <ele>753.59997558594</ele>
        <time>2020-03-10T09:26:41.000Z</time>
      </trkpt>
      <trkpt lat="45.46851" lon="4.69062">
        <ele>753</ele>
        <time>2020-03-10T09:26:46.000Z</time>
      </trkpt>
      <trkpt lat="45.46853" lon="4.69057">
        <ele>752.79998779297</ele>
        <time>2020-03-10T09:26:49.000Z</time>
      </trkpt>
      <trkpt lat="45.46855" lon="4.69056">
        <ele>752.79998779297</ele>
        <time>2020-03-10T09:26:50.000Z</time>
      </trkpt>
      <trkpt lat="45.46857" lon="4.69056">
        <ele>752.59997558594</ele>
        <time>2020-03-10T09:26:51.000Z</time>
      </trkpt>
      <trkpt lat="45.46859" lon="4.69056">
        <ele>752.40002441406</ele>
        <time>2020-03-10T09:26:52.000Z</time>
      </trkpt>
      <trkpt lat="45.46868" lon="4.69057">
        <ele>751.20001220703</ele>
        <time>2020-03-10T09:26:56.000Z</time>
      </trkpt>
      <trkpt lat="45.46872" lon="4.69057">
        <ele>750.59997558594</ele>
        <time>2020-03-10T09:26:58.000Z</time>
      </trkpt>
      <trkpt lat="45.46876" lon="4.69057">
        <ele>750</ele>
        <time>2020-03-10T09:27:00.000Z</time>
      </trkpt>
      <trkpt lat="45.46878" lon="4.69057">
        <ele>750</ele>
        <time>2020-03-10T09:27:01.000Z</time>
      </trkpt>
      <trkpt lat="45.46882" lon="4.6906">
        <ele>749.79998779297</ele>
        <time>2020-03-10T09:27:04.000Z</time>
      </trkpt>
      <trkpt lat="45.46889" lon="4.69064">
        <ele>749</ele>
        <time>2020-03-10T09:27:08.000Z</time>
      </trkpt>
      <trkpt lat="45.46894" lon="4.69069">
        <ele>747.59997558594</ele>
        <time>2020-03-10T09:27:11.000Z</time>
      </trkpt>
      <trkpt lat="45.46898" lon="4.69071">
        <ele>747.20001220703</ele>
        <time>2020-03-10T09:27:14.000Z</time>
      </trkpt>
      <trkpt lat="45.46902" lon="4.69076">
        <ele>746.40002441406</ele>
        <time>2020-03-10T09:27:16.000Z</time>
      </trkpt>
      <trkpt lat="45.46907" lon="4.69081">
        <ele>745.20001220703</ele>
        <time>2020-03-10T09:27:19.000Z</time>
      </trkpt>
      <trkpt lat="45.46911" lon="4.69084">
        <ele>744.59997558594</ele>
        <time>2020-03-10T09:27:21.000Z</time>
      </trkpt>
      <trkpt lat="45.46914" lon="4.69086">
        <ele>744.40002441406</ele>
        <time>2020-03-10T09:27:22.000Z</time>
      </trkpt>
      <trkpt lat="45.46917" lon="4.69088">
        <ele>743.79998779297</ele>
        <time>2020-03-10T09:27:23.000Z</time>
      </trkpt>
      <trkpt lat="45.46925" lon="4.69093">
        <ele>742.59997558594</ele>
        <time>2020-03-10T09:27:25.000Z</time>
      </trkpt>
      <trkpt lat="45.46933" lon="4.69098">
        <ele>742.20001220703</ele>
        <time>2020-03-10T09:27:27.000Z</time>
      </trkpt>
      <trkpt lat="45.46938" lon="4.69102">
        <ele>741.59997558594</ele>
        <time>2020-03-10T09:27:29.000Z</time>
      </trkpt>
      <trkpt lat="45.46943" lon="4.69107">
        <ele>741</ele>
        <time>2020-03-10T09:27:31.000Z</time>
      </trkpt>
      <trkpt lat="45.46945" lon="4.69109">
        <ele>740.59997558594</ele>
        <time>2020-03-10T09:27:32.000Z</time>
      </trkpt>
      <trkpt lat="45.46948" lon="4.6911">
        <ele>740.20001220703</ele>
        <time>2020-03-10T09:27:33.000Z</time>
      </trkpt>
      <trkpt lat="45.46951" lon="4.69111">
        <ele>740</ele>
        <time>2020-03-10T09:27:34.000Z</time>
      </trkpt>
      <trkpt lat="45.46958" lon="4.69114">
        <ele>739.40002441406</ele>
        <time>2020-03-10T09:27:37.000Z</time>
      </trkpt>
      <trkpt lat="45.46959" lon="4.69115">
        <ele>739</ele>
        <time>2020-03-10T09:27:38.000Z</time>
      </trkpt>
      <trkpt lat="45.46964" lon="4.69118">
        <ele>738.40002441406</ele>
        <time>2020-03-10T09:27:41.000Z</time>
      </trkpt>
      <trkpt lat="45.46966" lon="4.69119">
        <ele>738</ele>
        <time>2020-03-10T09:27:42.000Z</time>
      </trkpt>
      <trkpt lat="45.46979" lon="4.69127">
        <ele>736.79998779297</ele>
        <time>2020-03-10T09:27:48.000Z</time>
      </trkpt>
      <trkpt lat="45.46988" lon="4.69132">
        <ele>736</ele>
        <time>2020-03-10T09:27:51.000Z</time>
      </trkpt>
      <trkpt lat="45.46991" lon="4.69133">
        <ele>735.59997558594</ele>
        <time>2020-03-10T09:27:52.000Z</time>
      </trkpt>
      <trkpt lat="45.46998" lon="4.69135">
        <ele>735.20001220703</ele>
        <time>2020-03-10T09:27:55.000Z</time>
      </trkpt>
      <trkpt lat="45.47001" lon="4.69137">
        <ele>734.40002441406</ele>
        <time>2020-03-10T09:27:57.000Z</time>
      </trkpt>
      <trkpt lat="45.47006" lon="4.69141">
        <ele>733.40002441406</ele>
        <time>2020-03-10T09:28:00.000Z</time>
      </trkpt>
      <trkpt lat="45.47008" lon="4.69143">
        <ele>733.20001220703</ele>
        <time>2020-03-10T09:28:01.000Z</time>
      </trkpt>
      <trkpt lat="45.47017" lon="4.69148">
        <ele>732.40002441406</ele>
        <time>2020-03-10T09:28:04.000Z</time>
      </trkpt>
      <trkpt lat="45.47025" lon="4.69155">
        <ele>731.40002441406</ele>
        <time>2020-03-10T09:28:08.000Z</time>
      </trkpt>
      <trkpt lat="45.47028" lon="4.69157">
        <ele>731.40002441406</ele>
        <time>2020-03-10T09:28:09.000Z</time>
      </trkpt>
      <trkpt lat="45.47032" lon="4.6916">
        <ele>731.20001220703</ele>
        <time>2020-03-10T09:28:11.000Z</time>
      </trkpt>
      <trkpt lat="45.47035" lon="4.69162">
        <ele>731</ele>
        <time>2020-03-10T09:28:12.000Z</time>
      </trkpt>
      <trkpt lat="45.47039" lon="4.69166">
        <ele>730.20001220703</ele>
        <time>2020-03-10T09:28:14.000Z</time>
      </trkpt>
      <trkpt lat="45.47041" lon="4.69168">
        <ele>730</ele>
        <time>2020-03-10T09:28:15.000Z</time>
      </trkpt>
      <trkpt lat="45.47055" lon="4.69178">
        <ele>729</ele>
        <time>2020-03-10T09:28:21.000Z</time>
      </trkpt>
      <trkpt lat="45.47058" lon="4.69179">
        <ele>728.59997558594</ele>
        <time>2020-03-10T09:28:22.000Z</time>
      </trkpt>
      <trkpt lat="45.4707" lon="4.69187">
        <ele>728</ele>
        <time>2020-03-10T09:28:27.000Z</time>
      </trkpt>
      <trkpt lat="45.47072" lon="4.69189">
        <ele>727.79998779297</ele>
        <time>2020-03-10T09:28:28.000Z</time>
      </trkpt>
      <trkpt lat="45.47081" lon="4.69195">
        <ele>727.20001220703</ele>
        <time>2020-03-10T09:28:31.000Z</time>
      </trkpt>
      <trkpt lat="45.47083" lon="4.69197">
        <ele>726.79998779297</ele>
        <time>2020-03-10T09:28:32.000Z</time>
      </trkpt>
      <trkpt lat="45.47087" lon="4.69201">
        <ele>726.59997558594</ele>
        <time>2020-03-10T09:28:34.000Z</time>
      </trkpt>
      <trkpt lat="45.47096" lon="4.69208">
        <ele>725.79998779297</ele>
        <time>2020-03-10T09:28:38.000Z</time>
      </trkpt>
      <trkpt lat="45.47101" lon="4.69212">
        <ele>725.40002441406</ele>
        <time>2020-03-10T09:28:40.000Z</time>
      </trkpt>
      <trkpt lat="45.47103" lon="4.69214">
        <ele>725</ele>
        <time>2020-03-10T09:28:41.000Z</time>
      </trkpt>
      <trkpt lat="45.47106" lon="4.69217">
        <ele>724.79998779297</ele>
        <time>2020-03-10T09:28:42.000Z</time>
      </trkpt>
      <trkpt lat="45.47124" lon="4.69226">
        <ele>723.59997558594</ele>
        <time>2020-03-10T09:28:46.000Z</time>
      </trkpt>
      <trkpt lat="45.47138" lon="4.69235">
        <ele>722.40002441406</ele>
        <time>2020-03-10T09:28:50.000Z</time>
      </trkpt>
      <trkpt lat="45.47142" lon="4.69237">
        <ele>722</ele>
        <time>2020-03-10T09:28:51.000Z</time>
      </trkpt>
      <trkpt lat="45.47149" lon="4.69242">
        <ele>721.20001220703</ele>
        <time>2020-03-10T09:28:53.000Z</time>
      </trkpt>
      <trkpt lat="45.47155" lon="4.69249">
        <ele>720.59997558594</ele>
        <time>2020-03-10T09:28:56.000Z</time>
      </trkpt>
      <trkpt lat="45.47158" lon="4.69255">
        <ele>720.20001220703</ele>
        <time>2020-03-10T09:28:58.000Z</time>
      </trkpt>
      <trkpt lat="45.47166" lon="4.69262">
        <ele>719.40002441406</ele>
        <time>2020-03-10T09:29:01.000Z</time>
      </trkpt>
      <trkpt lat="45.47168" lon="4.69265">
        <ele>718.79998779297</ele>
        <time>2020-03-10T09:29:02.000Z</time>
      </trkpt>
      <trkpt lat="45.47173" lon="4.69273">
        <ele>718</ele>
        <time>2020-03-10T09:29:05.000Z</time>
      </trkpt>
      <trkpt lat="45.47175" lon="4.69276">
        <ele>717.59997558594</ele>
        <time>2020-03-10T09:29:06.000Z</time>
      </trkpt>
      <trkpt lat="45.47181" lon="4.69286">
        <ele>716.20001220703</ele>
        <time>2020-03-10T09:29:09.000Z</time>
      </trkpt>
      <trkpt lat="45.47185" lon="4.69293">
        <ele>715.59997558594</ele>
        <time>2020-03-10T09:29:11.000Z</time>
      </trkpt>
      <trkpt lat="45.47187" lon="4.69298">
        <ele>715.20001220703</ele>
        <time>2020-03-10T09:29:12.000Z</time>
      </trkpt>
      <trkpt lat="45.47192" lon="4.69309">
        <ele>713.79998779297</ele>
        <time>2020-03-10T09:29:15.000Z</time>
      </trkpt>
      <trkpt lat="45.47194" lon="4.69312">
        <ele>713.59997558594</ele>
        <time>2020-03-10T09:29:16.000Z</time>
      </trkpt>
      <trkpt lat="45.47196" lon="4.69317">
        <ele>713.20001220703</ele>
        <time>2020-03-10T09:29:18.000Z</time>
      </trkpt>
      <trkpt lat="45.47201" lon="4.69324">
        <ele>712.79998779297</ele>
        <time>2020-03-10T09:29:20.000Z</time>
      </trkpt>
      <trkpt lat="45.47202" lon="4.69329">
        <ele>712.59997558594</ele>
        <time>2020-03-10T09:29:21.000Z</time>
      </trkpt>
      <trkpt lat="45.47204" lon="4.69337">
        <ele>711.40002441406</ele>
        <time>2020-03-10T09:29:23.000Z</time>
      </trkpt>
      <trkpt lat="45.47211" lon="4.69349">
        <ele>710.79998779297</ele>
        <time>2020-03-10T09:29:26.000Z</time>
      </trkpt>
      <trkpt lat="45.47218" lon="4.6936">
        <ele>710.20001220703</ele>
        <time>2020-03-10T09:29:29.000Z</time>
      </trkpt>
      <trkpt lat="45.47219" lon="4.69366">
        <ele>709.59997558594</ele>
        <time>2020-03-10T09:29:31.000Z</time>
      </trkpt>
      <trkpt lat="45.47223" lon="4.69376">
        <ele>709</ele>
        <time>2020-03-10T09:29:34.000Z</time>
      </trkpt>
      <trkpt lat="45.4723" lon="4.69389">
        <ele>708</ele>
        <time>2020-03-10T09:29:38.000Z</time>
      </trkpt>
      <trkpt lat="45.47231" lon="4.69391">
        <ele>707.59997558594</ele>
        <time>2020-03-10T09:29:39.000Z</time>
      </trkpt>
      <trkpt lat="45.47233" lon="4.69395">
        <ele>707.40002441406</ele>
        <time>2020-03-10T09:29:41.000Z</time>
      </trkpt>
      <trkpt lat="45.47236" lon="4.69397">
        <ele>706.59997558594</ele>
        <time>2020-03-10T09:29:43.000Z</time>
      </trkpt>
      <trkpt lat="45.47242" lon="4.69403">
        <ele>705.59997558594</ele>
        <time>2020-03-10T09:29:48.000Z</time>
      </trkpt>
      <trkpt lat="45.47245" lon="4.69404">
        <ele>705.20001220703</ele>
        <time>2020-03-10T09:29:49.000Z</time>
      </trkpt>
      <trkpt lat="45.4725" lon="4.69405">
        <ele>704.59997558594</ele>
        <time>2020-03-10T09:29:51.000Z</time>
      </trkpt>
      <trkpt lat="45.47253" lon="4.69406">
        <ele>704.20001220703</ele>
        <time>2020-03-10T09:29:52.000Z</time>
      </trkpt>
      <trkpt lat="45.47258" lon="4.69407">
        <ele>702.79998779297</ele>
        <time>2020-03-10T09:29:54.000Z</time>
      </trkpt>
      <trkpt lat="45.47261" lon="4.69408">
        <ele>702.40002441406</ele>
        <time>2020-03-10T09:29:55.000Z</time>
      </trkpt>
      <trkpt lat="45.47266" lon="4.69411">
        <ele>701.59997558594</ele>
        <time>2020-03-10T09:29:57.000Z</time>
      </trkpt>
      <trkpt lat="45.47272" lon="4.69412">
        <ele>700.40002441406</ele>
        <time>2020-03-10T09:30:00.000Z</time>
      </trkpt>
      <trkpt lat="45.47274" lon="4.69413">
        <ele>700.20001220703</ele>
        <time>2020-03-10T09:30:01.000Z</time>
      </trkpt>
      <trkpt lat="45.47278" lon="4.69412">
        <ele>699.40002441406</ele>
        <time>2020-03-10T09:30:03.000Z</time>
      </trkpt>
      <trkpt lat="45.47282" lon="4.6941">
        <ele>698.20001220703</ele>
        <time>2020-03-10T09:30:05.000Z</time>
      </trkpt>
      <trkpt lat="45.47288" lon="4.69408">
        <ele>697</ele>
        <time>2020-03-10T09:30:08.000Z</time>
      </trkpt>
      <trkpt lat="45.47294" lon="4.69409">
        <ele>695.59997558594</ele>
        <time>2020-03-10T09:30:11.000Z</time>
      </trkpt>
      <trkpt lat="45.47296" lon="4.69409">
        <ele>695.20001220703</ele>
        <time>2020-03-10T09:30:12.000Z</time>
      </trkpt>
      <trkpt lat="45.473" lon="4.6941">
        <ele>694.59997558594</ele>
        <time>2020-03-10T09:30:14.000Z</time>
      </trkpt>
      <trkpt lat="45.47302" lon="4.6941">
        <ele>694.20001220703</ele>
        <time>2020-03-10T09:30:15.000Z</time>
      </trkpt>
      <trkpt lat="45.47306" lon="4.69412">
        <ele>693.40002441406</ele>
        <time>2020-03-10T09:30:17.000Z</time>
      </trkpt>
      <trkpt lat="45.4731" lon="4.69412">
        <ele>692.79998779297</ele>
        <time>2020-03-10T09:30:19.000Z</time>
      </trkpt>
      <trkpt lat="45.47314" lon="4.69413">
        <ele>692.20001220703</ele>
        <time>2020-03-10T09:30:21.000Z</time>
      </trkpt>
      <trkpt lat="45.47323" lon="4.69412">
        <ele>690.79998779297</ele>
        <time>2020-03-10T09:30:25.000Z</time>
      </trkpt>
      <trkpt lat="45.47327" lon="4.69411">
        <ele>689.59997558594</ele>
        <time>2020-03-10T09:30:28.000Z</time>
      </trkpt>
      <trkpt lat="45.47327" lon="4.6941">
        <ele>689.20001220703</ele>
        <time>2020-03-10T09:30:30.000Z</time>
      </trkpt>
      <trkpt lat="45.47329" lon="4.6941">
        <ele>688.59997558594</ele>
        <time>2020-03-10T09:30:31.000Z</time>
      </trkpt>
      <trkpt lat="45.47332" lon="4.6941">
        <ele>687.59997558594</ele>
        <time>2020-03-10T09:30:33.000Z</time>
      </trkpt>
      <trkpt lat="45.47336" lon="4.69408">
        <ele>687</ele>
        <time>2020-03-10T09:30:35.000Z</time>
      </trkpt>
      <trkpt lat="45.47337" lon="4.69408">
        <ele>686.40002441406</ele>
        <time>2020-03-10T09:30:36.000Z</time>
      </trkpt>
      <trkpt lat="45.47341" lon="4.69406">
        <ele>685.40002441406</ele>
        <time>2020-03-10T09:30:38.000Z</time>
      </trkpt>
      <trkpt lat="45.47351" lon="4.69404">
        <ele>684.79998779297</ele>
        <time>2020-03-10T09:30:41.000Z</time>
      </trkpt>
      <trkpt lat="45.47357" lon="4.69404">
        <ele>684.40002441406</ele>
        <time>2020-03-10T09:30:42.000Z</time>
      </trkpt>
      <trkpt lat="45.47362" lon="4.69404">
        <ele>683.79998779297</ele>
        <time>2020-03-10T09:30:43.000Z</time>
      </trkpt>
      <trkpt lat="45.47374" lon="4.69402">
        <ele>682.59997558594</ele>
        <time>2020-03-10T09:30:46.000Z</time>
      </trkpt>
      <trkpt lat="45.47377" lon="4.69402">
        <ele>682.20001220703</ele>
        <time>2020-03-10T09:30:47.000Z</time>
      </trkpt>
      <trkpt lat="45.47384" lon="4.69402">
        <ele>681</ele>
        <time>2020-03-10T09:30:49.000Z</time>
      </trkpt>
      <trkpt lat="45.47392" lon="4.69402">
        <ele>680</ele>
        <time>2020-03-10T09:30:51.000Z</time>
      </trkpt>
      <trkpt lat="45.47397" lon="4.694">
        <ele>680</ele>
        <time>2020-03-10T09:30:52.000Z</time>
      </trkpt>
      <trkpt lat="45.474" lon="4.694">
        <ele>679.79998779297</ele>
        <time>2020-03-10T09:30:53.000Z</time>
      </trkpt>
      <trkpt lat="45.47413" lon="4.69399">
        <ele>678.59997558594</ele>
        <time>2020-03-10T09:30:56.000Z</time>
      </trkpt>
      <trkpt lat="45.47423" lon="4.69398">
        <ele>677.20001220703</ele>
        <time>2020-03-10T09:30:59.000Z</time>
      </trkpt>
      <trkpt lat="45.4743" lon="4.69395">
        <ele>676.20001220703</ele>
        <time>2020-03-10T09:31:01.000Z</time>
      </trkpt>
      <trkpt lat="45.47433" lon="4.69394">
        <ele>675.79998779297</ele>
        <time>2020-03-10T09:31:02.000Z</time>
      </trkpt>
      <trkpt lat="45.47437" lon="4.69393">
        <ele>675.40002441406</ele>
        <time>2020-03-10T09:31:04.000Z</time>
      </trkpt>
      <trkpt lat="45.47444" lon="4.69388">
        <ele>674.40002441406</ele>
        <time>2020-03-10T09:31:07.000Z</time>
      </trkpt>
      <trkpt lat="45.47449" lon="4.69384">
        <ele>673.79998779297</ele>
        <time>2020-03-10T09:31:09.000Z</time>
      </trkpt>
      <trkpt lat="45.47455" lon="4.6938">
        <ele>673</ele>
        <time>2020-03-10T09:31:11.000Z</time>
      </trkpt>
      <trkpt lat="45.47469" lon="4.69371">
        <ele>672.20001220703</ele>
        <time>2020-03-10T09:31:16.000Z</time>
      </trkpt>
      <trkpt lat="45.47479" lon="4.69364">
        <ele>672</ele>
        <time>2020-03-10T09:31:20.000Z</time>
      </trkpt>
      <trkpt lat="45.47482" lon="4.69363">
        <ele>671.79998779297</ele>
        <time>2020-03-10T09:31:21.000Z</time>
      </trkpt>
      <trkpt lat="45.47488" lon="4.69357">
        <ele>671</ele>
        <time>2020-03-10T09:31:24.000Z</time>
      </trkpt>
      <trkpt lat="45.47496" lon="4.69354">
        <ele>669.79998779297</ele>
        <time>2020-03-10T09:31:27.000Z</time>
      </trkpt>
      <trkpt lat="45.47503" lon="4.69353">
        <ele>668.79998779297</ele>
        <time>2020-03-10T09:31:30.000Z</time>
      </trkpt>
      <trkpt lat="45.47505" lon="4.69353">
        <ele>668.59997558594</ele>
        <time>2020-03-10T09:31:31.000Z</time>
      </trkpt>
      <trkpt lat="45.47514" lon="4.69355">
        <ele>667.59997558594</ele>
        <time>2020-03-10T09:31:35.000Z</time>
      </trkpt>
      <trkpt lat="45.47515" lon="4.69357">
        <ele>667.59997558594</ele>
        <time>2020-03-10T09:31:36.000Z</time>
      </trkpt>
      <trkpt lat="45.47526" lon="4.69367">
        <ele>666.79998779297</ele>
        <time>2020-03-10T09:31:41.000Z</time>
      </trkpt>
      <trkpt lat="45.47529" lon="4.69369">
        <ele>666.40002441406</ele>
        <time>2020-03-10T09:31:42.000Z</time>
      </trkpt>
      <trkpt lat="45.47532" lon="4.6937">
        <ele>666</ele>
        <time>2020-03-10T09:31:43.000Z</time>
      </trkpt>
      <trkpt lat="45.4754" lon="4.69377">
        <ele>665.20001220703</ele>
        <time>2020-03-10T09:31:46.000Z</time>
      </trkpt>
      <trkpt lat="45.47548" lon="4.69381">
        <ele>664</ele>
        <time>2020-03-10T09:31:49.000Z</time>
      </trkpt>
      <trkpt lat="45.47552" lon="4.69386">
        <ele>663</ele>
        <time>2020-03-10T09:31:51.000Z</time>
      </trkpt>
      <trkpt lat="45.47554" lon="4.69391">
        <ele>662</ele>
        <time>2020-03-10T09:31:53.000Z</time>
      </trkpt>
      <trkpt lat="45.47557" lon="4.69397">
        <ele>661.20001220703</ele>
        <time>2020-03-10T09:31:55.000Z</time>
      </trkpt>
      <trkpt lat="45.47558" lon="4.694">
        <ele>660.79998779297</ele>
        <time>2020-03-10T09:31:56.000Z</time>
      </trkpt>
      <trkpt lat="45.47561" lon="4.6941">
        <ele>659.59997558594</ele>
        <time>2020-03-10T09:31:59.000Z</time>
      </trkpt>
      <trkpt lat="45.47562" lon="4.69416">
        <ele>658.59997558594</ele>
        <time>2020-03-10T09:32:01.000Z</time>
      </trkpt>
      <trkpt lat="45.47562" lon="4.69419">
        <ele>658.20001220703</ele>
        <time>2020-03-10T09:32:02.000Z</time>
      </trkpt>
      <trkpt lat="45.47564" lon="4.6943">
        <ele>656.79998779297</ele>
        <time>2020-03-10T09:32:06.000Z</time>
      </trkpt>
      <trkpt lat="45.47564" lon="4.69433">
        <ele>656.40002441406</ele>
        <time>2020-03-10T09:32:07.000Z</time>
      </trkpt>
      <trkpt lat="45.47565" lon="4.69435">
        <ele>655.79998779297</ele>
        <time>2020-03-10T09:32:08.000Z</time>
      </trkpt>
      <trkpt lat="45.47566" lon="4.69445">
        <ele>654.59997558594</ele>
        <time>2020-03-10T09:32:11.000Z</time>
      </trkpt>
      <trkpt lat="45.47568" lon="4.69451">
        <ele>653.59997558594</ele>
        <time>2020-03-10T09:32:13.000Z</time>
      </trkpt>
      <trkpt lat="45.47568" lon="4.69454">
        <ele>653.20001220703</ele>
        <time>2020-03-10T09:32:14.000Z</time>
      </trkpt>
      <trkpt lat="45.4757" lon="4.69467">
        <ele>651.79998779297</ele>
        <time>2020-03-10T09:32:18.000Z</time>
      </trkpt>
      <trkpt lat="45.4757" lon="4.69472">
        <ele>651.40002441406</ele>
        <time>2020-03-10T09:32:19.000Z</time>
      </trkpt>
      <trkpt lat="45.47567" lon="4.69483">
        <ele>651.20001220703</ele>
        <time>2020-03-10T09:32:21.000Z</time>
      </trkpt>
      <trkpt lat="45.47566" lon="4.69487">
        <ele>650.79998779297</ele>
        <time>2020-03-10T09:32:22.000Z</time>
      </trkpt>
      <trkpt lat="45.47566" lon="4.69492">
        <ele>650.20001220703</ele>
        <time>2020-03-10T09:32:23.000Z</time>
      </trkpt>
      <trkpt lat="45.47567" lon="4.695">
        <ele>649.59997558594</ele>
        <time>2020-03-10T09:32:25.000Z</time>
      </trkpt>
      <trkpt lat="45.47564" lon="4.69523">
        <ele>648.40002441406</ele>
        <time>2020-03-10T09:32:29.000Z</time>
      </trkpt>
      <trkpt lat="45.47564" lon="4.69533">
        <ele>647.79998779297</ele>
        <time>2020-03-10T09:32:31.000Z</time>
      </trkpt>
      <trkpt lat="45.47563" lon="4.69537">
        <ele>647.20001220703</ele>
        <time>2020-03-10T09:32:32.000Z</time>
      </trkpt>
      <trkpt lat="45.47562" lon="4.69545">
        <ele>646.20001220703</ele>
        <time>2020-03-10T09:32:34.000Z</time>
      </trkpt>
      <trkpt lat="45.47562" lon="4.69554">
        <ele>645.40002441406</ele>
        <time>2020-03-10T09:32:36.000Z</time>
      </trkpt>
      <trkpt lat="45.47561" lon="4.69558">
        <ele>645.20001220703</ele>
        <time>2020-03-10T09:32:37.000Z</time>
      </trkpt>
      <trkpt lat="45.47566" lon="4.69574">
        <ele>644.20001220703</ele>
        <time>2020-03-10T09:32:41.000Z</time>
      </trkpt>
      <trkpt lat="45.47567" lon="4.69578">
        <ele>643.79998779297</ele>
        <time>2020-03-10T09:32:42.000Z</time>
      </trkpt>
      <trkpt lat="45.47571" lon="4.69589">
        <ele>642.59997558594</ele>
        <time>2020-03-10T09:32:45.000Z</time>
      </trkpt>
      <trkpt lat="45.47574" lon="4.69595">
        <ele>642</ele>
        <time>2020-03-10T09:32:47.000Z</time>
      </trkpt>
      <trkpt lat="45.47575" lon="4.69598">
        <ele>641.59997558594</ele>
        <time>2020-03-10T09:32:48.000Z</time>
      </trkpt>
      <trkpt lat="45.47581" lon="4.69604">
        <ele>641.20001220703</ele>
        <time>2020-03-10T09:32:50.000Z</time>
      </trkpt>
      <trkpt lat="45.47583" lon="4.69607">
        <ele>640.79998779297</ele>
        <time>2020-03-10T09:32:51.000Z</time>
      </trkpt>
      <trkpt lat="45.47585" lon="4.69611">
        <ele>640.20001220703</ele>
        <time>2020-03-10T09:32:52.000Z</time>
      </trkpt>
      <trkpt lat="45.47592" lon="4.69623">
        <ele>639</ele>
        <time>2020-03-10T09:32:56.000Z</time>
      </trkpt>
      <trkpt lat="45.47594" lon="4.69625">
        <ele>638.59997558594</ele>
        <time>2020-03-10T09:32:57.000Z</time>
      </trkpt>
      <trkpt lat="45.47599" lon="4.69634">
        <ele>637.79998779297</ele>
        <time>2020-03-10T09:33:00.000Z</time>
      </trkpt>
      <trkpt lat="45.47601" lon="4.69637">
        <ele>637.59997558594</ele>
        <time>2020-03-10T09:33:01.000Z</time>
      </trkpt>
      <trkpt lat="45.47603" lon="4.69644">
        <ele>637</ele>
        <time>2020-03-10T09:33:03.000Z</time>
      </trkpt>
      <trkpt lat="45.47605" lon="4.69647">
        <ele>636.59997558594</ele>
        <time>2020-03-10T09:33:04.000Z</time>
      </trkpt>
      <trkpt lat="45.47608" lon="4.69657">
        <ele>635.40002441406</ele>
        <time>2020-03-10T09:33:07.000Z</time>
      </trkpt>
      <trkpt lat="45.4761" lon="4.69663">
        <ele>634.59997558594</ele>
        <time>2020-03-10T09:33:09.000Z</time>
      </trkpt>
      <trkpt lat="45.47611" lon="4.69666">
        <ele>634</ele>
        <time>2020-03-10T09:33:10.000Z</time>
      </trkpt>
      <trkpt lat="45.47613" lon="4.6967">
        <ele>633.59997558594</ele>
        <time>2020-03-10T09:33:11.000Z</time>
      </trkpt>
      <trkpt lat="45.47618" lon="4.69675">
        <ele>633</ele>
        <time>2020-03-10T09:33:13.000Z</time>
      </trkpt>
      <trkpt lat="45.47621" lon="4.6968">
        <ele>632.79998779297</ele>
        <time>2020-03-10T09:33:15.000Z</time>
      </trkpt>
      <trkpt lat="45.47633" lon="4.69692">
        <ele>632.40002441406</ele>
        <time>2020-03-10T09:33:21.000Z</time>
      </trkpt>
      <trkpt lat="45.47636" lon="4.69698">
        <ele>632</ele>
        <time>2020-03-10T09:33:23.000Z</time>
      </trkpt>
      <trkpt lat="45.47637" lon="4.69708">
        <ele>631.20001220703</ele>
        <time>2020-03-10T09:33:26.000Z</time>
      </trkpt>
      <trkpt lat="45.47636" lon="4.69712">
        <ele>631</ele>
        <time>2020-03-10T09:33:27.000Z</time>
      </trkpt>
      <trkpt lat="45.47634" lon="4.69715">
        <ele>630.59997558594</ele>
        <time>2020-03-10T09:33:28.000Z</time>
      </trkpt>
      <trkpt lat="45.47627" lon="4.69722">
        <ele>629.40002441406</ele>
        <time>2020-03-10T09:33:31.000Z</time>
      </trkpt>
      <trkpt lat="45.47625" lon="4.69724">
        <ele>629.20001220703</ele>
        <time>2020-03-10T09:33:32.000Z</time>
      </trkpt>
      <trkpt lat="45.47607" lon="4.69737">
        <ele>628.40002441406</ele>
        <time>2020-03-10T09:33:39.000Z</time>
      </trkpt>
      <trkpt lat="45.47603" lon="4.6974">
        <ele>628.40002441406</ele>
        <time>2020-03-10T09:33:41.000Z</time>
      </trkpt>
      <trkpt lat="45.476" lon="4.69743">
        <ele>627.40002441406</ele>
        <time>2020-03-10T09:33:43.000Z</time>
      </trkpt>
      <trkpt lat="45.47594" lon="4.69752">
        <ele>626.40002441406</ele>
        <time>2020-03-10T09:33:47.000Z</time>
      </trkpt>
      <trkpt lat="45.47593" lon="4.69754">
        <ele>626.40002441406</ele>
        <time>2020-03-10T09:33:48.000Z</time>
      </trkpt>
      <trkpt lat="45.47592" lon="4.69756">
        <ele>626</ele>
        <time>2020-03-10T09:33:49.000Z</time>
      </trkpt>
      <trkpt lat="45.4759" lon="4.69761">
        <ele>624.79998779297</ele>
        <time>2020-03-10T09:33:51.000Z</time>
      </trkpt>
      <trkpt lat="45.47588" lon="4.69763">
        <ele>624.40002441406</ele>
        <time>2020-03-10T09:33:52.000Z</time>
      </trkpt>
      <trkpt lat="45.47586" lon="4.69767">
        <ele>623.59997558594</ele>
        <time>2020-03-10T09:33:54.000Z</time>
      </trkpt>
      <trkpt lat="45.47584" lon="4.69772">
        <ele>622.20001220703</ele>
        <time>2020-03-10T09:33:56.000Z</time>
      </trkpt>
      <trkpt lat="45.47583" lon="4.69774">
        <ele>621.59997558594</ele>
        <time>2020-03-10T09:33:57.000Z</time>
      </trkpt>
      <trkpt lat="45.47581" lon="4.69778">
        <ele>620.79998779297</ele>
        <time>2020-03-10T09:33:59.000Z</time>
      </trkpt>
      <trkpt lat="45.47579" lon="4.69782">
        <ele>620.20001220703</ele>
        <time>2020-03-10T09:34:01.000Z</time>
      </trkpt>
      <trkpt lat="45.47578" lon="4.69787">
        <ele>619.59997558594</ele>
        <time>2020-03-10T09:34:03.000Z</time>
      </trkpt>
      <trkpt lat="45.47576" lon="4.69794">
        <ele>618.40002441406</ele>
        <time>2020-03-10T09:34:05.000Z</time>
      </trkpt>
      <trkpt lat="45.47575" lon="4.69796">
        <ele>618</ele>
        <time>2020-03-10T09:34:06.000Z</time>
      </trkpt>
      <trkpt lat="45.47574" lon="4.69803">
        <ele>617.40002441406</ele>
        <time>2020-03-10T09:34:08.000Z</time>
      </trkpt>
      <trkpt lat="45.47572" lon="4.69813">
        <ele>616.59997558594</ele>
        <time>2020-03-10T09:34:11.000Z</time>
      </trkpt>
      <trkpt lat="45.47571" lon="4.69816">
        <ele>616</ele>
        <time>2020-03-10T09:34:12.000Z</time>
      </trkpt>
      <trkpt lat="45.47568" lon="4.69829">
        <ele>614.79998779297</ele>
        <time>2020-03-10T09:34:16.000Z</time>
      </trkpt>
      <trkpt lat="45.47566" lon="4.69836">
        <ele>614.40002441406</ele>
        <time>2020-03-10T09:34:18.000Z</time>
      </trkpt>
      <trkpt lat="45.47563" lon="4.69841">
        <ele>613.59997558594</ele>
        <time>2020-03-10T09:34:20.000Z</time>
      </trkpt>
      <trkpt lat="45.47563" lon="4.69845">
        <ele>613</ele>
        <time>2020-03-10T09:34:21.000Z</time>
      </trkpt>
      <trkpt lat="45.47561" lon="4.69851">
        <ele>612.59997558594</ele>
        <time>2020-03-10T09:34:23.000Z</time>
      </trkpt>
      <trkpt lat="45.47556" lon="4.69866">
        <ele>611.20001220703</ele>
        <time>2020-03-10T09:34:28.000Z</time>
      </trkpt>
      <trkpt lat="45.47553" lon="4.69868">
        <ele>610.79998779297</ele>
        <time>2020-03-10T09:34:29.000Z</time>
      </trkpt>
      <trkpt lat="45.47549" lon="4.69874">
        <ele>610.20001220703</ele>
        <time>2020-03-10T09:34:31.000Z</time>
      </trkpt>
      <trkpt lat="45.47548" lon="4.69878">
        <ele>610</ele>
        <time>2020-03-10T09:34:32.000Z</time>
      </trkpt>
      <trkpt lat="45.47544" lon="4.6989">
        <ele>609</ele>
        <time>2020-03-10T09:34:36.000Z</time>
      </trkpt>
      <trkpt lat="45.47542" lon="4.69899">
        <ele>608</ele>
        <time>2020-03-10T09:34:38.000Z</time>
      </trkpt>
      <trkpt lat="45.47539" lon="4.69908">
        <ele>607</ele>
        <time>2020-03-10T09:34:41.000Z</time>
      </trkpt>
      <trkpt lat="45.47537" lon="4.69911">
        <ele>606.59997558594</ele>
        <time>2020-03-10T09:34:42.000Z</time>
      </trkpt>
      <trkpt lat="45.47535" lon="4.69919">
        <ele>605.59997558594</ele>
        <time>2020-03-10T09:34:44.000Z</time>
      </trkpt>
      <trkpt lat="45.47533" lon="4.69929">
        <ele>604.79998779297</ele>
        <time>2020-03-10T09:34:47.000Z</time>
      </trkpt>
      <trkpt lat="45.47533" lon="4.69932">
        <ele>604.40002441406</ele>
        <time>2020-03-10T09:34:48.000Z</time>
      </trkpt>
      <trkpt lat="45.47532" lon="4.69937">
        <ele>603.20001220703</ele>
        <time>2020-03-10T09:34:50.000Z</time>
      </trkpt>
      <trkpt lat="45.4753" lon="4.69939">
        <ele>602.79998779297</ele>
        <time>2020-03-10T09:34:51.000Z</time>
      </trkpt>
      <trkpt lat="45.47528" lon="4.69944">
        <ele>602</ele>
        <time>2020-03-10T09:34:53.000Z</time>
      </trkpt>
      <trkpt lat="45.47528" lon="4.69946">
        <ele>601.79998779297</ele>
        <time>2020-03-10T09:34:54.000Z</time>
      </trkpt>
      <trkpt lat="45.47526" lon="4.69955">
        <ele>600.79998779297</ele>
        <time>2020-03-10T09:34:57.000Z</time>
      </trkpt>
      <trkpt lat="45.47525" lon="4.6996">
        <ele>600.40002441406</ele>
        <time>2020-03-10T09:34:58.000Z</time>
      </trkpt>
      <trkpt lat="45.47522" lon="4.69966">
        <ele>599.40002441406</ele>
        <time>2020-03-10T09:35:00.000Z</time>
      </trkpt>
      <trkpt lat="45.4752" lon="4.6997">
        <ele>599</ele>
        <time>2020-03-10T09:35:01.000Z</time>
      </trkpt>
      <trkpt lat="45.47517" lon="4.6998">
        <ele>598.40002441406</ele>
        <time>2020-03-10T09:35:03.000Z</time>
      </trkpt>
      <trkpt lat="45.47517" lon="4.69985">
        <ele>597.79998779297</ele>
        <time>2020-03-10T09:35:04.000Z</time>
      </trkpt>
      <trkpt lat="45.47515" lon="4.69996">
        <ele>597</ele>
        <time>2020-03-10T09:35:06.000Z</time>
      </trkpt>
      <trkpt lat="45.47513" lon="4.70012">
        <ele>595.59997558594</ele>
        <time>2020-03-10T09:35:09.000Z</time>
      </trkpt>
      <trkpt lat="45.47512" lon="4.70017">
        <ele>594.79998779297</ele>
        <time>2020-03-10T09:35:10.000Z</time>
      </trkpt>
      <trkpt lat="45.47511" lon="4.70022">
        <ele>594.79998779297</ele>
        <time>2020-03-10T09:35:11.000Z</time>
      </trkpt>
      <trkpt lat="45.4751" lon="4.70025">
        <ele>594.40002441406</ele>
        <time>2020-03-10T09:35:12.000Z</time>
      </trkpt>
      <trkpt lat="45.47509" lon="4.70042">
        <ele>593.40002441406</ele>
        <time>2020-03-10T09:35:16.000Z</time>
      </trkpt>
      <trkpt lat="45.47505" lon="4.70059">
        <ele>592.79998779297</ele>
        <time>2020-03-10T09:35:21.000Z</time>
      </trkpt>
      <trkpt lat="45.475" lon="4.7007">
        <ele>592.20001220703</ele>
        <time>2020-03-10T09:35:26.000Z</time>
      </trkpt>
      <trkpt lat="45.47498" lon="4.70075">
        <ele>592</ele>
        <time>2020-03-10T09:35:28.000Z</time>
      </trkpt>
      <trkpt lat="45.47494" lon="4.70083">
        <ele>591.59997558594</ele>
        <time>2020-03-10T09:35:31.000Z</time>
      </trkpt>
      <trkpt lat="45.47491" lon="4.70089">
        <ele>591.20001220703</ele>
        <time>2020-03-10T09:35:33.000Z</time>
      </trkpt>
      <trkpt lat="45.47489" lon="4.70094">
        <ele>590.59997558594</ele>
        <time>2020-03-10T09:35:35.000Z</time>
      </trkpt>
      <trkpt lat="45.47486" lon="4.70102">
        <ele>590.20001220703</ele>
        <time>2020-03-10T09:35:37.000Z</time>
      </trkpt>
      <trkpt lat="45.47481" lon="4.70116">
        <ele>589.40002441406</ele>
        <time>2020-03-10T09:35:41.000Z</time>
      </trkpt>
      <trkpt lat="45.47479" lon="4.70124">
        <ele>589</ele>
        <time>2020-03-10T09:35:43.000Z</time>
      </trkpt>
      <trkpt lat="45.47475" lon="4.70134">
        <ele>588.40002441406</ele>
        <time>2020-03-10T09:35:46.000Z</time>
      </trkpt>
      <trkpt lat="45.4747" lon="4.70144">
        <ele>588</ele>
        <time>2020-03-10T09:35:50.000Z</time>
      </trkpt>
      <trkpt lat="45.47468" lon="4.70146">
        <ele>588</ele>
        <time>2020-03-10T09:35:51.000Z</time>
      </trkpt>
      <trkpt lat="45.47466" lon="4.7015">
        <ele>588</ele>
        <time>2020-03-10T09:35:53.000Z</time>
      </trkpt>
      <trkpt lat="45.47463" lon="4.70157">
        <ele>588</ele>
        <time>2020-03-10T09:35:56.000Z</time>
      </trkpt>
      <trkpt lat="45.47461" lon="4.7016">
        <ele>588</ele>
        <time>2020-03-10T09:35:57.000Z</time>
      </trkpt>
      <trkpt lat="45.47457" lon="4.7017">
        <ele>587.59997558594</ele>
        <time>2020-03-10T09:36:00.000Z</time>
      </trkpt>
      <trkpt lat="45.47455" lon="4.70174">
        <ele>587.20001220703</ele>
        <time>2020-03-10T09:36:01.000Z</time>
      </trkpt>
      <trkpt lat="45.47452" lon="4.70183">
        <ele>586.79998779297</ele>
        <time>2020-03-10T09:36:03.000Z</time>
      </trkpt>
      <trkpt lat="45.47444" lon="4.702">
        <ele>585.59997558594</ele>
        <time>2020-03-10T09:36:08.000Z</time>
      </trkpt>
      <trkpt lat="45.47442" lon="4.70211">
        <ele>585.40002441406</ele>
        <time>2020-03-10T09:36:11.000Z</time>
      </trkpt>
      <trkpt lat="45.47439" lon="4.70219">
        <ele>585</ele>
        <time>2020-03-10T09:36:13.000Z</time>
      </trkpt>
      <trkpt lat="45.47435" lon="4.70227">
        <ele>584.59997558594</ele>
        <time>2020-03-10T09:36:16.000Z</time>
      </trkpt>
      <trkpt lat="45.47433" lon="4.70234">
        <ele>584.20001220703</ele>
        <time>2020-03-10T09:36:18.000Z</time>
      </trkpt>
      <trkpt lat="45.47428" lon="4.70243">
        <ele>583.40002441406</ele>
        <time>2020-03-10T09:36:21.000Z</time>
      </trkpt>
      <trkpt lat="45.47418" lon="4.70252">
        <ele>583.40002441406</ele>
        <time>2020-03-10T09:36:24.000Z</time>
      </trkpt>
      <trkpt lat="45.47405" lon="4.70268">
        <ele>583.79998779297</ele>
        <time>2020-03-10T09:36:30.000Z</time>
      </trkpt>
      <trkpt lat="45.47402" lon="4.70273">
        <ele>583.59997558594</ele>
        <time>2020-03-10T09:36:31.000Z</time>
      </trkpt>
      <trkpt lat="45.47396" lon="4.70289">
        <ele>583.20001220703</ele>
        <time>2020-03-10T09:36:35.000Z</time>
      </trkpt>
      <trkpt lat="45.47387" lon="4.70309">
        <ele>582.40002441406</ele>
        <time>2020-03-10T09:36:40.000Z</time>
      </trkpt>
      <trkpt lat="45.47386" lon="4.70313">
        <ele>582.20001220703</ele>
        <time>2020-03-10T09:36:41.000Z</time>
      </trkpt>
      <trkpt lat="45.47381" lon="4.70324">
        <ele>581.59997558594</ele>
        <time>2020-03-10T09:36:44.000Z</time>
      </trkpt>
      <trkpt lat="45.47379" lon="4.70327">
        <ele>581.40002441406</ele>
        <time>2020-03-10T09:36:45.000Z</time>
      </trkpt>
      <trkpt lat="45.47372" lon="4.7034">
        <ele>580.79998779297</ele>
        <time>2020-03-10T09:36:49.000Z</time>
      </trkpt>
      <trkpt lat="45.47371" lon="4.70344">
        <ele>580.79998779297</ele>
        <time>2020-03-10T09:36:50.000Z</time>
      </trkpt>
      <trkpt lat="45.47369" lon="4.70348">
        <ele>580.40002441406</ele>
        <time>2020-03-10T09:36:51.000Z</time>
      </trkpt>
      <trkpt lat="45.47367" lon="4.70355">
        <ele>580</ele>
        <time>2020-03-10T09:36:53.000Z</time>
      </trkpt>
      <trkpt lat="45.47366" lon="4.70358">
        <ele>580</ele>
        <time>2020-03-10T09:36:54.000Z</time>
      </trkpt>
      <trkpt lat="45.47365" lon="4.70361">
        <ele>579.79998779297</ele>
        <time>2020-03-10T09:36:55.000Z</time>
      </trkpt>
      <trkpt lat="45.4736" lon="4.70371">
        <ele>579</ele>
        <time>2020-03-10T09:36:59.000Z</time>
      </trkpt>
      <trkpt lat="45.47358" lon="4.70377">
        <ele>579</ele>
        <time>2020-03-10T09:37:01.000Z</time>
      </trkpt>
      <trkpt lat="45.47357" lon="4.70383">
        <ele>578.59997558594</ele>
        <time>2020-03-10T09:37:03.000Z</time>
      </trkpt>
      <trkpt lat="45.47355" lon="4.70387">
        <ele>578.40002441406</ele>
        <time>2020-03-10T09:37:04.000Z</time>
      </trkpt>
      <trkpt lat="45.47351" lon="4.70404">
        <ele>577.59997558594</ele>
        <time>2020-03-10T09:37:10.000Z</time>
      </trkpt>
      <trkpt lat="45.47349" lon="4.70407">
        <ele>577.40002441406</ele>
        <time>2020-03-10T09:37:11.000Z</time>
      </trkpt>
      <trkpt lat="45.47342" lon="4.70423">
        <ele>576.40002441406</ele>
        <time>2020-03-10T09:37:15.000Z</time>
      </trkpt>
      <trkpt lat="45.4734" lon="4.7043">
        <ele>576</ele>
        <time>2020-03-10T09:37:17.000Z</time>
      </trkpt>
      <trkpt lat="45.47333" lon="4.70439">
        <ele>576</ele>
        <time>2020-03-10T09:37:20.000Z</time>
      </trkpt>
      <trkpt lat="45.4733" lon="4.70442">
        <ele>575.79998779297</ele>
        <time>2020-03-10T09:37:21.000Z</time>
      </trkpt>
      <trkpt lat="45.47323" lon="4.70456">
        <ele>575.40002441406</ele>
        <time>2020-03-10T09:37:25.000Z</time>
      </trkpt>
      <trkpt lat="45.47315" lon="4.70473">
        <ele>574.79998779297</ele>
        <time>2020-03-10T09:37:30.000Z</time>
      </trkpt>
      <trkpt lat="45.47312" lon="4.70475">
        <ele>574.59997558594</ele>
        <time>2020-03-10T09:37:31.000Z</time>
      </trkpt>
      <trkpt lat="45.47305" lon="4.70483">
        <ele>573.59997558594</ele>
        <time>2020-03-10T09:37:34.000Z</time>
      </trkpt>
      <trkpt lat="45.473" lon="4.7049">
        <ele>573.40002441406</ele>
        <time>2020-03-10T09:37:36.000Z</time>
      </trkpt>
      <trkpt lat="45.47297" lon="4.70492">
        <ele>573</ele>
        <time>2020-03-10T09:37:37.000Z</time>
      </trkpt>
      <trkpt lat="45.47292" lon="4.70496">
        <ele>572.40002441406</ele>
        <time>2020-03-10T09:37:39.000Z</time>
      </trkpt>
      <trkpt lat="45.47287" lon="4.70498">
        <ele>571.79998779297</ele>
        <time>2020-03-10T09:37:41.000Z</time>
      </trkpt>
      <trkpt lat="45.47283" lon="4.70501">
        <ele>571.20001220703</ele>
        <time>2020-03-10T09:37:43.000Z</time>
      </trkpt>
      <trkpt lat="45.47281" lon="4.70501">
        <ele>570.79998779297</ele>
        <time>2020-03-10T09:37:44.000Z</time>
      </trkpt>
      <trkpt lat="45.47277" lon="4.70502">
        <ele>570</ele>
        <time>2020-03-10T09:37:46.000Z</time>
      </trkpt>
      <trkpt lat="45.47269" lon="4.70503">
        <ele>569</ele>
        <time>2020-03-10T09:37:49.000Z</time>
      </trkpt>
      <trkpt lat="45.47265" lon="4.70505">
        <ele>568.59997558594</ele>
        <time>2020-03-10T09:37:51.000Z</time>
      </trkpt>
      <trkpt lat="45.47255" lon="4.70511">
        <ele>567.79998779297</ele>
        <time>2020-03-10T09:37:55.000Z</time>
      </trkpt>
      <trkpt lat="45.4725" lon="4.70517">
        <ele>566.59997558594</ele>
        <time>2020-03-10T09:37:58.000Z</time>
      </trkpt>
      <trkpt lat="45.47246" lon="4.70519">
        <ele>566.20001220703</ele>
        <time>2020-03-10T09:38:00.000Z</time>
      </trkpt>
      <trkpt lat="45.47243" lon="4.7052">
        <ele>566</ele>
        <time>2020-03-10T09:38:01.000Z</time>
      </trkpt>
      <trkpt lat="45.47235" lon="4.70521">
        <ele>565.20001220703</ele>
        <time>2020-03-10T09:38:04.000Z</time>
      </trkpt>
      <trkpt lat="45.47231" lon="4.7052">
        <ele>564.40002441406</ele>
        <time>2020-03-10T09:38:06.000Z</time>
      </trkpt>
      <trkpt lat="45.47229" lon="4.7052">
        <ele>564</ele>
        <time>2020-03-10T09:38:07.000Z</time>
      </trkpt>
      <trkpt lat="45.47223" lon="4.70518">
        <ele>562.79998779297</ele>
        <time>2020-03-10T09:38:10.000Z</time>
      </trkpt>
      <trkpt lat="45.4722" lon="4.70518">
        <ele>562.40002441406</ele>
        <time>2020-03-10T09:38:11.000Z</time>
      </trkpt>
      <trkpt lat="45.47215" lon="4.70518">
        <ele>561.40002441406</ele>
        <time>2020-03-10T09:38:13.000Z</time>
      </trkpt>
      <trkpt lat="45.47207" lon="4.70516">
        <ele>560.40002441406</ele>
        <time>2020-03-10T09:38:16.000Z</time>
      </trkpt>
      <trkpt lat="45.47202" lon="4.70514">
        <ele>559.40002441406</ele>
        <time>2020-03-10T09:38:18.000Z</time>
      </trkpt>
      <trkpt lat="45.472" lon="4.70513">
        <ele>559</ele>
        <time>2020-03-10T09:38:19.000Z</time>
      </trkpt>
      <trkpt lat="45.47196" lon="4.70511">
        <ele>558</ele>
        <time>2020-03-10T09:38:21.000Z</time>
      </trkpt>
      <trkpt lat="45.47189" lon="4.70508">
        <ele>556.59997558594</ele>
        <time>2020-03-10T09:38:24.000Z</time>
      </trkpt>
      <trkpt lat="45.47185" lon="4.70503">
        <ele>555.40002441406</ele>
        <time>2020-03-10T09:38:26.000Z</time>
      </trkpt>
      <trkpt lat="45.4718" lon="4.70496">
        <ele>554.20001220703</ele>
        <time>2020-03-10T09:38:29.000Z</time>
      </trkpt>
      <trkpt lat="45.47179" lon="4.70494">
        <ele>553.79998779297</ele>
        <time>2020-03-10T09:38:30.000Z</time>
      </trkpt>
      <trkpt lat="45.47178" lon="4.70492">
        <ele>553.40002441406</ele>
        <time>2020-03-10T09:38:31.000Z</time>
      </trkpt>
      <trkpt lat="45.47176" lon="4.70489">
        <ele>553.20001220703</ele>
        <time>2020-03-10T09:38:32.000Z</time>
      </trkpt>
      <trkpt lat="45.47171" lon="4.70485">
        <ele>552.40002441406</ele>
        <time>2020-03-10T09:38:34.000Z</time>
      </trkpt>
      <trkpt lat="45.4717" lon="4.70484">
        <ele>552</ele>
        <time>2020-03-10T09:38:35.000Z</time>
      </trkpt>
      <trkpt lat="45.47166" lon="4.70478">
        <ele>551.20001220703</ele>
        <time>2020-03-10T09:38:37.000Z</time>
      </trkpt>
      <trkpt lat="45.47165" lon="4.70475">
        <ele>550.79998779297</ele>
        <time>2020-03-10T09:38:38.000Z</time>
      </trkpt>
      <trkpt lat="45.47161" lon="4.70468">
        <ele>550.20001220703</ele>
        <time>2020-03-10T09:38:41.000Z</time>
      </trkpt>
      <trkpt lat="45.47159" lon="4.70467">
        <ele>550.20001220703</ele>
        <time>2020-03-10T09:38:42.000Z</time>
      </trkpt>
      <trkpt lat="45.47155" lon="4.70463">
        <ele>549.59997558594</ele>
        <time>2020-03-10T09:38:44.000Z</time>
      </trkpt>
      <trkpt lat="45.4715" lon="4.70459">
        <ele>548.40002441406</ele>
        <time>2020-03-10T09:38:46.000Z</time>
      </trkpt>
      <trkpt lat="45.47146" lon="4.70455">
        <ele>547.59997558594</ele>
        <time>2020-03-10T09:38:48.000Z</time>
      </trkpt>
      <trkpt lat="45.47145" lon="4.70452">
        <ele>547.40002441406</ele>
        <time>2020-03-10T09:38:49.000Z</time>
      </trkpt>
      <trkpt lat="45.47142" lon="4.70447">
        <ele>546.79998779297</ele>
        <time>2020-03-10T09:38:51.000Z</time>
      </trkpt>
      <trkpt lat="45.47138" lon="4.7044">
        <ele>546</ele>
        <time>2020-03-10T09:38:53.000Z</time>
      </trkpt>
      <trkpt lat="45.47135" lon="4.70433">
        <ele>545.20001220703</ele>
        <time>2020-03-10T09:38:55.000Z</time>
      </trkpt>
      <trkpt lat="45.47133" lon="4.7043">
        <ele>544.79998779297</ele>
        <time>2020-03-10T09:38:56.000Z</time>
      </trkpt>
      <trkpt lat="45.47128" lon="4.70421">
        <ele>543.79998779297</ele>
        <time>2020-03-10T09:38:59.000Z</time>
      </trkpt>
      <trkpt lat="45.47125" lon="4.70414">
        <ele>543</ele>
        <time>2020-03-10T09:39:01.000Z</time>
      </trkpt>
      <trkpt lat="45.47124" lon="4.70411">
        <ele>542.40002441406</ele>
        <time>2020-03-10T09:39:02.000Z</time>
      </trkpt>
      <trkpt lat="45.47114" lon="4.70396">
        <ele>541</ele>
        <time>2020-03-10T09:39:06.000Z</time>
      </trkpt>
      <trkpt lat="45.47112" lon="4.70393">
        <ele>540.20001220703</ele>
        <time>2020-03-10T09:39:07.000Z</time>
      </trkpt>
      <trkpt lat="45.4711" lon="4.7039">
        <ele>539.40002441406</ele>
        <time>2020-03-10T09:39:08.000Z</time>
      </trkpt>
      <trkpt lat="45.47105" lon="4.70385">
        <ele>538.20001220703</ele>
        <time>2020-03-10T09:39:10.000Z</time>
      </trkpt>
      <trkpt lat="45.47102" lon="4.70383">
        <ele>537.79998779297</ele>
        <time>2020-03-10T09:39:11.000Z</time>
      </trkpt>
      <trkpt lat="45.47098" lon="4.70378">
        <ele>537</ele>
        <time>2020-03-10T09:39:13.000Z</time>
      </trkpt>
      <trkpt lat="45.47092" lon="4.70374">
        <ele>535.79998779297</ele>
        <time>2020-03-10T09:39:15.000Z</time>
      </trkpt>
      <trkpt lat="45.47085" lon="4.70369">
        <ele>534.79998779297</ele>
        <time>2020-03-10T09:39:17.000Z</time>
      </trkpt>
      <trkpt lat="45.47074" lon="4.70368">
        <ele>533.40002441406</ele>
        <time>2020-03-10T09:39:20.000Z</time>
      </trkpt>
      <trkpt lat="45.47071" lon="4.70367">
        <ele>533.20001220703</ele>
        <time>2020-03-10T09:39:21.000Z</time>
      </trkpt>
      <trkpt lat="45.47062" lon="4.70363">
        <ele>532.40002441406</ele>
        <time>2020-03-10T09:39:25.000Z</time>
      </trkpt>
      <trkpt lat="45.47058" lon="4.70361">
        <ele>531.79998779297</ele>
        <time>2020-03-10T09:39:27.000Z</time>
      </trkpt>
      <trkpt lat="45.47051" lon="4.70358">
        <ele>531.20001220703</ele>
        <time>2020-03-10T09:39:30.000Z</time>
      </trkpt>
      <trkpt lat="45.47048" lon="4.70356">
        <ele>531</ele>
        <time>2020-03-10T09:39:31.000Z</time>
      </trkpt>
      <trkpt lat="45.47044" lon="4.70356">
        <ele>530.79998779297</ele>
        <time>2020-03-10T09:39:33.000Z</time>
      </trkpt>
      <trkpt lat="45.47038" lon="4.70356">
        <ele>530</ele>
        <time>2020-03-10T09:39:35.000Z</time>
      </trkpt>
      <trkpt lat="45.47023" lon="4.70358">
        <ele>528.79998779297</ele>
        <time>2020-03-10T09:39:40.000Z</time>
      </trkpt>
      <trkpt lat="45.4702" lon="4.70359">
        <ele>528.59997558594</ele>
        <time>2020-03-10T09:39:41.000Z</time>
      </trkpt>
      <trkpt lat="45.47011" lon="4.70365">
        <ele>527.79998779297</ele>
        <time>2020-03-10T09:39:44.000Z</time>
      </trkpt>
      <trkpt lat="45.47006" lon="4.70369">
        <ele>527.79998779297</ele>
        <time>2020-03-10T09:39:46.000Z</time>
      </trkpt>
      <trkpt lat="45.46995" lon="4.70376">
        <ele>528</ele>
        <time>2020-03-10T09:39:50.000Z</time>
      </trkpt>
      <trkpt lat="45.46993" lon="4.70378">
        <ele>528</ele>
        <time>2020-03-10T09:39:51.000Z</time>
      </trkpt>
      <trkpt lat="45.46987" lon="4.70382">
        <ele>528.40002441406</ele>
        <time>2020-03-10T09:39:53.000Z</time>
      </trkpt>
      <trkpt lat="45.46979" lon="4.70388">
        <ele>528.59997558594</ele>
        <time>2020-03-10T09:39:57.000Z</time>
      </trkpt>
      <trkpt lat="45.46974" lon="4.70391">
        <ele>528.79998779297</ele>
        <time>2020-03-10T09:39:59.000Z</time>
      </trkpt>
      <trkpt lat="45.46969" lon="4.70393">
        <ele>529</ele>
        <time>2020-03-10T09:40:01.000Z</time>
      </trkpt>
      <trkpt lat="45.46954" lon="4.70395">
        <ele>529.79998779297</ele>
        <time>2020-03-10T09:40:07.000Z</time>
      </trkpt>
      <trkpt lat="45.4695" lon="4.70395">
        <ele>530</ele>
        <time>2020-03-10T09:40:09.000Z</time>
      </trkpt>
      <trkpt lat="45.46944" lon="4.70396">
        <ele>530.20001220703</ele>
        <time>2020-03-10T09:40:11.000Z</time>
      </trkpt>
      <trkpt lat="45.46941" lon="4.70397">
        <ele>530</ele>
        <time>2020-03-10T09:40:13.000Z</time>
      </trkpt>
      <trkpt lat="45.46938" lon="4.70399">
        <ele>529.79998779297</ele>
        <time>2020-03-10T09:40:14.000Z</time>
      </trkpt>
      <trkpt lat="45.46928" lon="4.7041">
        <ele>529</ele>
        <time>2020-03-10T09:40:18.000Z</time>
      </trkpt>
      <trkpt lat="45.46925" lon="4.7041">
        <ele>528.79998779297</ele>
        <time>2020-03-10T09:40:19.000Z</time>
      </trkpt>
      <trkpt lat="45.4692" lon="4.70407">
        <ele>528.59997558594</ele>
        <time>2020-03-10T09:40:21.000Z</time>
      </trkpt>
      <trkpt lat="45.46918" lon="4.70404">
        <ele>528.40002441406</ele>
        <time>2020-03-10T09:40:22.000Z</time>
      </trkpt>
      <trkpt lat="45.46913" lon="4.70396">
        <ele>527.59997558594</ele>
        <time>2020-03-10T09:40:25.000Z</time>
      </trkpt>
      <trkpt lat="45.46908" lon="4.70389">
        <ele>527.40002441406</ele>
        <time>2020-03-10T09:40:27.000Z</time>
      </trkpt>
      <trkpt lat="45.46899" lon="4.70381">
        <ele>526.79998779297</ele>
        <time>2020-03-10T09:40:31.000Z</time>
      </trkpt>
      <trkpt lat="45.46886" lon="4.70378">
        <ele>526.79998779297</ele>
        <time>2020-03-10T09:40:37.000Z</time>
      </trkpt>
      <trkpt lat="45.46878" lon="4.70383">
        <ele>527.20001220703</ele>
        <time>2020-03-10T09:40:41.000Z</time>
      </trkpt>
      <trkpt lat="45.46877" lon="4.70383">
        <ele>527.20001220703</ele>
        <time>2020-03-10T09:40:42.000Z</time>
      </trkpt>
      <trkpt lat="45.46874" lon="4.70396">
        <ele>525.79998779297</ele>
        <time>2020-03-10T09:41:20.000Z</time>
      </trkpt>
      <trkpt lat="45.46873" lon="4.70397">
        <ele>525.79998779297</ele>
        <time>2020-03-10T09:41:21.000Z</time>
      </trkpt>
      <trkpt lat="45.46869" lon="4.70401">
        <ele>525.59997558594</ele>
        <time>2020-03-10T09:41:23.000Z</time>
      </trkpt>
      <trkpt lat="45.46869" lon="4.70403">
        <ele>525.59997558594</ele>
        <time>2020-03-10T09:41:24.000Z</time>
      </trkpt>
      <trkpt lat="45.46868" lon="4.70407">
        <ele>525.20001220703</ele>
        <time>2020-03-10T09:41:26.000Z</time>
      </trkpt>
      <trkpt lat="45.46867" lon="4.70412">
        <ele>524.20001220703</ele>
        <time>2020-03-10T09:41:28.000Z</time>
      </trkpt>
      <trkpt lat="45.46867" lon="4.70419">
        <ele>523.40002441406</ele>
        <time>2020-03-10T09:41:30.000Z</time>
      </trkpt>
      <trkpt lat="45.46867" lon="4.70422">
        <ele>523</ele>
        <time>2020-03-10T09:41:31.000Z</time>
      </trkpt>
      <trkpt lat="45.46867" lon="4.70429">
        <ele>522.20001220703</ele>
        <time>2020-03-10T09:41:33.000Z</time>
      </trkpt>
      <trkpt lat="45.46868" lon="4.70432">
        <ele>522.20001220703</ele>
        <time>2020-03-10T09:41:34.000Z</time>
      </trkpt>
      <trkpt lat="45.46867" lon="4.70436">
        <ele>521.79998779297</ele>
        <time>2020-03-10T09:41:35.000Z</time>
      </trkpt>
      <trkpt lat="45.46869" lon="4.70447">
        <ele>520.59997558594</ele>
        <time>2020-03-10T09:41:39.000Z</time>
      </trkpt>
      <trkpt lat="45.4687" lon="4.70451">
        <ele>520.40002441406</ele>
        <time>2020-03-10T09:41:40.000Z</time>
      </trkpt>
      <trkpt lat="45.4687" lon="4.70455">
        <ele>519.79998779297</ele>
        <time>2020-03-10T09:41:41.000Z</time>
      </trkpt>
      <trkpt lat="45.46872" lon="4.70462">
        <ele>519.40002441406</ele>
        <time>2020-03-10T09:41:43.000Z</time>
      </trkpt>
      <trkpt lat="45.46874" lon="4.70473">
        <ele>518.40002441406</ele>
        <time>2020-03-10T09:41:46.000Z</time>
      </trkpt>
      <trkpt lat="45.46874" lon="4.70476">
        <ele>518</ele>
        <time>2020-03-10T09:41:47.000Z</time>
      </trkpt>
      <trkpt lat="45.46874" lon="4.70486">
        <ele>517.40002441406</ele>
        <time>2020-03-10T09:41:51.000Z</time>
      </trkpt>
      <trkpt lat="45.46872" lon="4.70489">
        <ele>517.40002441406</ele>
        <time>2020-03-10T09:41:52.000Z</time>
      </trkpt>
      <trkpt lat="45.46872" lon="4.70491">
        <ele>517.40002441406</ele>
        <time>2020-03-10T09:41:53.000Z</time>
      </trkpt>
      <trkpt lat="45.46873" lon="4.70504">
        <ele>516.40002441406</ele>
        <time>2020-03-10T09:41:57.000Z</time>
      </trkpt>
      <trkpt lat="45.46873" lon="4.70508">
        <ele>516</ele>
        <time>2020-03-10T09:41:58.000Z</time>
      </trkpt>
      <trkpt lat="45.46871" lon="4.70527">
        <ele>515.40002441406</ele>
        <time>2020-03-10T09:42:04.000Z</time>
      </trkpt>
      <trkpt lat="45.46871" lon="4.70533">
        <ele>515</ele>
        <time>2020-03-10T09:42:06.000Z</time>
      </trkpt>
      <trkpt lat="45.4687" lon="4.70537">
        <ele>515</ele>
        <time>2020-03-10T09:42:07.000Z</time>
      </trkpt>
      <trkpt lat="45.46869" lon="4.70547">
        <ele>514.40002441406</ele>
        <time>2020-03-10T09:42:10.000Z</time>
      </trkpt>
      <trkpt lat="45.46867" lon="4.70551">
        <ele>514</ele>
        <time>2020-03-10T09:42:11.000Z</time>
      </trkpt>
      <trkpt lat="45.46864" lon="4.70562">
        <ele>512.59997558594</ele>
        <time>2020-03-10T09:42:14.000Z</time>
      </trkpt>
      <trkpt lat="45.46862" lon="4.7057">
        <ele>511.79998779297</ele>
        <time>2020-03-10T09:42:16.000Z</time>
      </trkpt>
      <trkpt lat="45.4686" lon="4.70574">
        <ele>511.39999389648</ele>
        <time>2020-03-10T09:42:17.000Z</time>
      </trkpt>
      <trkpt lat="45.46856" lon="4.70585">
        <ele>510.20001220703</ele>
        <time>2020-03-10T09:42:20.000Z</time>
      </trkpt>
      <trkpt lat="45.46852" lon="4.70593">
        <ele>509.79998779297</ele>
        <time>2020-03-10T09:42:22.000Z</time>
      </trkpt>
      <trkpt lat="45.4685" lon="4.70597">
        <ele>509.20001220703</ele>
        <time>2020-03-10T09:42:23.000Z</time>
      </trkpt>
      <trkpt lat="45.46845" lon="4.7061">
        <ele>508</ele>
        <time>2020-03-10T09:42:26.000Z</time>
      </trkpt>
      <trkpt lat="45.46843" lon="4.70615">
        <ele>507.60000610352</ele>
        <time>2020-03-10T09:42:27.000Z</time>
      </trkpt>
      <trkpt lat="45.46839" lon="4.70626">
        <ele>506.60000610352</ele>
        <time>2020-03-10T09:42:29.000Z</time>
      </trkpt>
      <trkpt lat="45.46834" lon="4.70642">
        <ele>505.20001220703</ele>
        <time>2020-03-10T09:42:32.000Z</time>
      </trkpt>
      <trkpt lat="45.46833" lon="4.70646">
        <ele>504.60000610352</ele>
        <time>2020-03-10T09:42:33.000Z</time>
      </trkpt>
      <trkpt lat="45.46831" lon="4.7065">
        <ele>504.20001220703</ele>
        <time>2020-03-10T09:42:34.000Z</time>
      </trkpt>
      <trkpt lat="45.46827" lon="4.70659">
        <ele>503</ele>
        <time>2020-03-10T09:42:37.000Z</time>
      </trkpt>
      <trkpt lat="45.46823" lon="4.70668">
        <ele>502.20001220703</ele>
        <time>2020-03-10T09:42:40.000Z</time>
      </trkpt>
      <trkpt lat="45.46821" lon="4.70671">
        <ele>501.79998779297</ele>
        <time>2020-03-10T09:42:41.000Z</time>
      </trkpt>
      <trkpt lat="45.46819" lon="4.70672">
        <ele>501.60000610352</ele>
        <time>2020-03-10T09:42:42.000Z</time>
      </trkpt>
      <trkpt lat="45.46815" lon="4.70679">
        <ele>501</ele>
        <time>2020-03-10T09:42:45.000Z</time>
      </trkpt>
      <trkpt lat="45.46814" lon="4.70683">
        <ele>500.60000610352</ele>
        <time>2020-03-10T09:42:46.000Z</time>
      </trkpt>
      <trkpt lat="45.46807" lon="4.70699">
        <ele>499.79998779297</ele>
        <time>2020-03-10T09:42:49.000Z</time>
      </trkpt>
      <trkpt lat="45.46807" lon="4.70704">
        <ele>499.39999389648</ele>
        <time>2020-03-10T09:42:50.000Z</time>
      </trkpt>
      <trkpt lat="45.46805" lon="4.70714">
        <ele>498.79998779297</ele>
        <time>2020-03-10T09:42:52.000Z</time>
      </trkpt>
      <trkpt lat="45.46804" lon="4.70718">
        <ele>498.79998779297</ele>
        <time>2020-03-10T09:42:53.000Z</time>
      </trkpt>
      <trkpt lat="45.46804" lon="4.7072">
        <ele>498.60000610352</ele>
        <time>2020-03-10T09:42:54.000Z</time>
      </trkpt>
      <trkpt lat="45.46805" lon="4.70722">
        <ele>498.20001220703</ele>
        <time>2020-03-10T09:42:55.000Z</time>
      </trkpt>
      <trkpt lat="45.46805" lon="4.70723">
        <ele>497.79998779297</ele>
        <time>2020-03-10T09:42:56.000Z</time>
      </trkpt>
      <trkpt lat="45.46807" lon="4.70727">
        <ele>497.60000610352</ele>
        <time>2020-03-10T09:42:57.000Z</time>
      </trkpt>
      <trkpt lat="45.46807" lon="4.7073">
        <ele>497.20001220703</ele>
        <time>2020-03-10T09:42:58.000Z</time>
      </trkpt>
      <trkpt lat="45.46809" lon="4.70741">
        <ele>496.20001220703</ele>
        <time>2020-03-10T09:43:02.000Z</time>
      </trkpt>
      <trkpt lat="45.4681" lon="4.70745">
        <ele>496</ele>
        <time>2020-03-10T09:43:03.000Z</time>
      </trkpt>
      <trkpt lat="45.46812" lon="4.7075">
        <ele>495</ele>
        <time>2020-03-10T09:43:05.000Z</time>
      </trkpt>
      <trkpt lat="45.46811" lon="4.70757">
        <ele>494</ele>
        <time>2020-03-10T09:43:08.000Z</time>
      </trkpt>
      <trkpt lat="45.46811" lon="4.7076">
        <ele>493.60000610352</ele>
        <time>2020-03-10T09:43:09.000Z</time>
      </trkpt>
      <trkpt lat="45.46812" lon="4.70764">
        <ele>493</ele>
        <time>2020-03-10T09:43:10.000Z</time>
      </trkpt>
      <trkpt lat="45.46813" lon="4.70766">
        <ele>492.20001220703</ele>
        <time>2020-03-10T09:43:11.000Z</time>
      </trkpt>
      <trkpt lat="45.46814" lon="4.7077">
        <ele>491.79998779297</ele>
        <time>2020-03-10T09:43:12.000Z</time>
      </trkpt>
      <trkpt lat="45.46815" lon="4.70775">
        <ele>491.20001220703</ele>
        <time>2020-03-10T09:43:13.000Z</time>
      </trkpt>
      <trkpt lat="45.46817" lon="4.7078">
        <ele>490.79998779297</ele>
        <time>2020-03-10T09:43:15.000Z</time>
      </trkpt>
      <trkpt lat="45.4682" lon="4.70786">
        <ele>490.20001220703</ele>
        <time>2020-03-10T09:43:17.000Z</time>
      </trkpt>
      <trkpt lat="45.46821" lon="4.7079">
        <ele>490.20001220703</ele>
        <time>2020-03-10T09:43:18.000Z</time>
      </trkpt>
      <trkpt lat="45.46824" lon="4.70799">
        <ele>489.79998779297</ele>
        <time>2020-03-10T09:43:21.000Z</time>
      </trkpt>
      <trkpt lat="45.46826" lon="4.70802">
        <ele>489.39999389648</ele>
        <time>2020-03-10T09:43:22.000Z</time>
      </trkpt>
      <trkpt lat="45.46828" lon="4.70806">
        <ele>488.79998779297</ele>
        <time>2020-03-10T09:43:23.000Z</time>
      </trkpt>
      <trkpt lat="45.46831" lon="4.70816">
        <ele>487.39999389648</ele>
        <time>2020-03-10T09:43:26.000Z</time>
      </trkpt>
      <trkpt lat="45.4683" lon="4.70821">
        <ele>487</ele>
        <time>2020-03-10T09:43:27.000Z</time>
      </trkpt>
      <trkpt lat="45.46832" lon="4.70836">
        <ele>486.39999389648</ele>
        <time>2020-03-10T09:43:30.000Z</time>
      </trkpt>
      <trkpt lat="45.46832" lon="4.7084">
        <ele>486.20001220703</ele>
        <time>2020-03-10T09:43:31.000Z</time>
      </trkpt>
      <trkpt lat="45.46832" lon="4.70843">
        <ele>485.60000610352</ele>
        <time>2020-03-10T09:43:32.000Z</time>
      </trkpt>
      <trkpt lat="45.46832" lon="4.70847">
        <ele>485.20001220703</ele>
        <time>2020-03-10T09:43:33.000Z</time>
      </trkpt>
      <trkpt lat="45.46832" lon="4.70856">
        <ele>484.39999389648</ele>
        <time>2020-03-10T09:43:36.000Z</time>
      </trkpt>
      <trkpt lat="45.46831" lon="4.7086">
        <ele>484</ele>
        <time>2020-03-10T09:43:37.000Z</time>
      </trkpt>
      <trkpt lat="45.46831" lon="4.7087">
        <ele>482.79998779297</ele>
        <time>2020-03-10T09:43:40.000Z</time>
      </trkpt>
      <trkpt lat="45.46831" lon="4.70874">
        <ele>482.39999389648</ele>
        <time>2020-03-10T09:43:41.000Z</time>
      </trkpt>
      <trkpt lat="45.46831" lon="4.70878">
        <ele>482</ele>
        <time>2020-03-10T09:43:42.000Z</time>
      </trkpt>
      <trkpt lat="45.46831" lon="4.70881">
        <ele>481.60000610352</ele>
        <time>2020-03-10T09:43:43.000Z</time>
      </trkpt>
      <trkpt lat="45.46832" lon="4.70888">
        <ele>480.39999389648</ele>
        <time>2020-03-10T09:43:45.000Z</time>
      </trkpt>
      <trkpt lat="45.46834" lon="4.70899">
        <ele>479</ele>
        <time>2020-03-10T09:43:48.000Z</time>
      </trkpt>
      <trkpt lat="45.46835" lon="4.70912">
        <ele>477.79998779297</ele>
        <time>2020-03-10T09:43:51.000Z</time>
      </trkpt>
      <trkpt lat="45.46834" lon="4.70917">
        <ele>477.39999389648</ele>
        <time>2020-03-10T09:43:52.000Z</time>
      </trkpt>
      <trkpt lat="45.46832" lon="4.70926">
        <ele>476.79998779297</ele>
        <time>2020-03-10T09:43:54.000Z</time>
      </trkpt>
      <trkpt lat="45.46828" lon="4.70939">
        <ele>475.39999389648</ele>
        <time>2020-03-10T09:43:57.000Z</time>
      </trkpt>
      <trkpt lat="45.46824" lon="4.70953">
        <ele>474.39999389648</ele>
        <time>2020-03-10T09:44:00.000Z</time>
      </trkpt>
      <trkpt lat="45.46824" lon="4.70957">
        <ele>474.20001220703</ele>
        <time>2020-03-10T09:44:01.000Z</time>
      </trkpt>
      <trkpt lat="45.46822" lon="4.70961">
        <ele>474.20001220703</ele>
        <time>2020-03-10T09:44:02.000Z</time>
      </trkpt>
      <trkpt lat="45.46815" lon="4.70977">
        <ele>473.20001220703</ele>
        <time>2020-03-10T09:44:07.000Z</time>
      </trkpt>
      <trkpt lat="45.46806" lon="4.70993">
        <ele>472.39999389648</ele>
        <time>2020-03-10T09:44:12.000Z</time>
      </trkpt>
      <trkpt lat="45.46804" lon="4.70996">
        <ele>471.79998779297</ele>
        <time>2020-03-10T09:44:13.000Z</time>
      </trkpt>
      <trkpt lat="45.46796" lon="4.71004">
        <ele>470.60000610352</ele>
        <time>2020-03-10T09:44:16.000Z</time>
      </trkpt>
      <trkpt lat="45.46788" lon="4.71008">
        <ele>469.79998779297</ele>
        <time>2020-03-10T09:44:19.000Z</time>
      </trkpt>
      <trkpt lat="45.46779" lon="4.71014">
        <ele>469.60000610352</ele>
        <time>2020-03-10T09:44:22.000Z</time>
      </trkpt>
      <trkpt lat="45.46767" lon="4.71016">
        <ele>469</ele>
        <time>2020-03-10T09:44:26.000Z</time>
      </trkpt>
      <trkpt lat="45.46752" lon="4.71014">
        <ele>468.79998779297</ele>
        <time>2020-03-10T09:44:32.000Z</time>
      </trkpt>
      <trkpt lat="45.46746" lon="4.71012">
        <ele>468.60000610352</ele>
        <time>2020-03-10T09:44:34.000Z</time>
      </trkpt>
      <trkpt lat="45.46742" lon="4.71007">
        <ele>468.39999389648</ele>
        <time>2020-03-10T09:44:37.000Z</time>
      </trkpt>
      <trkpt lat="45.4673" lon="4.71">
        <ele>468.39999389648</ele>
        <time>2020-03-10T09:44:42.000Z</time>
      </trkpt>
      <trkpt lat="45.46728" lon="4.70998">
        <ele>468.39999389648</ele>
        <time>2020-03-10T09:44:43.000Z</time>
      </trkpt>
      <trkpt lat="45.4672" lon="4.70993">
        <ele>468.20001220703</ele>
        <time>2020-03-10T09:44:46.000Z</time>
      </trkpt>
      <trkpt lat="45.46715" lon="4.70991">
        <ele>467.79998779297</ele>
        <time>2020-03-10T09:44:48.000Z</time>
      </trkpt>
      <trkpt lat="45.46707" lon="4.7099">
        <ele>467.39999389648</ele>
        <time>2020-03-10T09:44:51.000Z</time>
      </trkpt>
      <trkpt lat="45.46705" lon="4.70989">
        <ele>467.20001220703</ele>
        <time>2020-03-10T09:44:52.000Z</time>
      </trkpt>
      <trkpt lat="45.46699" lon="4.70987">
        <ele>467.20001220703</ele>
        <time>2020-03-10T09:44:54.000Z</time>
      </trkpt>
      <trkpt lat="45.4668" lon="4.70978">
        <ele>466.79998779297</ele>
        <time>2020-03-10T09:45:01.000Z</time>
      </trkpt>
      <trkpt lat="45.46678" lon="4.70977">
        <ele>466.79998779297</ele>
        <time>2020-03-10T09:45:02.000Z</time>
      </trkpt>
      <trkpt lat="45.46671" lon="4.70973">
        <ele>466.60000610352</ele>
        <time>2020-03-10T09:45:05.000Z</time>
      </trkpt>
      <trkpt lat="45.46665" lon="4.70968">
        <ele>467.20001220703</ele>
        <time>2020-03-10T09:45:08.000Z</time>
      </trkpt>
      <trkpt lat="45.46657" lon="4.70966">
        <ele>468</ele>
        <time>2020-03-10T09:45:11.000Z</time>
      </trkpt>
      <trkpt lat="45.46655" lon="4.70968">
        <ele>468</ele>
        <time>2020-03-10T09:45:12.000Z</time>
      </trkpt>
      <trkpt lat="45.46653" lon="4.7097">
        <ele>468.20001220703</ele>
        <time>2020-03-10T09:45:13.000Z</time>
      </trkpt>
      <trkpt lat="45.46652" lon="4.70989">
        <ele>468</ele>
        <time>2020-03-10T09:45:18.000Z</time>
      </trkpt>
      <trkpt lat="45.46652" lon="4.71003">
        <ele>466.20001220703</ele>
        <time>2020-03-10T09:45:21.000Z</time>
      </trkpt>
      <trkpt lat="45.46652" lon="4.71007">
        <ele>465.79998779297</ele>
        <time>2020-03-10T09:45:22.000Z</time>
      </trkpt>
      <trkpt lat="45.46652" lon="4.71015">
        <ele>465.39999389648</ele>
        <time>2020-03-10T09:45:24.000Z</time>
      </trkpt>
      <trkpt lat="45.46652" lon="4.7102">
        <ele>465.20001220703</ele>
        <time>2020-03-10T09:45:25.000Z</time>
      </trkpt>
      <trkpt lat="45.46653" lon="4.71036">
        <ele>464</ele>
        <time>2020-03-10T09:45:29.000Z</time>
      </trkpt>
      <trkpt lat="45.46652" lon="4.71045">
        <ele>463.79998779297</ele>
        <time>2020-03-10T09:45:31.000Z</time>
      </trkpt>
      <trkpt lat="45.46652" lon="4.71049">
        <ele>463.60000610352</ele>
        <time>2020-03-10T09:45:32.000Z</time>
      </trkpt>
      <trkpt lat="45.46651" lon="4.71068">
        <ele>462.79998779297</ele>
        <time>2020-03-10T09:45:37.000Z</time>
      </trkpt>
      <trkpt lat="45.46651" lon="4.71072">
        <ele>462.79998779297</ele>
        <time>2020-03-10T09:45:38.000Z</time>
      </trkpt>
      <trkpt lat="45.46648" lon="4.71086">
        <ele>462.39999389648</ele>
        <time>2020-03-10T09:45:42.000Z</time>
      </trkpt>
      <trkpt lat="45.46645" lon="4.71096">
        <ele>462.20001220703</ele>
        <time>2020-03-10T09:45:45.000Z</time>
      </trkpt>
      <trkpt lat="45.46638" lon="4.7112">
        <ele>462.39999389648</ele>
        <time>2020-03-10T09:45:52.000Z</time>
      </trkpt>
      <trkpt lat="45.46637" lon="4.71127">
        <ele>462.39999389648</ele>
        <time>2020-03-10T09:45:54.000Z</time>
      </trkpt>
      <trkpt lat="45.46636" lon="4.71141">
        <ele>461.79998779297</ele>
        <time>2020-03-10T09:45:58.000Z</time>
      </trkpt>
      <trkpt lat="45.46635" lon="4.71147">
        <ele>461.79998779297</ele>
        <time>2020-03-10T09:46:00.000Z</time>
      </trkpt>
      <trkpt lat="45.46636" lon="4.71154">
        <ele>461.60000610352</ele>
        <time>2020-03-10T09:46:02.000Z</time>
      </trkpt>
      <trkpt lat="45.46634" lon="4.71169">
        <ele>462</ele>
        <time>2020-03-10T09:46:07.000Z</time>
      </trkpt>
      <trkpt lat="45.46633" lon="4.71184">
        <ele>462.39999389648</ele>
        <time>2020-03-10T09:46:12.000Z</time>
      </trkpt>
      <trkpt lat="45.46632" lon="4.71187">
        <ele>462.60000610352</ele>
        <time>2020-03-10T09:46:13.000Z</time>
      </trkpt>
      <trkpt lat="45.46629" lon="4.71204">
        <ele>462.60000610352</ele>
        <time>2020-03-10T09:46:18.000Z</time>
      </trkpt>
      <trkpt lat="45.46628" lon="4.71213">
        <ele>462.60000610352</ele>
        <time>2020-03-10T09:46:21.000Z</time>
      </trkpt>
      <trkpt lat="45.46628" lon="4.71216">
        <ele>462.79998779297</ele>
        <time>2020-03-10T09:46:22.000Z</time>
      </trkpt>
      <trkpt lat="45.46628" lon="4.71219">
        <ele>462.60000610352</ele>
        <time>2020-03-10T09:46:23.000Z</time>
      </trkpt>
      <trkpt lat="45.46627" lon="4.71239">
        <ele>461.79998779297</ele>
        <time>2020-03-10T09:46:29.000Z</time>
      </trkpt>
      <trkpt lat="45.46629" lon="4.71251">
        <ele>461.39999389648</ele>
        <time>2020-03-10T09:46:32.000Z</time>
      </trkpt>
      <trkpt lat="45.46632" lon="4.71262">
        <ele>460.60000610352</ele>
        <time>2020-03-10T09:46:35.000Z</time>
      </trkpt>
      <trkpt lat="45.46635" lon="4.71274">
        <ele>459.39999389648</ele>
        <time>2020-03-10T09:46:38.000Z</time>
      </trkpt>
      <trkpt lat="45.46634" lon="4.7129">
        <ele>458.20001220703</ele>
        <time>2020-03-10T09:46:42.000Z</time>
      </trkpt>
      <trkpt lat="45.46631" lon="4.7131">
        <ele>457.20001220703</ele>
        <time>2020-03-10T09:46:47.000Z</time>
      </trkpt>
      <trkpt lat="45.4663" lon="4.71313">
        <ele>457</ele>
        <time>2020-03-10T09:46:48.000Z</time>
      </trkpt>
      <trkpt lat="45.46623" lon="4.71324">
        <ele>456.20001220703</ele>
        <time>2020-03-10T09:46:52.000Z</time>
      </trkpt>
      <trkpt lat="45.46621" lon="4.71325">
        <ele>455.79998779297</ele>
        <time>2020-03-10T09:46:53.000Z</time>
      </trkpt>
      <trkpt lat="45.46619" lon="4.71328">
        <ele>455.60000610352</ele>
        <time>2020-03-10T09:46:54.000Z</time>
      </trkpt>
      <trkpt lat="45.46613" lon="4.7134">
        <ele>454.79998779297</ele>
        <time>2020-03-10T09:46:58.000Z</time>
      </trkpt>
      <trkpt lat="45.46609" lon="4.71346">
        <ele>454.20001220703</ele>
        <time>2020-03-10T09:47:00.000Z</time>
      </trkpt>
      <trkpt lat="45.46605" lon="4.71353">
        <ele>453.60000610352</ele>
        <time>2020-03-10T09:47:02.000Z</time>
      </trkpt>
      <trkpt lat="45.46595" lon="4.71362">
        <ele>453.20001220703</ele>
        <time>2020-03-10T09:47:06.000Z</time>
      </trkpt>
      <trkpt lat="45.46584" lon="4.71375">
        <ele>452.60000610352</ele>
        <time>2020-03-10T09:47:11.000Z</time>
      </trkpt>
      <trkpt lat="45.46581" lon="4.71379">
        <ele>452.20001220703</ele>
        <time>2020-03-10T09:47:12.000Z</time>
      </trkpt>
      <trkpt lat="45.46575" lon="4.71394">
        <ele>451.20001220703</ele>
        <time>2020-03-10T09:47:16.000Z</time>
      </trkpt>
      <trkpt lat="45.46574" lon="4.71396">
        <ele>451.20001220703</ele>
        <time>2020-03-10T09:47:17.000Z</time>
      </trkpt>
      <trkpt lat="45.4657" lon="4.71404">
        <ele>450.20001220703</ele>
        <time>2020-03-10T09:47:20.000Z</time>
      </trkpt>
      <trkpt lat="45.46567" lon="4.71411">
        <ele>450</ele>
        <time>2020-03-10T09:47:22.000Z</time>
      </trkpt>
      <trkpt lat="45.46565" lon="4.71413">
        <ele>450</ele>
        <time>2020-03-10T09:47:23.000Z</time>
      </trkpt>
      <trkpt lat="45.46559" lon="4.71421">
        <ele>449.20001220703</ele>
        <time>2020-03-10T09:47:27.000Z</time>
      </trkpt>
      <trkpt lat="45.46555" lon="4.71428">
        <ele>448.79998779297</ele>
        <time>2020-03-10T09:47:29.000Z</time>
      </trkpt>
      <trkpt lat="45.46552" lon="4.71434">
        <ele>448.39999389648</ele>
        <time>2020-03-10T09:47:31.000Z</time>
      </trkpt>
      <trkpt lat="45.46551" lon="4.71436">
        <ele>448</ele>
        <time>2020-03-10T09:47:32.000Z</time>
      </trkpt>
      <trkpt lat="45.46546" lon="4.71448">
        <ele>447.39999389648</ele>
        <time>2020-03-10T09:47:36.000Z</time>
      </trkpt>
      <trkpt lat="45.46543" lon="4.71453">
        <ele>447</ele>
        <time>2020-03-10T09:47:38.000Z</time>
      </trkpt>
      <trkpt lat="45.46539" lon="4.71463">
        <ele>446</ele>
        <time>2020-03-10T09:47:41.000Z</time>
      </trkpt>
      <trkpt lat="45.46536" lon="4.71464">
        <ele>445.79998779297</ele>
        <time>2020-03-10T09:47:42.000Z</time>
      </trkpt>
      <trkpt lat="45.46527" lon="4.71466">
        <ele>444.79998779297</ele>
        <time>2020-03-10T09:47:45.000Z</time>
      </trkpt>
      <trkpt lat="45.46521" lon="4.71468">
        <ele>444.39999389648</ele>
        <time>2020-03-10T09:47:47.000Z</time>
      </trkpt>
      <trkpt lat="45.46516" lon="4.71471">
        <ele>443.60000610352</ele>
        <time>2020-03-10T09:47:49.000Z</time>
      </trkpt>
      <trkpt lat="45.46512" lon="4.71474">
        <ele>442.60000610352</ele>
        <time>2020-03-10T09:47:51.000Z</time>
      </trkpt>
      <trkpt lat="45.4651" lon="4.71476">
        <ele>442.20001220703</ele>
        <time>2020-03-10T09:47:52.000Z</time>
      </trkpt>
      <trkpt lat="45.46507" lon="4.7148">
        <ele>441.60000610352</ele>
        <time>2020-03-10T09:47:54.000Z</time>
      </trkpt>
      <trkpt lat="45.46501" lon="4.71485">
        <ele>440</ele>
        <time>2020-03-10T09:47:57.000Z</time>
      </trkpt>
      <trkpt lat="45.46496" lon="4.71486">
        <ele>439</ele>
        <time>2020-03-10T09:47:59.000Z</time>
      </trkpt>
      <trkpt lat="45.4649" lon="4.71484">
        <ele>438</ele>
        <time>2020-03-10T09:48:02.000Z</time>
      </trkpt>
      <trkpt lat="45.46485" lon="4.71484">
        <ele>437.39999389648</ele>
        <time>2020-03-10T09:48:04.000Z</time>
      </trkpt>
      <trkpt lat="45.46483" lon="4.71485">
        <ele>436.79998779297</ele>
        <time>2020-03-10T09:48:05.000Z</time>
      </trkpt>
      <trkpt lat="45.46482" lon="4.71487">
        <ele>436.20001220703</ele>
        <time>2020-03-10T09:48:06.000Z</time>
      </trkpt>
      <trkpt lat="45.46481" lon="4.71489">
        <ele>435.60000610352</ele>
        <time>2020-03-10T09:48:07.000Z</time>
      </trkpt>
      <trkpt lat="45.4648" lon="4.71491">
        <ele>435.20001220703</ele>
        <time>2020-03-10T09:48:08.000Z</time>
      </trkpt>
      <trkpt lat="45.46478" lon="4.71494">
        <ele>434.60000610352</ele>
        <time>2020-03-10T09:48:09.000Z</time>
      </trkpt>
      <trkpt lat="45.46476" lon="4.71496">
        <ele>434.20001220703</ele>
        <time>2020-03-10T09:48:10.000Z</time>
      </trkpt>
      <trkpt lat="45.46473" lon="4.715">
        <ele>433.60000610352</ele>
        <time>2020-03-10T09:48:12.000Z</time>
      </trkpt>
      <trkpt lat="45.46469" lon="4.71503">
        <ele>433.20001220703</ele>
        <time>2020-03-10T09:48:14.000Z</time>
      </trkpt>
      <trkpt lat="45.46459" lon="4.71513">
        <ele>431.79998779297</ele>
        <time>2020-03-10T09:48:19.000Z</time>
      </trkpt>
      <trkpt lat="45.46457" lon="4.71515">
        <ele>431.20001220703</ele>
        <time>2020-03-10T09:48:20.000Z</time>
      </trkpt>
      <trkpt lat="45.46455" lon="4.71522">
        <ele>430.60000610352</ele>
        <time>2020-03-10T09:48:22.000Z</time>
      </trkpt>
      <trkpt lat="45.46451" lon="4.71532">
        <ele>429.79998779297</ele>
        <time>2020-03-10T09:48:25.000Z</time>
      </trkpt>
      <trkpt lat="45.46449" lon="4.71539">
        <ele>429.39999389648</ele>
        <time>2020-03-10T09:48:27.000Z</time>
      </trkpt>
      <trkpt lat="45.46447" lon="4.71546">
        <ele>428.39999389648</ele>
        <time>2020-03-10T09:48:29.000Z</time>
      </trkpt>
      <trkpt lat="45.46447" lon="4.7155">
        <ele>427.79998779297</ele>
        <time>2020-03-10T09:48:30.000Z</time>
      </trkpt>
      <trkpt lat="45.46446" lon="4.71553">
        <ele>427.60000610352</ele>
        <time>2020-03-10T09:48:31.000Z</time>
      </trkpt>
      <trkpt lat="45.46446" lon="4.71557">
        <ele>427.39999389648</ele>
        <time>2020-03-10T09:48:32.000Z</time>
      </trkpt>
      <trkpt lat="45.46446" lon="4.71567">
        <ele>426.39999389648</ele>
        <time>2020-03-10T09:48:35.000Z</time>
      </trkpt>
      <trkpt lat="45.46445" lon="4.71571">
        <ele>426</ele>
        <time>2020-03-10T09:48:36.000Z</time>
      </trkpt>
      <trkpt lat="45.46443" lon="4.71586">
        <ele>425</ele>
        <time>2020-03-10T09:48:40.000Z</time>
      </trkpt>
      <trkpt lat="45.46441" lon="4.7159">
        <ele>424.60000610352</ele>
        <time>2020-03-10T09:48:41.000Z</time>
      </trkpt>
      <trkpt lat="45.46439" lon="4.71592">
        <ele>424</ele>
        <time>2020-03-10T09:48:42.000Z</time>
      </trkpt>
      <trkpt lat="45.46438" lon="4.71595">
        <ele>423.60000610352</ele>
        <time>2020-03-10T09:48:43.000Z</time>
      </trkpt>
      <trkpt lat="45.46434" lon="4.71605">
        <ele>422.60000610352</ele>
        <time>2020-03-10T09:48:46.000Z</time>
      </trkpt>
      <trkpt lat="45.46433" lon="4.7161">
        <ele>422.20001220703</ele>
        <time>2020-03-10T09:48:47.000Z</time>
      </trkpt>
      <trkpt lat="45.4643" lon="4.71623">
        <ele>420.79998779297</ele>
        <time>2020-03-10T09:48:50.000Z</time>
      </trkpt>
      <trkpt lat="45.46427" lon="4.71631">
        <ele>419.20001220703</ele>
        <time>2020-03-10T09:48:52.000Z</time>
      </trkpt>
      <trkpt lat="45.46424" lon="4.71638">
        <ele>417.79998779297</ele>
        <time>2020-03-10T09:48:54.000Z</time>
      </trkpt>
      <trkpt lat="45.4642" lon="4.71649">
        <ele>416.20001220703</ele>
        <time>2020-03-10T09:48:57.000Z</time>
      </trkpt>
      <trkpt lat="45.46418" lon="4.71652">
        <ele>415.60000610352</ele>
        <time>2020-03-10T09:48:58.000Z</time>
      </trkpt>
      <trkpt lat="45.46417" lon="4.71656">
        <ele>415.20001220703</ele>
        <time>2020-03-10T09:48:59.000Z</time>
      </trkpt>
      <trkpt lat="45.46414" lon="4.71666">
        <ele>414.20001220703</ele>
        <time>2020-03-10T09:49:02.000Z</time>
      </trkpt>
      <trkpt lat="45.46411" lon="4.71677">
        <ele>412.79998779297</ele>
        <time>2020-03-10T09:49:05.000Z</time>
      </trkpt>
      <trkpt lat="45.46407" lon="4.71686">
        <ele>411.60000610352</ele>
        <time>2020-03-10T09:49:08.000Z</time>
      </trkpt>
      <trkpt lat="45.46404" lon="4.71692">
        <ele>411</ele>
        <time>2020-03-10T09:49:10.000Z</time>
      </trkpt>
      <trkpt lat="45.46402" lon="4.71699">
        <ele>410.60000610352</ele>
        <time>2020-03-10T09:49:12.000Z</time>
      </trkpt>
      <trkpt lat="45.46394" lon="4.71715">
        <ele>409.39999389648</ele>
        <time>2020-03-10T09:49:17.000Z</time>
      </trkpt>
      <trkpt lat="45.46393" lon="4.71719">
        <ele>409.20001220703</ele>
        <time>2020-03-10T09:49:18.000Z</time>
      </trkpt>
      <trkpt lat="45.46387" lon="4.71732">
        <ele>408.20001220703</ele>
        <time>2020-03-10T09:49:22.000Z</time>
      </trkpt>
      <trkpt lat="45.46384" lon="4.71738">
        <ele>407.39999389648</ele>
        <time>2020-03-10T09:49:24.000Z</time>
      </trkpt>
      <trkpt lat="45.46382" lon="4.71742">
        <ele>407.20001220703</ele>
        <time>2020-03-10T09:49:25.000Z</time>
      </trkpt>
      <trkpt lat="45.46374" lon="4.7176">
        <ele>406</ele>
        <time>2020-03-10T09:49:31.000Z</time>
      </trkpt>
      <trkpt lat="45.46373" lon="4.71764">
        <ele>405.79998779297</ele>
        <time>2020-03-10T09:49:32.000Z</time>
      </trkpt>
      <trkpt lat="45.46368" lon="4.71777">
        <ele>405</ele>
        <time>2020-03-10T09:49:36.000Z</time>
      </trkpt>
      <trkpt lat="45.46364" lon="4.71787">
        <ele>404.60000610352</ele>
        <time>2020-03-10T09:49:39.000Z</time>
      </trkpt>
      <trkpt lat="45.46362" lon="4.71793">
        <ele>403.79998779297</ele>
        <time>2020-03-10T09:49:41.000Z</time>
      </trkpt>
      <trkpt lat="45.4636" lon="4.71796">
        <ele>403.79998779297</ele>
        <time>2020-03-10T09:49:42.000Z</time>
      </trkpt>
      <trkpt lat="45.46356" lon="4.71806">
        <ele>403.20001220703</ele>
        <time>2020-03-10T09:49:45.000Z</time>
      </trkpt>
      <trkpt lat="45.46352" lon="4.71816">
        <ele>402.79998779297</ele>
        <time>2020-03-10T09:49:48.000Z</time>
      </trkpt>
      <trkpt lat="45.46347" lon="4.71828">
        <ele>402.20001220703</ele>
        <time>2020-03-10T09:49:52.000Z</time>
      </trkpt>
      <trkpt lat="45.46346" lon="4.71831">
        <ele>402</ele>
        <time>2020-03-10T09:49:53.000Z</time>
      </trkpt>
      <trkpt lat="45.46343" lon="4.71838">
        <ele>401.79998779297</ele>
        <time>2020-03-10T09:49:55.000Z</time>
      </trkpt>
      <trkpt lat="45.46336" lon="4.71854">
        <ele>401.79998779297</ele>
        <time>2020-03-10T09:50:00.000Z</time>
      </trkpt>
      <trkpt lat="45.46333" lon="4.7186">
        <ele>401.60000610352</ele>
        <time>2020-03-10T09:50:02.000Z</time>
      </trkpt>
      <trkpt lat="45.4633" lon="4.71874">
        <ele>401.39999389648</ele>
        <time>2020-03-10T09:50:06.000Z</time>
      </trkpt>
      <trkpt lat="45.4633" lon="4.71895">
        <ele>401.20001220703</ele>
        <time>2020-03-10T09:50:12.000Z</time>
      </trkpt>
      <trkpt lat="45.4633" lon="4.71899">
        <ele>401.39999389648</ele>
        <time>2020-03-10T09:50:13.000Z</time>
      </trkpt>
      <trkpt lat="45.46335" lon="4.71924">
        <ele>400.79998779297</ele>
        <time>2020-03-10T09:50:20.000Z</time>
      </trkpt>
      <trkpt lat="45.46336" lon="4.71928">
        <ele>400.60000610352</ele>
        <time>2020-03-10T09:50:21.000Z</time>
      </trkpt>
      <trkpt lat="45.46337" lon="4.71931">
        <ele>400.79998779297</ele>
        <time>2020-03-10T09:50:22.000Z</time>
      </trkpt>
      <trkpt lat="45.4634" lon="4.71939">
        <ele>400.20001220703</ele>
        <time>2020-03-10T09:50:25.000Z</time>
      </trkpt>
      <trkpt lat="45.46344" lon="4.71948">
        <ele>399.79998779297</ele>
        <time>2020-03-10T09:50:29.000Z</time>
      </trkpt>
      <trkpt lat="45.46346" lon="4.71951">
        <ele>399.79998779297</ele>
        <time>2020-03-10T09:50:30.000Z</time>
      </trkpt>
      <trkpt lat="45.46348" lon="4.71955">
        <ele>399.79998779297</ele>
        <time>2020-03-10T09:50:31.000Z</time>
      </trkpt>
      <trkpt lat="45.4635" lon="4.71957">
        <ele>399.60000610352</ele>
        <time>2020-03-10T09:50:32.000Z</time>
      </trkpt>
      <trkpt lat="45.4636" lon="4.71968">
        <ele>399</ele>
        <time>2020-03-10T09:50:37.000Z</time>
      </trkpt>
      <trkpt lat="45.4637" lon="4.71975">
        <ele>398.39999389648</ele>
        <time>2020-03-10T09:50:41.000Z</time>
      </trkpt>
      <trkpt lat="45.46372" lon="4.71977">
        <ele>398.39999389648</ele>
        <time>2020-03-10T09:50:42.000Z</time>
      </trkpt>
      <trkpt lat="45.46374" lon="4.7198">
        <ele>398.20001220703</ele>
        <time>2020-03-10T09:50:43.000Z</time>
      </trkpt>
      <trkpt lat="45.46387" lon="4.71991">
        <ele>397.39999389648</ele>
        <time>2020-03-10T09:50:48.000Z</time>
      </trkpt>
      <trkpt lat="45.46393" lon="4.71995">
        <ele>397.20001220703</ele>
        <time>2020-03-10T09:50:50.000Z</time>
      </trkpt>
      <trkpt lat="45.46397" lon="4.71999">
        <ele>397</ele>
        <time>2020-03-10T09:50:52.000Z</time>
      </trkpt>
      <trkpt lat="45.46406" lon="4.72007">
        <ele>396.39999389648</ele>
        <time>2020-03-10T09:50:56.000Z</time>
      </trkpt>
      <trkpt lat="45.46418" lon="4.72018">
        <ele>396</ele>
        <time>2020-03-10T09:51:02.000Z</time>
      </trkpt>
      <trkpt lat="45.46424" lon="4.72022">
        <ele>396.20001220703</ele>
        <time>2020-03-10T09:51:04.000Z</time>
      </trkpt>
      <trkpt lat="45.46435" lon="4.72031">
        <ele>395.39999389648</ele>
        <time>2020-03-10T09:51:09.000Z</time>
      </trkpt>
      <trkpt lat="45.46439" lon="4.72036">
        <ele>395</ele>
        <time>2020-03-10T09:51:11.000Z</time>
      </trkpt>
      <trkpt lat="45.4644" lon="4.72038">
        <ele>394.79998779297</ele>
        <time>2020-03-10T09:51:12.000Z</time>
      </trkpt>
      <trkpt lat="45.46451" lon="4.72047">
        <ele>394.60000610352</ele>
        <time>2020-03-10T09:51:17.000Z</time>
      </trkpt>
      <trkpt lat="45.46455" lon="4.7205">
        <ele>394.20001220703</ele>
        <time>2020-03-10T09:51:19.000Z</time>
      </trkpt>
      <trkpt lat="45.46462" lon="4.72056">
        <ele>393.60000610352</ele>
        <time>2020-03-10T09:51:22.000Z</time>
      </trkpt>
      <trkpt lat="45.46465" lon="4.72058">
        <ele>393.20001220703</ele>
        <time>2020-03-10T09:51:23.000Z</time>
      </trkpt>
      <trkpt lat="45.46467" lon="4.7206">
        <ele>393</ele>
        <time>2020-03-10T09:51:24.000Z</time>
      </trkpt>
      <trkpt lat="45.46479" lon="4.7207">
        <ele>392.60000610352</ele>
        <time>2020-03-10T09:51:29.000Z</time>
      </trkpt>
      <trkpt lat="45.46486" lon="4.72078">
        <ele>392.20001220703</ele>
        <time>2020-03-10T09:51:32.000Z</time>
      </trkpt>
      <trkpt lat="45.46494" lon="4.7209">
        <ele>391.60000610352</ele>
        <time>2020-03-10T09:51:36.000Z</time>
      </trkpt>
      <trkpt lat="45.465" lon="4.72098">
        <ele>391</ele>
        <time>2020-03-10T09:51:39.000Z</time>
      </trkpt>
      <trkpt lat="45.46506" lon="4.72107">
        <ele>390.39999389648</ele>
        <time>2020-03-10T09:51:42.000Z</time>
      </trkpt>
      <trkpt lat="45.4651" lon="4.72113">
        <ele>390</ele>
        <time>2020-03-10T09:51:44.000Z</time>
      </trkpt>
      <trkpt lat="45.46521" lon="4.72133">
        <ele>389.39999389648</ele>
        <time>2020-03-10T09:51:51.000Z</time>
      </trkpt>
      <trkpt lat="45.46523" lon="4.72137">
        <ele>389.20001220703</ele>
        <time>2020-03-10T09:51:52.000Z</time>
      </trkpt>
      <trkpt lat="45.46524" lon="4.72139">
        <ele>389</ele>
        <time>2020-03-10T09:51:53.000Z</time>
      </trkpt>
      <trkpt lat="45.46531" lon="4.72155">
        <ele>388</ele>
        <time>2020-03-10T09:51:59.000Z</time>
      </trkpt>
      <trkpt lat="45.46534" lon="4.72163">
        <ele>387.39999389648</ele>
        <time>2020-03-10T09:52:02.000Z</time>
      </trkpt>
      <trkpt lat="45.46539" lon="4.72174">
        <ele>387</ele>
        <time>2020-03-10T09:52:05.000Z</time>
      </trkpt>
      <trkpt lat="45.4654" lon="4.72178">
        <ele>386.60000610352</ele>
        <time>2020-03-10T09:52:06.000Z</time>
      </trkpt>
      <trkpt lat="45.46543" lon="4.72184">
        <ele>385.79998779297</ele>
        <time>2020-03-10T09:52:08.000Z</time>
      </trkpt>
      <trkpt lat="45.4655" lon="4.72197">
        <ele>385.20001220703</ele>
        <time>2020-03-10T09:52:12.000Z</time>
      </trkpt>
      <trkpt lat="45.46555" lon="4.72209">
        <ele>384.79998779297</ele>
        <time>2020-03-10T09:52:15.000Z</time>
      </trkpt>
      <trkpt lat="45.46559" lon="4.7222">
        <ele>384.20001220703</ele>
        <time>2020-03-10T09:52:18.000Z</time>
      </trkpt>
      <trkpt lat="45.46566" lon="4.72232">
        <ele>383.79998779297</ele>
        <time>2020-03-10T09:52:22.000Z</time>
      </trkpt>
      <trkpt lat="45.46568" lon="4.72234">
        <ele>383.79998779297</ele>
        <time>2020-03-10T09:52:23.000Z</time>
      </trkpt>
      <trkpt lat="45.46579" lon="4.72246">
        <ele>383</ele>
        <time>2020-03-10T09:52:29.000Z</time>
      </trkpt>
      <trkpt lat="45.46585" lon="4.72251">
        <ele>382.79998779297</ele>
        <time>2020-03-10T09:52:32.000Z</time>
      </trkpt>
      <trkpt lat="45.46592" lon="4.72254">
        <ele>382.60000610352</ele>
        <time>2020-03-10T09:52:35.000Z</time>
      </trkpt>
      <trkpt lat="45.46594" lon="4.72256">
        <ele>382.60000610352</ele>
        <time>2020-03-10T09:52:36.000Z</time>
      </trkpt>
      <trkpt lat="45.46609" lon="4.72268">
        <ele>381.60000610352</ele>
        <time>2020-03-10T09:52:42.000Z</time>
      </trkpt>
      <trkpt lat="45.46611" lon="4.7227">
        <ele>381.60000610352</ele>
        <time>2020-03-10T09:52:43.000Z</time>
      </trkpt>
      <trkpt lat="45.46625" lon="4.72283">
        <ele>380.39999389648</ele>
        <time>2020-03-10T09:52:49.000Z</time>
      </trkpt>
      <trkpt lat="45.46627" lon="4.72286">
        <ele>380.20001220703</ele>
        <time>2020-03-10T09:52:50.000Z</time>
      </trkpt>
      <trkpt lat="45.46632" lon="4.72291">
        <ele>380</ele>
        <time>2020-03-10T09:52:52.000Z</time>
      </trkpt>
      <trkpt lat="45.46641" lon="4.72301">
        <ele>380</ele>
        <time>2020-03-10T09:52:56.000Z</time>
      </trkpt>
      <trkpt lat="45.46652" lon="4.72319">
        <ele>379.39999389648</ele>
        <time>2020-03-10T09:53:02.000Z</time>
      </trkpt>
      <trkpt lat="45.46653" lon="4.72325">
        <ele>379.20001220703</ele>
        <time>2020-03-10T09:53:04.000Z</time>
      </trkpt>
      <trkpt lat="45.46655" lon="4.72333">
        <ele>378.79998779297</ele>
        <time>2020-03-10T09:53:07.000Z</time>
      </trkpt>
      <trkpt lat="45.46658" lon="4.72346">
        <ele>377.79998779297</ele>
        <time>2020-03-10T09:53:11.000Z</time>
      </trkpt>
      <trkpt lat="45.46659" lon="4.7235">
        <ele>377.79998779297</ele>
        <time>2020-03-10T09:53:12.000Z</time>
      </trkpt>
      <trkpt lat="45.4666" lon="4.72353">
        <ele>377.60000610352</ele>
        <time>2020-03-10T09:53:13.000Z</time>
      </trkpt>
      <trkpt lat="45.46661" lon="4.72363">
        <ele>376.79998779297</ele>
        <time>2020-03-10T09:53:16.000Z</time>
      </trkpt>
      <trkpt lat="45.46663" lon="4.72376">
        <ele>375.79998779297</ele>
        <time>2020-03-10T09:53:20.000Z</time>
      </trkpt>
      <trkpt lat="45.46663" lon="4.7238">
        <ele>375.39999389648</ele>
        <time>2020-03-10T09:53:21.000Z</time>
      </trkpt>
      <trkpt lat="45.46664" lon="4.72384">
        <ele>375.39999389648</ele>
        <time>2020-03-10T09:53:22.000Z</time>
      </trkpt>
      <trkpt lat="45.46667" lon="4.72403">
        <ele>374.20001220703</ele>
        <time>2020-03-10T09:53:27.000Z</time>
      </trkpt>
      <trkpt lat="45.46668" lon="4.72406">
        <ele>374.20001220703</ele>
        <time>2020-03-10T09:53:28.000Z</time>
      </trkpt>
      <trkpt lat="45.46672" lon="4.72423">
        <ele>373.60000610352</ele>
        <time>2020-03-10T09:53:32.000Z</time>
      </trkpt>
      <trkpt lat="45.46673" lon="4.72427">
        <ele>373.60000610352</ele>
        <time>2020-03-10T09:53:33.000Z</time>
      </trkpt>
      <trkpt lat="45.46675" lon="4.72435">
        <ele>373</ele>
        <time>2020-03-10T09:53:35.000Z</time>
      </trkpt>
      <trkpt lat="45.4668" lon="4.7245">
        <ele>372.20001220703</ele>
        <time>2020-03-10T09:53:39.000Z</time>
      </trkpt>
      <trkpt lat="45.46682" lon="4.72457">
        <ele>371.79998779297</ele>
        <time>2020-03-10T09:53:41.000Z</time>
      </trkpt>
      <trkpt lat="45.46683" lon="4.72461">
        <ele>371.60000610352</ele>
        <time>2020-03-10T09:53:42.000Z</time>
      </trkpt>
      <trkpt lat="45.46685" lon="4.72472">
        <ele>371</ele>
        <time>2020-03-10T09:53:45.000Z</time>
      </trkpt>
      <trkpt lat="45.46686" lon="4.72476">
        <ele>370.79998779297</ele>
        <time>2020-03-10T09:53:46.000Z</time>
      </trkpt>
      <trkpt lat="45.46688" lon="4.72479">
        <ele>370.60000610352</ele>
        <time>2020-03-10T09:53:47.000Z</time>
      </trkpt>
      <trkpt lat="45.46694" lon="4.72495">
        <ele>369.39999389648</ele>
        <time>2020-03-10T09:53:52.000Z</time>
      </trkpt>
      <trkpt lat="45.46698" lon="4.72501">
        <ele>368.79998779297</ele>
        <time>2020-03-10T09:53:54.000Z</time>
      </trkpt>
      <trkpt lat="45.46702" lon="4.72507">
        <ele>368.20001220703</ele>
        <time>2020-03-10T09:53:56.000Z</time>
      </trkpt>
      <trkpt lat="45.4671" lon="4.72518">
        <ele>367.20001220703</ele>
        <time>2020-03-10T09:54:00.000Z</time>
      </trkpt>
      <trkpt lat="45.46712" lon="4.72521">
        <ele>366.79998779297</ele>
        <time>2020-03-10T09:54:01.000Z</time>
      </trkpt>
      <trkpt lat="45.46714" lon="4.72524">
        <ele>366.60000610352</ele>
        <time>2020-03-10T09:54:02.000Z</time>
      </trkpt>
      <trkpt lat="45.4672" lon="4.72533">
        <ele>365.60000610352</ele>
        <time>2020-03-10T09:54:05.000Z</time>
      </trkpt>
      <trkpt lat="45.46726" lon="4.72543">
        <ele>364.39999389648</ele>
        <time>2020-03-10T09:54:08.000Z</time>
      </trkpt>
      <trkpt lat="45.46728" lon="4.72546">
        <ele>364.20001220703</ele>
        <time>2020-03-10T09:54:09.000Z</time>
      </trkpt>
      <trkpt lat="45.46732" lon="4.72551">
        <ele>363.39999389648</ele>
        <time>2020-03-10T09:54:11.000Z</time>
      </trkpt>
      <trkpt lat="45.46734" lon="4.72554">
        <ele>363</ele>
        <time>2020-03-10T09:54:12.000Z</time>
      </trkpt>
      <trkpt lat="45.46737" lon="4.7256">
        <ele>362.20001220703</ele>
        <time>2020-03-10T09:54:14.000Z</time>
      </trkpt>
      <trkpt lat="45.46741" lon="4.72567">
        <ele>361.39999389648</ele>
        <time>2020-03-10T09:54:16.000Z</time>
      </trkpt>
      <trkpt lat="45.46742" lon="4.7257">
        <ele>361</ele>
        <time>2020-03-10T09:54:17.000Z</time>
      </trkpt>
      <trkpt lat="45.46745" lon="4.72579">
        <ele>360</ele>
        <time>2020-03-10T09:54:20.000Z</time>
      </trkpt>
      <trkpt lat="45.46747" lon="4.72582">
        <ele>359.39999389648</ele>
        <time>2020-03-10T09:54:21.000Z</time>
      </trkpt>
      <trkpt lat="45.46748" lon="4.72585">
        <ele>358.79998779297</ele>
        <time>2020-03-10T09:54:22.000Z</time>
      </trkpt>
      <trkpt lat="45.46751" lon="4.72591">
        <ele>357.79998779297</ele>
        <time>2020-03-10T09:54:24.000Z</time>
      </trkpt>
      <trkpt lat="45.46754" lon="4.726">
        <ele>356.79998779297</ele>
        <time>2020-03-10T09:54:27.000Z</time>
      </trkpt>
      <trkpt lat="45.46756" lon="4.72603">
        <ele>356.60000610352</ele>
        <time>2020-03-10T09:54:28.000Z</time>
      </trkpt>
      <trkpt lat="45.46758" lon="4.7261">
        <ele>355.39999389648</ele>
        <time>2020-03-10T09:54:30.000Z</time>
      </trkpt>
      <trkpt lat="45.4676" lon="4.72617">
        <ele>354.79998779297</ele>
        <time>2020-03-10T09:54:32.000Z</time>
      </trkpt>
      <trkpt lat="45.4676" lon="4.7262">
        <ele>354.39999389648</ele>
        <time>2020-03-10T09:54:33.000Z</time>
      </trkpt>
      <trkpt lat="45.46761" lon="4.72623">
        <ele>353.79998779297</ele>
        <time>2020-03-10T09:54:34.000Z</time>
      </trkpt>
      <trkpt lat="45.46763" lon="4.72626">
        <ele>353.20001220703</ele>
        <time>2020-03-10T09:54:35.000Z</time>
      </trkpt>
      <trkpt lat="45.46768" lon="4.72634">
        <ele>351.79998779297</ele>
        <time>2020-03-10T09:54:38.000Z</time>
      </trkpt>
      <trkpt lat="45.46769" lon="4.72637">
        <ele>351.79998779297</ele>
        <time>2020-03-10T09:54:39.000Z</time>
      </trkpt>
      <trkpt lat="45.4677" lon="4.7264">
        <ele>351.60000610352</ele>
        <time>2020-03-10T09:54:40.000Z</time>
      </trkpt>
      <trkpt lat="45.46771" lon="4.72646">
        <ele>351.39999389648</ele>
        <time>2020-03-10T09:54:42.000Z</time>
      </trkpt>
      <trkpt lat="45.46773" lon="4.72655">
        <ele>351.60000610352</ele>
        <time>2020-03-10T09:54:46.000Z</time>
      </trkpt>
      <trkpt lat="45.46777" lon="4.72666">
        <ele>352.39999389648</ele>
        <time>2020-03-10T09:54:51.000Z</time>
      </trkpt>
      <trkpt lat="45.46778" lon="4.72669">
        <ele>352.60000610352</ele>
        <time>2020-03-10T09:54:52.000Z</time>
      </trkpt>
      <trkpt lat="45.46779" lon="4.72671">
        <ele>352.79998779297</ele>
        <time>2020-03-10T09:54:53.000Z</time>
      </trkpt>
      <trkpt lat="45.46781" lon="4.72678">
        <ele>353.79998779297</ele>
        <time>2020-03-10T09:54:57.000Z</time>
      </trkpt>
      <trkpt lat="45.46783" lon="4.7268">
        <ele>354</ele>
        <time>2020-03-10T09:54:58.000Z</time>
      </trkpt>
      <trkpt lat="45.46789" lon="4.72688">
        <ele>354.20001220703</ele>
        <time>2020-03-10T09:55:02.000Z</time>
      </trkpt>
      <trkpt lat="45.46793" lon="4.72706">
        <ele>354.79998779297</ele>
        <time>2020-03-10T09:55:08.000Z</time>
      </trkpt>
      <trkpt lat="45.46794" lon="4.72709">
        <ele>355</ele>
        <time>2020-03-10T09:55:09.000Z</time>
      </trkpt>
      <trkpt lat="45.46794" lon="4.72718">
        <ele>355.39999389648</ele>
        <time>2020-03-10T09:55:12.000Z</time>
      </trkpt>
      <trkpt lat="45.46794" lon="4.72721">
        <ele>355.60000610352</ele>
        <time>2020-03-10T09:55:13.000Z</time>
      </trkpt>
      <trkpt lat="45.46793" lon="4.72737">
        <ele>356</ele>
        <time>2020-03-10T09:55:18.000Z</time>
      </trkpt>
      <trkpt lat="45.46793" lon="4.72741">
        <ele>356.39999389648</ele>
        <time>2020-03-10T09:55:19.000Z</time>
      </trkpt>
      <trkpt lat="45.46792" lon="4.7275">
        <ele>357</ele>
        <time>2020-03-10T09:55:22.000Z</time>
      </trkpt>
      <trkpt lat="45.46792" lon="4.72767">
        <ele>357.39999389648</ele>
        <time>2020-03-10T09:55:27.000Z</time>
      </trkpt>
      <trkpt lat="45.46792" lon="4.72784">
        <ele>357.60000610352</ele>
        <time>2020-03-10T09:55:32.000Z</time>
      </trkpt>
      <trkpt lat="45.46793" lon="4.72794">
        <ele>357.60000610352</ele>
        <time>2020-03-10T09:55:35.000Z</time>
      </trkpt>
      <trkpt lat="45.46794" lon="4.72819">
        <ele>357.20001220703</ele>
        <time>2020-03-10T09:55:42.000Z</time>
      </trkpt>
      <trkpt lat="45.46795" lon="4.72823">
        <ele>357</ele>
        <time>2020-03-10T09:55:43.000Z</time>
      </trkpt>
      <trkpt lat="45.46796" lon="4.7283">
        <ele>357.20001220703</ele>
        <time>2020-03-10T09:55:45.000Z</time>
      </trkpt>
      <trkpt lat="45.46798" lon="4.72837">
        <ele>357.20001220703</ele>
        <time>2020-03-10T09:55:47.000Z</time>
      </trkpt>
      <trkpt lat="45.46799" lon="4.72842">
        <ele>357.39999389648</ele>
        <time>2020-03-10T09:55:49.000Z</time>
      </trkpt>
      <trkpt lat="45.46801" lon="4.72848">
        <ele>357.79998779297</ele>
        <time>2020-03-10T09:55:51.000Z</time>
      </trkpt>
      <trkpt lat="45.46802" lon="4.72851">
        <ele>358</ele>
        <time>2020-03-10T09:55:52.000Z</time>
      </trkpt>
      <trkpt lat="45.46803" lon="4.72857">
        <ele>358</ele>
        <time>2020-03-10T09:55:54.000Z</time>
      </trkpt>
      <trkpt lat="45.46805" lon="4.72866">
        <ele>357.79998779297</ele>
        <time>2020-03-10T09:55:57.000Z</time>
      </trkpt>
      <trkpt lat="45.4681" lon="4.72881">
        <ele>357.60000610352</ele>
        <time>2020-03-10T09:56:02.000Z</time>
      </trkpt>
      <trkpt lat="45.46813" lon="4.7289">
        <ele>357.79998779297</ele>
        <time>2020-03-10T09:56:05.000Z</time>
      </trkpt>
      <trkpt lat="45.46818" lon="4.72902">
        <ele>358</ele>
        <time>2020-03-10T09:56:09.000Z</time>
      </trkpt>
      <trkpt lat="45.4682" lon="4.72907">
        <ele>358.20001220703</ele>
        <time>2020-03-10T09:56:11.000Z</time>
      </trkpt>
      <trkpt lat="45.46821" lon="4.7291">
        <ele>358.20001220703</ele>
        <time>2020-03-10T09:56:12.000Z</time>
      </trkpt>
      <trkpt lat="45.46822" lon="4.72913">
        <ele>358.39999389648</ele>
        <time>2020-03-10T09:56:13.000Z</time>
      </trkpt>
      <trkpt lat="45.46828" lon="4.72937">
        <ele>358.39999389648</ele>
        <time>2020-03-10T09:56:21.000Z</time>
      </trkpt>
      <trkpt lat="45.46829" lon="4.72941">
        <ele>358.39999389648</ele>
        <time>2020-03-10T09:56:22.000Z</time>
      </trkpt>
      <trkpt lat="45.46832" lon="4.72954">
        <ele>358.39999389648</ele>
        <time>2020-03-10T09:56:26.000Z</time>
      </trkpt>
      <trkpt lat="45.46833" lon="4.72961">
        <ele>358.39999389648</ele>
        <time>2020-03-10T09:56:28.000Z</time>
      </trkpt>
      <trkpt lat="45.46835" lon="4.72972">
        <ele>358.39999389648</ele>
        <time>2020-03-10T09:56:32.000Z</time>
      </trkpt>
      <trkpt lat="45.46838" lon="4.72981">
        <ele>359.20001220703</ele>
        <time>2020-03-10T09:56:35.000Z</time>
      </trkpt>
      <trkpt lat="45.46839" lon="4.72985">
        <ele>359.20001220703</ele>
        <time>2020-03-10T09:56:36.000Z</time>
      </trkpt>
      <trkpt lat="45.46842" lon="4.72996">
        <ele>359.20001220703</ele>
        <time>2020-03-10T09:56:40.000Z</time>
      </trkpt>
      <trkpt lat="45.46843" lon="4.73002">
        <ele>359</ele>
        <time>2020-03-10T09:56:42.000Z</time>
      </trkpt>
      <trkpt lat="45.46845" lon="4.7302">
        <ele>359</ele>
        <time>2020-03-10T09:56:47.000Z</time>
      </trkpt>
      <trkpt lat="45.4685" lon="4.73038">
        <ele>359</ele>
        <time>2020-03-10T09:56:52.000Z</time>
      </trkpt>
      <trkpt lat="45.46852" lon="4.73044">
        <ele>359</ele>
        <time>2020-03-10T09:56:54.000Z</time>
      </trkpt>
      <trkpt lat="45.46855" lon="4.73066">
        <ele>359.20001220703</ele>
        <time>2020-03-10T09:57:00.000Z</time>
      </trkpt>
      <trkpt lat="45.46857" lon="4.73073">
        <ele>359.20001220703</ele>
        <time>2020-03-10T09:57:02.000Z</time>
      </trkpt>
      <trkpt lat="45.46859" lon="4.73091">
        <ele>359.60000610352</ele>
        <time>2020-03-10T09:57:07.000Z</time>
      </trkpt>
      <trkpt lat="45.46861" lon="4.73109">
        <ele>359.79998779297</ele>
        <time>2020-03-10T09:57:12.000Z</time>
      </trkpt>
      <trkpt lat="45.46861" lon="4.73117">
        <ele>360</ele>
        <time>2020-03-10T09:57:14.000Z</time>
      </trkpt>
      <trkpt lat="45.46863" lon="4.73131">
        <ele>360.60000610352</ele>
        <time>2020-03-10T09:57:18.000Z</time>
      </trkpt>
      <trkpt lat="45.46865" lon="4.73146">
        <ele>360.79998779297</ele>
        <time>2020-03-10T09:57:22.000Z</time>
      </trkpt>
      <trkpt lat="45.46867" lon="4.73164">
        <ele>360.20001220703</ele>
        <time>2020-03-10T09:57:27.000Z</time>
      </trkpt>
      <trkpt lat="45.46868" lon="4.73171">
        <ele>360</ele>
        <time>2020-03-10T09:57:29.000Z</time>
      </trkpt>
      <trkpt lat="45.4687" lon="4.73182">
        <ele>359.79998779297</ele>
        <time>2020-03-10T09:57:32.000Z</time>
      </trkpt>
      <trkpt lat="45.46873" lon="4.73199">
        <ele>359.79998779297</ele>
        <time>2020-03-10T09:57:37.000Z</time>
      </trkpt>
      <trkpt lat="45.46875" lon="4.73217">
        <ele>359.79998779297</ele>
        <time>2020-03-10T09:57:42.000Z</time>
      </trkpt>
      <trkpt lat="45.46876" lon="4.73223">
        <ele>359.79998779297</ele>
        <time>2020-03-10T09:57:44.000Z</time>
      </trkpt>
      <trkpt lat="45.46878" lon="4.73233">
        <ele>359.60000610352</ele>
        <time>2020-03-10T09:57:47.000Z</time>
      </trkpt>
      <trkpt lat="45.46882" lon="4.73249">
        <ele>359.39999389648</ele>
        <time>2020-03-10T09:57:52.000Z</time>
      </trkpt>
      <trkpt lat="45.46887" lon="4.73275">
        <ele>359.20001220703</ele>
        <time>2020-03-10T09:57:59.000Z</time>
      </trkpt>
      <trkpt lat="45.46889" lon="4.73282">
        <ele>358.79998779297</ele>
        <time>2020-03-10T09:58:01.000Z</time>
      </trkpt>
      <trkpt lat="45.46889" lon="4.73286">
        <ele>358.79998779297</ele>
        <time>2020-03-10T09:58:02.000Z</time>
      </trkpt>
      <trkpt lat="45.46891" lon="4.73297">
        <ele>358.39999389648</ele>
        <time>2020-03-10T09:58:05.000Z</time>
      </trkpt>
      <trkpt lat="45.46895" lon="4.73314">
        <ele>357.79998779297</ele>
        <time>2020-03-10T09:58:10.000Z</time>
      </trkpt>
      <trkpt lat="45.46897" lon="4.73321">
        <ele>357.20001220703</ele>
        <time>2020-03-10T09:58:12.000Z</time>
      </trkpt>
      <trkpt lat="45.46904" lon="4.73337">
        <ele>356</ele>
        <time>2020-03-10T09:58:17.000Z</time>
      </trkpt>
      <trkpt lat="45.46913" lon="4.7335">
        <ele>354.79998779297</ele>
        <time>2020-03-10T09:58:22.000Z</time>
      </trkpt>
      <trkpt lat="45.4692" lon="4.73357">
        <ele>354.60000610352</ele>
        <time>2020-03-10T09:58:25.000Z</time>
      </trkpt>
      <trkpt lat="45.46928" lon="4.73372">
        <ele>354.20001220703</ele>
        <time>2020-03-10T09:58:30.000Z</time>
      </trkpt>
      <trkpt lat="45.4693" lon="4.73378">
        <ele>354.20001220703</ele>
        <time>2020-03-10T09:58:32.000Z</time>
      </trkpt>
      <trkpt lat="45.46932" lon="4.73385">
        <ele>353.79998779297</ele>
        <time>2020-03-10T09:58:34.000Z</time>
      </trkpt>
      <trkpt lat="45.46935" lon="4.73395">
        <ele>353.20001220703</ele>
        <time>2020-03-10T09:58:37.000Z</time>
      </trkpt>
      <trkpt lat="45.4694" lon="4.73409">
        <ele>352.60000610352</ele>
        <time>2020-03-10T09:58:41.000Z</time>
      </trkpt>
      <trkpt lat="45.46941" lon="4.73413">
        <ele>352.20001220703</ele>
        <time>2020-03-10T09:58:42.000Z</time>
      </trkpt>
      <trkpt lat="45.46942" lon="4.7342">
        <ele>351.39999389648</ele>
        <time>2020-03-10T09:58:44.000Z</time>
      </trkpt>
      <trkpt lat="45.46943" lon="4.73423">
        <ele>351.20001220703</ele>
        <time>2020-03-10T09:58:45.000Z</time>
      </trkpt>
      <trkpt lat="45.46948" lon="4.73434">
        <ele>350.20001220703</ele>
        <time>2020-03-10T09:58:48.000Z</time>
      </trkpt>
      <trkpt lat="45.4695" lon="4.73444">
        <ele>349.79998779297</ele>
        <time>2020-03-10T09:58:51.000Z</time>
      </trkpt>
      <trkpt lat="45.4695" lon="4.73447">
        <ele>349.79998779297</ele>
        <time>2020-03-10T09:58:52.000Z</time>
      </trkpt>
      <trkpt lat="45.46953" lon="4.73458">
        <ele>349</ele>
        <time>2020-03-10T09:58:55.000Z</time>
      </trkpt>
      <trkpt lat="45.46955" lon="4.73466">
        <ele>348.79998779297</ele>
        <time>2020-03-10T09:58:57.000Z</time>
      </trkpt>
      <trkpt lat="45.46957" lon="4.7348">
        <ele>348</ele>
        <time>2020-03-10T09:59:01.000Z</time>
      </trkpt>
      <trkpt lat="45.46957" lon="4.73483">
        <ele>347.60000610352</ele>
        <time>2020-03-10T09:59:02.000Z</time>
      </trkpt>
      <trkpt lat="45.46958" lon="4.73494">
        <ele>347.20001220703</ele>
        <time>2020-03-10T09:59:05.000Z</time>
      </trkpt>
      <trkpt lat="45.46961" lon="4.73511">
        <ele>346.79998779297</ele>
        <time>2020-03-10T09:59:10.000Z</time>
      </trkpt>
      <trkpt lat="45.46962" lon="4.73518">
        <ele>346.39999389648</ele>
        <time>2020-03-10T09:59:12.000Z</time>
      </trkpt>
      <trkpt lat="45.46962" lon="4.73522">
        <ele>346.20001220703</ele>
        <time>2020-03-10T09:59:13.000Z</time>
      </trkpt>
      <trkpt lat="45.46962" lon="4.7353">
        <ele>345.79998779297</ele>
        <time>2020-03-10T09:59:15.000Z</time>
      </trkpt>
      <trkpt lat="45.46963" lon="4.73546">
        <ele>345</ele>
        <time>2020-03-10T09:59:19.000Z</time>
      </trkpt>
      <trkpt lat="45.46964" lon="4.73557">
        <ele>344.79998779297</ele>
        <time>2020-03-10T09:59:22.000Z</time>
      </trkpt>
      <trkpt lat="45.46965" lon="4.73561">
        <ele>344.60000610352</ele>
        <time>2020-03-10T09:59:23.000Z</time>
      </trkpt>
      <trkpt lat="45.46965" lon="4.73564">
        <ele>344.20001220703</ele>
        <time>2020-03-10T09:59:24.000Z</time>
      </trkpt>
      <trkpt lat="45.46966" lon="4.73575">
        <ele>343.60000610352</ele>
        <time>2020-03-10T09:59:27.000Z</time>
      </trkpt>
      <trkpt lat="45.46968" lon="4.73589">
        <ele>343.39999389648</ele>
        <time>2020-03-10T09:59:31.000Z</time>
      </trkpt>
      <trkpt lat="45.46968" lon="4.73593">
        <ele>343.20001220703</ele>
        <time>2020-03-10T09:59:32.000Z</time>
      </trkpt>
      <trkpt lat="45.46969" lon="4.73608">
        <ele>342.60000610352</ele>
        <time>2020-03-10T09:59:36.000Z</time>
      </trkpt>
      <trkpt lat="45.4697" lon="4.73615">
        <ele>342</ele>
        <time>2020-03-10T09:59:38.000Z</time>
      </trkpt>
      <trkpt lat="45.46972" lon="4.7363">
        <ele>341.39999389648</ele>
        <time>2020-03-10T09:59:42.000Z</time>
      </trkpt>
      <trkpt lat="45.46975" lon="4.73645">
        <ele>341.39999389648</ele>
        <time>2020-03-10T09:59:46.000Z</time>
      </trkpt>
      <trkpt lat="45.46979" lon="4.73666">
        <ele>340.39999389648</ele>
        <time>2020-03-10T09:59:52.000Z</time>
      </trkpt>
      <trkpt lat="45.46982" lon="4.7368">
        <ele>340</ele>
        <time>2020-03-10T09:59:56.000Z</time>
      </trkpt>
      <trkpt lat="45.46987" lon="4.73702">
        <ele>339.39999389648</ele>
        <time>2020-03-10T10:00:02.000Z</time>
      </trkpt>
      <trkpt lat="45.46987" lon="4.73705">
        <ele>339.60000610352</ele>
        <time>2020-03-10T10:00:03.000Z</time>
      </trkpt>
      <trkpt lat="45.46989" lon="4.73712">
        <ele>339.39999389648</ele>
        <time>2020-03-10T10:00:05.000Z</time>
      </trkpt>
      <trkpt lat="45.46993" lon="4.73729">
        <ele>338.79998779297</ele>
        <time>2020-03-10T10:00:10.000Z</time>
      </trkpt>
      <trkpt lat="45.46994" lon="4.73735">
        <ele>338.60000610352</ele>
        <time>2020-03-10T10:00:12.000Z</time>
      </trkpt>
      <trkpt lat="45.46997" lon="4.73757">
        <ele>338.20001220703</ele>
        <time>2020-03-10T10:00:18.000Z</time>
      </trkpt>
      <trkpt lat="45.47" lon="4.7377">
        <ele>338.20001220703</ele>
        <time>2020-03-10T10:00:22.000Z</time>
      </trkpt>
      <trkpt lat="45.47002" lon="4.7378">
        <ele>338.20001220703</ele>
        <time>2020-03-10T10:00:25.000Z</time>
      </trkpt>
      <trkpt lat="45.47006" lon="4.73803">
        <ele>338.20001220703</ele>
        <time>2020-03-10T10:00:32.000Z</time>
      </trkpt>
      <trkpt lat="45.4701" lon="4.73827">
        <ele>337.79998779297</ele>
        <time>2020-03-10T10:00:39.000Z</time>
      </trkpt>
      <trkpt lat="45.47012" lon="4.73838">
        <ele>337.20001220703</ele>
        <time>2020-03-10T10:00:42.000Z</time>
      </trkpt>
      <trkpt lat="45.47014" lon="4.73854">
        <ele>337.20001220703</ele>
        <time>2020-03-10T10:00:47.000Z</time>
      </trkpt>
      <trkpt lat="45.47016" lon="4.7387">
        <ele>337.20001220703</ele>
        <time>2020-03-10T10:00:52.000Z</time>
      </trkpt>
      <trkpt lat="45.47017" lon="4.73873">
        <ele>337</ele>
        <time>2020-03-10T10:00:53.000Z</time>
      </trkpt>
      <trkpt lat="45.47022" lon="4.73896">
        <ele>336.79998779297</ele>
        <time>2020-03-10T10:01:00.000Z</time>
      </trkpt>
      <trkpt lat="45.47024" lon="4.73903">
        <ele>336.79998779297</ele>
        <time>2020-03-10T10:01:02.000Z</time>
      </trkpt>
      <trkpt lat="45.47028" lon="4.7392">
        <ele>336.60000610352</ele>
        <time>2020-03-10T10:01:07.000Z</time>
      </trkpt>
      <trkpt lat="45.47032" lon="4.73937">
        <ele>336.39999389648</ele>
        <time>2020-03-10T10:01:12.000Z</time>
      </trkpt>
      <trkpt lat="45.47034" lon="4.73944">
        <ele>336.39999389648</ele>
        <time>2020-03-10T10:01:14.000Z</time>
      </trkpt>
      <trkpt lat="45.47039" lon="4.7396">
        <ele>336.20001220703</ele>
        <time>2020-03-10T10:01:19.000Z</time>
      </trkpt>
      <trkpt lat="45.47039" lon="4.73963">
        <ele>336.20001220703</ele>
        <time>2020-03-10T10:01:20.000Z</time>
      </trkpt>
      <trkpt lat="45.47038" lon="4.7397">
        <ele>336.39999389648</ele>
        <time>2020-03-10T10:01:22.000Z</time>
      </trkpt>
      <trkpt lat="45.47038" lon="4.73987">
        <ele>336.79998779297</ele>
        <time>2020-03-10T10:01:27.000Z</time>
      </trkpt>
      <trkpt lat="45.47039" lon="4.74001">
        <ele>337.20001220703</ele>
        <time>2020-03-10T10:01:31.000Z</time>
      </trkpt>
      <trkpt lat="45.4704" lon="4.74004">
        <ele>337.39999389648</ele>
        <time>2020-03-10T10:01:32.000Z</time>
      </trkpt>
      <trkpt lat="45.4704" lon="4.74014">
        <ele>337.20001220703</ele>
        <time>2020-03-10T10:01:35.000Z</time>
      </trkpt>
      <trkpt lat="45.47042" lon="4.74035">
        <ele>337.20001220703</ele>
        <time>2020-03-10T10:01:41.000Z</time>
      </trkpt>
      <trkpt lat="45.47042" lon="4.74038">
        <ele>337.39999389648</ele>
        <time>2020-03-10T10:01:42.000Z</time>
      </trkpt>
      <trkpt lat="45.47044" lon="4.74067">
        <ele>338</ele>
        <time>2020-03-10T10:01:51.000Z</time>
      </trkpt>
      <trkpt lat="45.47044" lon="4.74071">
        <ele>338.20001220703</ele>
        <time>2020-03-10T10:01:52.000Z</time>
      </trkpt>
      <trkpt lat="45.47044" lon="4.74081">
        <ele>338.20001220703</ele>
        <time>2020-03-10T10:01:55.000Z</time>
      </trkpt>
      <trkpt lat="45.47044" lon="4.74091">
        <ele>338.39999389648</ele>
        <time>2020-03-10T10:01:58.000Z</time>
      </trkpt>
      <trkpt lat="45.47043" lon="4.74104">
        <ele>338.39999389648</ele>
        <time>2020-03-10T10:02:02.000Z</time>
      </trkpt>
      <trkpt lat="45.47042" lon="4.74114">
        <ele>338.39999389648</ele>
        <time>2020-03-10T10:02:05.000Z</time>
      </trkpt>
      <trkpt lat="45.4704" lon="4.74138">
        <ele>338.39999389648</ele>
        <time>2020-03-10T10:02:12.000Z</time>
      </trkpt>
      <trkpt lat="45.4704" lon="4.74145">
        <ele>338.60000610352</ele>
        <time>2020-03-10T10:02:14.000Z</time>
      </trkpt>
      <trkpt lat="45.47038" lon="4.74172">
        <ele>338.39999389648</ele>
        <time>2020-03-10T10:02:22.000Z</time>
      </trkpt>
      <trkpt lat="45.47038" lon="4.74176">
        <ele>338.20001220703</ele>
        <time>2020-03-10T10:02:23.000Z</time>
      </trkpt>
      <trkpt lat="45.47037" lon="4.74202">
        <ele>338.60000610352</ele>
        <time>2020-03-10T10:02:31.000Z</time>
      </trkpt>
      <trkpt lat="45.47037" lon="4.74205">
        <ele>338.79998779297</ele>
        <time>2020-03-10T10:02:32.000Z</time>
      </trkpt>
      <trkpt lat="45.47038" lon="4.74229">
        <ele>339</ele>
        <time>2020-03-10T10:02:39.000Z</time>
      </trkpt>
      <trkpt lat="45.47039" lon="4.7424">
        <ele>339</ele>
        <time>2020-03-10T10:02:42.000Z</time>
      </trkpt>
      <trkpt lat="45.4704" lon="4.74249">
        <ele>339.39999389648</ele>
        <time>2020-03-10T10:02:45.000Z</time>
      </trkpt>
      <trkpt lat="45.47041" lon="4.74256">
        <ele>339.60000610352</ele>
        <time>2020-03-10T10:02:47.000Z</time>
      </trkpt>
      <trkpt lat="45.47043" lon="4.74273">
        <ele>339.20001220703</ele>
        <time>2020-03-10T10:02:52.000Z</time>
      </trkpt>
      <trkpt lat="45.47043" lon="4.7428">
        <ele>339.39999389648</ele>
        <time>2020-03-10T10:02:54.000Z</time>
      </trkpt>
      <trkpt lat="45.47044" lon="4.74307">
        <ele>339.20001220703</ele>
        <time>2020-03-10T10:03:01.000Z</time>
      </trkpt>
      <trkpt lat="45.47043" lon="4.74311">
        <ele>339.20001220703</ele>
        <time>2020-03-10T10:03:02.000Z</time>
      </trkpt>
      <trkpt lat="45.47041" lon="4.74338">
        <ele>338.60000610352</ele>
        <time>2020-03-10T10:03:09.000Z</time>
      </trkpt>
      <trkpt lat="45.47042" lon="4.74348">
        <ele>338.20001220703</ele>
        <time>2020-03-10T10:03:12.000Z</time>
      </trkpt>
      <trkpt lat="45.47043" lon="4.7436">
        <ele>338.20001220703</ele>
        <time>2020-03-10T10:03:15.000Z</time>
      </trkpt>
      <trkpt lat="45.47043" lon="4.74383">
        <ele>337.60000610352</ele>
        <time>2020-03-10T10:03:22.000Z</time>
      </trkpt>
      <trkpt lat="45.47044" lon="4.74391">
        <ele>337.39999389648</ele>
        <time>2020-03-10T10:03:24.000Z</time>
      </trkpt>
      <trkpt lat="45.47044" lon="4.74398">
        <ele>337.60000610352</ele>
        <time>2020-03-10T10:03:26.000Z</time>
      </trkpt>
      <trkpt lat="45.47045" lon="4.74409">
        <ele>337.20001220703</ele>
        <time>2020-03-10T10:03:29.000Z</time>
      </trkpt>
      <trkpt lat="45.47046" lon="4.74415">
        <ele>337.20001220703</ele>
        <time>2020-03-10T10:03:31.000Z</time>
      </trkpt>
      <trkpt lat="45.47047" lon="4.74419">
        <ele>337.20001220703</ele>
        <time>2020-03-10T10:03:32.000Z</time>
      </trkpt>
      <trkpt lat="45.47047" lon="4.74433">
        <ele>337.60000610352</ele>
        <time>2020-03-10T10:03:36.000Z</time>
      </trkpt>
      <trkpt lat="45.47049" lon="4.74455">
        <ele>337.39999389648</ele>
        <time>2020-03-10T10:03:42.000Z</time>
      </trkpt>
      <trkpt lat="45.47049" lon="4.74462">
        <ele>337.20001220703</ele>
        <time>2020-03-10T10:03:44.000Z</time>
      </trkpt>
      <trkpt lat="45.47052" lon="4.74484">
        <ele>336.79998779297</ele>
        <time>2020-03-10T10:03:50.000Z</time>
      </trkpt>
      <trkpt lat="45.47052" lon="4.74492">
        <ele>336.39999389648</ele>
        <time>2020-03-10T10:03:52.000Z</time>
      </trkpt>
      <trkpt lat="45.47054" lon="4.74505">
        <ele>336.20001220703</ele>
        <time>2020-03-10T10:03:56.000Z</time>
      </trkpt>
      <trkpt lat="45.47055" lon="4.74509">
        <ele>336</ele>
        <time>2020-03-10T10:03:57.000Z</time>
      </trkpt>
      <trkpt lat="45.47058" lon="4.74526">
        <ele>335</ele>
        <time>2020-03-10T10:04:02.000Z</time>
      </trkpt>
      <trkpt lat="45.47059" lon="4.74534">
        <ele>334.79998779297</ele>
        <time>2020-03-10T10:04:04.000Z</time>
      </trkpt>
      <trkpt lat="45.47065" lon="4.74558">
        <ele>334.20001220703</ele>
        <time>2020-03-10T10:04:11.000Z</time>
      </trkpt>
      <trkpt lat="45.47066" lon="4.74561">
        <ele>334.20001220703</ele>
        <time>2020-03-10T10:04:12.000Z</time>
      </trkpt>
      <trkpt lat="45.47067" lon="4.74565">
        <ele>334</ele>
        <time>2020-03-10T10:04:13.000Z</time>
      </trkpt>
      <trkpt lat="45.47069" lon="4.74582">
        <ele>333.20001220703</ele>
        <time>2020-03-10T10:04:18.000Z</time>
      </trkpt>
      <trkpt lat="45.47071" lon="4.74593">
        <ele>333.20001220703</ele>
        <time>2020-03-10T10:04:21.000Z</time>
      </trkpt>
      <trkpt lat="45.47072" lon="4.74596">
        <ele>333.20001220703</ele>
        <time>2020-03-10T10:04:22.000Z</time>
      </trkpt>
      <trkpt lat="45.47077" lon="4.74616">
        <ele>333.20001220703</ele>
        <time>2020-03-10T10:04:28.000Z</time>
      </trkpt>
      <trkpt lat="45.47081" lon="4.7463">
        <ele>333</ele>
        <time>2020-03-10T10:04:32.000Z</time>
      </trkpt>
      <trkpt lat="45.47081" lon="4.74633">
        <ele>333</ele>
        <time>2020-03-10T10:04:33.000Z</time>
      </trkpt>
      <trkpt lat="45.47082" lon="4.74639">
        <ele>333.20001220703</ele>
        <time>2020-03-10T10:04:35.000Z</time>
      </trkpt>
      <trkpt lat="45.47086" lon="4.74664">
        <ele>332.60000610352</ele>
        <time>2020-03-10T10:04:42.000Z</time>
      </trkpt>
      <trkpt lat="45.47087" lon="4.74667">
        <ele>332.79998779297</ele>
        <time>2020-03-10T10:04:43.000Z</time>
      </trkpt>
      <trkpt lat="45.4709" lon="4.74692">
        <ele>332.20001220703</ele>
        <time>2020-03-10T10:04:50.000Z</time>
      </trkpt>
      <trkpt lat="45.47091" lon="4.74698">
        <ele>331.79998779297</ele>
        <time>2020-03-10T10:04:52.000Z</time>
      </trkpt>
      <trkpt lat="45.47094" lon="4.74712">
        <ele>332</ele>
        <time>2020-03-10T10:04:56.000Z</time>
      </trkpt>
      <trkpt lat="45.47098" lon="4.74732">
        <ele>332.39999389648</ele>
        <time>2020-03-10T10:05:02.000Z</time>
      </trkpt>
      <trkpt lat="45.47098" lon="4.74735">
        <ele>332.39999389648</ele>
        <time>2020-03-10T10:05:03.000Z</time>
      </trkpt>
      <trkpt lat="45.47102" lon="4.74763">
        <ele>330.79998779297</ele>
        <time>2020-03-10T10:05:11.000Z</time>
      </trkpt>
      <trkpt lat="45.47103" lon="4.74767">
        <ele>330.60000610352</ele>
        <time>2020-03-10T10:05:12.000Z</time>
      </trkpt>
      <trkpt lat="45.47105" lon="4.7479">
        <ele>330</ele>
        <time>2020-03-10T10:05:18.000Z</time>
      </trkpt>
      <trkpt lat="45.47105" lon="4.74794">
        <ele>329.60000610352</ele>
        <time>2020-03-10T10:05:19.000Z</time>
      </trkpt>
      <trkpt lat="45.47103" lon="4.74805">
        <ele>329</ele>
        <time>2020-03-10T10:05:22.000Z</time>
      </trkpt>
      <trkpt lat="45.47102" lon="4.74813">
        <ele>328.60000610352</ele>
        <time>2020-03-10T10:05:24.000Z</time>
      </trkpt>
      <trkpt lat="45.47098" lon="4.74832">
        <ele>327.39999389648</ele>
        <time>2020-03-10T10:05:29.000Z</time>
      </trkpt>
      <trkpt lat="45.47095" lon="4.74842">
        <ele>327.39999389648</ele>
        <time>2020-03-10T10:05:32.000Z</time>
      </trkpt>
      <trkpt lat="45.47089" lon="4.74865">
        <ele>326.79998779297</ele>
        <time>2020-03-10T10:05:39.000Z</time>
      </trkpt>
      <trkpt lat="45.47087" lon="4.74874">
        <ele>326.60000610352</ele>
        <time>2020-03-10T10:05:42.000Z</time>
      </trkpt>
      <trkpt lat="45.47085" lon="4.7488">
        <ele>326.60000610352</ele>
        <time>2020-03-10T10:05:44.000Z</time>
      </trkpt>
      <trkpt lat="45.47083" lon="4.74886">
        <ele>326.60000610352</ele>
        <time>2020-03-10T10:05:46.000Z</time>
      </trkpt>
      <trkpt lat="45.47079" lon="4.74903">
        <ele>326.39999389648</ele>
        <time>2020-03-10T10:05:51.000Z</time>
      </trkpt>
      <trkpt lat="45.47078" lon="4.74906">
        <ele>326.20001220703</ele>
        <time>2020-03-10T10:05:52.000Z</time>
      </trkpt>
      <trkpt lat="45.47075" lon="4.74922">
        <ele>325.60000610352</ele>
        <time>2020-03-10T10:05:57.000Z</time>
      </trkpt>
      <trkpt lat="45.47073" lon="4.74929">
        <ele>325.60000610352</ele>
        <time>2020-03-10T10:05:59.000Z</time>
      </trkpt>
      <trkpt lat="45.47072" lon="4.7494">
        <ele>325.79998779297</ele>
        <time>2020-03-10T10:06:02.000Z</time>
      </trkpt>
      <trkpt lat="45.4707" lon="4.7495">
        <ele>325.20001220703</ele>
        <time>2020-03-10T10:06:05.000Z</time>
      </trkpt>
      <trkpt lat="45.47068" lon="4.74961">
        <ele>325.20001220703</ele>
        <time>2020-03-10T10:06:08.000Z</time>
      </trkpt>
      <trkpt lat="45.47064" lon="4.74973">
        <ele>325.20001220703</ele>
        <time>2020-03-10T10:06:12.000Z</time>
      </trkpt>
      <trkpt lat="45.4706" lon="4.74989">
        <ele>325.20001220703</ele>
        <time>2020-03-10T10:06:17.000Z</time>
      </trkpt>
      <trkpt lat="45.47057" lon="4.75005">
        <ele>324.39999389648</ele>
        <time>2020-03-10T10:06:22.000Z</time>
      </trkpt>
      <trkpt lat="45.47055" lon="4.75015">
        <ele>324.20001220703</ele>
        <time>2020-03-10T10:06:25.000Z</time>
      </trkpt>
      <trkpt lat="45.47049" lon="4.75039">
        <ele>324.60000610352</ele>
        <time>2020-03-10T10:06:32.000Z</time>
      </trkpt>
      <trkpt lat="45.47045" lon="4.75053">
        <ele>324.20001220703</ele>
        <time>2020-03-10T10:06:36.000Z</time>
      </trkpt>
      <trkpt lat="45.47042" lon="4.75062">
        <ele>323.60000610352</ele>
        <time>2020-03-10T10:06:39.000Z</time>
      </trkpt>
      <trkpt lat="45.47039" lon="4.75072">
        <ele>323.60000610352</ele>
        <time>2020-03-10T10:06:42.000Z</time>
      </trkpt>
      <trkpt lat="45.47035" lon="4.75088">
        <ele>323.60000610352</ele>
        <time>2020-03-10T10:06:47.000Z</time>
      </trkpt>
      <trkpt lat="45.47031" lon="4.75104">
        <ele>323.39999389648</ele>
        <time>2020-03-10T10:06:52.000Z</time>
      </trkpt>
      <trkpt lat="45.47029" lon="4.75111">
        <ele>323.20001220703</ele>
        <time>2020-03-10T10:06:54.000Z</time>
      </trkpt>
      <trkpt lat="45.47022" lon="4.75127">
        <ele>323</ele>
        <time>2020-03-10T10:06:59.000Z</time>
      </trkpt>
      <trkpt lat="45.47018" lon="4.75136">
        <ele>323</ele>
        <time>2020-03-10T10:07:02.000Z</time>
      </trkpt>
      <trkpt lat="45.47012" lon="4.75151">
        <ele>322.20001220703</ele>
        <time>2020-03-10T10:07:07.000Z</time>
      </trkpt>
      <trkpt lat="45.47009" lon="4.75157">
        <ele>322</ele>
        <time>2020-03-10T10:07:09.000Z</time>
      </trkpt>
      <trkpt lat="45.47004" lon="4.75166">
        <ele>321.39999389648</ele>
        <time>2020-03-10T10:07:12.000Z</time>
      </trkpt>
      <trkpt lat="45.47002" lon="4.75172">
        <ele>321.20001220703</ele>
        <time>2020-03-10T10:07:14.000Z</time>
      </trkpt>
      <trkpt lat="45.46999" lon="4.75178">
        <ele>321</ele>
        <time>2020-03-10T10:07:16.000Z</time>
      </trkpt>
      <trkpt lat="45.4699" lon="4.75191">
        <ele>320</ele>
        <time>2020-03-10T10:07:21.000Z</time>
      </trkpt>
      <trkpt lat="45.46988" lon="4.75194">
        <ele>319.79998779297</ele>
        <time>2020-03-10T10:07:22.000Z</time>
      </trkpt>
      <trkpt lat="45.46981" lon="4.75206">
        <ele>319</ele>
        <time>2020-03-10T10:07:27.000Z</time>
      </trkpt>
      <trkpt lat="45.46979" lon="4.75213">
        <ele>318.39999389648</ele>
        <time>2020-03-10T10:07:29.000Z</time>
      </trkpt>
      <trkpt lat="45.46974" lon="4.75222">
        <ele>318.20001220703</ele>
        <time>2020-03-10T10:07:32.000Z</time>
      </trkpt>
      <trkpt lat="45.46967" lon="4.75233">
        <ele>318.20001220703</ele>
        <time>2020-03-10T10:07:36.000Z</time>
      </trkpt>
      <trkpt lat="45.46956" lon="4.75246">
        <ele>317.79998779297</ele>
        <time>2020-03-10T10:07:41.000Z</time>
      </trkpt>
      <trkpt lat="45.46954" lon="4.75248">
        <ele>317.79998779297</ele>
        <time>2020-03-10T10:07:42.000Z</time>
      </trkpt>
      <trkpt lat="45.46952" lon="4.75251">
        <ele>317.79998779297</ele>
        <time>2020-03-10T10:07:43.000Z</time>
      </trkpt>
      <trkpt lat="45.46946" lon="4.75262">
        <ele>316.79998779297</ele>
        <time>2020-03-10T10:07:46.000Z</time>
      </trkpt>
      <trkpt lat="45.46941" lon="4.75272">
        <ele>316.60000610352</ele>
        <time>2020-03-10T10:07:49.000Z</time>
      </trkpt>
      <trkpt lat="45.46936" lon="4.75283">
        <ele>316.39999389648</ele>
        <time>2020-03-10T10:07:52.000Z</time>
      </trkpt>
      <trkpt lat="45.4693" lon="4.75296">
        <ele>315.60000610352</ele>
        <time>2020-03-10T10:07:56.000Z</time>
      </trkpt>
      <trkpt lat="45.46928" lon="4.75299">
        <ele>315.60000610352</ele>
        <time>2020-03-10T10:07:57.000Z</time>
      </trkpt>
      <trkpt lat="45.46921" lon="4.75313">
        <ele>315.20001220703</ele>
        <time>2020-03-10T10:08:02.000Z</time>
      </trkpt>
      <trkpt lat="45.46915" lon="4.75324">
        <ele>315</ele>
        <time>2020-03-10T10:08:06.000Z</time>
      </trkpt>
      <trkpt lat="45.46906" lon="4.75336">
        <ele>314.39999389648</ele>
        <time>2020-03-10T10:08:11.000Z</time>
      </trkpt>
      <trkpt lat="45.46905" lon="4.75339">
        <ele>314</ele>
        <time>2020-03-10T10:08:12.000Z</time>
      </trkpt>
      <trkpt lat="45.46901" lon="4.75345">
        <ele>313.79998779297</ele>
        <time>2020-03-10T10:08:14.000Z</time>
      </trkpt>
      <trkpt lat="45.46894" lon="4.75355">
        <ele>313.60000610352</ele>
        <time>2020-03-10T10:08:18.000Z</time>
      </trkpt>
      <trkpt lat="45.46888" lon="4.75367">
        <ele>313</ele>
        <time>2020-03-10T10:08:22.000Z</time>
      </trkpt>
      <trkpt lat="45.46886" lon="4.7537">
        <ele>312.79998779297</ele>
        <time>2020-03-10T10:08:23.000Z</time>
      </trkpt>
      <trkpt lat="45.46873" lon="4.7539">
        <ele>313.20001220703</ele>
        <time>2020-03-10T10:08:31.000Z</time>
      </trkpt>
      <trkpt lat="45.46871" lon="4.75393">
        <ele>313</ele>
        <time>2020-03-10T10:08:32.000Z</time>
      </trkpt>
      <trkpt lat="45.46858" lon="4.75413">
        <ele>312.79998779297</ele>
        <time>2020-03-10T10:08:39.000Z</time>
      </trkpt>
      <trkpt lat="45.46855" lon="4.75418">
        <ele>312.79998779297</ele>
        <time>2020-03-10T10:08:41.000Z</time>
      </trkpt>
      <trkpt lat="45.46854" lon="4.75421">
        <ele>312.79998779297</ele>
        <time>2020-03-10T10:08:42.000Z</time>
      </trkpt>
      <trkpt lat="45.46846" lon="4.75435">
        <ele>312</ele>
        <time>2020-03-10T10:08:47.000Z</time>
      </trkpt>
      <trkpt lat="45.46845" lon="4.75438">
        <ele>311.79998779297</ele>
        <time>2020-03-10T10:08:48.000Z</time>
      </trkpt>
      <trkpt lat="45.46839" lon="4.7545">
        <ele>311.79998779297</ele>
        <time>2020-03-10T10:08:52.000Z</time>
      </trkpt>
      <trkpt lat="45.46834" lon="4.75461">
        <ele>311.60000610352</ele>
        <time>2020-03-10T10:08:56.000Z</time>
      </trkpt>
      <trkpt lat="45.46826" lon="4.75479">
        <ele>311.39999389648</ele>
        <time>2020-03-10T10:09:02.000Z</time>
      </trkpt>
      <trkpt lat="45.46823" lon="4.75485">
        <ele>311.39999389648</ele>
        <time>2020-03-10T10:09:04.000Z</time>
      </trkpt>
      <trkpt lat="45.46816" lon="4.75509">
        <ele>311.20001220703</ele>
        <time>2020-03-10T10:09:12.000Z</time>
      </trkpt>
      <trkpt lat="45.46816" lon="4.75513">
        <ele>311.20001220703</ele>
        <time>2020-03-10T10:09:13.000Z</time>
      </trkpt>
      <trkpt lat="45.46813" lon="4.75528">
        <ele>310.79998779297</ele>
        <time>2020-03-10T10:09:17.000Z</time>
      </trkpt>
      <trkpt lat="45.46811" lon="4.75547">
        <ele>310.39999389648</ele>
        <time>2020-03-10T10:09:22.000Z</time>
      </trkpt>
      <trkpt lat="45.46805" lon="4.75574">
        <ele>310</ele>
        <time>2020-03-10T10:09:30.000Z</time>
      </trkpt>
      <trkpt lat="45.46803" lon="4.75581">
        <ele>310</ele>
        <time>2020-03-10T10:09:32.000Z</time>
      </trkpt>
      <trkpt lat="45.46801" lon="4.75591">
        <ele>309.79998779297</ele>
        <time>2020-03-10T10:09:35.000Z</time>
      </trkpt>
      <trkpt lat="45.468" lon="4.75598">
        <ele>310</ele>
        <time>2020-03-10T10:09:37.000Z</time>
      </trkpt>
      <trkpt lat="45.46796" lon="4.75616">
        <ele>309.60000610352</ele>
        <time>2020-03-10T10:09:42.000Z</time>
      </trkpt>
      <trkpt lat="45.46795" lon="4.75623">
        <ele>308.79998779297</ele>
        <time>2020-03-10T10:09:44.000Z</time>
      </trkpt>
      <trkpt lat="45.46789" lon="4.75648">
        <ele>307.79998779297</ele>
        <time>2020-03-10T10:09:51.000Z</time>
      </trkpt>
      <trkpt lat="45.46789" lon="4.75651">
        <ele>307.60000610352</ele>
        <time>2020-03-10T10:09:52.000Z</time>
      </trkpt>
      <trkpt lat="45.46784" lon="4.75675">
        <ele>306.60000610352</ele>
        <time>2020-03-10T10:09:59.000Z</time>
      </trkpt>
      <trkpt lat="45.46783" lon="4.75679">
        <ele>306.20001220703</ele>
        <time>2020-03-10T10:10:00.000Z</time>
      </trkpt>
      <trkpt lat="45.46782" lon="4.75685">
        <ele>305.79998779297</ele>
        <time>2020-03-10T10:10:02.000Z</time>
      </trkpt>
      <trkpt lat="45.46778" lon="4.757">
        <ele>305.79998779297</ele>
        <time>2020-03-10T10:10:07.000Z</time>
      </trkpt>
      <trkpt lat="45.46773" lon="4.75718">
        <ele>305.60000610352</ele>
        <time>2020-03-10T10:10:12.000Z</time>
      </trkpt>
      <trkpt lat="45.4677" lon="4.75727">
        <ele>305.20001220703</ele>
        <time>2020-03-10T10:10:15.000Z</time>
      </trkpt>
      <trkpt lat="45.46769" lon="4.7573">
        <ele>305.20001220703</ele>
        <time>2020-03-10T10:10:16.000Z</time>
      </trkpt>
      <trkpt lat="45.46765" lon="4.75744">
        <ele>304.79998779297</ele>
        <time>2020-03-10T10:10:20.000Z</time>
      </trkpt>
      <trkpt lat="45.46763" lon="4.75751">
        <ele>304.79998779297</ele>
        <time>2020-03-10T10:10:22.000Z</time>
      </trkpt>
      <trkpt lat="45.46762" lon="4.75755">
        <ele>304.60000610352</ele>
        <time>2020-03-10T10:10:23.000Z</time>
      </trkpt>
      <trkpt lat="45.46761" lon="4.75758">
        <ele>304.39999389648</ele>
        <time>2020-03-10T10:10:24.000Z</time>
      </trkpt>
      <trkpt lat="45.46755" lon="4.75783">
        <ele>303.60000610352</ele>
        <time>2020-03-10T10:10:31.000Z</time>
      </trkpt>
      <trkpt lat="45.46754" lon="4.75786">
        <ele>303.39999389648</ele>
        <time>2020-03-10T10:10:32.000Z</time>
      </trkpt>
      <trkpt lat="45.46752" lon="4.75793">
        <ele>303.20001220703</ele>
        <time>2020-03-10T10:10:34.000Z</time>
      </trkpt>
      <trkpt lat="45.46745" lon="4.75817">
        <ele>302.39999389648</ele>
        <time>2020-03-10T10:10:41.000Z</time>
      </trkpt>
      <trkpt lat="45.46744" lon="4.7582">
        <ele>302.20001220703</ele>
        <time>2020-03-10T10:10:42.000Z</time>
      </trkpt>
      <trkpt lat="45.46737" lon="4.75845">
        <ele>301.60000610352</ele>
        <time>2020-03-10T10:10:49.000Z</time>
      </trkpt>
      <trkpt lat="45.46736" lon="4.75848">
        <ele>301.60000610352</ele>
        <time>2020-03-10T10:10:50.000Z</time>
      </trkpt>
      <trkpt lat="45.46734" lon="4.75854">
        <ele>301.39999389648</ele>
        <time>2020-03-10T10:10:52.000Z</time>
      </trkpt>
      <trkpt lat="45.46731" lon="4.75861">
        <ele>301.39999389648</ele>
        <time>2020-03-10T10:10:54.000Z</time>
      </trkpt>
      <trkpt lat="45.46728" lon="4.75875">
        <ele>301.20001220703</ele>
        <time>2020-03-10T10:10:58.000Z</time>
      </trkpt>
      <trkpt lat="45.46724" lon="4.7589">
        <ele>300.79998779297</ele>
        <time>2020-03-10T10:11:02.000Z</time>
      </trkpt>
      <trkpt lat="45.46721" lon="4.75899">
        <ele>300.20001220703</ele>
        <time>2020-03-10T10:11:05.000Z</time>
      </trkpt>
      <trkpt lat="45.4672" lon="4.75917">
        <ele>299.79998779297</ele>
        <time>2020-03-10T10:11:10.000Z</time>
      </trkpt>
      <trkpt lat="45.46721" lon="4.7592">
        <ele>299.79998779297</ele>
        <time>2020-03-10T10:11:11.000Z</time>
      </trkpt>
      <trkpt lat="45.46723" lon="4.75923">
        <ele>299.79998779297</ele>
        <time>2020-03-10T10:11:12.000Z</time>
      </trkpt>
      <trkpt lat="45.46729" lon="4.7593">
        <ele>300.39999389648</ele>
        <time>2020-03-10T10:11:16.000Z</time>
      </trkpt>
      <trkpt lat="45.46741" lon="4.75937">
        <ele>300.60000610352</ele>
        <time>2020-03-10T10:11:22.000Z</time>
      </trkpt>
      <trkpt lat="45.46744" lon="4.75938">
        <ele>300.79998779297</ele>
        <time>2020-03-10T10:11:23.000Z</time>
      </trkpt>
      <trkpt lat="45.4676" lon="4.75948">
        <ele>299.39999389648</ele>
        <time>2020-03-10T10:11:30.000Z</time>
      </trkpt>
      <trkpt lat="45.46764" lon="4.75951">
        <ele>298.79998779297</ele>
        <time>2020-03-10T10:11:32.000Z</time>
      </trkpt>
      <trkpt lat="45.46777" lon="4.75962">
        <ele>297.60000610352</ele>
        <time>2020-03-10T10:11:38.000Z</time>
      </trkpt>
      <trkpt lat="45.46783" lon="4.75966">
        <ele>296</ele>
        <time>2020-03-10T10:11:41.000Z</time>
      </trkpt>
      <trkpt lat="45.46786" lon="4.75968">
        <ele>295.79998779297</ele>
        <time>2020-03-10T10:11:42.000Z</time>
      </trkpt>
      <trkpt lat="45.4679" lon="4.7597">
        <ele>294.79998779297</ele>
        <time>2020-03-10T10:11:44.000Z</time>
      </trkpt>
      <trkpt lat="45.46794" lon="4.75974">
        <ele>294.20001220703</ele>
        <time>2020-03-10T10:11:46.000Z</time>
      </trkpt>
      <trkpt lat="45.46796" lon="4.75975">
        <ele>294</ele>
        <time>2020-03-10T10:11:47.000Z</time>
      </trkpt>
      <trkpt lat="45.46801" lon="4.75979">
        <ele>293.60000610352</ele>
        <time>2020-03-10T10:11:49.000Z</time>
      </trkpt>
      <trkpt lat="45.46807" lon="4.75985">
        <ele>293.20001220703</ele>
        <time>2020-03-10T10:11:52.000Z</time>
      </trkpt>
      <trkpt lat="45.46811" lon="4.75988">
        <ele>292.39999389648</ele>
        <time>2020-03-10T10:11:54.000Z</time>
      </trkpt>
      <trkpt lat="45.46815" lon="4.75991">
        <ele>291.39999389648</ele>
        <time>2020-03-10T10:11:56.000Z</time>
      </trkpt>
      <trkpt lat="45.4682" lon="4.75998">
        <ele>290.20001220703</ele>
        <time>2020-03-10T10:11:59.000Z</time>
      </trkpt>
      <trkpt lat="45.46821" lon="4.76001">
        <ele>289.79998779297</ele>
        <time>2020-03-10T10:12:00.000Z</time>
      </trkpt>
      <trkpt lat="45.46825" lon="4.76005">
        <ele>289.39999389648</ele>
        <time>2020-03-10T10:12:02.000Z</time>
      </trkpt>
      <trkpt lat="45.46827" lon="4.76007">
        <ele>288.79998779297</ele>
        <time>2020-03-10T10:12:03.000Z</time>
      </trkpt>
      <trkpt lat="45.46831" lon="4.76012">
        <ele>287.60000610352</ele>
        <time>2020-03-10T10:12:05.000Z</time>
      </trkpt>
      <trkpt lat="45.46832" lon="4.76014">
        <ele>287</ele>
        <time>2020-03-10T10:12:06.000Z</time>
      </trkpt>
      <trkpt lat="45.46834" lon="4.76016">
        <ele>286.39999389648</ele>
        <time>2020-03-10T10:12:07.000Z</time>
      </trkpt>
      <trkpt lat="45.46835" lon="4.76022">
        <ele>285.20001220703</ele>
        <time>2020-03-10T10:12:09.000Z</time>
      </trkpt>
      <trkpt lat="45.46834" lon="4.76025">
        <ele>284.79998779297</ele>
        <time>2020-03-10T10:12:10.000Z</time>
      </trkpt>
      <trkpt lat="45.46832" lon="4.76027">
        <ele>284.60000610352</ele>
        <time>2020-03-10T10:12:11.000Z</time>
      </trkpt>
      <trkpt lat="45.4683" lon="4.76028">
        <ele>284.20001220703</ele>
        <time>2020-03-10T10:12:12.000Z</time>
      </trkpt>
      <trkpt lat="45.46823" lon="4.76027">
        <ele>283.39999389648</ele>
        <time>2020-03-10T10:12:16.000Z</time>
      </trkpt>
      <trkpt lat="45.46822" lon="4.76027">
        <ele>283.60000610352</ele>
        <time>2020-03-10T10:12:17.000Z</time>
      </trkpt>
      <trkpt lat="45.46821" lon="4.76032">
        <ele>283</ele>
        <time>2020-03-10T10:12:20.000Z</time>
      </trkpt>
      <trkpt lat="45.4682" lon="4.76035">
        <ele>281.79998779297</ele>
        <time>2020-03-10T10:12:22.000Z</time>
      </trkpt>
      <trkpt lat="45.4682" lon="4.76039">
        <ele>280.20001220703</ele>
        <time>2020-03-10T10:12:24.000Z</time>
      </trkpt>
      <trkpt lat="45.4682" lon="4.76041">
        <ele>279.79998779297</ele>
        <time>2020-03-10T10:12:25.000Z</time>
      </trkpt>
      <trkpt lat="45.46819" lon="4.76043">
        <ele>279.20001220703</ele>
        <time>2020-03-10T10:12:26.000Z</time>
      </trkpt>
      <trkpt lat="45.4682" lon="4.76047">
        <ele>277.60000610352</ele>
        <time>2020-03-10T10:12:28.000Z</time>
      </trkpt>
      <trkpt lat="45.4682" lon="4.7605">
        <ele>276.39999389648</ele>
        <time>2020-03-10T10:12:30.000Z</time>
      </trkpt>
      <trkpt lat="45.4682" lon="4.76051">
        <ele>275.79998779297</ele>
        <time>2020-03-10T10:12:31.000Z</time>
      </trkpt>
      <trkpt lat="45.4682" lon="4.76052">
        <ele>275.20001220703</ele>
        <time>2020-03-10T10:12:32.000Z</time>
      </trkpt>
      <trkpt lat="45.46817" lon="4.76057">
        <ele>273.60000610352</ele>
        <time>2020-03-10T10:12:35.000Z</time>
      </trkpt>
      <trkpt lat="45.46816" lon="4.7606">
        <ele>272.79998779297</ele>
        <time>2020-03-10T10:12:36.000Z</time>
      </trkpt>
      <trkpt lat="45.46815" lon="4.76061">
        <ele>272.39999389648</ele>
        <time>2020-03-10T10:12:37.000Z</time>
      </trkpt>
      <trkpt lat="45.4681" lon="4.76063">
        <ele>271.79998779297</ele>
        <time>2020-03-10T10:12:40.000Z</time>
      </trkpt>
      <trkpt lat="45.46807" lon="4.76064">
        <ele>272</ele>
        <time>2020-03-10T10:12:42.000Z</time>
      </trkpt>
      <trkpt lat="45.46803" lon="4.76067">
        <ele>273.20001220703</ele>
        <time>2020-03-10T10:12:45.000Z</time>
      </trkpt>
      <trkpt lat="45.46804" lon="4.76072">
        <ele>273.39999389648</ele>
        <time>2020-03-10T10:12:47.000Z</time>
      </trkpt>
      <trkpt lat="45.46803" lon="4.76078">
        <ele>273</ele>
        <time>2020-03-10T10:12:49.000Z</time>
      </trkpt>
      <trkpt lat="45.46803" lon="4.76083">
        <ele>272</ele>
        <time>2020-03-10T10:12:51.000Z</time>
      </trkpt>
      <trkpt lat="45.46803" lon="4.76085">
        <ele>271.20001220703</ele>
        <time>2020-03-10T10:12:52.000Z</time>
      </trkpt>
      <trkpt lat="45.46803" lon="4.76087">
        <ele>270.20001220703</ele>
        <time>2020-03-10T10:12:53.000Z</time>
      </trkpt>
      <trkpt lat="45.46803" lon="4.76089">
        <ele>268.60000610352</ele>
        <time>2020-03-10T10:12:55.000Z</time>
      </trkpt>
      <trkpt lat="45.46804" lon="4.76091">
        <ele>267.79998779297</ele>
        <time>2020-03-10T10:12:56.000Z</time>
      </trkpt>
      <trkpt lat="45.46804" lon="4.76093">
        <ele>267.39999389648</ele>
        <time>2020-03-10T10:12:57.000Z</time>
      </trkpt>
      <trkpt lat="45.46806" lon="4.76096">
        <ele>266.79998779297</ele>
        <time>2020-03-10T10:12:58.000Z</time>
      </trkpt>
      <trkpt lat="45.46806" lon="4.76099">
        <ele>266</ele>
        <time>2020-03-10T10:12:59.000Z</time>
      </trkpt>
      <trkpt lat="45.46806" lon="4.76101">
        <ele>265.20001220703</ele>
        <time>2020-03-10T10:13:00.000Z</time>
      </trkpt>
      <trkpt lat="45.46806" lon="4.76103">
        <ele>264.60000610352</ele>
        <time>2020-03-10T10:13:01.000Z</time>
      </trkpt>
      <trkpt lat="45.46806" lon="4.76105">
        <ele>264.20001220703</ele>
        <time>2020-03-10T10:13:02.000Z</time>
      </trkpt>
      <trkpt lat="45.46807" lon="4.76106">
        <ele>263.79998779297</ele>
        <time>2020-03-10T10:13:03.000Z</time>
      </trkpt>
      <trkpt lat="45.46807" lon="4.76108">
        <ele>263.60000610352</ele>
        <time>2020-03-10T10:13:04.000Z</time>
      </trkpt>
      <trkpt lat="45.46806" lon="4.76112">
        <ele>262.39999389648</ele>
        <time>2020-03-10T10:13:06.000Z</time>
      </trkpt>
      <trkpt lat="45.46803" lon="4.76114">
        <ele>261.20001220703</ele>
        <time>2020-03-10T10:13:08.000Z</time>
      </trkpt>
      <trkpt lat="45.46798" lon="4.7612">
        <ele>259.79998779297</ele>
        <time>2020-03-10T10:13:11.000Z</time>
      </trkpt>
      <trkpt lat="45.46796" lon="4.76122">
        <ele>259</ele>
        <time>2020-03-10T10:13:12.000Z</time>
      </trkpt>
      <trkpt lat="45.46795" lon="4.76123">
        <ele>257.79998779297</ele>
        <time>2020-03-10T10:13:13.000Z</time>
      </trkpt>
      <trkpt lat="45.46793" lon="4.76124">
        <ele>256.79998779297</ele>
        <time>2020-03-10T10:13:14.000Z</time>
      </trkpt>
      <trkpt lat="45.46791" lon="4.76125">
        <ele>255.80000305176</ele>
        <time>2020-03-10T10:13:15.000Z</time>
      </trkpt>
      <trkpt lat="45.4679" lon="4.76126">
        <ele>255</ele>
        <time>2020-03-10T10:13:16.000Z</time>
      </trkpt>
      <trkpt lat="45.46789" lon="4.76128">
        <ele>254.39999389648</ele>
        <time>2020-03-10T10:13:17.000Z</time>
      </trkpt>
      <trkpt lat="45.46787" lon="4.76134">
        <ele>253.60000610352</ele>
        <time>2020-03-10T10:13:19.000Z</time>
      </trkpt>
      <trkpt lat="45.46786" lon="4.76136">
        <ele>253.39999389648</ele>
        <time>2020-03-10T10:13:20.000Z</time>
      </trkpt>
      <trkpt lat="45.46785" lon="4.76142">
        <ele>253.19999694824</ele>
        <time>2020-03-10T10:13:22.000Z</time>
      </trkpt>
      <trkpt lat="45.46784" lon="4.76149">
        <ele>253.19999694824</ele>
        <time>2020-03-10T10:13:25.000Z</time>
      </trkpt>
      <trkpt lat="45.46784" lon="4.76157">
        <ele>252.39999389648</ele>
        <time>2020-03-10T10:13:29.000Z</time>
      </trkpt>
      <trkpt lat="45.46784" lon="4.76162">
        <ele>252</ele>
        <time>2020-03-10T10:13:31.000Z</time>
      </trkpt>
      <trkpt lat="45.46785" lon="4.76164">
        <ele>251.60000610352</ele>
        <time>2020-03-10T10:13:32.000Z</time>
      </trkpt>
      <trkpt lat="45.46786" lon="4.76166">
        <ele>251</ele>
        <time>2020-03-10T10:13:33.000Z</time>
      </trkpt>
      <trkpt lat="45.46787" lon="4.76169">
        <ele>250.39999389648</ele>
        <time>2020-03-10T10:13:34.000Z</time>
      </trkpt>
      <trkpt lat="45.46787" lon="4.76171">
        <ele>249.60000610352</ele>
        <time>2020-03-10T10:13:35.000Z</time>
      </trkpt>
      <trkpt lat="45.46787" lon="4.76173">
        <ele>248.80000305176</ele>
        <time>2020-03-10T10:13:36.000Z</time>
      </trkpt>
      <trkpt lat="45.46786" lon="4.76174">
        <ele>248.19999694824</ele>
        <time>2020-03-10T10:13:37.000Z</time>
      </trkpt>
      <trkpt lat="45.46784" lon="4.7618">
        <ele>247</ele>
        <time>2020-03-10T10:13:39.000Z</time>
      </trkpt>
      <trkpt lat="45.46783" lon="4.76186">
        <ele>246</ele>
        <time>2020-03-10T10:13:41.000Z</time>
      </trkpt>
      <trkpt lat="45.46782" lon="4.7619">
        <ele>245.60000610352</ele>
        <time>2020-03-10T10:13:42.000Z</time>
      </trkpt>
      <trkpt lat="45.46782" lon="4.76194">
        <ele>245.19999694824</ele>
        <time>2020-03-10T10:13:43.000Z</time>
      </trkpt>
      <trkpt lat="45.46782" lon="4.76196">
        <ele>245</ele>
        <time>2020-03-10T10:13:44.000Z</time>
      </trkpt>
      <trkpt lat="45.46775" lon="4.762">
        <ele>243.80000305176</ele>
        <time>2020-03-10T10:13:48.000Z</time>
      </trkpt>
      <trkpt lat="45.4677" lon="4.762">
        <ele>243.60000610352</ele>
        <time>2020-03-10T10:13:51.000Z</time>
      </trkpt>
      <trkpt lat="45.46769" lon="4.76199">
        <ele>243.60000610352</ele>
        <time>2020-03-10T10:13:52.000Z</time>
      </trkpt>
      <trkpt lat="45.46768" lon="4.76199">
        <ele>243.60000610352</ele>
        <time>2020-03-10T10:13:53.000Z</time>
      </trkpt>
      <trkpt lat="45.46766" lon="4.76196">
        <ele>244.19999694824</ele>
        <time>2020-03-10T10:13:56.000Z</time>
      </trkpt>
      <trkpt lat="45.46767" lon="4.762">
        <ele>244.39999389648</ele>
        <time>2020-03-10T10:13:58.000Z</time>
      </trkpt>
      <trkpt lat="45.46767" lon="4.762">
        <ele>244.60000610352</ele>
        <time>2020-03-10T10:13:59.000Z</time>
      </trkpt>
      <trkpt lat="45.46768" lon="4.762">
        <ele>245.19999694824</ele>
        <time>2020-03-10T10:14:00.000Z</time>
      </trkpt>
      <trkpt lat="45.46768" lon="4.762">
        <ele>245.60000610352</ele>
        <time>2020-03-10T10:14:01.000Z</time>
      </trkpt>
      <trkpt lat="45.46769" lon="4.76202">
        <ele>246</ele>
        <time>2020-03-10T10:14:02.000Z</time>
      </trkpt>
      <trkpt lat="45.46765" lon="4.762">
        <ele>246.19999694824</ele>
        <time>2020-03-10T10:14:03.000Z</time>
      </trkpt>
      <trkpt lat="45.46763" lon="4.762">
        <ele>246.39999389648</ele>
        <time>2020-03-10T10:14:04.000Z</time>
      </trkpt>
      <trkpt lat="45.46757" lon="4.76198">
        <ele>247.39999389648</ele>
        <time>2020-03-10T10:14:08.000Z</time>
      </trkpt>
      <trkpt lat="45.46755" lon="4.76198">
        <ele>247.80000305176</ele>
        <time>2020-03-10T10:14:09.000Z</time>
      </trkpt>
      <trkpt lat="45.46749" lon="4.76201">
        <ele>248</ele>
        <time>2020-03-10T10:14:12.000Z</time>
      </trkpt>
      <trkpt lat="45.46746" lon="4.76204">
        <ele>248</ele>
        <time>2020-03-10T10:14:14.000Z</time>
      </trkpt>
      <trkpt lat="45.46743" lon="4.76209">
        <ele>247.60000610352</ele>
        <time>2020-03-10T10:14:18.000Z</time>
      </trkpt>
      <trkpt lat="45.46741" lon="4.76213">
        <ele>247</ele>
        <time>2020-03-10T10:14:20.000Z</time>
      </trkpt>
      <trkpt lat="45.46741" lon="4.76215">
        <ele>246.39999389648</ele>
        <time>2020-03-10T10:14:21.000Z</time>
      </trkpt>
      <trkpt lat="45.46741" lon="4.76217">
        <ele>246</ele>
        <time>2020-03-10T10:14:22.000Z</time>
      </trkpt>
      <trkpt lat="45.4674" lon="4.76222">
        <ele>245.39999389648</ele>
        <time>2020-03-10T10:14:24.000Z</time>
      </trkpt>
      <trkpt lat="45.46739" lon="4.76223">
        <ele>245</ele>
        <time>2020-03-10T10:14:25.000Z</time>
      </trkpt>
      <trkpt lat="45.46738" lon="4.76224">
        <ele>244.80000305176</ele>
        <time>2020-03-10T10:14:26.000Z</time>
      </trkpt>
      <trkpt lat="45.46734" lon="4.7623">
        <ele>243.60000610352</ele>
        <time>2020-03-10T10:14:29.000Z</time>
      </trkpt>
      <trkpt lat="45.46731" lon="4.76234">
        <ele>242.60000610352</ele>
        <time>2020-03-10T10:14:31.000Z</time>
      </trkpt>
      <trkpt lat="45.4673" lon="4.76235">
        <ele>242</ele>
        <time>2020-03-10T10:14:32.000Z</time>
      </trkpt>
      <trkpt lat="45.46726" lon="4.76238">
        <ele>241.39999389648</ele>
        <time>2020-03-10T10:14:34.000Z</time>
      </trkpt>
      <trkpt lat="45.46724" lon="4.76242">
        <ele>240.19999694824</ele>
        <time>2020-03-10T10:14:37.000Z</time>
      </trkpt>
      <trkpt lat="45.46724" lon="4.76244">
        <ele>239.60000610352</ele>
        <time>2020-03-10T10:14:38.000Z</time>
      </trkpt>
      <trkpt lat="45.46722" lon="4.76248">
        <ele>239</ele>
        <time>2020-03-10T10:14:40.000Z</time>
      </trkpt>
      <trkpt lat="45.46719" lon="4.76255">
        <ele>238.60000610352</ele>
        <time>2020-03-10T10:14:42.000Z</time>
      </trkpt>
      <trkpt lat="45.46718" lon="4.76257">
        <ele>238</ele>
        <time>2020-03-10T10:14:43.000Z</time>
      </trkpt>
      <trkpt lat="45.46717" lon="4.76259">
        <ele>237.60000610352</ele>
        <time>2020-03-10T10:14:44.000Z</time>
      </trkpt>
      <trkpt lat="45.46712" lon="4.76263">
        <ele>236.60000610352</ele>
        <time>2020-03-10T10:14:47.000Z</time>
      </trkpt>
      <trkpt lat="45.46711" lon="4.76264">
        <ele>236.39999389648</ele>
        <time>2020-03-10T10:14:48.000Z</time>
      </trkpt>
      <trkpt lat="45.4671" lon="4.76265">
        <ele>236.19999694824</ele>
        <time>2020-03-10T10:14:49.000Z</time>
      </trkpt>
      <trkpt lat="45.46706" lon="4.76271">
        <ele>235.60000610352</ele>
        <time>2020-03-10T10:14:52.000Z</time>
      </trkpt>
      <trkpt lat="45.46696" lon="4.7628">
        <ele>235.80000305176</ele>
        <time>2020-03-10T10:14:58.000Z</time>
      </trkpt>
      <trkpt lat="45.46689" lon="4.76289">
        <ele>235.80000305176</ele>
        <time>2020-03-10T10:15:02.000Z</time>
      </trkpt>
      <trkpt lat="45.46687" lon="4.76291">
        <ele>235.80000305176</ele>
        <time>2020-03-10T10:15:03.000Z</time>
      </trkpt>
      <trkpt lat="45.46687" lon="4.76298">
        <ele>235.60000610352</ele>
        <time>2020-03-10T10:15:06.000Z</time>
      </trkpt>
      <trkpt lat="45.46687" lon="4.763">
        <ele>235.39999389648</ele>
        <time>2020-03-10T10:15:07.000Z</time>
      </trkpt>
      <trkpt lat="45.46687" lon="4.76302">
        <ele>235</ele>
        <time>2020-03-10T10:15:08.000Z</time>
      </trkpt>
      <trkpt lat="45.46686" lon="4.76305">
        <ele>234.60000610352</ele>
        <time>2020-03-10T10:15:09.000Z</time>
      </trkpt>
      <trkpt lat="45.46684" lon="4.76309">
        <ele>233.80000305176</ele>
        <time>2020-03-10T10:15:11.000Z</time>
      </trkpt>
      <trkpt lat="45.46683" lon="4.76312">
        <ele>233.60000610352</ele>
        <time>2020-03-10T10:15:12.000Z</time>
      </trkpt>
      <trkpt lat="45.4668" lon="4.7632">
        <ele>232.60000610352</ele>
        <time>2020-03-10T10:15:16.000Z</time>
      </trkpt>
      <trkpt lat="45.4668" lon="4.76322">
        <ele>232.39999389648</ele>
        <time>2020-03-10T10:15:17.000Z</time>
      </trkpt>
      <trkpt lat="45.4668" lon="4.76326">
        <ele>232.19999694824</ele>
        <time>2020-03-10T10:15:18.000Z</time>
      </trkpt>
      <trkpt lat="45.4668" lon="4.76333">
        <ele>231.19999694824</ele>
        <time>2020-03-10T10:15:20.000Z</time>
      </trkpt>
      <trkpt lat="45.46681" lon="4.7634">
        <ele>230.19999694824</ele>
        <time>2020-03-10T10:15:22.000Z</time>
      </trkpt>
      <trkpt lat="45.46682" lon="4.76346">
        <ele>229.39999389648</ele>
        <time>2020-03-10T10:15:24.000Z</time>
      </trkpt>
      <trkpt lat="45.46682" lon="4.76349">
        <ele>229</ele>
        <time>2020-03-10T10:15:25.000Z</time>
      </trkpt>
      <trkpt lat="45.46683" lon="4.7635">
        <ele>228.60000610352</ele>
        <time>2020-03-10T10:15:26.000Z</time>
      </trkpt>
      <trkpt lat="45.46684" lon="4.76351">
        <ele>228</ele>
        <time>2020-03-10T10:15:27.000Z</time>
      </trkpt>
      <trkpt lat="45.46684" lon="4.76351">
        <ele>227.60000610352</ele>
        <time>2020-03-10T10:15:28.000Z</time>
      </trkpt>
      <trkpt lat="45.46685" lon="4.76351">
        <ele>226.80000305176</ele>
        <time>2020-03-10T10:15:30.000Z</time>
      </trkpt>
      <trkpt lat="45.46687" lon="4.76352">
        <ele>225.60000610352</ele>
        <time>2020-03-10T10:15:32.000Z</time>
      </trkpt>
      <trkpt lat="45.46689" lon="4.76351">
        <ele>224.19999694824</ele>
        <time>2020-03-10T10:15:34.000Z</time>
      </trkpt>
      <trkpt lat="45.46693" lon="4.76349">
        <ele>222.80000305176</ele>
        <time>2020-03-10T10:15:36.000Z</time>
      </trkpt>
      <trkpt lat="45.46694" lon="4.7635">
        <ele>222</ele>
        <time>2020-03-10T10:15:37.000Z</time>
      </trkpt>
      <trkpt lat="45.46694" lon="4.76351">
        <ele>221.19999694824</ele>
        <time>2020-03-10T10:15:38.000Z</time>
      </trkpt>
      <trkpt lat="45.46694" lon="4.76352">
        <ele>220</ele>
        <time>2020-03-10T10:15:40.000Z</time>
      </trkpt>
      <trkpt lat="45.46695" lon="4.76352">
        <ele>219</ele>
        <time>2020-03-10T10:15:42.000Z</time>
      </trkpt>
      <trkpt lat="45.46696" lon="4.76353">
        <ele>218.60000610352</ele>
        <time>2020-03-10T10:15:43.000Z</time>
      </trkpt>
      <trkpt lat="45.46701" lon="4.76356">
        <ele>217.80000305176</ele>
        <time>2020-03-10T10:15:45.000Z</time>
      </trkpt>
      <trkpt lat="45.46703" lon="4.76359">
        <ele>216.60000610352</ele>
        <time>2020-03-10T10:15:47.000Z</time>
      </trkpt>
      <trkpt lat="45.46704" lon="4.7636">
        <ele>215.80000305176</ele>
        <time>2020-03-10T10:15:48.000Z</time>
      </trkpt>
      <trkpt lat="45.46705" lon="4.76361">
        <ele>215.19999694824</ele>
        <time>2020-03-10T10:15:49.000Z</time>
      </trkpt>
      <trkpt lat="45.46705" lon="4.76362">
        <ele>214</ele>
        <time>2020-03-10T10:15:51.000Z</time>
      </trkpt>
      <trkpt lat="45.46705" lon="4.76364">
        <ele>213.39999389648</ele>
        <time>2020-03-10T10:15:52.000Z</time>
      </trkpt>
      <trkpt lat="45.46705" lon="4.76365">
        <ele>212.80000305176</ele>
        <time>2020-03-10T10:15:53.000Z</time>
      </trkpt>
      <trkpt lat="45.46705" lon="4.76367">
        <ele>212</ele>
        <time>2020-03-10T10:15:55.000Z</time>
      </trkpt>
      <trkpt lat="45.46706" lon="4.76368">
        <ele>211.39999389648</ele>
        <time>2020-03-10T10:15:56.000Z</time>
      </trkpt>
      <trkpt lat="45.46709" lon="4.76369">
        <ele>210.39999389648</ele>
        <time>2020-03-10T10:15:58.000Z</time>
      </trkpt>
      <trkpt lat="45.46711" lon="4.76372">
        <ele>209.39999389648</ele>
        <time>2020-03-10T10:16:00.000Z</time>
      </trkpt>
      <trkpt lat="45.46712" lon="4.76376">
        <ele>208.39999389648</ele>
        <time>2020-03-10T10:16:02.000Z</time>
      </trkpt>
      <trkpt lat="45.46711" lon="4.76377">
        <ele>207.80000305176</ele>
        <time>2020-03-10T10:16:03.000Z</time>
      </trkpt>
      <trkpt lat="45.46711" lon="4.76381">
        <ele>206.80000305176</ele>
        <time>2020-03-10T10:16:05.000Z</time>
      </trkpt>
      <trkpt lat="45.46712" lon="4.76381">
        <ele>206.19999694824</ele>
        <time>2020-03-10T10:16:06.000Z</time>
      </trkpt>
      <trkpt lat="45.46714" lon="4.76381">
        <ele>205.39999389648</ele>
        <time>2020-03-10T10:16:08.000Z</time>
      </trkpt>
      <trkpt lat="45.46715" lon="4.7638">
        <ele>204.19999694824</ele>
        <time>2020-03-10T10:16:10.000Z</time>
      </trkpt>
      <trkpt lat="45.46717" lon="4.7638">
        <ele>203.60000610352</ele>
        <time>2020-03-10T10:16:11.000Z</time>
      </trkpt>
      <trkpt lat="45.46717" lon="4.7638">
        <ele>203</ele>
        <time>2020-03-10T10:16:12.000Z</time>
      </trkpt>
      <trkpt lat="45.46719" lon="4.76384">
        <ele>202.19999694824</ele>
        <time>2020-03-10T10:16:15.000Z</time>
      </trkpt>
      <trkpt lat="45.46719" lon="4.76387">
        <ele>201.80000305176</ele>
        <time>2020-03-10T10:16:16.000Z</time>
      </trkpt>
      <trkpt lat="45.46722" lon="4.76391">
        <ele>200.60000610352</ele>
        <time>2020-03-10T10:16:19.000Z</time>
      </trkpt>
      <trkpt lat="45.46723" lon="4.76391">
        <ele>200.19999694824</ele>
        <time>2020-03-10T10:16:20.000Z</time>
      </trkpt>
      <trkpt lat="45.46723" lon="4.76391">
        <ele>199.60000610352</ele>
        <time>2020-03-10T10:16:21.000Z</time>
      </trkpt>
      <trkpt lat="45.46724" lon="4.7639">
        <ele>199.19999694824</ele>
        <time>2020-03-10T10:16:22.000Z</time>
      </trkpt>
      <trkpt lat="45.46724" lon="4.7639">
        <ele>198.39999389648</ele>
        <time>2020-03-10T10:16:24.000Z</time>
      </trkpt>
      <trkpt lat="45.46725" lon="4.76389">
        <ele>197.80000305176</ele>
        <time>2020-03-10T10:16:26.000Z</time>
      </trkpt>
      <trkpt lat="45.46725" lon="4.76388">
        <ele>197.39999389648</ele>
        <time>2020-03-10T10:16:27.000Z</time>
      </trkpt>
      <trkpt lat="45.46726" lon="4.76388">
        <ele>197</ele>
        <time>2020-03-10T10:16:28.000Z</time>
      </trkpt>
      <trkpt lat="45.46727" lon="4.76386">
        <ele>196</ele>
        <time>2020-03-10T10:16:30.000Z</time>
      </trkpt>
      <trkpt lat="45.46727" lon="4.76386">
        <ele>195.80000305176</ele>
        <time>2020-03-10T10:16:31.000Z</time>
      </trkpt>
      <trkpt lat="45.46728" lon="4.76386">
        <ele>195.39999389648</ele>
        <time>2020-03-10T10:16:32.000Z</time>
      </trkpt>
      <trkpt lat="45.46729" lon="4.76388">
        <ele>194.80000305176</ele>
        <time>2020-03-10T10:16:35.000Z</time>
      </trkpt>
      <trkpt lat="45.46728" lon="4.76389">
        <ele>194.39999389648</ele>
        <time>2020-03-10T10:16:36.000Z</time>
      </trkpt>
      <trkpt lat="45.46728" lon="4.7639">
        <ele>193.60000610352</ele>
        <time>2020-03-10T10:16:37.000Z</time>
      </trkpt>
      <trkpt lat="45.46727" lon="4.76392">
        <ele>193</ele>
        <time>2020-03-10T10:16:38.000Z</time>
      </trkpt>
      <trkpt lat="45.46723" lon="4.76396">
        <ele>192</ele>
        <time>2020-03-10T10:16:41.000Z</time>
      </trkpt>
      <trkpt lat="45.46722" lon="4.76397">
        <ele>191.80000305176</ele>
        <time>2020-03-10T10:16:42.000Z</time>
      </trkpt>
      <trkpt lat="45.46719" lon="4.764">
        <ele>190.60000610352</ele>
        <time>2020-03-10T10:16:45.000Z</time>
      </trkpt>
      <trkpt lat="45.46718" lon="4.76403">
        <ele>189.60000610352</ele>
        <time>2020-03-10T10:16:47.000Z</time>
      </trkpt>
      <trkpt lat="45.46718" lon="4.76404">
        <ele>189.39999389648</ele>
        <time>2020-03-10T10:16:48.000Z</time>
      </trkpt>
      <trkpt lat="45.46718" lon="4.76404">
        <ele>189.19999694824</ele>
        <time>2020-03-10T10:16:49.000Z</time>
      </trkpt>
      <trkpt lat="45.46719" lon="4.76409">
        <ele>188.39999389648</ele>
        <time>2020-03-10T10:16:52.000Z</time>
      </trkpt>
      <trkpt lat="45.46719" lon="4.76414">
        <ele>186.80000305176</ele>
        <time>2020-03-10T10:16:54.000Z</time>
      </trkpt>
      <trkpt lat="45.46719" lon="4.76417">
        <ele>186.19999694824</ele>
        <time>2020-03-10T10:16:55.000Z</time>
      </trkpt>
      <trkpt lat="45.46719" lon="4.7642">
        <ele>185.39999389648</ele>
        <time>2020-03-10T10:16:56.000Z</time>
      </trkpt>
      <trkpt lat="45.46719" lon="4.76422">
        <ele>184.80000305176</ele>
        <time>2020-03-10T10:16:57.000Z</time>
      </trkpt>
      <trkpt lat="45.46718" lon="4.76425">
        <ele>184.19999694824</ele>
        <time>2020-03-10T10:16:58.000Z</time>
      </trkpt>
      <trkpt lat="45.46717" lon="4.76426">
        <ele>183.80000305176</ele>
        <time>2020-03-10T10:16:59.000Z</time>
      </trkpt>
      <trkpt lat="45.46714" lon="4.76428">
        <ele>183</ele>
        <time>2020-03-10T10:17:01.000Z</time>
      </trkpt>
      <trkpt lat="45.46713" lon="4.76428">
        <ele>182.60000610352</ele>
        <time>2020-03-10T10:17:02.000Z</time>
      </trkpt>
      <trkpt lat="45.4671" lon="4.7643">
        <ele>181.80000305176</ele>
        <time>2020-03-10T10:17:04.000Z</time>
      </trkpt>
      <trkpt lat="45.46708" lon="4.7643">
        <ele>181.19999694824</ele>
        <time>2020-03-10T10:17:05.000Z</time>
      </trkpt>
      <trkpt lat="45.46707" lon="4.76431">
        <ele>180.80000305176</ele>
        <time>2020-03-10T10:17:06.000Z</time>
      </trkpt>
      <trkpt lat="45.46703" lon="4.76435">
        <ele>179.60000610352</ele>
        <time>2020-03-10T10:17:09.000Z</time>
      </trkpt>
      <trkpt lat="45.46698" lon="4.76438">
        <ele>179.19999694824</ele>
        <time>2020-03-10T10:17:11.000Z</time>
      </trkpt>
      <trkpt lat="45.46696" lon="4.76439">
        <ele>178.80000305176</ele>
        <time>2020-03-10T10:17:12.000Z</time>
      </trkpt>
      <trkpt lat="45.46694" lon="4.76441">
        <ele>178.19999694824</ele>
        <time>2020-03-10T10:17:13.000Z</time>
      </trkpt>
      <trkpt lat="45.46688" lon="4.76445">
        <ele>177.19999694824</ele>
        <time>2020-03-10T10:17:16.000Z</time>
      </trkpt>
      <trkpt lat="45.46682" lon="4.76452">
        <ele>176.19999694824</ele>
        <time>2020-03-10T10:17:21.000Z</time>
      </trkpt>
      <trkpt lat="45.46682" lon="4.76454">
        <ele>175.80000305176</ele>
        <time>2020-03-10T10:17:22.000Z</time>
      </trkpt>
      <trkpt lat="45.46682" lon="4.76458">
        <ele>175.60000610352</ele>
        <time>2020-03-10T10:17:23.000Z</time>
      </trkpt>
      <trkpt lat="45.46681" lon="4.76463">
        <ele>175</ele>
        <time>2020-03-10T10:17:25.000Z</time>
      </trkpt>
      <trkpt lat="45.46678" lon="4.76469">
        <ele>174.19999694824</ele>
        <time>2020-03-10T10:17:30.000Z</time>
      </trkpt>
      <trkpt lat="45.46677" lon="4.76471">
        <ele>173.80000305176</ele>
        <time>2020-03-10T10:17:32.000Z</time>
      </trkpt>
      <trkpt lat="45.46674" lon="4.76477">
        <ele>172.60000610352</ele>
        <time>2020-03-10T10:17:35.000Z</time>
      </trkpt>
      <trkpt lat="45.46673" lon="4.76479">
        <ele>172.19999694824</ele>
        <time>2020-03-10T10:17:36.000Z</time>
      </trkpt>
      <trkpt lat="45.46672" lon="4.76481">
        <ele>171.60000610352</ele>
        <time>2020-03-10T10:17:37.000Z</time>
      </trkpt>
      <trkpt lat="45.46669" lon="4.76483">
        <ele>170.39999389648</ele>
        <time>2020-03-10T10:17:39.000Z</time>
      </trkpt>
      <trkpt lat="45.46668" lon="4.76485">
        <ele>169.60000610352</ele>
        <time>2020-03-10T10:17:41.000Z</time>
      </trkpt>
      <trkpt lat="45.46667" lon="4.76486">
        <ele>169.19999694824</ele>
        <time>2020-03-10T10:17:42.000Z</time>
      </trkpt>
      <trkpt lat="45.46665" lon="4.76487">
        <ele>168.60000610352</ele>
        <time>2020-03-10T10:17:43.000Z</time>
      </trkpt>
      <trkpt lat="45.46664" lon="4.76489">
        <ele>167.80000305176</ele>
        <time>2020-03-10T10:17:44.000Z</time>
      </trkpt>
      <trkpt lat="45.46663" lon="4.76489">
        <ele>167.60000610352</ele>
        <time>2020-03-10T10:17:45.000Z</time>
      </trkpt>
      <trkpt lat="45.46661" lon="4.76489">
        <ele>167</ele>
        <time>2020-03-10T10:17:47.000Z</time>
      </trkpt>
      <trkpt lat="45.4666" lon="4.7649">
        <ele>166.39999389648</ele>
        <time>2020-03-10T10:17:48.000Z</time>
      </trkpt>
      <trkpt lat="45.46658" lon="4.76491">
        <ele>165.19999694824</ele>
        <time>2020-03-10T10:17:50.000Z</time>
      </trkpt>
      <trkpt lat="45.46656" lon="4.76492">
        <ele>164</ele>
        <time>2020-03-10T10:17:52.000Z</time>
      </trkpt>
      <trkpt lat="45.46655" lon="4.76493">
        <ele>163.39999389648</ele>
        <time>2020-03-10T10:17:53.000Z</time>
      </trkpt>
      <trkpt lat="45.46652" lon="4.76496">
        <ele>162.80000305176</ele>
        <time>2020-03-10T10:17:54.000Z</time>
      </trkpt>
      <trkpt lat="45.46645" lon="4.76502">
        <ele>161.39999389648</ele>
        <time>2020-03-10T10:17:57.000Z</time>
      </trkpt>
      <trkpt lat="45.46643" lon="4.76503">
        <ele>161</ele>
        <time>2020-03-10T10:17:58.000Z</time>
      </trkpt>
      <trkpt lat="45.46638" lon="4.76507">
        <ele>160.80000305176</ele>
        <time>2020-03-10T10:17:59.000Z</time>
      </trkpt>
      <trkpt lat="45.46634" lon="4.76514">
        <ele>160.19999694824</ele>
        <time>2020-03-10T10:18:01.000Z</time>
      </trkpt>
      <trkpt lat="45.46633" lon="4.76516">
        <ele>160.19999694824</ele>
        <time>2020-03-10T10:18:02.000Z</time>
      </trkpt>
      <trkpt lat="45.46634" lon="4.76528">
        <ele>160.39999389648</ele>
        <time>2020-03-10T10:18:07.000Z</time>
      </trkpt>
      <trkpt lat="45.46634" lon="4.76529">
        <ele>160.60000610352</ele>
        <time>2020-03-10T10:18:08.000Z</time>
      </trkpt>
      <trkpt lat="45.46639" lon="4.76533">
        <ele>161.19999694824</ele>
        <time>2020-03-10T10:18:12.000Z</time>
      </trkpt>
      <trkpt lat="45.4664" lon="4.76535">
        <ele>161.19999694824</ele>
        <time>2020-03-10T10:18:13.000Z</time>
      </trkpt>
      <trkpt lat="45.46652" lon="4.7653">
        <ele>161.60000610352</ele>
        <time>2020-03-10T10:18:18.000Z</time>
      </trkpt>
      <trkpt lat="45.46661" lon="4.76522">
        <ele>161.80000305176</ele>
        <time>2020-03-10T10:18:22.000Z</time>
      </trkpt>
      <trkpt lat="45.46665" lon="4.76519">
        <ele>162</ele>
        <time>2020-03-10T10:18:24.000Z</time>
      </trkpt>
      <trkpt lat="45.46671" lon="4.76515">
        <ele>162.39999389648</ele>
        <time>2020-03-10T10:18:26.000Z</time>
      </trkpt>
      <trkpt lat="45.46676" lon="4.76513">
        <ele>162.60000610352</ele>
        <time>2020-03-10T10:18:28.000Z</time>
      </trkpt>
      <trkpt lat="45.46678" lon="4.76514">
        <ele>162.60000610352</ele>
        <time>2020-03-10T10:18:29.000Z</time>
      </trkpt>
      <trkpt lat="45.46681" lon="4.76517">
        <ele>162.60000610352</ele>
        <time>2020-03-10T10:18:31.000Z</time>
      </trkpt>
      <trkpt lat="45.46682" lon="4.76517">
        <ele>162.60000610352</ele>
        <time>2020-03-10T10:18:32.000Z</time>
      </trkpt>
      <trkpt lat="45.46684" lon="4.76517">
        <ele>162.80000305176</ele>
        <time>2020-03-10T10:18:33.000Z</time>
      </trkpt>
      <trkpt lat="45.46696" lon="4.76512">
        <ele>163</ele>
        <time>2020-03-10T10:18:38.000Z</time>
      </trkpt>
      <trkpt lat="45.467" lon="4.76508">
        <ele>163</ele>
        <time>2020-03-10T10:18:42.000Z</time>
      </trkpt>
      <trkpt lat="45.46702" lon="4.76506">
        <ele>163.19999694824</ele>
        <time>2020-03-10T10:18:44.000Z</time>
      </trkpt>
      <trkpt lat="45.46703" lon="4.76505">
        <ele>163.39999389648</ele>
        <time>2020-03-10T10:18:46.000Z</time>
      </trkpt>
      <trkpt lat="45.46703" lon="4.76504">
        <ele>163.60000610352</ele>
        <time>2020-03-10T10:18:47.000Z</time>
      </trkpt>
      <trkpt lat="45.46705" lon="4.76503">
        <ele>164.60000610352</ele>
        <time>2020-03-10T10:18:50.000Z</time>
      </trkpt>
      <trkpt lat="45.46706" lon="4.76504">
        <ele>165.19999694824</ele>
        <time>2020-03-10T10:18:52.000Z</time>
      </trkpt>
      <trkpt lat="45.46708" lon="4.76504">
        <ele>166</ele>
        <time>2020-03-10T10:18:55.000Z</time>
      </trkpt>
      <trkpt lat="45.46711" lon="4.76502">
        <ele>166.60000610352</ele>
        <time>2020-03-10T10:18:57.000Z</time>
      </trkpt>
      <trkpt lat="45.46715" lon="4.76504">
        <ele>166.80000305176</ele>
        <time>2020-03-10T10:18:58.000Z</time>
      </trkpt>
      <trkpt lat="45.46716" lon="4.76504">
        <ele>167.19999694824</ele>
        <time>2020-03-10T10:18:59.000Z</time>
      </trkpt>
      <trkpt lat="45.46718" lon="4.76503">
        <ele>167.39999389648</ele>
        <time>2020-03-10T10:19:01.000Z</time>
      </trkpt>
      <trkpt lat="45.4672" lon="4.76503">
        <ele>167.60000610352</ele>
        <time>2020-03-10T10:19:02.000Z</time>
      </trkpt>
      <trkpt lat="45.46721" lon="4.76503">
        <ele>168</ele>
        <time>2020-03-10T10:19:03.000Z</time>
      </trkpt>
      <trkpt lat="45.46722" lon="4.76502">
        <ele>168.19999694824</ele>
        <time>2020-03-10T10:19:04.000Z</time>
      </trkpt>
      <trkpt lat="45.46724" lon="4.76503">
        <ele>168.80000305176</ele>
        <time>2020-03-10T10:19:06.000Z</time>
      </trkpt>
      <trkpt lat="45.46725" lon="4.76503">
        <ele>169.19999694824</ele>
        <time>2020-03-10T10:19:07.000Z</time>
      </trkpt>
      <trkpt lat="45.46725" lon="4.76503">
        <ele>169.60000610352</ele>
        <time>2020-03-10T10:19:08.000Z</time>
      </trkpt>
      <trkpt lat="45.46724" lon="4.76502">
        <ele>169.80000305176</ele>
        <time>2020-03-10T10:19:09.000Z</time>
      </trkpt>
      <trkpt lat="45.46725" lon="4.76499">
        <ele>170.19999694824</ele>
        <time>2020-03-10T10:19:11.000Z</time>
      </trkpt>
      <trkpt lat="45.46726" lon="4.765">
        <ele>170.19999694824</ele>
        <time>2020-03-10T10:19:12.000Z</time>
      </trkpt>
      <trkpt lat="45.46728" lon="4.76501">
        <ele>170.60000610352</ele>
        <time>2020-03-10T10:19:14.000Z</time>
      </trkpt>
      <trkpt lat="45.46729" lon="4.76501">
        <ele>171</ele>
        <time>2020-03-10T10:19:15.000Z</time>
      </trkpt>
      <trkpt lat="45.46732" lon="4.765">
        <ele>171.80000305176</ele>
        <time>2020-03-10T10:19:17.000Z</time>
      </trkpt>
      <trkpt lat="45.46734" lon="4.76496">
        <ele>172.39999389648</ele>
        <time>2020-03-10T10:19:19.000Z</time>
      </trkpt>
      <trkpt lat="45.46739" lon="4.76494">
        <ele>173</ele>
        <time>2020-03-10T10:19:22.000Z</time>
      </trkpt>
      <trkpt lat="45.4674" lon="4.76493">
        <ele>173.19999694824</ele>
        <time>2020-03-10T10:19:23.000Z</time>
      </trkpt>
      <trkpt lat="45.46746" lon="4.76491">
        <ele>173.80000305176</ele>
        <time>2020-03-10T10:19:26.000Z</time>
      </trkpt>
      <trkpt lat="45.46748" lon="4.7649">
        <ele>174.19999694824</ele>
        <time>2020-03-10T10:19:28.000Z</time>
      </trkpt>
      <trkpt lat="45.46751" lon="4.76487">
        <ele>174.80000305176</ele>
        <time>2020-03-10T10:19:31.000Z</time>
      </trkpt>
      <trkpt lat="45.46752" lon="4.76486">
        <ele>175</ele>
        <time>2020-03-10T10:19:32.000Z</time>
      </trkpt>
      <trkpt lat="45.46752" lon="4.76485">
        <ele>175</ele>
        <time>2020-03-10T10:19:33.000Z</time>
      </trkpt>
      <trkpt lat="45.46753" lon="4.76484">
        <ele>175.19999694824</ele>
        <time>2020-03-10T10:19:34.000Z</time>
      </trkpt>
      <trkpt lat="45.46754" lon="4.76483">
        <ele>175.19999694824</ele>
        <time>2020-03-10T10:19:35.000Z</time>
      </trkpt>
      <trkpt lat="45.46759" lon="4.76482">
        <ele>175.60000610352</ele>
        <time>2020-03-10T10:19:39.000Z</time>
      </trkpt>
      <trkpt lat="45.46761" lon="4.7648">
        <ele>176</ele>
        <time>2020-03-10T10:19:42.000Z</time>
      </trkpt>
      <trkpt lat="45.46762" lon="4.76479">
        <ele>176.19999694824</ele>
        <time>2020-03-10T10:19:44.000Z</time>
      </trkpt>
      <trkpt lat="45.46763" lon="4.76478">
        <ele>176.39999389648</ele>
        <time>2020-03-10T10:19:45.000Z</time>
      </trkpt>
      <trkpt lat="45.46767" lon="4.76476">
        <ele>177.39999389648</ele>
        <time>2020-03-10T10:19:48.000Z</time>
      </trkpt>
      <trkpt lat="45.46769" lon="4.76474">
        <ele>177.39999389648</ele>
        <time>2020-03-10T10:19:49.000Z</time>
      </trkpt>
      <trkpt lat="45.46772" lon="4.76474">
        <ele>178</ele>
        <time>2020-03-10T10:19:52.000Z</time>
      </trkpt>
      <trkpt lat="45.46774" lon="4.76472">
        <ele>178.60000610352</ele>
        <time>2020-03-10T10:19:54.000Z</time>
      </trkpt>
      <trkpt lat="45.46775" lon="4.7647">
        <ele>179</ele>
        <time>2020-03-10T10:19:56.000Z</time>
      </trkpt>
      <trkpt lat="45.46777" lon="4.7647">
        <ele>179.39999389648</ele>
        <time>2020-03-10T10:19:58.000Z</time>
      </trkpt>
      <trkpt lat="45.46778" lon="4.7647">
        <ele>179.80000305176</ele>
        <time>2020-03-10T10:19:59.000Z</time>
      </trkpt>
      <trkpt lat="45.4678" lon="4.7647">
        <ele>180</ele>
        <time>2020-03-10T10:20:00.000Z</time>
      </trkpt>
      <trkpt lat="45.46782" lon="4.7647">
        <ele>180.39999389648</ele>
        <time>2020-03-10T10:20:02.000Z</time>
      </trkpt>
      <trkpt lat="45.46784" lon="4.7647">
        <ele>180.80000305176</ele>
        <time>2020-03-10T10:20:04.000Z</time>
      </trkpt>
      <trkpt lat="45.46785" lon="4.76469">
        <ele>181</ele>
        <time>2020-03-10T10:20:05.000Z</time>
      </trkpt>
      <trkpt lat="45.46787" lon="4.76469">
        <ele>181.19999694824</ele>
        <time>2020-03-10T10:20:07.000Z</time>
      </trkpt>
      <trkpt lat="45.46789" lon="4.76468">
        <ele>182</ele>
        <time>2020-03-10T10:20:09.000Z</time>
      </trkpt>
      <trkpt lat="45.46792" lon="4.76468">
        <ele>182.19999694824</ele>
        <time>2020-03-10T10:20:11.000Z</time>
      </trkpt>
      <trkpt lat="45.46793" lon="4.76468">
        <ele>182.19999694824</ele>
        <time>2020-03-10T10:20:12.000Z</time>
      </trkpt>
      <trkpt lat="45.46795" lon="4.76468">
        <ele>182.60000610352</ele>
        <time>2020-03-10T10:20:14.000Z</time>
      </trkpt>
      <trkpt lat="45.46796" lon="4.76468">
        <ele>182.80000305176</ele>
        <time>2020-03-10T10:20:15.000Z</time>
      </trkpt>
      <trkpt lat="45.46798" lon="4.76468">
        <ele>183.19999694824</ele>
        <time>2020-03-10T10:20:16.000Z</time>
      </trkpt>
      <trkpt lat="45.46799" lon="4.76469">
        <ele>183.39999389648</ele>
        <time>2020-03-10T10:20:17.000Z</time>
      </trkpt>
      <trkpt lat="45.468" lon="4.76469">
        <ele>184.39999389648</ele>
        <time>2020-03-10T10:20:20.000Z</time>
      </trkpt>
      <trkpt lat="45.46801" lon="4.76469">
        <ele>185</ele>
        <time>2020-03-10T10:20:22.000Z</time>
      </trkpt>
      <trkpt lat="45.46802" lon="4.76469">
        <ele>185.19999694824</ele>
        <time>2020-03-10T10:20:23.000Z</time>
      </trkpt>
      <trkpt lat="45.46802" lon="4.7647">
        <ele>185.60000610352</ele>
        <time>2020-03-10T10:20:24.000Z</time>
      </trkpt>
      <trkpt lat="45.46802" lon="4.76471">
        <ele>185.80000305176</ele>
        <time>2020-03-10T10:20:25.000Z</time>
      </trkpt>
      <trkpt lat="45.46801" lon="4.76474">
        <ele>186.39999389648</ele>
        <time>2020-03-10T10:20:28.000Z</time>
      </trkpt>
      <trkpt lat="45.46801" lon="4.76475">
        <ele>186.60000610352</ele>
        <time>2020-03-10T10:20:29.000Z</time>
      </trkpt>
      <trkpt lat="45.46801" lon="4.76476">
        <ele>187</ele>
        <time>2020-03-10T10:20:30.000Z</time>
      </trkpt>
      <trkpt lat="45.46802" lon="4.76479">
        <ele>187.60000610352</ele>
        <time>2020-03-10T10:20:32.000Z</time>
      </trkpt>
      <trkpt lat="45.46801" lon="4.76483">
        <ele>188.80000305176</ele>
        <time>2020-03-10T10:20:35.000Z</time>
      </trkpt>
      <trkpt lat="45.468" lon="4.76485">
        <ele>189.60000610352</ele>
        <time>2020-03-10T10:20:37.000Z</time>
      </trkpt>
      <trkpt lat="45.46799" lon="4.7649">
        <ele>190</ele>
        <time>2020-03-10T10:20:40.000Z</time>
      </trkpt>
      <trkpt lat="45.46796" lon="4.7649">
        <ele>190</ele>
        <time>2020-03-10T10:20:41.000Z</time>
      </trkpt>
      <trkpt lat="45.46795" lon="4.76492">
        <ele>190.19999694824</ele>
        <time>2020-03-10T10:20:42.000Z</time>
      </trkpt>
      <trkpt lat="45.46794" lon="4.76492">
        <ele>191</ele>
        <time>2020-03-10T10:20:44.000Z</time>
      </trkpt>
      <trkpt lat="45.46792" lon="4.76493">
        <ele>191.80000305176</ele>
        <time>2020-03-10T10:20:46.000Z</time>
      </trkpt>
      <trkpt lat="45.4679" lon="4.76495">
        <ele>192.19999694824</ele>
        <time>2020-03-10T10:20:48.000Z</time>
      </trkpt>
      <trkpt lat="45.46788" lon="4.76499">
        <ele>193.19999694824</ele>
        <time>2020-03-10T10:20:52.000Z</time>
      </trkpt>
      <trkpt lat="45.46787" lon="4.765">
        <ele>193.39999389648</ele>
        <time>2020-03-10T10:20:53.000Z</time>
      </trkpt>
      <trkpt lat="45.46784" lon="4.76502">
        <ele>193.80000305176</ele>
        <time>2020-03-10T10:20:55.000Z</time>
      </trkpt>
      <trkpt lat="45.46775" lon="4.76508">
        <ele>193.80000305176</ele>
        <time>2020-03-10T10:21:02.000Z</time>
      </trkpt>
      <trkpt lat="45.46767" lon="4.76521">
        <ele>194.60000610352</ele>
        <time>2020-03-10T10:21:09.000Z</time>
      </trkpt>
      <trkpt lat="45.46761" lon="4.76527">
        <ele>195.19999694824</ele>
        <time>2020-03-10T10:21:12.000Z</time>
      </trkpt>
      <trkpt lat="45.46756" lon="4.76531">
        <ele>195.19999694824</ele>
        <time>2020-03-10T10:21:15.000Z</time>
      </trkpt>
      <trkpt lat="45.4675" lon="4.76536">
        <ele>195.80000305176</ele>
        <time>2020-03-10T10:21:19.000Z</time>
      </trkpt>
      <trkpt lat="45.46745" lon="4.7654">
        <ele>196.19999694824</ele>
        <time>2020-03-10T10:21:22.000Z</time>
      </trkpt>
      <trkpt lat="45.46744" lon="4.76541">
        <ele>196.39999389648</ele>
        <time>2020-03-10T10:21:23.000Z</time>
      </trkpt>
      <trkpt lat="45.46739" lon="4.76546">
        <ele>196.39999389648</ele>
        <time>2020-03-10T10:21:26.000Z</time>
      </trkpt>
      <trkpt lat="45.46737" lon="4.76548">
        <ele>196.60000610352</ele>
        <time>2020-03-10T10:21:28.000Z</time>
      </trkpt>
      <trkpt lat="45.46735" lon="4.7655">
        <ele>196.80000305176</ele>
        <time>2020-03-10T10:21:29.000Z</time>
      </trkpt>
      <trkpt lat="45.46734" lon="4.76551">
        <ele>196.80000305176</ele>
        <time>2020-03-10T10:21:30.000Z</time>
      </trkpt>
      <trkpt lat="45.46733" lon="4.76553">
        <ele>197</ele>
        <time>2020-03-10T10:21:31.000Z</time>
      </trkpt>
      <trkpt lat="45.46733" lon="4.76555">
        <ele>197.19999694824</ele>
        <time>2020-03-10T10:21:32.000Z</time>
      </trkpt>
      <trkpt lat="45.46732" lon="4.76557">
        <ele>197.19999694824</ele>
        <time>2020-03-10T10:21:33.000Z</time>
      </trkpt>
      <trkpt lat="45.4673" lon="4.76559">
        <ele>197.39999389648</ele>
        <time>2020-03-10T10:21:34.000Z</time>
      </trkpt>
      <trkpt lat="45.46729" lon="4.76563">
        <ele>197.60000610352</ele>
        <time>2020-03-10T10:21:36.000Z</time>
      </trkpt>
      <trkpt lat="45.46724" lon="4.76573">
        <ele>198.19999694824</ele>
        <time>2020-03-10T10:21:41.000Z</time>
      </trkpt>
      <trkpt lat="45.46723" lon="4.76575">
        <ele>198.60000610352</ele>
        <time>2020-03-10T10:21:42.000Z</time>
      </trkpt>
      <trkpt lat="45.4672" lon="4.76581">
        <ele>199.19999694824</ele>
        <time>2020-03-10T10:21:45.000Z</time>
      </trkpt>
      <trkpt lat="45.46716" lon="4.76587">
        <ele>200</ele>
        <time>2020-03-10T10:21:48.000Z</time>
      </trkpt>
      <trkpt lat="45.46716" lon="4.76589">
        <ele>200.19999694824</ele>
        <time>2020-03-10T10:21:49.000Z</time>
      </trkpt>
      <trkpt lat="45.46715" lon="4.76591">
        <ele>200.39999389648</ele>
        <time>2020-03-10T10:21:50.000Z</time>
      </trkpt>
      <trkpt lat="45.46711" lon="4.76595">
        <ele>200.80000305176</ele>
        <time>2020-03-10T10:21:52.000Z</time>
      </trkpt>
      <trkpt lat="45.46709" lon="4.76599">
        <ele>201</ele>
        <time>2020-03-10T10:21:54.000Z</time>
      </trkpt>
      <trkpt lat="45.46709" lon="4.76603">
        <ele>201.60000610352</ele>
        <time>2020-03-10T10:21:56.000Z</time>
      </trkpt>
      <trkpt lat="45.46709" lon="4.76606">
        <ele>201.80000305176</ele>
        <time>2020-03-10T10:21:57.000Z</time>
      </trkpt>
      <trkpt lat="45.46711" lon="4.76616">
        <ele>202.39999389648</ele>
        <time>2020-03-10T10:22:01.000Z</time>
      </trkpt>
      <trkpt lat="45.4671" lon="4.76619">
        <ele>202.39999389648</ele>
        <time>2020-03-10T10:22:02.000Z</time>
      </trkpt>
      <trkpt lat="45.46709" lon="4.76629">
        <ele>201.39999389648</ele>
        <time>2020-03-10T10:22:07.000Z</time>
      </trkpt>
      <trkpt lat="45.46708" lon="4.76626">
        <ele>201.19999694824</ele>
        <time>2020-03-10T10:22:11.000Z</time>
      </trkpt>
      <trkpt lat="45.46708" lon="4.76626">
        <ele>201.19999694824</ele>
        <time>2020-03-10T10:22:12.000Z</time>
      </trkpt>
      <trkpt lat="45.46708" lon="4.76626">
        <ele>201.19999694824</ele>
        <time>2020-03-10T10:22:13.000Z</time>
      </trkpt>
      <trkpt lat="45.46705" lon="4.76623">
        <ele>201.19999694824</ele>
        <time>2020-03-10T10:22:16.000Z</time>
      </trkpt>
      <trkpt lat="45.46701" lon="4.76619">
        <ele>200.60000610352</ele>
        <time>2020-03-10T10:22:19.000Z</time>
      </trkpt>
      <trkpt lat="45.46697" lon="4.76616">
        <ele>199.60000610352</ele>
        <time>2020-03-10T10:22:22.000Z</time>
      </trkpt>
      <trkpt lat="45.46695" lon="4.76617">
        <ele>199.39999389648</ele>
        <time>2020-03-10T10:22:23.000Z</time>
      </trkpt>
      <trkpt lat="45.46689" lon="4.76618">
        <ele>198.80000305176</ele>
        <time>2020-03-10T10:22:27.000Z</time>
      </trkpt>
      <trkpt lat="45.46688" lon="4.76619">
        <ele>198.80000305176</ele>
        <time>2020-03-10T10:22:28.000Z</time>
      </trkpt>
      <trkpt lat="45.46683" lon="4.7662">
        <ele>199</ele>
        <time>2020-03-10T10:22:32.000Z</time>
      </trkpt>
      <trkpt lat="45.4668" lon="4.76619">
        <ele>199</ele>
        <time>2020-03-10T10:22:34.000Z</time>
      </trkpt>
      <trkpt lat="45.46668" lon="4.7662">
        <ele>200.39999389648</ele>
        <time>2020-03-10T10:22:40.000Z</time>
      </trkpt>
      <trkpt lat="45.46663" lon="4.76619">
        <ele>200.80000305176</ele>
        <time>2020-03-10T10:22:42.000Z</time>
      </trkpt>
      <trkpt lat="45.46659" lon="4.76618">
        <ele>200.80000305176</ele>
        <time>2020-03-10T10:22:45.000Z</time>
      </trkpt>
      <trkpt lat="45.46656" lon="4.76617">
        <ele>200.80000305176</ele>
        <time>2020-03-10T10:22:46.000Z</time>
      </trkpt>
      <trkpt lat="45.46645" lon="4.76618">
        <ele>201.60000610352</ele>
        <time>2020-03-10T10:22:52.000Z</time>
      </trkpt>
      <trkpt lat="45.46636" lon="4.76621">
        <ele>202.60000610352</ele>
        <time>2020-03-10T10:22:57.000Z</time>
      </trkpt>
      <trkpt lat="45.46631" lon="4.76624">
        <ele>202.60000610352</ele>
        <time>2020-03-10T10:23:00.000Z</time>
      </trkpt>
      <trkpt lat="45.46629" lon="4.76629">
        <ele>202.60000610352</ele>
        <time>2020-03-10T10:23:02.000Z</time>
      </trkpt>
      <trkpt lat="45.46628" lon="4.76633">
        <ele>202.60000610352</ele>
        <time>2020-03-10T10:23:03.000Z</time>
      </trkpt>
      <trkpt lat="45.46626" lon="4.76645">
        <ele>202</ele>
        <time>2020-03-10T10:23:07.000Z</time>
      </trkpt>
      <trkpt lat="45.46624" lon="4.76649">
        <ele>201.39999389648</ele>
        <time>2020-03-10T10:23:09.000Z</time>
      </trkpt>
      <trkpt lat="45.46622" lon="4.76654">
        <ele>200.39999389648</ele>
        <time>2020-03-10T10:23:12.000Z</time>
      </trkpt>
      <trkpt lat="45.46622" lon="4.76656">
        <ele>199.80000305176</ele>
        <time>2020-03-10T10:23:13.000Z</time>
      </trkpt>
      <trkpt lat="45.4662" lon="4.76659">
        <ele>199.19999694824</ele>
        <time>2020-03-10T10:23:15.000Z</time>
      </trkpt>
      <trkpt lat="45.4662" lon="4.76661">
        <ele>199</ele>
        <time>2020-03-10T10:23:16.000Z</time>
      </trkpt>
      <trkpt lat="45.46618" lon="4.76666">
        <ele>197.80000305176</ele>
        <time>2020-03-10T10:23:18.000Z</time>
      </trkpt>
      <trkpt lat="45.46615" lon="4.76674">
        <ele>196.60000610352</ele>
        <time>2020-03-10T10:23:21.000Z</time>
      </trkpt>
      <trkpt lat="45.46614" lon="4.76677">
        <ele>196.19999694824</ele>
        <time>2020-03-10T10:23:22.000Z</time>
      </trkpt>
      <trkpt lat="45.46612" lon="4.76681">
        <ele>195</ele>
        <time>2020-03-10T10:23:24.000Z</time>
      </trkpt>
      <trkpt lat="45.46607" lon="4.76685">
        <ele>193.60000610352</ele>
        <time>2020-03-10T10:23:27.000Z</time>
      </trkpt>
      <trkpt lat="45.46605" lon="4.76689">
        <ele>192.19999694824</ele>
        <time>2020-03-10T10:23:29.000Z</time>
      </trkpt>
      <trkpt lat="45.46602" lon="4.76695">
        <ele>190.80000305176</ele>
        <time>2020-03-10T10:23:31.000Z</time>
      </trkpt>
      <trkpt lat="45.46601" lon="4.76696">
        <ele>190.39999389648</ele>
        <time>2020-03-10T10:23:32.000Z</time>
      </trkpt>
      <trkpt lat="45.466" lon="4.767">
        <ele>189.39999389648</ele>
        <time>2020-03-10T10:23:34.000Z</time>
      </trkpt>
      <trkpt lat="45.46599" lon="4.76702">
        <ele>188.60000610352</ele>
        <time>2020-03-10T10:23:35.000Z</time>
      </trkpt>
      <trkpt lat="45.46599" lon="4.76704">
        <ele>187.80000305176</ele>
        <time>2020-03-10T10:23:36.000Z</time>
      </trkpt>
      <trkpt lat="45.46599" lon="4.76709">
        <ele>186.60000610352</ele>
        <time>2020-03-10T10:23:38.000Z</time>
      </trkpt>
      <trkpt lat="45.46596" lon="4.76717">
        <ele>185.19999694824</ele>
        <time>2020-03-10T10:23:41.000Z</time>
      </trkpt>
      <trkpt lat="45.46595" lon="4.76719">
        <ele>184.39999389648</ele>
        <time>2020-03-10T10:23:42.000Z</time>
      </trkpt>
      <trkpt lat="45.46593" lon="4.7672">
        <ele>183.60000610352</ele>
        <time>2020-03-10T10:23:43.000Z</time>
      </trkpt>
      <trkpt lat="45.46589" lon="4.76724">
        <ele>182.19999694824</ele>
        <time>2020-03-10T10:23:45.000Z</time>
      </trkpt>
      <trkpt lat="45.46586" lon="4.76726">
        <ele>181.19999694824</ele>
        <time>2020-03-10T10:23:46.000Z</time>
      </trkpt>
      <trkpt lat="45.46584" lon="4.76728">
        <ele>180.39999389648</ele>
        <time>2020-03-10T10:23:47.000Z</time>
      </trkpt>
      <trkpt lat="45.46579" lon="4.76733">
        <ele>179.19999694824</ele>
        <time>2020-03-10T10:23:50.000Z</time>
      </trkpt>
      <trkpt lat="45.46576" lon="4.76735">
        <ele>178</ele>
        <time>2020-03-10T10:23:52.000Z</time>
      </trkpt>
      <trkpt lat="45.46572" lon="4.76737">
        <ele>176.80000305176</ele>
        <time>2020-03-10T10:23:54.000Z</time>
      </trkpt>
      <trkpt lat="45.46571" lon="4.76738">
        <ele>176.19999694824</ele>
        <time>2020-03-10T10:23:55.000Z</time>
      </trkpt>
      <trkpt lat="45.46569" lon="4.7674">
        <ele>175.60000610352</ele>
        <time>2020-03-10T10:23:56.000Z</time>
      </trkpt>
      <trkpt lat="45.46565" lon="4.76742">
        <ele>174.19999694824</ele>
        <time>2020-03-10T10:23:58.000Z</time>
      </trkpt>
      <trkpt lat="45.46561" lon="4.76745">
        <ele>173</ele>
        <time>2020-03-10T10:24:00.000Z</time>
      </trkpt>
      <trkpt lat="45.46558" lon="4.76749">
        <ele>171.80000305176</ele>
        <time>2020-03-10T10:24:02.000Z</time>
      </trkpt>
      <trkpt lat="45.46555" lon="4.76753">
        <ele>170.19999694824</ele>
        <time>2020-03-10T10:24:04.000Z</time>
      </trkpt>
      <trkpt lat="45.46553" lon="4.76756">
        <ele>169</ele>
        <time>2020-03-10T10:24:05.000Z</time>
      </trkpt>
      <trkpt lat="45.46549" lon="4.76759">
        <ele>167.60000610352</ele>
        <time>2020-03-10T10:24:07.000Z</time>
      </trkpt>
      <trkpt lat="45.46548" lon="4.76762">
        <ele>167.19999694824</ele>
        <time>2020-03-10T10:24:08.000Z</time>
      </trkpt>
      <trkpt lat="45.46544" lon="4.76763">
        <ele>166</ele>
        <time>2020-03-10T10:24:10.000Z</time>
      </trkpt>
      <trkpt lat="45.46541" lon="4.76764">
        <ele>165</ele>
        <time>2020-03-10T10:24:12.000Z</time>
      </trkpt>
      <trkpt lat="45.46536" lon="4.76771">
        <ele>164.60000610352</ele>
        <time>2020-03-10T10:24:14.000Z</time>
      </trkpt>
      <trkpt lat="45.46532" lon="4.7677">
        <ele>164.60000610352</ele>
        <time>2020-03-10T10:24:16.000Z</time>
      </trkpt>
      <trkpt lat="45.4653" lon="4.76766">
        <ele>165.19999694824</ele>
        <time>2020-03-10T10:24:19.000Z</time>
      </trkpt>
      <trkpt lat="45.46527" lon="4.76764">
        <ele>165.39999389648</ele>
        <time>2020-03-10T10:24:20.000Z</time>
      </trkpt>
      <trkpt lat="45.46524" lon="4.76758">
        <ele>166</ele>
        <time>2020-03-10T10:24:22.000Z</time>
      </trkpt>
      <trkpt lat="45.46521" lon="4.76753">
        <ele>167</ele>
        <time>2020-03-10T10:24:25.000Z</time>
      </trkpt>
      <trkpt lat="45.4652" lon="4.7675">
        <ele>167.39999389648</ele>
        <time>2020-03-10T10:24:26.000Z</time>
      </trkpt>
      <trkpt lat="45.46516" lon="4.76741">
        <ele>168.39999389648</ele>
        <time>2020-03-10T10:24:30.000Z</time>
      </trkpt>
      <trkpt lat="45.46515" lon="4.76738">
        <ele>168.39999389648</ele>
        <time>2020-03-10T10:24:31.000Z</time>
      </trkpt>
      <trkpt lat="45.46514" lon="4.76736">
        <ele>168.60000610352</ele>
        <time>2020-03-10T10:24:32.000Z</time>
      </trkpt>
      <trkpt lat="45.46512" lon="4.76728">
        <ele>169.19999694824</ele>
        <time>2020-03-10T10:24:36.000Z</time>
      </trkpt>
      <trkpt lat="45.46512" lon="4.76725">
        <ele>169.60000610352</ele>
        <time>2020-03-10T10:24:37.000Z</time>
      </trkpt>
      <trkpt lat="45.46511" lon="4.76717">
        <ele>170.60000610352</ele>
        <time>2020-03-10T10:24:41.000Z</time>
      </trkpt>
      <trkpt lat="45.4651" lon="4.76716">
        <ele>171</ele>
        <time>2020-03-10T10:24:42.000Z</time>
      </trkpt>
      <trkpt lat="45.46508" lon="4.76714">
        <ele>171.60000610352</ele>
        <time>2020-03-10T10:24:44.000Z</time>
      </trkpt>
      <trkpt lat="45.46507" lon="4.76712">
        <ele>172</ele>
        <time>2020-03-10T10:24:45.000Z</time>
      </trkpt>
      <trkpt lat="45.46507" lon="4.76698">
        <ele>173</ele>
        <time>2020-03-10T10:24:51.000Z</time>
      </trkpt>
      <trkpt lat="45.46506" lon="4.76695">
        <ele>173</ele>
        <time>2020-03-10T10:24:52.000Z</time>
      </trkpt>
      <trkpt lat="45.46506" lon="4.76693">
        <ele>173.19999694824</ele>
        <time>2020-03-10T10:24:53.000Z</time>
      </trkpt>
      <trkpt lat="45.465" lon="4.76684">
        <ele>173</ele>
        <time>2020-03-10T10:24:57.000Z</time>
      </trkpt>
      <trkpt lat="45.46497" lon="4.76679">
        <ele>172</ele>
        <time>2020-03-10T10:25:00.000Z</time>
      </trkpt>
      <trkpt lat="45.46493" lon="4.76678">
        <ele>171.39999389648</ele>
        <time>2020-03-10T10:25:02.000Z</time>
      </trkpt>
      <trkpt lat="45.46491" lon="4.76676">
        <ele>171.19999694824</ele>
        <time>2020-03-10T10:25:03.000Z</time>
      </trkpt>
      <trkpt lat="45.46489" lon="4.76673">
        <ele>170.60000610352</ele>
        <time>2020-03-10T10:25:05.000Z</time>
      </trkpt>
      <trkpt lat="45.46484" lon="4.76668">
        <ele>169.39999389648</ele>
        <time>2020-03-10T10:25:08.000Z</time>
      </trkpt>
      <trkpt lat="45.46483" lon="4.76667">
        <ele>169</ele>
        <time>2020-03-10T10:25:09.000Z</time>
      </trkpt>
      <trkpt lat="45.4648" lon="4.76665">
        <ele>168.19999694824</ele>
        <time>2020-03-10T10:25:11.000Z</time>
      </trkpt>
      <trkpt lat="45.46478" lon="4.76663">
        <ele>167.80000305176</ele>
        <time>2020-03-10T10:25:12.000Z</time>
      </trkpt>
      <trkpt lat="45.46474" lon="4.76662">
        <ele>167</ele>
        <time>2020-03-10T10:25:14.000Z</time>
      </trkpt>
      <trkpt lat="45.46471" lon="4.76661">
        <ele>166</ele>
        <time>2020-03-10T10:25:16.000Z</time>
      </trkpt>
      <trkpt lat="45.46469" lon="4.76659">
        <ele>165.60000610352</ele>
        <time>2020-03-10T10:25:17.000Z</time>
      </trkpt>
      <trkpt lat="45.46465" lon="4.76654">
        <ele>164.80000305176</ele>
        <time>2020-03-10T10:25:19.000Z</time>
      </trkpt>
      <trkpt lat="45.46461" lon="4.76652">
        <ele>163.39999389648</ele>
        <time>2020-03-10T10:25:21.000Z</time>
      </trkpt>
      <trkpt lat="45.46459" lon="4.76649">
        <ele>162.80000305176</ele>
        <time>2020-03-10T10:25:22.000Z</time>
      </trkpt>
      <trkpt lat="45.46457" lon="4.76646">
        <ele>162.39999389648</ele>
        <time>2020-03-10T10:25:23.000Z</time>
      </trkpt>
      <trkpt lat="45.46454" lon="4.76642">
        <ele>161.39999389648</ele>
        <time>2020-03-10T10:25:25.000Z</time>
      </trkpt>
      <trkpt lat="45.46451" lon="4.7664">
        <ele>161</ele>
        <time>2020-03-10T10:25:26.000Z</time>
      </trkpt>
      <trkpt lat="45.46445" lon="4.76639">
        <ele>159.60000610352</ele>
        <time>2020-03-10T10:25:28.000Z</time>
      </trkpt>
      <trkpt lat="45.46434" lon="4.76635">
        <ele>158</ele>
        <time>2020-03-10T10:25:30.000Z</time>
      </trkpt>
      <trkpt lat="45.4643" lon="4.76635">
        <ele>157</ele>
        <time>2020-03-10T10:25:32.000Z</time>
      </trkpt>
      <trkpt lat="45.46428" lon="4.76635">
        <ele>156.39999389648</ele>
        <time>2020-03-10T10:25:34.000Z</time>
      </trkpt>
      <trkpt lat="45.46424" lon="4.76635">
        <ele>155.80000305176</ele>
        <time>2020-03-10T10:25:37.000Z</time>
      </trkpt>
      <trkpt lat="45.46424" lon="4.76636">
        <ele>155.60000610352</ele>
        <time>2020-03-10T10:25:38.000Z</time>
      </trkpt>
      <trkpt lat="45.46418" lon="4.76641">
        <ele>154.60000610352</ele>
        <time>2020-03-10T10:25:41.000Z</time>
      </trkpt>
      <trkpt lat="45.46416" lon="4.76643">
        <ele>154.19999694824</ele>
        <time>2020-03-10T10:25:42.000Z</time>
      </trkpt>
      <trkpt lat="45.46404" lon="4.76641">
        <ele>153.80000305176</ele>
        <time>2020-03-10T10:25:44.000Z</time>
      </trkpt>
      <trkpt lat="45.46402" lon="4.76642">
        <ele>153.60000610352</ele>
        <time>2020-03-10T10:25:45.000Z</time>
      </trkpt>
      <trkpt lat="45.46398" lon="4.76644">
        <ele>153.19999694824</ele>
        <time>2020-03-10T10:25:46.000Z</time>
      </trkpt>
      <trkpt lat="45.46397" lon="4.76647">
        <ele>152.80000305176</ele>
        <time>2020-03-10T10:25:47.000Z</time>
      </trkpt>
      <trkpt lat="45.46392" lon="4.76654">
        <ele>152.39999389648</ele>
        <time>2020-03-10T10:25:50.000Z</time>
      </trkpt>
      <trkpt lat="45.4639" lon="4.76656">
        <ele>152.19999694824</ele>
        <time>2020-03-10T10:25:51.000Z</time>
      </trkpt>
      <trkpt lat="45.46389" lon="4.7666">
        <ele>151.80000305176</ele>
        <time>2020-03-10T10:25:52.000Z</time>
      </trkpt>
      <trkpt lat="45.46388" lon="4.76667">
        <ele>151.19999694824</ele>
        <time>2020-03-10T10:25:54.000Z</time>
      </trkpt>
      <trkpt lat="45.46386" lon="4.76671">
        <ele>150.80000305176</ele>
        <time>2020-03-10T10:25:55.000Z</time>
      </trkpt>
      <trkpt lat="45.46385" lon="4.76673">
        <ele>150.60000610352</ele>
        <time>2020-03-10T10:25:56.000Z</time>
      </trkpt>
      <trkpt lat="45.46381" lon="4.76677">
        <ele>150</ele>
        <time>2020-03-10T10:25:58.000Z</time>
      </trkpt>
      <trkpt lat="45.46377" lon="4.7668">
        <ele>148.80000305176</ele>
        <time>2020-03-10T10:26:01.000Z</time>
      </trkpt>
      <trkpt lat="45.46377" lon="4.76681">
        <ele>148.39999389648</ele>
        <time>2020-03-10T10:26:02.000Z</time>
      </trkpt>
      <trkpt lat="45.46376" lon="4.76684">
        <ele>147.80000305176</ele>
        <time>2020-03-10T10:26:04.000Z</time>
      </trkpt>
      <trkpt lat="45.46366" lon="4.76699">
        <ele>147.39999389648</ele>
        <time>2020-03-10T10:26:06.000Z</time>
      </trkpt>
      <trkpt lat="45.46364" lon="4.76699">
        <ele>147.19999694824</ele>
        <time>2020-03-10T10:26:07.000Z</time>
      </trkpt>
      <trkpt lat="45.46359" lon="4.76699">
        <ele>146.80000305176</ele>
        <time>2020-03-10T10:26:10.000Z</time>
      </trkpt>
      <trkpt lat="45.46352" lon="4.76692">
        <ele>146.60000610352</ele>
        <time>2020-03-10T10:26:12.000Z</time>
      </trkpt>
      <trkpt lat="45.46341" lon="4.76688">
        <ele>146.39999389648</ele>
        <time>2020-03-10T10:26:16.000Z</time>
      </trkpt>
      <trkpt lat="45.46337" lon="4.76687">
        <ele>146.60000610352</ele>
        <time>2020-03-10T10:26:18.000Z</time>
      </trkpt>
      <trkpt lat="45.46334" lon="4.76681">
        <ele>146.80000305176</ele>
        <time>2020-03-10T10:26:21.000Z</time>
      </trkpt>
      <trkpt lat="45.46332" lon="4.76681">
        <ele>146.80000305176</ele>
        <time>2020-03-10T10:26:22.000Z</time>
      </trkpt>
      <trkpt lat="45.46325" lon="4.7668">
        <ele>146.80000305176</ele>
        <time>2020-03-10T10:26:26.000Z</time>
      </trkpt>
      <trkpt lat="45.46324" lon="4.76677">
        <ele>147</ele>
        <time>2020-03-10T10:26:27.000Z</time>
      </trkpt>
      <trkpt lat="45.46324" lon="4.76674">
        <ele>147</ele>
        <time>2020-03-10T10:26:28.000Z</time>
      </trkpt>
      <trkpt lat="45.46317" lon="4.76658">
        <ele>146.80000305176</ele>
        <time>2020-03-10T10:26:32.000Z</time>
      </trkpt>
      <trkpt lat="45.463" lon="4.76646">
        <ele>147</ele>
        <time>2020-03-10T10:26:38.000Z</time>
      </trkpt>
      <trkpt lat="45.463" lon="4.76642">
        <ele>147.19999694824</ele>
        <time>2020-03-10T10:26:39.000Z</time>
      </trkpt>
      <trkpt lat="45.463" lon="4.76639">
        <ele>147.39999389648</ele>
        <time>2020-03-10T10:26:40.000Z</time>
      </trkpt>
      <trkpt lat="45.46303" lon="4.7663">
        <ele>147.39999389648</ele>
        <time>2020-03-10T10:26:42.000Z</time>
      </trkpt>
      <trkpt lat="45.46305" lon="4.76628">
        <ele>147.60000610352</ele>
        <time>2020-03-10T10:26:43.000Z</time>
      </trkpt>
      <trkpt lat="45.46313" lon="4.76623">
        <ele>148</ele>
        <time>2020-03-10T10:26:47.000Z</time>
      </trkpt>
      <trkpt lat="45.46317" lon="4.7662">
        <ele>148.19999694824</ele>
        <time>2020-03-10T10:26:50.000Z</time>
      </trkpt>
      <trkpt lat="45.46319" lon="4.76615">
        <ele>148.60000610352</ele>
        <time>2020-03-10T10:26:52.000Z</time>
      </trkpt>
      <trkpt lat="45.46319" lon="4.76609">
        <ele>149</ele>
        <time>2020-03-10T10:26:54.000Z</time>
      </trkpt>
      <trkpt lat="45.46324" lon="4.76596">
        <ele>149.39999389648</ele>
        <time>2020-03-10T10:26:59.000Z</time>
      </trkpt>
      <trkpt lat="45.46324" lon="4.76588">
        <ele>149.39999389648</ele>
        <time>2020-03-10T10:27:02.000Z</time>
      </trkpt>
      <trkpt lat="45.4632" lon="4.7658">
        <ele>149.19999694824</ele>
        <time>2020-03-10T10:27:05.000Z</time>
      </trkpt>
      <trkpt lat="45.46312" lon="4.76566">
        <ele>149</ele>
        <time>2020-03-10T10:27:10.000Z</time>
      </trkpt>
      <trkpt lat="45.46309" lon="4.76561">
        <ele>149</ele>
        <time>2020-03-10T10:27:12.000Z</time>
      </trkpt>
      <trkpt lat="45.46299" lon="4.76545">
        <ele>148.39999389648</ele>
        <time>2020-03-10T10:27:18.000Z</time>
      </trkpt>
      <trkpt lat="45.46293" lon="4.76535">
        <ele>148.39999389648</ele>
        <time>2020-03-10T10:27:22.000Z</time>
      </trkpt>
      <trkpt lat="45.46292" lon="4.76533">
        <ele>148.39999389648</ele>
        <time>2020-03-10T10:27:23.000Z</time>
      </trkpt>
      <trkpt lat="45.46281" lon="4.76514">
        <ele>147.80000305176</ele>
        <time>2020-03-10T10:27:29.000Z</time>
      </trkpt>
      <trkpt lat="45.46279" lon="4.76512">
        <ele>147.80000305176</ele>
        <time>2020-03-10T10:27:30.000Z</time>
      </trkpt>
      <trkpt lat="45.46277" lon="4.76507">
        <ele>147.60000610352</ele>
        <time>2020-03-10T10:27:32.000Z</time>
      </trkpt>
      <trkpt lat="45.46271" lon="4.76492">
        <ele>147.39999389648</ele>
        <time>2020-03-10T10:27:37.000Z</time>
      </trkpt>
      <trkpt lat="45.46262" lon="4.76476">
        <ele>146.80000305176</ele>
        <time>2020-03-10T10:27:42.000Z</time>
      </trkpt>
      <trkpt lat="45.4626" lon="4.7647">
        <ele>146.80000305176</ele>
        <time>2020-03-10T10:27:44.000Z</time>
      </trkpt>
      <trkpt lat="45.46257" lon="4.76461">
        <ele>146.60000610352</ele>
        <time>2020-03-10T10:27:47.000Z</time>
      </trkpt>
      <trkpt lat="45.46254" lon="4.76455">
        <ele>146.60000610352</ele>
        <time>2020-03-10T10:27:49.000Z</time>
      </trkpt>
      <trkpt lat="45.4625" lon="4.76447">
        <ele>146.60000610352</ele>
        <time>2020-03-10T10:27:52.000Z</time>
      </trkpt>
      <trkpt lat="45.46245" lon="4.7644">
        <ele>146.60000610352</ele>
        <time>2020-03-10T10:27:55.000Z</time>
      </trkpt>
      <trkpt lat="45.46236" lon="4.76419">
        <ele>145.80000305176</ele>
        <time>2020-03-10T10:28:02.000Z</time>
      </trkpt>
      <trkpt lat="45.46235" lon="4.76416">
        <ele>145.80000305176</ele>
        <time>2020-03-10T10:28:03.000Z</time>
      </trkpt>
      <trkpt lat="45.46228" lon="4.764">
        <ele>145.80000305176</ele>
        <time>2020-03-10T10:28:09.000Z</time>
      </trkpt>
      <trkpt lat="45.46223" lon="4.76392">
        <ele>146.39999389648</ele>
        <time>2020-03-10T10:28:12.000Z</time>
      </trkpt>
      <trkpt lat="45.46218" lon="4.7638">
        <ele>146.39999389648</ele>
        <time>2020-03-10T10:28:16.000Z</time>
      </trkpt>
      <trkpt lat="45.4621" lon="4.76362">
        <ele>146.39999389648</ele>
        <time>2020-03-10T10:28:22.000Z</time>
      </trkpt>
      <trkpt lat="45.46208" lon="4.76357">
        <ele>146.39999389648</ele>
        <time>2020-03-10T10:28:24.000Z</time>
      </trkpt>
      <trkpt lat="45.46206" lon="4.76353">
        <ele>146.19999694824</ele>
        <time>2020-03-10T10:28:26.000Z</time>
      </trkpt>
      <trkpt lat="45.462" lon="4.76346">
        <ele>146.19999694824</ele>
        <time>2020-03-10T10:28:29.000Z</time>
      </trkpt>
      <trkpt lat="45.46197" lon="4.76339">
        <ele>146.39999389648</ele>
        <time>2020-03-10T10:28:32.000Z</time>
      </trkpt>
      <trkpt lat="45.46194" lon="4.76331">
        <ele>146.39999389648</ele>
        <time>2020-03-10T10:28:35.000Z</time>
      </trkpt>
      <trkpt lat="45.46188" lon="4.76318">
        <ele>146.80000305176</ele>
        <time>2020-03-10T10:28:40.000Z</time>
      </trkpt>
      <trkpt lat="45.46187" lon="4.76315">
        <ele>146.80000305176</ele>
        <time>2020-03-10T10:28:41.000Z</time>
      </trkpt>
      <trkpt lat="45.46186" lon="4.76313">
        <ele>146.80000305176</ele>
        <time>2020-03-10T10:28:42.000Z</time>
      </trkpt>
      <trkpt lat="45.46172" lon="4.76294">
        <ele>146.39999389648</ele>
        <time>2020-03-10T10:28:49.000Z</time>
      </trkpt>
      <trkpt lat="45.46168" lon="4.76289">
        <ele>146.39999389648</ele>
        <time>2020-03-10T10:28:51.000Z</time>
      </trkpt>
      <trkpt lat="45.46166" lon="4.76286">
        <ele>146.39999389648</ele>
        <time>2020-03-10T10:28:52.000Z</time>
      </trkpt>
      <trkpt lat="45.4616" lon="4.76266">
        <ele>146</ele>
        <time>2020-03-10T10:28:59.000Z</time>
      </trkpt>
      <trkpt lat="45.46161" lon="4.76259">
        <ele>146</ele>
        <time>2020-03-10T10:29:02.000Z</time>
      </trkpt>
      <trkpt lat="45.4616" lon="4.76256">
        <ele>145.80000305176</ele>
        <time>2020-03-10T10:29:03.000Z</time>
      </trkpt>
      <trkpt lat="45.4616" lon="4.76249">
        <ele>145.39999389648</ele>
        <time>2020-03-10T10:29:05.000Z</time>
      </trkpt>
      <trkpt lat="45.46156" lon="4.76233">
        <ele>144.80000305176</ele>
        <time>2020-03-10T10:29:11.000Z</time>
      </trkpt>
      <trkpt lat="45.46155" lon="4.7623">
        <ele>144.60000610352</ele>
        <time>2020-03-10T10:29:12.000Z</time>
      </trkpt>
      <trkpt lat="45.46149" lon="4.76213">
        <ele>144.39999389648</ele>
        <time>2020-03-10T10:29:17.000Z</time>
      </trkpt>
      <trkpt lat="45.46148" lon="4.76209">
        <ele>144.39999389648</ele>
        <time>2020-03-10T10:29:18.000Z</time>
      </trkpt>
      <trkpt lat="45.46142" lon="4.76198">
        <ele>144.39999389648</ele>
        <time>2020-03-10T10:29:22.000Z</time>
      </trkpt>
      <trkpt lat="45.46136" lon="4.76187">
        <ele>143.80000305176</ele>
        <time>2020-03-10T10:29:26.000Z</time>
      </trkpt>
      <trkpt lat="45.46128" lon="4.76174">
        <ele>143.60000610352</ele>
        <time>2020-03-10T10:29:31.000Z</time>
      </trkpt>
      <trkpt lat="45.46126" lon="4.76171">
        <ele>143.39999389648</ele>
        <time>2020-03-10T10:29:32.000Z</time>
      </trkpt>
      <trkpt lat="45.46123" lon="4.76166">
        <ele>143.39999389648</ele>
        <time>2020-03-10T10:29:34.000Z</time>
      </trkpt>
      <trkpt lat="45.46112" lon="4.76155">
        <ele>143.19999694824</ele>
        <time>2020-03-10T10:29:39.000Z</time>
      </trkpt>
      <trkpt lat="45.46108" lon="4.76151">
        <ele>143.19999694824</ele>
        <time>2020-03-10T10:29:41.000Z</time>
      </trkpt>
      <trkpt lat="45.46105" lon="4.76149">
        <ele>143</ele>
        <time>2020-03-10T10:29:42.000Z</time>
      </trkpt>
      <trkpt lat="45.46096" lon="4.76134">
        <ele>143.39999389648</ele>
        <time>2020-03-10T10:29:48.000Z</time>
      </trkpt>
      <trkpt lat="45.46095" lon="4.76125">
        <ele>143.39999389648</ele>
        <time>2020-03-10T10:29:51.000Z</time>
      </trkpt>
      <trkpt lat="45.46095" lon="4.76123">
        <ele>143.39999389648</ele>
        <time>2020-03-10T10:29:52.000Z</time>
      </trkpt>
      <trkpt lat="45.46096" lon="4.7612">
        <ele>143</ele>
        <time>2020-03-10T10:29:53.000Z</time>
      </trkpt>
      <trkpt lat="45.46096" lon="4.76109">
        <ele>142.60000610352</ele>
        <time>2020-03-10T10:29:57.000Z</time>
      </trkpt>
      <trkpt lat="45.46094" lon="4.76106">
        <ele>142.80000305176</ele>
        <time>2020-03-10T10:29:59.000Z</time>
      </trkpt>
      <trkpt lat="45.4609" lon="4.76101">
        <ele>142.60000610352</ele>
        <time>2020-03-10T10:30:02.000Z</time>
      </trkpt>
      <trkpt lat="45.46086" lon="4.76095">
        <ele>142.60000610352</ele>
        <time>2020-03-10T10:30:05.000Z</time>
      </trkpt>
      <trkpt lat="45.46084" lon="4.76092">
        <ele>142.39999389648</ele>
        <time>2020-03-10T10:30:06.000Z</time>
      </trkpt>
      <trkpt lat="45.46075" lon="4.76081">
        <ele>142.60000610352</ele>
        <time>2020-03-10T10:30:12.000Z</time>
      </trkpt>
      <trkpt lat="45.46063" lon="4.76065">
        <ele>142.80000305176</ele>
        <time>2020-03-10T10:30:19.000Z</time>
      </trkpt>
      <trkpt lat="45.46057" lon="4.76057">
        <ele>142.80000305176</ele>
        <time>2020-03-10T10:30:22.000Z</time>
      </trkpt>
      <trkpt lat="45.46051" lon="4.76043">
        <ele>142.80000305176</ele>
        <time>2020-03-10T10:30:26.000Z</time>
      </trkpt>
      <trkpt lat="45.46042" lon="4.76023">
        <ele>142.80000305176</ele>
        <time>2020-03-10T10:30:32.000Z</time>
      </trkpt>
      <trkpt lat="45.4604" lon="4.7602">
        <ele>142.80000305176</ele>
        <time>2020-03-10T10:30:33.000Z</time>
      </trkpt>
      <trkpt lat="45.46038" lon="4.76014">
        <ele>142.80000305176</ele>
        <time>2020-03-10T10:30:35.000Z</time>
      </trkpt>
      <trkpt lat="45.46031" lon="4.76">
        <ele>143</ele>
        <time>2020-03-10T10:30:40.000Z</time>
      </trkpt>
      <trkpt lat="45.46027" lon="4.75995">
        <ele>142.80000305176</ele>
        <time>2020-03-10T10:30:42.000Z</time>
      </trkpt>
      <trkpt lat="45.4602" lon="4.75984">
        <ele>143</ele>
        <time>2020-03-10T10:30:47.000Z</time>
      </trkpt>
      <trkpt lat="45.46012" lon="4.75982">
        <ele>143.19999694824</ele>
        <time>2020-03-10T10:30:49.000Z</time>
      </trkpt>
      <trkpt lat="45.46009" lon="4.75975">
        <ele>143.39999389648</ele>
        <time>2020-03-10T10:30:52.000Z</time>
      </trkpt>
      <trkpt lat="45.46007" lon="4.75973">
        <ele>143.60000610352</ele>
        <time>2020-03-10T10:30:53.000Z</time>
      </trkpt>
      <trkpt lat="45.4601" lon="4.7596">
        <ele>144</ele>
        <time>2020-03-10T10:30:59.000Z</time>
      </trkpt>
      <trkpt lat="45.46009" lon="4.75949">
        <ele>144.19999694824</ele>
        <time>2020-03-10T10:31:02.000Z</time>
      </trkpt>
      <trkpt lat="45.46008" lon="4.75946">
        <ele>144</ele>
        <time>2020-03-10T10:31:03.000Z</time>
      </trkpt>
      <trkpt lat="45.46008" lon="4.75942">
        <ele>144</ele>
        <time>2020-03-10T10:31:05.000Z</time>
      </trkpt>
      <trkpt lat="45.46006" lon="4.75942">
        <ele>144</ele>
        <time>2020-03-10T10:31:07.000Z</time>
      </trkpt>
      <trkpt lat="45.46002" lon="4.75945">
        <ele>143.80000305176</ele>
        <time>2020-03-10T10:31:09.000Z</time>
      </trkpt>
      <trkpt lat="45.45998" lon="4.7595">
        <ele>143.60000610352</ele>
        <time>2020-03-10T10:31:12.000Z</time>
      </trkpt>
      <trkpt lat="45.45994" lon="4.75956">
        <ele>143.19999694824</ele>
        <time>2020-03-10T10:31:15.000Z</time>
      </trkpt>
      <trkpt lat="45.45992" lon="4.75957">
        <ele>142.80000305176</ele>
        <time>2020-03-10T10:31:16.000Z</time>
      </trkpt>
      <trkpt lat="45.45991" lon="4.75961">
        <ele>142.80000305176</ele>
        <time>2020-03-10T10:31:18.000Z</time>
      </trkpt>
      <trkpt lat="45.45988" lon="4.75962">
        <ele>142.80000305176</ele>
        <time>2020-03-10T10:31:20.000Z</time>
      </trkpt>
      <trkpt lat="45.45983" lon="4.75958">
        <ele>142.80000305176</ele>
        <time>2020-03-10T10:31:22.000Z</time>
      </trkpt>
      <trkpt lat="45.4597" lon="4.75947">
        <ele>142.80000305176</ele>
        <time>2020-03-10T10:31:26.000Z</time>
      </trkpt>
      <trkpt lat="45.45954" lon="4.75937">
        <ele>142.39999389648</ele>
        <time>2020-03-10T10:31:31.000Z</time>
      </trkpt>
      <trkpt lat="45.45952" lon="4.75936">
        <ele>142.19999694824</ele>
        <time>2020-03-10T10:31:32.000Z</time>
      </trkpt>
      <trkpt lat="45.45946" lon="4.75931">
        <ele>142</ele>
        <time>2020-03-10T10:31:34.000Z</time>
      </trkpt>
      <trkpt lat="45.45934" lon="4.7592">
        <ele>142.39999389648</ele>
        <time>2020-03-10T10:31:39.000Z</time>
      </trkpt>
      <trkpt lat="45.45927" lon="4.75914">
        <ele>142.39999389648</ele>
        <time>2020-03-10T10:31:42.000Z</time>
      </trkpt>
      <trkpt lat="45.45923" lon="4.7591">
        <ele>142.39999389648</ele>
        <time>2020-03-10T10:31:44.000Z</time>
      </trkpt>
      <trkpt lat="45.45911" lon="4.75901">
        <ele>142.19999694824</ele>
        <time>2020-03-10T10:31:49.000Z</time>
      </trkpt>
      <trkpt lat="45.45905" lon="4.75895">
        <ele>142</ele>
        <time>2020-03-10T10:31:52.000Z</time>
      </trkpt>
      <trkpt lat="45.45897" lon="4.75891">
        <ele>141.60000610352</ele>
        <time>2020-03-10T10:31:56.000Z</time>
      </trkpt>
      <trkpt lat="45.45893" lon="4.75892">
        <ele>141.19999694824</ele>
        <time>2020-03-10T10:31:58.000Z</time>
      </trkpt>
      <trkpt lat="45.45883" lon="4.75896">
        <ele>140.60000610352</ele>
        <time>2020-03-10T10:32:02.000Z</time>
      </trkpt>
      <trkpt lat="45.45877" lon="4.75901">
        <ele>140.39999389648</ele>
        <time>2020-03-10T10:32:05.000Z</time>
      </trkpt>
      <trkpt lat="45.45872" lon="4.75905">
        <ele>140.19999694824</ele>
        <time>2020-03-10T10:32:07.000Z</time>
      </trkpt>
      <trkpt lat="45.45862" lon="4.75913">
        <ele>140.39999389648</ele>
        <time>2020-03-10T10:32:12.000Z</time>
      </trkpt>
      <trkpt lat="45.45848" lon="4.75931">
        <ele>141</ele>
        <time>2020-03-10T10:32:19.000Z</time>
      </trkpt>
      <trkpt lat="45.45844" lon="4.75937">
        <ele>140.80000305176</ele>
        <time>2020-03-10T10:32:22.000Z</time>
      </trkpt>
      <trkpt lat="45.45838" lon="4.75946">
        <ele>140.39999389648</ele>
        <time>2020-03-10T10:32:26.000Z</time>
      </trkpt>
      <trkpt lat="45.45834" lon="4.75962">
        <ele>140.39999389648</ele>
        <time>2020-03-10T10:32:31.000Z</time>
      </trkpt>
      <trkpt lat="45.45834" lon="4.75965">
        <ele>140.39999389648</ele>
        <time>2020-03-10T10:32:32.000Z</time>
      </trkpt>
      <trkpt lat="45.45832" lon="4.75968">
        <ele>140.19999694824</ele>
        <time>2020-03-10T10:32:33.000Z</time>
      </trkpt>
      <trkpt lat="45.45829" lon="4.75978">
        <ele>140.19999694824</ele>
        <time>2020-03-10T10:32:35.000Z</time>
      </trkpt>
      <trkpt lat="45.45829" lon="4.75983">
        <ele>140.19999694824</ele>
        <time>2020-03-10T10:32:36.000Z</time>
      </trkpt>
      <trkpt lat="45.45829" lon="4.75988">
        <ele>140.19999694824</ele>
        <time>2020-03-10T10:32:37.000Z</time>
      </trkpt>
      <trkpt lat="45.45832" lon="4.75995">
        <ele>140.19999694824</ele>
        <time>2020-03-10T10:32:39.000Z</time>
      </trkpt>
      <trkpt lat="45.45834" lon="4.75998">
        <ele>140.19999694824</ele>
        <time>2020-03-10T10:32:40.000Z</time>
      </trkpt>
      <trkpt lat="45.45837" lon="4.76004">
        <ele>140.19999694824</ele>
        <time>2020-03-10T10:32:42.000Z</time>
      </trkpt>
      <trkpt lat="45.45846" lon="4.76022">
        <ele>140.39999389648</ele>
        <time>2020-03-10T10:32:48.000Z</time>
      </trkpt>
      <trkpt lat="45.45848" lon="4.76028">
        <ele>140.39999389648</ele>
        <time>2020-03-10T10:32:50.000Z</time>
      </trkpt>
      <trkpt lat="45.45851" lon="4.76033">
        <ele>140.39999389648</ele>
        <time>2020-03-10T10:32:52.000Z</time>
      </trkpt>
      <trkpt lat="45.45854" lon="4.76039">
        <ele>140.19999694824</ele>
        <time>2020-03-10T10:32:54.000Z</time>
      </trkpt>
      <trkpt lat="45.45858" lon="4.76048">
        <ele>140.19999694824</ele>
        <time>2020-03-10T10:32:57.000Z</time>
      </trkpt>
      <trkpt lat="45.45864" lon="4.76063">
        <ele>140.19999694824</ele>
        <time>2020-03-10T10:33:02.000Z</time>
      </trkpt>
      <trkpt lat="45.45866" lon="4.76069">
        <ele>140.39999389648</ele>
        <time>2020-03-10T10:33:04.000Z</time>
      </trkpt>
      <trkpt lat="45.45871" lon="4.76087">
        <ele>140.60000610352</ele>
        <time>2020-03-10T10:33:10.000Z</time>
      </trkpt>
      <trkpt lat="45.45871" lon="4.76094">
        <ele>140.39999389648</ele>
        <time>2020-03-10T10:33:12.000Z</time>
      </trkpt>
      <trkpt lat="45.45864" lon="4.76104">
        <ele>140</ele>
        <time>2020-03-10T10:33:16.000Z</time>
      </trkpt>
      <trkpt lat="45.45854" lon="4.76114">
        <ele>138.80000305176</ele>
        <time>2020-03-10T10:33:21.000Z</time>
      </trkpt>
      <trkpt lat="45.45852" lon="4.76117">
        <ele>138.80000305176</ele>
        <time>2020-03-10T10:33:22.000Z</time>
      </trkpt>
      <trkpt lat="45.45849" lon="4.76122">
        <ele>138.60000610352</ele>
        <time>2020-03-10T10:33:24.000Z</time>
      </trkpt>
      <trkpt lat="45.45837" lon="4.76138">
        <ele>138.60000610352</ele>
        <time>2020-03-10T10:33:31.000Z</time>
      </trkpt>
      <trkpt lat="45.45836" lon="4.76141">
        <ele>138.60000610352</ele>
        <time>2020-03-10T10:33:32.000Z</time>
      </trkpt>
      <trkpt lat="45.45826" lon="4.76155">
        <ele>138.39999389648</ele>
        <time>2020-03-10T10:33:38.000Z</time>
      </trkpt>
      <trkpt lat="45.4582" lon="4.76159">
        <ele>138.60000610352</ele>
        <time>2020-03-10T10:33:41.000Z</time>
      </trkpt>
      <trkpt lat="45.45818" lon="4.76157">
        <ele>138.60000610352</ele>
        <time>2020-03-10T10:33:42.000Z</time>
      </trkpt>
      <trkpt lat="45.4581" lon="4.76149">
        <ele>138.39999389648</ele>
        <time>2020-03-10T10:33:47.000Z</time>
      </trkpt>
      <trkpt lat="45.45809" lon="4.76149">
        <ele>138.39999389648</ele>
        <time>2020-03-10T10:33:48.000Z</time>
      </trkpt>
      <trkpt lat="45.45801" lon="4.76153">
        <ele>138.60000610352</ele>
        <time>2020-03-10T10:33:52.000Z</time>
      </trkpt>
      <trkpt lat="45.45796" lon="4.76159">
        <ele>138.39999389648</ele>
        <time>2020-03-10T10:33:55.000Z</time>
      </trkpt>
      <trkpt lat="45.45793" lon="4.76174">
        <ele>138.60000610352</ele>
        <time>2020-03-10T10:34:00.000Z</time>
      </trkpt>
      <trkpt lat="45.45793" lon="4.76182">
        <ele>138.60000610352</ele>
        <time>2020-03-10T10:34:02.000Z</time>
      </trkpt>
      <trkpt lat="45.45796" lon="4.76208">
        <ele>138.60000610352</ele>
        <time>2020-03-10T10:34:09.000Z</time>
      </trkpt>
      <trkpt lat="45.45797" lon="4.76219">
        <ele>138.60000610352</ele>
        <time>2020-03-10T10:34:12.000Z</time>
      </trkpt>
      <trkpt lat="45.45802" lon="4.76244">
        <ele>138.19999694824</ele>
        <time>2020-03-10T10:34:19.000Z</time>
      </trkpt>
      <trkpt lat="45.45804" lon="4.76254">
        <ele>138.39999389648</ele>
        <time>2020-03-10T10:34:22.000Z</time>
      </trkpt>
      <trkpt lat="45.45806" lon="4.7627">
        <ele>138.60000610352</ele>
        <time>2020-03-10T10:34:27.000Z</time>
      </trkpt>
      <trkpt lat="45.4581" lon="4.76286">
        <ele>138.39999389648</ele>
        <time>2020-03-10T10:34:32.000Z</time>
      </trkpt>
      <trkpt lat="45.45814" lon="4.76306">
        <ele>138.39999389648</ele>
        <time>2020-03-10T10:34:39.000Z</time>
      </trkpt>
      <trkpt lat="45.45815" lon="4.76315">
        <ele>138.39999389648</ele>
        <time>2020-03-10T10:34:42.000Z</time>
      </trkpt>
      <trkpt lat="45.45816" lon="4.76323">
        <ele>138.39999389648</ele>
        <time>2020-03-10T10:34:45.000Z</time>
      </trkpt>
      <trkpt lat="45.45819" lon="4.76346">
        <ele>138.19999694824</ele>
        <time>2020-03-10T10:34:52.000Z</time>
      </trkpt>
      <trkpt lat="45.4582" lon="4.76367">
        <ele>138.19999694824</ele>
        <time>2020-03-10T10:34:59.000Z</time>
      </trkpt>
      <trkpt lat="45.45821" lon="4.7637">
        <ele>138.19999694824</ele>
        <time>2020-03-10T10:35:00.000Z</time>
      </trkpt>
      <trkpt lat="45.45822" lon="4.76376">
        <ele>138.19999694824</ele>
        <time>2020-03-10T10:35:02.000Z</time>
      </trkpt>
      <trkpt lat="45.45823" lon="4.76386">
        <ele>138.39999389648</ele>
        <time>2020-03-10T10:35:05.000Z</time>
      </trkpt>
      <trkpt lat="45.45825" lon="4.76407">
        <ele>138.60000610352</ele>
        <time>2020-03-10T10:35:12.000Z</time>
      </trkpt>
      <trkpt lat="45.45827" lon="4.76429">
        <ele>138.19999694824</ele>
        <time>2020-03-10T10:35:19.000Z</time>
      </trkpt>
      <trkpt lat="45.45828" lon="4.76433">
        <ele>138.39999389648</ele>
        <time>2020-03-10T10:35:20.000Z</time>
      </trkpt>
      <trkpt lat="45.45828" lon="4.7644">
        <ele>138.60000610352</ele>
        <time>2020-03-10T10:35:22.000Z</time>
      </trkpt>
      <trkpt lat="45.45828" lon="4.7645">
        <ele>138.60000610352</ele>
        <time>2020-03-10T10:35:25.000Z</time>
      </trkpt>
      <trkpt lat="45.45828" lon="4.7647">
        <ele>138.39999389648</ele>
        <time>2020-03-10T10:35:32.000Z</time>
      </trkpt>
      <trkpt lat="45.45831" lon="4.76497">
        <ele>139.19999694824</ele>
        <time>2020-03-10T10:35:41.000Z</time>
      </trkpt>
      <trkpt lat="45.45831" lon="4.76502">
        <ele>139.19999694824</ele>
        <time>2020-03-10T10:35:42.000Z</time>
      </trkpt>
      <trkpt lat="45.45831" lon="4.76519">
        <ele>138.39999389648</ele>
        <time>2020-03-10T10:35:47.000Z</time>
      </trkpt>
      <trkpt lat="45.45831" lon="4.76535">
        <ele>138.39999389648</ele>
        <time>2020-03-10T10:35:52.000Z</time>
      </trkpt>
      <trkpt lat="45.45829" lon="4.76543">
        <ele>138.19999694824</ele>
        <time>2020-03-10T10:35:54.000Z</time>
      </trkpt>
      <trkpt lat="45.45825" lon="4.76562">
        <ele>138.19999694824</ele>
        <time>2020-03-10T10:36:00.000Z</time>
      </trkpt>
      <trkpt lat="45.45824" lon="4.76568">
        <ele>138.39999389648</ele>
        <time>2020-03-10T10:36:02.000Z</time>
      </trkpt>
      <trkpt lat="45.4582" lon="4.76588">
        <ele>138.60000610352</ele>
        <time>2020-03-10T10:36:08.000Z</time>
      </trkpt>
      <trkpt lat="45.45817" lon="4.76601">
        <ele>138.39999389648</ele>
        <time>2020-03-10T10:36:12.000Z</time>
      </trkpt>
      <trkpt lat="45.45815" lon="4.7661">
        <ele>138.60000610352</ele>
        <time>2020-03-10T10:36:15.000Z</time>
      </trkpt>
      <trkpt lat="45.45811" lon="4.76629">
        <ele>138</ele>
        <time>2020-03-10T10:36:21.000Z</time>
      </trkpt>
      <trkpt lat="45.4581" lon="4.76632">
        <ele>138</ele>
        <time>2020-03-10T10:36:22.000Z</time>
      </trkpt>
      <trkpt lat="45.45811" lon="4.76644">
        <ele>138.60000610352</ele>
        <time>2020-03-10T10:36:26.000Z</time>
      </trkpt>
      <trkpt lat="45.45808" lon="4.76663">
        <ele>138.19999694824</ele>
        <time>2020-03-10T10:36:32.000Z</time>
      </trkpt>
      <trkpt lat="45.45805" lon="4.76681">
        <ele>138.60000610352</ele>
        <time>2020-03-10T10:36:38.000Z</time>
      </trkpt>
      <trkpt lat="45.45803" lon="4.76693">
        <ele>138.60000610352</ele>
        <time>2020-03-10T10:36:42.000Z</time>
      </trkpt>
      <trkpt lat="45.45803" lon="4.76697">
        <ele>138.39999389648</ele>
        <time>2020-03-10T10:36:43.000Z</time>
      </trkpt>
      <trkpt lat="45.45797" lon="4.76716">
        <ele>137.80000305176</ele>
        <time>2020-03-10T10:36:49.000Z</time>
      </trkpt>
      <trkpt lat="45.45796" lon="4.76719">
        <ele>138</ele>
        <time>2020-03-10T10:36:50.000Z</time>
      </trkpt>
      <trkpt lat="45.45794" lon="4.76727">
        <ele>137.80000305176</ele>
        <time>2020-03-10T10:36:52.000Z</time>
      </trkpt>
      <trkpt lat="45.45793" lon="4.76737">
        <ele>138</ele>
        <time>2020-03-10T10:36:55.000Z</time>
      </trkpt>
      <trkpt lat="45.45789" lon="4.76758">
        <ele>138.39999389648</ele>
        <time>2020-03-10T10:37:02.000Z</time>
      </trkpt>
      <trkpt lat="45.45784" lon="4.76784">
        <ele>138.39999389648</ele>
        <time>2020-03-10T10:37:10.000Z</time>
      </trkpt>
      <trkpt lat="45.4578" lon="4.76795">
        <ele>138.19999694824</ele>
        <time>2020-03-10T10:37:12.000Z</time>
      </trkpt>
      <trkpt lat="45.45778" lon="4.76807">
        <ele>137.80000305176</ele>
        <time>2020-03-10T10:37:16.000Z</time>
      </trkpt>
      <trkpt lat="45.4578" lon="4.76824">
        <ele>137.80000305176</ele>
        <time>2020-03-10T10:37:22.000Z</time>
      </trkpt>
      <trkpt lat="45.45783" lon="4.76836">
        <ele>137.80000305176</ele>
        <time>2020-03-10T10:37:27.000Z</time>
      </trkpt>
      <trkpt lat="45.45784" lon="4.76842">
        <ele>137.80000305176</ele>
        <time>2020-03-10T10:37:30.000Z</time>
      </trkpt>
      <trkpt lat="45.45786" lon="4.76846">
        <ele>137.80000305176</ele>
        <time>2020-03-10T10:37:32.000Z</time>
      </trkpt>
      <trkpt lat="45.45786" lon="4.76851">
        <ele>138</ele>
        <time>2020-03-10T10:37:34.000Z</time>
      </trkpt>
      <trkpt lat="45.45788" lon="4.7686">
        <ele>138.19999694824</ele>
        <time>2020-03-10T10:37:37.000Z</time>
      </trkpt>
      <trkpt lat="45.45792" lon="4.76865">
        <ele>138.80000305176</ele>
        <time>2020-03-10T10:37:41.000Z</time>
      </trkpt>
      <trkpt lat="45.45793" lon="4.76865">
        <ele>139.19999694824</ele>
        <time>2020-03-10T10:37:42.000Z</time>
      </trkpt>
      <trkpt lat="45.45793" lon="4.76865">
        <ele>139.60000610352</ele>
        <time>2020-03-10T10:37:43.000Z</time>
      </trkpt>
      <trkpt lat="45.45794" lon="4.76867">
        <ele>139.80000305176</ele>
        <time>2020-03-10T10:37:44.000Z</time>
      </trkpt>
      <trkpt lat="45.45794" lon="4.76867">
        <ele>140</ele>
        <time>2020-03-10T10:37:45.000Z</time>
      </trkpt>
      <trkpt lat="45.45795" lon="4.76868">
        <ele>140.39999389648</ele>
        <time>2020-03-10T10:37:46.000Z</time>
      </trkpt>
      <trkpt lat="45.45797" lon="4.76867">
        <ele>141.39999389648</ele>
        <time>2020-03-10T10:37:48.000Z</time>
      </trkpt>
      <trkpt lat="45.45798" lon="4.76867">
        <ele>141.80000305176</ele>
        <time>2020-03-10T10:37:49.000Z</time>
      </trkpt>
      <trkpt lat="45.45801" lon="4.76867">
        <ele>142.39999389648</ele>
        <time>2020-03-10T10:37:51.000Z</time>
      </trkpt>
      <trkpt lat="45.45803" lon="4.76867">
        <ele>142.39999389648</ele>
        <time>2020-03-10T10:37:52.000Z</time>
      </trkpt>
      <trkpt lat="45.45804" lon="4.76867">
        <ele>142.60000610352</ele>
        <time>2020-03-10T10:37:53.000Z</time>
      </trkpt>
      <trkpt lat="45.45805" lon="4.76869">
        <ele>143.19999694824</ele>
        <time>2020-03-10T10:37:55.000Z</time>
      </trkpt>
      <trkpt lat="45.45805" lon="4.7687">
        <ele>143.39999389648</ele>
        <time>2020-03-10T10:37:56.000Z</time>
      </trkpt>
      <trkpt lat="45.45803" lon="4.7687">
        <ele>143.39999389648</ele>
        <time>2020-03-10T10:37:57.000Z</time>
      </trkpt>
      <trkpt lat="45.45794" lon="4.7687">
        <ele>143.60000610352</ele>
        <time>2020-03-10T10:38:02.000Z</time>
      </trkpt>
      <trkpt lat="45.45791" lon="4.7687">
        <ele>143.80000305176</ele>
        <time>2020-03-10T10:38:04.000Z</time>
      </trkpt>
      <trkpt lat="45.45782" lon="4.76867">
        <ele>144.19999694824</ele>
        <time>2020-03-10T10:38:10.000Z</time>
      </trkpt>
      <trkpt lat="45.45778" lon="4.76868">
        <ele>144.19999694824</ele>
        <time>2020-03-10T10:38:12.000Z</time>
      </trkpt>
      <trkpt lat="45.45776" lon="4.76868">
        <ele>144.60000610352</ele>
        <time>2020-03-10T10:38:13.000Z</time>
      </trkpt>
      <trkpt lat="45.45772" lon="4.76867">
        <ele>144.60000610352</ele>
        <time>2020-03-10T10:38:15.000Z</time>
      </trkpt>
      <trkpt lat="45.45761" lon="4.76866">
        <ele>145.39999389648</ele>
        <time>2020-03-10T10:38:21.000Z</time>
      </trkpt>
      <trkpt lat="45.45759" lon="4.76866">
        <ele>145.39999389648</ele>
        <time>2020-03-10T10:38:22.000Z</time>
      </trkpt>
      <trkpt lat="45.45752" lon="4.76866">
        <ele>145.19999694824</ele>
        <time>2020-03-10T10:38:25.000Z</time>
      </trkpt>
      <trkpt lat="45.4575" lon="4.76866">
        <ele>145.19999694824</ele>
        <time>2020-03-10T10:38:26.000Z</time>
      </trkpt>
      <trkpt lat="45.45749" lon="4.76865">
        <ele>145</ele>
        <time>2020-03-10T10:38:27.000Z</time>
      </trkpt>
      <trkpt lat="45.45738" lon="4.76867">
        <ele>145.60000610352</ele>
        <time>2020-03-10T10:38:32.000Z</time>
      </trkpt>
      <trkpt lat="45.45728" lon="4.76865">
        <ele>146.60000610352</ele>
        <time>2020-03-10T10:38:37.000Z</time>
      </trkpt>
      <trkpt lat="45.45719" lon="4.76865">
        <ele>146.80000305176</ele>
        <time>2020-03-10T10:38:41.000Z</time>
      </trkpt>
      <trkpt lat="45.45716" lon="4.76865">
        <ele>147</ele>
        <time>2020-03-10T10:38:42.000Z</time>
      </trkpt>
      <trkpt lat="45.45702" lon="4.76865">
        <ele>147</ele>
        <time>2020-03-10T10:38:48.000Z</time>
      </trkpt>
      <trkpt lat="45.45691" lon="4.76865">
        <ele>146.80000305176</ele>
        <time>2020-03-10T10:38:52.000Z</time>
      </trkpt>
      <trkpt lat="45.45681" lon="4.76865">
        <ele>146.60000610352</ele>
        <time>2020-03-10T10:38:56.000Z</time>
      </trkpt>
      <trkpt lat="45.45667" lon="4.76863">
        <ele>146.39999389648</ele>
        <time>2020-03-10T10:39:02.000Z</time>
      </trkpt>
      <trkpt lat="45.45662" lon="4.76862">
        <ele>146.19999694824</ele>
        <time>2020-03-10T10:39:04.000Z</time>
      </trkpt>
      <trkpt lat="45.45646" lon="4.76859">
        <ele>146</ele>
        <time>2020-03-10T10:39:11.000Z</time>
      </trkpt>
      <trkpt lat="45.45643" lon="4.7686">
        <ele>145.80000305176</ele>
        <time>2020-03-10T10:39:12.000Z</time>
      </trkpt>
      <trkpt lat="45.4564" lon="4.7686">
        <ele>145.60000610352</ele>
        <time>2020-03-10T10:39:13.000Z</time>
      </trkpt>
      <trkpt lat="45.45628" lon="4.76858">
        <ele>144.80000305176</ele>
        <time>2020-03-10T10:39:19.000Z</time>
      </trkpt>
      <trkpt lat="45.45624" lon="4.76859">
        <ele>144.39999389648</ele>
        <time>2020-03-10T10:39:21.000Z</time>
      </trkpt>
      <trkpt lat="45.45622" lon="4.76859">
        <ele>144.19999694824</ele>
        <time>2020-03-10T10:39:22.000Z</time>
      </trkpt>
      <trkpt lat="45.45614" lon="4.76859">
        <ele>144</ele>
        <time>2020-03-10T10:39:25.000Z</time>
      </trkpt>
      <trkpt lat="45.456" lon="4.76858">
        <ele>143.39999389648</ele>
        <time>2020-03-10T10:39:30.000Z</time>
      </trkpt>
      <trkpt lat="45.45595" lon="4.76859">
        <ele>143.19999694824</ele>
        <time>2020-03-10T10:39:32.000Z</time>
      </trkpt>
      <trkpt lat="45.45587" lon="4.76858">
        <ele>143.19999694824</ele>
        <time>2020-03-10T10:39:35.000Z</time>
      </trkpt>
      <trkpt lat="45.45569" lon="4.76856">
        <ele>142.39999389648</ele>
        <time>2020-03-10T10:39:42.000Z</time>
      </trkpt>
      <trkpt lat="45.45567" lon="4.76855">
        <ele>142.39999389648</ele>
        <time>2020-03-10T10:39:43.000Z</time>
      </trkpt>
      <trkpt lat="45.45563" lon="4.76851">
        <ele>142</ele>
        <time>2020-03-10T10:39:45.000Z</time>
      </trkpt>
      <trkpt lat="45.45563" lon="4.76849">
        <ele>141.60000610352</ele>
        <time>2020-03-10T10:39:46.000Z</time>
      </trkpt>
      <trkpt lat="45.45562" lon="4.76846">
        <ele>141.39999389648</ele>
        <time>2020-03-10T10:39:47.000Z</time>
      </trkpt>
      <trkpt lat="45.45565" lon="4.76834">
        <ele>140.39999389648</ele>
        <time>2020-03-10T10:39:51.000Z</time>
      </trkpt>
      <trkpt lat="45.45567" lon="4.76833">
        <ele>140.19999694824</ele>
        <time>2020-03-10T10:39:52.000Z</time>
      </trkpt>
      <trkpt lat="45.45576" lon="4.76832">
        <ele>139.80000305176</ele>
        <time>2020-03-10T10:39:56.000Z</time>
      </trkpt>
      <trkpt lat="45.45588" lon="4.76827">
        <ele>139.80000305176</ele>
        <time>2020-03-10T10:40:02.000Z</time>
      </trkpt>
      <trkpt lat="45.45596" lon="4.76822">
        <ele>140.19999694824</ele>
        <time>2020-03-10T10:40:07.000Z</time>
      </trkpt>
      <trkpt lat="45.45598" lon="4.7682">
        <ele>140.19999694824</ele>
        <time>2020-03-10T10:40:08.000Z</time>
      </trkpt>
      <trkpt lat="45.45605" lon="4.7682">
        <ele>140.60000610352</ele>
        <time>2020-03-10T10:40:12.000Z</time>
      </trkpt>
      <trkpt lat="45.45607" lon="4.7682">
        <ele>140.80000305176</ele>
        <time>2020-03-10T10:40:13.000Z</time>
      </trkpt>
      <trkpt lat="45.45609" lon="4.76815">
        <ele>141.19999694824</ele>
        <time>2020-03-10T10:40:15.000Z</time>
      </trkpt>
      <trkpt lat="45.4561" lon="4.76813">
        <ele>141.39999389648</ele>
        <time>2020-03-10T10:40:16.000Z</time>
      </trkpt>
      <trkpt lat="45.4561" lon="4.76807">
        <ele>141.39999389648</ele>
        <time>2020-03-10T10:40:18.000Z</time>
      </trkpt>
      <trkpt lat="45.4561" lon="4.76796">
        <ele>141.39999389648</ele>
        <time>2020-03-10T10:40:22.000Z</time>
      </trkpt>
      <trkpt lat="45.4561" lon="4.76791">
        <ele>141.39999389648</ele>
        <time>2020-03-10T10:40:24.000Z</time>
      </trkpt>
      <trkpt lat="45.45609" lon="4.76775">
        <ele>141.60000610352</ele>
        <time>2020-03-10T10:40:30.000Z</time>
      </trkpt>
      <trkpt lat="45.45608" lon="4.76769">
        <ele>141.80000305176</ele>
        <time>2020-03-10T10:40:32.000Z</time>
      </trkpt>
      <trkpt lat="45.45608" lon="4.76761">
        <ele>141.80000305176</ele>
        <time>2020-03-10T10:40:35.000Z</time>
      </trkpt>
      <trkpt lat="45.45609" lon="4.76735">
        <ele>141.80000305176</ele>
        <time>2020-03-10T10:40:42.000Z</time>
      </trkpt>
      <trkpt lat="45.45609" lon="4.76732">
        <ele>141.80000305176</ele>
        <time>2020-03-10T10:40:43.000Z</time>
      </trkpt>
      <trkpt lat="45.45609" lon="4.76728">
        <ele>141.80000305176</ele>
        <time>2020-03-10T10:40:44.000Z</time>
      </trkpt>
      <trkpt lat="45.45608" lon="4.76714">
        <ele>141.80000305176</ele>
        <time>2020-03-10T10:40:48.000Z</time>
      </trkpt>
      <trkpt lat="45.45608" lon="4.76703">
        <ele>141.80000305176</ele>
        <time>2020-03-10T10:40:51.000Z</time>
      </trkpt>
      <trkpt lat="45.45608" lon="4.767">
        <ele>141.60000610352</ele>
        <time>2020-03-10T10:40:52.000Z</time>
      </trkpt>
      <trkpt lat="45.45608" lon="4.76681">
        <ele>141.80000305176</ele>
        <time>2020-03-10T10:40:58.000Z</time>
      </trkpt>
      <trkpt lat="45.45608" lon="4.76667">
        <ele>141.80000305176</ele>
        <time>2020-03-10T10:41:02.000Z</time>
      </trkpt>
      <trkpt lat="45.45607" lon="4.76658">
        <ele>141.80000305176</ele>
        <time>2020-03-10T10:41:05.000Z</time>
      </trkpt>
      <trkpt lat="45.45606" lon="4.76634">
        <ele>141.80000305176</ele>
        <time>2020-03-10T10:41:12.000Z</time>
      </trkpt>
      <trkpt lat="45.45604" lon="4.7661">
        <ele>141.39999389648</ele>
        <time>2020-03-10T10:41:19.000Z</time>
      </trkpt>
      <trkpt lat="45.45604" lon="4.76607">
        <ele>141.39999389648</ele>
        <time>2020-03-10T10:41:20.000Z</time>
      </trkpt>
      <trkpt lat="45.45604" lon="4.766">
        <ele>141.39999389648</ele>
        <time>2020-03-10T10:41:22.000Z</time>
      </trkpt>
      <trkpt lat="45.45603" lon="4.76581">
        <ele>141.39999389648</ele>
        <time>2020-03-10T10:41:28.000Z</time>
      </trkpt>
      <trkpt lat="45.45602" lon="4.76568">
        <ele>141.60000610352</ele>
        <time>2020-03-10T10:41:32.000Z</time>
      </trkpt>
      <trkpt lat="45.45602" lon="4.76554">
        <ele>141.60000610352</ele>
        <time>2020-03-10T10:41:36.000Z</time>
      </trkpt>
      <trkpt lat="45.45602" lon="4.76535">
        <ele>141.39999389648</ele>
        <time>2020-03-10T10:41:42.000Z</time>
      </trkpt>
      <trkpt lat="45.456" lon="4.76514">
        <ele>141.60000610352</ele>
        <time>2020-03-10T10:41:48.000Z</time>
      </trkpt>
      <trkpt lat="45.45599" lon="4.76499">
        <ele>141.19999694824</ele>
        <time>2020-03-10T10:41:52.000Z</time>
      </trkpt>
      <trkpt lat="45.45599" lon="4.76489">
        <ele>141.19999694824</ele>
        <time>2020-03-10T10:41:55.000Z</time>
      </trkpt>
      <trkpt lat="45.45598" lon="4.76465">
        <ele>141.60000610352</ele>
        <time>2020-03-10T10:42:02.000Z</time>
      </trkpt>
      <trkpt lat="45.45597" lon="4.76462">
        <ele>141.39999389648</ele>
        <time>2020-03-10T10:42:03.000Z</time>
      </trkpt>
      <trkpt lat="45.45594" lon="4.76434">
        <ele>141.19999694824</ele>
        <time>2020-03-10T10:42:12.000Z</time>
      </trkpt>
      <trkpt lat="45.45593" lon="4.76431">
        <ele>141.19999694824</ele>
        <time>2020-03-10T10:42:13.000Z</time>
      </trkpt>
      <trkpt lat="45.4559" lon="4.76404">
        <ele>140.80000305176</ele>
        <time>2020-03-10T10:42:22.000Z</time>
      </trkpt>
      <trkpt lat="45.45586" lon="4.76377">
        <ele>141.19999694824</ele>
        <time>2020-03-10T10:42:30.000Z</time>
      </trkpt>
      <trkpt lat="45.45584" lon="4.76371">
        <ele>141.19999694824</ele>
        <time>2020-03-10T10:42:32.000Z</time>
      </trkpt>
      <trkpt lat="45.4558" lon="4.76351">
        <ele>141.19999694824</ele>
        <time>2020-03-10T10:42:39.000Z</time>
      </trkpt>
      <trkpt lat="45.45578" lon="4.76342">
        <ele>141.19999694824</ele>
        <time>2020-03-10T10:42:42.000Z</time>
      </trkpt>
      <trkpt lat="45.45575" lon="4.76326">
        <ele>141</ele>
        <time>2020-03-10T10:42:47.000Z</time>
      </trkpt>
      <trkpt lat="45.45572" lon="4.7631">
        <ele>140.80000305176</ele>
        <time>2020-03-10T10:42:52.000Z</time>
      </trkpt>
      <trkpt lat="45.4557" lon="4.76301">
        <ele>140.60000610352</ele>
        <time>2020-03-10T10:42:55.000Z</time>
      </trkpt>
      <trkpt lat="45.45566" lon="4.76283">
        <ele>140.39999389648</ele>
        <time>2020-03-10T10:43:01.000Z</time>
      </trkpt>
      <trkpt lat="45.45565" lon="4.7628">
        <ele>140.39999389648</ele>
        <time>2020-03-10T10:43:02.000Z</time>
      </trkpt>
      <trkpt lat="45.45559" lon="4.76258">
        <ele>140.80000305176</ele>
        <time>2020-03-10T10:43:09.000Z</time>
      </trkpt>
      <trkpt lat="45.45556" lon="4.76249">
        <ele>140.39999389648</ele>
        <time>2020-03-10T10:43:12.000Z</time>
      </trkpt>
      <trkpt lat="45.4555" lon="4.76234">
        <ele>140.60000610352</ele>
        <time>2020-03-10T10:43:17.000Z</time>
      </trkpt>
      <trkpt lat="45.45544" lon="4.76219">
        <ele>140.80000305176</ele>
        <time>2020-03-10T10:43:22.000Z</time>
      </trkpt>
      <trkpt lat="45.45541" lon="4.76213">
        <ele>140.80000305176</ele>
        <time>2020-03-10T10:43:24.000Z</time>
      </trkpt>
      <trkpt lat="45.45533" lon="4.76196">
        <ele>141</ele>
        <time>2020-03-10T10:43:31.000Z</time>
      </trkpt>
      <trkpt lat="45.45532" lon="4.76193">
        <ele>141</ele>
        <time>2020-03-10T10:43:32.000Z</time>
      </trkpt>
      <trkpt lat="45.45524" lon="4.7617">
        <ele>141.39999389648</ele>
        <time>2020-03-10T10:43:40.000Z</time>
      </trkpt>
      <trkpt lat="45.45523" lon="4.76167">
        <ele>141.39999389648</ele>
        <time>2020-03-10T10:43:41.000Z</time>
      </trkpt>
      <trkpt lat="45.45522" lon="4.76165">
        <ele>141.39999389648</ele>
        <time>2020-03-10T10:43:42.000Z</time>
      </trkpt>
      <trkpt lat="45.45513" lon="4.76149">
        <ele>141.19999694824</ele>
        <time>2020-03-10T10:43:48.000Z</time>
      </trkpt>
      <trkpt lat="45.45509" lon="4.76138">
        <ele>141.19999694824</ele>
        <time>2020-03-10T10:43:52.000Z</time>
      </trkpt>
      <trkpt lat="45.45504" lon="4.7613">
        <ele>141.19999694824</ele>
        <time>2020-03-10T10:43:55.000Z</time>
      </trkpt>
      <trkpt lat="45.45495" lon="4.76113">
        <ele>141</ele>
        <time>2020-03-10T10:44:02.000Z</time>
      </trkpt>
      <trkpt lat="45.4549" lon="4.76103">
        <ele>141</ele>
        <time>2020-03-10T10:44:06.000Z</time>
      </trkpt>
      <trkpt lat="45.45484" lon="4.76093">
        <ele>141</ele>
        <time>2020-03-10T10:44:10.000Z</time>
      </trkpt>
      <trkpt lat="45.45481" lon="4.76089">
        <ele>141.19999694824</ele>
        <time>2020-03-10T10:44:12.000Z</time>
      </trkpt>
      <trkpt lat="45.45472" lon="4.76075">
        <ele>141.60000610352</ele>
        <time>2020-03-10T10:44:18.000Z</time>
      </trkpt>
      <trkpt lat="45.45466" lon="4.76066">
        <ele>141.39999389648</ele>
        <time>2020-03-10T10:44:22.000Z</time>
      </trkpt>
      <trkpt lat="45.45461" lon="4.76058">
        <ele>141.39999389648</ele>
        <time>2020-03-10T10:44:25.000Z</time>
      </trkpt>
      <trkpt lat="45.45448" lon="4.76043">
        <ele>141.19999694824</ele>
        <time>2020-03-10T10:44:32.000Z</time>
      </trkpt>
      <trkpt lat="45.45447" lon="4.7604">
        <ele>141.19999694824</ele>
        <time>2020-03-10T10:44:33.000Z</time>
      </trkpt>
      <trkpt lat="45.45434" lon="4.76025">
        <ele>141.80000305176</ele>
        <time>2020-03-10T10:44:40.000Z</time>
      </trkpt>
      <trkpt lat="45.4543" lon="4.76022">
        <ele>141.80000305176</ele>
        <time>2020-03-10T10:44:42.000Z</time>
      </trkpt>
      <trkpt lat="45.45422" lon="4.76013">
        <ele>141.19999694824</ele>
        <time>2020-03-10T10:44:46.000Z</time>
      </trkpt>
      <trkpt lat="45.45416" lon="4.76005">
        <ele>141.19999694824</ele>
        <time>2020-03-10T10:44:50.000Z</time>
      </trkpt>
      <trkpt lat="45.45413" lon="4.76002">
        <ele>141.39999389648</ele>
        <time>2020-03-10T10:44:52.000Z</time>
      </trkpt>
      <trkpt lat="45.45411" lon="4.76">
        <ele>141.39999389648</ele>
        <time>2020-03-10T10:44:53.000Z</time>
      </trkpt>
      <trkpt lat="45.45402" lon="4.75991">
        <ele>141.39999389648</ele>
        <time>2020-03-10T10:44:58.000Z</time>
      </trkpt>
      <trkpt lat="45.45396" lon="4.75985">
        <ele>141.19999694824</ele>
        <time>2020-03-10T10:45:01.000Z</time>
      </trkpt>
      <trkpt lat="45.45394" lon="4.75983">
        <ele>141.39999389648</ele>
        <time>2020-03-10T10:45:02.000Z</time>
      </trkpt>
      <trkpt lat="45.4538" lon="4.7597">
        <ele>141</ele>
        <time>2020-03-10T10:45:09.000Z</time>
      </trkpt>
      <trkpt lat="45.45373" lon="4.75965">
        <ele>140.80000305176</ele>
        <time>2020-03-10T10:45:12.000Z</time>
      </trkpt>
      <trkpt lat="45.45363" lon="4.75958">
        <ele>141</ele>
        <time>2020-03-10T10:45:17.000Z</time>
      </trkpt>
      <trkpt lat="45.45354" lon="4.75949">
        <ele>141.39999389648</ele>
        <time>2020-03-10T10:45:22.000Z</time>
      </trkpt>
      <trkpt lat="45.45347" lon="4.75943">
        <ele>141.39999389648</ele>
        <time>2020-03-10T10:45:26.000Z</time>
      </trkpt>
      <trkpt lat="45.45335" lon="4.75932">
        <ele>141.60000610352</ele>
        <time>2020-03-10T10:45:32.000Z</time>
      </trkpt>
      <trkpt lat="45.45331" lon="4.75929">
        <ele>141.60000610352</ele>
        <time>2020-03-10T10:45:34.000Z</time>
      </trkpt>
      <trkpt lat="45.45315" lon="4.75916">
        <ele>141.19999694824</ele>
        <time>2020-03-10T10:45:42.000Z</time>
      </trkpt>
      <trkpt lat="45.45313" lon="4.75914">
        <ele>141.19999694824</ele>
        <time>2020-03-10T10:45:43.000Z</time>
      </trkpt>
      <trkpt lat="45.45296" lon="4.75903">
        <ele>141.19999694824</ele>
        <time>2020-03-10T10:45:51.000Z</time>
      </trkpt>
      <trkpt lat="45.45294" lon="4.75902">
        <ele>141.19999694824</ele>
        <time>2020-03-10T10:45:52.000Z</time>
      </trkpt>
      <trkpt lat="45.45277" lon="4.75893">
        <ele>141</ele>
        <time>2020-03-10T10:46:00.000Z</time>
      </trkpt>
      <trkpt lat="45.45275" lon="4.75892">
        <ele>141</ele>
        <time>2020-03-10T10:46:01.000Z</time>
      </trkpt>
      <trkpt lat="45.45273" lon="4.7589">
        <ele>141</ele>
        <time>2020-03-10T10:46:02.000Z</time>
      </trkpt>
      <trkpt lat="45.45256" lon="4.75881">
        <ele>140.80000305176</ele>
        <time>2020-03-10T10:46:10.000Z</time>
      </trkpt>
      <trkpt lat="45.45251" lon="4.75879">
        <ele>140.80000305176</ele>
        <time>2020-03-10T10:46:12.000Z</time>
      </trkpt>
      <trkpt lat="45.45238" lon="4.75873">
        <ele>141</ele>
        <time>2020-03-10T10:46:18.000Z</time>
      </trkpt>
      <trkpt lat="45.45229" lon="4.75869">
        <ele>140.80000305176</ele>
        <time>2020-03-10T10:46:22.000Z</time>
      </trkpt>
      <trkpt lat="45.45218" lon="4.75865">
        <ele>141.19999694824</ele>
        <time>2020-03-10T10:46:27.000Z</time>
      </trkpt>
      <trkpt lat="45.45207" lon="4.7586">
        <ele>141.39999389648</ele>
        <time>2020-03-10T10:46:32.000Z</time>
      </trkpt>
      <trkpt lat="45.452" lon="4.75857">
        <ele>141.19999694824</ele>
        <time>2020-03-10T10:46:35.000Z</time>
      </trkpt>
      <trkpt lat="45.45184" lon="4.75853">
        <ele>140.80000305176</ele>
        <time>2020-03-10T10:46:42.000Z</time>
      </trkpt>
      <trkpt lat="45.45178" lon="4.75851">
        <ele>141</ele>
        <time>2020-03-10T10:46:45.000Z</time>
      </trkpt>
      <trkpt lat="45.45169" lon="4.75848">
        <ele>141.19999694824</ele>
        <time>2020-03-10T10:46:49.000Z</time>
      </trkpt>
      <trkpt lat="45.45163" lon="4.75847">
        <ele>141.19999694824</ele>
        <time>2020-03-10T10:46:52.000Z</time>
      </trkpt>
      <trkpt lat="45.45153" lon="4.75843">
        <ele>141.19999694824</ele>
        <time>2020-03-10T10:46:57.000Z</time>
      </trkpt>
      <trkpt lat="45.45142" lon="4.7584">
        <ele>141</ele>
        <time>2020-03-10T10:47:02.000Z</time>
      </trkpt>
      <trkpt lat="45.45136" lon="4.75839">
        <ele>141</ele>
        <time>2020-03-10T10:47:05.000Z</time>
      </trkpt>
      <trkpt lat="45.4512" lon="4.75837">
        <ele>141.19999694824</ele>
        <time>2020-03-10T10:47:12.000Z</time>
      </trkpt>
      <trkpt lat="45.45116" lon="4.75836">
        <ele>141.39999389648</ele>
        <time>2020-03-10T10:47:14.000Z</time>
      </trkpt>
      <trkpt lat="45.45104" lon="4.75834">
        <ele>141.39999389648</ele>
        <time>2020-03-10T10:47:19.000Z</time>
      </trkpt>
      <trkpt lat="45.45097" lon="4.75832">
        <ele>141.19999694824</ele>
        <time>2020-03-10T10:47:22.000Z</time>
      </trkpt>
      <trkpt lat="45.45079" lon="4.7583">
        <ele>141</ele>
        <time>2020-03-10T10:47:30.000Z</time>
      </trkpt>
      <trkpt lat="45.45077" lon="4.75829">
        <ele>141</ele>
        <time>2020-03-10T10:47:31.000Z</time>
      </trkpt>
      <trkpt lat="45.45074" lon="4.75829">
        <ele>140.80000305176</ele>
        <time>2020-03-10T10:47:32.000Z</time>
      </trkpt>
      <trkpt lat="45.45062" lon="4.75828">
        <ele>140.80000305176</ele>
        <time>2020-03-10T10:47:37.000Z</time>
      </trkpt>
      <trkpt lat="45.45051" lon="4.75827">
        <ele>140.80000305176</ele>
        <time>2020-03-10T10:47:42.000Z</time>
      </trkpt>
      <trkpt lat="45.45042" lon="4.75827">
        <ele>140.80000305176</ele>
        <time>2020-03-10T10:47:46.000Z</time>
      </trkpt>
      <trkpt lat="45.45026" lon="4.75829">
        <ele>140.60000610352</ele>
        <time>2020-03-10T10:47:52.000Z</time>
      </trkpt>
      <trkpt lat="45.4501" lon="4.75832">
        <ele>140.39999389648</ele>
        <time>2020-03-10T10:47:59.000Z</time>
      </trkpt>
      <trkpt lat="45.45004" lon="4.75838">
        <ele>140.19999694824</ele>
        <time>2020-03-10T10:48:02.000Z</time>
      </trkpt>
      <trkpt lat="45.45002" lon="4.75843">
        <ele>140.19999694824</ele>
        <time>2020-03-10T10:48:04.000Z</time>
      </trkpt>
      <trkpt lat="45.44999" lon="4.75861">
        <ele>140.19999694824</ele>
        <time>2020-03-10T10:48:09.000Z</time>
      </trkpt>
      <trkpt lat="45.44998" lon="4.75864">
        <ele>140</ele>
        <time>2020-03-10T10:48:10.000Z</time>
      </trkpt>
      <trkpt lat="45.44998" lon="4.75871">
        <ele>139.80000305176</ele>
        <time>2020-03-10T10:48:12.000Z</time>
      </trkpt>
      <trkpt lat="45.44998" lon="4.75885">
        <ele>139.39999389648</ele>
        <time>2020-03-10T10:48:16.000Z</time>
      </trkpt>
      <trkpt lat="45.44998" lon="4.75891">
        <ele>139.39999389648</ele>
        <time>2020-03-10T10:48:18.000Z</time>
      </trkpt>
      <trkpt lat="45.45001" lon="4.75904">
        <ele>138.80000305176</ele>
        <time>2020-03-10T10:48:22.000Z</time>
      </trkpt>
      <trkpt lat="45.45002" lon="4.75911">
        <ele>138.80000305176</ele>
        <time>2020-03-10T10:48:24.000Z</time>
      </trkpt>
      <trkpt lat="45.45002" lon="4.75919">
        <ele>138.19999694824</ele>
        <time>2020-03-10T10:48:26.000Z</time>
      </trkpt>
      <trkpt lat="45.45004" lon="4.75936">
        <ele>137.80000305176</ele>
        <time>2020-03-10T10:48:31.000Z</time>
      </trkpt>
      <trkpt lat="45.45004" lon="4.75939">
        <ele>137.60000610352</ele>
        <time>2020-03-10T10:48:32.000Z</time>
      </trkpt>
      <trkpt lat="45.45007" lon="4.75955">
        <ele>137.39999389648</ele>
        <time>2020-03-10T10:48:37.000Z</time>
      </trkpt>
      <trkpt lat="45.4501" lon="4.75971">
        <ele>137.60000610352</ele>
        <time>2020-03-10T10:48:42.000Z</time>
      </trkpt>
      <trkpt lat="45.45012" lon="4.75978">
        <ele>137.60000610352</ele>
        <time>2020-03-10T10:48:44.000Z</time>
      </trkpt>
      <trkpt lat="45.45016" lon="4.75998">
        <ele>138</ele>
        <time>2020-03-10T10:48:50.000Z</time>
      </trkpt>
      <trkpt lat="45.45016" lon="4.76004">
        <ele>138.39999389648</ele>
        <time>2020-03-10T10:48:52.000Z</time>
      </trkpt>
      <trkpt lat="45.45015" lon="4.76021">
        <ele>138.19999694824</ele>
        <time>2020-03-10T10:48:57.000Z</time>
      </trkpt>
      <trkpt lat="45.45011" lon="4.76036">
        <ele>137.80000305176</ele>
        <time>2020-03-10T10:49:02.000Z</time>
      </trkpt>
      <trkpt lat="45.4501" lon="4.76039">
        <ele>137.80000305176</ele>
        <time>2020-03-10T10:49:03.000Z</time>
      </trkpt>
      <trkpt lat="45.45005" lon="4.76059">
        <ele>138.19999694824</ele>
        <time>2020-03-10T10:49:10.000Z</time>
      </trkpt>
      <trkpt lat="45.45004" lon="4.76064">
        <ele>138.19999694824</ele>
        <time>2020-03-10T10:49:12.000Z</time>
      </trkpt>
      <trkpt lat="45.45" lon="4.76081">
        <ele>138.39999389648</ele>
        <time>2020-03-10T10:49:18.000Z</time>
      </trkpt>
      <trkpt lat="45.44999" lon="4.76084">
        <ele>138.39999389648</ele>
        <time>2020-03-10T10:49:19.000Z</time>
      </trkpt>
      <trkpt lat="45.44998" lon="4.76094">
        <ele>138.39999389648</ele>
        <time>2020-03-10T10:49:22.000Z</time>
      </trkpt>
      <trkpt lat="45.44996" lon="4.76104">
        <ele>138.39999389648</ele>
        <time>2020-03-10T10:49:25.000Z</time>
      </trkpt>
      <trkpt lat="45.44994" lon="4.76116">
        <ele>138.39999389648</ele>
        <time>2020-03-10T10:49:29.000Z</time>
      </trkpt>
      <trkpt lat="45.44993" lon="4.76126">
        <ele>138.39999389648</ele>
        <time>2020-03-10T10:49:32.000Z</time>
      </trkpt>
      <trkpt lat="45.44992" lon="4.76129">
        <ele>138.39999389648</ele>
        <time>2020-03-10T10:49:33.000Z</time>
      </trkpt>
      <trkpt lat="45.44987" lon="4.76157">
        <ele>138.60000610352</ele>
        <time>2020-03-10T10:49:41.000Z</time>
      </trkpt>
      <trkpt lat="45.44986" lon="4.7616">
        <ele>138.60000610352</ele>
        <time>2020-03-10T10:49:42.000Z</time>
      </trkpt>
      <trkpt lat="45.44982" lon="4.76178">
        <ele>138.39999389648</ele>
        <time>2020-03-10T10:49:48.000Z</time>
      </trkpt>
      <trkpt lat="45.4498" lon="4.76193">
        <ele>138.80000305176</ele>
        <time>2020-03-10T10:49:52.000Z</time>
      </trkpt>
      <trkpt lat="45.44979" lon="4.76207">
        <ele>138.60000610352</ele>
        <time>2020-03-10T10:49:56.000Z</time>
      </trkpt>
      <trkpt lat="45.44976" lon="4.76227">
        <ele>138</ele>
        <time>2020-03-10T10:50:02.000Z</time>
      </trkpt>
      <trkpt lat="45.44974" lon="4.76233">
        <ele>138.19999694824</ele>
        <time>2020-03-10T10:50:04.000Z</time>
      </trkpt>
      <trkpt lat="45.44969" lon="4.76258">
        <ele>137.80000305176</ele>
        <time>2020-03-10T10:50:11.000Z</time>
      </trkpt>
      <trkpt lat="45.44969" lon="4.76262">
        <ele>137.80000305176</ele>
        <time>2020-03-10T10:50:12.000Z</time>
      </trkpt>
      <trkpt lat="45.44965" lon="4.76286">
        <ele>138.19999694824</ele>
        <time>2020-03-10T10:50:19.000Z</time>
      </trkpt>
      <trkpt lat="45.44964" lon="4.76296">
        <ele>138.19999694824</ele>
        <time>2020-03-10T10:50:22.000Z</time>
      </trkpt>
      <trkpt lat="45.44962" lon="4.76309">
        <ele>138.19999694824</ele>
        <time>2020-03-10T10:50:26.000Z</time>
      </trkpt>
      <trkpt lat="45.44959" lon="4.76329">
        <ele>138</ele>
        <time>2020-03-10T10:50:32.000Z</time>
      </trkpt>
      <trkpt lat="45.44957" lon="4.76338">
        <ele>138.19999694824</ele>
        <time>2020-03-10T10:50:35.000Z</time>
      </trkpt>
      <trkpt lat="45.44954" lon="4.76361">
        <ele>138.19999694824</ele>
        <time>2020-03-10T10:50:42.000Z</time>
      </trkpt>
      <trkpt lat="45.4495" lon="4.76386">
        <ele>138.39999389648</ele>
        <time>2020-03-10T10:50:49.000Z</time>
      </trkpt>
      <trkpt lat="45.44949" lon="4.76397">
        <ele>138.39999389648</ele>
        <time>2020-03-10T10:50:52.000Z</time>
      </trkpt>
      <trkpt lat="45.44948" lon="4.7641">
        <ele>138.80000305176</ele>
        <time>2020-03-10T10:50:56.000Z</time>
      </trkpt>
      <trkpt lat="45.44944" lon="4.7643">
        <ele>138.39999389648</ele>
        <time>2020-03-10T10:51:02.000Z</time>
      </trkpt>
      <trkpt lat="45.44941" lon="4.76444">
        <ele>138.39999389648</ele>
        <time>2020-03-10T10:51:07.000Z</time>
      </trkpt>
      <trkpt lat="45.44937" lon="4.76458">
        <ele>138.60000610352</ele>
        <time>2020-03-10T10:51:12.000Z</time>
      </trkpt>
      <trkpt lat="45.44937" lon="4.76461">
        <ele>138.60000610352</ele>
        <time>2020-03-10T10:51:13.000Z</time>
      </trkpt>
      <trkpt lat="45.44933" lon="4.76483">
        <ele>138.80000305176</ele>
        <time>2020-03-10T10:51:20.000Z</time>
      </trkpt>
      <trkpt lat="45.44931" lon="4.7649">
        <ele>139</ele>
        <time>2020-03-10T10:51:22.000Z</time>
      </trkpt>
      <trkpt lat="45.4493" lon="4.76493">
        <ele>139</ele>
        <time>2020-03-10T10:51:23.000Z</time>
      </trkpt>
      <trkpt lat="45.44927" lon="4.76506">
        <ele>138.80000305176</ele>
        <time>2020-03-10T10:51:27.000Z</time>
      </trkpt>
      <trkpt lat="45.44925" lon="4.76521">
        <ele>138.80000305176</ele>
        <time>2020-03-10T10:51:32.000Z</time>
      </trkpt>
      <trkpt lat="45.44925" lon="4.76525">
        <ele>138.80000305176</ele>
        <time>2020-03-10T10:51:33.000Z</time>
      </trkpt>
      <trkpt lat="45.44922" lon="4.76545">
        <ele>139.19999694824</ele>
        <time>2020-03-10T10:51:39.000Z</time>
      </trkpt>
      <trkpt lat="45.4492" lon="4.76555">
        <ele>139.60000610352</ele>
        <time>2020-03-10T10:51:42.000Z</time>
      </trkpt>
      <trkpt lat="45.44919" lon="4.76566">
        <ele>139.60000610352</ele>
        <time>2020-03-10T10:51:45.000Z</time>
      </trkpt>
      <trkpt lat="45.44916" lon="4.76583">
        <ele>140</ele>
        <time>2020-03-10T10:51:50.000Z</time>
      </trkpt>
      <trkpt lat="45.44916" lon="4.76589">
        <ele>140</ele>
        <time>2020-03-10T10:51:52.000Z</time>
      </trkpt>
      <trkpt lat="45.44915" lon="4.76603">
        <ele>140</ele>
        <time>2020-03-10T10:51:57.000Z</time>
      </trkpt>
      <trkpt lat="45.44913" lon="4.7662">
        <ele>140.19999694824</ele>
        <time>2020-03-10T10:52:02.000Z</time>
      </trkpt>
      <trkpt lat="45.44913" lon="4.76625">
        <ele>140.19999694824</ele>
        <time>2020-03-10T10:52:03.000Z</time>
      </trkpt>
      <trkpt lat="45.44913" lon="4.76638">
        <ele>140.60000610352</ele>
        <time>2020-03-10T10:52:07.000Z</time>
      </trkpt>
      <trkpt lat="45.44912" lon="4.76642">
        <ele>141</ele>
        <time>2020-03-10T10:52:09.000Z</time>
      </trkpt>
      <trkpt lat="45.44912" lon="4.76645">
        <ele>141.39999389648</ele>
        <time>2020-03-10T10:52:10.000Z</time>
      </trkpt>
      <trkpt lat="45.44912" lon="4.7665">
        <ele>141.60000610352</ele>
        <time>2020-03-10T10:52:12.000Z</time>
      </trkpt>
      <trkpt lat="45.44912" lon="4.76658">
        <ele>141.80000305176</ele>
        <time>2020-03-10T10:52:15.000Z</time>
      </trkpt>
      <trkpt lat="45.44912" lon="4.76661">
        <ele>142</ele>
        <time>2020-03-10T10:52:16.000Z</time>
      </trkpt>
      <trkpt lat="45.44912" lon="4.76667">
        <ele>142.39999389648</ele>
        <time>2020-03-10T10:52:18.000Z</time>
      </trkpt>
      <trkpt lat="45.44912" lon="4.7667">
        <ele>142.60000610352</ele>
        <time>2020-03-10T10:52:19.000Z</time>
      </trkpt>
      <trkpt lat="45.44911" lon="4.76679">
        <ele>143.19999694824</ele>
        <time>2020-03-10T10:52:22.000Z</time>
      </trkpt>
      <trkpt lat="45.4491" lon="4.76684">
        <ele>143.60000610352</ele>
        <time>2020-03-10T10:52:24.000Z</time>
      </trkpt>
      <trkpt lat="45.44908" lon="4.76695">
        <ele>143.80000305176</ele>
        <time>2020-03-10T10:52:28.000Z</time>
      </trkpt>
      <trkpt lat="45.44908" lon="4.76698">
        <ele>144</ele>
        <time>2020-03-10T10:52:29.000Z</time>
      </trkpt>
      <trkpt lat="45.44908" lon="4.76705">
        <ele>144</ele>
        <time>2020-03-10T10:52:31.000Z</time>
      </trkpt>
      <trkpt lat="45.44908" lon="4.76707">
        <ele>144</ele>
        <time>2020-03-10T10:52:32.000Z</time>
      </trkpt>
      <trkpt lat="45.44906" lon="4.76716">
        <ele>144.19999694824</ele>
        <time>2020-03-10T10:52:35.000Z</time>
      </trkpt>
      <trkpt lat="45.44902" lon="4.76733">
        <ele>144.80000305176</ele>
        <time>2020-03-10T10:52:41.000Z</time>
      </trkpt>
      <trkpt lat="45.44901" lon="4.76736">
        <ele>144.80000305176</ele>
        <time>2020-03-10T10:52:42.000Z</time>
      </trkpt>
      <trkpt lat="45.44896" lon="4.76752">
        <ele>145</ele>
        <time>2020-03-10T10:52:48.000Z</time>
      </trkpt>
      <trkpt lat="45.44893" lon="4.76762">
        <ele>145.19999694824</ele>
        <time>2020-03-10T10:52:52.000Z</time>
      </trkpt>
      <trkpt lat="45.44891" lon="4.76771">
        <ele>145.39999389648</ele>
        <time>2020-03-10T10:52:55.000Z</time>
      </trkpt>
      <trkpt lat="45.4489" lon="4.76773">
        <ele>145.60000610352</ele>
        <time>2020-03-10T10:52:56.000Z</time>
      </trkpt>
      <trkpt lat="45.44885" lon="4.76776">
        <ele>145.80000305176</ele>
        <time>2020-03-10T10:52:58.000Z</time>
      </trkpt>
      <trkpt lat="45.44883" lon="4.76776">
        <ele>145.80000305176</ele>
        <time>2020-03-10T10:52:59.000Z</time>
      </trkpt>
      <trkpt lat="45.44876" lon="4.76774">
        <ele>146</ele>
        <time>2020-03-10T10:53:02.000Z</time>
      </trkpt>
      <trkpt lat="45.44867" lon="4.76774">
        <ele>146.60000610352</ele>
        <time>2020-03-10T10:53:06.000Z</time>
      </trkpt>
      <trkpt lat="45.44865" lon="4.76773">
        <ele>146.60000610352</ele>
        <time>2020-03-10T10:53:07.000Z</time>
      </trkpt>
      <trkpt lat="45.44856" lon="4.76778">
        <ele>146.60000610352</ele>
        <time>2020-03-10T10:53:12.000Z</time>
      </trkpt>
      <trkpt lat="45.44846" lon="4.7678">
        <ele>146.39999389648</ele>
        <time>2020-03-10T10:53:17.000Z</time>
      </trkpt>
      <trkpt lat="45.44835" lon="4.76783">
        <ele>147</ele>
        <time>2020-03-10T10:53:22.000Z</time>
      </trkpt>
      <trkpt lat="45.44833" lon="4.76783">
        <ele>147</ele>
        <time>2020-03-10T10:53:23.000Z</time>
      </trkpt>
      <trkpt lat="45.44831" lon="4.76783">
        <ele>147.19999694824</ele>
        <time>2020-03-10T10:53:24.000Z</time>
      </trkpt>
      <trkpt lat="45.44822" lon="4.76782">
        <ele>147.60000610352</ele>
        <time>2020-03-10T10:53:28.000Z</time>
      </trkpt>
      <trkpt lat="45.44814" lon="4.76774">
        <ele>147.80000305176</ele>
        <time>2020-03-10T10:53:32.000Z</time>
      </trkpt>
      <trkpt lat="45.4481" lon="4.76772">
        <ele>147.80000305176</ele>
        <time>2020-03-10T10:53:34.000Z</time>
      </trkpt>
      <trkpt lat="45.44807" lon="4.76773">
        <ele>147.60000610352</ele>
        <time>2020-03-10T10:53:36.000Z</time>
      </trkpt>
      <trkpt lat="45.44805" lon="4.76777">
        <ele>147.80000305176</ele>
        <time>2020-03-10T10:53:38.000Z</time>
      </trkpt>
      <trkpt lat="45.44803" lon="4.76783">
        <ele>148.19999694824</ele>
        <time>2020-03-10T10:53:40.000Z</time>
      </trkpt>
      <trkpt lat="45.44802" lon="4.76789">
        <ele>148.60000610352</ele>
        <time>2020-03-10T10:53:42.000Z</time>
      </trkpt>
      <trkpt lat="45.448" lon="4.76794">
        <ele>149</ele>
        <time>2020-03-10T10:53:44.000Z</time>
      </trkpt>
      <trkpt lat="45.448" lon="4.76797">
        <ele>149</ele>
        <time>2020-03-10T10:53:45.000Z</time>
      </trkpt>
      <trkpt lat="45.44799" lon="4.76803">
        <ele>149.19999694824</ele>
        <time>2020-03-10T10:53:47.000Z</time>
      </trkpt>
      <trkpt lat="45.44798" lon="4.76809">
        <ele>149.80000305176</ele>
        <time>2020-03-10T10:53:49.000Z</time>
      </trkpt>
      <trkpt lat="45.44797" lon="4.76815">
        <ele>150</ele>
        <time>2020-03-10T10:53:52.000Z</time>
      </trkpt>
      <trkpt lat="45.44797" lon="4.76826">
        <ele>150</ele>
        <time>2020-03-10T10:53:55.000Z</time>
      </trkpt>
      <trkpt lat="45.44792" lon="4.76828">
        <ele>150.19999694824</ele>
        <time>2020-03-10T10:53:57.000Z</time>
      </trkpt>
      <trkpt lat="45.44788" lon="4.76834">
        <ele>150.39999389648</ele>
        <time>2020-03-10T10:53:58.000Z</time>
      </trkpt>
      <trkpt lat="45.44787" lon="4.76838">
        <ele>150.60000610352</ele>
        <time>2020-03-10T10:53:59.000Z</time>
      </trkpt>
      <trkpt lat="45.44787" lon="4.76842">
        <ele>150.80000305176</ele>
        <time>2020-03-10T10:54:00.000Z</time>
      </trkpt>
      <trkpt lat="45.44787" lon="4.76851">
        <ele>151.39999389648</ele>
        <time>2020-03-10T10:54:02.000Z</time>
      </trkpt>
      <trkpt lat="45.44787" lon="4.76854">
        <ele>151.19999694824</ele>
        <time>2020-03-10T10:54:03.000Z</time>
      </trkpt>
    </trkseg>
  </trk>
</gpx>